<?xml version='1.0' encoding='UTF-8'?><gpx version="1.1" creator="JPX - https://github.com/jenetics/jpx" xmlns="http://www.topografix.com/GPX/1/1"><trk><trkseg><trkpt lat="40.95690879761859" lon="17.289327343991886"><ele>15.0</ele><time>2026-05-01T10:35:29.001Z</time></trkpt><trkpt lat="40.956739405891696" lon="17.28926319766426"><ele>15.0</ele><time>2026-05-01T10:35:33Z</time></trkpt><trkpt lat="40.956672872452444" lon="17.28923304824009"><ele>15.0</ele><time>2026-05-01T10:35:37Z</time></trkpt><trkpt lat="40.95661234574162" lon="17.289311076823807"><ele>15.0</ele><time>2026-05-01T10:35:39Z</time></trkpt><trkpt lat="40.9565643211162" lon="17.289443254788"><ele>15.0</ele><time>2026-05-01T10:35:41Z</time></trkpt><trkpt lat="40.95651667712482" lon="17.289523910525368"><ele>15.5</ele><time>2026-05-01T10:35:42Z</time></trkpt><trkpt lat="40.956472962073185" lon="17.289631588228403"><ele>16.0</ele><time>2026-05-01T10:35:44Z</time></trkpt><trkpt lat="40.956483856007424" lon="17.28973210562147"><ele>16.5</ele><time>2026-05-01T10:35:46Z</time></trkpt><trkpt lat="40.95641274769418" lon="17.289786871677734"><ele>17.0</ele><time>2026-05-01T10:35:48Z</time></trkpt><trkpt lat="40.95635908168754" lon="17.289879493623257"><ele>17.5</ele><time>2026-05-01T10:35:50Z</time></trkpt><trkpt lat="40.956292986520786" lon="17.28995817621083"><ele>18.0</ele><time>2026-05-01T10:35:52Z</time></trkpt><trkpt lat="40.95626821187322" lon="17.290040088609054"><ele>18.0</ele><time>2026-05-01T10:35:54Z</time></trkpt><trkpt lat="40.95615195444805" lon="17.289891573966162"><ele>18.0</ele><time>2026-05-01T10:35:55Z</time></trkpt><trkpt lat="40.95586392335398" lon="17.289632172371668"><ele>18.166666666666668</ele><time>2026-05-01T10:36:00Z</time></trkpt><trkpt lat="40.95579127712672" lon="17.28958109244089"><ele>18.333333333333332</ele><time>2026-05-01T10:36:02Z</time></trkpt><trkpt lat="40.9557116381709" lon="17.28958470664897"><ele>18.5</ele><time>2026-05-01T10:36:04Z</time></trkpt><trkpt lat="40.95570226378687" lon="17.289732057291225"><ele>18.666666666666664</ele><time>2026-05-01T10:36:05Z</time></trkpt><trkpt lat="40.95570310750845" lon="17.289835576795838"><ele>18.833333333333332</ele><time>2026-05-01T10:36:06Z</time></trkpt><trkpt lat="40.95568629638353" lon="17.28992467985598"><ele>19.0</ele><time>2026-05-01T10:36:06.999Z</time></trkpt><trkpt lat="40.95566736764989" lon="17.29006209691731"><ele>19.166666666666664</ele><time>2026-05-01T10:36:08.999Z</time></trkpt><trkpt lat="40.95564170006317" lon="17.290191224902905"><ele>19.333333333333332</ele><time>2026-05-01T10:36:10.999Z</time></trkpt><trkpt lat="40.95562332219871" lon="17.29030610429291"><ele>19.5</ele><time>2026-05-01T10:36:19.999Z</time></trkpt><trkpt lat="40.955582880201014" lon="17.290399045163095"><ele>19.666666666666668</ele><time>2026-05-01T10:36:23.999Z</time></trkpt><trkpt lat="40.955549590700656" lon="17.290504497653117"><ele>19.833333333333336</ele><time>2026-05-01T10:36:25.999Z</time></trkpt><trkpt lat="40.95551285694679" lon="17.29057857634222"><ele>20.0</ele><time>2026-05-01T10:36:27.999Z</time></trkpt><trkpt lat="40.95540345521816" lon="17.29048135526494"><ele>20.0</ele><time>2026-05-01T10:36:28.999Z</time></trkpt><trkpt lat="40.955326497367466" lon="17.290452728443253"><ele>20.0</ele><time>2026-05-01T10:36:29.999Z</time></trkpt><trkpt lat="40.955265369100914" lon="17.29039671653912"><ele>20.0</ele><time>2026-05-01T10:36:30.999Z</time></trkpt><trkpt lat="40.955096475170336" lon="17.290242952069278"><ele>20.0</ele><time>2026-05-01T10:36:32.999Z</time></trkpt><trkpt lat="40.95501860732792" lon="17.29016557561892"><ele>20.5</ele><time>2026-05-01T10:36:33.999Z</time></trkpt><trkpt lat="40.954950123250754" lon="17.290093321936087"><ele>21.0</ele><time>2026-05-01T10:36:34.999Z</time></trkpt><trkpt lat="40.954868926947064" lon="17.28999384953231"><ele>21.5</ele><time>2026-05-01T10:36:35.999Z</time></trkpt><trkpt lat="40.954776360469474" lon="17.289884252164136"><ele>22.0</ele><time>2026-05-01T10:36:36.999Z</time></trkpt><trkpt lat="40.954676837890794" lon="17.289732884095052"><ele>22.0</ele><time>2026-05-01T10:36:37.999Z</time></trkpt><trkpt lat="40.9545673476655" lon="17.289548102059637"><ele>22.0</ele><time>2026-05-01T10:36:38.999Z</time></trkpt><trkpt lat="40.95441914565688" lon="17.289343290721625"><ele>22.0</ele><time>2026-05-01T10:36:39.999Z</time></trkpt><trkpt lat="40.954269724756294" lon="17.289151178899306"><ele>22.0</ele><time>2026-05-01T10:36:40.999Z</time></trkpt><trkpt lat="40.95415945885786" lon="17.288975151279395"><ele>22.0</ele><time>2026-05-01T10:36:41.999Z</time></trkpt><trkpt lat="40.95403084551445" lon="17.28878156899965"><ele>22.0</ele><time>2026-05-01T10:36:42.999Z</time></trkpt><trkpt lat="40.953908868386634" lon="17.28859578929415"><ele>21.75</ele><time>2026-05-01T10:36:43.999Z</time></trkpt><trkpt lat="40.95380959191579" lon="17.28845513165584"><ele>21.5</ele><time>2026-05-01T10:36:44.999Z</time></trkpt><trkpt lat="40.95372144455459" lon="17.288302351854117"><ele>21.25</ele><time>2026-05-01T10:36:45.999Z</time></trkpt><trkpt lat="40.953634932747946" lon="17.288144716569747"><ele>21.0</ele><time>2026-05-01T10:36:46.999Z</time></trkpt><trkpt lat="40.953549853534824" lon="17.287980479885267"><ele>21.0</ele><time>2026-05-01T10:36:47.999Z</time></trkpt><trkpt lat="40.953400030710725" lon="17.287600037039358"><ele>21.0</ele><time>2026-05-01T10:36:48.999Z</time></trkpt><trkpt lat="40.95323938316939" lon="17.28747574121302"><ele>21.0</ele><time>2026-05-01T10:36:49.999Z</time></trkpt><trkpt lat="40.953116776419535" lon="17.287292944598583"><ele>21.0</ele><time>2026-05-01T10:36:50.999Z</time></trkpt><trkpt lat="40.95301114612608" lon="17.287160756360574"><ele>21.0</ele><time>2026-05-01T10:36:51.999Z</time></trkpt><trkpt lat="40.952910698907196" lon="17.28702714441994"><ele>21.0</ele><time>2026-05-01T10:36:52.999Z</time></trkpt><trkpt lat="40.95278968310637" lon="17.286915770133433"><ele>21.0</ele><time>2026-05-01T10:36:53.999Z</time></trkpt><trkpt lat="40.952656404038066" lon="17.286746010826434"><ele>21.0</ele><time>2026-05-01T10:36:54.999Z</time></trkpt><trkpt lat="40.95250475254313" lon="17.286576575263123"><ele>20.8</ele><time>2026-05-01T10:36:55.999Z</time></trkpt><trkpt lat="40.95238648465267" lon="17.286439671237535"><ele>20.6</ele><time>2026-05-01T10:36:56.999Z</time></trkpt><trkpt lat="40.95231237547015" lon="17.28634444598027"><ele>20.4</ele><time>2026-05-01T10:36:57.999Z</time></trkpt><trkpt lat="40.95230520818679" lon="17.286248366722937"><ele>20.2</ele><time>2026-05-01T10:36:58.999Z</time></trkpt><trkpt lat="40.95229381049175" lon="17.28614543432881"><ele>20.0</ele><time>2026-05-01T10:36:59.999Z</time></trkpt><trkpt lat="40.95228837946652" lon="17.286018530307523"><ele>20.4</ele><time>2026-05-01T10:37:00.999Z</time></trkpt><trkpt lat="40.952265857954664" lon="17.285905130336104"><ele>20.8</ele><time>2026-05-01T10:37:01.999Z</time></trkpt><trkpt lat="40.952215920379516" lon="17.285809413124344"><ele>21.200000000000003</ele><time>2026-05-01T10:37:02.999Z</time></trkpt><trkpt lat="40.95210954336073" lon="17.28579710400383"><ele>21.6</ele><time>2026-05-01T10:37:03.999Z</time></trkpt><trkpt lat="40.952025492673414" lon="17.285821165808684"><ele>22.0</ele><time>2026-05-01T10:37:04.999Z</time></trkpt><trkpt lat="40.95196910754838" lon="17.285904826739642"><ele>22.0</ele><time>2026-05-01T10:37:05.999Z</time></trkpt><trkpt lat="40.951945238813245" lon="17.28603795538495"><ele>22.0</ele><time>2026-05-01T10:37:06.999Z</time></trkpt><trkpt lat="40.9519457874438" lon="17.286184004643943"><ele>22.0</ele><time>2026-05-01T10:37:07.999Z</time></trkpt><trkpt lat="40.95194671362919" lon="17.286307455054935"><ele>22.0</ele><time>2026-05-01T10:37:08.999Z</time></trkpt><trkpt lat="40.951890995471466" lon="17.286419110730016"><ele>22.0</ele><time>2026-05-01T10:37:09.999Z</time></trkpt><trkpt lat="40.95177953651172" lon="17.28647215494579"><ele>23.0</ele><time>2026-05-01T10:37:10.999Z</time></trkpt><trkpt lat="40.95167315627696" lon="17.28660139578973"><ele>24.0</ele><time>2026-05-01T10:37:11.999Z</time></trkpt><trkpt lat="40.95156421101449" lon="17.286733955160646"><ele>25.0</ele><time>2026-05-01T10:37:12.998Z</time></trkpt><trkpt lat="40.95143137094514" lon="17.286849550527286"><ele>25.0</ele><time>2026-05-01T10:37:13.998Z</time></trkpt><trkpt lat="40.95132438700819" lon="17.28702410273416"><ele>25.0</ele><time>2026-05-01T10:37:14.998Z</time></trkpt><trkpt lat="40.95122076322703" lon="17.28714822984243"><ele>25.0</ele><time>2026-05-01T10:37:15.998Z</time></trkpt><trkpt lat="40.951103577204506" lon="17.28731063880255"><ele>25.333333333333336</ele><time>2026-05-01T10:37:16.998Z</time></trkpt><trkpt lat="40.9509745787872" lon="17.287453606543718"><ele>25.666666666666664</ele><time>2026-05-01T10:37:17.998Z</time></trkpt><trkpt lat="40.95085669511853" lon="17.287610082235595"><ele>26.0</ele><time>2026-05-01T10:37:18.998Z</time></trkpt><trkpt lat="40.950746979659186" lon="17.287727728731443"><ele>27.0</ele><time>2026-05-01T10:37:19.998Z</time></trkpt><trkpt lat="40.950652762756434" lon="17.28783009833898"><ele>28.0</ele><time>2026-05-01T10:37:20.998Z</time></trkpt><trkpt lat="40.950570332856714" lon="17.28793820006622"><ele>29.0</ele><time>2026-05-01T10:37:21.998Z</time></trkpt><trkpt lat="40.950466836792764" lon="17.288061921359123"><ele>30.0</ele><time>2026-05-01T10:37:22.998Z</time></trkpt><trkpt lat="40.95035490957958" lon="17.288183667402464"><ele>30.0</ele><time>2026-05-01T10:37:23.998Z</time></trkpt><trkpt lat="40.950208407668136" lon="17.288345296839925"><ele>30.0</ele><time>2026-05-01T10:37:24.998Z</time></trkpt><trkpt lat="40.95011759259187" lon="17.288451814288628"><ele>30.0</ele><time>2026-05-01T10:37:25.998Z</time></trkpt><trkpt lat="40.95002645787965" lon="17.288558706667995"><ele>30.0</ele><time>2026-05-01T10:37:26.998Z</time></trkpt><trkpt lat="40.949929879903856" lon="17.28867198345468"><ele>30.0</ele><time>2026-05-01T10:37:27.998Z</time></trkpt><trkpt lat="40.949859498867724" lon="17.288778094559397"><ele>30.0</ele><time>2026-05-01T10:37:28.998Z</time></trkpt><trkpt lat="40.94978578150476" lon="17.288849423502505"><ele>30.0</ele><time>2026-05-01T10:37:29.999Z</time></trkpt><trkpt lat="40.94971884178298" lon="17.288923524449764"><ele>30.0</ele><time>2026-05-01T10:37:30.999Z</time></trkpt><trkpt lat="40.94963037012161" lon="17.289028763587265"><ele>30.0</ele><time>2026-05-01T10:37:31.999Z</time></trkpt><trkpt lat="40.94957601055287" lon="17.28913484828558"><ele>30.0</ele><time>2026-05-01T10:37:32.999Z</time></trkpt><trkpt lat="40.94948372036945" lon="17.28921660220582"><ele>30.0</ele><time>2026-05-01T10:37:33.999Z</time></trkpt><trkpt lat="40.94940367507632" lon="17.28928982100188"><ele>30.0</ele><time>2026-05-01T10:37:34.999Z</time></trkpt><trkpt lat="40.94932499866129" lon="17.289403373067064"><ele>30.0</ele><time>2026-05-01T10:37:35.999Z</time></trkpt><trkpt lat="40.94925707297588" lon="17.289486004072312"><ele>30.0</ele><time>2026-05-01T10:37:36.999Z</time></trkpt><trkpt lat="40.94918559650309" lon="17.28957627709709"><ele>30.25</ele><time>2026-05-01T10:37:37.999Z</time></trkpt><trkpt lat="40.94908174517024" lon="17.289668028797703"><ele>30.5</ele><time>2026-05-01T10:37:38.999Z</time></trkpt><trkpt lat="40.949001682915664" lon="17.289784108424335"><ele>30.75</ele><time>2026-05-01T10:37:39.999Z</time></trkpt><trkpt lat="40.94892165255325" lon="17.289859051791534"><ele>31.0</ele><time>2026-05-01T10:37:40.999Z</time></trkpt><trkpt lat="40.94883018000023" lon="17.289961106878728"><ele>31.0</ele><time>2026-05-01T10:37:41.999Z</time></trkpt><trkpt lat="40.94874757369276" lon="17.290056756320364"><ele>31.0</ele><time>2026-05-01T10:37:42.999Z</time></trkpt><trkpt lat="40.9486761393402" lon="17.290139469788034"><ele>31.0</ele><time>2026-05-01T10:37:43.999Z</time></trkpt><trkpt lat="40.94859561689398" lon="17.290232706304945"><ele>31.0</ele><time>2026-05-01T10:37:44.999Z</time></trkpt><trkpt lat="40.94853688617149" lon="17.290327067678817"><ele>31.0</ele><time>2026-05-01T10:37:45.999Z</time></trkpt><trkpt lat="40.94845400604875" lon="17.290370904616974"><ele>31.75</ele><time>2026-05-01T10:37:46.999Z</time></trkpt><trkpt lat="40.94834525661789" lon="17.29039307456192"><ele>32.5</ele><time>2026-05-01T10:37:47.999Z</time></trkpt><trkpt lat="40.9482345609911" lon="17.290387385973393"><ele>33.25</ele><time>2026-05-01T10:37:48.999Z</time></trkpt><trkpt lat="40.948127265890804" lon="17.29029112109997"><ele>34.0</ele><time>2026-05-01T10:37:49.999Z</time></trkpt><trkpt lat="40.948033824316006" lon="17.29017923383065"><ele>34.0</ele><time>2026-05-01T10:37:50.999Z</time></trkpt><trkpt lat="40.94791550724526" lon="17.29002359474583"><ele>34.0</ele><time>2026-05-01T10:37:51.999Z</time></trkpt><trkpt lat="40.947788983677775" lon="17.289879603775386"><ele>34.0</ele><time>2026-05-01T10:37:52.999Z</time></trkpt><trkpt lat="40.94766658071562" lon="17.289741695233875"><ele>35.25</ele><time>2026-05-01T10:37:53.999Z</time></trkpt><trkpt lat="40.94754195126212" lon="17.289597949052776"><ele>36.5</ele><time>2026-05-01T10:37:54.999Z</time></trkpt><trkpt lat="40.94744313853264" lon="17.28945243097512"><ele>37.75</ele><time>2026-05-01T10:37:55.999Z</time></trkpt><trkpt lat="40.94733847684724" lon="17.28934480735651"><ele>39.0</ele><time>2026-05-01T10:37:56.999Z</time></trkpt><trkpt lat="40.94721627779712" lon="17.28918501342802"><ele>39.0</ele><time>2026-05-01T10:37:57.999Z</time></trkpt><trkpt lat="40.94708334739971" lon="17.289017793992763"><ele>39.0</ele><time>2026-05-01T10:37:58.999Z</time></trkpt><trkpt lat="40.946925021729704" lon="17.288859823300452"><ele>39.0</ele><time>2026-05-01T10:37:59.999Z</time></trkpt><trkpt lat="40.94677057022064" lon="17.288661229091527"><ele>39.0</ele><time>2026-05-01T10:38:00.999Z</time></trkpt><trkpt lat="40.946610884781116" lon="17.28847453750653"><ele>39.0</ele><time>2026-05-01T10:38:01.999Z</time></trkpt><trkpt lat="40.946471862804785" lon="17.288312317667657"><ele>39.0</ele><time>2026-05-01T10:38:02.999Z</time></trkpt><trkpt lat="40.946350824290796" lon="17.288170125505765"><ele>39.333333333333336</ele><time>2026-05-01T10:38:03.999Z</time></trkpt><trkpt lat="40.946244978691276" lon="17.288040760879614"><ele>39.666666666666664</ele><time>2026-05-01T10:38:04.999Z</time></trkpt><trkpt lat="40.94619347123712" lon="17.287986658219488"><ele>40.0</ele><time>2026-05-01T10:38:05.999Z</time></trkpt><trkpt lat="40.94613990572717" lon="17.287924253237577"><ele>40.33333333333333</ele><time>2026-05-01T10:38:06.999Z</time></trkpt><trkpt lat="40.94609246235848" lon="17.28786898067857"><ele>40.666666666666664</ele><time>2026-05-01T10:38:07.999Z</time></trkpt><trkpt lat="40.94602099798162" lon="17.287785723139468"><ele>41.0</ele><time>2026-05-01T10:38:08.999Z</time></trkpt><trkpt lat="40.94592754991907" lon="17.28767673346333"><ele>40.666666666666664</ele><time>2026-05-01T10:38:09.999Z</time></trkpt><trkpt lat="40.94582743087622" lon="17.28755984347386"><ele>40.333333333333336</ele><time>2026-05-01T10:38:10.999Z</time></trkpt><trkpt lat="40.94570986245186" lon="17.287422580898497"><ele>40.0</ele><time>2026-05-01T10:38:11.999Z</time></trkpt><trkpt lat="40.94557841195579" lon="17.28726631332336"><ele>40.333333333333336</ele><time>2026-05-01T10:38:12.999Z</time></trkpt><trkpt lat="40.94544567050086" lon="17.287109479860185"><ele>40.666666666666664</ele><time>2026-05-01T10:38:13.999Z</time></trkpt><trkpt lat="40.945305088268285" lon="17.286943431053356"><ele>41.0</ele><time>2026-05-01T10:38:14.999Z</time></trkpt><trkpt lat="40.94515053243398" lon="17.286762136308138"><ele>41.0</ele><time>2026-05-01T10:38:15.999Z</time></trkpt><trkpt lat="40.94498108482657" lon="17.286563638071218"><ele>41.0</ele><time>2026-05-01T10:38:16.999Z</time></trkpt><trkpt lat="40.94480817441304" lon="17.286361539936912"><ele>41.5</ele><time>2026-05-01T10:38:17.999Z</time></trkpt><trkpt lat="40.94464011683481" lon="17.286165233391525"><ele>42.0</ele><time>2026-05-01T10:38:18.999Z</time></trkpt><trkpt lat="40.94441753990911" lon="17.2860119632941"><ele>42.0</ele><time>2026-05-01T10:38:19.999Z</time></trkpt><trkpt lat="40.944242680339364" lon="17.285795947462386"><ele>42.0</ele><time>2026-05-01T10:38:20.999Z</time></trkpt><trkpt lat="40.94406656739179" lon="17.285595763743085"><ele>41.666666666666664</ele><time>2026-05-01T10:38:21.999Z</time></trkpt><trkpt lat="40.943902655910456" lon="17.28539698840313"><ele>41.33333333333333</ele><time>2026-05-01T10:38:22.999Z</time></trkpt><trkpt lat="40.94379863131976" lon="17.285175148805763"><ele>41.0</ele><time>2026-05-01T10:38:23.999Z</time></trkpt><trkpt lat="40.943679158779894" lon="17.285035150530287"><ele>41.0</ele><time>2026-05-01T10:38:24.999Z</time></trkpt><trkpt lat="40.94357251190796" lon="17.284911580216193"><ele>41.0</ele><time>2026-05-01T10:38:25.999Z</time></trkpt><trkpt lat="40.943483293539764" lon="17.28480499335517"><ele>41.0</ele><time>2026-05-01T10:38:26.999Z</time></trkpt><trkpt lat="40.94339732864644" lon="17.2847022933393"><ele>41.0</ele><time>2026-05-01T10:38:27.999Z</time></trkpt><trkpt lat="40.9433142754409" lon="17.28459975747734"><ele>41.0</ele><time>2026-05-01T10:38:28.999Z</time></trkpt><trkpt lat="40.9432489581512" lon="17.284513086189563"><ele>41.0</ele><time>2026-05-01T10:38:29.999Z</time></trkpt><trkpt lat="40.943189370482436" lon="17.284418793549175"><ele>41.0</ele><time>2026-05-01T10:38:30.999Z</time></trkpt><trkpt lat="40.94316219639729" lon="17.284321799633492"><ele>41.0</ele><time>2026-05-01T10:38:31.999Z</time></trkpt><trkpt lat="40.94312030629999" lon="17.284238173769367"><ele>41.0</ele><time>2026-05-01T10:38:32.999Z</time></trkpt><trkpt lat="40.94301681918181" lon="17.284170024411615"><ele>41.0</ele><time>2026-05-01T10:38:34.999Z</time></trkpt><trkpt lat="40.94291677300227" lon="17.284100361156938"><ele>41.0</ele><time>2026-05-01T10:38:35.999Z</time></trkpt><trkpt lat="40.942821979962986" lon="17.284049366083607"><ele>41.0</ele><time>2026-05-01T10:38:36.999Z</time></trkpt><trkpt lat="40.94275154665389" lon="17.283955768249022"><ele>41.0</ele><time>2026-05-01T10:38:37.999Z</time></trkpt><trkpt lat="40.94265036966072" lon="17.283836842361595"><ele>41.5</ele><time>2026-05-01T10:38:38.999Z</time></trkpt><trkpt lat="40.94254924148245" lon="17.28371693027084"><ele>42.0</ele><time>2026-05-01T10:38:39.999Z</time></trkpt><trkpt lat="40.94241587456857" lon="17.283558031132014"><ele>42.5</ele><time>2026-05-01T10:38:40.999Z</time></trkpt><trkpt lat="40.942323561557075" lon="17.283450143689237"><ele>43.0</ele><time>2026-05-01T10:38:41.999Z</time></trkpt><trkpt lat="40.942205205145186" lon="17.28334041060533"><ele>43.66666666666667</ele><time>2026-05-01T10:38:42.999Z</time></trkpt><trkpt lat="40.94210531333655" lon="17.28319553389564"><ele>44.333333333333336</ele><time>2026-05-01T10:38:43.999Z</time></trkpt><trkpt lat="40.94199125515367" lon="17.283062338701306"><ele>45.0</ele><time>2026-05-01T10:38:44.999Z</time></trkpt><trkpt lat="40.94185931702025" lon="17.282908263258747"><ele>45.666666666666664</ele><time>2026-05-01T10:38:45.999Z</time></trkpt><trkpt lat="40.94173925180499" lon="17.282769918064744"><ele>46.33333333333333</ele><time>2026-05-01T10:38:46.999Z</time></trkpt><trkpt lat="40.941597485493304" lon="17.28262650376396"><ele>47.0</ele><time>2026-05-01T10:38:47.999Z</time></trkpt><trkpt lat="40.94145659193015" lon="17.282456040730615"><ele>47.666666666666664</ele><time>2026-05-01T10:38:48.999Z</time></trkpt><trkpt lat="40.94130809493958" lon="17.282281388510405"><ele>48.33333333333333</ele><time>2026-05-01T10:38:49.999Z</time></trkpt><trkpt lat="40.94113519762842" lon="17.282083386176932"><ele>49.0</ele><time>2026-05-01T10:38:50.999Z</time></trkpt><trkpt lat="40.940963628603875" lon="17.281876890673693"><ele>50.0</ele><time>2026-05-01T10:38:51.999Z</time></trkpt><trkpt lat="40.94079311051711" lon="17.281675998798065"><ele>51.0</ele><time>2026-05-01T10:38:52.999Z</time></trkpt><trkpt lat="40.94062006972809" lon="17.281455637151875"><ele>51.66666666666667</ele><time>2026-05-01T10:38:53.999Z</time></trkpt><trkpt lat="40.94045864920538" lon="17.281266354196763"><ele>52.333333333333336</ele><time>2026-05-01T10:38:54.999Z</time></trkpt><trkpt lat="40.94031181042025" lon="17.281094118337066"><ele>53.0</ele><time>2026-05-01T10:38:55.999Z</time></trkpt><trkpt lat="40.94013429746882" lon="17.280885810722435"><ele>53.5</ele><time>2026-05-01T10:38:56.999Z</time></trkpt><trkpt lat="40.93993332387695" lon="17.28065026524801"><ele>54.0</ele><time>2026-05-01T10:38:57.999Z</time></trkpt><trkpt lat="40.93974241710953" lon="17.280426754197112"><ele>55.0</ele><time>2026-05-01T10:38:58.999Z</time></trkpt><trkpt lat="40.93953394277351" lon="17.28018267525947"><ele>56.0</ele><time>2026-05-01T10:38:59.999Z</time></trkpt><trkpt lat="40.93931816193166" lon="17.27992893305263"><ele>56.0</ele><time>2026-05-01T10:39:00.999Z</time></trkpt><trkpt lat="40.939102923717016" lon="17.279675293784482"><ele>56.0</ele><time>2026-05-01T10:39:01.999Z</time></trkpt><trkpt lat="40.93888617337774" lon="17.27941987258051"><ele>56.0</ele><time>2026-05-01T10:39:02.999Z</time></trkpt><trkpt lat="40.93861816933199" lon="17.27910724542268"><ele>56.0</ele><time>2026-05-01T10:39:03.999Z</time></trkpt><trkpt lat="40.93836228913575" lon="17.278808752155527"><ele>57.0</ele><time>2026-05-01T10:39:04.999Z</time></trkpt><trkpt lat="40.93811295275397" lon="17.278536200928716"><ele>58.0</ele><time>2026-05-01T10:39:05.999Z</time></trkpt><trkpt lat="40.93784847741396" lon="17.278261921444326"><ele>58.5</ele><time>2026-05-01T10:39:06.999Z</time></trkpt><trkpt lat="40.93756950278243" lon="17.277975946722254"><ele>59.0</ele><time>2026-05-01T10:39:07.999Z</time></trkpt><trkpt lat="40.93727577840055" lon="17.277652170054825"><ele>59.0</ele><time>2026-05-01T10:39:08.999Z</time></trkpt><trkpt lat="40.93701481810703" lon="17.277343904538263"><ele>59.0</ele><time>2026-05-01T10:39:09.999Z</time></trkpt><trkpt lat="40.93678015039919" lon="17.27694996652487"><ele>59.0</ele><time>2026-05-01T10:39:10.999Z</time></trkpt><trkpt lat="40.936510054575095" lon="17.27663334092737"><ele>59.0</ele><time>2026-05-01T10:39:11.999Z</time></trkpt><trkpt lat="40.93628389708011" lon="17.276368222958606"><ele>59.0</ele><time>2026-05-01T10:39:12.999Z</time></trkpt><trkpt lat="40.93605384986987" lon="17.276110941868872"><ele>59.0</ele><time>2026-05-01T10:39:13.999Z</time></trkpt><trkpt lat="40.93582629343627" lon="17.275836308214156"><ele>59.5</ele><time>2026-05-01T10:39:14.999Z</time></trkpt><trkpt lat="40.93558525429614" lon="17.27557112394216"><ele>60.0</ele><time>2026-05-01T10:39:15.999Z</time></trkpt><trkpt lat="40.93535539463292" lon="17.27528418540918"><ele>60.0</ele><time>2026-05-01T10:39:16.999Z</time></trkpt><trkpt lat="40.935125555553455" lon="17.275011329562044"><ele>60.0</ele><time>2026-05-01T10:39:17.999Z</time></trkpt><trkpt lat="40.93486704483634" lon="17.27478378104821"><ele>61.0</ele><time>2026-05-01T10:39:19Z</time></trkpt><trkpt lat="40.934640389857904" lon="17.274569068108242"><ele>62.0</ele><time>2026-05-01T10:39:20Z</time></trkpt><trkpt lat="40.93445959586893" lon="17.274288169650948"><ele>62.0</ele><time>2026-05-01T10:39:21Z</time></trkpt><trkpt lat="40.93425994187445" lon="17.2740466164836"><ele>62.0</ele><time>2026-05-01T10:39:22Z</time></trkpt><trkpt lat="40.93408594651019" lon="17.273793370214783"><ele>64.0</ele><time>2026-05-01T10:39:23Z</time></trkpt><trkpt lat="40.933886564452976" lon="17.273560740811064"><ele>66.0</ele><time>2026-05-01T10:39:24Z</time></trkpt><trkpt lat="40.93368304541673" lon="17.273342054320157"><ele>66.5</ele><time>2026-05-01T10:39:25Z</time></trkpt><trkpt lat="40.93348174146232" lon="17.273083237186114"><ele>67.0</ele><time>2026-05-01T10:39:26Z</time></trkpt><trkpt lat="40.93330086831427" lon="17.27285050007008"><ele>67.5</ele><time>2026-05-01T10:39:27Z</time></trkpt><trkpt lat="40.93309404155843" lon="17.272652422495973"><ele>68.0</ele><time>2026-05-01T10:39:28Z</time></trkpt><trkpt lat="40.93289415606859" lon="17.272420004093043"><ele>68.0</ele><time>2026-05-01T10:39:29Z</time></trkpt><trkpt lat="40.93267019696327" lon="17.272159677858546"><ele>68.0</ele><time>2026-05-01T10:39:30Z</time></trkpt><trkpt lat="40.93244831362906" lon="17.271897619696436"><ele>68.0</ele><time>2026-05-01T10:39:31Z</time></trkpt><trkpt lat="40.93222758860537" lon="17.271636371342286"><ele>68.0</ele><time>2026-05-01T10:39:32Z</time></trkpt><trkpt lat="40.93200501746051" lon="17.271368973773203"><ele>68.5</ele><time>2026-05-01T10:39:33Z</time></trkpt><trkpt lat="40.93176126184429" lon="17.27109261250208"><ele>69.0</ele><time>2026-05-01T10:39:34Z</time></trkpt><trkpt lat="40.93152484829812" lon="17.270813930852622"><ele>71.0</ele><time>2026-05-01T10:39:35Z</time></trkpt><trkpt lat="40.931275692982226" lon="17.27053580581407"><ele>73.0</ele><time>2026-05-01T10:39:36Z</time></trkpt><trkpt lat="40.9310287853342" lon="17.270250029170217"><ele>74.0</ele><time>2026-05-01T10:39:37Z</time></trkpt><trkpt lat="40.9307907505313" lon="17.269952555030606"><ele>75.0</ele><time>2026-05-01T10:39:38Z</time></trkpt><trkpt lat="40.93052130934647" lon="17.26969181104836"><ele>75.0</ele><time>2026-05-01T10:39:39Z</time></trkpt><trkpt lat="40.93024631057584" lon="17.26943256741627"><ele>75.0</ele><time>2026-05-01T10:39:40Z</time></trkpt><trkpt lat="40.9300446262219" lon="17.26913756787352"><ele>76.0</ele><time>2026-05-01T10:39:41Z</time></trkpt><trkpt lat="40.929808427745414" lon="17.26885279330569"><ele>77.0</ele><time>2026-05-01T10:39:42Z</time></trkpt><trkpt lat="40.92957078866929" lon="17.26856401536864"><ele>77.0</ele><time>2026-05-01T10:39:43Z</time></trkpt><trkpt lat="40.929335148105466" lon="17.268284045482474"><ele>77.0</ele><time>2026-05-01T10:39:44Z</time></trkpt><trkpt lat="40.92909659875212" lon="17.267999328242524"><ele>78.0</ele><time>2026-05-01T10:39:45Z</time></trkpt><trkpt lat="40.92885173807992" lon="17.267718098021877"><ele>79.0</ele><time>2026-05-01T10:39:46Z</time></trkpt><trkpt lat="40.92861236280648" lon="17.267432808607843"><ele>80.0</ele><time>2026-05-01T10:39:47Z</time></trkpt><trkpt lat="40.928382988918315" lon="17.26713743231225"><ele>81.0</ele><time>2026-05-01T10:39:48Z</time></trkpt><trkpt lat="40.92815500336367" lon="17.26685835853127"><ele>81.0</ele><time>2026-05-01T10:39:49Z</time></trkpt><trkpt lat="40.92790961730001" lon="17.266598665650434"><ele>81.0</ele><time>2026-05-01T10:39:50Z</time></trkpt><trkpt lat="40.92766492293815" lon="17.26632769892411"><ele>83.0</ele><time>2026-05-01T10:39:51Z</time></trkpt><trkpt lat="40.92742462260221" lon="17.26603928958278"><ele>85.0</ele><time>2026-05-01T10:39:52Z</time></trkpt><trkpt lat="40.92719105110157" lon="17.265770132502688"><ele>84.0</ele><time>2026-05-01T10:39:53Z</time></trkpt><trkpt lat="40.92695451804499" lon="17.26549416300485"><ele>83.0</ele><time>2026-05-01T10:39:54Z</time></trkpt><trkpt lat="40.9267163555665" lon="17.26523006679351"><ele>84.5</ele><time>2026-05-01T10:39:55Z</time></trkpt><trkpt lat="40.926471422963594" lon="17.26494198947255"><ele>86.0</ele><time>2026-05-01T10:39:56Z</time></trkpt><trkpt lat="40.9262300988932" lon="17.264648975779934"><ele>86.0</ele><time>2026-05-01T10:39:57Z</time></trkpt><trkpt lat="40.9259926566534" lon="17.26436055559"><ele>86.0</ele><time>2026-05-01T10:39:58Z</time></trkpt><trkpt lat="40.92575447776103" lon="17.26408353741079"><ele>89.0</ele><time>2026-05-01T10:39:59Z</time></trkpt><trkpt lat="40.92551978412754" lon="17.263809774434964"><ele>92.0</ele><time>2026-05-01T10:40:00Z</time></trkpt><trkpt lat="40.9252900492223" lon="17.263544107360786"><ele>92.0</ele><time>2026-05-01T10:40:01Z</time></trkpt><trkpt lat="40.92507091212451" lon="17.263276372052875"><ele>92.0</ele><time>2026-05-01T10:40:02Z</time></trkpt><trkpt lat="40.924841180568535" lon="17.263022997856154"><ele>93.5</ele><time>2026-05-01T10:40:03Z</time></trkpt><trkpt lat="40.9246277930544" lon="17.262781306851966"><ele>95.0</ele><time>2026-05-01T10:40:04Z</time></trkpt><trkpt lat="40.92441115809955" lon="17.2625346775249"><ele>96.5</ele><time>2026-05-01T10:40:05Z</time></trkpt><trkpt lat="40.92421147883945" lon="17.262287710512336"><ele>98.0</ele><time>2026-05-01T10:40:06Z</time></trkpt><trkpt lat="40.924006975417505" lon="17.262040221065803"><ele>98.5</ele><time>2026-05-01T10:40:07Z</time></trkpt><trkpt lat="40.92379458855464" lon="17.26179842081283"><ele>99.0</ele><time>2026-05-01T10:40:08Z</time></trkpt><trkpt lat="40.92359104628562" lon="17.261550211835996"><ele>101.0</ele><time>2026-05-01T10:40:09Z</time></trkpt><trkpt lat="40.923370613934054" lon="17.261289010074044"><ele>103.0</ele><time>2026-05-01T10:40:10Z</time></trkpt><trkpt lat="40.92315461957825" lon="17.261038920716008"><ele>103.0</ele><time>2026-05-01T10:40:11Z</time></trkpt><trkpt lat="40.922928537398505" lon="17.26077808249407"><ele>103.0</ele><time>2026-05-01T10:40:12Z</time></trkpt><trkpt lat="40.92269989735728" lon="17.260510906744617"><ele>104.0</ele><time>2026-05-01T10:40:13Z</time></trkpt><trkpt lat="40.9224755042103" lon="17.260257741517638"><ele>105.0</ele><time>2026-05-01T10:40:14Z</time></trkpt><trkpt lat="40.92224912997688" lon="17.259994807001892"><ele>106.0</ele><time>2026-05-01T10:40:15Z</time></trkpt><trkpt lat="40.92201986926246" lon="17.259729350569366"><ele>107.0</ele><time>2026-05-01T10:40:16Z</time></trkpt><trkpt lat="40.921800643274864" lon="17.259472046710123"><ele>108.0</ele><time>2026-05-01T10:40:17Z</time></trkpt><trkpt lat="40.92158243661952" lon="17.259223696550883"><ele>109.0</ele><time>2026-05-01T10:40:18Z</time></trkpt><trkpt lat="40.92136706306772" lon="17.25897241817687"><ele>110.0</ele><time>2026-05-01T10:40:19Z</time></trkpt><trkpt lat="40.92113500556847" lon="17.258701094384346"><ele>111.0</ele><time>2026-05-01T10:40:20Z</time></trkpt><trkpt lat="40.92091388256545" lon="17.2584408699439"><ele>111.5</ele><time>2026-05-01T10:40:21Z</time></trkpt><trkpt lat="40.920689452165114" lon="17.258202234919285"><ele>112.0</ele><time>2026-05-01T10:40:22Z</time></trkpt><trkpt lat="40.920495616084786" lon="17.25794677568596"><ele>113.0</ele><time>2026-05-01T10:40:23Z</time></trkpt><trkpt lat="40.92029660105279" lon="17.257705443409204"><ele>114.0</ele><time>2026-05-01T10:40:24Z</time></trkpt><trkpt lat="40.92007581880183" lon="17.25746705361458"><ele>117.5</ele><time>2026-05-01T10:40:25Z</time></trkpt><trkpt lat="40.919858412818485" lon="17.257221335897203"><ele>121.0</ele><time>2026-05-01T10:40:26Z</time></trkpt><trkpt lat="40.919658959383334" lon="17.2569993374537"><ele>121.0</ele><time>2026-05-01T10:40:27Z</time></trkpt><trkpt lat="40.91949459107667" lon="17.25678462331868"><ele>121.0</ele><time>2026-05-01T10:40:28Z</time></trkpt><trkpt lat="40.91932429813499" lon="17.256576318457757"><ele>122.0</ele><time>2026-05-01T10:40:29Z</time></trkpt><trkpt lat="40.91920235345224" lon="17.256355005204824"><ele>123.0</ele><time>2026-05-01T10:40:30Z</time></trkpt><trkpt lat="40.91912556188468" lon="17.256084022411056"><ele>124.0</ele><time>2026-05-01T10:40:31Z</time></trkpt><trkpt lat="40.91910771300772" lon="17.255791751741345"><ele>125.5</ele><time>2026-05-01T10:40:32Z</time></trkpt><trkpt lat="40.91916300475992" lon="17.255470472591178"><ele>127.0</ele><time>2026-05-01T10:40:33Z</time></trkpt><trkpt lat="40.91917014641799" lon="17.25511377258674"><ele>128.0</ele><time>2026-05-01T10:40:34Z</time></trkpt><trkpt lat="40.919159747416835" lon="17.254746643158466"><ele>129.0</ele><time>2026-05-01T10:40:35Z</time></trkpt><trkpt lat="40.91918081104759" lon="17.254447190212982"><ele>129.0</ele><time>2026-05-01T10:40:36Z</time></trkpt><trkpt lat="40.919202250120684" lon="17.254154371129008"><ele>129.0</ele><time>2026-05-01T10:40:37Z</time></trkpt><trkpt lat="40.91927293895065" lon="17.253890916855223"><ele>129.0</ele><time>2026-05-01T10:40:38Z</time></trkpt><trkpt lat="40.91936697457068" lon="17.253633623642827"><ele>130.66666666666666</ele><time>2026-05-01T10:40:39Z</time></trkpt><trkpt lat="40.919407497105425" lon="17.253402724964534"><ele>132.33333333333331</ele><time>2026-05-01T10:40:40Z</time></trkpt><trkpt lat="40.91941921870719" lon="17.253175314397463"><ele>134.0</ele><time>2026-05-01T10:40:41Z</time></trkpt><trkpt lat="40.91936431536502" lon="17.2529687847726"><ele>134.33333333333331</ele><time>2026-05-01T10:40:42Z</time></trkpt><trkpt lat="40.91925275429159" lon="17.252784093632865"><ele>134.66666666666666</ele><time>2026-05-01T10:40:43Z</time></trkpt><trkpt lat="40.919121608897136" lon="17.25258664113434"><ele>135.0</ele><time>2026-05-01T10:40:44Z</time></trkpt><trkpt lat="40.91903119044433" lon="17.25234302380325"><ele>135.33333333333334</ele><time>2026-05-01T10:40:45Z</time></trkpt><trkpt lat="40.918973826029095" lon="17.252133759156944"><ele>135.66666666666669</ele><time>2026-05-01T10:40:46Z</time></trkpt><trkpt lat="40.91896714625039" lon="17.2519046044845"><ele>136.0</ele><time>2026-05-01T10:40:47Z</time></trkpt><trkpt lat="40.91899491294777" lon="17.25173475128125"><ele>136.0</ele><time>2026-05-01T10:40:48Z</time></trkpt><trkpt lat="40.9190602417006" lon="17.251582290865386"><ele>136.0</ele><time>2026-05-01T10:40:49Z</time></trkpt><trkpt lat="40.91913860753044" lon="17.25136152402901"><ele>136.0</ele><time>2026-05-01T10:40:50Z</time></trkpt><trkpt lat="40.91918662405671" lon="17.2511516599155"><ele>137.66666666666669</ele><time>2026-05-01T10:40:51Z</time></trkpt><trkpt lat="40.919175184868244" lon="17.250944069729044"><ele>139.33333333333334</ele><time>2026-05-01T10:40:52Z</time></trkpt><trkpt lat="40.91911759362386" lon="17.25072629994036"><ele>141.0</ele><time>2026-05-01T10:40:53Z</time></trkpt><trkpt lat="40.918979452483576" lon="17.250452877566406"><ele>141.0</ele><time>2026-05-01T10:40:54Z</time></trkpt><trkpt lat="40.918841141690564" lon="17.25015588854787"><ele>141.0</ele><time>2026-05-01T10:40:55Z</time></trkpt><trkpt lat="40.91873834534545" lon="17.249883015747645"><ele>143.5</ele><time>2026-05-01T10:40:56Z</time></trkpt><trkpt lat="40.91862888032798" lon="17.249589074245417"><ele>146.0</ele><time>2026-05-01T10:40:57Z</time></trkpt><trkpt lat="40.91853679945718" lon="17.249271050461296"><ele>149.0</ele><time>2026-05-01T10:40:58Z</time></trkpt><trkpt lat="40.918456141802714" lon="17.248937623699206"><ele>152.0</ele><time>2026-05-01T10:40:59Z</time></trkpt><trkpt lat="40.91834306867792" lon="17.248620168037313"><ele>153.0</ele><time>2026-05-01T10:41:00Z</time></trkpt><trkpt lat="40.91825226076236" lon="17.248332217166947"><ele>154.0</ele><time>2026-05-01T10:41:01Z</time></trkpt><trkpt lat="40.91805616111334" lon="17.248078244816288"><ele>154.5</ele><time>2026-05-01T10:41:02Z</time></trkpt><trkpt lat="40.91795433854683" lon="17.247722250883314"><ele>155.0</ele><time>2026-05-01T10:41:03Z</time></trkpt><trkpt lat="40.917862882030654" lon="17.24732523596023"><ele>156.0</ele><time>2026-05-01T10:41:04Z</time></trkpt><trkpt lat="40.9177813003186" lon="17.246916140270574"><ele>157.0</ele><time>2026-05-01T10:41:05Z</time></trkpt><trkpt lat="40.91770116126204" lon="17.246537534448983"><ele>157.5</ele><time>2026-05-01T10:41:06Z</time></trkpt><trkpt lat="40.917667054209204" lon="17.246210400307618"><ele>158.0</ele><time>2026-05-01T10:41:07Z</time></trkpt><trkpt lat="40.91764758472739" lon="17.245941982076538"><ele>158.0</ele><time>2026-05-01T10:41:08Z</time></trkpt><trkpt lat="40.91764629634246" lon="17.24563755440524"><ele>158.0</ele><time>2026-05-01T10:41:09Z</time></trkpt><trkpt lat="40.91763902149647" lon="17.245270009173378"><ele>160.5</ele><time>2026-05-01T10:41:10Z</time></trkpt><trkpt lat="40.91763121296577" lon="17.244887706417597"><ele>163.0</ele><time>2026-05-01T10:41:11Z</time></trkpt><trkpt lat="40.91762494785339" lon="17.244580969011828"><ele>164.0</ele><time>2026-05-01T10:41:12Z</time></trkpt><trkpt lat="40.917619683127484" lon="17.24431368945235"><ele>165.0</ele><time>2026-05-01T10:41:13Z</time></trkpt><trkpt lat="40.91761512705613" lon="17.24407151458331"><ele>166.0</ele><time>2026-05-01T10:41:14Z</time></trkpt><trkpt lat="40.91761000843191" lon="17.243799437694598"><ele>167.0</ele><time>2026-05-01T10:41:15Z</time></trkpt><trkpt lat="40.917604135621204" lon="17.24348727279675"><ele>168.0</ele><time>2026-05-01T10:41:16Z</time></trkpt><trkpt lat="40.91759736556179" lon="17.24312741610038"><ele>169.5</ele><time>2026-05-01T10:41:17Z</time></trkpt><trkpt lat="40.917588849608244" lon="17.242741832203745"><ele>171.0</ele><time>2026-05-01T10:41:18Z</time></trkpt><trkpt lat="40.91756494042311" lon="17.24233041607499"><ele>172.5</ele><time>2026-05-01T10:41:19Z</time></trkpt><trkpt lat="40.91753699251147" lon="17.241959690757795"><ele>174.0</ele><time>2026-05-01T10:41:20Z</time></trkpt><trkpt lat="40.91749945485823" lon="17.241635455875567"><ele>176.0</ele><time>2026-05-01T10:41:21Z</time></trkpt><trkpt lat="40.91745976483029" lon="17.2413259606156"><ele>178.0</ele><time>2026-05-01T10:41:22Z</time></trkpt><trkpt lat="40.91733060932983" lon="17.24110613221327"><ele>180.0</ele><time>2026-05-01T10:41:23Z</time></trkpt><trkpt lat="40.91714033750712" lon="17.24093859049609"><ele>180.0</ele><time>2026-05-01T10:41:24Z</time></trkpt><trkpt lat="40.916916772803745" lon="17.24084618563821"><ele>180.0</ele><time>2026-05-01T10:41:25Z</time></trkpt><trkpt lat="40.916659662641926" lon="17.240786703227567"><ele>180.0</ele><time>2026-05-01T10:41:26Z</time></trkpt><trkpt lat="40.91639210072553" lon="17.240795085437064"><ele>180.0</ele><time>2026-05-01T10:41:27Z</time></trkpt><trkpt lat="40.91614183118415" lon="17.24088688881081"><ele>180.0</ele><time>2026-05-01T10:41:28Z</time></trkpt><trkpt lat="40.915925254364446" lon="17.24091717300844"><ele>180.0</ele><time>2026-05-01T10:41:29Z</time></trkpt><trkpt lat="40.91568256785581" lon="17.24086519002568"><ele>181.5</ele><time>2026-05-01T10:41:30Z</time></trkpt><trkpt lat="40.91539578141322" lon="17.24072512302498"><ele>183.0</ele><time>2026-05-01T10:41:31Z</time></trkpt><trkpt lat="40.91515781852164" lon="17.24060437325754"><ele>185.33333333333334</ele><time>2026-05-01T10:41:32Z</time></trkpt><trkpt lat="40.91496582125967" lon="17.24048176581409"><ele>187.66666666666669</ele><time>2026-05-01T10:41:33Z</time></trkpt><trkpt lat="40.91480535289427" lon="17.24031280687314"><ele>190.0</ele><time>2026-05-01T10:41:34Z</time></trkpt><trkpt lat="40.91467234785991" lon="17.240079108779117"><ele>190.0</ele><time>2026-05-01T10:41:35Z</time></trkpt><trkpt lat="40.914589088553676" lon="17.2398061223367"><ele>190.0</ele><time>2026-05-01T10:41:36Z</time></trkpt><trkpt lat="40.914540674057726" lon="17.23954296379595"><ele>190.0</ele><time>2026-05-01T10:41:37Z</time></trkpt><trkpt lat="40.91461162391168" lon="17.23926464236175"><ele>192.5</ele><time>2026-05-01T10:41:38Z</time></trkpt><trkpt lat="40.91468707793512" lon="17.238975405049217"><ele>195.0</ele><time>2026-05-01T10:41:39Z</time></trkpt><trkpt lat="40.914821065199824" lon="17.238740304908852"><ele>197.5</ele><time>2026-05-01T10:41:40Z</time></trkpt><trkpt lat="40.915007786366374" lon="17.238504115225982"><ele>200.0</ele><time>2026-05-01T10:41:41Z</time></trkpt><trkpt lat="40.91522190588302" lon="17.238258227329865"><ele>204.0</ele><time>2026-05-01T10:41:42Z</time></trkpt><trkpt lat="40.91545276335694" lon="17.23801379030091"><ele>208.0</ele><time>2026-05-01T10:41:43Z</time></trkpt><trkpt lat="40.91567611217825" lon="17.237792062222777"><ele>208.0</ele><time>2026-05-01T10:41:44Z</time></trkpt><trkpt lat="40.915827310379285" lon="17.237636589991084"><ele>208.0</ele><time>2026-05-01T10:41:45Z</time></trkpt><trkpt lat="40.91592846355768" lon="17.237447114124723"><ele>208.0</ele><time>2026-05-01T10:41:46Z</time></trkpt><trkpt lat="40.91598178705788" lon="17.237212911955062"><ele>208.33333333333331</ele><time>2026-05-01T10:41:47Z</time></trkpt><trkpt lat="40.915999634066274" lon="17.23697469272775"><ele>208.66666666666669</ele><time>2026-05-01T10:41:48Z</time></trkpt><trkpt lat="40.915941428526" lon="17.236702641821644"><ele>209.0</ele><time>2026-05-01T10:41:49Z</time></trkpt><trkpt lat="40.91585705143557" lon="17.23641324954774"><ele>212.0</ele><time>2026-05-01T10:41:50Z</time></trkpt><trkpt lat="40.91577240709987" lon="17.236109484680373"><ele>215.0</ele><time>2026-05-01T10:41:51Z</time></trkpt><trkpt lat="40.915729223437" lon="17.235774360816173"><ele>217.0</ele><time>2026-05-01T10:41:52Z</time></trkpt><trkpt lat="40.91573257950884" lon="17.23542512965006"><ele>219.0</ele><time>2026-05-01T10:41:53Z</time></trkpt><trkpt lat="40.91579368382947" lon="17.235065715177864"><ele>218.0</ele><time>2026-05-01T10:41:54Z</time></trkpt><trkpt lat="40.91590360939872" lon="17.23470492016257"><ele>217.0</ele><time>2026-05-01T10:41:55Z</time></trkpt><trkpt lat="40.91602271801579" lon="17.23432602270534"><ele>219.0</ele><time>2026-05-01T10:41:56Z</time></trkpt><trkpt lat="40.91611609255499" lon="17.233939617710135"><ele>221.0</ele><time>2026-05-01T10:41:57Z</time></trkpt><trkpt lat="40.916195753364406" lon="17.23351986320939"><ele>221.0</ele><time>2026-05-01T10:41:58Z</time></trkpt><trkpt lat="40.91629412391319" lon="17.233145947300542"><ele>221.0</ele><time>2026-05-01T10:41:59Z</time></trkpt><trkpt lat="40.916440630073545" lon="17.232819494875258"><ele>225.0</ele><time>2026-05-01T10:42:00Z</time></trkpt><trkpt lat="40.91660655244305" lon="17.232509555724192"><ele>229.0</ele><time>2026-05-01T10:42:01Z</time></trkpt><trkpt lat="40.916727924847294" lon="17.23218773316972"><ele>228.0</ele><time>2026-05-01T10:42:02Z</time></trkpt><trkpt lat="40.91680301557104" lon="17.231809003021553"><ele>227.0</ele><time>2026-05-01T10:42:03Z</time></trkpt><trkpt lat="40.91682889574053" lon="17.231466977743185"><ele>227.0</ele><time>2026-05-01T10:42:04Z</time></trkpt><trkpt lat="40.9168176213893" lon="17.231131575957523"><ele>227.0</ele><time>2026-05-01T10:42:05Z</time></trkpt><trkpt lat="40.91676081627141" lon="17.230885196541642"><ele>227.0</ele><time>2026-05-01T10:42:06Z</time></trkpt><trkpt lat="40.916663786315546" lon="17.230626579019038"><ele>229.0</ele><time>2026-05-01T10:42:07Z</time></trkpt><trkpt lat="40.916516707602064" lon="17.23035600341063"><ele>231.0</ele><time>2026-05-01T10:42:08Z</time></trkpt><trkpt lat="40.9163327802935" lon="17.23004439783276"><ele>230.0</ele><time>2026-05-01T10:42:09Z</time></trkpt><trkpt lat="40.91614800845044" lon="17.22974319332632"><ele>229.0</ele><time>2026-05-01T10:42:10Z</time></trkpt><trkpt lat="40.91597239885554" lon="17.229332059957276"><ele>232.5</ele><time>2026-05-01T10:42:11Z</time></trkpt><trkpt lat="40.91576723360185" lon="17.228973007607575"><ele>236.0</ele><time>2026-05-01T10:42:12Z</time></trkpt><trkpt lat="40.915580627314654" lon="17.22858595175272"><ele>236.0</ele><time>2026-05-01T10:42:13Z</time></trkpt><trkpt lat="40.91539084866873" lon="17.228201242456013"><ele>236.0</ele><time>2026-05-01T10:42:14Z</time></trkpt><trkpt lat="40.915173116431404" lon="17.227791923444343"><ele>236.0</ele><time>2026-05-01T10:42:15Z</time></trkpt><trkpt lat="40.91497901300341" lon="17.227454192248302"><ele>236.0</ele><time>2026-05-01T10:42:16Z</time></trkpt><trkpt lat="40.91482397617812" lon="17.22713017023314"><ele>236.0</ele><time>2026-05-01T10:42:17Z</time></trkpt><trkpt lat="40.91467061689134" lon="17.22682904377582"><ele>236.0</ele><time>2026-05-01T10:42:18Z</time></trkpt><trkpt lat="40.914521469626" lon="17.226529485537775"><ele>236.0</ele><time>2026-05-01T10:42:19Z</time></trkpt><trkpt lat="40.91435260504782" lon="17.226202360249253"><ele>236.0</ele><time>2026-05-01T10:42:20Z</time></trkpt><trkpt lat="40.91417371893816" lon="17.225851670433993"><ele>237.0</ele><time>2026-05-01T10:42:21Z</time></trkpt><trkpt lat="40.91397625476601" lon="17.22549137762981"><ele>238.0</ele><time>2026-05-01T10:42:22Z</time></trkpt><trkpt lat="40.91377348466028" lon="17.22513500747934"><ele>236.0</ele><time>2026-05-01T10:42:23Z</time></trkpt><trkpt lat="40.91365507565309" lon="17.22473139895643"><ele>234.0</ele><time>2026-05-01T10:42:24Z</time></trkpt><trkpt lat="40.91351084425335" lon="17.224447488515665"><ele>234.0</ele><time>2026-05-01T10:42:25Z</time></trkpt><trkpt lat="40.91340076208955" lon="17.224232273461848"><ele>234.0</ele><time>2026-05-01T10:42:26Z</time></trkpt><trkpt lat="40.913308286969524" lon="17.224077134724887"><ele>234.0</ele><time>2026-05-01T10:42:27Z</time></trkpt><trkpt lat="40.913204930353025" lon="17.223965169755353"><ele>234.0</ele><time>2026-05-01T10:42:28Z</time></trkpt><trkpt lat="40.91308209088097" lon="17.22384557278673"><ele>234.0</ele><time>2026-05-01T10:42:29Z</time></trkpt><trkpt lat="40.912897828460444" lon="17.223843877262958"><ele>234.0</ele><time>2026-05-01T10:42:30Z</time></trkpt><trkpt lat="40.91274220756029" lon="17.223903261481684"><ele>234.66666666666669</ele><time>2026-05-01T10:42:31Z</time></trkpt><trkpt lat="40.9126270502818" lon="17.223984801976712"><ele>235.33333333333334</ele><time>2026-05-01T10:42:32Z</time></trkpt><trkpt lat="40.91248076165714" lon="17.22407403356862"><ele>236.0</ele><time>2026-05-01T10:42:33Z</time></trkpt><trkpt lat="40.9122937268614" lon="17.224174916636183"><ele>236.0</ele><time>2026-05-01T10:42:34Z</time></trkpt><trkpt lat="40.9121151560389" lon="17.22422214975166"><ele>236.0</ele><time>2026-05-01T10:42:35Z</time></trkpt><trkpt lat="40.9119764310033" lon="17.224194289728235"><ele>236.0</ele><time>2026-05-01T10:42:36Z</time></trkpt><trkpt lat="40.911849730400775" lon="17.224133490971315"><ele>236.0</ele><time>2026-05-01T10:42:37Z</time></trkpt><trkpt lat="40.9117578332779" lon="17.223983699261552"><ele>236.0</ele><time>2026-05-01T10:42:38Z</time></trkpt><trkpt lat="40.91167264929914" lon="17.22379871356303"><ele>236.0</ele><time>2026-05-01T10:42:39Z</time></trkpt><trkpt lat="40.911573093673255" lon="17.223535344511706"><ele>235.33333333333334</ele><time>2026-05-01T10:42:40Z</time></trkpt><trkpt lat="40.91150153401963" lon="17.223263201290415"><ele>234.66666666666669</ele><time>2026-05-01T10:42:41Z</time></trkpt><trkpt lat="40.911469589203776" lon="17.22301128608563"><ele>234.0</ele><time>2026-05-01T10:42:42Z</time></trkpt><trkpt lat="40.91146855819228" lon="17.222737308457656"><ele>235.33333333333331</ele><time>2026-05-01T10:42:43Z</time></trkpt><trkpt lat="40.911525448639395" lon="17.22247265461676"><ele>236.66666666666666</ele><time>2026-05-01T10:42:44Z</time></trkpt><trkpt lat="40.911592227180925" lon="17.222246189943544"><ele>238.0</ele><time>2026-05-01T10:42:45Z</time></trkpt><trkpt lat="40.91163638532003" lon="17.222056467234456"><ele>239.33333333333331</ele><time>2026-05-01T10:42:46Z</time></trkpt><trkpt lat="40.911637491148795" lon="17.221814469827283"><ele>240.66666666666669</ele><time>2026-05-01T10:42:47Z</time></trkpt><trkpt lat="40.91162466962702" lon="17.221612333493994"><ele>242.0</ele><time>2026-05-01T10:42:48Z</time></trkpt><trkpt lat="40.91165777269513" lon="17.2214229760321"><ele>243.25</ele><time>2026-05-01T10:42:49Z</time></trkpt><trkpt lat="40.91169638319618" lon="17.221227147313783"><ele>244.5</ele><time>2026-05-01T10:42:50Z</time></trkpt><trkpt lat="40.911733245316825" lon="17.22104732601914"><ele>245.75</ele><time>2026-05-01T10:42:51Z</time></trkpt><trkpt lat="40.911759244285754" lon="17.220860130786367"><ele>247.0</ele><time>2026-05-01T10:42:52Z</time></trkpt><trkpt lat="40.91174201051746" lon="17.22067675197061"><ele>247.75</ele><time>2026-05-01T10:42:53Z</time></trkpt><trkpt lat="40.91170372804862" lon="17.220488303427977"><ele>248.5</ele><time>2026-05-01T10:42:54Z</time></trkpt><trkpt lat="40.911654764870896" lon="17.220328426441704"><ele>249.25</ele><time>2026-05-01T10:42:55Z</time></trkpt><trkpt lat="40.91159545838774" lon="17.22018046163345"><ele>250.0</ele><time>2026-05-01T10:42:56Z</time></trkpt><trkpt lat="40.91149696653121" lon="17.22002069098515"><ele>250.0</ele><time>2026-05-01T10:42:57Z</time></trkpt><trkpt lat="40.91136974217631" lon="17.21992408541007"><ele>250.0</ele><time>2026-05-01T10:42:58Z</time></trkpt><trkpt lat="40.91124359716859" lon="17.219840181490518"><ele>250.0</ele><time>2026-05-01T10:42:59Z</time></trkpt><trkpt lat="40.911120320131836" lon="17.21980971887748"><ele>250.0</ele><time>2026-05-01T10:43:00Z</time></trkpt><trkpt lat="40.91098630117573" lon="17.219780982873115"><ele>252.0</ele><time>2026-05-01T10:43:01Z</time></trkpt><trkpt lat="40.910826486845195" lon="17.21986122013869"><ele>254.0</ele><time>2026-05-01T10:43:02Z</time></trkpt><trkpt lat="40.91063496666687" lon="17.220001147695868"><ele>256.0</ele><time>2026-05-01T10:43:03Z</time></trkpt><trkpt lat="40.91046558850852" lon="17.22005162062802"><ele>256.0</ele><time>2026-05-01T10:43:04Z</time></trkpt><trkpt lat="40.9103346031172" lon="17.220021117670665"><ele>256.0</ele><time>2026-05-01T10:43:05Z</time></trkpt><trkpt lat="40.91026184198888" lon="17.219938098724946"><ele>256.0</ele><time>2026-05-01T10:43:06Z</time></trkpt><trkpt lat="40.91021395920444" lon="17.219827327423623"><ele>256.0</ele><time>2026-05-01T10:43:07Z</time></trkpt><trkpt lat="40.910176422599605" lon="17.219697021891868"><ele>256.0</ele><time>2026-05-01T10:43:08Z</time></trkpt><trkpt lat="40.91014866089685" lon="17.21950657388216"><ele>255.33333333333331</ele><time>2026-05-01T10:43:09Z</time></trkpt><trkpt lat="40.910158958129706" lon="17.219218043759827"><ele>254.66666666666669</ele><time>2026-05-01T10:43:10Z</time></trkpt><trkpt lat="40.91012941639398" lon="17.21892168003627"><ele>254.0</ele><time>2026-05-01T10:43:11Z</time></trkpt><trkpt lat="40.910070920873586" lon="17.21868666185784"><ele>258.6666666666667</ele><time>2026-05-01T10:43:12Z</time></trkpt><trkpt lat="40.90997484302581" lon="17.21849073327157"><ele>263.3333333333333</ele><time>2026-05-01T10:43:13Z</time></trkpt><trkpt lat="40.90983355711705" lon="17.218333268355533"><ele>268.0</ele><time>2026-05-01T10:43:14Z</time></trkpt><trkpt lat="40.90970373924146" lon="17.218143715558767"><ele>268.3333333333333</ele><time>2026-05-01T10:43:15Z</time></trkpt><trkpt lat="40.90960147482363" lon="17.217947440838063"><ele>268.6666666666667</ele><time>2026-05-01T10:43:16Z</time></trkpt><trkpt lat="40.90950848727554" lon="17.21768429462555"><ele>269.0</ele><time>2026-05-01T10:43:17Z</time></trkpt><trkpt lat="40.909448540294854" lon="17.217378675140242"><ele>268.5</ele><time>2026-05-01T10:43:18Z</time></trkpt><trkpt lat="40.909391016001344" lon="17.217018446096684"><ele>268.0</ele><time>2026-05-01T10:43:19Z</time></trkpt><trkpt lat="40.909330296340364" lon="17.21662320995712"><ele>267.5</ele><time>2026-05-01T10:43:20Z</time></trkpt><trkpt lat="40.90925664145487" lon="17.216184531396127"><ele>267.0</ele><time>2026-05-01T10:43:21Z</time></trkpt><trkpt lat="40.90917675013534" lon="17.215752003327342"><ele>265.5</ele><time>2026-05-01T10:43:22Z</time></trkpt><trkpt lat="40.909108781516274" lon="17.215304381707025"><ele>264.0</ele><time>2026-05-01T10:43:23Z</time></trkpt><trkpt lat="40.909054337910156" lon="17.214883314411264"><ele>264.0</ele><time>2026-05-01T10:43:24Z</time></trkpt><trkpt lat="40.90899745942313" lon="17.214509018891647"><ele>264.0</ele><time>2026-05-01T10:43:25Z</time></trkpt><trkpt lat="40.908934053602025" lon="17.21418496148988"><ele>265.0</ele><time>2026-05-01T10:43:26Z</time></trkpt><trkpt lat="40.9088792685497" lon="17.213890016155695"><ele>266.0</ele><time>2026-05-01T10:43:27Z</time></trkpt><trkpt lat="40.90879817268833" lon="17.213618423116475"><ele>266.0</ele><time>2026-05-01T10:43:28Z</time></trkpt><trkpt lat="40.908667462665555" lon="17.21334186858654"><ele>266.0</ele><time>2026-05-01T10:43:29Z</time></trkpt><trkpt lat="40.90848780747256" lon="17.21306117975298"><ele>265.5</ele><time>2026-05-01T10:43:30Z</time></trkpt><trkpt lat="40.908284566031256" lon="17.212752845994164"><ele>265.0</ele><time>2026-05-01T10:43:31.001Z</time></trkpt><trkpt lat="40.908105159984736" lon="17.21241941724517"><ele>263.5</ele><time>2026-05-01T10:43:32.001Z</time></trkpt><trkpt lat="40.90788237538002" lon="17.212080804564845"><ele>262.0</ele><time>2026-05-01T10:43:33.001Z</time></trkpt><trkpt lat="40.90769617341112" lon="17.21171673949911"><ele>259.0</ele><time>2026-05-01T10:43:34.001Z</time></trkpt><trkpt lat="40.90748824923312" lon="17.211366388367708"><ele>256.0</ele><time>2026-05-01T10:43:35.001Z</time></trkpt><trkpt lat="40.907260043318736" lon="17.211016272188765"><ele>256.0</ele><time>2026-05-01T10:43:36.001Z</time></trkpt><trkpt lat="40.90705022365889" lon="17.21066580800878"><ele>256.0</ele><time>2026-05-01T10:43:37.001Z</time></trkpt><trkpt lat="40.906841946623" lon="17.210311934331582"><ele>254.0</ele><time>2026-05-01T10:43:38.001Z</time></trkpt><trkpt lat="40.9066258758102" lon="17.20994646685753"><ele>252.0</ele><time>2026-05-01T10:43:39.001Z</time></trkpt><trkpt lat="40.90640755487701" lon="17.20958033242533"><ele>250.0</ele><time>2026-05-01T10:43:40.001Z</time></trkpt><trkpt lat="40.9061921408413" lon="17.20921801460963"><ele>248.0</ele><time>2026-05-01T10:43:41.001Z</time></trkpt><trkpt lat="40.90598112732304" lon="17.20889187225918"><ele>249.0</ele><time>2026-05-01T10:43:42.001Z</time></trkpt><trkpt lat="40.905753810975924" lon="17.208503726852314"><ele>250.0</ele><time>2026-05-01T10:43:43.001Z</time></trkpt><trkpt lat="40.90554073345346" lon="17.20815046870865"><ele>250.0</ele><time>2026-05-01T10:43:44.001Z</time></trkpt><trkpt lat="40.90532353120663" lon="17.207791735662372"><ele>250.0</ele><time>2026-05-01T10:43:45.001Z</time></trkpt><trkpt lat="40.90512312808654" lon="17.207456270099886"><ele>252.0</ele><time>2026-05-01T10:43:46.001Z</time></trkpt><trkpt lat="40.90494454996872" lon="17.207116564295536"><ele>254.0</ele><time>2026-05-01T10:43:47.001Z</time></trkpt><trkpt lat="40.90479199072795" lon="17.206753991936687"><ele>255.0</ele><time>2026-05-01T10:43:48.001Z</time></trkpt><trkpt lat="40.90459600263282" lon="17.206474490770155"><ele>256.0</ele><time>2026-05-01T10:43:49.001Z</time></trkpt><trkpt lat="40.904421340181415" lon="17.206234692007694"><ele>256.0</ele><time>2026-05-01T10:43:50.001Z</time></trkpt><trkpt lat="40.904271280604135" lon="17.20599044719985"><ele>256.0</ele><time>2026-05-01T10:43:51.001Z</time></trkpt><trkpt lat="40.90413627966011" lon="17.205775203293094"><ele>256.0</ele><time>2026-05-01T10:43:52.001Z</time></trkpt><trkpt lat="40.90400685158437" lon="17.205601105542932"><ele>258.66666666666663</ele><time>2026-05-01T10:43:53.001Z</time></trkpt><trkpt lat="40.9038462229109" lon="17.205503973372842"><ele>261.3333333333333</ele><time>2026-05-01T10:43:54.001Z</time></trkpt><trkpt lat="40.90364845592152" lon="17.20540584012897"><ele>264.0</ele><time>2026-05-01T10:43:55.001Z</time></trkpt><trkpt lat="40.90344524109355" lon="17.205283918817283"><ele>265.5</ele><time>2026-05-01T10:43:56.001Z</time></trkpt><trkpt lat="40.903111201420884" lon="17.205460288156264"><ele>267.0</ele><time>2026-05-01T10:43:57.001Z</time></trkpt><trkpt lat="40.9028435580893" lon="17.205427909414958"><ele>269.5</ele><time>2026-05-01T10:43:58.001Z</time></trkpt><trkpt lat="40.902528136736024" lon="17.205441645130726"><ele>272.0</ele><time>2026-05-01T10:43:59.001Z</time></trkpt><trkpt lat="40.90227438903181" lon="17.2054379811865"><ele>272.0</ele><time>2026-05-01T10:44:00.001Z</time></trkpt><trkpt lat="40.90202432238953" lon="17.205474793815828"><ele>272.0</ele><time>2026-05-01T10:44:01.001Z</time></trkpt><trkpt lat="40.901800711669466" lon="17.20547732073522"><ele>273.0</ele><time>2026-05-01T10:44:02.001Z</time></trkpt><trkpt lat="40.90163525847853" lon="17.205496295188322"><ele>274.0</ele><time>2026-05-01T10:44:03.001Z</time></trkpt><trkpt lat="40.901483179263565" lon="17.20548726535302"><ele>275.0</ele><time>2026-05-01T10:44:04Z</time></trkpt><trkpt lat="40.90128222928814" lon="17.205407784736156"><ele>275.0</ele><time>2026-05-01T10:44:05Z</time></trkpt><trkpt lat="40.901152112987575" lon="17.205246285264437"><ele>275.0</ele><time>2026-05-01T10:44:06Z</time></trkpt><trkpt lat="40.90102661807037" lon="17.205038766704124"><ele>275.0</ele><time>2026-05-01T10:44:07Z</time></trkpt><trkpt lat="40.90090012254994" lon="17.204784888367026"><ele>277.5</ele><time>2026-05-01T10:44:08Z</time></trkpt><trkpt lat="40.90075281105938" lon="17.204511379557573"><ele>280.0</ele><time>2026-05-01T10:44:09Z</time></trkpt><trkpt lat="40.90062259744874" lon="17.20422763582501"><ele>281.0</ele><time>2026-05-01T10:44:10Z</time></trkpt><trkpt lat="40.900503335615404" lon="17.20393118214047"><ele>282.0</ele><time>2026-05-01T10:44:11Z</time></trkpt><trkpt lat="40.900548634109114" lon="17.203720696835557"><ele>283.0</ele><time>2026-05-01T10:44:12Z</time></trkpt><trkpt lat="40.90059309423239" lon="17.203490121602446"><ele>283.0</ele><time>2026-05-01T10:44:13Z</time></trkpt><trkpt lat="40.90064557502556" lon="17.203209609994907"><ele>283.0</ele><time>2026-05-01T10:44:14Z</time></trkpt><trkpt lat="40.900688821719996" lon="17.202870854995073"><ele>284.5</ele><time>2026-05-01T10:44:15Z</time></trkpt><trkpt lat="40.90071406752849" lon="17.20253757672625"><ele>286.0</ele><time>2026-05-01T10:44:16Z</time></trkpt><trkpt lat="40.90073521407785" lon="17.20219186711955"><ele>286.5</ele><time>2026-05-01T10:44:17Z</time></trkpt><trkpt lat="40.90071532345837" lon="17.201843870757266"><ele>287.0</ele><time>2026-05-01T10:44:18Z</time></trkpt><trkpt lat="40.90065892275044" lon="17.201496151280036"><ele>286.0</ele><time>2026-05-01T10:44:19Z</time></trkpt><trkpt lat="40.900590225347614" lon="17.201112701129507"><ele>285.0</ele><time>2026-05-01T10:44:20Z</time></trkpt><trkpt lat="40.90051099856458" lon="17.200717998852134"><ele>284.0</ele><time>2026-05-01T10:44:21Z</time></trkpt><trkpt lat="40.90043922028784" lon="17.20028349675107"><ele>283.0</ele><time>2026-05-01T10:44:22Z</time></trkpt><trkpt lat="40.90036523351844" lon="17.199924217071384"><ele>282.0</ele><time>2026-05-01T10:44:23Z</time></trkpt><trkpt lat="40.90030380136003" lon="17.19952673668002"><ele>281.0</ele><time>2026-05-01T10:44:24Z</time></trkpt><trkpt lat="40.90021452407775" lon="17.199120373895287"><ele>280.0</ele><time>2026-05-01T10:44:25Z</time></trkpt><trkpt lat="40.900148520052646" lon="17.198689773765008"><ele>279.0</ele><time>2026-05-01T10:44:26Z</time></trkpt><trkpt lat="40.90008081194039" lon="17.198267712420492"><ele>278.0</ele><time>2026-05-01T10:44:27Z</time></trkpt><trkpt lat="40.899978182554634" lon="17.197815124821044"><ele>277.0</ele><time>2026-05-01T10:44:28Z</time></trkpt><trkpt lat="40.899926553759876" lon="17.197423577094646"><ele>277.0</ele><time>2026-05-01T10:44:29Z</time></trkpt><trkpt lat="40.89985506350675" lon="17.196999725691185"><ele>277.0</ele><time>2026-05-01T10:44:30Z</time></trkpt><trkpt lat="40.89977398808144" lon="17.196580527363558"><ele>275.5</ele><time>2026-05-01T10:44:31Z</time></trkpt><trkpt lat="40.8997087361028" lon="17.19618194104877"><ele>274.0</ele><time>2026-05-01T10:44:32Z</time></trkpt><trkpt lat="40.89963699651591" lon="17.195767995245124"><ele>273.0</ele><time>2026-05-01T10:44:33Z</time></trkpt><trkpt lat="40.899565097642565" lon="17.195361942799142"><ele>272.0</ele><time>2026-05-01T10:44:34Z</time></trkpt><trkpt lat="40.89950256008145" lon="17.19495922660571"><ele>271.0</ele><time>2026-05-01T10:44:35Z</time></trkpt><trkpt lat="40.899423085790666" lon="17.19452102235142"><ele>270.0</ele><time>2026-05-01T10:44:36Z</time></trkpt><trkpt lat="40.899352115572086" lon="17.194113417815867"><ele>268.5</ele><time>2026-05-01T10:44:37Z</time></trkpt><trkpt lat="40.89924693387437" lon="17.19369722495116"><ele>267.0</ele><time>2026-05-01T10:44:38Z</time></trkpt><trkpt lat="40.899143351063906" lon="17.193284067161965"><ele>266.5</ele><time>2026-05-01T10:44:39Z</time></trkpt><trkpt lat="40.899006476833364" lon="17.192885352310547"><ele>266.0</ele><time>2026-05-01T10:44:40Z</time></trkpt><trkpt lat="40.899067572338296" lon="17.19244823560455"><ele>265.0</ele><time>2026-05-01T10:44:41Z</time></trkpt><trkpt lat="40.89899574854399" lon="17.19205442218447"><ele>264.0</ele><time>2026-05-01T10:44:42Z</time></trkpt><trkpt lat="40.89891185326122" lon="17.19167107076578"><ele>264.5</ele><time>2026-05-01T10:44:43Z</time></trkpt><trkpt lat="40.89882413634059" lon="17.19125562279635"><ele>265.0</ele><time>2026-05-01T10:44:44Z</time></trkpt><trkpt lat="40.89877404803273" lon="17.190834481671633"><ele>265.0</ele><time>2026-05-01T10:44:45Z</time></trkpt><trkpt lat="40.89872129223715" lon="17.1904438659472"><ele>265.0</ele><time>2026-05-01T10:44:46Z</time></trkpt><trkpt lat="40.89865308628575" lon="17.190092315976457"><ele>266.0</ele><time>2026-05-01T10:44:47Z</time></trkpt><trkpt lat="40.898575375589225" lon="17.189762350340022"><ele>267.0</ele><time>2026-05-01T10:44:48Z</time></trkpt><trkpt lat="40.898511605081076" lon="17.189451911371215"><ele>268.3333333333333</ele><time>2026-05-01T10:44:49Z</time></trkpt><trkpt lat="40.89837252978908" lon="17.189202132613836"><ele>269.66666666666663</ele><time>2026-05-01T10:44:50Z</time></trkpt><trkpt lat="40.89826081942431" lon="17.188995172359803"><ele>271.0</ele><time>2026-05-01T10:44:51Z</time></trkpt><trkpt lat="40.898118139062994" lon="17.18887246722539"><ele>272.0</ele><time>2026-05-01T10:44:52Z</time></trkpt><trkpt lat="40.897940864259716" lon="17.18881125361307"><ele>273.0</ele><time>2026-05-01T10:44:53Z</time></trkpt><trkpt lat="40.897743406916064" lon="17.188841593264442"><ele>274.0</ele><time>2026-05-01T10:44:54Z</time></trkpt><trkpt lat="40.8975122916819" lon="17.18894544153457"><ele>275.0</ele><time>2026-05-01T10:44:55Z</time></trkpt><trkpt lat="40.897283733728536" lon="17.18908203566066"><ele>276.0</ele><time>2026-05-01T10:44:56Z</time></trkpt><trkpt lat="40.897055360686274" lon="17.189255843584707"><ele>276.0</ele><time>2026-05-01T10:44:57Z</time></trkpt><trkpt lat="40.896844714572204" lon="17.189486998792212"><ele>276.0</ele><time>2026-05-01T10:44:58Z</time></trkpt><trkpt lat="40.89665262171312" lon="17.189662954686938"><ele>276.0</ele><time>2026-05-01T10:44:59Z</time></trkpt><trkpt lat="40.8964739539717" lon="17.189828918610267"><ele>276.0</ele><time>2026-05-01T10:45:00Z</time></trkpt><trkpt lat="40.89623936474872" lon="17.189947257820958"><ele>276.0</ele><time>2026-05-01T10:45:01Z</time></trkpt><trkpt lat="40.895997838011105" lon="17.1899510358705"><ele>276.0</ele><time>2026-05-01T10:45:02Z</time></trkpt><trkpt lat="40.89576401834029" lon="17.189903682331245"><ele>278.6666666666667</ele><time>2026-05-01T10:45:03Z</time></trkpt><trkpt lat="40.89555027923046" lon="17.18980180757479"><ele>281.33333333333337</ele><time>2026-05-01T10:45:04Z</time></trkpt><trkpt lat="40.895379796311836" lon="17.18966121961198"><ele>284.0</ele><time>2026-05-01T10:45:05Z</time></trkpt><trkpt lat="40.89519007791457" lon="17.18943942419732"><ele>287.0</ele><time>2026-05-01T10:45:06Z</time></trkpt><trkpt lat="40.89499262950495" lon="17.189149376331507"><ele>290.0</ele><time>2026-05-01T10:45:07Z</time></trkpt><trkpt lat="40.89481573436187" lon="17.188820150809676"><ele>291.0</ele><time>2026-05-01T10:45:08Z</time></trkpt><trkpt lat="40.89467519987641" lon="17.18846110117465"><ele>292.0</ele><time>2026-05-01T10:45:09Z</time></trkpt><trkpt lat="40.894542874656295" lon="17.188138877938613"><ele>292.0</ele><time>2026-05-01T10:45:10Z</time></trkpt><trkpt lat="40.89445233445672" lon="17.187823556880822"><ele>292.0</ele><time>2026-05-01T10:45:11Z</time></trkpt><trkpt lat="40.89437714901778" lon="17.18762093314141"><ele>292.0</ele><time>2026-05-01T10:45:12Z</time></trkpt><trkpt lat="40.89428832274754" lon="17.18737081386192"><ele>291.5</ele><time>2026-05-01T10:45:13Z</time></trkpt><trkpt lat="40.894181697592856" lon="17.18707063042215"><ele>291.0</ele><time>2026-05-01T10:45:14Z</time></trkpt><trkpt lat="40.89407308650717" lon="17.18676927082678"><ele>290.5</ele><time>2026-05-01T10:45:15Z</time></trkpt><trkpt lat="40.89395592807972" lon="17.18644133209794"><ele>290.0</ele><time>2026-05-01T10:45:16Z</time></trkpt><trkpt lat="40.89382363999463" lon="17.186084170064298"><ele>290.0</ele><time>2026-05-01T10:45:17Z</time></trkpt><trkpt lat="40.89369832542388" lon="17.185715259047228"><ele>290.0</ele><time>2026-05-01T10:45:18Z</time></trkpt><trkpt lat="40.893550557145154" lon="17.185337657236417"><ele>289.0</ele><time>2026-05-01T10:45:19Z</time></trkpt><trkpt lat="40.893425709322" lon="17.184937459885507"><ele>288.0</ele><time>2026-05-01T10:45:20Z</time></trkpt><trkpt lat="40.89328634222301" lon="17.184543881398266"><ele>287.5</ele><time>2026-05-01T10:45:21Z</time></trkpt><trkpt lat="40.89314863289071" lon="17.18415412881724"><ele>287.0</ele><time>2026-05-01T10:45:22Z</time></trkpt><trkpt lat="40.892997616750264" lon="17.18372805921735"><ele>286.0</ele><time>2026-05-01T10:45:23Z</time></trkpt><trkpt lat="40.89285058259096" lon="17.183313633050673"><ele>285.0</ele><time>2026-05-01T10:45:24Z</time></trkpt><trkpt lat="40.892756965441215" lon="17.183078540453792"><ele>284.5</ele><time>2026-05-01T10:45:25Z</time></trkpt><trkpt lat="40.892627236047815" lon="17.182726031204112"><ele>284.0</ele><time>2026-05-01T10:45:26Z</time></trkpt><trkpt lat="40.89249541361553" lon="17.182346673145336"><ele>284.0</ele><time>2026-05-01T10:45:27Z</time></trkpt><trkpt lat="40.89235771101855" lon="17.181961462319382"><ele>284.0</ele><time>2026-05-01T10:45:28Z</time></trkpt><trkpt lat="40.89223697845176" lon="17.181573076902325"><ele>284.5</ele><time>2026-05-01T10:45:29Z</time></trkpt><trkpt lat="40.892082480267966" lon="17.18118597305335"><ele>285.0</ele><time>2026-05-01T10:45:30Z</time></trkpt><trkpt lat="40.891947477440155" lon="17.180791172863955"><ele>285.0</ele><time>2026-05-01T10:45:31Z</time></trkpt><trkpt lat="40.89181335413973" lon="17.18039482308835"><ele>285.0</ele><time>2026-05-01T10:45:32Z</time></trkpt><trkpt lat="40.89168047669612" lon="17.17999695862318"><ele>285.5</ele><time>2026-05-01T10:45:33Z</time></trkpt><trkpt lat="40.89154194188123" lon="17.17960492988405"><ele>286.0</ele><time>2026-05-01T10:45:34Z</time></trkpt><trkpt lat="40.89142013515397" lon="17.179262059506055"><ele>285.5</ele><time>2026-05-01T10:45:35Z</time></trkpt><trkpt lat="40.89129480333594" lon="17.178908677796354"><ele>285.0</ele><time>2026-05-01T10:45:36Z</time></trkpt><trkpt lat="40.89118357820086" lon="17.17859841533427"><ele>285.0</ele><time>2026-05-01T10:45:37.001Z</time></trkpt><trkpt lat="40.891073843009465" lon="17.178320056354476"><ele>285.0</ele><time>2026-05-01T10:45:38.001Z</time></trkpt><trkpt lat="40.89098788202335" lon="17.17807263786137"><ele>285.0</ele><time>2026-05-01T10:45:39.001Z</time></trkpt><trkpt lat="40.89091095979989" lon="17.17786483903972"><ele>284.0</ele><time>2026-05-01T10:45:40.001Z</time></trkpt><trkpt lat="40.89083592576072" lon="17.177671118086135"><ele>283.0</ele><time>2026-05-01T10:45:41.001Z</time></trkpt><trkpt lat="40.89076906707548" lon="17.177479449484878"><ele>282.0</ele><time>2026-05-01T10:45:42.001Z</time></trkpt><trkpt lat="40.89069271743983" lon="17.177253460294583"><ele>282.0</ele><time>2026-05-01T10:45:43.001Z</time></trkpt><trkpt lat="40.89061662597166" lon="17.17703234567135"><ele>282.0</ele><time>2026-05-01T10:45:44.001Z</time></trkpt><trkpt lat="40.8905205603324" lon="17.17677691198735"><ele>282.0</ele><time>2026-05-01T10:45:45.001Z</time></trkpt><trkpt lat="40.89045568151274" lon="17.176549875411503"><ele>282.3333333333333</ele><time>2026-05-01T10:45:46.001Z</time></trkpt><trkpt lat="40.890384601043074" lon="17.17634679875419"><ele>282.66666666666663</ele><time>2026-05-01T10:45:47.001Z</time></trkpt><trkpt lat="40.890300812583554" lon="17.176149342828808"><ele>283.0</ele><time>2026-05-01T10:45:48.001Z</time></trkpt><trkpt lat="40.89024446557235" lon="17.175952070617843"><ele>283.0</ele><time>2026-05-01T10:45:49.001Z</time></trkpt><trkpt lat="40.8901881509643" lon="17.175793974149776"><ele>283.0</ele><time>2026-05-01T10:45:50.001Z</time></trkpt><trkpt lat="40.890135907378394" lon="17.175645301497237"><ele>283.0</ele><time>2026-05-01T10:45:51.001Z</time></trkpt><trkpt lat="40.89009544492073" lon="17.175529647634193"><ele>283.0</ele><time>2026-05-01T10:45:52.001Z</time></trkpt><trkpt lat="40.8901135216613" lon="17.175448610242395"><ele>283.0</ele><time>2026-05-01T10:45:53.001Z</time></trkpt><trkpt lat="40.890184617147916" lon="17.17536803624332"><ele>283.2</ele><time>2026-05-01T10:45:55.001Z</time></trkpt><trkpt lat="40.890221198354396" lon="17.175217464308712"><ele>283.4</ele><time>2026-05-01T10:45:57.001Z</time></trkpt><trkpt lat="40.8902411709112" lon="17.175126374191066"><ele>283.59999999999997</ele><time>2026-05-01T10:45:58.001Z</time></trkpt><trkpt lat="40.89014826001177" lon="17.1750748716162"><ele>283.8</ele><time>2026-05-01T10:45:59.001Z</time></trkpt><trkpt lat="40.89006203944269" lon="17.175028448460832"><ele>284.0</ele><time>2026-05-01T10:46:00.001Z</time></trkpt><trkpt lat="40.88996575537707" lon="17.175018143765204"><ele>284.25</ele><time>2026-05-01T10:46:01.001Z</time></trkpt><trkpt lat="40.88987395348451" lon="17.17496219131763"><ele>284.5</ele><time>2026-05-01T10:46:02.001Z</time></trkpt><trkpt lat="40.88984032005769" lon="17.17481985114053"><ele>284.75</ele><time>2026-05-01T10:46:03.001Z</time></trkpt><trkpt lat="40.88976863962892" lon="17.17462686176651"><ele>285.0</ele><time>2026-05-01T10:46:04.001Z</time></trkpt><trkpt lat="40.88968518070301" lon="17.174422141035134"><ele>285.0</ele><time>2026-05-01T10:46:05.001Z</time></trkpt><trkpt lat="40.88960709680435" lon="17.174181505427885"><ele>285.0</ele><time>2026-05-01T10:46:06.001Z</time></trkpt><trkpt lat="40.88951218749975" lon="17.173916427263773"><ele>285.0</ele><time>2026-05-01T10:46:07.001Z</time></trkpt><trkpt lat="40.88941966126848" lon="17.173666651506277"><ele>285.3333333333333</ele><time>2026-05-01T10:46:08.001Z</time></trkpt><trkpt lat="40.889351319456594" lon="17.173430741832007"><ele>285.66666666666663</ele><time>2026-05-01T10:46:09.001Z</time></trkpt><trkpt lat="40.88927147275949" lon="17.173204940398364"><ele>286.0</ele><time>2026-05-01T10:46:10.001Z</time></trkpt><trkpt lat="40.88919618330943" lon="17.172992026617546"><ele>286.0</ele><time>2026-05-01T10:46:11.001Z</time></trkpt><trkpt lat="40.88911747218495" lon="17.172769436456715"><ele>286.0</ele><time>2026-05-01T10:46:12.001Z</time></trkpt><trkpt lat="40.8890400650472" lon="17.17255053200071"><ele>286.0</ele><time>2026-05-01T10:46:13.001Z</time></trkpt><trkpt lat="40.8889633295244" lon="17.17233352684746"><ele>287.3333333333333</ele><time>2026-05-01T10:46:14.001Z</time></trkpt><trkpt lat="40.88886388293487" lon="17.172103558432937"><ele>288.6666666666667</ele><time>2026-05-01T10:46:15.001Z</time></trkpt><trkpt lat="40.88878003753684" lon="17.171896454445193"><ele>290.0</ele><time>2026-05-01T10:46:16.001Z</time></trkpt><trkpt lat="40.88870603897437" lon="17.171703024576814"><ele>290.6666666666667</ele><time>2026-05-01T10:46:17.001Z</time></trkpt><trkpt lat="40.88863786571519" lon="17.171518760640605"><ele>291.3333333333333</ele><time>2026-05-01T10:46:18Z</time></trkpt><trkpt lat="40.88857131207344" lon="17.1713446923863"><ele>292.0</ele><time>2026-05-01T10:46:19Z</time></trkpt><trkpt lat="40.88848803849034" lon="17.17118046348585"><ele>291.75</ele><time>2026-05-01T10:46:20Z</time></trkpt><trkpt lat="40.88841194649245" lon="17.171044745600142"><ele>291.5</ele><time>2026-05-01T10:46:21Z</time></trkpt><trkpt lat="40.88833329372368" lon="17.170944030364634"><ele>291.25</ele><time>2026-05-01T10:46:22Z</time></trkpt><trkpt lat="40.88824638804004" lon="17.17086668784935"><ele>291.0</ele><time>2026-05-01T10:46:23Z</time></trkpt><trkpt lat="40.88813949170014" lon="17.170778043111763"><ele>290.2</ele><time>2026-05-01T10:46:24Z</time></trkpt><trkpt lat="40.88804638084157" lon="17.170633528178584"><ele>289.40000000000003</ele><time>2026-05-01T10:46:25Z</time></trkpt><trkpt lat="40.88796288181372" lon="17.170524963472914"><ele>288.6</ele><time>2026-05-01T10:46:26Z</time></trkpt><trkpt lat="40.887879935576954" lon="17.17051276116056"><ele>287.8</ele><time>2026-05-01T10:46:27Z</time></trkpt><trkpt lat="40.88782759928768" lon="17.17043013018184"><ele>287.0</ele><time>2026-05-01T10:46:29Z</time></trkpt><trkpt lat="40.887742042954464" lon="17.17032583271306"><ele>287.0</ele><time>2026-05-01T10:46:31Z</time></trkpt><trkpt lat="40.88762465024003" lon="17.17026233928424"><ele>287.0</ele><time>2026-05-01T10:46:32Z</time></trkpt><trkpt lat="40.88751950811411" lon="17.170124077619697"><ele>287.0</ele><time>2026-05-01T10:46:33Z</time></trkpt><trkpt lat="40.88745357186146" lon="17.170027000263815"><ele>287.0</ele><time>2026-05-01T10:46:34Z</time></trkpt><trkpt lat="40.88737650442793" lon="17.169945422559397"><ele>287.8</ele><time>2026-05-01T10:46:35Z</time></trkpt><trkpt lat="40.887275693769716" lon="17.169850942912245"><ele>288.6</ele><time>2026-05-01T10:46:36Z</time></trkpt><trkpt lat="40.887180155798" lon="17.169740160835374"><ele>289.40000000000003</ele><time>2026-05-01T10:46:37Z</time></trkpt><trkpt lat="40.88712827383773" lon="17.169615138317397"><ele>290.2</ele><time>2026-05-01T10:46:38Z</time></trkpt><trkpt lat="40.88706166583842" lon="17.169534444170175"><ele>291.0</ele><time>2026-05-01T10:46:39Z</time></trkpt><trkpt lat="40.88699805565777" lon="17.16945979482137"><ele>291.0</ele><time>2026-05-01T10:46:40Z</time></trkpt><trkpt lat="40.886936076316964" lon="17.169371402455273"><ele>291.0</ele><time>2026-05-01T10:46:42Z</time></trkpt><trkpt lat="40.88685030268608" lon="17.16931628486604"><ele>291.0</ele><time>2026-05-01T10:46:44Z</time></trkpt><trkpt lat="40.88681537794271" lon="17.169396882125206"><ele>291.0</ele><time>2026-05-01T10:46:52Z</time></trkpt><trkpt lat="40.88684456428489" lon="17.169479509386196"><ele>291.0</ele><time>2026-05-01T10:46:54Z</time></trkpt><trkpt lat="40.886876601789794" lon="17.169558037252997"><ele>291.0</ele><time>2026-05-01T10:46:56Z</time></trkpt><trkpt lat="40.886950604264115" lon="17.16953159898319"><ele>291.0</ele><time>2026-05-01T10:46:58Z</time></trkpt><trkpt lat="40.88700007838978" lon="17.169477086423097"><ele>291.0</ele><time>2026-05-01T10:47:06Z</time></trkpt><trkpt lat="40.886945303251245" lon="17.169362130132907"><ele>291.0</ele><time>2026-05-01T10:47:10Z</time></trkpt><trkpt lat="40.886845001660404" lon="17.169299362461842"><ele>291.0</ele><time>2026-05-01T10:47:12Z</time></trkpt><trkpt lat="40.88675475569048" lon="17.16918624884102"><ele>291.0</ele><time>2026-05-01T10:47:14Z</time></trkpt><trkpt lat="40.886714605346384" lon="17.169109006333834"><ele>291.40000000000003</ele><time>2026-05-01T10:47:16Z</time></trkpt><trkpt lat="40.88659075377821" lon="17.16925572295075"><ele>291.8</ele><time>2026-05-01T10:47:19Z</time></trkpt><trkpt lat="40.886538423222746" lon="17.169322548656652"><ele>292.20000000000005</ele><time>2026-05-01T10:47:20Z</time></trkpt><trkpt lat="40.88648318902135" lon="17.169387239459407"><ele>292.6</ele><time>2026-05-01T10:47:21Z</time></trkpt><trkpt lat="40.88640777417369" lon="17.169486929291462"><ele>293.0</ele><time>2026-05-01T10:47:22Z</time></trkpt><trkpt lat="40.88633407772957" lon="17.1695774658171"><ele>293.0</ele><time>2026-05-01T10:47:23Z</time></trkpt><trkpt lat="40.88629373923521" lon="17.169652712394676"><ele>293.0</ele><time>2026-05-01T10:47:24Z</time></trkpt><trkpt lat="40.88621891330554" lon="17.169736519445582"><ele>293.0</ele><time>2026-05-01T10:47:26Z</time></trkpt><trkpt lat="40.886152476510944" lon="17.169796586838544"><ele>293.0</ele><time>2026-05-01T10:47:29Z</time></trkpt><trkpt lat="40.88609061919182" lon="17.16986402827168"><ele>293.0</ele><time>2026-05-01T10:47:31Z</time></trkpt><trkpt lat="40.88603686296678" lon="17.16991637474207"><ele>293.0</ele><time>2026-05-01T10:47:34Z</time></trkpt><trkpt lat="40.88597759643439" lon="17.169962887313908"><ele>293.0</ele><time>2026-05-01T10:47:36Z</time></trkpt><trkpt lat="40.886119780778614" lon="17.16984678257253"><ele>293.0</ele><time>2026-05-01T10:50:28Z</time></trkpt><trkpt lat="40.88625362930395" lon="17.1698039273696"><ele>293.0</ele><time>2026-05-01T10:50:30Z</time></trkpt><trkpt lat="40.88632607007818" lon="17.169701695223413"><ele>293.0</ele><time>2026-05-01T10:50:31Z</time></trkpt><trkpt lat="40.886395363740704" lon="17.169602742171005"><ele>293.0</ele><time>2026-05-01T10:50:32Z</time></trkpt><trkpt lat="40.88648314085429" lon="17.169473853010988"><ele>293.0</ele><time>2026-05-01T10:50:34Z</time></trkpt><trkpt lat="40.886538505484594" lon="17.1693909192229"><ele>293.0</ele><time>2026-05-01T10:50:35Z</time></trkpt><trkpt lat="40.886584994966825" lon="17.16933273266266"><ele>293.0</ele><time>2026-05-01T10:50:36Z</time></trkpt><trkpt lat="40.88665141634626" lon="17.16922557826614"><ele>293.0</ele><time>2026-05-01T10:50:38Z</time></trkpt><trkpt lat="40.88672406441732" lon="17.16916662986987"><ele>292.6</ele><time>2026-05-01T10:50:40Z</time></trkpt><trkpt lat="40.88682226735713" lon="17.169274134277163"><ele>292.20000000000005</ele><time>2026-05-01T10:50:45Z</time></trkpt><trkpt lat="40.88681754624529" lon="17.169408886249233"><ele>291.8</ele><time>2026-05-01T10:50:47Z</time></trkpt><trkpt lat="40.88680797388738" lon="17.169508587693507"><ele>291.40000000000003</ele><time>2026-05-01T10:50:48.999Z</time></trkpt><trkpt lat="40.88687386048527" lon="17.16943392667602"><ele>291.0</ele><time>2026-05-01T10:50:49.999Z</time></trkpt><trkpt lat="40.88682515115711" lon="17.169517846134394"><ele>291.0</ele><time>2026-05-01T10:50:50.999Z</time></trkpt><trkpt lat="40.88687083537148" lon="17.169412194829597"><ele>291.0</ele><time>2026-05-01T10:50:58.999Z</time></trkpt><trkpt lat="40.88674569979268" lon="17.169487732376552"><ele>291.0</ele><time>2026-05-01T10:51:22.999Z</time></trkpt><trkpt lat="40.88682980130099" lon="17.169366522875627"><ele>291.0</ele><time>2026-05-01T10:51:27.999Z</time></trkpt><trkpt lat="40.88671195164307" lon="17.16953199366278"><ele>291.0</ele><time>2026-05-01T10:51:30.999Z</time></trkpt><trkpt lat="40.88668339630978" lon="17.169633599717102"><ele>291.0</ele><time>2026-05-01T10:54:10Z</time></trkpt><trkpt lat="40.88671772862837" lon="17.169551722042247"><ele>291.0</ele><time>2026-05-01T10:54:50Z</time></trkpt><trkpt lat="40.886833439619366" lon="17.169559774936335"><ele>291.0</ele><time>2026-05-01T10:55:05Z</time></trkpt><trkpt lat="40.88684409020204" lon="17.169645595215833"><ele>291.0</ele><time>2026-05-01T10:55:07Z</time></trkpt><trkpt lat="40.88693421460795" lon="17.169630060072777"><ele>291.0</ele><time>2026-05-01T10:55:09Z</time></trkpt><trkpt lat="40.887009322861665" lon="17.16957080119603"><ele>291.0</ele><time>2026-05-01T10:55:11Z</time></trkpt><trkpt lat="40.88705701653282" lon="17.16951299961942"><ele>291.0</ele><time>2026-05-01T10:55:21Z</time></trkpt><trkpt lat="40.886982140956896" lon="17.169393512336843"><ele>291.0</ele><time>2026-05-01T10:55:38Z</time></trkpt><trkpt lat="40.88686815260165" lon="17.169281859164343"><ele>291.0</ele><time>2026-05-01T10:55:40Z</time></trkpt><trkpt lat="40.88678493348717" lon="17.169186934218217"><ele>291.0</ele><time>2026-05-01T10:55:41.999Z</time></trkpt><trkpt lat="40.886700331487305" lon="17.169070174844418"><ele>291.40000000000003</ele><time>2026-05-01T10:55:43.999Z</time></trkpt><trkpt lat="40.886620800734434" lon="17.16903260115775"><ele>291.8</ele><time>2026-05-01T10:55:44.999Z</time></trkpt><trkpt lat="40.88656584998542" lon="17.168969563864234"><ele>292.20000000000005</ele><time>2026-05-01T10:55:45.999Z</time></trkpt><trkpt lat="40.88649873354748" lon="17.16888330643998"><ele>292.6</ele><time>2026-05-01T10:55:46.999Z</time></trkpt><trkpt lat="40.88640475075626" lon="17.16878849676465"><ele>293.0</ele><time>2026-05-01T10:55:47.999Z</time></trkpt><trkpt lat="40.88629003517683" lon="17.168686350251452"><ele>294.5</ele><time>2026-05-01T10:55:48.999Z</time></trkpt><trkpt lat="40.88618092779797" lon="17.168552259878677"><ele>296.0</ele><time>2026-05-01T10:55:49.999Z</time></trkpt><trkpt lat="40.886111791712906" lon="17.168395940209706"><ele>297.5</ele><time>2026-05-01T10:55:50.999Z</time></trkpt><trkpt lat="40.88603568096785" lon="17.16829264778385"><ele>299.0</ele><time>2026-05-01T10:55:51.999Z</time></trkpt><trkpt lat="40.885900639261614" lon="17.168190714448457"><ele>299.0</ele><time>2026-05-01T10:55:52.999Z</time></trkpt><trkpt lat="40.88580948241716" lon="17.168095119384475"><ele>299.0</ele><time>2026-05-01T10:55:53.999Z</time></trkpt><trkpt lat="40.88573447320205" lon="17.168026877545955"><ele>299.0</ele><time>2026-05-01T10:55:54.999Z</time></trkpt><trkpt lat="40.88567123545032" lon="17.167962160639064"><ele>299.0</ele><time>2026-05-01T10:55:55.999Z</time></trkpt><trkpt lat="40.88563555961615" lon="17.167876827198306"><ele>299.0</ele><time>2026-05-01T10:55:56.999Z</time></trkpt><trkpt lat="40.88561509840657" lon="17.167766378725272"><ele>299.0</ele><time>2026-05-01T10:55:57.999Z</time></trkpt><trkpt lat="40.885613181169425" lon="17.167631192950623"><ele>299.0</ele><time>2026-05-01T10:55:58.999Z</time></trkpt><trkpt lat="40.885599391592855" lon="17.167506746185104"><ele>299.0</ele><time>2026-05-01T10:55:59.999Z</time></trkpt><trkpt lat="40.88558818210662" lon="17.167390125396615"><ele>299.0</ele><time>2026-05-01T10:56:00.999Z</time></trkpt><trkpt lat="40.88557491965616" lon="17.16725644130713"><ele>299.0</ele><time>2026-05-01T10:56:01.999Z</time></trkpt><trkpt lat="40.88556107797653" lon="17.167122458859076"><ele>299.0</ele><time>2026-05-01T10:56:02.999Z</time></trkpt><trkpt lat="40.88555039119688" lon="17.167019014648364"><ele>299.0</ele><time>2026-05-01T10:56:03.999Z</time></trkpt><trkpt lat="40.88554077460455" lon="17.166925929350846"><ele>299.0</ele><time>2026-05-01T10:56:04.999Z</time></trkpt><trkpt lat="40.88552876196487" lon="17.16680890582308"><ele>299.0</ele><time>2026-05-01T10:56:05.999Z</time></trkpt><trkpt lat="40.88551853903243" lon="17.166709448229486"><ele>299.0</ele><time>2026-05-01T10:56:07Z</time></trkpt><trkpt lat="40.88550334540935" lon="17.16656751738682"><ele>299.0</ele><time>2026-05-01T10:56:09Z</time></trkpt><trkpt lat="40.885636623596916" lon="17.166496815112605"><ele>299.0</ele><time>2026-05-01T10:56:13Z</time></trkpt><trkpt lat="40.88569368272484" lon="17.16642800773028"><ele>299.0</ele><time>2026-05-01T10:56:15Z</time></trkpt><trkpt lat="40.88576036630241" lon="17.166385858941045"><ele>299.0</ele><time>2026-05-01T10:56:17Z</time></trkpt><trkpt lat="40.885851122046496" lon="17.1663347630888"><ele>299.0</ele><time>2026-05-01T10:56:19Z</time></trkpt><trkpt lat="40.88592142764042" lon="17.166280337010086"><ele>299.0</ele><time>2026-05-01T10:56:21Z</time></trkpt><trkpt lat="40.885914780071" lon="17.166185142170256"><ele>299.0</ele><time>2026-05-01T10:56:23Z</time></trkpt><trkpt lat="40.88588412561819" lon="17.166109655901014"><ele>299.0</ele><time>2026-05-01T10:56:24Z</time></trkpt><trkpt lat="40.88584138494146" lon="17.166013150481266"><ele>299.0</ele><time>2026-05-01T10:56:25Z</time></trkpt><trkpt lat="40.88581808075992" lon="17.165900769156423"><ele>299.0</ele><time>2026-05-01T10:56:26Z</time></trkpt><trkpt lat="40.88576311865788" lon="17.1657947559273"><ele>299.0</ele><time>2026-05-01T10:56:28Z</time></trkpt><trkpt lat="40.885732939940205" lon="17.165713643192568"><ele>299.0</ele><time>2026-05-01T10:56:29Z</time></trkpt><trkpt lat="40.885716769136394" lon="17.165622063228074"><ele>299.0</ele><time>2026-05-01T10:56:30Z</time></trkpt><trkpt lat="40.885668248619936" lon="17.165500920108684"><ele>299.0</ele><time>2026-05-01T10:56:32Z</time></trkpt><trkpt lat="40.88561759301415" lon="17.165348902645345"><ele>299.0</ele><time>2026-05-01T10:56:34Z</time></trkpt><trkpt lat="40.88558476564938" lon="17.165272091232538"><ele>299.0</ele><time>2026-05-01T10:56:35Z</time></trkpt><trkpt lat="40.88555673868494" lon="17.16519141658946"><ele>299.0</ele><time>2026-05-01T10:56:36Z</time></trkpt><trkpt lat="40.88552555507959" lon="17.165036166221146"><ele>299.0</ele><time>2026-05-01T10:56:38Z</time></trkpt><trkpt lat="40.885490903344355" lon="17.164954791865917"><ele>299.0</ele><time>2026-05-01T10:56:39Z</time></trkpt><trkpt lat="40.885451583731005" lon="17.16487848244515"><ele>299.0</ele><time>2026-05-01T10:56:40Z</time></trkpt><trkpt lat="40.88536420311366" lon="17.164746004293153"><ele>299.0</ele><time>2026-05-01T10:56:42Z</time></trkpt><trkpt lat="40.8853081341244" lon="17.16465568091368"><ele>299.0</ele><time>2026-05-01T10:56:44Z</time></trkpt><trkpt lat="40.88515534633697" lon="17.164712249014"><ele>299.0</ele><time>2026-05-01T10:56:46Z</time></trkpt><trkpt lat="40.885058709634656" lon="17.16476695620137"><ele>299.0</ele><time>2026-05-01T10:56:48Z</time></trkpt><trkpt lat="40.88498593360833" lon="17.164811039424613"><ele>299.0</ele><time>2026-05-01T10:56:49Z</time></trkpt><trkpt lat="40.88491058639228" lon="17.164856583331293"><ele>299.0</ele><time>2026-05-01T10:56:50Z</time></trkpt><trkpt lat="40.884837201509505" lon="17.1649009412768"><ele>299.0</ele><time>2026-05-01T10:56:51Z</time></trkpt><trkpt lat="40.884733870670516" lon="17.164962985384165"><ele>299.0</ele><time>2026-05-01T10:56:52Z</time></trkpt><trkpt lat="40.88462512579422" lon="17.165028421700526"><ele>299.0</ele><time>2026-05-01T10:56:53Z</time></trkpt><trkpt lat="40.884526071775205" lon="17.165088026598912"><ele>299.0</ele><time>2026-05-01T10:56:54Z</time></trkpt><trkpt lat="40.88442985632106" lon="17.16514592341919"><ele>299.0</ele><time>2026-05-01T10:56:55Z</time></trkpt><trkpt lat="40.88434871484505" lon="17.16519474965751"><ele>299.0</ele><time>2026-05-01T10:56:56Z</time></trkpt><trkpt lat="40.884310955386354" lon="17.165275673148077"><ele>299.8</ele><time>2026-05-01T10:56:57Z</time></trkpt><trkpt lat="40.88424052900251" lon="17.165311782264432"><ele>300.59999999999997</ele><time>2026-05-01T10:56:59Z</time></trkpt><trkpt lat="40.88415148537701" lon="17.165312585780228"><ele>301.4</ele><time>2026-05-01T10:57:01Z</time></trkpt><trkpt lat="40.884078669210666" lon="17.16535610498527"><ele>302.2</ele><time>2026-05-01T10:57:02Z</time></trkpt><trkpt lat="40.88396173625445" lon="17.165426649104777"><ele>303.0</ele><time>2026-05-01T10:57:04Z</time></trkpt><trkpt lat="40.883860641495495" lon="17.165487573492037"><ele>303.0</ele><time>2026-05-01T10:57:05Z</time></trkpt><trkpt lat="40.883737746734155" lon="17.16556034574836"><ele>303.0</ele><time>2026-05-01T10:57:06Z</time></trkpt><trkpt lat="40.883644775879276" lon="17.165615900524166"><ele>303.0</ele><time>2026-05-01T10:57:08Z</time></trkpt><trkpt lat="40.883601465948466" lon="17.165688680874105"><ele>303.0</ele><time>2026-05-01T10:57:10Z</time></trkpt><trkpt lat="40.883507074016826" lon="17.165698419295392"><ele>303.0</ele><time>2026-05-01T10:57:15Z</time></trkpt><trkpt lat="40.88346584669244" lon="17.16578700221513"><ele>303.3333333333333</ele><time>2026-05-01T10:57:16Z</time></trkpt><trkpt lat="40.88339082469118" lon="17.165827407470413"><ele>303.6666666666667</ele><time>2026-05-01T10:57:17Z</time></trkpt><trkpt lat="40.88331131338744" lon="17.165886760236248"><ele>304.0</ele><time>2026-05-01T10:57:18Z</time></trkpt><trkpt lat="40.883249811734736" lon="17.16599046558914"><ele>304.33333333333337</ele><time>2026-05-01T10:57:20Z</time></trkpt><trkpt lat="40.883182421214656" lon="17.16590355182589"><ele>304.6666666666667</ele><time>2026-05-01T10:57:21Z</time></trkpt><trkpt lat="40.88310452458036" lon="17.165906595426243"><ele>305.0</ele><time>2026-05-01T10:57:23Z</time></trkpt><trkpt lat="40.88306003426457" lon="17.165846692856224"><ele>305.0</ele><time>2026-05-01T10:57:25Z</time></trkpt><trkpt lat="40.88303066849968" lon="17.165714709474994"><ele>305.0</ele><time>2026-05-01T10:57:27Z</time></trkpt><trkpt lat="40.8829597042053" lon="17.165634334829402"><ele>305.0</ele><time>2026-05-01T10:57:28Z</time></trkpt><trkpt lat="40.88290114243367" lon="17.16553476733653"><ele>305.0</ele><time>2026-05-01T10:57:29Z</time></trkpt><trkpt lat="40.88282967132165" lon="17.165427457430006"><ele>305.0</ele><time>2026-05-01T10:57:31Z</time></trkpt><trkpt lat="40.882737533627406" lon="17.165348567672506"><ele>304.83333333333337</ele><time>2026-05-01T10:57:33Z</time></trkpt><trkpt lat="40.8826525515949" lon="17.165209811546458"><ele>304.6666666666667</ele><time>2026-05-01T10:57:35Z</time></trkpt><trkpt lat="40.88260312970428" lon="17.1651563436503"><ele>304.5</ele><time>2026-05-01T10:57:36Z</time></trkpt><trkpt lat="40.88256806112543" lon="17.16506966799325"><ele>304.3333333333333</ele><time>2026-05-01T10:57:37Z</time></trkpt><trkpt lat="40.88251484637902" lon="17.164996189158845"><ele>304.16666666666663</ele><time>2026-05-01T10:57:38Z</time></trkpt><trkpt lat="40.88246623042502" lon="17.1649044817339"><ele>304.0</ele><time>2026-05-01T10:57:39Z</time></trkpt><trkpt lat="40.88239256807817" lon="17.16479651692613"><ele>304.57142857142856</ele><time>2026-05-01T10:57:40.999Z</time></trkpt><trkpt lat="40.882334857044654" lon="17.164746249596764"><ele>305.14285714285717</ele><time>2026-05-01T10:57:41.999Z</time></trkpt><trkpt lat="40.882292871917" lon="17.164669419152847"><ele>305.7142857142857</ele><time>2026-05-01T10:57:42.999Z</time></trkpt><trkpt lat="40.88221660743831" lon="17.16458647991348"><ele>306.2857142857143</ele><time>2026-05-01T10:57:45.999Z</time></trkpt><trkpt lat="40.882151116700555" lon="17.164589617060457"><ele>306.8571428571429</ele><time>2026-05-01T10:57:46.999Z</time></trkpt><trkpt lat="40.8820950442465" lon="17.16453781699162"><ele>307.42857142857144</ele><time>2026-05-01T10:57:48.999Z</time></trkpt><trkpt lat="40.882042519090476" lon="17.164482768179177"><ele>308.0</ele><time>2026-05-01T10:57:50.999Z</time></trkpt><trkpt lat="40.88203730162759" lon="17.1643507361702"><ele>308.0</ele><time>2026-05-01T10:57:52.999Z</time></trkpt><trkpt lat="40.88196642097108" lon="17.164258786735907"><ele>308.0</ele><time>2026-05-01T10:57:54.999Z</time></trkpt><trkpt lat="40.88190400714147" lon="17.164177820988403"><ele>308.0</ele><time>2026-05-01T10:57:55.999Z</time></trkpt><trkpt lat="40.88182960268494" lon="17.164081300567837"><ele>308.0</ele><time>2026-05-01T10:57:56.999Z</time></trkpt><trkpt lat="40.88175721735667" lon="17.163987399196376"><ele>308.0</ele><time>2026-05-01T10:57:57.999Z</time></trkpt><trkpt lat="40.8816469273797" lon="17.16384432655099"><ele>308.5</ele><time>2026-05-01T10:57:58.999Z</time></trkpt><trkpt lat="40.88156337932645" lon="17.163758633939896"><ele>309.0</ele><time>2026-05-01T10:57:59.999Z</time></trkpt><trkpt lat="40.88150807605735" lon="17.16366420260432"><ele>309.5</ele><time>2026-05-01T10:58:00.999Z</time></trkpt><trkpt lat="40.881386324091686" lon="17.163550769296837"><ele>310.0</ele><time>2026-05-01T10:58:02.999Z</time></trkpt><trkpt lat="40.88130818688047" lon="17.163453747504466"><ele>310.0</ele><time>2026-05-01T10:58:03.999Z</time></trkpt><trkpt lat="40.88121663785179" lon="17.163347301286095"><ele>310.0</ele><time>2026-05-01T10:58:04.999Z</time></trkpt><trkpt lat="40.88115287403139" lon="17.163239833988023"><ele>310.0</ele><time>2026-05-01T10:58:05.999Z</time></trkpt><trkpt lat="40.88110065160104" lon="17.16315369105157"><ele>310.0</ele><time>2026-05-01T10:58:06.999Z</time></trkpt><trkpt lat="40.88105098420037" lon="17.163066419549466"><ele>310.0</ele><time>2026-05-01T10:58:07.999Z</time></trkpt><trkpt lat="40.880990203027785" lon="17.162987375023643"><ele>310.4</ele><time>2026-05-01T10:58:08.999Z</time></trkpt><trkpt lat="40.880915376437756" lon="17.16289006434783"><ele>310.8</ele><time>2026-05-01T10:58:09.999Z</time></trkpt><trkpt lat="40.880838903499935" lon="17.162792312924612"><ele>311.2</ele><time>2026-05-01T10:58:10.999Z</time></trkpt><trkpt lat="40.88077008647515" lon="17.16271777860102"><ele>311.6</ele><time>2026-05-01T10:58:11.999Z</time></trkpt><trkpt lat="40.88070438581167" lon="17.162624112454083"><ele>312.0</ele><time>2026-05-01T10:58:13Z</time></trkpt><trkpt lat="40.88062356458795" lon="17.162516973374615"><ele>312.0</ele><time>2026-05-01T10:58:14Z</time></trkpt><trkpt lat="40.88053358473896" lon="17.16239718354043"><ele>312.0</ele><time>2026-05-01T10:58:15Z</time></trkpt><trkpt lat="40.88044882719482" lon="17.16228385953057"><ele>312.0</ele><time>2026-05-01T10:58:16Z</time></trkpt><trkpt lat="40.8803675772374" lon="17.162175225230133"><ele>312.0</ele><time>2026-05-01T10:58:17Z</time></trkpt><trkpt lat="40.880289497807915" lon="17.16207254063942"><ele>311.6</ele><time>2026-05-01T10:58:18Z</time></trkpt><trkpt lat="40.88022395726213" lon="17.16198644007915"><ele>311.2</ele><time>2026-05-01T10:58:19Z</time></trkpt><trkpt lat="40.880158943169945" lon="17.161901031104566"><ele>310.8</ele><time>2026-05-01T10:58:20Z</time></trkpt><trkpt lat="40.880091329803534" lon="17.16181202443772"><ele>310.4</ele><time>2026-05-01T10:58:21Z</time></trkpt><trkpt lat="40.88001690411634" lon="17.16171616415327"><ele>310.0</ele><time>2026-05-01T10:58:22Z</time></trkpt><trkpt lat="40.879913138214015" lon="17.16163817482484"><ele>309.75</ele><time>2026-05-01T10:58:23Z</time></trkpt><trkpt lat="40.87982395931756" lon="17.16152533427243"><ele>309.5</ele><time>2026-05-01T10:58:24Z</time></trkpt><trkpt lat="40.87973020864398" lon="17.161411454499326"><ele>309.25</ele><time>2026-05-01T10:58:25Z</time></trkpt><trkpt lat="40.879636031375135" lon="17.16127856483225"><ele>309.0</ele><time>2026-05-01T10:58:26Z</time></trkpt><trkpt lat="40.87956549764431" lon="17.161125556569313"><ele>309.0</ele><time>2026-05-01T10:58:27Z</time></trkpt><trkpt lat="40.8794800001226" lon="17.16101489875269"><ele>309.0</ele><time>2026-05-01T10:58:28Z</time></trkpt><trkpt lat="40.87938743106336" lon="17.16089506843883"><ele>309.0</ele><time>2026-05-01T10:58:29Z</time></trkpt><trkpt lat="40.879290417405166" lon="17.16076948463297"><ele>309.0</ele><time>2026-05-01T10:58:30Z</time></trkpt><trkpt lat="40.87919930990928" lon="17.16064812167206"><ele>309.0</ele><time>2026-05-01T10:58:31Z</time></trkpt><trkpt lat="40.87912122233799" lon="17.160542888110907"><ele>309.0</ele><time>2026-05-01T10:58:32Z</time></trkpt><trkpt lat="40.879044404088155" lon="17.160439161569734"><ele>309.0</ele><time>2026-05-01T10:58:33Z</time></trkpt><trkpt lat="40.87896140643674" lon="17.160328551807694"><ele>309.0</ele><time>2026-05-01T10:58:34Z</time></trkpt><trkpt lat="40.87887530669725" lon="17.160216361238547"><ele>309.0</ele><time>2026-05-01T10:58:35Z</time></trkpt><trkpt lat="40.87879118825872" lon="17.160106752378187"><ele>309.0</ele><time>2026-05-01T10:58:36Z</time></trkpt><trkpt lat="40.878712779063065" lon="17.16000458281505"><ele>309.0</ele><time>2026-05-01T10:58:37Z</time></trkpt><trkpt lat="40.878638185226" lon="17.15990738481795"><ele>309.0</ele><time>2026-05-01T10:58:38Z</time></trkpt><trkpt lat="40.878557612657126" lon="17.159801959848522"><ele>309.0</ele><time>2026-05-01T10:58:39Z</time></trkpt><trkpt lat="40.878488379365244" lon="17.15970926736743"><ele>309.8</ele><time>2026-05-01T10:58:40Z</time></trkpt><trkpt lat="40.87838757900038" lon="17.15962075875037"><ele>310.59999999999997</ele><time>2026-05-01T10:58:41Z</time></trkpt><trkpt lat="40.87831843101722" lon="17.159502676345436"><ele>311.4</ele><time>2026-05-01T10:58:42Z</time></trkpt><trkpt lat="40.87824392374113" lon="17.1594112221112"><ele>312.2</ele><time>2026-05-01T10:58:43Z</time></trkpt><trkpt lat="40.87818004095111" lon="17.159329861786862"><ele>313.0</ele><time>2026-05-01T10:58:44Z</time></trkpt><trkpt lat="40.878127985324625" lon="17.159226553838717"><ele>313.0</ele><time>2026-05-01T10:58:45Z</time></trkpt><trkpt lat="40.878057474646894" lon="17.159134111915765"><ele>313.0</ele><time>2026-05-01T10:58:46Z</time></trkpt><trkpt lat="40.877993271150764" lon="17.15904993899847"><ele>313.0</ele><time>2026-05-01T10:58:47Z</time></trkpt><trkpt lat="40.87794588015902" lon="17.158985293558985"><ele>313.0</ele><time>2026-05-01T10:58:48Z</time></trkpt><trkpt lat="40.8778558685591" lon="17.158877132900148"><ele>313.0</ele><time>2026-05-01T10:58:50Z</time></trkpt><trkpt lat="40.87782881801299" lon="17.158777959195742"><ele>313.2</ele><time>2026-05-01T10:58:51Z</time></trkpt><trkpt lat="40.87777130100392" lon="17.158693133329905"><ele>313.4</ele><time>2026-05-01T10:58:53Z</time></trkpt><trkpt lat="40.877684146914305" lon="17.15858099760724"><ele>313.59999999999997</ele><time>2026-05-01T10:58:55Z</time></trkpt><trkpt lat="40.877598677701826" lon="17.158522806338603"><ele>313.8</ele><time>2026-05-01T10:58:56Z</time></trkpt><trkpt lat="40.87749740743642" lon="17.15847457152146"><ele>314.0</ele><time>2026-05-01T10:58:57Z</time></trkpt><trkpt lat="40.87740482986899" lon="17.15837632039673"><ele>314.33333333333337</ele><time>2026-05-01T10:58:58Z</time></trkpt><trkpt lat="40.877308353088104" lon="17.158235032758977"><ele>314.6666666666667</ele><time>2026-05-01T10:58:59Z</time></trkpt><trkpt lat="40.877226444183286" lon="17.158042724412383"><ele>315.0</ele><time>2026-05-01T10:59:00Z</time></trkpt><trkpt lat="40.87711474748099" lon="17.15789501209541"><ele>315.3333333333333</ele><time>2026-05-01T10:59:01Z</time></trkpt><trkpt lat="40.87698964020677" lon="17.157730849601787"><ele>315.66666666666663</ele><time>2026-05-01T10:59:02Z</time></trkpt><trkpt lat="40.87685460646021" lon="17.1575542260782"><ele>316.0</ele><time>2026-05-01T10:59:03Z</time></trkpt><trkpt lat="40.87670398374818" lon="17.15738765692841"><ele>317.3333333333333</ele><time>2026-05-01T10:59:04Z</time></trkpt><trkpt lat="40.87660659578512" lon="17.15723108643974"><ele>318.6666666666667</ele><time>2026-05-01T10:59:05Z</time></trkpt><trkpt lat="40.87648698827121" lon="17.157072835181328"><ele>320.0</ele><time>2026-05-01T10:59:06Z</time></trkpt><trkpt lat="40.87636088709842" lon="17.156907456379532"><ele>320.0</ele><time>2026-05-01T10:59:07Z</time></trkpt><trkpt lat="40.87624536950076" lon="17.15675602137499"><ele>320.0</ele><time>2026-05-01T10:59:08Z</time></trkpt><trkpt lat="40.87613812590779" lon="17.15661543290974"><ele>320.0</ele><time>2026-05-01T10:59:09Z</time></trkpt><trkpt lat="40.876032998047535" lon="17.156477618105882"><ele>321.75</ele><time>2026-05-01T10:59:10Z</time></trkpt><trkpt lat="40.87593055456808" lon="17.156343790436043"><ele>323.5</ele><time>2026-05-01T10:59:11Z</time></trkpt><trkpt lat="40.87582477338461" lon="17.156205722497546"><ele>325.25</ele><time>2026-05-01T10:59:12Z</time></trkpt><trkpt lat="40.87571983966425" lon="17.156068760680768"><ele>327.0</ele><time>2026-05-01T10:59:13Z</time></trkpt><trkpt lat="40.87563349317489" lon="17.155953165830258"><ele>327.0</ele><time>2026-05-01T10:59:14Z</time></trkpt><trkpt lat="40.87555283527351" lon="17.15584459860171"><ele>327.0</ele><time>2026-05-01T10:59:15Z</time></trkpt><trkpt lat="40.87548908539102" lon="17.155756352629915"><ele>327.0</ele><time>2026-05-01T10:59:16Z</time></trkpt><trkpt lat="40.875431715315656" lon="17.155675813342153"><ele>327.0</ele><time>2026-05-01T10:59:17Z</time></trkpt><trkpt lat="40.87536186448335" lon="17.15557775271748"><ele>327.0</ele><time>2026-05-01T10:59:18Z</time></trkpt><trkpt lat="40.8753111331956" lon="17.15549613968945"><ele>327.1666666666667</ele><time>2026-05-01T10:59:19Z</time></trkpt><trkpt lat="40.87528695226342" lon="17.155397493840653"><ele>327.3333333333333</ele><time>2026-05-01T10:59:20Z</time></trkpt><trkpt lat="40.87526573239493" lon="17.155303743526854"><ele>327.5</ele><time>2026-05-01T10:59:21Z</time></trkpt><trkpt lat="40.87523765830444" lon="17.155191985542682"><ele>327.66666666666663</ele><time>2026-05-01T10:59:22Z</time></trkpt><trkpt lat="40.8752094651213" lon="17.155080353608163"><ele>327.8333333333333</ele><time>2026-05-01T10:59:23Z</time></trkpt><trkpt lat="40.87519830358625" lon="17.154966711425296"><ele>328.0</ele><time>2026-05-01T10:59:23.999Z</time></trkpt><trkpt lat="40.875124230583715" lon="17.154846361251252"><ele>328.2</ele><time>2026-05-01T10:59:24.999Z</time></trkpt><trkpt lat="40.875022088740366" lon="17.154785657225297"><ele>328.4</ele><time>2026-05-01T10:59:25.999Z</time></trkpt><trkpt lat="40.874942727962924" lon="17.154764710856334"><ele>328.59999999999997</ele><time>2026-05-01T10:59:26.999Z</time></trkpt><trkpt lat="40.87481041025591" lon="17.154755975666678"><ele>328.79999999999995</ele><time>2026-05-01T10:59:27.999Z</time></trkpt><trkpt lat="40.874691689798446" lon="17.15471488133274"><ele>329.0</ele><time>2026-05-01T10:59:28.999Z</time></trkpt><trkpt lat="40.87457847589275" lon="17.154633850172964"><ele>329.0</ele><time>2026-05-01T10:59:29.999Z</time></trkpt><trkpt lat="40.874493081643934" lon="17.154475340376436"><ele>329.0</ele><time>2026-05-01T10:59:30.999Z</time></trkpt><trkpt lat="40.87437472885118" lon="17.154314472508144"><ele>329.0</ele><time>2026-05-01T10:59:31.999Z</time></trkpt><trkpt lat="40.874258609456305" lon="17.15415664034573"><ele>329.0</ele><time>2026-05-01T10:59:32.999Z</time></trkpt><trkpt lat="40.87412698518806" lon="17.153979732251397"><ele>329.0</ele><time>2026-05-01T10:59:33.999Z</time></trkpt><trkpt lat="40.873978874547824" lon="17.15380511872867"><ele>329.0</ele><time>2026-05-01T10:59:34.999Z</time></trkpt><trkpt lat="40.87384779408332" lon="17.153604583833122"><ele>329.0</ele><time>2026-05-01T10:59:35.999Z</time></trkpt><trkpt lat="40.87368374535471" lon="17.153410067849414"><ele>329.0</ele><time>2026-05-01T10:59:36.999Z</time></trkpt><trkpt lat="40.87353268402017" lon="17.15320513968937"><ele>329.0</ele><time>2026-05-01T10:59:37.999Z</time></trkpt><trkpt lat="40.87337284411645" lon="17.152985796066222"><ele>329.5</ele><time>2026-05-01T10:59:38.999Z</time></trkpt><trkpt lat="40.87319333359842" lon="17.152778354856586"><ele>330.0</ele><time>2026-05-01T10:59:39.999Z</time></trkpt><trkpt lat="40.87303108858584" lon="17.15254235854981"><ele>331.5</ele><time>2026-05-01T10:59:40.999Z</time></trkpt><trkpt lat="40.872855502094254" lon="17.152316958379426"><ele>333.0</ele><time>2026-05-01T10:59:41.999Z</time></trkpt><trkpt lat="40.87267109194958" lon="17.15210471820273"><ele>333.0</ele><time>2026-05-01T10:59:42.999Z</time></trkpt><trkpt lat="40.87250404527621" lon="17.151865794882166"><ele>333.0</ele><time>2026-05-01T10:59:43.999Z</time></trkpt><trkpt lat="40.872323547420244" lon="17.151638330833862"><ele>334.0</ele><time>2026-05-01T10:59:44.999Z</time></trkpt><trkpt lat="40.87214309856411" lon="17.151404845222952"><ele>335.0</ele><time>2026-05-01T10:59:45.999Z</time></trkpt><trkpt lat="40.871958428429785" lon="17.15115050366653"><ele>335.0</ele><time>2026-05-01T10:59:46.999Z</time></trkpt><trkpt lat="40.87177442337741" lon="17.15091182477436"><ele>335.0</ele><time>2026-05-01T10:59:47.999Z</time></trkpt><trkpt lat="40.87159176870897" lon="17.150674897250862"><ele>336.5</ele><time>2026-05-01T10:59:48.999Z</time></trkpt><trkpt lat="40.87140245729616" lon="17.150428480756805"><ele>338.0</ele><time>2026-05-01T10:59:49.999Z</time></trkpt><trkpt lat="40.871210766605316" lon="17.150180180520056"><ele>338.0</ele><time>2026-05-01T10:59:50.999Z</time></trkpt><trkpt lat="40.87102140884434" lon="17.149936589368863"><ele>338.0</ele><time>2026-05-01T10:59:51.999Z</time></trkpt><trkpt lat="40.870826648514964" lon="17.149686439007898"><ele>336.0</ele><time>2026-05-01T10:59:52.999Z</time></trkpt><trkpt lat="40.870634515312304" lon="17.149440690716066"><ele>334.0</ele><time>2026-05-01T10:59:53.999Z</time></trkpt><trkpt lat="40.87044339038074" lon="17.149194358684582"><ele>334.5</ele><time>2026-05-01T10:59:54.999Z</time></trkpt><trkpt lat="40.87023553490337" lon="17.148954265454993"><ele>335.0</ele><time>2026-05-01T10:59:55.999Z</time></trkpt><trkpt lat="40.87003434202681" lon="17.14868787137068"><ele>337.0</ele><time>2026-05-01T10:59:56.999Z</time></trkpt><trkpt lat="40.8698252090101" lon="17.148417829784428"><ele>339.0</ele><time>2026-05-01T10:59:57.999Z</time></trkpt><trkpt lat="40.86961512983333" lon="17.14814585802936"><ele>339.5</ele><time>2026-05-01T10:59:58.999Z</time></trkpt><trkpt lat="40.869404622744405" lon="17.147870285379614"><ele>340.0</ele><time>2026-05-01T10:59:59.999Z</time></trkpt><trkpt lat="40.869189250184405" lon="17.14760402854806"><ele>340.5</ele><time>2026-05-01T11:00:00.999Z</time></trkpt><trkpt lat="40.86899867372864" lon="17.1473547212064"><ele>341.0</ele><time>2026-05-01T11:00:01.999Z</time></trkpt><trkpt lat="40.86882387453921" lon="17.14710717818989"><ele>341.0</ele><time>2026-05-01T11:00:02.999Z</time></trkpt><trkpt lat="40.86863932843926" lon="17.146870630210785"><ele>341.0</ele><time>2026-05-01T11:00:03.999Z</time></trkpt><trkpt lat="40.86846079114623" lon="17.14665210527752"><ele>343.0</ele><time>2026-05-01T11:00:04.999Z</time></trkpt><trkpt lat="40.8682781554779" lon="17.146443099288273"><ele>345.0</ele><time>2026-05-01T11:00:05.999Z</time></trkpt><trkpt lat="40.86810982030695" lon="17.14624422096813"><ele>345.0</ele><time>2026-05-01T11:00:06.999Z</time></trkpt><trkpt lat="40.86793768472025" lon="17.146068078751465"><ele>345.0</ele><time>2026-05-01T11:00:07.999Z</time></trkpt><trkpt lat="40.86776986043174" lon="17.145874763347056"><ele>345.0</ele><time>2026-05-01T11:00:08.999Z</time></trkpt><trkpt lat="40.86761079067789" lon="17.145655541362657"><ele>345.5</ele><time>2026-05-01T11:00:09.999Z</time></trkpt><trkpt lat="40.86743407154365" lon="17.145445826986972"><ele>346.0</ele><time>2026-05-01T11:00:10.999Z</time></trkpt><trkpt lat="40.86725910006859" lon="17.145231640321597"><ele>346.0</ele><time>2026-05-01T11:00:11.999Z</time></trkpt><trkpt lat="40.867073798682476" lon="17.145023661572097"><ele>346.0</ele><time>2026-05-01T11:00:12.999Z</time></trkpt><trkpt lat="40.86690105295936" lon="17.144806181812022"><ele>345.5</ele><time>2026-05-01T11:00:13.999Z</time></trkpt><trkpt lat="40.866724566945734" lon="17.14458694267569"><ele>345.0</ele><time>2026-05-01T11:00:14.999Z</time></trkpt><trkpt lat="40.86654377885905" lon="17.144363728406283"><ele>345.0</ele><time>2026-05-01T11:00:15.999Z</time></trkpt><trkpt lat="40.86638276210608" lon="17.14413526523586"><ele>345.0</ele><time>2026-05-01T11:00:16.999Z</time></trkpt><trkpt lat="40.86620850059415" lon="17.143918681405676"><ele>344.5</ele><time>2026-05-01T11:00:17.999Z</time></trkpt><trkpt lat="40.866029528008305" lon="17.14369624791902"><ele>344.0</ele><time>2026-05-01T11:00:19Z</time></trkpt><trkpt lat="40.86583529045789" lon="17.143457474319675"><ele>344.5</ele><time>2026-05-01T11:00:20Z</time></trkpt><trkpt lat="40.86559493758071" lon="17.143220487228632"><ele>345.0</ele><time>2026-05-01T11:00:21Z</time></trkpt><trkpt lat="40.86538478479797" lon="17.142950184918377"><ele>345.0</ele><time>2026-05-01T11:00:22Z</time></trkpt><trkpt lat="40.86519198420988" lon="17.1426900968861"><ele>345.0</ele><time>2026-05-01T11:00:23Z</time></trkpt><trkpt lat="40.86499569107821" lon="17.14243157627839"><ele>345.5</ele><time>2026-05-01T11:00:24Z</time></trkpt><trkpt lat="40.864799800987406" lon="17.142175769040666"><ele>346.0</ele><time>2026-05-01T11:00:25Z</time></trkpt><trkpt lat="40.8646032501091" lon="17.14193134184524"><ele>346.0</ele><time>2026-05-01T11:00:26Z</time></trkpt><trkpt lat="40.86441174427468" lon="17.141694870446205"><ele>346.0</ele><time>2026-05-01T11:00:27Z</time></trkpt><trkpt lat="40.864218148936445" lon="17.14146023117812"><ele>346.0</ele><time>2026-05-01T11:00:28Z</time></trkpt><trkpt lat="40.86402895639348" lon="17.14121951377843"><ele>346.0</ele><time>2026-05-01T11:00:29Z</time></trkpt><trkpt lat="40.86384494432186" lon="17.14098891166835"><ele>346.0</ele><time>2026-05-01T11:00:30Z</time></trkpt><trkpt lat="40.863662996735265" lon="17.140764175556104"><ele>346.0</ele><time>2026-05-01T11:00:31Z</time></trkpt><trkpt lat="40.863479312708925" lon="17.140534090339898"><ele>349.0</ele><time>2026-05-01T11:00:32Z</time></trkpt><trkpt lat="40.8632982509076" lon="17.140310771237782"><ele>352.0</ele><time>2026-05-01T11:00:33Z</time></trkpt><trkpt lat="40.863119061786286" lon="17.14008571358148"><ele>352.0</ele><time>2026-05-01T11:00:34Z</time></trkpt><trkpt lat="40.862934044978786" lon="17.139848629928874"><ele>352.0</ele><time>2026-05-01T11:00:35Z</time></trkpt><trkpt lat="40.862766255011564" lon="17.139637893842036"><ele>353.0</ele><time>2026-05-01T11:00:36Z</time></trkpt><trkpt lat="40.862563585277556" lon="17.139383843012588"><ele>354.0</ele><time>2026-05-01T11:00:37Z</time></trkpt><trkpt lat="40.86237106557622" lon="17.139132685165535"><ele>354.5</ele><time>2026-05-01T11:00:38Z</time></trkpt><trkpt lat="40.86217708393877" lon="17.13888585273261"><ele>355.0</ele><time>2026-05-01T11:00:39Z</time></trkpt><trkpt lat="40.8619779061045" lon="17.138644832441152"><ele>356.5</ele><time>2026-05-01T11:00:40Z</time></trkpt><trkpt lat="40.86177937829939" lon="17.138400182506288"><ele>358.0</ele><time>2026-05-01T11:00:41Z</time></trkpt><trkpt lat="40.8615818810017" lon="17.13815395386161"><ele>358.5</ele><time>2026-05-01T11:00:42Z</time></trkpt><trkpt lat="40.86138923791209" lon="17.1379042314365"><ele>359.0</ele><time>2026-05-01T11:00:43Z</time></trkpt><trkpt lat="40.8611919163289" lon="17.137640818334184"><ele>359.0</ele><time>2026-05-01T11:00:44Z</time></trkpt><trkpt lat="40.860970946150644" lon="17.13738621613556"><ele>359.0</ele><time>2026-05-01T11:00:45Z</time></trkpt><trkpt lat="40.86078398355656" lon="17.137138247788204"><ele>359.5</ele><time>2026-05-01T11:00:46Z</time></trkpt><trkpt lat="40.86058599138595" lon="17.136889873737786"><ele>360.0</ele><time>2026-05-01T11:00:47Z</time></trkpt><trkpt lat="40.860390552095105" lon="17.136637533047104"><ele>359.5</ele><time>2026-05-01T11:00:48Z</time></trkpt><trkpt lat="40.86019331625734" lon="17.136386956654338"><ele>359.0</ele><time>2026-05-01T11:00:49Z</time></trkpt><trkpt lat="40.85999092106304" lon="17.136136187555127"><ele>359.0</ele><time>2026-05-01T11:00:50Z</time></trkpt><trkpt lat="40.85978864492878" lon="17.135890432911847"><ele>359.0</ele><time>2026-05-01T11:00:51Z</time></trkpt><trkpt lat="40.85959095892811" lon="17.13565404940981"><ele>358.5</ele><time>2026-05-01T11:00:52Z</time></trkpt><trkpt lat="40.85938765173007" lon="17.13540515226476"><ele>358.0</ele><time>2026-05-01T11:00:53Z</time></trkpt><trkpt lat="40.85918890132396" lon="17.135157120539233"><ele>357.5</ele><time>2026-05-01T11:00:54Z</time></trkpt><trkpt lat="40.85898626649952" lon="17.134912917066423"><ele>357.0</ele><time>2026-05-01T11:00:55Z</time></trkpt><trkpt lat="40.85878548836629" lon="17.13467589917901"><ele>356.5</ele><time>2026-05-01T11:00:56Z</time></trkpt><trkpt lat="40.85859954344564" lon="17.13442345240821"><ele>356.0</ele><time>2026-05-01T11:00:57Z</time></trkpt><trkpt lat="40.85841389512122" lon="17.134188792033402"><ele>357.5</ele><time>2026-05-01T11:00:58Z</time></trkpt><trkpt lat="40.85822547680487" lon="17.133949763198476"><ele>359.0</ele><time>2026-05-01T11:00:59Z</time></trkpt><trkpt lat="40.85803442421355" lon="17.13371096252961"><ele>359.0</ele><time>2026-05-01T11:01:00Z</time></trkpt><trkpt lat="40.85784353284929" lon="17.133470789272405"><ele>359.0</ele><time>2026-05-01T11:01:01Z</time></trkpt><trkpt lat="40.85765371896574" lon="17.13325097764596"><ele>359.5</ele><time>2026-05-01T11:01:02Z</time></trkpt><trkpt lat="40.85749567886867" lon="17.133028621668135"><ele>360.0</ele><time>2026-05-01T11:01:03Z</time></trkpt><trkpt lat="40.857315125393335" lon="17.132806258599434"><ele>360.0</ele><time>2026-05-01T11:01:04Z</time></trkpt><trkpt lat="40.85712846048931" lon="17.132569027660974"><ele>360.0</ele><time>2026-05-01T11:01:05Z</time></trkpt><trkpt lat="40.85694173877053" lon="17.13233446744244"><ele>358.0</ele><time>2026-05-01T11:01:06Z</time></trkpt><trkpt lat="40.856762770875925" lon="17.132111949005687"><ele>356.0</ele><time>2026-05-01T11:01:07Z</time></trkpt><trkpt lat="40.85658428574522" lon="17.13189174388633"><ele>356.0</ele><time>2026-05-01T11:01:08Z</time></trkpt><trkpt lat="40.8564005635845" lon="17.131659330303865"><ele>356.0</ele><time>2026-05-01T11:01:09Z</time></trkpt><trkpt lat="40.85621460900311" lon="17.131429673962494"><ele>356.5</ele><time>2026-05-01T11:01:10Z</time></trkpt><trkpt lat="40.856036011102894" lon="17.131204902275886"><ele>357.0</ele><time>2026-05-01T11:01:11Z</time></trkpt><trkpt lat="40.85585239944138" lon="17.130975295346087"><ele>358.0</ele><time>2026-05-01T11:01:12Z</time></trkpt><trkpt lat="40.855681202849034" lon="17.130754640891585"><ele>359.0</ele><time>2026-05-01T11:01:13Z</time></trkpt><trkpt lat="40.855493371051935" lon="17.130525248164226"><ele>359.5</ele><time>2026-05-01T11:01:14Z</time></trkpt><trkpt lat="40.8553071975734" lon="17.130296229173396"><ele>360.0</ele><time>2026-05-01T11:01:15Z</time></trkpt><trkpt lat="40.85512672798641" lon="17.13007245888163"><ele>361.0</ele><time>2026-05-01T11:01:16Z</time></trkpt><trkpt lat="40.8549630488272" lon="17.129869560715132"><ele>362.0</ele><time>2026-05-01T11:01:17Z</time></trkpt><trkpt lat="40.854812928862636" lon="17.129678620802178"><ele>363.0</ele><time>2026-05-01T11:01:18Z</time></trkpt><trkpt lat="40.854672354009594" lon="17.12950277459757"><ele>363.0</ele><time>2026-05-01T11:01:19Z</time></trkpt><trkpt lat="40.85453679858488" lon="17.12934060887726"><ele>363.0</ele><time>2026-05-01T11:01:20Z</time></trkpt><trkpt lat="40.85440791931216" lon="17.129184917107455"><ele>363.0</ele><time>2026-05-01T11:01:21Z</time></trkpt><trkpt lat="40.85428552597808" lon="17.129009305708806"><ele>364.3333333333333</ele><time>2026-05-01T11:01:22Z</time></trkpt><trkpt lat="40.85416497715387" lon="17.12886002880039"><ele>365.66666666666663</ele><time>2026-05-01T11:01:23Z</time></trkpt><trkpt lat="40.85404286335392" lon="17.12871175714599"><ele>367.0</ele><time>2026-05-01T11:01:24Z</time></trkpt><trkpt lat="40.85392164052108" lon="17.12856039406749"><ele>367.0</ele><time>2026-05-01T11:01:25Z</time></trkpt><trkpt lat="40.85381636078794" lon="17.128412382169103"><ele>367.0</ele><time>2026-05-01T11:01:26Z</time></trkpt><trkpt lat="40.85368716800309" lon="17.128259628750968"><ele>367.0</ele><time>2026-05-01T11:01:27Z</time></trkpt><trkpt lat="40.85356012554826" lon="17.128090601575952"><ele>367.25</ele><time>2026-05-01T11:01:28Z</time></trkpt><trkpt lat="40.85344049898403" lon="17.127940241428043"><ele>367.5</ele><time>2026-05-01T11:01:29Z</time></trkpt><trkpt lat="40.85334054643889" lon="17.12780118592702"><ele>367.75</ele><time>2026-05-01T11:01:30Z</time></trkpt><trkpt lat="40.853249877754756" lon="17.12768785007143"><ele>368.0</ele><time>2026-05-01T11:01:31Z</time></trkpt><trkpt lat="40.85318727951794" lon="17.12760941728807"><ele>368.0</ele><time>2026-05-01T11:01:32Z</time></trkpt><trkpt lat="40.85313560967413" lon="17.127544630844202"><ele>368.0</ele><time>2026-05-01T11:01:32.999Z</time></trkpt><trkpt lat="40.853074611910095" lon="17.127468454872673"><ele>368.0</ele><time>2026-05-01T11:01:33.999Z</time></trkpt><trkpt lat="40.85301648247087" lon="17.12739585006141"><ele>368.0</ele><time>2026-05-01T11:01:34.999Z</time></trkpt><trkpt lat="40.85292707778446" lon="17.12728420136416"><ele>368.0</ele><time>2026-05-01T11:01:36.999Z</time></trkpt><trkpt lat="40.85287366940021" lon="17.127217644731918"><ele>368.0</ele><time>2026-05-01T11:01:37.999Z</time></trkpt><trkpt lat="40.85280957381416" lon="17.127137769886744"><ele>367.83333333333337</ele><time>2026-05-01T11:01:38.999Z</time></trkpt><trkpt lat="40.8527241916405" lon="17.127031586802662"><ele>367.6666666666667</ele><time>2026-05-01T11:01:39.999Z</time></trkpt><trkpt lat="40.852648475668786" lon="17.126937546022273"><ele>367.5</ele><time>2026-05-01T11:01:40.999Z</time></trkpt><trkpt lat="40.852602206894986" lon="17.12688007926302"><ele>367.3333333333333</ele><time>2026-05-01T11:01:41.999Z</time></trkpt><trkpt lat="40.852544619145704" lon="17.126808554106198"><ele>367.16666666666663</ele><time>2026-05-01T11:01:43.999Z</time></trkpt><trkpt lat="40.852469523960195" lon="17.126825846483946"><ele>367.0</ele><time>2026-05-01T11:01:44.999Z</time></trkpt><trkpt lat="40.8524056844347" lon="17.126792664034888"><ele>366.75</ele><time>2026-05-01T11:01:45.999Z</time></trkpt><trkpt lat="40.85234619935736" lon="17.126657503526573"><ele>366.5</ele><time>2026-05-01T11:01:46.999Z</time></trkpt><trkpt lat="40.852254885255995" lon="17.126536029446594"><ele>366.25</ele><time>2026-05-01T11:01:47.999Z</time></trkpt><trkpt lat="40.85219015355536" lon="17.12636834691884"><ele>366.0</ele><time>2026-05-01T11:01:48.999Z</time></trkpt><trkpt lat="40.85210131638462" lon="17.12625756632611"><ele>365.8333333333333</ele><time>2026-05-01T11:01:49.999Z</time></trkpt><trkpt lat="40.852026520990755" lon="17.126164295920166"><ele>365.6666666666667</ele><time>2026-05-01T11:01:50.999Z</time></trkpt><trkpt lat="40.85195751696341" lon="17.12607637245371"><ele>365.5</ele><time>2026-05-01T11:01:51.999Z</time></trkpt><trkpt lat="40.85186855521666" lon="17.12603643713952"><ele>365.33333333333337</ele><time>2026-05-01T11:01:52.999Z</time></trkpt><trkpt lat="40.851817821832825" lon="17.12597428232235"><ele>365.1666666666667</ele><time>2026-05-01T11:01:53.999Z</time></trkpt><trkpt lat="40.8517706564466" lon="17.12591836465544"><ele>365.0</ele><time>2026-05-01T11:01:54.999Z</time></trkpt><trkpt lat="40.85173642370424" lon="17.125799285531837"><ele>365.6</ele><time>2026-05-01T11:01:56.999Z</time></trkpt><trkpt lat="40.85166104136638" lon="17.125705047365763"><ele>366.2</ele><time>2026-05-01T11:02:22.999Z</time></trkpt><trkpt lat="40.85161094444093" lon="17.12564255820637"><ele>366.79999999999995</ele><time>2026-05-01T11:02:23.999Z</time></trkpt><trkpt lat="40.851522831374915" lon="17.125532649033254"><ele>367.4</ele><time>2026-05-01T11:02:26Z</time></trkpt><trkpt lat="40.85146199857632" lon="17.125457951752303"><ele>368.0</ele><time>2026-05-01T11:02:27Z</time></trkpt><trkpt lat="40.8513975520103" lon="17.125378609308264"><ele>368.0</ele><time>2026-05-01T11:02:28Z</time></trkpt><trkpt lat="40.85133586505518" lon="17.1253021215218"><ele>368.0</ele><time>2026-05-01T11:02:29Z</time></trkpt><trkpt lat="40.85127786503882" lon="17.125230109472405"><ele>368.0</ele><time>2026-05-01T11:02:30Z</time></trkpt><trkpt lat="40.85122135076424" lon="17.12515742286163"><ele>368.0</ele><time>2026-05-01T11:02:31Z</time></trkpt><trkpt lat="40.85113222146177" lon="17.125059743931814"><ele>368.0</ele><time>2026-05-01T11:02:33Z</time></trkpt><trkpt lat="40.85107386386954" lon="17.12498574088741"><ele>368.0</ele><time>2026-05-01T11:02:34Z</time></trkpt><trkpt lat="40.851024188081404" lon="17.12492770725021"><ele>368.5</ele><time>2026-05-01T11:02:35Z</time></trkpt><trkpt lat="40.85095520201124" lon="17.1248470267216"><ele>369.0</ele><time>2026-05-01T11:02:36Z</time></trkpt><trkpt lat="40.85089374993031" lon="17.124774210113742"><ele>369.5</ele><time>2026-05-01T11:02:37Z</time></trkpt><trkpt lat="40.85082546123817" lon="17.124693294284565"><ele>370.0</ele><time>2026-05-01T11:02:38Z</time></trkpt><trkpt lat="40.85075916840314" lon="17.124614985760427"><ele>370.5</ele><time>2026-05-01T11:02:39Z</time></trkpt><trkpt lat="40.850704629844586" lon="17.12455063203978"><ele>371.0</ele><time>2026-05-01T11:02:40Z</time></trkpt><trkpt lat="40.85063983834144" lon="17.124474180178876"><ele>371.0</ele><time>2026-05-01T11:02:42Z</time></trkpt><trkpt lat="40.85059475409998" lon="17.124397526576992"><ele>371.0</ele><time>2026-05-01T11:02:44Z</time></trkpt><trkpt lat="40.85057265619734" lon="17.124319011132908"><ele>371.0</ele><time>2026-05-01T11:02:45Z</time></trkpt><trkpt lat="40.85054202957692" lon="17.12422184915319"><ele>371.0</ele><time>2026-05-01T11:02:46Z</time></trkpt><trkpt lat="40.850524051928176" lon="17.124114235049866"><ele>371.0</ele><time>2026-05-01T11:02:47Z</time></trkpt><trkpt lat="40.85054602226426" lon="17.1240207256379"><ele>371.0</ele><time>2026-05-01T11:02:48Z</time></trkpt><trkpt lat="40.85057000248997" lon="17.12390572558534"><ele>371.75</ele><time>2026-05-01T11:02:49Z</time></trkpt><trkpt lat="40.85060203396986" lon="17.123765660852147"><ele>372.5</ele><time>2026-05-01T11:02:50Z</time></trkpt><trkpt lat="40.85064177947691" lon="17.12358940747709"><ele>373.25</ele><time>2026-05-01T11:02:51Z</time></trkpt><trkpt lat="40.850678389107834" lon="17.123424728479545"><ele>374.0</ele><time>2026-05-01T11:02:52Z</time></trkpt><trkpt lat="40.85071889058674" lon="17.123231791897094"><ele>373.5</ele><time>2026-05-01T11:02:53Z</time></trkpt><trkpt lat="40.85074431297375" lon="17.123109967789375"><ele>373.0</ele><time>2026-05-01T11:02:54Z</time></trkpt><trkpt lat="40.85077307577028" lon="17.122980570057692"><ele>372.5</ele><time>2026-05-01T11:02:55Z</time></trkpt><trkpt lat="40.85070686381197" lon="17.12278628576194"><ele>372.0</ele><time>2026-05-01T11:02:56Z</time></trkpt><trkpt lat="40.85067732230871" lon="17.12263421915863"><ele>372.0</ele><time>2026-05-01T11:02:57Z</time></trkpt><trkpt lat="40.85067020957054" lon="17.122527200642573"><ele>372.0</ele><time>2026-05-01T11:02:58Z</time></trkpt><trkpt lat="40.85063122633169" lon="17.12237843164484"><ele>372.0</ele><time>2026-05-01T11:03:00Z</time></trkpt><trkpt lat="40.85059929947672" lon="17.122228406916225"><ele>372.0</ele><time>2026-05-01T11:03:01Z</time></trkpt><trkpt lat="40.85056981942168" lon="17.122093413776305"><ele>372.0</ele><time>2026-05-01T11:03:02Z</time></trkpt><trkpt lat="40.85054516486268" lon="17.121979395535732"><ele>371.8</ele><time>2026-05-01T11:03:03Z</time></trkpt><trkpt lat="40.85048835767404" lon="17.121931247620996"><ele>371.6</ele><time>2026-05-01T11:03:09Z</time></trkpt><trkpt lat="40.85050778093402" lon="17.121806508686884"><ele>371.40000000000003</ele><time>2026-05-01T11:03:11Z</time></trkpt><trkpt lat="40.850421981280896" lon="17.121716469142868"><ele>371.20000000000005</ele><time>2026-05-01T11:03:12Z</time></trkpt><trkpt lat="40.85040991952993" lon="17.121605188467957"><ele>371.0</ele><time>2026-05-01T11:03:13Z</time></trkpt><trkpt lat="40.85038673887327" lon="17.121480273163957"><ele>371.0</ele><time>2026-05-01T11:03:14Z</time></trkpt><trkpt lat="40.85036763978957" lon="17.121339104563024"><ele>371.0</ele><time>2026-05-01T11:03:15Z</time></trkpt><trkpt lat="40.850373045285735" lon="17.12118058069579"><ele>371.0</ele><time>2026-05-01T11:03:16Z</time></trkpt><trkpt lat="40.85034712158283" lon="17.12105680549668"><ele>371.0</ele><time>2026-05-01T11:03:17Z</time></trkpt><trkpt lat="40.850313385963275" lon="17.120896796474227"><ele>371.0</ele><time>2026-05-01T11:03:19Z</time></trkpt><trkpt lat="40.85028648046048" lon="17.120769182946457"><ele>371.0</ele><time>2026-05-01T11:03:22Z</time></trkpt><trkpt lat="40.850252510346166" lon="17.120607107685334"><ele>371.0</ele><time>2026-05-01T11:03:24Z</time></trkpt><trkpt lat="40.85023150648302" lon="17.12050686041578"><ele>371.0</ele><time>2026-05-01T11:03:25Z</time></trkpt><trkpt lat="40.850206380936086" lon="17.12038694117271"><ele>371.0</ele><time>2026-05-01T11:03:26Z</time></trkpt><trkpt lat="40.850173490346094" lon="17.120229960923382"><ele>370.5</ele><time>2026-05-01T11:03:27Z</time></trkpt><trkpt lat="40.850137918549784" lon="17.120059433693072"><ele>370.0</ele><time>2026-05-01T11:03:28.999Z</time></trkpt><trkpt lat="40.85011197697053" lon="17.119934803586787"><ele>369.5</ele><time>2026-05-01T11:03:30.999Z</time></trkpt><trkpt lat="40.85008889015975" lon="17.11982388853698"><ele>369.0</ele><time>2026-05-01T11:03:33.999Z</time></trkpt><trkpt lat="40.85002626135218" lon="17.119635310362938"><ele>368.4</ele><time>2026-05-01T11:03:35.999Z</time></trkpt><trkpt lat="40.85000283431351" lon="17.119514906278386"><ele>367.79999999999995</ele><time>2026-05-01T11:03:36.999Z</time></trkpt><trkpt lat="40.84997455212608" lon="17.11936954899547"><ele>367.20000000000005</ele><time>2026-05-01T11:03:37.999Z</time></trkpt><trkpt lat="40.84995091785354" lon="17.11925519099472"><ele>366.6</ele><time>2026-05-01T11:03:38.999Z</time></trkpt><trkpt lat="40.84993123304829" lon="17.11917063360899"><ele>366.0</ele><time>2026-05-01T11:03:39.999Z</time></trkpt><trkpt lat="40.849904933135804" lon="17.119057660523215"><ele>365.4</ele><time>2026-05-01T11:03:40.999Z</time></trkpt><trkpt lat="40.84986764546179" lon="17.11890776650978"><ele>364.8</ele><time>2026-05-01T11:03:41.999Z</time></trkpt><trkpt lat="40.84983755398044" lon="17.11876202968155"><ele>364.2</ele><time>2026-05-01T11:03:42.999Z</time></trkpt><trkpt lat="40.84981124076331" lon="17.11863575284942"><ele>363.59999999999997</ele><time>2026-05-01T11:03:43.999Z</time></trkpt><trkpt lat="40.84977841581933" lon="17.118522661049134"><ele>363.0</ele><time>2026-05-01T11:03:44.999Z</time></trkpt><trkpt lat="40.84975153169425" lon="17.118432808781172"><ele>363.0</ele><time>2026-05-01T11:03:45.999Z</time></trkpt><trkpt lat="40.84972885587002" lon="17.118313319868783"><ele>363.0</ele><time>2026-05-01T11:03:46.999Z</time></trkpt><trkpt lat="40.84969737861603" lon="17.118171186372344"><ele>363.0</ele><time>2026-05-01T11:03:47.999Z</time></trkpt><trkpt lat="40.849683812883924" lon="17.11803923893213"><ele>363.0</ele><time>2026-05-01T11:03:48.999Z</time></trkpt><trkpt lat="40.849658960571624" lon="17.117906254002303"><ele>363.0</ele><time>2026-05-01T11:03:49.999Z</time></trkpt><trkpt lat="40.849632584983034" lon="17.11776535869832"><ele>362.0</ele><time>2026-05-01T11:03:50.999Z</time></trkpt><trkpt lat="40.84961103613119" lon="17.117659608833314"><ele>361.0</ele><time>2026-05-01T11:03:51.999Z</time></trkpt><trkpt lat="40.84958988106379" lon="17.117560422469914"><ele>360.0</ele><time>2026-05-01T11:03:52.999Z</time></trkpt><trkpt lat="40.84955509954572" lon="17.11745866931601"><ele>359.0</ele><time>2026-05-01T11:03:53.999Z</time></trkpt><trkpt lat="40.849544386238044" lon="17.117350143632713"><ele>358.0</ele><time>2026-05-01T11:03:54.999Z</time></trkpt><trkpt lat="40.8495206688937" lon="17.117241415853975"><ele>357.0</ele><time>2026-05-01T11:03:55.999Z</time></trkpt><trkpt lat="40.849482701930576" lon="17.117130372327072"><ele>356.20000000000005</ele><time>2026-05-01T11:03:56.999Z</time></trkpt><trkpt lat="40.849462259537475" lon="17.11700967792885"><ele>355.4</ele><time>2026-05-01T11:03:57.999Z</time></trkpt><trkpt lat="40.849429629729364" lon="17.11687659948751"><ele>354.6</ele><time>2026-05-01T11:03:58.999Z</time></trkpt><trkpt lat="40.84940602053234" lon="17.11674027133656"><ele>353.79999999999995</ele><time>2026-05-01T11:04:00.999Z</time></trkpt><trkpt lat="40.849341767084304" lon="17.116628278151662"><ele>353.0</ele><time>2026-05-01T11:04:01.999Z</time></trkpt><trkpt lat="40.84925075547942" lon="17.116493551590626"><ele>350.2</ele><time>2026-05-01T11:04:02.999Z</time></trkpt><trkpt lat="40.84920152949726" lon="17.116381070881694"><ele>347.4</ele><time>2026-05-01T11:04:03.999Z</time></trkpt><trkpt lat="40.84913371060405" lon="17.116279797461807"><ele>344.59999999999997</ele><time>2026-05-01T11:04:04.999Z</time></trkpt><trkpt lat="40.84907712598923" lon="17.116191963973037"><ele>341.79999999999995</ele><time>2026-05-01T11:04:05.999Z</time></trkpt><trkpt lat="40.849018455772004" lon="17.11607168927226"><ele>339.0</ele><time>2026-05-01T11:04:06.999Z</time></trkpt><trkpt lat="40.84894854909337" lon="17.115938675972856"><ele>339.0</ele><time>2026-05-01T11:04:07.999Z</time></trkpt><trkpt lat="40.84887672969559" lon="17.115831291514493"><ele>339.0</ele><time>2026-05-01T11:04:08.999Z</time></trkpt><trkpt lat="40.84882969302829" lon="17.115727731981"><ele>339.0</ele><time>2026-05-01T11:04:09.999Z</time></trkpt><trkpt lat="40.84877034514158" lon="17.115622402219053"><ele>339.0</ele><time>2026-05-01T11:04:10.999Z</time></trkpt><trkpt lat="40.84870853885029" lon="17.11551270932665"><ele>339.0</ele><time>2026-05-01T11:04:11.999Z</time></trkpt><trkpt lat="40.848656299323615" lon="17.11541999537899"><ele>338.3333333333333</ele><time>2026-05-01T11:04:12.999Z</time></trkpt><trkpt lat="40.84860819996359" lon="17.115334704735023"><ele>337.6666666666667</ele><time>2026-05-01T11:04:13.999Z</time></trkpt><trkpt lat="40.84856798765836" lon="17.11525904931177"><ele>337.0</ele><time>2026-05-01T11:04:14.999Z</time></trkpt><trkpt lat="40.84852345654183" lon="17.115186198817632"><ele>336.33333333333337</ele><time>2026-05-01T11:04:15.999Z</time></trkpt><trkpt lat="40.8484775742994" lon="17.115108213341877"><ele>335.6666666666667</ele><time>2026-05-01T11:04:16.999Z</time></trkpt><trkpt lat="40.84843664712368" lon="17.11503999007775"><ele>335.0</ele><time>2026-05-01T11:04:17.999Z</time></trkpt><trkpt lat="40.84837372513251" lon="17.114935102720874"><ele>333.83333333333337</ele><time>2026-05-01T11:04:19.999Z</time></trkpt><trkpt lat="40.848288029291005" lon="17.114976368166086"><ele>332.6666666666667</ele><time>2026-05-01T11:04:20.999Z</time></trkpt><trkpt lat="40.84823292611506" lon="17.115020329239456"><ele>331.5</ele><time>2026-05-01T11:04:21.999Z</time></trkpt><trkpt lat="40.84819104879105" lon="17.115090303652075"><ele>330.3333333333333</ele><time>2026-05-01T11:04:22.999Z</time></trkpt><trkpt lat="40.84811956771403" lon="17.115129035090803"><ele>329.16666666666663</ele><time>2026-05-01T11:04:24.999Z</time></trkpt><trkpt lat="40.84804194141742" lon="17.11509927150274"><ele>328.0</ele><time>2026-05-01T11:04:25.999Z</time></trkpt><trkpt lat="40.84802960374017" lon="17.114944647719806"><ele>327.4</ele><time>2026-05-01T11:04:27.999Z</time></trkpt><trkpt lat="40.84807485499074" lon="17.114850998853264"><ele>326.79999999999995</ele><time>2026-05-01T11:04:28.999Z</time></trkpt><trkpt lat="40.84813216886529" lon="17.114733182892536"><ele>326.2</ele><time>2026-05-01T11:04:29.999Z</time></trkpt><trkpt lat="40.84816419375005" lon="17.114615014044993"><ele>325.6</ele><time>2026-05-01T11:04:31Z</time></trkpt><trkpt lat="40.84821584916856" lon="17.114474033555798"><ele>325.0</ele><time>2026-05-01T11:04:32Z</time></trkpt><trkpt lat="40.84827626351085" lon="17.11431405016733"><ele>325.0</ele><time>2026-05-01T11:04:33Z</time></trkpt><trkpt lat="40.848334499285286" lon="17.114147739661497"><ele>325.0</ele><time>2026-05-01T11:04:34Z</time></trkpt><trkpt lat="40.84838852369497" lon="17.113970147709942"><ele>325.0</ele><time>2026-05-01T11:04:35Z</time></trkpt><trkpt lat="40.84846325804662" lon="17.113792057810187"><ele>325.0</ele><time>2026-05-01T11:04:36Z</time></trkpt><trkpt lat="40.84853313165923" lon="17.11358775268223"><ele>324.66666666666663</ele><time>2026-05-01T11:04:37Z</time></trkpt><trkpt lat="40.84860214530498" lon="17.113388457274105"><ele>324.3333333333333</ele><time>2026-05-01T11:04:38Z</time></trkpt><trkpt lat="40.848671400572364" lon="17.113176194553024"><ele>324.0</ele><time>2026-05-01T11:04:39Z</time></trkpt><trkpt lat="40.84874112014934" lon="17.11296616455816"><ele>323.3333333333333</ele><time>2026-05-01T11:04:40Z</time></trkpt><trkpt lat="40.84880395025824" lon="17.112740034991802"><ele>322.66666666666663</ele><time>2026-05-01T11:04:41Z</time></trkpt><trkpt lat="40.848850687523345" lon="17.112477416562317"><ele>322.0</ele><time>2026-05-01T11:04:42Z</time></trkpt><trkpt lat="40.848907873602926" lon="17.112246775672503"><ele>321.66666666666663</ele><time>2026-05-01T11:04:43Z</time></trkpt><trkpt lat="40.84895880965477" lon="17.11203346455369"><ele>321.3333333333333</ele><time>2026-05-01T11:04:44Z</time></trkpt><trkpt lat="40.84900773561698" lon="17.111773988310592"><ele>321.0</ele><time>2026-05-01T11:04:45Z</time></trkpt><trkpt lat="40.849050083750754" lon="17.111515671063504"><ele>320.0</ele><time>2026-05-01T11:04:46Z</time></trkpt><trkpt lat="40.849083486196996" lon="17.111296341585362"><ele>319.0</ele><time>2026-05-01T11:04:47Z</time></trkpt><trkpt lat="40.84912061373226" lon="17.111083329038"><ele>318.0</ele><time>2026-05-01T11:04:48Z</time></trkpt><trkpt lat="40.849156788184764" lon="17.11087520988802"><ele>317.3333333333333</ele><time>2026-05-01T11:04:49Z</time></trkpt><trkpt lat="40.8491890850643" lon="17.11065266004969"><ele>316.66666666666663</ele><time>2026-05-01T11:04:50Z</time></trkpt><trkpt lat="40.84920014115577" lon="17.11041030556346"><ele>316.0</ele><time>2026-05-01T11:04:51Z</time></trkpt><trkpt lat="40.849199823149625" lon="17.110167233807257"><ele>316.0</ele><time>2026-05-01T11:04:52Z</time></trkpt><trkpt lat="40.8491735084068" lon="17.109924280664625"><ele>316.0</ele><time>2026-05-01T11:04:53Z</time></trkpt><trkpt lat="40.84914896507048" lon="17.109658501520293"><ele>316.0</ele><time>2026-05-01T11:04:54Z</time></trkpt><trkpt lat="40.84910854732699" lon="17.10939221524444"><ele>316.0</ele><time>2026-05-01T11:04:55Z</time></trkpt><trkpt lat="40.849048864720324" lon="17.109139991257585"><ele>316.0</ele><time>2026-05-01T11:04:56Z</time></trkpt><trkpt lat="40.848986847082614" lon="17.108870185790497"><ele>316.0</ele><time>2026-05-01T11:04:57Z</time></trkpt><trkpt lat="40.84892373320653" lon="17.108600695594177"><ele>316.0</ele><time>2026-05-01T11:04:58Z</time></trkpt><trkpt lat="40.84885916415687" lon="17.108332188227493"><ele>316.0</ele><time>2026-05-01T11:04:59Z</time></trkpt><trkpt lat="40.84879148674359" lon="17.108050754912203"><ele>316.0</ele><time>2026-05-01T11:05:00Z</time></trkpt><trkpt lat="40.848705853398705" lon="17.107760490426585"><ele>317.5</ele><time>2026-05-01T11:05:01Z</time></trkpt><trkpt lat="40.84863502888314" lon="17.10747401226083"><ele>319.0</ele><time>2026-05-01T11:05:02Z</time></trkpt><trkpt lat="40.84858206914148" lon="17.107174147277753"><ele>320.0</ele><time>2026-05-01T11:05:03Z</time></trkpt><trkpt lat="40.84848950519369" lon="17.10689233162129"><ele>321.0</ele><time>2026-05-01T11:05:04Z</time></trkpt><trkpt lat="40.84841923820932" lon="17.106603180990433"><ele>321.6666666666667</ele><time>2026-05-01T11:05:05Z</time></trkpt><trkpt lat="40.848345322525354" lon="17.106352753128974"><ele>322.33333333333337</ele><time>2026-05-01T11:05:06Z</time></trkpt><trkpt lat="40.848276693393125" lon="17.106112640924497"><ele>323.0</ele><time>2026-05-01T11:05:07Z</time></trkpt><trkpt lat="40.848166500367626" lon="17.105909140385826"><ele>323.0</ele><time>2026-05-01T11:05:08Z</time></trkpt><trkpt lat="40.84806549102974" lon="17.105698198627035"><ele>323.0</ele><time>2026-05-01T11:05:09Z</time></trkpt><trkpt lat="40.84794062491976" lon="17.10551346927304"><ele>323.0</ele><time>2026-05-01T11:05:10Z</time></trkpt><trkpt lat="40.84785408935625" lon="17.10536045590039"><ele>323.0</ele><time>2026-05-01T11:05:11Z</time></trkpt><trkpt lat="40.84772155593795" lon="17.105122969271658"><ele>323.0</ele><time>2026-05-01T11:05:12Z</time></trkpt><trkpt lat="40.84762555770899" lon="17.10491333685573"><ele>323.0</ele><time>2026-05-01T11:05:13Z</time></trkpt><trkpt lat="40.84753660422778" lon="17.10466535098172"><ele>320.6666666666667</ele><time>2026-05-01T11:05:14Z</time></trkpt><trkpt lat="40.847459099720744" lon="17.104396503086278"><ele>318.3333333333333</ele><time>2026-05-01T11:05:15Z</time></trkpt><trkpt lat="40.8473957021892" lon="17.10412536463378"><ele>316.0</ele><time>2026-05-01T11:05:16Z</time></trkpt><trkpt lat="40.847356770144955" lon="17.103859073504296"><ele>316.0</ele><time>2026-05-01T11:05:17Z</time></trkpt><trkpt lat="40.847316305212566" lon="17.10358921415828"><ele>316.0</ele><time>2026-05-01T11:05:18Z</time></trkpt><trkpt lat="40.8472953186091" lon="17.10329543602108"><ele>316.0</ele><time>2026-05-01T11:05:19Z</time></trkpt><trkpt lat="40.84728151626536" lon="17.10299108185271"><ele>315.5</ele><time>2026-05-01T11:05:20Z</time></trkpt><trkpt lat="40.84726577506668" lon="17.10267583631478"><ele>315.0</ele><time>2026-05-01T11:05:21Z</time></trkpt><trkpt lat="40.84725269013041" lon="17.102363325059432"><ele>314.5</ele><time>2026-05-01T11:05:22Z</time></trkpt><trkpt lat="40.84723556163255" lon="17.10205335832614"><ele>314.0</ele><time>2026-05-01T11:05:23Z</time></trkpt><trkpt lat="40.847220506656384" lon="17.10174183677983"><ele>314.0</ele><time>2026-05-01T11:05:24Z</time></trkpt><trkpt lat="40.8471999221378" lon="17.101413810630937"><ele>314.0</ele><time>2026-05-01T11:05:25Z</time></trkpt><trkpt lat="40.84718405128067" lon="17.101127237900222"><ele>314.0</ele><time>2026-05-01T11:05:26Z</time></trkpt><trkpt lat="40.84716835511588" lon="17.10080172855631"><ele>314.0</ele><time>2026-05-01T11:05:27Z</time></trkpt><trkpt lat="40.84715071173213" lon="17.10048634125994"><ele>312.5</ele><time>2026-05-01T11:05:28Z</time></trkpt><trkpt lat="40.84714938681225" lon="17.10015709312954"><ele>311.0</ele><time>2026-05-01T11:05:29Z</time></trkpt><trkpt lat="40.84715835887388" lon="17.099826383438955"><ele>311.0</ele><time>2026-05-01T11:05:29.999Z</time></trkpt><trkpt lat="40.84717384881449" lon="17.099486781430247"><ele>311.0</ele><time>2026-05-01T11:05:30.999Z</time></trkpt><trkpt lat="40.847202168053094" lon="17.099157076407852"><ele>310.0</ele><time>2026-05-01T11:05:31.999Z</time></trkpt><trkpt lat="40.84725543673114" lon="17.098799702009547"><ele>309.0</ele><time>2026-05-01T11:05:32.999Z</time></trkpt><trkpt lat="40.847289977765584" lon="17.09845375064793"><ele>308.0</ele><time>2026-05-01T11:05:33.999Z</time></trkpt><trkpt lat="40.847343147499686" lon="17.09811528075917"><ele>307.0</ele><time>2026-05-01T11:05:34.999Z</time></trkpt><trkpt lat="40.84739844810632" lon="17.09777725737368"><ele>307.0</ele><time>2026-05-01T11:05:35.999Z</time></trkpt><trkpt lat="40.847454747306955" lon="17.097430642879242"><ele>307.0</ele><time>2026-05-01T11:05:36.999Z</time></trkpt><trkpt lat="40.84749741012617" lon="17.09709265426163"><ele>306.5</ele><time>2026-05-01T11:05:37.999Z</time></trkpt><trkpt lat="40.84754868852315" lon="17.096738311070837"><ele>306.0</ele><time>2026-05-01T11:05:38.999Z</time></trkpt><trkpt lat="40.847597278883356" lon="17.09637998279145"><ele>306.5</ele><time>2026-05-01T11:05:39.999Z</time></trkpt><trkpt lat="40.84764790596948" lon="17.096027392807038"><ele>307.0</ele><time>2026-05-01T11:05:40.999Z</time></trkpt><trkpt lat="40.847694109727186" lon="17.095688087746346"><ele>307.0</ele><time>2026-05-01T11:05:41.999Z</time></trkpt><trkpt lat="40.847741808924845" lon="17.09533793913681"><ele>307.0</ele><time>2026-05-01T11:05:42.999Z</time></trkpt><trkpt lat="40.84777940405365" lon="17.094986883299192"><ele>306.5</ele><time>2026-05-01T11:05:43.999Z</time></trkpt><trkpt lat="40.84780716198954" lon="17.09466302377239"><ele>306.0</ele><time>2026-05-01T11:05:44.999Z</time></trkpt><trkpt lat="40.847846061674495" lon="17.094320629509173"><ele>305.0</ele><time>2026-05-01T11:05:45.999Z</time></trkpt><trkpt lat="40.84787721422066" lon="17.093999379856683"><ele>304.0</ele><time>2026-05-01T11:05:46.999Z</time></trkpt><trkpt lat="40.84783014922677" lon="17.093658647766343"><ele>304.0</ele><time>2026-05-01T11:05:47.999Z</time></trkpt><trkpt lat="40.8478026037519" lon="17.09332096552817"><ele>304.0</ele><time>2026-05-01T11:05:48.999Z</time></trkpt><trkpt lat="40.847752766348734" lon="17.092977520734028"><ele>303.5</ele><time>2026-05-01T11:05:49.999Z</time></trkpt><trkpt lat="40.847673141039195" lon="17.092632488737753"><ele>303.0</ele><time>2026-05-01T11:05:50.999Z</time></trkpt><trkpt lat="40.84758755105137" lon="17.092276288270725"><ele>302.0</ele><time>2026-05-01T11:05:51.999Z</time></trkpt><trkpt lat="40.84748645220744" lon="17.09192018384373"><ele>301.0</ele><time>2026-05-01T11:05:52.999Z</time></trkpt><trkpt lat="40.847373783061556" lon="17.091577936432913"><ele>300.5</ele><time>2026-05-01T11:05:53.999Z</time></trkpt><trkpt lat="40.84724959147185" lon="17.09126967720725"><ele>300.0</ele><time>2026-05-01T11:05:54.999Z</time></trkpt><trkpt lat="40.84709944333404" lon="17.090936039363122"><ele>300.5</ele><time>2026-05-01T11:05:55.999Z</time></trkpt><trkpt lat="40.846915092674024" lon="17.090645322776627"><ele>301.0</ele><time>2026-05-01T11:05:56.999Z</time></trkpt><trkpt lat="40.84675581637011" lon="17.090341539742873"><ele>301.0</ele><time>2026-05-01T11:05:57.999Z</time></trkpt><trkpt lat="40.84655209152624" lon="17.09004737762525"><ele>301.0</ele><time>2026-05-01T11:05:58.999Z</time></trkpt><trkpt lat="40.84635208787638" lon="17.089779151724596"><ele>301.0</ele><time>2026-05-01T11:05:59.999Z</time></trkpt><trkpt lat="40.846170559930144" lon="17.08950672033072"><ele>301.0</ele><time>2026-05-01T11:06:00.999Z</time></trkpt><trkpt lat="40.84598968866474" lon="17.08922781003786"><ele>301.0</ele><time>2026-05-01T11:06:01.999Z</time></trkpt><trkpt lat="40.84580721719121" lon="17.088930258816614"><ele>301.0</ele><time>2026-05-01T11:06:02.999Z</time></trkpt><trkpt lat="40.8456244063989" lon="17.08871891835825"><ele>301.0</ele><time>2026-05-01T11:06:03.999Z</time></trkpt><trkpt lat="40.845447867140855" lon="17.088462156184217"><ele>301.0</ele><time>2026-05-01T11:06:04.999Z</time></trkpt><trkpt lat="40.84527231354998" lon="17.08820671928769"><ele>301.0</ele><time>2026-05-01T11:06:05.999Z</time></trkpt><trkpt lat="40.84510023574216" lon="17.087952194841908"><ele>301.0</ele><time>2026-05-01T11:06:06.999Z</time></trkpt><trkpt lat="40.84493662845156" lon="17.087684823460194"><ele>301.0</ele><time>2026-05-01T11:06:07.999Z</time></trkpt><trkpt lat="40.8447896454751" lon="17.087408255172004"><ele>301.0</ele><time>2026-05-01T11:06:08.999Z</time></trkpt><trkpt lat="40.844651106992934" lon="17.087113898538405"><ele>301.0</ele><time>2026-05-01T11:06:09.999Z</time></trkpt><trkpt lat="40.84453418298755" lon="17.086810879760403"><ele>301.0</ele><time>2026-05-01T11:06:10.999Z</time></trkpt><trkpt lat="40.84442791210805" lon="17.086473472511628"><ele>301.0</ele><time>2026-05-01T11:06:11.999Z</time></trkpt><trkpt lat="40.844333017047674" lon="17.086132478926544"><ele>301.0</ele><time>2026-05-01T11:06:12.999Z</time></trkpt><trkpt lat="40.84425536763101" lon="17.08578062279847"><ele>301.0</ele><time>2026-05-01T11:06:13.999Z</time></trkpt><trkpt lat="40.84418584625972" lon="17.085404060342086"><ele>301.0</ele><time>2026-05-01T11:06:14.999Z</time></trkpt><trkpt lat="40.844127291273374" lon="17.085015786692402"><ele>301.5</ele><time>2026-05-01T11:06:15.999Z</time></trkpt><trkpt lat="40.844078701451416" lon="17.08462250294045"><ele>302.0</ele><time>2026-05-01T11:06:16.999Z</time></trkpt><trkpt lat="40.844030652724776" lon="17.084229004648673"><ele>302.0</ele><time>2026-05-01T11:06:17.999Z</time></trkpt><trkpt lat="40.84398580726219" lon="17.083840750447493"><ele>302.0</ele><time>2026-05-01T11:06:18.999Z</time></trkpt><trkpt lat="40.843893227111295" lon="17.083135669104095"><ele>302.0</ele><time>2026-05-01T11:06:20.999Z</time></trkpt><trkpt lat="40.843850462545525" lon="17.08282329481204"><ele>302.0</ele><time>2026-05-01T11:06:21.999Z</time></trkpt><trkpt lat="40.8438154093326" lon="17.082526885823505"><ele>302.0</ele><time>2026-05-01T11:06:22.999Z</time></trkpt><trkpt lat="40.84376395827599" lon="17.082225558012645"><ele>302.0</ele><time>2026-05-01T11:06:23.999Z</time></trkpt><trkpt lat="40.84371345203403" lon="17.0819230050525"><ele>302.0</ele><time>2026-05-01T11:06:24.999Z</time></trkpt><trkpt lat="40.843670352487344" lon="17.08163130152217"><ele>302.0</ele><time>2026-05-01T11:06:25.999Z</time></trkpt><trkpt lat="40.84363222849153" lon="17.081345262169457"><ele>302.0</ele><time>2026-05-01T11:06:26.999Z</time></trkpt><trkpt lat="40.84359531782608" lon="17.08106211937904"><ele>302.6666666666667</ele><time>2026-05-01T11:06:27.999Z</time></trkpt><trkpt lat="40.84356150146483" lon="17.08080124974277"><ele>303.3333333333333</ele><time>2026-05-01T11:06:28.999Z</time></trkpt><trkpt lat="40.84353201380831" lon="17.08053412967392"><ele>304.0</ele><time>2026-05-01T11:06:29.999Z</time></trkpt><trkpt lat="40.843498468993445" lon="17.08028272569827"><ele>304.66666666666663</ele><time>2026-05-01T11:06:30.999Z</time></trkpt><trkpt lat="40.843470444821335" lon="17.08005262951525"><ele>305.3333333333333</ele><time>2026-05-01T11:06:31.999Z</time></trkpt><trkpt lat="40.84344085705635" lon="17.07980295804072"><ele>306.0</ele><time>2026-05-01T11:06:32.999Z</time></trkpt><trkpt lat="40.8434090707837" lon="17.07955655457379"><ele>306.0</ele><time>2026-05-01T11:06:33.999Z</time></trkpt><trkpt lat="40.84338267603147" lon="17.079327344972832"><ele>306.0</ele><time>2026-05-01T11:06:34.999Z</time></trkpt><trkpt lat="40.84335496080988" lon="17.07909874969071"><ele>306.0</ele><time>2026-05-01T11:06:35.999Z</time></trkpt><trkpt lat="40.8433232556111" lon="17.078869901719408"><ele>305.3333333333333</ele><time>2026-05-01T11:06:37Z</time></trkpt><trkpt lat="40.843291811748415" lon="17.07863760911433"><ele>304.66666666666663</ele><time>2026-05-01T11:06:38Z</time></trkpt><trkpt lat="40.843270979607304" lon="17.078392607099456"><ele>304.0</ele><time>2026-05-01T11:06:39Z</time></trkpt><trkpt lat="40.84326246152957" lon="17.078170259982564"><ele>303.0</ele><time>2026-05-01T11:06:40Z</time></trkpt><trkpt lat="40.843258626091135" lon="17.07795044580154"><ele>302.0</ele><time>2026-05-01T11:06:41Z</time></trkpt><trkpt lat="40.84325831397449" lon="17.077719216294266"><ele>301.0</ele><time>2026-05-01T11:06:42Z</time></trkpt><trkpt lat="40.843262789989204" lon="17.077476480442417"><ele>300.0</ele><time>2026-05-01T11:06:43Z</time></trkpt><trkpt lat="40.8432725857389" lon="17.077242574170945"><ele>299.0</ele><time>2026-05-01T11:06:44Z</time></trkpt><trkpt lat="40.84328114621827" lon="17.077011131329478"><ele>298.0</ele><time>2026-05-01T11:06:45Z</time></trkpt><trkpt lat="40.84328938987126" lon="17.076774132888847"><ele>297.3333333333333</ele><time>2026-05-01T11:06:46Z</time></trkpt><trkpt lat="40.84329577324123" lon="17.076521778919997"><ele>296.6666666666667</ele><time>2026-05-01T11:06:47Z</time></trkpt><trkpt lat="40.84329971212494" lon="17.076265448602577"><ele>296.0</ele><time>2026-05-01T11:06:48Z</time></trkpt><trkpt lat="40.843308131503704" lon="17.075992520459216"><ele>295.33333333333337</ele><time>2026-05-01T11:06:49Z</time></trkpt><trkpt lat="40.84332330320351" lon="17.075708523230745"><ele>294.6666666666667</ele><time>2026-05-01T11:06:50Z</time></trkpt><trkpt lat="40.84332482393149" lon="17.07540337689824"><ele>294.0</ele><time>2026-05-01T11:06:51Z</time></trkpt><trkpt lat="40.84334731833241" lon="17.0751077417127"><ele>294.0</ele><time>2026-05-01T11:06:52Z</time></trkpt><trkpt lat="40.84336904998219" lon="17.07473100177429"><ele>294.0</ele><time>2026-05-01T11:06:53Z</time></trkpt><trkpt lat="40.843386501271155" lon="17.074356286792305"><ele>294.0</ele><time>2026-05-01T11:06:54Z</time></trkpt><trkpt lat="40.84340118646819" lon="17.073987003216896"><ele>294.0</ele><time>2026-05-01T11:06:55Z</time></trkpt><trkpt lat="40.84341540395156" lon="17.073611739099903"><ele>294.5</ele><time>2026-05-01T11:06:56Z</time></trkpt><trkpt lat="40.84344390865614" lon="17.073197999088535"><ele>295.0</ele><time>2026-05-01T11:06:57Z</time></trkpt><trkpt lat="40.84345942659846" lon="17.07279190430693"><ele>295.0</ele><time>2026-05-01T11:06:58Z</time></trkpt><trkpt lat="40.84347480218118" lon="17.072365016957097"><ele>295.0</ele><time>2026-05-01T11:06:59Z</time></trkpt><trkpt lat="40.84349091511597" lon="17.071915045458883"><ele>295.5</ele><time>2026-05-01T11:07:00Z</time></trkpt><trkpt lat="40.84350734432579" lon="17.071456241485073"><ele>296.0</ele><time>2026-05-01T11:07:01Z</time></trkpt><trkpt lat="40.84350823687796" lon="17.07104843762056"><ele>295.0</ele><time>2026-05-01T11:07:02Z</time></trkpt><trkpt lat="40.84354197176721" lon="17.070597928198776"><ele>294.0</ele><time>2026-05-01T11:07:03Z</time></trkpt><trkpt lat="40.84357697013638" lon="17.07012994591928"><ele>294.0</ele><time>2026-05-01T11:07:04Z</time></trkpt><trkpt lat="40.8435738730921" lon="17.069621700413883"><ele>294.0</ele><time>2026-05-01T11:07:05Z</time></trkpt><trkpt lat="40.84359312374017" lon="17.0690753524359"><ele>293.5</ele><time>2026-05-01T11:07:06Z</time></trkpt><trkpt lat="40.84357290003807" lon="17.068508853499317"><ele>293.0</ele><time>2026-05-01T11:07:07Z</time></trkpt><trkpt lat="40.843568022793264" lon="17.06792745365131"><ele>293.0</ele><time>2026-05-01T11:07:08Z</time></trkpt><trkpt lat="40.843551154533834" lon="17.06734114145207"><ele>293.0</ele><time>2026-05-01T11:07:09Z</time></trkpt><trkpt lat="40.84353491933712" lon="17.06675530438732"><ele>293.0</ele><time>2026-05-01T11:07:10Z</time></trkpt><trkpt lat="40.84350633310952" lon="17.066253892796862"><ele>293.0</ele><time>2026-05-01T11:07:11Z</time></trkpt><trkpt lat="40.8434784923736" lon="17.065761514115984"><ele>293.0</ele><time>2026-05-01T11:07:12Z</time></trkpt><trkpt lat="40.84343286663467" lon="17.06526894919449"><ele>293.0</ele><time>2026-05-01T11:07:13Z</time></trkpt><trkpt lat="40.84338630531517" lon="17.064775461687468"><ele>293.0</ele><time>2026-05-01T11:07:14Z</time></trkpt><trkpt lat="40.843316641724314" lon="17.06425897408122"><ele>293.0</ele><time>2026-05-01T11:07:15Z</time></trkpt><trkpt lat="40.84318744463784" lon="17.063732748949967"><ele>294.0</ele><time>2026-05-01T11:07:16Z</time></trkpt><trkpt lat="40.84312153526788" lon="17.06324662069251"><ele>295.0</ele><time>2026-05-01T11:07:17Z</time></trkpt><trkpt lat="40.84303783527059" lon="17.06280636008022"><ele>295.0</ele><time>2026-05-01T11:07:18Z</time></trkpt><trkpt lat="40.84296718993372" lon="17.062398278219323"><ele>295.0</ele><time>2026-05-01T11:07:19Z</time></trkpt><trkpt lat="40.84290773426065" lon="17.06200450395711"><ele>295.0</ele><time>2026-05-01T11:07:20Z</time></trkpt><trkpt lat="40.842859222388164" lon="17.061590450079994"><ele>295.0</ele><time>2026-05-01T11:07:21Z</time></trkpt><trkpt lat="40.84282482154706" lon="17.06120916834389"><ele>295.0</ele><time>2026-05-01T11:07:22Z</time></trkpt><trkpt lat="40.84279117433719" lon="17.060822291872213"><ele>295.0</ele><time>2026-05-01T11:07:23Z</time></trkpt><trkpt lat="40.84275910309936" lon="17.060434576601182"><ele>295.0</ele><time>2026-05-01T11:07:24Z</time></trkpt><trkpt lat="40.84272708620591" lon="17.060047518321447"><ele>295.0</ele><time>2026-05-01T11:07:25Z</time></trkpt><trkpt lat="40.84269333695652" lon="17.05965758382032"><ele>295.0</ele><time>2026-05-01T11:07:26Z</time></trkpt><trkpt lat="40.84266033465487" lon="17.05927678034602"><ele>295.0</ele><time>2026-05-01T11:07:26.999Z</time></trkpt><trkpt lat="40.84262738077416" lon="17.058896535622956"><ele>295.5</ele><time>2026-05-01T11:07:27.999Z</time></trkpt><trkpt lat="40.842595218236156" lon="17.058512127210705"><ele>296.0</ele><time>2026-05-01T11:07:28.999Z</time></trkpt><trkpt lat="40.84256305017264" lon="17.058127345470353"><ele>296.0</ele><time>2026-05-01T11:07:29.999Z</time></trkpt><trkpt lat="40.8425311107825" lon="17.057745299091746"><ele>296.0</ele><time>2026-05-01T11:07:30.999Z</time></trkpt><trkpt lat="40.842498845453214" lon="17.057372510041773"><ele>296.0</ele><time>2026-05-01T11:07:31.999Z</time></trkpt><trkpt lat="40.84246532114453" lon="17.057015324820302"><ele>296.0</ele><time>2026-05-01T11:07:32.999Z</time></trkpt><trkpt lat="40.84242819231709" lon="17.0566518852093"><ele>296.5</ele><time>2026-05-01T11:07:33.999Z</time></trkpt><trkpt lat="40.842384456031496" lon="17.056264718826917"><ele>297.0</ele><time>2026-05-01T11:07:34.999Z</time></trkpt><trkpt lat="40.842338723371924" lon="17.055905110612716"><ele>297.0</ele><time>2026-05-01T11:07:35.999Z</time></trkpt><trkpt lat="40.84228296586249" lon="17.055490556317036"><ele>297.0</ele><time>2026-05-01T11:07:36.999Z</time></trkpt><trkpt lat="40.842241955897535" lon="17.055104958328336"><ele>297.0</ele><time>2026-05-01T11:07:37.999Z</time></trkpt><trkpt lat="40.8421726129049" lon="17.054776788255026"><ele>297.0</ele><time>2026-05-01T11:07:38.999Z</time></trkpt><trkpt lat="40.8421209199409" lon="17.05442403781689"><ele>297.5</ele><time>2026-05-01T11:07:39.999Z</time></trkpt><trkpt lat="40.842088507220126" lon="17.05406794701247"><ele>298.0</ele><time>2026-05-01T11:07:40.999Z</time></trkpt><trkpt lat="40.842042127196265" lon="17.053721387354642"><ele>298.0</ele><time>2026-05-01T11:07:41.999Z</time></trkpt><trkpt lat="40.84199525634254" lon="17.05336275090933"><ele>298.0</ele><time>2026-05-01T11:07:42.999Z</time></trkpt><trkpt lat="40.84194705768917" lon="17.0530081684638"><ele>298.5</ele><time>2026-05-01T11:07:43.999Z</time></trkpt><trkpt lat="40.841891291232336" lon="17.05264322732892"><ele>299.0</ele><time>2026-05-01T11:07:44.999Z</time></trkpt><trkpt lat="40.84181862301435" lon="17.052283718385304"><ele>299.0</ele><time>2026-05-01T11:07:45.999Z</time></trkpt><trkpt lat="40.841712654223564" lon="17.051944836513023"><ele>299.0</ele><time>2026-05-01T11:07:46.999Z</time></trkpt><trkpt lat="40.84161452765725" lon="17.051608907924667"><ele>299.5</ele><time>2026-05-01T11:07:47.999Z</time></trkpt><trkpt lat="40.84150735784438" lon="17.051260761021027"><ele>300.0</ele><time>2026-05-01T11:07:48.999Z</time></trkpt><trkpt lat="40.84139244592578" lon="17.05091111025005"><ele>300.0</ele><time>2026-05-01T11:07:49.999Z</time></trkpt><trkpt lat="40.84128273427795" lon="17.050572549760965"><ele>300.0</ele><time>2026-05-01T11:07:50.999Z</time></trkpt><trkpt lat="40.84117643214959" lon="17.050241257653838"><ele>300.0</ele><time>2026-05-01T11:07:51.999Z</time></trkpt><trkpt lat="40.841070580942635" lon="17.04991137084762"><ele>300.0</ele><time>2026-05-01T11:07:52.999Z</time></trkpt><trkpt lat="40.84096833343219" lon="17.049586941970926"><ele>300.5</ele><time>2026-05-01T11:07:53.999Z</time></trkpt><trkpt lat="40.840868593511495" lon="17.04926674249199"><ele>301.0</ele><time>2026-05-01T11:07:54.999Z</time></trkpt><trkpt lat="40.840776614429174" lon="17.048943300881813"><ele>301.0</ele><time>2026-05-01T11:07:55.999Z</time></trkpt><trkpt lat="40.84069378069077" lon="17.048616367445963"><ele>301.0</ele><time>2026-05-01T11:07:56.999Z</time></trkpt><trkpt lat="40.8406271706044" lon="17.04829383131452"><ele>301.5</ele><time>2026-05-01T11:07:57.999Z</time></trkpt><trkpt lat="40.84057402173347" lon="17.04796440574016"><ele>302.0</ele><time>2026-05-01T11:07:58.999Z</time></trkpt><trkpt lat="40.84053247509559" lon="17.047625707520424"><ele>302.5</ele><time>2026-05-01T11:07:59.999Z</time></trkpt><trkpt lat="40.84050185145918" lon="17.04728060002383"><ele>303.0</ele><time>2026-05-01T11:08:00.999Z</time></trkpt><trkpt lat="40.8404945232082" lon="17.046943025721575"><ele>303.5</ele><time>2026-05-01T11:08:01.999Z</time></trkpt><trkpt lat="40.840493850293825" lon="17.04661814316857"><ele>304.0</ele><time>2026-05-01T11:08:02.999Z</time></trkpt><trkpt lat="40.840495358243544" lon="17.046305322074268"><ele>304.0</ele><time>2026-05-01T11:08:03.999Z</time></trkpt><trkpt lat="40.84049710179106" lon="17.045946717011958"><ele>304.0</ele><time>2026-05-01T11:08:04.999Z</time></trkpt><trkpt lat="40.84049955101217" lon="17.04559217574804"><ele>303.0</ele><time>2026-05-01T11:08:05.999Z</time></trkpt><trkpt lat="40.84050200594931" lon="17.045236807238055"><ele>302.0</ele><time>2026-05-01T11:08:06.999Z</time></trkpt><trkpt lat="40.840504461363224" lon="17.04488136961552"><ele>302.0</ele><time>2026-05-01T11:08:07.999Z</time></trkpt><trkpt lat="40.84050691396086" lon="17.044526339490258"><ele>302.0</ele><time>2026-05-01T11:08:08.999Z</time></trkpt><trkpt lat="40.8404936547589" lon="17.044165079315057"><ele>302.0</ele><time>2026-05-01T11:08:09.999Z</time></trkpt><trkpt lat="40.84049664289558" lon="17.043803877916453"><ele>302.0</ele><time>2026-05-01T11:08:10.999Z</time></trkpt><trkpt lat="40.84050092010684" lon="17.043438396074663"><ele>301.5</ele><time>2026-05-01T11:08:11.999Z</time></trkpt><trkpt lat="40.84050158704235" lon="17.043077283006777"><ele>301.0</ele><time>2026-05-01T11:08:12.999Z</time></trkpt><trkpt lat="40.840515711573346" lon="17.042716020514856"><ele>301.0</ele><time>2026-05-01T11:08:13.999Z</time></trkpt><trkpt lat="40.84050157509577" lon="17.042342927366594"><ele>301.0</ele><time>2026-05-01T11:08:14.999Z</time></trkpt><trkpt lat="40.84051980349618" lon="17.041977387971798"><ele>301.0</ele><time>2026-05-01T11:08:15.999Z</time></trkpt><trkpt lat="40.84051113153412" lon="17.041612364726923"><ele>301.0</ele><time>2026-05-01T11:08:16.999Z</time></trkpt><trkpt lat="40.84051564698487" lon="17.04124861295654"><ele>301.0</ele><time>2026-05-01T11:08:17.999Z</time></trkpt><trkpt lat="40.84052113191258" lon="17.040881225570956"><ele>301.0</ele><time>2026-05-01T11:08:18.999Z</time></trkpt><trkpt lat="40.84052065375725" lon="17.04051020233849"><ele>301.0</ele><time>2026-05-01T11:08:19.999Z</time></trkpt><trkpt lat="40.84052501073991" lon="17.040148475875068"><ele>301.0</ele><time>2026-05-01T11:08:20.999Z</time></trkpt><trkpt lat="40.84052914029681" lon="17.039797259045706"><ele>301.0</ele><time>2026-05-01T11:08:21.999Z</time></trkpt><trkpt lat="40.84053466806734" lon="17.03944687876918"><ele>301.0</ele><time>2026-05-01T11:08:22.999Z</time></trkpt><trkpt lat="40.84052499953393" lon="17.03908482559502"><ele>301.5</ele><time>2026-05-01T11:08:23.999Z</time></trkpt><trkpt lat="40.840540640146095" lon="17.03874422117917"><ele>302.0</ele><time>2026-05-01T11:08:24.999Z</time></trkpt><trkpt lat="40.84054156312824" lon="17.038383246812216"><ele>301.5</ele><time>2026-05-01T11:08:25.999Z</time></trkpt><trkpt lat="40.840541124210084" lon="17.038032673110806"><ele>301.0</ele><time>2026-05-01T11:08:26.999Z</time></trkpt><trkpt lat="40.84053333644666" lon="17.03769081729784"><ele>301.0</ele><time>2026-05-01T11:08:27.999Z</time></trkpt><trkpt lat="40.84054295869671" lon="17.03734750656051"><ele>301.0</ele><time>2026-05-01T11:08:28.999Z</time></trkpt><trkpt lat="40.840546823783434" lon="17.037004360556097"><ele>301.0</ele><time>2026-05-01T11:08:29.999Z</time></trkpt><trkpt lat="40.84054743063697" lon="17.03665513702055"><ele>301.0</ele><time>2026-05-01T11:08:30.999Z</time></trkpt><trkpt lat="40.840548496586415" lon="17.036315682571118"><ele>300.0</ele><time>2026-05-01T11:08:31.999Z</time></trkpt><trkpt lat="40.840547582086856" lon="17.035971719652782"><ele>299.0</ele><time>2026-05-01T11:08:32.999Z</time></trkpt><trkpt lat="40.84055758999355" lon="17.035634614337773"><ele>299.0</ele><time>2026-05-01T11:08:33.999Z</time></trkpt><trkpt lat="40.84056662685154" lon="17.035295806406427"><ele>299.0</ele><time>2026-05-01T11:08:34.999Z</time></trkpt><trkpt lat="40.840556372242034" lon="17.034958951849784"><ele>299.0</ele><time>2026-05-01T11:08:35.999Z</time></trkpt><trkpt lat="40.840552106426045" lon="17.034620832527377"><ele>299.0</ele><time>2026-05-01T11:08:36.999Z</time></trkpt><trkpt lat="40.840540169504386" lon="17.034287184217447"><ele>300.5</ele><time>2026-05-01T11:08:37.999Z</time></trkpt><trkpt lat="40.84050761333372" lon="17.033958927836164"><ele>302.0</ele><time>2026-05-01T11:08:38.999Z</time></trkpt><trkpt lat="40.840462014563094" lon="17.03363006983176"><ele>302.0</ele><time>2026-05-01T11:08:39.999Z</time></trkpt><trkpt lat="40.840403469672694" lon="17.033313384970924"><ele>302.0</ele><time>2026-05-01T11:08:40.999Z</time></trkpt><trkpt lat="40.84033606012137" lon="17.033002449568276"><ele>302.5</ele><time>2026-05-01T11:08:41.999Z</time></trkpt><trkpt lat="40.84027831304307" lon="17.032703828976874"><ele>303.0</ele><time>2026-05-01T11:08:43Z</time></trkpt><trkpt lat="40.84020708996436" lon="17.03239861576353"><ele>301.5</ele><time>2026-05-01T11:08:44Z</time></trkpt><trkpt lat="40.84012749582229" lon="17.032082290820238"><ele>300.0</ele><time>2026-05-01T11:08:45Z</time></trkpt><trkpt lat="40.84005419005959" lon="17.031761391866986"><ele>301.0</ele><time>2026-05-01T11:08:46Z</time></trkpt><trkpt lat="40.839983246311576" lon="17.031456457237812"><ele>302.0</ele><time>2026-05-01T11:08:47Z</time></trkpt><trkpt lat="40.83991451545584" lon="17.031154643154217"><ele>302.0</ele><time>2026-05-01T11:08:48Z</time></trkpt><trkpt lat="40.839847711537196" lon="17.03084951483094"><ele>302.0</ele><time>2026-05-01T11:08:49Z</time></trkpt><trkpt lat="40.83978487708605" lon="17.030552016400247"><ele>302.0</ele><time>2026-05-01T11:08:50Z</time></trkpt><trkpt lat="40.83970666519838" lon="17.03024570896489"><ele>302.0</ele><time>2026-05-01T11:08:51Z</time></trkpt><trkpt lat="40.83963342228871" lon="17.029928283731874"><ele>302.5</ele><time>2026-05-01T11:08:52Z</time></trkpt><trkpt lat="40.83956590400463" lon="17.02962335601918"><ele>303.0</ele><time>2026-05-01T11:08:53Z</time></trkpt><trkpt lat="40.83950083373781" lon="17.02932215078206"><ele>302.5</ele><time>2026-05-01T11:08:54Z</time></trkpt><trkpt lat="40.83943358319649" lon="17.029016198268977"><ele>302.0</ele><time>2026-05-01T11:08:55Z</time></trkpt><trkpt lat="40.839370226929795" lon="17.02870273424632"><ele>302.0</ele><time>2026-05-01T11:08:56Z</time></trkpt><trkpt lat="40.83932400059696" lon="17.02838999749161"><ele>302.0</ele><time>2026-05-01T11:08:57Z</time></trkpt><trkpt lat="40.8392952201238" lon="17.028068513855914"><ele>302.0</ele><time>2026-05-01T11:08:58Z</time></trkpt><trkpt lat="40.839297618651855" lon="17.02776384703708"><ele>302.0</ele><time>2026-05-01T11:08:59Z</time></trkpt><trkpt lat="40.8393048408232" lon="17.0274470387297"><ele>302.0</ele><time>2026-05-01T11:09:00Z</time></trkpt><trkpt lat="40.839323399123415" lon="17.02713003874674"><ele>302.0</ele><time>2026-05-01T11:09:01Z</time></trkpt><trkpt lat="40.83935273820685" lon="17.026808587219797"><ele>302.0</ele><time>2026-05-01T11:09:02Z</time></trkpt><trkpt lat="40.839399074974686" lon="17.026490900733933"><ele>302.0</ele><time>2026-05-01T11:09:03Z</time></trkpt><trkpt lat="40.839458773364356" lon="17.026173951449987"><ele>302.0</ele><time>2026-05-01T11:09:04Z</time></trkpt><trkpt lat="40.839520078858875" lon="17.02585087359774"><ele>302.0</ele><time>2026-05-01T11:09:05Z</time></trkpt><trkpt lat="40.839572053563366" lon="17.02552874806307"><ele>302.5</ele><time>2026-05-01T11:09:06Z</time></trkpt><trkpt lat="40.83961920440735" lon="17.0252029948772"><ele>303.0</ele><time>2026-05-01T11:09:07Z</time></trkpt><trkpt lat="40.839664652566384" lon="17.024878812306707"><ele>303.5</ele><time>2026-05-01T11:09:08Z</time></trkpt><trkpt lat="40.839713288501656" lon="17.024553281892914"><ele>304.0</ele><time>2026-05-01T11:09:09Z</time></trkpt><trkpt lat="40.83976779694338" lon="17.024222860665656"><ele>303.5</ele><time>2026-05-01T11:09:10Z</time></trkpt><trkpt lat="40.83981819244016" lon="17.02389553627023"><ele>303.0</ele><time>2026-05-01T11:09:11Z</time></trkpt><trkpt lat="40.83986722803177" lon="17.023577087527208"><ele>302.5</ele><time>2026-05-01T11:09:12Z</time></trkpt><trkpt lat="40.839920679419656" lon="17.02325488150038"><ele>302.0</ele><time>2026-05-01T11:09:13Z</time></trkpt><trkpt lat="40.839968733082955" lon="17.02293721830081"><ele>302.0</ele><time>2026-05-01T11:09:14Z</time></trkpt><trkpt lat="40.84001962288816" lon="17.022617476874082"><ele>302.0</ele><time>2026-05-01T11:09:15Z</time></trkpt><trkpt lat="40.84007060472387" lon="17.02229456903934"><ele>302.0</ele><time>2026-05-01T11:09:16Z</time></trkpt><trkpt lat="40.84012147339273" lon="17.02197446823004"><ele>302.0</ele><time>2026-05-01T11:09:17Z</time></trkpt><trkpt lat="40.840174972960355" lon="17.02165300998064"><ele>302.0</ele><time>2026-05-01T11:09:18Z</time></trkpt><trkpt lat="40.84022556348263" lon="17.021335894994273"><ele>302.0</ele><time>2026-05-01T11:09:19Z</time></trkpt><trkpt lat="40.84027428424871" lon="17.021017514285173"><ele>302.0</ele><time>2026-05-01T11:09:20Z</time></trkpt><trkpt lat="40.840319421005844" lon="17.020710006002997"><ele>302.0</ele><time>2026-05-01T11:09:21Z</time></trkpt><trkpt lat="40.8403713120632" lon="17.020392482768177"><ele>302.0</ele><time>2026-05-01T11:09:22Z</time></trkpt><trkpt lat="40.84042307919864" lon="17.02006644562675"><ele>302.0</ele><time>2026-05-01T11:09:23Z</time></trkpt><trkpt lat="40.840477926011566" lon="17.019750632327135"><ele>302.0</ele><time>2026-05-01T11:09:24Z</time></trkpt><trkpt lat="40.84052488364894" lon="17.01942864562697"><ele>302.0</ele><time>2026-05-01T11:09:25Z</time></trkpt><trkpt lat="40.8405755308967" lon="17.019103103012444"><ele>302.0</ele><time>2026-05-01T11:09:26Z</time></trkpt><trkpt lat="40.84062722343691" lon="17.018782342247512"><ele>302.0</ele><time>2026-05-01T11:09:27Z</time></trkpt><trkpt lat="40.84067651075922" lon="17.018454058577827"><ele>302.5</ele><time>2026-05-01T11:09:28Z</time></trkpt><trkpt lat="40.8407316498896" lon="17.018145445548825"><ele>303.0</ele><time>2026-05-01T11:09:29Z</time></trkpt><trkpt lat="40.84078374394338" lon="17.01783460948809"><ele>303.0</ele><time>2026-05-01T11:09:30Z</time></trkpt><trkpt lat="40.84082967301724" lon="17.017514807514246"><ele>303.0</ele><time>2026-05-01T11:09:31Z</time></trkpt><trkpt lat="40.840874302130786" lon="17.017215189033315"><ele>303.0</ele><time>2026-05-01T11:09:32Z</time></trkpt><trkpt lat="40.8409260855745" lon="17.01690592304196"><ele>303.0</ele><time>2026-05-01T11:09:33Z</time></trkpt><trkpt lat="40.84096837439666" lon="17.01659573744977"><ele>303.0</ele><time>2026-05-01T11:09:34Z</time></trkpt><trkpt lat="40.84102352752362" lon="17.016289289129077"><ele>303.0</ele><time>2026-05-01T11:09:35Z</time></trkpt><trkpt lat="40.841074270209454" lon="17.015980824890832"><ele>302.5</ele><time>2026-05-01T11:09:36Z</time></trkpt><trkpt lat="40.84112390489071" lon="17.01566984916334"><ele>302.0</ele><time>2026-05-01T11:09:37Z</time></trkpt><trkpt lat="40.84117487623586" lon="17.01535795576702"><ele>302.0</ele><time>2026-05-01T11:09:38Z</time></trkpt><trkpt lat="40.841224353959504" lon="17.0150438891626"><ele>302.0</ele><time>2026-05-01T11:09:39Z</time></trkpt><trkpt lat="40.84127479400816" lon="17.01472839302973"><ele>302.0</ele><time>2026-05-01T11:09:40Z</time></trkpt><trkpt lat="40.84132590297578" lon="17.01441444211175"><ele>302.0</ele><time>2026-05-01T11:09:41Z</time></trkpt><trkpt lat="40.8413701287319" lon="17.01410807903385"><ele>302.0</ele><time>2026-05-01T11:09:42Z</time></trkpt><trkpt lat="40.84142116224543" lon="17.013796235365774"><ele>302.0</ele><time>2026-05-01T11:09:43Z</time></trkpt><trkpt lat="40.84146697501185" lon="17.013489484821687"><ele>302.0</ele><time>2026-05-01T11:09:44Z</time></trkpt><trkpt lat="40.84149116704385" lon="17.013164378379468"><ele>302.0</ele><time>2026-05-01T11:09:45Z</time></trkpt><trkpt lat="40.841513030028764" lon="17.012852233487724"><ele>302.0</ele><time>2026-05-01T11:09:46Z</time></trkpt><trkpt lat="40.8415168975743" lon="17.012519698599373"><ele>302.0</ele><time>2026-05-01T11:09:47Z</time></trkpt><trkpt lat="40.84151595934486" lon="17.012196130252413"><ele>302.5</ele><time>2026-05-01T11:09:48Z</time></trkpt><trkpt lat="40.841513281450396" lon="17.01187003768067"><ele>303.0</ele><time>2026-05-01T11:09:49Z</time></trkpt><trkpt lat="40.84150914879707" lon="17.011542970432657"><ele>303.0</ele><time>2026-05-01T11:09:49.999Z</time></trkpt><trkpt lat="40.84151020793397" lon="17.01121911640603"><ele>303.0</ele><time>2026-05-01T11:09:50.999Z</time></trkpt><trkpt lat="40.84150525967558" lon="17.010879273960054"><ele>303.0</ele><time>2026-05-01T11:09:51.999Z</time></trkpt><trkpt lat="40.841514838520304" lon="17.01059003627095"><ele>303.0</ele><time>2026-05-01T11:09:52.999Z</time></trkpt><trkpt lat="40.84149813336083" lon="17.01027971939345"><ele>303.5</ele><time>2026-05-01T11:09:53.999Z</time></trkpt><trkpt lat="40.84149660644623" lon="17.009971624165004"><ele>304.0</ele><time>2026-05-01T11:09:54.999Z</time></trkpt><trkpt lat="40.84149508935212" lon="17.00965204066153"><ele>304.0</ele><time>2026-05-01T11:09:55.999Z</time></trkpt><trkpt lat="40.84149168515354" lon="17.009325814541658"><ele>304.0</ele><time>2026-05-01T11:09:56.999Z</time></trkpt><trkpt lat="40.8414914942977" lon="17.00899523590657"><ele>303.5</ele><time>2026-05-01T11:09:57.999Z</time></trkpt><trkpt lat="40.841497531235305" lon="17.008660723078464"><ele>303.0</ele><time>2026-05-01T11:09:58.999Z</time></trkpt><trkpt lat="40.84150855557438" lon="17.008337361710804"><ele>302.5</ele><time>2026-05-01T11:09:59.999Z</time></trkpt><trkpt lat="40.84151568666516" lon="17.0080256020959"><ele>302.0</ele><time>2026-05-01T11:10:00.999Z</time></trkpt><trkpt lat="40.84152305385756" lon="17.007700007487987"><ele>301.5</ele><time>2026-05-01T11:10:01.999Z</time></trkpt><trkpt lat="40.84153477065792" lon="17.00737620121785"><ele>301.0</ele><time>2026-05-01T11:10:02.999Z</time></trkpt><trkpt lat="40.84154781757394" lon="17.007054952398597"><ele>301.0</ele><time>2026-05-01T11:10:03.999Z</time></trkpt><trkpt lat="40.84155791590551" lon="17.00672965297323"><ele>301.0</ele><time>2026-05-01T11:10:04.999Z</time></trkpt><trkpt lat="40.841562433267136" lon="17.006400041468847"><ele>301.0</ele><time>2026-05-01T11:10:05.999Z</time></trkpt><trkpt lat="40.84156804662052" lon="17.006077739511117"><ele>301.0</ele><time>2026-05-01T11:10:06.999Z</time></trkpt><trkpt lat="40.841564029918004" lon="17.00574753774679"><ele>301.0</ele><time>2026-05-01T11:10:07.999Z</time></trkpt><trkpt lat="40.84155438222672" lon="17.005420259177047"><ele>301.0</ele><time>2026-05-01T11:10:08.999Z</time></trkpt><trkpt lat="40.841537404477386" lon="17.005095960809758"><ele>301.0</ele><time>2026-05-01T11:10:09.999Z</time></trkpt><trkpt lat="40.841520492478715" lon="17.004773700960058"><ele>301.0</ele><time>2026-05-01T11:10:10.999Z</time></trkpt><trkpt lat="40.841502565656576" lon="17.00445604276657"><ele>300.0</ele><time>2026-05-01T11:10:11.999Z</time></trkpt><trkpt lat="40.84148926627364" lon="17.00414951103251"><ele>299.0</ele><time>2026-05-01T11:10:12.999Z</time></trkpt><trkpt lat="40.84147867235783" lon="17.003842874484445"><ele>299.0</ele><time>2026-05-01T11:10:13.999Z</time></trkpt><trkpt lat="40.84146876602659" lon="17.00352082159016"><ele>299.0</ele><time>2026-05-01T11:10:14.999Z</time></trkpt><trkpt lat="40.8414700409685" lon="17.00321404380263"><ele>299.0</ele><time>2026-05-01T11:10:15.999Z</time></trkpt><trkpt lat="40.84145095687944" lon="17.002871345077214"><ele>299.0</ele><time>2026-05-01T11:10:16.999Z</time></trkpt><trkpt lat="40.84143748429872" lon="17.002512427307497"><ele>298.5</ele><time>2026-05-01T11:10:17.999Z</time></trkpt><trkpt lat="40.84141055791732" lon="17.00219544757316"><ele>298.0</ele><time>2026-05-01T11:10:18.999Z</time></trkpt><trkpt lat="40.841382548729385" lon="17.001854767456376"><ele>297.5</ele><time>2026-05-01T11:10:19.999Z</time></trkpt><trkpt lat="40.841344189314455" lon="17.00151989776348"><ele>297.0</ele><time>2026-05-01T11:10:20.999Z</time></trkpt><trkpt lat="40.84127303244832" lon="17.00117940438072"><ele>297.0</ele><time>2026-05-01T11:10:21.999Z</time></trkpt><trkpt lat="40.84117395719875" lon="17.00084250780569"><ele>297.0</ele><time>2026-05-01T11:10:22.999Z</time></trkpt><trkpt lat="40.841057911891795" lon="17.000531168077103"><ele>298.5</ele><time>2026-05-01T11:10:23.999Z</time></trkpt><trkpt lat="40.84094058281192" lon="17.000223211973307"><ele>300.0</ele><time>2026-05-01T11:10:24.999Z</time></trkpt><trkpt lat="40.84081880246223" lon="16.999917519339995"><ele>300.0</ele><time>2026-05-01T11:10:25.999Z</time></trkpt><trkpt lat="40.840703920605534" lon="16.999615813423453"><ele>300.0</ele><time>2026-05-01T11:10:26.999Z</time></trkpt><trkpt lat="40.84058962178285" lon="16.999314308082713"><ele>299.5</ele><time>2026-05-01T11:10:27.999Z</time></trkpt><trkpt lat="40.84047335674064" lon="16.99901138202154"><ele>299.0</ele><time>2026-05-01T11:10:28.999Z</time></trkpt><trkpt lat="40.840354388195934" lon="16.998701495245488"><ele>299.0</ele><time>2026-05-01T11:10:29.999Z</time></trkpt><trkpt lat="40.84024463841306" lon="16.998390044227158"><ele>299.0</ele><time>2026-05-01T11:10:30.999Z</time></trkpt><trkpt lat="40.84013011120045" lon="16.99808607397237"><ele>299.5</ele><time>2026-05-01T11:10:31.999Z</time></trkpt><trkpt lat="40.84001311964197" lon="16.997776788159275"><ele>300.0</ele><time>2026-05-01T11:10:32.999Z</time></trkpt><trkpt lat="40.83988890764054" lon="16.997457308045433"><ele>300.0</ele><time>2026-05-01T11:10:33.999Z</time></trkpt><trkpt lat="40.839772314060255" lon="16.99714158183605"><ele>300.0</ele><time>2026-05-01T11:10:34.999Z</time></trkpt><trkpt lat="40.83967402661904" lon="16.996815334567348"><ele>299.5</ele><time>2026-05-01T11:10:35.999Z</time></trkpt><trkpt lat="40.83960908058369" lon="16.99648577863562"><ele>299.0</ele><time>2026-05-01T11:10:36.999Z</time></trkpt><trkpt lat="40.839538630793676" lon="16.996165021001048"><ele>299.0</ele><time>2026-05-01T11:10:37.999Z</time></trkpt><trkpt lat="40.839486605910466" lon="16.99584307210401"><ele>299.0</ele><time>2026-05-01T11:10:38.999Z</time></trkpt><trkpt lat="40.839437670052504" lon="16.995512023149246"><ele>300.0</ele><time>2026-05-01T11:10:39.999Z</time></trkpt><trkpt lat="40.83938478028916" lon="16.995183548082412"><ele>301.0</ele><time>2026-05-01T11:10:40.999Z</time></trkpt><trkpt lat="40.83934272014602" lon="16.99485427305939"><ele>301.5</ele><time>2026-05-01T11:10:41.999Z</time></trkpt><trkpt lat="40.83929222040165" lon="16.994521985815297"><ele>302.0</ele><time>2026-05-01T11:10:42.999Z</time></trkpt><trkpt lat="40.839242884237784" lon="16.99419155029058"><ele>303.5</ele><time>2026-05-01T11:10:43.999Z</time></trkpt><trkpt lat="40.83919456989386" lon="16.99386111544225"><ele>305.0</ele><time>2026-05-01T11:10:44.999Z</time></trkpt><trkpt lat="40.83914610283688" lon="16.993524704489086"><ele>306.0</ele><time>2026-05-01T11:10:45.999Z</time></trkpt><trkpt lat="40.83909825807459" lon="16.99319578084558"><ele>307.0</ele><time>2026-05-01T11:10:46.999Z</time></trkpt><trkpt lat="40.83905104944672" lon="16.99287208792716"><ele>307.0</ele><time>2026-05-01T11:10:47.999Z</time></trkpt><trkpt lat="40.8389967487714" lon="16.992530320915293"><ele>307.0</ele><time>2026-05-01T11:10:49Z</time></trkpt><trkpt lat="40.838949004556824" lon="16.992194035155325"><ele>307.0</ele><time>2026-05-01T11:10:50Z</time></trkpt><trkpt lat="40.83890516004636" lon="16.99185629824887"><ele>307.0</ele><time>2026-05-01T11:10:51Z</time></trkpt><trkpt lat="40.83886467849705" lon="16.99152889657925"><ele>308.0</ele><time>2026-05-01T11:10:52Z</time></trkpt><trkpt lat="40.838823938970926" lon="16.991199024229157"><ele>309.0</ele><time>2026-05-01T11:10:53Z</time></trkpt><trkpt lat="40.83877837190867" lon="16.99087931852753"><ele>309.0</ele><time>2026-05-01T11:10:54Z</time></trkpt><trkpt lat="40.838729741886596" lon="16.99056946999387"><ele>309.0</ele><time>2026-05-01T11:10:55Z</time></trkpt><trkpt lat="40.83868505265993" lon="16.990248634576684"><ele>308.0</ele><time>2026-05-01T11:10:56Z</time></trkpt><trkpt lat="40.83864235914149" lon="16.98992708529182"><ele>307.0</ele><time>2026-05-01T11:10:57Z</time></trkpt><trkpt lat="40.83859864319967" lon="16.98960407471941"><ele>307.0</ele><time>2026-05-01T11:10:58Z</time></trkpt><trkpt lat="40.8385484680855" lon="16.989262588448693"><ele>307.0</ele><time>2026-05-01T11:10:59Z</time></trkpt><trkpt lat="40.8384932526885" lon="16.988875543723722"><ele>307.5</ele><time>2026-05-01T11:11:00Z</time></trkpt><trkpt lat="40.838436397257105" lon="16.988447701573612"><ele>308.0</ele><time>2026-05-01T11:11:01Z</time></trkpt><trkpt lat="40.83838282526603" lon="16.98800568172997"><ele>308.0</ele><time>2026-05-01T11:11:02Z</time></trkpt><trkpt lat="40.838369254315644" lon="16.987531058167086"><ele>308.0</ele><time>2026-05-01T11:11:03Z</time></trkpt><trkpt lat="40.83838277562606" lon="16.987020092887967"><ele>309.0</ele><time>2026-05-01T11:11:04Z</time></trkpt><trkpt lat="40.838377853780194" lon="16.986487780980664"><ele>310.0</ele><time>2026-05-01T11:11:05Z</time></trkpt><trkpt lat="40.83836124858614" lon="16.985952526794904"><ele>309.5</ele><time>2026-05-01T11:11:06Z</time></trkpt><trkpt lat="40.83835203590392" lon="16.985453172110542"><ele>309.0</ele><time>2026-05-01T11:11:07Z</time></trkpt><trkpt lat="40.838344503861386" lon="16.98497690136342"><ele>310.0</ele><time>2026-05-01T11:11:08Z</time></trkpt><trkpt lat="40.838314311622156" lon="16.984532348597657"><ele>311.0</ele><time>2026-05-01T11:11:09Z</time></trkpt><trkpt lat="40.838244704595446" lon="16.984091186356725"><ele>311.5</ele><time>2026-05-01T11:11:10Z</time></trkpt><trkpt lat="40.83813694411199" lon="16.983676105801568"><ele>312.0</ele><time>2026-05-01T11:11:11Z</time></trkpt><trkpt lat="40.83798466329855" lon="16.98329167635472"><ele>312.5</ele><time>2026-05-01T11:11:12Z</time></trkpt><trkpt lat="40.83778721783438" lon="16.982899023454472"><ele>313.0</ele><time>2026-05-01T11:11:13Z</time></trkpt><trkpt lat="40.837554264771796" lon="16.982499843790727"><ele>317.0</ele><time>2026-05-01T11:11:14Z</time></trkpt><trkpt lat="40.83731271598011" lon="16.982093727501088"><ele>321.0</ele><time>2026-05-01T11:11:15Z</time></trkpt><trkpt lat="40.83708428795076" lon="16.98167625822027"><ele>321.5</ele><time>2026-05-01T11:11:16Z</time></trkpt><trkpt lat="40.8368822833135" lon="16.981260735938758"><ele>322.0</ele><time>2026-05-01T11:11:17Z</time></trkpt><trkpt lat="40.83668170167532" lon="16.98080275694997"><ele>326.0</ele><time>2026-05-01T11:11:18Z</time></trkpt><trkpt lat="40.836515490728445" lon="16.98033078574046"><ele>330.0</ele><time>2026-05-01T11:11:19Z</time></trkpt><trkpt lat="40.83634903615498" lon="16.979868182960395"><ele>330.0</ele><time>2026-05-01T11:11:20Z</time></trkpt><trkpt lat="40.83620374866547" lon="16.97939838034458"><ele>330.0</ele><time>2026-05-01T11:11:21Z</time></trkpt><trkpt lat="40.836032148665154" lon="16.978941327258603"><ele>334.0</ele><time>2026-05-01T11:11:22Z</time></trkpt><trkpt lat="40.835913829320326" lon="16.978496512550564"><ele>338.0</ele><time>2026-05-01T11:11:23Z</time></trkpt><trkpt lat="40.835849556222186" lon="16.97808549713249"><ele>338.0</ele><time>2026-05-01T11:11:24Z</time></trkpt><trkpt lat="40.83576219833743" lon="16.977710466081053"><ele>338.0</ele><time>2026-05-01T11:11:25Z</time></trkpt><trkpt lat="40.83560878855125" lon="16.977519890482245"><ele>336.0</ele><time>2026-05-01T11:11:26Z</time></trkpt><trkpt lat="40.835408137722304" lon="16.977218593881684"><ele>334.0</ele><time>2026-05-01T11:11:27Z</time></trkpt><trkpt lat="40.83527681564169" lon="16.976924763686455"><ele>336.5</ele><time>2026-05-01T11:11:28Z</time></trkpt><trkpt lat="40.83509790757405" lon="16.976717393869723"><ele>339.0</ele><time>2026-05-01T11:11:29Z</time></trkpt><trkpt lat="40.834874776803936" lon="16.976562648486446"><ele>339.0</ele><time>2026-05-01T11:11:30Z</time></trkpt><trkpt lat="40.83458291084291" lon="16.97643785450632"><ele>339.0</ele><time>2026-05-01T11:11:31Z</time></trkpt><trkpt lat="40.83424948437197" lon="16.97640581106718"><ele>339.0</ele><time>2026-05-01T11:11:32Z</time></trkpt><trkpt lat="40.83383866906838" lon="16.97648791899478"><ele>339.0</ele><time>2026-05-01T11:11:33Z</time></trkpt><trkpt lat="40.83342997687728" lon="16.97651214746788"><ele>340.5</ele><time>2026-05-01T11:11:34Z</time></trkpt><trkpt lat="40.83308394851829" lon="16.976779196143198"><ele>342.0</ele><time>2026-05-01T11:11:35Z</time></trkpt><trkpt lat="40.83274467772998" lon="16.97674868375111"><ele>340.0</ele><time>2026-05-01T11:11:36Z</time></trkpt><trkpt lat="40.832380584606426" lon="16.976456431744108"><ele>338.0</ele><time>2026-05-01T11:11:37Z</time></trkpt><trkpt lat="40.83202596063691" lon="16.97641032254233"><ele>339.5</ele><time>2026-05-01T11:11:38Z</time></trkpt><trkpt lat="40.83162070783237" lon="16.97630842633175"><ele>341.0</ele><time>2026-05-01T11:11:39Z</time></trkpt><trkpt lat="40.83126984395285" lon="16.976191770474585"><ele>341.0</ele><time>2026-05-01T11:11:40Z</time></trkpt><trkpt lat="40.830987961402826" lon="16.976091271987773"><ele>341.0</ele><time>2026-05-01T11:11:41Z</time></trkpt><trkpt lat="40.83073875078575" lon="16.975972754263587"><ele>342.0</ele><time>2026-05-01T11:11:42Z</time></trkpt><trkpt lat="40.83061415849121" lon="16.97572543408801"><ele>343.0</ele><time>2026-05-01T11:11:43Z</time></trkpt><trkpt lat="40.83044352421066" lon="16.975443739363083"><ele>343.0</ele><time>2026-05-01T11:11:44Z</time></trkpt><trkpt lat="40.83026202999924" lon="16.975106138289924"><ele>343.0</ele><time>2026-05-01T11:11:45Z</time></trkpt><trkpt lat="40.83013552819783" lon="16.97475640982306"><ele>347.5</ele><time>2026-05-01T11:11:46Z</time></trkpt><trkpt lat="40.83013277820153" lon="16.974419148276795"><ele>352.0</ele><time>2026-05-01T11:11:47Z</time></trkpt><trkpt lat="40.830109327243775" lon="16.97404496896685"><ele>354.0</ele><time>2026-05-01T11:11:48Z</time></trkpt><trkpt lat="40.83009154983585" lon="16.973609907799"><ele>356.0</ele><time>2026-05-01T11:11:49Z</time></trkpt><trkpt lat="40.83006098410531" lon="16.973182339722623"><ele>357.5</ele><time>2026-05-01T11:11:50Z</time></trkpt><trkpt lat="40.82998863369563" lon="16.97273416689137"><ele>359.0</ele><time>2026-05-01T11:11:51Z</time></trkpt><trkpt lat="40.82987239637641" lon="16.972260536017743"><ele>360.5</ele><time>2026-05-01T11:11:52Z</time></trkpt><trkpt lat="40.82971083038275" lon="16.97179051108547"><ele>362.0</ele><time>2026-05-01T11:11:53Z</time></trkpt><trkpt lat="40.829573602373635" lon="16.971291835619958"><ele>363.0</ele><time>2026-05-01T11:11:54Z</time></trkpt><trkpt lat="40.8294150735878" lon="16.97079620650812"><ele>364.0</ele><time>2026-05-01T11:11:55Z</time></trkpt><trkpt lat="40.829227107737765" lon="16.970300780820885"><ele>362.0</ele><time>2026-05-01T11:11:56Z</time></trkpt><trkpt lat="40.829030711670086" lon="16.969779726730792"><ele>360.0</ele><time>2026-05-01T11:11:57Z</time></trkpt><trkpt lat="40.82878932967944" lon="16.969256869754314"><ele>356.0</ele><time>2026-05-01T11:11:57.999Z</time></trkpt><trkpt lat="40.82853008576228" lon="16.968701255117768"><ele>350.0</ele><time>2026-05-01T11:11:58.999Z</time></trkpt><trkpt lat="40.82828573467375" lon="16.968139536684244"><ele>350.0</ele><time>2026-05-01T11:11:59.999Z</time></trkpt><trkpt lat="40.828047477788125" lon="16.967578617858567"><ele>349.0</ele><time>2026-05-01T11:12:00.999Z</time></trkpt><trkpt lat="40.82779801939436" lon="16.96707450156201"><ele>348.5</ele><time>2026-05-01T11:12:01.999Z</time></trkpt><trkpt lat="40.827581415631506" lon="16.966637725304533"><ele>348.0</ele><time>2026-05-01T11:12:02.999Z</time></trkpt><trkpt lat="40.82735610733008" lon="16.96627196088189"><ele>348.0</ele><time>2026-05-01T11:12:03.999Z</time></trkpt><trkpt lat="40.82715882200828" lon="16.965873631415242"><ele>348.0</ele><time>2026-05-01T11:12:04.999Z</time></trkpt><trkpt lat="40.82697148585095" lon="16.965548364846338"><ele>347.0</ele><time>2026-05-01T11:12:05.999Z</time></trkpt><trkpt lat="40.82681583808551" lon="16.965204864776712"><ele>346.0</ele><time>2026-05-01T11:12:06.999Z</time></trkpt><trkpt lat="40.82664933812303" lon="16.964905159236437"><ele>345.5</ele><time>2026-05-01T11:12:07.999Z</time></trkpt><trkpt lat="40.826497673637" lon="16.9646050112753"><ele>345.0</ele><time>2026-05-01T11:12:08.999Z</time></trkpt><trkpt lat="40.82633982005975" lon="16.96432188835388"><ele>345.0</ele><time>2026-05-01T11:12:09.999Z</time></trkpt><trkpt lat="40.826190564907826" lon="16.964007228018765"><ele>345.0</ele><time>2026-05-01T11:12:10.999Z</time></trkpt><trkpt lat="40.82602579919882" lon="16.9636884895145"><ele>345.5</ele><time>2026-05-01T11:12:11.999Z</time></trkpt><trkpt lat="40.82586365718762" lon="16.963374827466673"><ele>346.0</ele><time>2026-05-01T11:12:12.999Z</time></trkpt><trkpt lat="40.825719198820494" lon="16.96310696077083"><ele>346.0</ele><time>2026-05-01T11:12:13.999Z</time></trkpt><trkpt lat="40.82555890323963" lon="16.962758484911447"><ele>346.0</ele><time>2026-05-01T11:12:14.999Z</time></trkpt><trkpt lat="40.82542436787781" lon="16.962478944918548"><ele>346.0</ele><time>2026-05-01T11:12:15.999Z</time></trkpt><trkpt lat="40.82528414044596" lon="16.962178058132032"><ele>346.0</ele><time>2026-05-01T11:12:16.999Z</time></trkpt><trkpt lat="40.82515115615234" lon="16.961873056008994"><ele>345.5</ele><time>2026-05-01T11:12:17.999Z</time></trkpt><trkpt lat="40.82501590557865" lon="16.961589735530023"><ele>345.0</ele><time>2026-05-01T11:12:18.999Z</time></trkpt><trkpt lat="40.824915935836074" lon="16.961283489523325"><ele>345.0</ele><time>2026-05-01T11:12:19.999Z</time></trkpt><trkpt lat="40.824794237039846" lon="16.96100979543621"><ele>345.0</ele><time>2026-05-01T11:12:20.999Z</time></trkpt><trkpt lat="40.82469936694457" lon="16.96074620914454"><ele>345.0</ele><time>2026-05-01T11:12:21.999Z</time></trkpt><trkpt lat="40.8246044034066" lon="16.960495872480795"><ele>345.0</ele><time>2026-05-01T11:12:22.999Z</time></trkpt><trkpt lat="40.82450854166273" lon="16.960247770905372"><ele>345.0</ele><time>2026-05-01T11:12:23.999Z</time></trkpt><trkpt lat="40.824408879524036" lon="16.959974966141868"><ele>343.0</ele><time>2026-05-01T11:12:24.999Z</time></trkpt><trkpt lat="40.82428996140422" lon="16.959711657438785"><ele>341.0</ele><time>2026-05-01T11:12:25.999Z</time></trkpt><trkpt lat="40.82414227851645" lon="16.959451835720767"><ele>341.0</ele><time>2026-05-01T11:12:26.999Z</time></trkpt><trkpt lat="40.82397296853696" lon="16.959199357531276"><ele>341.0</ele><time>2026-05-01T11:12:27.999Z</time></trkpt><trkpt lat="40.82380498437725" lon="16.958961544678967"><ele>341.0</ele><time>2026-05-01T11:12:28.999Z</time></trkpt><trkpt lat="40.82365598084574" lon="16.95874042827961"><ele>341.0</ele><time>2026-05-01T11:12:29.999Z</time></trkpt><trkpt lat="40.82350553371265" lon="16.95853748566372"><ele>341.0</ele><time>2026-05-01T11:12:30.999Z</time></trkpt><trkpt lat="40.82335993405339" lon="16.958340368762286"><ele>340.0</ele><time>2026-05-01T11:12:31.999Z</time></trkpt><trkpt lat="40.82321592598877" lon="16.95810515531542"><ele>339.0</ele><time>2026-05-01T11:12:32.999Z</time></trkpt><trkpt lat="40.82304046874235" lon="16.957853010898607"><ele>339.0</ele><time>2026-05-01T11:12:33.999Z</time></trkpt><trkpt lat="40.82287574431541" lon="16.957581427738383"><ele>339.0</ele><time>2026-05-01T11:12:34.999Z</time></trkpt><trkpt lat="40.82274912908427" lon="16.95731202411563"><ele>338.5</ele><time>2026-05-01T11:12:35.999Z</time></trkpt><trkpt lat="40.82263128455678" lon="16.956995287616706"><ele>338.0</ele><time>2026-05-01T11:12:36.999Z</time></trkpt><trkpt lat="40.82252881563307" lon="16.95665461207298"><ele>337.5</ele><time>2026-05-01T11:12:37.999Z</time></trkpt><trkpt lat="40.82244008161841" lon="16.956331078324496"><ele>337.0</ele><time>2026-05-01T11:12:38.999Z</time></trkpt><trkpt lat="40.82234902348098" lon="16.956007099485756"><ele>337.0</ele><time>2026-05-01T11:12:39.999Z</time></trkpt><trkpt lat="40.82226122443157" lon="16.955701359873267"><ele>337.0</ele><time>2026-05-01T11:12:40.999Z</time></trkpt><trkpt lat="40.82216670312624" lon="16.955375973275366"><ele>337.0</ele><time>2026-05-01T11:12:41.999Z</time></trkpt><trkpt lat="40.82207143821813" lon="16.95507010578309"><ele>337.0</ele><time>2026-05-01T11:12:42.999Z</time></trkpt><trkpt lat="40.821955934738284" lon="16.954767663140082"><ele>336.5</ele><time>2026-05-01T11:12:43.999Z</time></trkpt><trkpt lat="40.82186925052213" lon="16.95447409432785"><ele>336.0</ele><time>2026-05-01T11:12:44.999Z</time></trkpt><trkpt lat="40.82177387201619" lon="16.954208436438705"><ele>335.5</ele><time>2026-05-01T11:12:45.999Z</time></trkpt><trkpt lat="40.82166495050163" lon="16.953917593283528"><ele>335.0</ele><time>2026-05-01T11:12:46.999Z</time></trkpt><trkpt lat="40.82156445804652" lon="16.953652052454668"><ele>335.0</ele><time>2026-05-01T11:12:47.999Z</time></trkpt><trkpt lat="40.821463138520784" lon="16.953378997162368"><ele>335.0</ele><time>2026-05-01T11:12:48.999Z</time></trkpt><trkpt lat="40.82136850931046" lon="16.953123972217274"><ele>335.0</ele><time>2026-05-01T11:12:49.999Z</time></trkpt><trkpt lat="40.82127459440433" lon="16.952870872318222"><ele>335.5</ele><time>2026-05-01T11:12:50.999Z</time></trkpt><trkpt lat="40.821174401825964" lon="16.952612936517454"><ele>336.0</ele><time>2026-05-01T11:12:51.999Z</time></trkpt><trkpt lat="40.821067572387356" lon="16.95232154605482"><ele>336.0</ele><time>2026-05-01T11:12:52.999Z</time></trkpt><trkpt lat="40.82095916704225" lon="16.95203843813583"><ele>336.0</ele><time>2026-05-01T11:12:53.999Z</time></trkpt><trkpt lat="40.82086334195722" lon="16.95178077839301"><ele>335.6666666666667</ele><time>2026-05-01T11:12:55Z</time></trkpt><trkpt lat="40.82075859914321" lon="16.951509894068447"><ele>335.33333333333337</ele><time>2026-05-01T11:12:56Z</time></trkpt><trkpt lat="40.82066162021895" lon="16.95125493567081"><ele>335.0</ele><time>2026-05-01T11:12:57Z</time></trkpt><trkpt lat="40.820587951266276" lon="16.950988814326273"><ele>335.33333333333337</ele><time>2026-05-01T11:12:58Z</time></trkpt><trkpt lat="40.8204869185903" lon="16.95074878377277"><ele>335.6666666666667</ele><time>2026-05-01T11:12:59Z</time></trkpt><trkpt lat="40.820381973220584" lon="16.950519320302433"><ele>336.0</ele><time>2026-05-01T11:13:00Z</time></trkpt><trkpt lat="40.820263201760476" lon="16.950273764126425"><ele>336.0</ele><time>2026-05-01T11:13:01Z</time></trkpt><trkpt lat="40.820172687142545" lon="16.95000605622481"><ele>336.0</ele><time>2026-05-01T11:13:02Z</time></trkpt><trkpt lat="40.82007992365696" lon="16.94972469618284"><ele>336.0</ele><time>2026-05-01T11:13:03Z</time></trkpt><trkpt lat="40.81997704303651" lon="16.949439535444444"><ele>336.0</ele><time>2026-05-01T11:13:04Z</time></trkpt><trkpt lat="40.81986995758384" lon="16.949151179939744"><ele>335.5</ele><time>2026-05-01T11:13:05Z</time></trkpt><trkpt lat="40.81974931630962" lon="16.948872690449406"><ele>335.0</ele><time>2026-05-01T11:13:06Z</time></trkpt><trkpt lat="40.81961728834517" lon="16.948615173229005"><ele>335.0</ele><time>2026-05-01T11:13:07Z</time></trkpt><trkpt lat="40.81948284759741" lon="16.94836503893281"><ele>335.0</ele><time>2026-05-01T11:13:08Z</time></trkpt><trkpt lat="40.819347986536044" lon="16.948121088053064"><ele>334.6666666666667</ele><time>2026-05-01T11:13:09Z</time></trkpt><trkpt lat="40.81920206947933" lon="16.947880852833336"><ele>334.3333333333333</ele><time>2026-05-01T11:13:10Z</time></trkpt><trkpt lat="40.81907051339239" lon="16.947658654239877"><ele>334.0</ele><time>2026-05-01T11:13:11Z</time></trkpt><trkpt lat="40.81892720245348" lon="16.947421062623786"><ele>334.0</ele><time>2026-05-01T11:13:12Z</time></trkpt><trkpt lat="40.81875571900029" lon="16.947217780823863"><ele>334.0</ele><time>2026-05-01T11:13:13Z</time></trkpt><trkpt lat="40.818598488975674" lon="16.94699965516868"><ele>334.5</ele><time>2026-05-01T11:13:14Z</time></trkpt><trkpt lat="40.81844343180336" lon="16.9467782268447"><ele>335.0</ele><time>2026-05-01T11:13:15Z</time></trkpt><trkpt lat="40.818302058515464" lon="16.94654848142613"><ele>335.0</ele><time>2026-05-01T11:13:16Z</time></trkpt><trkpt lat="40.81817323023292" lon="16.9463199349557"><ele>335.0</ele><time>2026-05-01T11:13:17Z</time></trkpt><trkpt lat="40.81806078775107" lon="16.94606961694211"><ele>335.0</ele><time>2026-05-01T11:13:18Z</time></trkpt><trkpt lat="40.817953839932876" lon="16.945815713801"><ele>335.5</ele><time>2026-05-01T11:13:19Z</time></trkpt><trkpt lat="40.817862595994754" lon="16.945541825891464"><ele>336.0</ele><time>2026-05-01T11:13:20Z</time></trkpt><trkpt lat="40.81777993333323" lon="16.945256408645935"><ele>336.5</ele><time>2026-05-01T11:13:21Z</time></trkpt><trkpt lat="40.81771956744021" lon="16.944959889839453"><ele>337.0</ele><time>2026-05-01T11:13:22Z</time></trkpt><trkpt lat="40.81767558242878" lon="16.944654017638282"><ele>336.0</ele><time>2026-05-01T11:13:23Z</time></trkpt><trkpt lat="40.817647706304065" lon="16.94434134668783"><ele>335.0</ele><time>2026-05-01T11:13:24Z</time></trkpt><trkpt lat="40.81763699721882" lon="16.94404427349316"><ele>335.0</ele><time>2026-05-01T11:13:25Z</time></trkpt><trkpt lat="40.81762403495881" lon="16.94375113732894"><ele>335.0</ele><time>2026-05-01T11:13:26Z</time></trkpt><trkpt lat="40.81760791726531" lon="16.943479104310555"><ele>335.0</ele><time>2026-05-01T11:13:27Z</time></trkpt><trkpt lat="40.81759435942091" lon="16.943224245284153"><ele>335.0</ele><time>2026-05-01T11:13:28Z</time></trkpt><trkpt lat="40.81757155392146" lon="16.94294336994622"><ele>335.0</ele><time>2026-05-01T11:13:29Z</time></trkpt><trkpt lat="40.817556243270836" lon="16.942672797734815"><ele>335.0</ele><time>2026-05-01T11:13:30Z</time></trkpt><trkpt lat="40.81754462972391" lon="16.942428053522825"><ele>335.33333333333337</ele><time>2026-05-01T11:13:31Z</time></trkpt><trkpt lat="40.81753085202121" lon="16.942191382726183"><ele>335.6666666666667</ele><time>2026-05-01T11:13:32Z</time></trkpt><trkpt lat="40.81751550203222" lon="16.94195257874034"><ele>336.0</ele><time>2026-05-01T11:13:33Z</time></trkpt><trkpt lat="40.8174940830932" lon="16.94168912531999"><ele>336.5</ele><time>2026-05-01T11:13:34Z</time></trkpt><trkpt lat="40.81747378535003" lon="16.941402294346123"><ele>337.0</ele><time>2026-05-01T11:13:35Z</time></trkpt><trkpt lat="40.81745856279897" lon="16.941094559495536"><ele>336.5</ele><time>2026-05-01T11:13:36Z</time></trkpt><trkpt lat="40.8174366010008" lon="16.94077699565009"><ele>336.0</ele><time>2026-05-01T11:13:37Z</time></trkpt><trkpt lat="40.81741645199393" lon="16.940449606555838"><ele>336.0</ele><time>2026-05-01T11:13:38Z</time></trkpt><trkpt lat="40.81739882880407" lon="16.940137421276148"><ele>336.0</ele><time>2026-05-01T11:13:39Z</time></trkpt><trkpt lat="40.817385265566394" lon="16.939810860445572"><ele>336.0</ele><time>2026-05-01T11:13:40Z</time></trkpt><trkpt lat="40.817379586349226" lon="16.93955983853633"><ele>336.0</ele><time>2026-05-01T11:13:41Z</time></trkpt><trkpt lat="40.817360011804716" lon="16.93925716267197"><ele>336.0</ele><time>2026-05-01T11:13:42Z</time></trkpt><trkpt lat="40.81734877012511" lon="16.93896918843013"><ele>336.0</ele><time>2026-05-01T11:13:43Z</time></trkpt><trkpt lat="40.81733207127203" lon="16.938697603776617"><ele>336.0</ele><time>2026-05-01T11:13:44Z</time></trkpt><trkpt lat="40.817310331711944" lon="16.93846209235603"><ele>336.0</ele><time>2026-05-01T11:13:45Z</time></trkpt><trkpt lat="40.81728360107645" lon="16.938260327140387"><ele>335.3333333333333</ele><time>2026-05-01T11:13:46Z</time></trkpt><trkpt lat="40.817249112625944" lon="16.93803977260546"><ele>334.66666666666663</ele><time>2026-05-01T11:13:47Z</time></trkpt><trkpt lat="40.817229951359" lon="16.93782764572544"><ele>334.0</ele><time>2026-05-01T11:13:48Z</time></trkpt><trkpt lat="40.81718396783499" lon="16.937683258440558"><ele>334.0</ele><time>2026-05-01T11:13:49Z</time></trkpt><trkpt lat="40.81717862487415" lon="16.93754524275123"><ele>334.0</ele><time>2026-05-01T11:13:50Z</time></trkpt><trkpt lat="40.81719015477544" lon="16.937406923104714"><ele>334.0</ele><time>2026-05-01T11:13:50.999Z</time></trkpt><trkpt lat="40.817175092069974" lon="16.93723568041238"><ele>334.0</ele><time>2026-05-01T11:13:51.999Z</time></trkpt><trkpt lat="40.81718313500429" lon="16.93706507910124"><ele>334.0</ele><time>2026-05-01T11:13:52.999Z</time></trkpt><trkpt lat="40.81719053069668" lon="16.936912890830666"><ele>334.0</ele><time>2026-05-01T11:13:53.999Z</time></trkpt><trkpt lat="40.81715847990977" lon="16.93681770451459"><ele>334.0</ele><time>2026-05-01T11:13:54.999Z</time></trkpt><trkpt lat="40.8171410552058" lon="16.936706324110926"><ele>334.0</ele><time>2026-05-01T11:13:55.999Z</time></trkpt><trkpt lat="40.817042246967006" lon="16.936654268000023"><ele>334.0</ele><time>2026-05-01T11:13:56.999Z</time></trkpt><trkpt lat="40.81691902651086" lon="16.93671589886696"><ele>333.79999999999995</ele><time>2026-05-01T11:13:58.999Z</time></trkpt><trkpt lat="40.81680891506424" lon="16.93666778292389"><ele>333.59999999999997</ele><time>2026-05-01T11:14:00.999Z</time></trkpt><trkpt lat="40.81675709114178" lon="16.936611143798636"><ele>333.4</ele><time>2026-05-01T11:14:01.999Z</time></trkpt><trkpt lat="40.8167067429873" lon="16.93652810946564"><ele>333.2</ele><time>2026-05-01T11:14:02.999Z</time></trkpt><trkpt lat="40.81663450730346" lon="16.936419571170156"><ele>333.0</ele><time>2026-05-01T11:14:04.999Z</time></trkpt><trkpt lat="40.816579254912575" lon="16.936337539939522"><ele>333.0</ele><time>2026-05-01T11:14:06.999Z</time></trkpt><trkpt lat="40.816532635888656" lon="16.936269367338422"><ele>333.0</ele><time>2026-05-01T11:14:08.999Z</time></trkpt><trkpt lat="40.81648122338049" lon="16.936210255024456"><ele>333.0</ele><time>2026-05-01T11:14:10.999Z</time></trkpt><trkpt lat="40.81642604275845" lon="16.93614026406035"><ele>333.0</ele><time>2026-05-01T11:14:13.999Z</time></trkpt><trkpt lat="40.816372335310895" lon="16.936075076928464"><ele>333.0</ele><time>2026-05-01T11:14:17.999Z</time></trkpt><trkpt lat="40.81630251749611" lon="16.93615027809605"><ele>333.0</ele><time>2026-05-01T11:14:27.999Z</time></trkpt><trkpt lat="40.816308335797025" lon="16.936043414611113"><ele>333.0</ele><time>2026-05-01T11:14:39.999Z</time></trkpt><trkpt lat="40.8163834910766" lon="16.93606199985302"><ele>333.0</ele><time>2026-05-01T11:14:42.999Z</time></trkpt><trkpt lat="40.81643653157651" lon="16.9361345737286"><ele>333.0</ele><time>2026-05-01T11:14:44.999Z</time></trkpt><trkpt lat="40.81648044686351" lon="16.936257181658263"><ele>333.0</ele><time>2026-05-01T11:14:46.999Z</time></trkpt><trkpt lat="40.81651177318004" lon="16.936351510907123"><ele>333.0</ele><time>2026-05-01T11:14:47.999Z</time></trkpt><trkpt lat="40.816574696105924" lon="16.93644239916769"><ele>333.0</ele><time>2026-05-01T11:14:48.999Z</time></trkpt><trkpt lat="40.816639802966236" lon="16.93653644956505"><ele>333.0</ele><time>2026-05-01T11:14:49.999Z</time></trkpt><trkpt lat="40.81670065603133" lon="16.93663875873725"><ele>333.0</ele><time>2026-05-01T11:14:50.999Z</time></trkpt><trkpt lat="40.816752513343495" lon="16.93673603513598"><ele>333.0</ele><time>2026-05-01T11:14:51.999Z</time></trkpt><trkpt lat="40.816797792343635" lon="16.936808338764642"><ele>333.0</ele><time>2026-05-01T11:14:52.999Z</time></trkpt><trkpt lat="40.81686275906483" lon="16.936932641628033"><ele>333.0</ele><time>2026-05-01T11:14:54.999Z</time></trkpt><trkpt lat="40.816918436299254" lon="16.937063713463402"><ele>333.1666666666667</ele><time>2026-05-01T11:14:56.999Z</time></trkpt><trkpt lat="40.81695908291554" lon="16.937131181702995"><ele>333.3333333333333</ele><time>2026-05-01T11:14:57.999Z</time></trkpt><trkpt lat="40.81702127968176" lon="16.93718716617397"><ele>333.5</ele><time>2026-05-01T11:14:58.999Z</time></trkpt><trkpt lat="40.81714771011726" lon="16.937143121819833"><ele>333.66666666666663</ele><time>2026-05-01T11:15:01Z</time></trkpt><trkpt lat="40.817184948621126" lon="16.937059604284645"><ele>333.8333333333333</ele><time>2026-05-01T11:15:02Z</time></trkpt><trkpt lat="40.81719164935004" lon="16.936963678148526"><ele>334.0</ele><time>2026-05-01T11:15:03Z</time></trkpt><trkpt lat="40.81715523161516" lon="16.936832630712654"><ele>334.0</ele><time>2026-05-01T11:15:04Z</time></trkpt><trkpt lat="40.817146003195056" lon="16.936694440626376"><ele>334.0</ele><time>2026-05-01T11:15:05Z</time></trkpt><trkpt lat="40.81711688707819" lon="16.936492968721183"><ele>334.0</ele><time>2026-05-01T11:15:06Z</time></trkpt><trkpt lat="40.817086607112465" lon="16.936281716099522"><ele>334.0</ele><time>2026-05-01T11:15:07Z</time></trkpt><trkpt lat="40.81704916380591" lon="16.93604500063058"><ele>334.0</ele><time>2026-05-01T11:15:08Z</time></trkpt><trkpt lat="40.817032549657156" lon="16.935815830423405"><ele>334.0</ele><time>2026-05-01T11:15:09Z</time></trkpt><trkpt lat="40.81700118779582" lon="16.935579579261322"><ele>334.0</ele><time>2026-05-01T11:15:10Z</time></trkpt><trkpt lat="40.81696996885191" lon="16.93534440484282"><ele>334.0</ele><time>2026-05-01T11:15:11Z</time></trkpt><trkpt lat="40.81693981953225" lon="16.93511337785775"><ele>334.0</ele><time>2026-05-01T11:15:12Z</time></trkpt><trkpt lat="40.81690884306492" lon="16.934875640629805"><ele>334.0</ele><time>2026-05-01T11:15:13Z</time></trkpt><trkpt lat="40.816879051131615" lon="16.934648575515933"><ele>333.66666666666663</ele><time>2026-05-01T11:15:14Z</time></trkpt><trkpt lat="40.81684353549385" lon="16.934379937669345"><ele>333.3333333333333</ele><time>2026-05-01T11:15:15Z</time></trkpt><trkpt lat="40.81680804274637" lon="16.934111472072463"><ele>333.0</ele><time>2026-05-01T11:15:16Z</time></trkpt><trkpt lat="40.81676966612917" lon="16.933821193653227"><ele>333.0</ele><time>2026-05-01T11:15:17Z</time></trkpt><trkpt lat="40.81673812619755" lon="16.933575728096965"><ele>333.0</ele><time>2026-05-01T11:15:18Z</time></trkpt><trkpt lat="40.81670714335631" lon="16.93333407839814"><ele>333.0</ele><time>2026-05-01T11:15:19Z</time></trkpt><trkpt lat="40.816679974759765" lon="16.93312217773798"><ele>333.0</ele><time>2026-05-01T11:15:20Z</time></trkpt><trkpt lat="40.81665238622761" lon="16.932907109295105"><ele>333.0</ele><time>2026-05-01T11:15:21Z</time></trkpt><trkpt lat="40.816627071207066" lon="16.932717936315605"><ele>333.0</ele><time>2026-05-01T11:15:22Z</time></trkpt><trkpt lat="40.816605502136" lon="16.932556755759098"><ele>333.0</ele><time>2026-05-01T11:15:23Z</time></trkpt><trkpt lat="40.81658614204319" lon="16.932411741913594"><ele>333.2</ele><time>2026-05-01T11:15:24Z</time></trkpt><trkpt lat="40.816568401401405" lon="16.93228161572816"><ele>333.4</ele><time>2026-05-01T11:15:25Z</time></trkpt><trkpt lat="40.81655129758843" lon="16.93216070947823"><ele>333.59999999999997</ele><time>2026-05-01T11:15:26Z</time></trkpt><trkpt lat="40.81653559900185" lon="16.93205704508225"><ele>333.79999999999995</ele><time>2026-05-01T11:15:27Z</time></trkpt><trkpt lat="40.81658646022733" lon="16.931940429399088"><ele>334.0</ele><time>2026-05-01T11:15:28Z</time></trkpt><trkpt lat="40.81660908089415" lon="16.93183243850221"><ele>334.0</ele><time>2026-05-01T11:15:29Z</time></trkpt><trkpt lat="40.81656567207097" lon="16.931726245725486"><ele>334.0</ele><time>2026-05-01T11:15:30Z</time></trkpt><trkpt lat="40.81651917215125" lon="16.9316142927728"><ele>334.0</ele><time>2026-05-01T11:15:31Z</time></trkpt><trkpt lat="40.81645274383974" lon="16.931495039055502"><ele>334.0</ele><time>2026-05-01T11:15:32Z</time></trkpt><trkpt lat="40.81641069501648" lon="16.931340189982272"><ele>334.0</ele><time>2026-05-01T11:15:33Z</time></trkpt><trkpt lat="40.81642349831401" lon="16.931165270303033"><ele>334.0</ele><time>2026-05-01T11:15:34Z</time></trkpt><trkpt lat="40.81639880688096" lon="16.93098310281407"><ele>334.0</ele><time>2026-05-01T11:15:35Z</time></trkpt><trkpt lat="40.81637036447761" lon="16.930765856200075"><ele>334.0</ele><time>2026-05-01T11:15:36Z</time></trkpt><trkpt lat="40.81633972322053" lon="16.93053181443333"><ele>334.3333333333333</ele><time>2026-05-01T11:15:37Z</time></trkpt><trkpt lat="40.81630817944162" lon="16.930290879048457"><ele>334.6666666666667</ele><time>2026-05-01T11:15:38Z</time></trkpt><trkpt lat="40.816277600679484" lon="16.930057314644664"><ele>335.0</ele><time>2026-05-01T11:15:39Z</time></trkpt><trkpt lat="40.816248610053634" lon="16.929834418416128"><ele>335.0</ele><time>2026-05-01T11:15:40Z</time></trkpt><trkpt lat="40.81621815294352" lon="16.92960311581936"><ele>335.0</ele><time>2026-05-01T11:15:41Z</time></trkpt><trkpt lat="40.816188308831045" lon="16.92937646848133"><ele>335.0</ele><time>2026-05-01T11:15:42Z</time></trkpt><trkpt lat="40.81615768022837" lon="16.929146028291036"><ele>335.0</ele><time>2026-05-01T11:15:43Z</time></trkpt><trkpt lat="40.81612691250162" lon="16.928916081609223"><ele>335.0</ele><time>2026-05-01T11:15:44Z</time></trkpt><trkpt lat="40.81610086227913" lon="16.928721391829008"><ele>335.0</ele><time>2026-05-01T11:15:45Z</time></trkpt><trkpt lat="40.81606352653439" lon="16.928548222634955"><ele>335.0</ele><time>2026-05-01T11:15:46Z</time></trkpt><trkpt lat="40.81603925017804" lon="16.92837755452882"><ele>335.0</ele><time>2026-05-01T11:15:47Z</time></trkpt><trkpt lat="40.81601914476322" lon="16.928215073709307"><ele>335.0</ele><time>2026-05-01T11:15:48Z</time></trkpt><trkpt lat="40.81599514658307" lon="16.92804475392023"><ele>335.0</ele><time>2026-05-01T11:15:49Z</time></trkpt><trkpt lat="40.815972514287544" lon="16.92787317684424"><ele>335.0</ele><time>2026-05-01T11:15:50Z</time></trkpt><trkpt lat="40.81595300908686" lon="16.927730150869618"><ele>335.0</ele><time>2026-05-01T11:15:51Z</time></trkpt><trkpt lat="40.8159474670326" lon="16.92760593392707"><ele>335.0</ele><time>2026-05-01T11:15:52Z</time></trkpt><trkpt lat="40.815956712461826" lon="16.927478184520705"><ele>335.0</ele><time>2026-05-01T11:15:53Z</time></trkpt><trkpt lat="40.816002152673605" lon="16.92734738530221"><ele>335.0</ele><time>2026-05-01T11:15:54Z</time></trkpt><trkpt lat="40.81604640400218" lon="16.927229120957485"><ele>335.2</ele><time>2026-05-01T11:15:55Z</time></trkpt><trkpt lat="40.81607356021533" lon="16.92711624565567"><ele>335.4</ele><time>2026-05-01T11:15:56Z</time></trkpt><trkpt lat="40.816051546963706" lon="16.92700210214616"><ele>335.6</ele><time>2026-05-01T11:15:57Z</time></trkpt><trkpt lat="40.81601103042922" lon="16.926877829526756"><ele>335.8</ele><time>2026-05-01T11:15:58Z</time></trkpt><trkpt lat="40.81593793978815" lon="16.926736004959235"><ele>336.0</ele><time>2026-05-01T11:15:59Z</time></trkpt><trkpt lat="40.815834435571674" lon="16.92657890872056"><ele>336.0</ele><time>2026-05-01T11:16:00Z</time></trkpt><trkpt lat="40.81578456098053" lon="16.926405671261282"><ele>336.0</ele><time>2026-05-01T11:16:01Z</time></trkpt><trkpt lat="40.81574394061422" lon="16.926182306942845"><ele>336.0</ele><time>2026-05-01T11:16:02Z</time></trkpt><trkpt lat="40.81572025938882" lon="16.925927184592194"><ele>335.3333333333333</ele><time>2026-05-01T11:16:02.999Z</time></trkpt><trkpt lat="40.81569054649803" lon="16.92566997717993"><ele>334.66666666666663</ele><time>2026-05-01T11:16:03.999Z</time></trkpt><trkpt lat="40.81565484001553" lon="16.925418903596274"><ele>334.0</ele><time>2026-05-01T11:16:04.999Z</time></trkpt><trkpt lat="40.815628129785274" lon="16.925137751507194"><ele>334.3333333333333</ele><time>2026-05-01T11:16:05.999Z</time></trkpt><trkpt lat="40.81559661338624" lon="16.92489275134475"><ele>334.6666666666667</ele><time>2026-05-01T11:16:06.999Z</time></trkpt><trkpt lat="40.81556455421146" lon="16.924643531940657"><ele>335.0</ele><time>2026-05-01T11:16:07.999Z</time></trkpt><trkpt lat="40.81553054730017" lon="16.924379171296433"><ele>335.0</ele><time>2026-05-01T11:16:08.999Z</time></trkpt><trkpt lat="40.81549387965302" lon="16.924098218711386"><ele>335.0</ele><time>2026-05-01T11:16:09.999Z</time></trkpt><trkpt lat="40.81545547961103" lon="16.923805310649406"><ele>335.0</ele><time>2026-05-01T11:16:10.999Z</time></trkpt><trkpt lat="40.81541275394962" lon="16.923479407664097"><ele>335.5</ele><time>2026-05-01T11:16:11.999Z</time></trkpt><trkpt lat="40.81536774810835" lon="16.923136111828654"><ele>336.0</ele><time>2026-05-01T11:16:12.999Z</time></trkpt><trkpt lat="40.815308328558835" lon="16.922821306408625"><ele>336.0</ele><time>2026-05-01T11:16:13.999Z</time></trkpt><trkpt lat="40.81526074569912" lon="16.922506936016305"><ele>336.0</ele><time>2026-05-01T11:16:14.999Z</time></trkpt><trkpt lat="40.815219841797784" lon="16.922188540583626"><ele>336.0</ele><time>2026-05-01T11:16:15.999Z</time></trkpt><trkpt lat="40.815179997231546" lon="16.921867063897423"><ele>336.0</ele><time>2026-05-01T11:16:16.999Z</time></trkpt><trkpt lat="40.815159496334715" lon="16.921554664943482"><ele>337.0</ele><time>2026-05-01T11:16:17.999Z</time></trkpt><trkpt lat="40.815113735403195" lon="16.921205979961677"><ele>338.0</ele><time>2026-05-01T11:16:18.999Z</time></trkpt><trkpt lat="40.815068774896794" lon="16.920860998544164"><ele>338.0</ele><time>2026-05-01T11:16:19.999Z</time></trkpt><trkpt lat="40.81502639908304" lon="16.920533643884095"><ele>338.0</ele><time>2026-05-01T11:16:20.999Z</time></trkpt><trkpt lat="40.81497978499057" lon="16.92017015707963"><ele>339.0</ele><time>2026-05-01T11:16:21.999Z</time></trkpt><trkpt lat="40.8149268677644" lon="16.91975751807618"><ele>340.0</ele><time>2026-05-01T11:16:22.999Z</time></trkpt><trkpt lat="40.81487162723322" lon="16.91933914661948"><ele>341.0</ele><time>2026-05-01T11:16:23.999Z</time></trkpt><trkpt lat="40.814812799688816" lon="16.918931165087912"><ele>342.0</ele><time>2026-05-01T11:16:24.999Z</time></trkpt><trkpt lat="40.814736006918395" lon="16.91845891205674"><ele>342.0</ele><time>2026-05-01T11:16:25.999Z</time></trkpt><trkpt lat="40.81465180633593" lon="16.918035028128042"><ele>342.0</ele><time>2026-05-01T11:16:26.999Z</time></trkpt><trkpt lat="40.81456469739567" lon="16.91764319207602"><ele>342.0</ele><time>2026-05-01T11:16:27.999Z</time></trkpt><trkpt lat="40.81445334184624" lon="16.917245576848874"><ele>342.0</ele><time>2026-05-01T11:16:28.999Z</time></trkpt><trkpt lat="40.81436797591645" lon="16.916872376926026"><ele>343.5</ele><time>2026-05-01T11:16:29.999Z</time></trkpt><trkpt lat="40.814273555377866" lon="16.916502106085577"><ele>345.0</ele><time>2026-05-01T11:16:30.999Z</time></trkpt><trkpt lat="40.8141790350635" lon="16.916126036444325"><ele>345.0</ele><time>2026-05-01T11:16:31.999Z</time></trkpt><trkpt lat="40.81408075817243" lon="16.915762914607264"><ele>345.0</ele><time>2026-05-01T11:16:32.999Z</time></trkpt><trkpt lat="40.813961747596515" lon="16.91542793007775"><ele>345.0</ele><time>2026-05-01T11:16:33.999Z</time></trkpt><trkpt lat="40.813843693890306" lon="16.915092963240564"><ele>345.0</ele><time>2026-05-01T11:16:34.999Z</time></trkpt><trkpt lat="40.8137028087249" lon="16.914771485990407"><ele>346.5</ele><time>2026-05-01T11:16:35.999Z</time></trkpt><trkpt lat="40.81354106128563" lon="16.914473168654418"><ele>348.0</ele><time>2026-05-01T11:16:36.999Z</time></trkpt><trkpt lat="40.8133802626033" lon="16.91420747341115"><ele>349.5</ele><time>2026-05-01T11:16:37.999Z</time></trkpt><trkpt lat="40.81322252134427" lon="16.913980836052023"><ele>351.0</ele><time>2026-05-01T11:16:38.999Z</time></trkpt><trkpt lat="40.81306802926232" lon="16.913771170175384"><ele>351.0</ele><time>2026-05-01T11:16:39.999Z</time></trkpt><trkpt lat="40.8129011151088" lon="16.913563373973115"><ele>351.0</ele><time>2026-05-01T11:16:40.999Z</time></trkpt><trkpt lat="40.81271446348128" lon="16.91335397454494"><ele>352.0</ele><time>2026-05-01T11:16:41.999Z</time></trkpt><trkpt lat="40.81253221431855" lon="16.913120448322577"><ele>353.0</ele><time>2026-05-01T11:16:42.999Z</time></trkpt><trkpt lat="40.81232948702458" lon="16.91289473047089"><ele>353.0</ele><time>2026-05-01T11:16:43.999Z</time></trkpt><trkpt lat="40.812118770489306" lon="16.91266390603194"><ele>353.0</ele><time>2026-05-01T11:16:44.999Z</time></trkpt><trkpt lat="40.811905322212965" lon="16.912438958329215"><ele>353.0</ele><time>2026-05-01T11:16:45.999Z</time></trkpt><trkpt lat="40.81167597825185" lon="16.912209132276608"><ele>353.0</ele><time>2026-05-01T11:16:46.999Z</time></trkpt><trkpt lat="40.81144408871299" lon="16.911973442391297"><ele>353.0</ele><time>2026-05-01T11:16:47.999Z</time></trkpt><trkpt lat="40.811202273208586" lon="16.911761551561362"><ele>353.0</ele><time>2026-05-01T11:16:48.999Z</time></trkpt><trkpt lat="40.81094606949657" lon="16.911554299061304"><ele>352.5</ele><time>2026-05-01T11:16:49.999Z</time></trkpt><trkpt lat="40.81067594976161" lon="16.911364322669936"><ele>352.0</ele><time>2026-05-01T11:16:50.999Z</time></trkpt><trkpt lat="40.81040753571944" lon="16.911171755886834"><ele>352.0</ele><time>2026-05-01T11:16:51.999Z</time></trkpt><trkpt lat="40.810166926661424" lon="16.9109875700956"><ele>352.0</ele><time>2026-05-01T11:16:52.999Z</time></trkpt><trkpt lat="40.80993199709087" lon="16.910820059119455"><ele>352.5</ele><time>2026-05-01T11:16:53.999Z</time></trkpt><trkpt lat="40.80969033730661" lon="16.91064774930079"><ele>353.0</ele><time>2026-05-01T11:16:54.999Z</time></trkpt><trkpt lat="40.80943471162708" lon="16.91046548178265"><ele>354.0</ele><time>2026-05-01T11:16:55.999Z</time></trkpt><trkpt lat="40.80918846613512" lon="16.9102938206375"><ele>355.0</ele><time>2026-05-01T11:16:56.999Z</time></trkpt><trkpt lat="40.808976882682266" lon="16.91013904094853"><ele>354.5</ele><time>2026-05-01T11:16:57.999Z</time></trkpt><trkpt lat="40.80875353162777" lon="16.910023821593636"><ele>354.0</ele><time>2026-05-01T11:16:58.999Z</time></trkpt><trkpt lat="40.808556861853624" lon="16.909870458232202"><ele>355.0</ele><time>2026-05-01T11:16:59.999Z</time></trkpt><trkpt lat="40.8083475960873" lon="16.909718855072782"><ele>356.0</ele><time>2026-05-01T11:17:00.999Z</time></trkpt><trkpt lat="40.80812682277467" lon="16.909562644304504"><ele>356.0</ele><time>2026-05-01T11:17:01.999Z</time></trkpt><trkpt lat="40.807908479304935" lon="16.90940497691824"><ele>356.0</ele><time>2026-05-01T11:17:02.999Z</time></trkpt><trkpt lat="40.807691842591076" lon="16.909248948698426"><ele>355.5</ele><time>2026-05-01T11:17:03.999Z</time></trkpt><trkpt lat="40.80746861703593" lon="16.909087094624486"><ele>355.0</ele><time>2026-05-01T11:17:04.999Z</time></trkpt><trkpt lat="40.80723062423036" lon="16.908921162481995"><ele>355.0</ele><time>2026-05-01T11:17:05.999Z</time></trkpt><trkpt lat="40.80698084847804" lon="16.908752962784703"><ele>355.0</ele><time>2026-05-01T11:17:07Z</time></trkpt><trkpt lat="40.806714373729996" lon="16.908600462837203"><ele>354.0</ele><time>2026-05-01T11:17:08Z</time></trkpt><trkpt lat="40.806438582431035" lon="16.908462368925875"><ele>353.0</ele><time>2026-05-01T11:17:09Z</time></trkpt><trkpt lat="40.80615734872799" lon="16.90832325160608"><ele>353.5</ele><time>2026-05-01T11:17:10Z</time></trkpt><trkpt lat="40.80586606270108" lon="16.908198608083026"><ele>354.0</ele><time>2026-05-01T11:17:11Z</time></trkpt><trkpt lat="40.80556573043817" lon="16.908079803833587"><ele>354.0</ele><time>2026-05-01T11:17:12Z</time></trkpt><trkpt lat="40.80525604598484" lon="16.90796917728049"><ele>354.0</ele><time>2026-05-01T11:17:13Z</time></trkpt><trkpt lat="40.80496097030946" lon="16.90790799428855"><ele>355.0</ele><time>2026-05-01T11:17:14Z</time></trkpt><trkpt lat="40.80467857987197" lon="16.90783938350064"><ele>356.0</ele><time>2026-05-01T11:17:15Z</time></trkpt><trkpt lat="40.80439876474923" lon="16.907761031718014"><ele>356.5</ele><time>2026-05-01T11:17:16Z</time></trkpt><trkpt lat="40.80413736692541" lon="16.907692634285635"><ele>357.0</ele><time>2026-05-01T11:17:17Z</time></trkpt><trkpt lat="40.80388141799284" lon="16.90762721907725"><ele>357.0</ele><time>2026-05-01T11:17:18Z</time></trkpt><trkpt lat="40.80364011636667" lon="16.907558953646305"><ele>357.0</ele><time>2026-05-01T11:17:19Z</time></trkpt><trkpt lat="40.80339258830552" lon="16.90749477137961"><ele>357.0</ele><time>2026-05-01T11:17:20Z</time></trkpt><trkpt lat="40.8031530545948" lon="16.90743729721944"><ele>357.0</ele><time>2026-05-01T11:17:21Z</time></trkpt><trkpt lat="40.80292350163177" lon="16.907373888591092"><ele>357.0</ele><time>2026-05-01T11:17:22Z</time></trkpt><trkpt lat="40.80271003622988" lon="16.907311725221476"><ele>357.0</ele><time>2026-05-01T11:17:23Z</time></trkpt><trkpt lat="40.80249212917693" lon="16.907240895679518"><ele>357.0</ele><time>2026-05-01T11:17:24Z</time></trkpt><trkpt lat="40.80229213106284" lon="16.907172327536564"><ele>357.0</ele><time>2026-05-01T11:17:25Z</time></trkpt><trkpt lat="40.802094950606524" lon="16.90711673829712"><ele>357.0</ele><time>2026-05-01T11:17:26Z</time></trkpt><trkpt lat="40.801885194746504" lon="16.907059899756455"><ele>357.0</ele><time>2026-05-01T11:17:27Z</time></trkpt><trkpt lat="40.80168318700731" lon="16.907004380010616"><ele>357.0</ele><time>2026-05-01T11:17:28Z</time></trkpt><trkpt lat="40.80150384079479" lon="16.90694834205934"><ele>357.0</ele><time>2026-05-01T11:17:29Z</time></trkpt><trkpt lat="40.80133277209634" lon="16.906886268607852"><ele>357.0</ele><time>2026-05-01T11:17:30Z</time></trkpt><trkpt lat="40.801150968197405" lon="16.90683951034114"><ele>357.6666666666667</ele><time>2026-05-01T11:17:31Z</time></trkpt><trkpt lat="40.80094228344844" lon="16.90679100812053"><ele>358.33333333333337</ele><time>2026-05-01T11:17:32Z</time></trkpt><trkpt lat="40.80075392502424" lon="16.90674051233171"><ele>359.0</ele><time>2026-05-01T11:17:33Z</time></trkpt><trkpt lat="40.8005551394856" lon="16.90669487437076"><ele>359.0</ele><time>2026-05-01T11:17:34Z</time></trkpt><trkpt lat="40.800389942404806" lon="16.906654564186802"><ele>359.0</ele><time>2026-05-01T11:17:35Z</time></trkpt><trkpt lat="40.800234663993024" lon="16.906597311928824"><ele>359.0</ele><time>2026-05-01T11:17:36Z</time></trkpt><trkpt lat="40.80008501958405" lon="16.9065072462476"><ele>359.33333333333337</ele><time>2026-05-01T11:17:37Z</time></trkpt><trkpt lat="40.79992123636894" lon="16.906383211247142"><ele>359.6666666666667</ele><time>2026-05-01T11:17:38Z</time></trkpt><trkpt lat="40.79977010655522" lon="16.90623719142248"><ele>360.0</ele><time>2026-05-01T11:17:39Z</time></trkpt><trkpt lat="40.79965002699973" lon="16.906096995024317"><ele>360.0</ele><time>2026-05-01T11:17:40Z</time></trkpt><trkpt lat="40.799560752085306" lon="16.90596320138907"><ele>360.0</ele><time>2026-05-01T11:17:41Z</time></trkpt><trkpt lat="40.79948470949926" lon="16.905827553213218"><ele>360.0</ele><time>2026-05-01T11:17:42Z</time></trkpt><trkpt lat="40.799424802794206" lon="16.905697279346466"><ele>360.0</ele><time>2026-05-01T11:17:43Z</time></trkpt><trkpt lat="40.79937345332047" lon="16.90557598983263"><ele>360.0</ele><time>2026-05-01T11:17:44Z</time></trkpt><trkpt lat="40.79932900729864" lon="16.905466798649694"><ele>360.0</ele><time>2026-05-01T11:17:45Z</time></trkpt><trkpt lat="40.79927423457534" lon="16.905334711968525"><ele>360.0</ele><time>2026-05-01T11:17:47Z</time></trkpt><trkpt lat="40.79924407153202" lon="16.90525498374517"><ele>360.0</ele><time>2026-05-01T11:17:48Z</time></trkpt><trkpt lat="40.799213192882604" lon="16.90514716442791"><ele>360.0</ele><time>2026-05-01T11:17:49Z</time></trkpt><trkpt lat="40.79917288077577" lon="16.905014615294977"><ele>359.75</ele><time>2026-05-01T11:17:50Z</time></trkpt><trkpt lat="40.79911952215552" lon="16.904836747634768"><ele>359.5</ele><time>2026-05-01T11:17:51Z</time></trkpt><trkpt lat="40.79907603738776" lon="16.904661070429597"><ele>359.25</ele><time>2026-05-01T11:17:52Z</time></trkpt><trkpt lat="40.79902678770326" lon="16.90446140789664"><ele>359.0</ele><time>2026-05-01T11:17:53Z</time></trkpt><trkpt lat="40.79897372466878" lon="16.90425906297986"><ele>359.0</ele><time>2026-05-01T11:17:54Z</time></trkpt><trkpt lat="40.79893920661815" lon="16.904037516637555"><ele>359.0</ele><time>2026-05-01T11:17:55Z</time></trkpt><trkpt lat="40.798927680577314" lon="16.90379455615295"><ele>359.0</ele><time>2026-05-01T11:17:56Z</time></trkpt><trkpt lat="40.798928454268776" lon="16.903538689709148"><ele>359.33333333333337</ele><time>2026-05-01T11:17:57Z</time></trkpt><trkpt lat="40.798928578572834" lon="16.90329202280451"><ele>359.6666666666667</ele><time>2026-05-01T11:17:58Z</time></trkpt><trkpt lat="40.79892237955123" lon="16.90303052748785"><ele>360.0</ele><time>2026-05-01T11:17:59Z</time></trkpt><trkpt lat="40.79891753314074" lon="16.90276064119677"><ele>360.3333333333333</ele><time>2026-05-01T11:18:00Z</time></trkpt><trkpt lat="40.79891035004224" lon="16.902485392416096"><ele>360.66666666666663</ele><time>2026-05-01T11:18:01Z</time></trkpt><trkpt lat="40.798898382438054" lon="16.902200764735007"><ele>361.0</ele><time>2026-05-01T11:18:02Z</time></trkpt><trkpt lat="40.79890123434125" lon="16.901902927423702"><ele>362.0</ele><time>2026-05-01T11:18:03Z</time></trkpt><trkpt lat="40.79890143233595" lon="16.901592167395698"><ele>363.0</ele><time>2026-05-01T11:18:04Z</time></trkpt><trkpt lat="40.798894484192225" lon="16.901275427231347"><ele>363.0</ele><time>2026-05-01T11:18:05Z</time></trkpt><trkpt lat="40.79888780519226" lon="16.90095850974955"><ele>363.0</ele><time>2026-05-01T11:18:06Z</time></trkpt><trkpt lat="40.79888077380298" lon="16.900675762252263"><ele>363.0</ele><time>2026-05-01T11:18:07Z</time></trkpt><trkpt lat="40.79887280419916" lon="16.900378187371285"><ele>363.0</ele><time>2026-05-01T11:18:08Z</time></trkpt><trkpt lat="40.79886212345952" lon="16.90007246561271"><ele>363.0</ele><time>2026-05-01T11:18:09Z</time></trkpt><trkpt lat="40.79885466066551" lon="16.899742394751673"><ele>363.0</ele><time>2026-05-01T11:18:10Z</time></trkpt><trkpt lat="40.79884732748234" lon="16.899384814222824"><ele>362.0</ele><time>2026-05-01T11:18:11Z</time></trkpt><trkpt lat="40.79885787789105" lon="16.898999608286314"><ele>361.0</ele><time>2026-05-01T11:18:12Z</time></trkpt><trkpt lat="40.79885118413151" lon="16.898575149407247"><ele>360.0</ele><time>2026-05-01T11:18:13Z</time></trkpt><trkpt lat="40.79884637969773" lon="16.89813075148563"><ele>359.0</ele><time>2026-05-01T11:18:14Z</time></trkpt><trkpt lat="40.798841674406475" lon="16.897695524148435"><ele>359.0</ele><time>2026-05-01T11:18:15Z</time></trkpt><trkpt lat="40.79883681380056" lon="16.89724593036854"><ele>359.0</ele><time>2026-05-01T11:18:16Z</time></trkpt><trkpt lat="40.79883210963026" lon="16.89680953604847"><ele>359.0</ele><time>2026-05-01T11:18:17Z</time></trkpt><trkpt lat="40.798828284647655" lon="16.89644267999715"><ele>359.0</ele><time>2026-05-01T11:18:17.999Z</time></trkpt><trkpt lat="40.798824653903026" lon="16.896080480295392"><ele>358.5</ele><time>2026-05-01T11:18:18.999Z</time></trkpt><trkpt lat="40.798821288020626" lon="16.89574470256803"><ele>358.0</ele><time>2026-05-01T11:18:19.999Z</time></trkpt><trkpt lat="40.798817989626805" lon="16.895415658210435"><ele>358.0</ele><time>2026-05-01T11:18:20.999Z</time></trkpt><trkpt lat="40.79881453251786" lon="16.895070780763913"><ele>358.0</ele><time>2026-05-01T11:18:21.999Z</time></trkpt><trkpt lat="40.79881083755996" lon="16.89470217566641"><ele>358.0</ele><time>2026-05-01T11:18:22.999Z</time></trkpt><trkpt lat="40.79880676872975" lon="16.89430877935942"><ele>358.0</ele><time>2026-05-01T11:18:23.999Z</time></trkpt><trkpt lat="40.79880176658162" lon="16.893900735149398"><ele>358.0</ele><time>2026-05-01T11:18:24.999Z</time></trkpt><trkpt lat="40.7987964213011" lon="16.893473453879295"><ele>358.0</ele><time>2026-05-01T11:18:25.999Z</time></trkpt><trkpt lat="40.79879092034707" lon="16.89304618772392"><ele>357.5</ele><time>2026-05-01T11:18:26.999Z</time></trkpt><trkpt lat="40.79878490923439" lon="16.89256589480721"><ele>357.0</ele><time>2026-05-01T11:18:27.999Z</time></trkpt><trkpt lat="40.7987787354712" lon="16.89205274144926"><ele>356.5</ele><time>2026-05-01T11:18:28.999Z</time></trkpt><trkpt lat="40.79877220572286" lon="16.89150999902686"><ele>356.0</ele><time>2026-05-01T11:18:29.999Z</time></trkpt><trkpt lat="40.79872412576571" lon="16.89096372415191"><ele>356.5</ele><time>2026-05-01T11:18:30.999Z</time></trkpt><trkpt lat="40.79872714272071" lon="16.890406367819473"><ele>357.0</ele><time>2026-05-01T11:18:31.999Z</time></trkpt><trkpt lat="40.79871736276442" lon="16.889864002706382"><ele>358.0</ele><time>2026-05-01T11:18:32.999Z</time></trkpt><trkpt lat="40.79870659303632" lon="16.88932764330995"><ele>359.0</ele><time>2026-05-01T11:18:33.999Z</time></trkpt><trkpt lat="40.79870659096533" lon="16.888755865084306"><ele>359.5</ele><time>2026-05-01T11:18:34.999Z</time></trkpt><trkpt lat="40.79869391532561" lon="16.88818468322068"><ele>360.0</ele><time>2026-05-01T11:18:35.999Z</time></trkpt><trkpt lat="40.79866548091599" lon="16.88756164563486"><ele>362.0</ele><time>2026-05-01T11:18:36.999Z</time></trkpt><trkpt lat="40.798661769558514" lon="16.886939195130687"><ele>362.0</ele><time>2026-05-01T11:18:37.999Z</time></trkpt><trkpt lat="40.79866082196197" lon="16.886331112226358"><ele>362.5</ele><time>2026-05-01T11:18:38.999Z</time></trkpt><trkpt lat="40.79865387394144" lon="16.88578332380033"><ele>363.0</ele><time>2026-05-01T11:18:39.999Z</time></trkpt><trkpt lat="40.79865079971926" lon="16.88526673033989"><ele>363.5</ele><time>2026-05-01T11:18:40.999Z</time></trkpt><trkpt lat="40.79864353166338" lon="16.88475075459952"><ele>364.0</ele><time>2026-05-01T11:18:41.999Z</time></trkpt><trkpt lat="40.798645305410346" lon="16.884232313211996"><ele>364.5</ele><time>2026-05-01T11:18:42.999Z</time></trkpt><trkpt lat="40.79864109953866" lon="16.883720274648212"><ele>365.0</ele><time>2026-05-01T11:18:43.999Z</time></trkpt><trkpt lat="40.79863482967832" lon="16.883209374962583"><ele>365.5</ele><time>2026-05-01T11:18:44.999Z</time></trkpt><trkpt lat="40.79865829443297" lon="16.882724921902252"><ele>366.0</ele><time>2026-05-01T11:18:45.999Z</time></trkpt><trkpt lat="40.79865264918184" lon="16.8822678611209"><ele>368.0</ele><time>2026-05-01T11:18:46.999Z</time></trkpt><trkpt lat="40.798647553847154" lon="16.881855323229225"><ele>370.0</ele><time>2026-05-01T11:18:47.999Z</time></trkpt><trkpt lat="40.79864726960131" lon="16.88143067396023"><ele>370.0</ele><time>2026-05-01T11:18:48.999Z</time></trkpt><trkpt lat="40.7986510202921" lon="16.880977529612284"><ele>370.0</ele><time>2026-05-01T11:18:49.999Z</time></trkpt><trkpt lat="40.79861894401551" lon="16.88053356970514"><ele>369.0</ele><time>2026-05-01T11:18:50.999Z</time></trkpt><trkpt lat="40.798624555222034" lon="16.880026524386835"><ele>368.0</ele><time>2026-05-01T11:18:51.999Z</time></trkpt><trkpt lat="40.798618316214835" lon="16.879536874644405"><ele>368.5</ele><time>2026-05-01T11:18:52.999Z</time></trkpt><trkpt lat="40.79861169346362" lon="16.879017107602614"><ele>369.0</ele><time>2026-05-01T11:18:53.999Z</time></trkpt><trkpt lat="40.79860499398979" lon="16.878472794636746"><ele>368.5</ele><time>2026-05-01T11:18:54.999Z</time></trkpt><trkpt lat="40.798590654991656" lon="16.877892897050483"><ele>368.0</ele><time>2026-05-01T11:18:55.999Z</time></trkpt><trkpt lat="40.798580453738836" lon="16.877298274915"><ele>369.0</ele><time>2026-05-01T11:18:56.999Z</time></trkpt><trkpt lat="40.798575600498516" lon="16.876687658369324"><ele>369.0</ele><time>2026-05-01T11:18:57.999Z</time></trkpt><trkpt lat="40.79857746956802" lon="16.876083558037617"><ele>369.0</ele><time>2026-05-01T11:18:58.999Z</time></trkpt><trkpt lat="40.79855965783597" lon="16.875463299155395"><ele>369.0</ele><time>2026-05-01T11:18:59.999Z</time></trkpt><trkpt lat="40.798546427583595" lon="16.874822724789603"><ele>368.0</ele><time>2026-05-01T11:19:00.999Z</time></trkpt><trkpt lat="40.79854439860294" lon="16.874171476441514"><ele>368.0</ele><time>2026-05-01T11:19:01.999Z</time></trkpt><trkpt lat="40.79853498410867" lon="16.873517110727928"><ele>365.0</ele><time>2026-05-01T11:19:02.999Z</time></trkpt><trkpt lat="40.798521451747035" lon="16.87287135357471"><ele>366.0</ele><time>2026-05-01T11:19:03.999Z</time></trkpt><trkpt lat="40.7985128965519" lon="16.872256614961003"><ele>365.5</ele><time>2026-05-01T11:19:04.999Z</time></trkpt><trkpt lat="40.79850302677835" lon="16.87171682911667"><ele>365.0</ele><time>2026-05-01T11:19:05.999Z</time></trkpt><trkpt lat="40.79850364316029" lon="16.87124315314867"><ele>366.0</ele><time>2026-05-01T11:19:06.999Z</time></trkpt><trkpt lat="40.79849225510092" lon="16.870805961944793"><ele>367.0</ele><time>2026-05-01T11:19:07.999Z</time></trkpt><trkpt lat="40.79848838131546" lon="16.8703990966085"><ele>368.5</ele><time>2026-05-01T11:19:08.999Z</time></trkpt><trkpt lat="40.798470521688714" lon="16.87001750388957"><ele>370.0</ele><time>2026-05-01T11:19:09.999Z</time></trkpt><trkpt lat="40.79848465140673" lon="16.869632281003824"><ele>371.0</ele><time>2026-05-01T11:19:10.999Z</time></trkpt><trkpt lat="40.79847006899813" lon="16.869255151780603"><ele>372.0</ele><time>2026-05-01T11:19:11.999Z</time></trkpt><trkpt lat="40.79847601628463" lon="16.86888116479551"><ele>372.0</ele><time>2026-05-01T11:19:13Z</time></trkpt><trkpt lat="40.79847133640393" lon="16.868472634237946"><ele>372.0</ele><time>2026-05-01T11:19:14Z</time></trkpt><trkpt lat="40.798466157146834" lon="16.868050152070026"><ele>372.0</ele><time>2026-05-01T11:19:15Z</time></trkpt><trkpt lat="40.79846084950053" lon="16.867617081219905"><ele>372.0</ele><time>2026-05-01T11:19:16Z</time></trkpt><trkpt lat="40.79845559372327" lon="16.867188242744582"><ele>372.5</ele><time>2026-05-01T11:19:17Z</time></trkpt><trkpt lat="40.79843740609161" lon="16.866762004727352"><ele>373.0</ele><time>2026-05-01T11:19:18Z</time></trkpt><trkpt lat="40.798434542205754" lon="16.866350344594938"><ele>373.0</ele><time>2026-05-01T11:19:19Z</time></trkpt><trkpt lat="40.798422992831235" lon="16.865945332374917"><ele>373.0</ele><time>2026-05-01T11:19:20Z</time></trkpt><trkpt lat="40.79843345735978" lon="16.86554958878628"><ele>373.0</ele><time>2026-05-01T11:19:21Z</time></trkpt><trkpt lat="40.79842787134297" lon="16.86514385481868"><ele>373.0</ele><time>2026-05-01T11:19:22Z</time></trkpt><trkpt lat="40.798422244350284" lon="16.864735144416212"><ele>373.0</ele><time>2026-05-01T11:19:23Z</time></trkpt><trkpt lat="40.79841678238555" lon="16.864338420803794"><ele>373.0</ele><time>2026-05-01T11:19:24Z</time></trkpt><trkpt lat="40.79841153209508" lon="16.863941940049894"><ele>373.0</ele><time>2026-05-01T11:19:25Z</time></trkpt><trkpt lat="40.79839210484333" lon="16.863540784892546"><ele>373.0</ele><time>2026-05-01T11:19:26Z</time></trkpt><trkpt lat="40.79839026459174" lon="16.863142106419122"><ele>373.0</ele><time>2026-05-01T11:19:27Z</time></trkpt><trkpt lat="40.79838457396947" lon="16.862752277767264"><ele>373.0</ele><time>2026-05-01T11:19:28Z</time></trkpt><trkpt lat="40.79838327952869" lon="16.86234823125514"><ele>373.0</ele><time>2026-05-01T11:19:29Z</time></trkpt><trkpt lat="40.79836851340931" lon="16.861937674029978"><ele>373.0</ele><time>2026-05-01T11:19:30Z</time></trkpt><trkpt lat="40.798376734186945" lon="16.86151532060791"><ele>373.0</ele><time>2026-05-01T11:19:31Z</time></trkpt><trkpt lat="40.79837095242803" lon="16.861095825243943"><ele>373.0</ele><time>2026-05-01T11:19:32Z</time></trkpt><trkpt lat="40.79836618097205" lon="16.86067696259098"><ele>373.5</ele><time>2026-05-01T11:19:33Z</time></trkpt><trkpt lat="40.798361312635336" lon="16.860249595427067"><ele>374.0</ele><time>2026-05-01T11:19:34Z</time></trkpt><trkpt lat="40.798355897687244" lon="16.859825645817516"><ele>375.5</ele><time>2026-05-01T11:19:35Z</time></trkpt><trkpt lat="40.79835014705881" lon="16.859397439162347"><ele>377.0</ele><time>2026-05-01T11:19:36Z</time></trkpt><trkpt lat="40.79834441673722" lon="16.85897074451628"><ele>377.5</ele><time>2026-05-01T11:19:37Z</time></trkpt><trkpt lat="40.798338538641" lon="16.858533046141794"><ele>378.0</ele><time>2026-05-01T11:19:38Z</time></trkpt><trkpt lat="40.79833326084249" lon="16.858097859388476"><ele>379.0</ele><time>2026-05-01T11:19:39Z</time></trkpt><trkpt lat="40.79832795843893" lon="16.85765912292116"><ele>380.0</ele><time>2026-05-01T11:19:40Z</time></trkpt><trkpt lat="40.798322398410704" lon="16.857199069932566"><ele>380.0</ele><time>2026-05-01T11:19:41Z</time></trkpt><trkpt lat="40.798317085511904" lon="16.856759465069864"><ele>380.0</ele><time>2026-05-01T11:19:42Z</time></trkpt><trkpt lat="40.79831144160849" lon="16.856292471689667"><ele>381.0</ele><time>2026-05-01T11:19:43Z</time></trkpt><trkpt lat="40.798290114671154" lon="16.855815316855306"><ele>382.0</ele><time>2026-05-01T11:19:44Z</time></trkpt><trkpt lat="40.79828199492673" lon="16.855350434663592"><ele>382.5</ele><time>2026-05-01T11:19:45Z</time></trkpt><trkpt lat="40.7982922764945" lon="16.854889375705408"><ele>383.0</ele><time>2026-05-01T11:19:46Z</time></trkpt><trkpt lat="40.798285071696235" lon="16.854430144620245"><ele>383.0</ele><time>2026-05-01T11:19:47Z</time></trkpt><trkpt lat="40.79827779629302" lon="16.853972368302312"><ele>383.0</ele><time>2026-05-01T11:19:48Z</time></trkpt><trkpt lat="40.79827102525584" lon="16.853504731301594"><ele>381.5</ele><time>2026-05-01T11:19:49Z</time></trkpt><trkpt lat="40.79826422062984" lon="16.85302444724644"><ele>380.0</ele><time>2026-05-01T11:19:50Z</time></trkpt><trkpt lat="40.798257559078614" lon="16.852554262822363"><ele>378.5</ele><time>2026-05-01T11:19:51Z</time></trkpt><trkpt lat="40.79824934025934" lon="16.852043233162913"><ele>377.0</ele><time>2026-05-01T11:19:52Z</time></trkpt><trkpt lat="40.79821870601826" lon="16.851497242066426"><ele>376.5</ele><time>2026-05-01T11:19:53Z</time></trkpt><trkpt lat="40.79822292075049" lon="16.8509562118105"><ele>376.0</ele><time>2026-05-01T11:19:54Z</time></trkpt><trkpt lat="40.7982153234714" lon="16.850404487084226"><ele>376.0</ele><time>2026-05-01T11:19:55Z</time></trkpt><trkpt lat="40.798211378609146" lon="16.849835235587467"><ele>376.0</ele><time>2026-05-01T11:19:56Z</time></trkpt><trkpt lat="40.79820166066028" lon="16.84924528764877"><ele>376.0</ele><time>2026-05-01T11:19:57Z</time></trkpt><trkpt lat="40.798192438693754" lon="16.848634280546573"><ele>376.0</ele><time>2026-05-01T11:19:58Z</time></trkpt><trkpt lat="40.7981831826482" lon="16.848009930924803"><ele>376.0</ele><time>2026-05-01T11:19:59Z</time></trkpt><trkpt lat="40.79817416300166" lon="16.847385558314834"><ele>377.0</ele><time>2026-05-01T11:20:00Z</time></trkpt><trkpt lat="40.79816563098603" lon="16.846781473153968"><ele>377.0</ele><time>2026-05-01T11:20:01Z</time></trkpt><trkpt lat="40.79816627003764" lon="16.84624783089694"><ele>377.0</ele><time>2026-05-01T11:20:02Z</time></trkpt><trkpt lat="40.79815819123434" lon="16.84575116755808"><ele>377.0</ele><time>2026-05-01T11:20:03Z</time></trkpt><trkpt lat="40.79815186161912" lon="16.84527517999177"><ele>377.0</ele><time>2026-05-01T11:20:04Z</time></trkpt><trkpt lat="40.79814367012616" lon="16.84483064480474"><ele>378.0</ele><time>2026-05-01T11:20:05Z</time></trkpt><trkpt lat="40.79813244547203" lon="16.84441789598281"><ele>379.0</ele><time>2026-05-01T11:20:06Z</time></trkpt><trkpt lat="40.79810015697716" lon="16.844007178065745"><ele>379.5</ele><time>2026-05-01T11:20:07Z</time></trkpt><trkpt lat="40.79814047949248" lon="16.84361688251854"><ele>380.0</ele><time>2026-05-01T11:20:08Z</time></trkpt><trkpt lat="40.7981495042958" lon="16.84318318279959"><ele>380.0</ele><time>2026-05-01T11:20:09Z</time></trkpt><trkpt lat="40.7981690674059" lon="16.842748324561"><ele>380.0</ele><time>2026-05-01T11:20:10Z</time></trkpt><trkpt lat="40.79811662049943" lon="16.84228322198079"><ele>380.0</ele><time>2026-05-01T11:20:11Z</time></trkpt><trkpt lat="40.7981123570723" lon="16.841804836427833"><ele>380.0</ele><time>2026-05-01T11:20:12Z</time></trkpt><trkpt lat="40.79810277270828" lon="16.84130561873333"><ele>381.0</ele><time>2026-05-01T11:20:13Z</time></trkpt><trkpt lat="40.798100739697524" lon="16.840787854143855"><ele>382.0</ele><time>2026-05-01T11:20:14Z</time></trkpt><trkpt lat="40.79809372402741" lon="16.840276646212317"><ele>382.5</ele><time>2026-05-01T11:20:15Z</time></trkpt><trkpt lat="40.798092411312155" lon="16.83975861961961"><ele>383.0</ele><time>2026-05-01T11:20:16Z</time></trkpt><trkpt lat="40.79809136082387" lon="16.83924773796512"><ele>384.0</ele><time>2026-05-01T11:20:17Z</time></trkpt><trkpt lat="40.79808458618256" lon="16.838773245379926"><ele>385.0</ele><time>2026-05-01T11:20:18Z</time></trkpt><trkpt lat="40.798078098761785" lon="16.83832092867113"><ele>385.5</ele><time>2026-05-01T11:20:19Z</time></trkpt><trkpt lat="40.79806632497052" lon="16.837891574259046"><ele>386.0</ele><time>2026-05-01T11:20:20Z</time></trkpt><trkpt lat="40.79806380173051" lon="16.837461768403152"><ele>386.0</ele><time>2026-05-01T11:20:21Z</time></trkpt><trkpt lat="40.79805643299183" lon="16.837048359869108"><ele>386.0</ele><time>2026-05-01T11:20:22Z</time></trkpt><trkpt lat="40.79805552758481" lon="16.836644079762223"><ele>386.0</ele><time>2026-05-01T11:20:23Z</time></trkpt><trkpt lat="40.79804953369022" lon="16.8362410827326"><ele>386.0</ele><time>2026-05-01T11:20:24Z</time></trkpt><trkpt lat="40.79803985744492" lon="16.835869984518144"><ele>386.5</ele><time>2026-05-01T11:20:25Z</time></trkpt><trkpt lat="40.798019475893" lon="16.835489902068293"><ele>387.0</ele><time>2026-05-01T11:20:26Z</time></trkpt><trkpt lat="40.79798482853985" lon="16.835123173602245"><ele>387.5</ele><time>2026-05-01T11:20:26.999Z</time></trkpt><trkpt lat="40.797950580378235" lon="16.834785396353638"><ele>388.0</ele><time>2026-05-01T11:20:27.999Z</time></trkpt><trkpt lat="40.797909266463506" lon="16.83445395469394"><ele>388.0</ele><time>2026-05-01T11:20:28.999Z</time></trkpt><trkpt lat="40.79787001874119" lon="16.83412555425726"><ele>388.0</ele><time>2026-05-01T11:20:29.999Z</time></trkpt><trkpt lat="40.79781531477877" lon="16.833785885699424"><ele>387.5</ele><time>2026-05-01T11:20:30.999Z</time></trkpt><trkpt lat="40.797741697240205" lon="16.833454785226536"><ele>387.0</ele><time>2026-05-01T11:20:31.999Z</time></trkpt><trkpt lat="40.797661878541106" lon="16.833106123760828"><ele>386.5</ele><time>2026-05-01T11:20:32.999Z</time></trkpt><trkpt lat="40.79756082065979" lon="16.83275734327002"><ele>386.0</ele><time>2026-05-01T11:20:33.999Z</time></trkpt><trkpt lat="40.797463601367596" lon="16.832407988971372"><ele>385.5</ele><time>2026-05-01T11:20:34.999Z</time></trkpt><trkpt lat="40.79736602166038" lon="16.832055553026798"><ele>385.0</ele><time>2026-05-01T11:20:35.999Z</time></trkpt><trkpt lat="40.79726557819478" lon="16.831726634091964"><ele>385.0</ele><time>2026-05-01T11:20:36.999Z</time></trkpt><trkpt lat="40.79717911751191" lon="16.831364268355824"><ele>385.0</ele><time>2026-05-01T11:20:37.999Z</time></trkpt><trkpt lat="40.79707873651998" lon="16.83098504792671"><ele>384.5</ele><time>2026-05-01T11:20:38.999Z</time></trkpt><trkpt lat="40.79698082463712" lon="16.830597141692582"><ele>384.0</ele><time>2026-05-01T11:20:39.999Z</time></trkpt><trkpt lat="40.79688783178839" lon="16.830227664538228"><ele>384.0</ele><time>2026-05-01T11:20:40.999Z</time></trkpt><trkpt lat="40.796786593332094" lon="16.829899178243853"><ele>384.0</ele><time>2026-05-01T11:20:41.999Z</time></trkpt><trkpt lat="40.7966967581209" lon="16.829547879000852"><ele>385.5</ele><time>2026-05-01T11:20:42.999Z</time></trkpt><trkpt lat="40.796603715716046" lon="16.829190881957274"><ele>387.0</ele><time>2026-05-01T11:20:43.999Z</time></trkpt><trkpt lat="40.796505423823" lon="16.82884259321996"><ele>387.0</ele><time>2026-05-01T11:20:44.999Z</time></trkpt><trkpt lat="40.79642259698589" lon="16.828488053316963"><ele>387.0</ele><time>2026-05-01T11:20:45.999Z</time></trkpt><trkpt lat="40.79632762649293" lon="16.828137869156823"><ele>387.5</ele><time>2026-05-01T11:20:46.999Z</time></trkpt><trkpt lat="40.79623660025453" lon="16.82779427083274"><ele>388.0</ele><time>2026-05-01T11:20:47.999Z</time></trkpt><trkpt lat="40.79614692125489" lon="16.827453078490926"><ele>388.0</ele><time>2026-05-01T11:20:48.999Z</time></trkpt><trkpt lat="40.79604720808559" lon="16.827129622912526"><ele>388.0</ele><time>2026-05-01T11:20:49.999Z</time></trkpt><trkpt lat="40.79597630791758" lon="16.826834622450583"><ele>389.0</ele><time>2026-05-01T11:20:50.999Z</time></trkpt><trkpt lat="40.79592504350015" lon="16.826555620141455"><ele>390.0</ele><time>2026-05-01T11:20:51.999Z</time></trkpt><trkpt lat="40.79585075289312" lon="16.826291558514484"><ele>391.0</ele><time>2026-05-01T11:20:52.999Z</time></trkpt><trkpt lat="40.795803964769576" lon="16.826031060812646"><ele>391.6666666666667</ele><time>2026-05-01T11:20:53.999Z</time></trkpt><trkpt lat="40.795715715775295" lon="16.82575012942228"><ele>392.33333333333337</ele><time>2026-05-01T11:20:54.999Z</time></trkpt><trkpt lat="40.79563964687629" lon="16.82548077833736"><ele>393.0</ele><time>2026-05-01T11:20:55.999Z</time></trkpt><trkpt lat="40.79555894865765" lon="16.825209241763663"><ele>394.0</ele><time>2026-05-01T11:20:56.999Z</time></trkpt><trkpt lat="40.7954692159144" lon="16.824922097314722"><ele>395.0</ele><time>2026-05-01T11:20:57.999Z</time></trkpt><trkpt lat="40.795405125209854" lon="16.824611481022373"><ele>396.0</ele><time>2026-05-01T11:20:58.999Z</time></trkpt><trkpt lat="40.79532586656141" lon="16.82431144313113"><ele>397.0</ele><time>2026-05-01T11:20:59.999Z</time></trkpt><trkpt lat="40.79524889508642" lon="16.82399480662492"><ele>398.0</ele><time>2026-05-01T11:21:00.999Z</time></trkpt><trkpt lat="40.795169398751135" lon="16.82369518503484"><ele>399.0</ele><time>2026-05-01T11:21:01.999Z</time></trkpt><trkpt lat="40.79509041540196" lon="16.823408767996938"><ele>400.0</ele><time>2026-05-01T11:21:02.999Z</time></trkpt><trkpt lat="40.79500596190288" lon="16.823107122156173"><ele>401.0</ele><time>2026-05-01T11:21:03.999Z</time></trkpt><trkpt lat="40.794927520941094" lon="16.822810493889815"><ele>400.3333333333333</ele><time>2026-05-01T11:21:04.999Z</time></trkpt><trkpt lat="40.79486089054748" lon="16.822541664592173"><ele>399.66666666666663</ele><time>2026-05-01T11:21:05.999Z</time></trkpt><trkpt lat="40.7948185358062" lon="16.822265293004797"><ele>399.0</ele><time>2026-05-01T11:21:06.999Z</time></trkpt><trkpt lat="40.794748237540276" lon="16.821993244842734"><ele>399.0</ele><time>2026-05-01T11:21:07.999Z</time></trkpt><trkpt lat="40.79467488429753" lon="16.821709302494543"><ele>399.0</ele><time>2026-05-01T11:21:08.999Z</time></trkpt><trkpt lat="40.794597704795216" lon="16.82141044367053"><ele>399.0</ele><time>2026-05-01T11:21:09.999Z</time></trkpt><trkpt lat="40.79452136765026" lon="16.821115182710724"><ele>399.0</ele><time>2026-05-01T11:21:10.999Z</time></trkpt><trkpt lat="40.79444071533274" lon="16.82080711543634"><ele>399.5</ele><time>2026-05-01T11:21:11.999Z</time></trkpt><trkpt lat="40.79435998487443" lon="16.820498749687847"><ele>400.0</ele><time>2026-05-01T11:21:12.999Z</time></trkpt><trkpt lat="40.79427992566717" lon="16.820192948388243"><ele>402.5</ele><time>2026-05-01T11:21:13.999Z</time></trkpt><trkpt lat="40.7942000018932" lon="16.819888156183197"><ele>405.0</ele><time>2026-05-01T11:21:14.999Z</time></trkpt><trkpt lat="40.79412344566837" lon="16.81959582461067"><ele>405.0</ele><time>2026-05-01T11:21:15.999Z</time></trkpt><trkpt lat="40.79404529968037" lon="16.81929706201091"><ele>405.0</ele><time>2026-05-01T11:21:16.999Z</time></trkpt><trkpt lat="40.79396819238969" lon="16.81899960586017"><ele>405.0</ele><time>2026-05-01T11:21:17.999Z</time></trkpt><trkpt lat="40.79389223931555" lon="16.818706460947226"><ele>405.0</ele><time>2026-05-01T11:21:19Z</time></trkpt><trkpt lat="40.79381463489833" lon="16.818406942614917"><ele>405.0</ele><time>2026-05-01T11:21:20Z</time></trkpt><trkpt lat="40.7937384192561" lon="16.818112784312085"><ele>405.0</ele><time>2026-05-01T11:21:21Z</time></trkpt><trkpt lat="40.79366436571673" lon="16.81782697076224"><ele>405.0</ele><time>2026-05-01T11:21:22Z</time></trkpt><trkpt lat="40.79359066770936" lon="16.81754252941109"><ele>405.0</ele><time>2026-05-01T11:21:23Z</time></trkpt><trkpt lat="40.793514823653574" lon="16.817249805265458"><ele>405.33333333333337</ele><time>2026-05-01T11:21:24Z</time></trkpt><trkpt lat="40.79342785561877" lon="16.81697155897709"><ele>405.6666666666667</ele><time>2026-05-01T11:21:25Z</time></trkpt><trkpt lat="40.79336094216476" lon="16.81671590165526"><ele>406.0</ele><time>2026-05-01T11:21:26Z</time></trkpt><trkpt lat="40.793301168635274" lon="16.81642518013341"><ele>406.0</ele><time>2026-05-01T11:21:27Z</time></trkpt><trkpt lat="40.79323015235871" lon="16.816151010330145"><ele>406.0</ele><time>2026-05-01T11:21:28Z</time></trkpt><trkpt lat="40.79315863721198" lon="16.815875177483925"><ele>406.0</ele><time>2026-05-01T11:21:29Z</time></trkpt><trkpt lat="40.793082574911615" lon="16.815583261902145"><ele>406.33333333333337</ele><time>2026-05-01T11:21:30Z</time></trkpt><trkpt lat="40.79300859381833" lon="16.815299333658018"><ele>406.66666666666663</ele><time>2026-05-01T11:21:31Z</time></trkpt><trkpt lat="40.79293759947868" lon="16.81502686813135"><ele>407.0</ele><time>2026-05-01T11:21:32Z</time></trkpt><trkpt lat="40.7928671710564" lon="16.814756574505413"><ele>407.0</ele><time>2026-05-01T11:21:33Z</time></trkpt><trkpt lat="40.792792984855346" lon="16.81447185909851"><ele>407.0</ele><time>2026-05-01T11:21:34Z</time></trkpt><trkpt lat="40.79272175069682" lon="16.81419847319536"><ele>407.0</ele><time>2026-05-01T11:21:35Z</time></trkpt><trkpt lat="40.7926460249576" lon="16.813908886428013"><ele>407.0</ele><time>2026-05-01T11:21:36Z</time></trkpt><trkpt lat="40.79256867415865" lon="16.813616380960912"><ele>407.0</ele><time>2026-05-01T11:21:37Z</time></trkpt><trkpt lat="40.79248830230207" lon="16.813312451234747"><ele>407.0</ele><time>2026-05-01T11:21:38Z</time></trkpt><trkpt lat="40.79240932339349" lon="16.81301378899495"><ele>407.0</ele><time>2026-05-01T11:21:39Z</time></trkpt><trkpt lat="40.79233739905202" lon="16.812741803925057"><ele>407.0</ele><time>2026-05-01T11:21:40Z</time></trkpt><trkpt lat="40.792269148048945" lon="16.812485188368335"><ele>407.0</ele><time>2026-05-01T11:21:41Z</time></trkpt><trkpt lat="40.79219676819454" lon="16.81221602130216"><ele>407.0</ele><time>2026-05-01T11:21:42Z</time></trkpt><trkpt lat="40.792116938681765" lon="16.811919150367668"><ele>407.66666666666663</ele><time>2026-05-01T11:21:43Z</time></trkpt><trkpt lat="40.79205090218614" lon="16.81166299942379"><ele>408.33333333333337</ele><time>2026-05-01T11:21:44Z</time></trkpt><trkpt lat="40.791981819068795" lon="16.811407609437026"><ele>409.0</ele><time>2026-05-01T11:21:45Z</time></trkpt><trkpt lat="40.79191149919798" lon="16.811147647205054"><ele>410.0</ele><time>2026-05-01T11:21:46Z</time></trkpt><trkpt lat="40.79184009056084" lon="16.81088365994291"><ele>411.0</ele><time>2026-05-01T11:21:47Z</time></trkpt><trkpt lat="40.791746620619" lon="16.810630954413778"><ele>412.0</ele><time>2026-05-01T11:21:48Z</time></trkpt><trkpt lat="40.791688430447664" lon="16.81035733376917"><ele>412.33333333333337</ele><time>2026-05-01T11:21:49Z</time></trkpt><trkpt lat="40.791646704694706" lon="16.810080069787034"><ele>412.66666666666663</ele><time>2026-05-01T11:21:50Z</time></trkpt><trkpt lat="40.79163446088892" lon="16.809796292763966"><ele>413.0</ele><time>2026-05-01T11:21:51Z</time></trkpt><trkpt lat="40.791629847494555" lon="16.80955898891386"><ele>413.66666666666663</ele><time>2026-05-01T11:21:52Z</time></trkpt><trkpt lat="40.79162085707761" lon="16.809317884111504"><ele>414.33333333333337</ele><time>2026-05-01T11:21:53Z</time></trkpt><trkpt lat="40.79160591031226" lon="16.809070936274257"><ele>415.0</ele><time>2026-05-01T11:21:54Z</time></trkpt><trkpt lat="40.791593883830814" lon="16.808818364418077"><ele>415.0</ele><time>2026-05-01T11:21:55Z</time></trkpt><trkpt lat="40.79158125938829" lon="16.80855033695198"><ele>415.0</ele><time>2026-05-01T11:21:56Z</time></trkpt><trkpt lat="40.79156942417094" lon="16.808279832930317"><ele>415.0</ele><time>2026-05-01T11:21:57Z</time></trkpt><trkpt lat="40.79155445950826" lon="16.808001241252935"><ele>416.0</ele><time>2026-05-01T11:21:58Z</time></trkpt><trkpt lat="40.791541351270915" lon="16.80771749815781"><ele>417.0</ele><time>2026-05-01T11:21:59Z</time></trkpt><trkpt lat="40.79153453742899" lon="16.80743250801782"><ele>418.0</ele><time>2026-05-01T11:22:00Z</time></trkpt><trkpt lat="40.79153518875958" lon="16.807162351573353"><ele>418.5</ele><time>2026-05-01T11:22:01Z</time></trkpt><trkpt lat="40.791541804388785" lon="16.80686623257218"><ele>419.0</ele><time>2026-05-01T11:22:02Z</time></trkpt><trkpt lat="40.79156319090283" lon="16.80654587765596"><ele>419.0</ele><time>2026-05-01T11:22:03Z</time></trkpt><trkpt lat="40.79160650361243" lon="16.806197079795197"><ele>419.0</ele><time>2026-05-01T11:22:04Z</time></trkpt><trkpt lat="40.79166034744311" lon="16.805844446471976"><ele>419.5</ele><time>2026-05-01T11:22:05Z</time></trkpt><trkpt lat="40.79171551962058" lon="16.80550138026881"><ele>420.0</ele><time>2026-05-01T11:22:06Z</time></trkpt><trkpt lat="40.7917649289676" lon="16.80516175455469"><ele>420.5</ele><time>2026-05-01T11:22:07Z</time></trkpt><trkpt lat="40.79179518303997" lon="16.804817782326406"><ele>421.0</ele><time>2026-05-01T11:22:08Z</time></trkpt><trkpt lat="40.79184054938301" lon="16.804465025542825"><ele>420.5</ele><time>2026-05-01T11:22:09Z</time></trkpt><trkpt lat="40.791859831821874" lon="16.804101364315386"><ele>420.0</ele><time>2026-05-01T11:22:10Z</time></trkpt><trkpt lat="40.79190489062456" lon="16.803764560675837"><ele>421.0</ele><time>2026-05-01T11:22:11Z</time></trkpt><trkpt lat="40.791954360841444" lon="16.80340705230085"><ele>422.0</ele><time>2026-05-01T11:22:12Z</time></trkpt><trkpt lat="40.79199271360024" lon="16.80305571186128"><ele>422.0</ele><time>2026-05-01T11:22:13Z</time></trkpt><trkpt lat="40.79203386889874" lon="16.802680861973034"><ele>422.0</ele><time>2026-05-01T11:22:14Z</time></trkpt><trkpt lat="40.79206769635521" lon="16.80231280101059"><ele>423.0</ele><time>2026-05-01T11:22:15Z</time></trkpt><trkpt lat="40.79210674678023" lon="16.801953622053393"><ele>424.0</ele><time>2026-05-01T11:22:16Z</time></trkpt><trkpt lat="40.79215285850574" lon="16.801588712545215"><ele>424.0</ele><time>2026-05-01T11:22:17Z</time></trkpt><trkpt lat="40.792200140865795" lon="16.801216413145568"><ele>424.0</ele><time>2026-05-01T11:22:18Z</time></trkpt><trkpt lat="40.79224403349378" lon="16.80085790954472"><ele>424.0</ele><time>2026-05-01T11:22:19Z</time></trkpt><trkpt lat="40.79228461985905" lon="16.800504479870696"><ele>424.0</ele><time>2026-05-01T11:22:20Z</time></trkpt><trkpt lat="40.792322311759946" lon="16.800141405743886"><ele>424.0</ele><time>2026-05-01T11:22:21Z</time></trkpt><trkpt lat="40.792366082217946" lon="16.799776478066647"><ele>424.0</ele><time>2026-05-01T11:22:22Z</time></trkpt><trkpt lat="40.792412601466054" lon="16.799412475068536"><ele>425.0</ele><time>2026-05-01T11:22:23Z</time></trkpt><trkpt lat="40.792461701250545" lon="16.799035800531446"><ele>426.0</ele><time>2026-05-01T11:22:24Z</time></trkpt><trkpt lat="40.792500236471696" lon="16.7986431977041"><ele>425.0</ele><time>2026-05-01T11:22:25Z</time></trkpt><trkpt lat="40.79254699445969" lon="16.798238675578762"><ele>424.0</ele><time>2026-05-01T11:22:26Z</time></trkpt><trkpt lat="40.7925863871274" lon="16.797879853190977"><ele>425.0</ele><time>2026-05-01T11:22:27Z</time></trkpt><trkpt lat="40.79262792333732" lon="16.79753796380392"><ele>426.0</ele><time>2026-05-01T11:22:28Z</time></trkpt><trkpt lat="40.7926736607382" lon="16.797198189873633"><ele>427.0</ele><time>2026-05-01T11:22:29Z</time></trkpt><trkpt lat="40.792701516720214" lon="16.79686522801377"><ele>428.0</ele><time>2026-05-01T11:22:30Z</time></trkpt><trkpt lat="40.792714297336474" lon="16.796498399868877"><ele>428.5</ele><time>2026-05-01T11:22:31Z</time></trkpt><trkpt lat="40.79269786082845" lon="16.796179019520352"><ele>429.0</ele><time>2026-05-01T11:22:32Z</time></trkpt><trkpt lat="40.792661023541754" lon="16.795878607862015"><ele>429.66666666666663</ele><time>2026-05-01T11:22:33Z</time></trkpt><trkpt lat="40.79265092759427" lon="16.795586885945916"><ele>430.3333333333333</ele><time>2026-05-01T11:22:34Z</time></trkpt><trkpt lat="40.792643109412566" lon="16.795309782898467"><ele>431.0</ele><time>2026-05-01T11:22:35Z</time></trkpt><trkpt lat="40.792630779553186" lon="16.795016080833815"><ele>432.0</ele><time>2026-05-01T11:22:36Z</time></trkpt><trkpt lat="40.79261718491328" lon="16.794712440930727"><ele>433.0</ele><time>2026-05-01T11:22:37Z</time></trkpt><trkpt lat="40.7926035851145" lon="16.794417813033146"><ele>433.6666666666667</ele><time>2026-05-01T11:22:38Z</time></trkpt><trkpt lat="40.79258935327231" lon="16.794129847843344"><ele>434.33333333333337</ele><time>2026-05-01T11:22:39Z</time></trkpt><trkpt lat="40.79257924495122" lon="16.793828349162577"><ele>435.0</ele><time>2026-05-01T11:22:40Z</time></trkpt><trkpt lat="40.792564596387656" lon="16.793532288144835"><ele>435.33333333333337</ele><time>2026-05-01T11:22:41Z</time></trkpt><trkpt lat="40.79255466672404" lon="16.7932508178852"><ele>435.6666666666667</ele><time>2026-05-01T11:22:42Z</time></trkpt><trkpt lat="40.7925418294456" lon="16.793002867127363"><ele>436.0</ele><time>2026-05-01T11:22:43Z</time></trkpt><trkpt lat="40.79253161527201" lon="16.792748155666306"><ele>436.6666666666667</ele><time>2026-05-01T11:22:44Z</time></trkpt><trkpt lat="40.79252749225593" lon="16.792479565647973"><ele>437.33333333333337</ele><time>2026-05-01T11:22:45Z</time></trkpt><trkpt lat="40.79251070713795" lon="16.79219470641494"><ele>438.0</ele><time>2026-05-01T11:22:46Z</time></trkpt><trkpt lat="40.79249820411078" lon="16.791901439815817"><ele>438.0</ele><time>2026-05-01T11:22:47Z</time></trkpt><trkpt lat="40.79248858876969" lon="16.791595137568667"><ele>438.0</ele><time>2026-05-01T11:22:48Z</time></trkpt><trkpt lat="40.79247798225387" lon="16.79126699509529"><ele>437.5</ele><time>2026-05-01T11:22:49Z</time></trkpt><trkpt lat="40.79246520660876" lon="16.79091991769288"><ele>437.0</ele><time>2026-05-01T11:22:50Z</time></trkpt><trkpt lat="40.79245012992524" lon="16.790581866317897"><ele>437.0</ele><time>2026-05-01T11:22:50.999Z</time></trkpt><trkpt lat="40.79243471279195" lon="16.790266802607277"><ele>437.0</ele><time>2026-05-01T11:22:51.999Z</time></trkpt><trkpt lat="40.79244379233899" lon="16.789945263423018"><ele>438.0</ele><time>2026-05-01T11:22:52.999Z</time></trkpt><trkpt lat="40.79243095601739" lon="16.789623093535457"><ele>439.0</ele><time>2026-05-01T11:22:53.999Z</time></trkpt><trkpt lat="40.7924183354487" lon="16.789311181622335"><ele>439.5</ele><time>2026-05-01T11:22:54.999Z</time></trkpt><trkpt lat="40.792405421621346" lon="16.788998869154444"><ele>440.0</ele><time>2026-05-01T11:22:55.999Z</time></trkpt><trkpt lat="40.79239151106711" lon="16.78866245155028"><ele>440.0</ele><time>2026-05-01T11:22:56.999Z</time></trkpt><trkpt lat="40.792375118361925" lon="16.78826922362379"><ele>440.0</ele><time>2026-05-01T11:22:57.999Z</time></trkpt><trkpt lat="40.79235743401071" lon="16.78784792453791"><ele>440.0</ele><time>2026-05-01T11:22:58.999Z</time></trkpt><trkpt lat="40.79234132872899" lon="16.787398416641302"><ele>440.0</ele><time>2026-05-01T11:22:59.999Z</time></trkpt><trkpt lat="40.79230908419151" lon="16.786928396015846"><ele>440.5</ele><time>2026-05-01T11:23:00.999Z</time></trkpt><trkpt lat="40.7923012588396" lon="16.786482555566998"><ele>441.0</ele><time>2026-05-01T11:23:01.999Z</time></trkpt><trkpt lat="40.79228495454343" lon="16.786085850973937"><ele>440.5</ele><time>2026-05-01T11:23:02.999Z</time></trkpt><trkpt lat="40.79225333205364" lon="16.78570666399309"><ele>440.0</ele><time>2026-05-01T11:23:03.999Z</time></trkpt><trkpt lat="40.792265980656346" lon="16.785354379572635"><ele>438.5</ele><time>2026-05-01T11:23:04.999Z</time></trkpt><trkpt lat="40.79229977971401" lon="16.78502773779738"><ele>437.0</ele><time>2026-05-01T11:23:05.999Z</time></trkpt><trkpt lat="40.79238035157362" lon="16.784670614057156"><ele>437.5</ele><time>2026-05-01T11:23:06.999Z</time></trkpt><trkpt lat="40.7924851391303" lon="16.784287977589752"><ele>438.0</ele><time>2026-05-01T11:23:07.999Z</time></trkpt><trkpt lat="40.79256796998726" lon="16.783948714766417"><ele>438.0</ele><time>2026-05-01T11:23:08.999Z</time></trkpt><trkpt lat="40.79265619078623" lon="16.783630376885352"><ele>438.0</ele><time>2026-05-01T11:23:09.999Z</time></trkpt><trkpt lat="40.79274080554437" lon="16.783333867989104"><ele>438.5</ele><time>2026-05-01T11:23:10.999Z</time></trkpt><trkpt lat="40.79282008250241" lon="16.783029270108948"><ele>439.0</ele><time>2026-05-01T11:23:11.999Z</time></trkpt><trkpt lat="40.79290059632229" lon="16.782706461123368"><ele>438.5</ele><time>2026-05-01T11:23:12.999Z</time></trkpt><trkpt lat="40.79296386023447" lon="16.782351860128205"><ele>438.0</ele><time>2026-05-01T11:23:13.999Z</time></trkpt><trkpt lat="40.79299190515343" lon="16.78199238301177"><ele>438.5</ele><time>2026-05-01T11:23:14.999Z</time></trkpt><trkpt lat="40.793003125656845" lon="16.781636998451475"><ele>439.0</ele><time>2026-05-01T11:23:15.999Z</time></trkpt><trkpt lat="40.79300801175031" lon="16.781324012765065"><ele>439.0</ele><time>2026-05-01T11:23:16.999Z</time></trkpt><trkpt lat="40.793038075034595" lon="16.781043403294643"><ele>439.0</ele><time>2026-05-01T11:23:17.999Z</time></trkpt><trkpt lat="40.79305077182491" lon="16.78078732188686"><ele>439.0</ele><time>2026-05-01T11:23:18.999Z</time></trkpt><trkpt lat="40.79304691985124" lon="16.780585753586223"><ele>439.5</ele><time>2026-05-01T11:23:19.999Z</time></trkpt><trkpt lat="40.7930614484679" lon="16.780420470229263"><ele>440.0</ele><time>2026-05-01T11:23:20.999Z</time></trkpt><trkpt lat="40.79305319146374" lon="16.78026160823567"><ele>440.5</ele><time>2026-05-01T11:23:21.999Z</time></trkpt><trkpt lat="40.79304920970791" lon="16.78010053478714"><ele>441.0</ele><time>2026-05-01T11:23:22.999Z</time></trkpt><trkpt lat="40.79304809321974" lon="16.77995831720296"><ele>441.1666666666667</ele><time>2026-05-01T11:23:23.999Z</time></trkpt><trkpt lat="40.79305621827161" lon="16.77984273792819"><ele>441.33333333333337</ele><time>2026-05-01T11:23:25Z</time></trkpt><trkpt lat="40.793063611561294" lon="16.779744293375327"><ele>441.5</ele><time>2026-05-01T11:23:26Z</time></trkpt><trkpt lat="40.79306018117607" lon="16.779641069841073"><ele>441.6666666666667</ele><time>2026-05-01T11:23:28Z</time></trkpt><trkpt lat="40.793081798129194" lon="16.779525831164676"><ele>441.83333333333337</ele><time>2026-05-01T11:23:30Z</time></trkpt><trkpt lat="40.79309037212805" lon="16.779407597843488"><ele>442.0</ele><time>2026-05-01T11:23:31Z</time></trkpt><trkpt lat="40.793115719513054" lon="16.779263657516506"><ele>442.20000000000005</ele><time>2026-05-01T11:23:32Z</time></trkpt><trkpt lat="40.79312551241441" lon="16.779152035342086"><ele>442.40000000000003</ele><time>2026-05-01T11:23:33Z</time></trkpt><trkpt lat="40.79314085978464" lon="16.778983541169293"><ele>442.59999999999997</ele><time>2026-05-01T11:23:35Z</time></trkpt><trkpt lat="40.79314860783008" lon="16.778853381254237"><ele>442.79999999999995</ele><time>2026-05-01T11:23:36Z</time></trkpt><trkpt lat="40.7931554923225" lon="16.778707431409163"><ele>443.0</ele><time>2026-05-01T11:23:37Z</time></trkpt><trkpt lat="40.79316109498365" lon="16.77858541050692"><ele>442.79999999999995</ele><time>2026-05-01T11:23:38Z</time></trkpt><trkpt lat="40.793157966020566" lon="16.77846299014991"><ele>442.59999999999997</ele><time>2026-05-01T11:23:39Z</time></trkpt><trkpt lat="40.79316749523301" lon="16.77833346540856"><ele>442.40000000000003</ele><time>2026-05-01T11:23:40Z</time></trkpt><trkpt lat="40.79318071395245" lon="16.77820012986344"><ele>442.20000000000005</ele><time>2026-05-01T11:23:41Z</time></trkpt><trkpt lat="40.79321599224335" lon="16.778059792901114"><ele>442.0</ele><time>2026-05-01T11:23:42Z</time></trkpt><trkpt lat="40.79323797397816" lon="16.777886414966154"><ele>442.0</ele><time>2026-05-01T11:23:43Z</time></trkpt><trkpt lat="40.793213505225175" lon="16.777749999841234"><ele>442.00000000000006</ele><time>2026-05-01T11:23:44Z</time></trkpt><trkpt lat="40.79321609855114" lon="16.777620889269755"><ele>442.00000000000006</ele><time>2026-05-01T11:23:45Z</time></trkpt><trkpt lat="40.79321991819464" lon="16.777489491887984"><ele>442.0</ele><time>2026-05-01T11:23:46Z</time></trkpt><trkpt lat="40.79322636601202" lon="16.777350305132487"><ele>442.0</ele><time>2026-05-01T11:23:47Z</time></trkpt><trkpt lat="40.793235985120674" lon="16.77720179769352"><ele>442.5</ele><time>2026-05-01T11:23:48Z</time></trkpt><trkpt lat="40.79324448071775" lon="16.777030763344456"><ele>443.0</ele><time>2026-05-01T11:23:49Z</time></trkpt><trkpt lat="40.79324897413192" lon="16.776848436798204"><ele>443.5</ele><time>2026-05-01T11:23:50Z</time></trkpt><trkpt lat="40.79326177845716" lon="16.77668394120461"><ele>444.0</ele><time>2026-05-01T11:23:51Z</time></trkpt><trkpt lat="40.793266265710216" lon="16.776519487099772"><ele>444.5</ele><time>2026-05-01T11:23:52Z</time></trkpt><trkpt lat="40.79327004376844" lon="16.776350166812826"><ele>445.0</ele><time>2026-05-01T11:23:53Z</time></trkpt><trkpt lat="40.79327537278536" lon="16.77618715369797"><ele>445.5</ele><time>2026-05-01T11:23:54Z</time></trkpt><trkpt lat="40.79328200543498" lon="16.776030767685846"><ele>446.0</ele><time>2026-05-01T11:23:55Z</time></trkpt><trkpt lat="40.79328827407226" lon="16.775871407795538"><ele>446.0</ele><time>2026-05-01T11:23:56Z</time></trkpt><trkpt lat="40.79329068129257" lon="16.775717611774603"><ele>446.0</ele><time>2026-05-01T11:23:57Z</time></trkpt><trkpt lat="40.79329250683819" lon="16.775567955452864"><ele>446.0</ele><time>2026-05-01T11:23:58Z</time></trkpt><trkpt lat="40.793300137598045" lon="16.775426861884455"><ele>446.0</ele><time>2026-05-01T11:23:59Z</time></trkpt><trkpt lat="40.79332085474398" lon="16.77526455380868"><ele>446.25</ele><time>2026-05-01T11:24:00Z</time></trkpt><trkpt lat="40.79332227522425" lon="16.77509946545968"><ele>446.5</ele><time>2026-05-01T11:24:01Z</time></trkpt><trkpt lat="40.79333255562521" lon="16.774936682011"><ele>446.75</ele><time>2026-05-01T11:24:02Z</time></trkpt><trkpt lat="40.793343367239686" lon="16.774777476430643"><ele>447.0</ele><time>2026-05-01T11:24:03Z</time></trkpt><trkpt lat="40.79334306293246" lon="16.774635967894035"><ele>447.0</ele><time>2026-05-01T11:24:04Z</time></trkpt><trkpt lat="40.793348889741225" lon="16.774479093760455"><ele>447.0</ele><time>2026-05-01T11:24:05Z</time></trkpt><trkpt lat="40.79337307476856" lon="16.77430245643379"><ele>447.0</ele><time>2026-05-01T11:24:06Z</time></trkpt><trkpt lat="40.7933842570261" lon="16.77412293435937"><ele>447.0</ele><time>2026-05-01T11:24:07Z</time></trkpt><trkpt lat="40.79338327838796" lon="16.77393035434402"><ele>447.75</ele><time>2026-05-01T11:24:08Z</time></trkpt><trkpt lat="40.793400198359514" lon="16.773738478454362"><ele>448.5</ele><time>2026-05-01T11:24:09Z</time></trkpt><trkpt lat="40.79341818577619" lon="16.773539544587212"><ele>449.25</ele><time>2026-05-01T11:24:10Z</time></trkpt><trkpt lat="40.79344099610991" lon="16.773344556449544"><ele>450.0</ele><time>2026-05-01T11:24:11Z</time></trkpt><trkpt lat="40.7934634303263" lon="16.773135719792922"><ele>450.0</ele><time>2026-05-01T11:24:12Z</time></trkpt><trkpt lat="40.79349140907958" lon="16.772905850787815"><ele>450.0</ele><time>2026-05-01T11:24:13Z</time></trkpt><trkpt lat="40.793523925132085" lon="16.772667081858536"><ele>450.0</ele><time>2026-05-01T11:24:14Z</time></trkpt><trkpt lat="40.79355097540404" lon="16.77238356961785"><ele>450.5</ele><time>2026-05-01T11:24:15Z</time></trkpt><trkpt lat="40.793586143580356" lon="16.772057139336887"><ele>451.0</ele><time>2026-05-01T11:24:16Z</time></trkpt><trkpt lat="40.79362525614758" lon="16.77169229979936"><ele>451.0</ele><time>2026-05-01T11:24:17Z</time></trkpt><trkpt lat="40.79366485148455" lon="16.77129570845797"><ele>451.0</ele><time>2026-05-01T11:24:18Z</time></trkpt><trkpt lat="40.79370971985938" lon="16.77086712681332"><ele>451.0</ele><time>2026-05-01T11:24:19Z</time></trkpt><trkpt lat="40.793756316530626" lon="16.770404003848622"><ele>451.0</ele><time>2026-05-01T11:24:20Z</time></trkpt><trkpt lat="40.79380059673907" lon="16.77000655578607"><ele>451.5</ele><time>2026-05-01T11:24:21Z</time></trkpt><trkpt lat="40.79383507892811" lon="16.769650174580963"><ele>452.0</ele><time>2026-05-01T11:24:22Z</time></trkpt><trkpt lat="40.793877850059324" lon="16.769328659710823"><ele>452.3333333333333</ele><time>2026-05-01T11:24:23Z</time></trkpt><trkpt lat="40.793919634980675" lon="16.76904640895085"><ele>452.66666666666663</ele><time>2026-05-01T11:24:24Z</time></trkpt><trkpt lat="40.793951517130424" lon="16.768774792887918"><ele>453.0</ele><time>2026-05-01T11:24:25Z</time></trkpt><trkpt lat="40.7939544390683" lon="16.768532895258087"><ele>453.25</ele><time>2026-05-01T11:24:26Z</time></trkpt><trkpt lat="40.79397415662555" lon="16.768326860730273"><ele>453.5</ele><time>2026-05-01T11:24:27Z</time></trkpt><trkpt lat="40.793993265101484" lon="16.7681532825623"><ele>453.75</ele><time>2026-05-01T11:24:28Z</time></trkpt><trkpt lat="40.79400888519922" lon="16.767984019792987"><ele>454.0</ele><time>2026-05-01T11:24:29Z</time></trkpt><trkpt lat="40.79403417551567" lon="16.767847616751766"><ele>454.0</ele><time>2026-05-01T11:24:30Z</time></trkpt><trkpt lat="40.794069868591066" lon="16.76772847951578"><ele>454.0</ele><time>2026-05-01T11:24:31Z</time></trkpt><trkpt lat="40.79411683450714" lon="16.767600538388617"><ele>454.0</ele><time>2026-05-01T11:24:32Z</time></trkpt><trkpt lat="40.79417310259014" lon="16.76747742327932"><ele>454.0</ele><time>2026-05-01T11:24:33Z</time></trkpt><trkpt lat="40.79419405265431" lon="16.767373102086346"><ele>454.0</ele><time>2026-05-01T11:24:34Z</time></trkpt><trkpt lat="40.7941601584041" lon="16.76725431211147"><ele>454.0</ele><time>2026-05-01T11:24:36Z</time></trkpt><trkpt lat="40.79406814087495" lon="16.76720308006544"><ele>454.0</ele><time>2026-05-01T11:24:38Z</time></trkpt><trkpt lat="40.79399663666235" lon="16.767215484200484"><ele>454.0</ele><time>2026-05-01T11:24:39Z</time></trkpt><trkpt lat="40.793908354636045" lon="16.767243675465366"><ele>454.0</ele><time>2026-05-01T11:24:40Z</time></trkpt><trkpt lat="40.79379725578121" lon="16.767270677425675"><ele>454.0</ele><time>2026-05-01T11:24:40.999Z</time></trkpt><trkpt lat="40.79365755479845" lon="16.767251335075727"><ele>455.0</ele><time>2026-05-01T11:24:41.999Z</time></trkpt><trkpt lat="40.79350246293895" lon="16.767235553984886"><ele>456.0</ele><time>2026-05-01T11:24:42.999Z</time></trkpt><trkpt lat="40.79333400127954" lon="16.767204798049455"><ele>457.0</ele><time>2026-05-01T11:24:43.999Z</time></trkpt><trkpt lat="40.79313937517886" lon="16.767165754015792"><ele>457.0</ele><time>2026-05-01T11:24:44.999Z</time></trkpt><trkpt lat="40.79295237953473" lon="16.767137456224958"><ele>457.0</ele><time>2026-05-01T11:24:45.999Z</time></trkpt><trkpt lat="40.79279066230503" lon="16.76711545154864"><ele>457.0</ele><time>2026-05-01T11:24:46.999Z</time></trkpt><trkpt lat="40.79263896317139" lon="16.767070594953648"><ele>457.40000000000003</ele><time>2026-05-01T11:24:47.999Z</time></trkpt><trkpt lat="40.792515221962496" lon="16.767076534794697"><ele>457.80000000000007</ele><time>2026-05-01T11:24:48.999Z</time></trkpt><trkpt lat="40.792426501659705" lon="16.767039119113495"><ele>458.2</ele><time>2026-05-01T11:24:49.999Z</time></trkpt><trkpt lat="40.79234302127245" lon="16.76699737995133"><ele>458.6</ele><time>2026-05-01T11:24:50.999Z</time></trkpt><trkpt lat="40.792284400602696" lon="16.76693187984024"><ele>459.0</ele><time>2026-05-01T11:24:51.999Z</time></trkpt><trkpt lat="40.792223318567096" lon="16.766857500456393"><ele>459.0</ele><time>2026-05-01T11:24:52.999Z</time></trkpt><trkpt lat="40.792152907932945" lon="16.766789758584608"><ele>459.0</ele><time>2026-05-01T11:24:53.999Z</time></trkpt><trkpt lat="40.792037428369014" lon="16.76677343018478"><ele>459.0</ele><time>2026-05-01T11:24:54.999Z</time></trkpt><trkpt lat="40.79196223803728" lon="16.766739162125106"><ele>459.0</ele><time>2026-05-01T11:24:55.999Z</time></trkpt><trkpt lat="40.79186412478443" lon="16.766911898471296"><ele>459.0</ele><time>2026-05-01T11:24:56.999Z</time></trkpt><trkpt lat="40.791771204413635" lon="16.7670131441645"><ele>458.75</ele><time>2026-05-01T11:24:57.999Z</time></trkpt><trkpt lat="40.7916706328048" lon="16.76699719089715"><ele>458.5</ele><time>2026-05-01T11:24:58.999Z</time></trkpt><trkpt lat="40.79155877740122" lon="16.767003287404584"><ele>458.25</ele><time>2026-05-01T11:24:59.999Z</time></trkpt><trkpt lat="40.79140800687668" lon="16.766962888111586"><ele>458.0</ele><time>2026-05-01T11:25:00.999Z</time></trkpt><trkpt lat="40.79124335473293" lon="16.76693538216455"><ele>458.0</ele><time>2026-05-01T11:25:01.999Z</time></trkpt><trkpt lat="40.79106317429261" lon="16.76692175214492"><ele>458.0</ele><time>2026-05-01T11:25:02.999Z</time></trkpt><trkpt lat="40.790902530731515" lon="16.766934317476906"><ele>458.0</ele><time>2026-05-01T11:25:03.999Z</time></trkpt><trkpt lat="40.790717153616534" lon="16.766897540611986"><ele>458.0</ele><time>2026-05-01T11:25:04.999Z</time></trkpt><trkpt lat="40.79051800882246" lon="16.76684479456397"><ele>458.0</ele><time>2026-05-01T11:25:05.999Z</time></trkpt><trkpt lat="40.79030653545845" lon="16.766874134237188"><ele>458.0</ele><time>2026-05-01T11:25:06.999Z</time></trkpt><trkpt lat="40.7900476405206" lon="16.76675137426524"><ele>458.0</ele><time>2026-05-01T11:25:07.999Z</time></trkpt><trkpt lat="40.789837997303664" lon="16.76668150943355"><ele>458.0</ele><time>2026-05-01T11:25:08.999Z</time></trkpt><trkpt lat="40.78961074204868" lon="16.766571307336054"><ele>458.0</ele><time>2026-05-01T11:25:09.999Z</time></trkpt><trkpt lat="40.78937574228735" lon="16.766430117303518"><ele>458.0</ele><time>2026-05-01T11:25:10.999Z</time></trkpt><trkpt lat="40.78913688652475" lon="16.76626252090016"><ele>457.5</ele><time>2026-05-01T11:25:11.999Z</time></trkpt><trkpt lat="40.78890963836697" lon="16.766056957722775"><ele>457.0</ele><time>2026-05-01T11:25:12.999Z</time></trkpt><trkpt lat="40.78871433691916" lon="16.76583682914378"><ele>457.0</ele><time>2026-05-01T11:25:13.999Z</time></trkpt><trkpt lat="40.7885413876206" lon="16.76557924710106"><ele>457.0</ele><time>2026-05-01T11:25:14.999Z</time></trkpt><trkpt lat="40.78837982507735" lon="16.76529370169277"><ele>458.5</ele><time>2026-05-01T11:25:15.999Z</time></trkpt><trkpt lat="40.7882270605673" lon="16.765010996195613"><ele>460.0</ele><time>2026-05-01T11:25:16.999Z</time></trkpt><trkpt lat="40.788078714679344" lon="16.76472933568961"><ele>460.0</ele><time>2026-05-01T11:25:17.999Z</time></trkpt><trkpt lat="40.78789717837842" lon="16.76437123409892"><ele>460.0</ele><time>2026-05-01T11:25:18.999Z</time></trkpt><trkpt lat="40.78773130688396" lon="16.764056248805133"><ele>460.0</ele><time>2026-05-01T11:25:19.999Z</time></trkpt><trkpt lat="40.78755567632488" lon="16.763719431878787"><ele>460.0</ele><time>2026-05-01T11:25:20.999Z</time></trkpt><trkpt lat="40.78740675295569" lon="16.76337661783595"><ele>462.0</ele><time>2026-05-01T11:25:21.999Z</time></trkpt><trkpt lat="40.78729713982729" lon="16.763067211919754"><ele>464.0</ele><time>2026-05-01T11:25:22.999Z</time></trkpt><trkpt lat="40.787223757432145" lon="16.76276212457123"><ele>466.5</ele><time>2026-05-01T11:25:23.999Z</time></trkpt><trkpt lat="40.787167175827626" lon="16.762450566686027"><ele>469.0</ele><time>2026-05-01T11:25:24.999Z</time></trkpt><trkpt lat="40.78712462314059" lon="16.76215716010401"><ele>469.0</ele><time>2026-05-01T11:25:25.999Z</time></trkpt><trkpt lat="40.78709180545313" lon="16.761893630135653"><ele>469.0</ele><time>2026-05-01T11:25:26.999Z</time></trkpt><trkpt lat="40.78705419561198" lon="16.76167002636123"><ele>469.0</ele><time>2026-05-01T11:25:27.999Z</time></trkpt><trkpt lat="40.787046084454886" lon="16.761463026512917"><ele>469.6</ele><time>2026-05-01T11:25:28.999Z</time></trkpt><trkpt lat="40.787066612156394" lon="16.76130950067227"><ele>470.2</ele><time>2026-05-01T11:25:29.999Z</time></trkpt><trkpt lat="40.787079014664855" lon="16.761150678721826"><ele>470.80000000000007</ele><time>2026-05-01T11:25:31Z</time></trkpt><trkpt lat="40.78708848881539" lon="16.761016062260705"><ele>471.40000000000003</ele><time>2026-05-01T11:25:32Z</time></trkpt><trkpt lat="40.787112869277315" lon="16.760881972493298"><ele>472.0</ele><time>2026-05-01T11:25:33Z</time></trkpt><trkpt lat="40.787062405366086" lon="16.760760024587004"><ele>472.0</ele><time>2026-05-01T11:25:34Z</time></trkpt><trkpt lat="40.78697816527176" lon="16.760634213314074"><ele>472.0</ele><time>2026-05-01T11:25:35Z</time></trkpt><trkpt lat="40.78690542188018" lon="16.760468448687746"><ele>472.0</ele><time>2026-05-01T11:25:36Z</time></trkpt><trkpt lat="40.78685958905429" lon="16.760250387446124"><ele>472.0</ele><time>2026-05-01T11:25:37Z</time></trkpt><trkpt lat="40.78681071795968" lon="16.760024992670672"><ele>472.0</ele><time>2026-05-01T11:25:38Z</time></trkpt><trkpt lat="40.78676088295021" lon="16.759758990003277"><ele>472.0</ele><time>2026-05-01T11:25:39Z</time></trkpt><trkpt lat="40.7867079294106" lon="16.759491551735398"><ele>472.0</ele><time>2026-05-01T11:25:40Z</time></trkpt><trkpt lat="40.78657675198489" lon="16.75873143053187"><ele>472.0</ele><time>2026-05-01T11:25:43Z</time></trkpt><trkpt lat="40.78653660538097" lon="16.758541908396246"><ele>472.0</ele><time>2026-05-01T11:25:44Z</time></trkpt><trkpt lat="40.786503291056604" lon="16.758362024009603"><ele>472.0</ele><time>2026-05-01T11:25:45Z</time></trkpt><trkpt lat="40.78646143540283" lon="16.758183061963987"><ele>472.0</ele><time>2026-05-01T11:25:46Z</time></trkpt><trkpt lat="40.78641694061819" lon="16.75804766021433"><ele>472.33333333333337</ele><time>2026-05-01T11:25:47Z</time></trkpt><trkpt lat="40.786372280566134" lon="16.757939248253177"><ele>472.6666666666667</ele><time>2026-05-01T11:25:48Z</time></trkpt><trkpt lat="40.78633163636549" lon="16.757850773163916"><ele>473.0</ele><time>2026-05-01T11:25:49Z</time></trkpt><trkpt lat="40.78629182745572" lon="16.75776257500044"><ele>473.33333333333337</ele><time>2026-05-01T11:25:50Z</time></trkpt><trkpt lat="40.78624657663262" lon="16.75766169063767"><ele>473.6666666666667</ele><time>2026-05-01T11:25:51Z</time></trkpt><trkpt lat="40.78619276218193" lon="16.75756485248677"><ele>474.0</ele><time>2026-05-01T11:25:52Z</time></trkpt><trkpt lat="40.78613194635209" lon="16.75746238816886"><ele>474.0</ele><time>2026-05-01T11:25:53Z</time></trkpt><trkpt lat="40.78606464427794" lon="16.757361792409775"><ele>474.0</ele><time>2026-05-01T11:25:54Z</time></trkpt><trkpt lat="40.78599181525861" lon="16.75725578200738"><ele>474.0</ele><time>2026-05-01T11:25:55Z</time></trkpt><trkpt lat="40.785910283550734" lon="16.757151031611276"><ele>474.0</ele><time>2026-05-01T11:25:56Z</time></trkpt><trkpt lat="40.78582041720259" lon="16.757049865813915"><ele>474.0</ele><time>2026-05-01T11:25:57Z</time></trkpt><trkpt lat="40.785726897927745" lon="16.756954320932202"><ele>475.75</ele><time>2026-05-01T11:25:58Z</time></trkpt><trkpt lat="40.785629604833595" lon="16.75685352663522"><ele>477.5</ele><time>2026-05-01T11:25:59Z</time></trkpt><trkpt lat="40.78554009055732" lon="16.756761617299233"><ele>479.25</ele><time>2026-05-01T11:26:00Z</time></trkpt><trkpt lat="40.78545626629355" lon="16.756667596331955"><ele>481.0</ele><time>2026-05-01T11:26:01Z</time></trkpt><trkpt lat="40.78537374617136" lon="16.75657338850248"><ele>481.0</ele><time>2026-05-01T11:26:02Z</time></trkpt><trkpt lat="40.78528183274205" lon="16.75647822357096"><ele>481.0</ele><time>2026-05-01T11:26:03Z</time></trkpt><trkpt lat="40.785184437055236" lon="16.756379772490664"><ele>481.0</ele><time>2026-05-01T11:26:04Z</time></trkpt><trkpt lat="40.78508542994654" lon="16.756272611207173"><ele>481.0</ele><time>2026-05-01T11:26:05Z</time></trkpt><trkpt lat="40.784997537461265" lon="16.75617881108259"><ele>482.25</ele><time>2026-05-01T11:26:06Z</time></trkpt><trkpt lat="40.784906592155814" lon="16.756082313575842"><ele>483.5</ele><time>2026-05-01T11:26:07Z</time></trkpt><trkpt lat="40.78480214210408" lon="16.755980107090114"><ele>484.75</ele><time>2026-05-01T11:26:08Z</time></trkpt><trkpt lat="40.78469364417674" lon="16.75586671963891"><ele>486.0</ele><time>2026-05-01T11:26:09Z</time></trkpt><trkpt lat="40.78458118343576" lon="16.7557531593796"><ele>486.0</ele><time>2026-05-01T11:26:10Z</time></trkpt><trkpt lat="40.784465528860125" lon="16.755629610151605"><ele>486.0</ele><time>2026-05-01T11:26:11Z</time></trkpt><trkpt lat="40.78434917395548" lon="16.755501123833124"><ele>486.0</ele><time>2026-05-01T11:26:12Z</time></trkpt><trkpt lat="40.78422766325962" lon="16.755365846343004"><ele>487.33333333333337</ele><time>2026-05-01T11:26:13Z</time></trkpt><trkpt lat="40.784099176977314" lon="16.755242748943125"><ele>488.6666666666667</ele><time>2026-05-01T11:26:14Z</time></trkpt><trkpt lat="40.78397094474307" lon="16.755126226911493"><ele>490.0</ele><time>2026-05-01T11:26:15Z</time></trkpt><trkpt lat="40.783862979143535" lon="16.75500315875862"><ele>490.0</ele><time>2026-05-01T11:26:16Z</time></trkpt><trkpt lat="40.783762216391516" lon="16.754881461441993"><ele>490.0</ele><time>2026-05-01T11:26:17Z</time></trkpt><trkpt lat="40.783643219152005" lon="16.75477726399212"><ele>490.0</ele><time>2026-05-01T11:26:18Z</time></trkpt><trkpt lat="40.783532966906236" lon="16.75465904699425"><ele>490.0</ele><time>2026-05-01T11:26:19Z</time></trkpt><trkpt lat="40.78342327542448" lon="16.754542047443724"><ele>490.5</ele><time>2026-05-01T11:26:20Z</time></trkpt><trkpt lat="40.78331186961225" lon="16.75442442958347"><ele>491.0</ele><time>2026-05-01T11:26:21Z</time></trkpt><trkpt lat="40.78319833393878" lon="16.754300061878926"><ele>491.5</ele><time>2026-05-01T11:26:22Z</time></trkpt><trkpt lat="40.78311490743734" lon="16.75415765355287"><ele>492.0</ele><time>2026-05-01T11:26:23Z</time></trkpt><trkpt lat="40.78302230408734" lon="16.754007724870974"><ele>492.0</ele><time>2026-05-01T11:26:24Z</time></trkpt><trkpt lat="40.78292461798881" lon="16.75383634481938"><ele>492.0</ele><time>2026-05-01T11:26:25Z</time></trkpt><trkpt lat="40.782834198087" lon="16.753669866780434"><ele>492.0</ele><time>2026-05-01T11:26:26Z</time></trkpt><trkpt lat="40.78272678559502" lon="16.753488535581628"><ele>493.0</ele><time>2026-05-01T11:26:27Z</time></trkpt><trkpt lat="40.78265719871289" lon="16.753302885959833"><ele>494.0</ele><time>2026-05-01T11:26:28Z</time></trkpt><trkpt lat="40.78258670057116" lon="16.753124107557177"><ele>495.0</ele><time>2026-05-01T11:26:29Z</time></trkpt><trkpt lat="40.78254045075658" lon="16.752904534468115"><ele>495.33333333333337</ele><time>2026-05-01T11:26:30Z</time></trkpt><trkpt lat="40.78247503989657" lon="16.752701165626192"><ele>495.6666666666667</ele><time>2026-05-01T11:26:31Z</time></trkpt><trkpt lat="40.782451594948164" lon="16.752501636970454"><ele>496.0</ele><time>2026-05-01T11:26:32Z</time></trkpt><trkpt lat="40.78241098547237" lon="16.7523325186582"><ele>496.0</ele><time>2026-05-01T11:26:33Z</time></trkpt><trkpt lat="40.7823737415247" lon="16.752144402228325"><ele>496.0</ele><time>2026-05-01T11:26:34Z</time></trkpt><trkpt lat="40.78233738489959" lon="16.751935382800323"><ele>496.0</ele><time>2026-05-01T11:26:35Z</time></trkpt><trkpt lat="40.78231020494152" lon="16.751756632122273"><ele>496.0</ele><time>2026-05-01T11:26:36Z</time></trkpt><trkpt lat="40.78229753001781" lon="16.751602421207604"><ele>496.33333333333337</ele><time>2026-05-01T11:26:37Z</time></trkpt><trkpt lat="40.78232015869787" lon="16.75145974024643"><ele>496.6666666666667</ele><time>2026-05-01T11:26:38Z</time></trkpt><trkpt lat="40.7823491943819" lon="16.751343116851224"><ele>497.0</ele><time>2026-05-01T11:26:39Z</time></trkpt><trkpt lat="40.782349384107484" lon="16.75124298871656"><ele>497.33333333333337</ele><time>2026-05-01T11:26:40Z</time></trkpt><trkpt lat="40.782297440416734" lon="16.751180273885794"><ele>497.6666666666667</ele><time>2026-05-01T11:26:41Z</time></trkpt><trkpt lat="40.78224124035692" lon="16.751126910454058"><ele>498.0</ele><time>2026-05-01T11:26:42Z</time></trkpt><trkpt lat="40.78220639662599" lon="16.751041837008547"><ele>497.75</ele><time>2026-05-01T11:26:43Z</time></trkpt><trkpt lat="40.78218466410778" lon="16.750909590727513"><ele>497.5</ele><time>2026-05-01T11:26:43.999Z</time></trkpt><trkpt lat="40.782162608078714" lon="16.750758299507925"><ele>497.25</ele><time>2026-05-01T11:26:44.999Z</time></trkpt><trkpt lat="40.782135054864774" lon="16.750579878181302"><ele>497.0</ele><time>2026-05-01T11:26:45.999Z</time></trkpt><trkpt lat="40.78210612947398" lon="16.750377191443512"><ele>497.66666666666663</ele><time>2026-05-01T11:26:46.999Z</time></trkpt><trkpt lat="40.782099515249655" lon="16.750167837461152"><ele>498.33333333333337</ele><time>2026-05-01T11:26:47.999Z</time></trkpt><trkpt lat="40.782075449306106" lon="16.749929430544523"><ele>499.0</ele><time>2026-05-01T11:26:48.999Z</time></trkpt><trkpt lat="40.78208155609923" lon="16.749666036682278"><ele>499.0</ele><time>2026-05-01T11:26:49.999Z</time></trkpt><trkpt lat="40.78207059328936" lon="16.74945562894665"><ele>499.0</ele><time>2026-05-01T11:26:50.999Z</time></trkpt><trkpt lat="40.78207585874864" lon="16.74924101074807"><ele>499.0</ele><time>2026-05-01T11:26:51.999Z</time></trkpt><trkpt lat="40.782098240725915" lon="16.748978906850205"><ele>498.33333333333337</ele><time>2026-05-01T11:26:52.999Z</time></trkpt><trkpt lat="40.78210409977903" lon="16.748718601700535"><ele>497.66666666666663</ele><time>2026-05-01T11:26:53.999Z</time></trkpt><trkpt lat="40.782137693666265" lon="16.748451960729106"><ele>497.0</ele><time>2026-05-01T11:26:54.999Z</time></trkpt><trkpt lat="40.78217249781767" lon="16.74821804805043"><ele>496.0</ele><time>2026-05-01T11:26:55.999Z</time></trkpt><trkpt lat="40.782204295213326" lon="16.74801238971552"><ele>495.0</ele><time>2026-05-01T11:26:56.999Z</time></trkpt><trkpt lat="40.78223611331019" lon="16.747825075500494"><ele>494.0</ele><time>2026-05-01T11:26:57.999Z</time></trkpt><trkpt lat="40.782266706355216" lon="16.74765844558443"><ele>493.0</ele><time>2026-05-01T11:26:58.999Z</time></trkpt><trkpt lat="40.782304574377974" lon="16.747510961519037"><ele>492.59999999999997</ele><time>2026-05-01T11:26:59.999Z</time></trkpt><trkpt lat="40.78234049870316" lon="16.747392394210042"><ele>492.19999999999993</ele><time>2026-05-01T11:27:00.999Z</time></trkpt><trkpt lat="40.78236909413482" lon="16.747295753341497"><ele>491.8</ele><time>2026-05-01T11:27:01.999Z</time></trkpt><trkpt lat="40.7823611257158" lon="16.74719430272603"><ele>491.4</ele><time>2026-05-01T11:27:03.999Z</time></trkpt><trkpt lat="40.78239205475777" lon="16.747121780615952"><ele>491.0</ele><time>2026-05-01T11:28:59.999Z</time></trkpt><trkpt lat="40.782284058267145" lon="16.747015789284422"><ele>491.0</ele><time>2026-05-01T11:29:00.999Z</time></trkpt><trkpt lat="40.78219446266602" lon="16.746945080503885"><ele>491.0</ele><time>2026-05-01T11:29:01.999Z</time></trkpt><trkpt lat="40.78210687191139" lon="16.746837436074443"><ele>491.0</ele><time>2026-05-01T11:29:02.999Z</time></trkpt><trkpt lat="40.78200490064513" lon="16.74673056710404"><ele>491.0</ele><time>2026-05-01T11:29:03.999Z</time></trkpt><trkpt lat="40.781887700567566" lon="16.746614183026182"><ele>490.3333333333333</ele><time>2026-05-01T11:29:04.999Z</time></trkpt><trkpt lat="40.781772822351265" lon="16.74649304635417"><ele>489.66666666666663</ele><time>2026-05-01T11:29:05.999Z</time></trkpt><trkpt lat="40.781669472672185" lon="16.746344164784336"><ele>489.0</ele><time>2026-05-01T11:29:06.999Z</time></trkpt><trkpt lat="40.781538206933476" lon="16.746205475446875"><ele>489.0</ele><time>2026-05-01T11:29:07.999Z</time></trkpt><trkpt lat="40.78140909163561" lon="16.746067763336335"><ele>489.0</ele><time>2026-05-01T11:29:08.999Z</time></trkpt><trkpt lat="40.78127537864227" lon="16.74592449495899"><ele>489.0</ele><time>2026-05-01T11:29:09.999Z</time></trkpt><trkpt lat="40.78112904256763" lon="16.745777132347417"><ele>487.0</ele><time>2026-05-01T11:29:10.999Z</time></trkpt><trkpt lat="40.78098034374053" lon="16.74563534861521"><ele>485.0</ele><time>2026-05-01T11:29:11.999Z</time></trkpt><trkpt lat="40.780817902467696" lon="16.74548521151968"><ele>483.0</ele><time>2026-05-01T11:29:12.999Z</time></trkpt><trkpt lat="40.780631798707795" lon="16.745330637502192"><ele>482.66666666666663</ele><time>2026-05-01T11:29:13.999Z</time></trkpt><trkpt lat="40.78043168183388" lon="16.745198897138287"><ele>482.3333333333333</ele><time>2026-05-01T11:29:14.999Z</time></trkpt><trkpt lat="40.78025395099424" lon="16.745050471213432"><ele>482.0</ele><time>2026-05-01T11:29:15.999Z</time></trkpt><trkpt lat="40.78005385662241" lon="16.744939635438282"><ele>481.0</ele><time>2026-05-01T11:29:16.999Z</time></trkpt><trkpt lat="40.77985710656279" lon="16.744812137870728"><ele>480.0</ele><time>2026-05-01T11:29:17.999Z</time></trkpt><trkpt lat="40.77964869591839" lon="16.744693859948686"><ele>479.0</ele><time>2026-05-01T11:29:18.999Z</time></trkpt><trkpt lat="40.779430886668955" lon="16.744589265456558"><ele>478.0</ele><time>2026-05-01T11:29:19.999Z</time></trkpt><trkpt lat="40.77920102897956" lon="16.74449324899996"><ele>477.0</ele><time>2026-05-01T11:29:20.999Z</time></trkpt><trkpt lat="40.77896756429846" lon="16.744416609977044"><ele>476.0</ele><time>2026-05-01T11:29:21.999Z</time></trkpt><trkpt lat="40.778737623513166" lon="16.74434306378644"><ele>475.0</ele><time>2026-05-01T11:29:22.999Z</time></trkpt><trkpt lat="40.77850183150749" lon="16.74428216551438"><ele>474.6666666666667</ele><time>2026-05-01T11:29:23.999Z</time></trkpt><trkpt lat="40.77828801789058" lon="16.74420355160854"><ele>474.33333333333337</ele><time>2026-05-01T11:29:24.999Z</time></trkpt><trkpt lat="40.77808163157049" lon="16.74414525238678"><ele>474.0</ele><time>2026-05-01T11:29:25.999Z</time></trkpt><trkpt lat="40.77787184189915" lon="16.744084555387513"><ele>473.0</ele><time>2026-05-01T11:29:26.999Z</time></trkpt><trkpt lat="40.777653971148524" lon="16.744021390437712"><ele>472.0</ele><time>2026-05-01T11:29:27.999Z</time></trkpt><trkpt lat="40.77743004586705" lon="16.743957215878968"><ele>472.0</ele><time>2026-05-01T11:29:28.999Z</time></trkpt><trkpt lat="40.77719883660645" lon="16.743895734545823"><ele>472.0</ele><time>2026-05-01T11:29:29.999Z</time></trkpt><trkpt lat="40.776947320592065" lon="16.743848814187047"><ele>471.5</ele><time>2026-05-01T11:29:30.999Z</time></trkpt><trkpt lat="40.77668956234752" lon="16.743742898276256"><ele>471.0</ele><time>2026-05-01T11:29:31.999Z</time></trkpt><trkpt lat="40.77643208451826" lon="16.743635967023142"><ele>471.5</ele><time>2026-05-01T11:29:32.999Z</time></trkpt><trkpt lat="40.77619005116041" lon="16.74350994674019"><ele>472.0</ele><time>2026-05-01T11:29:33.999Z</time></trkpt><trkpt lat="40.77595270490656" lon="16.74336086844958"><ele>472.0</ele><time>2026-05-01T11:29:34.999Z</time></trkpt><trkpt lat="40.7757113084647" lon="16.743189227491442"><ele>472.0</ele><time>2026-05-01T11:29:35.999Z</time></trkpt><trkpt lat="40.77548370607734" lon="16.743009308179698"><ele>472.0</ele><time>2026-05-01T11:29:36.999Z</time></trkpt><trkpt lat="40.77527381318032" lon="16.742820576869708"><ele>472.0</ele><time>2026-05-01T11:29:37.999Z</time></trkpt><trkpt lat="40.77507304324661" lon="16.742622950324314"><ele>471.0</ele><time>2026-05-01T11:29:38.999Z</time></trkpt><trkpt lat="40.77489451196808" lon="16.742423648600496"><ele>470.0</ele><time>2026-05-01T11:29:39.999Z</time></trkpt><trkpt lat="40.77472302363236" lon="16.742211285362096"><ele>470.0</ele><time>2026-05-01T11:29:40.999Z</time></trkpt><trkpt lat="40.774542558977295" lon="16.74197801078687"><ele>470.0</ele><time>2026-05-01T11:29:41.999Z</time></trkpt><trkpt lat="40.77435001262717" lon="16.74173077820024"><ele>468.0</ele><time>2026-05-01T11:29:43Z</time></trkpt><trkpt lat="40.77415715007297" lon="16.74148607530843"><ele>466.0</ele><time>2026-05-01T11:29:44Z</time></trkpt><trkpt lat="40.77395844372556" lon="16.741262684936398"><ele>466.0</ele><time>2026-05-01T11:29:45Z</time></trkpt><trkpt lat="40.77378790181181" lon="16.74101522884803"><ele>466.0</ele><time>2026-05-01T11:29:46Z</time></trkpt><trkpt lat="40.77359921536858" lon="16.740772458302256"><ele>465.5</ele><time>2026-05-01T11:29:47Z</time></trkpt><trkpt lat="40.7734080060586" lon="16.740526434891496"><ele>465.0</ele><time>2026-05-01T11:29:48Z</time></trkpt><trkpt lat="40.77322401503025" lon="16.74029201764553"><ele>465.5</ele><time>2026-05-01T11:29:49Z</time></trkpt><trkpt lat="40.77303670833075" lon="16.740086060709096"><ele>466.0</ele><time>2026-05-01T11:29:50Z</time></trkpt><trkpt lat="40.77285327071394" lon="16.739849762756265"><ele>465.0</ele><time>2026-05-01T11:29:51Z</time></trkpt><trkpt lat="40.77266765403008" lon="16.739608572375673"><ele>464.0</ele><time>2026-05-01T11:29:52Z</time></trkpt><trkpt lat="40.77248509981864" lon="16.73938173387834"><ele>463.5</ele><time>2026-05-01T11:29:53Z</time></trkpt><trkpt lat="40.772307497459614" lon="16.739156829451712"><ele>463.0</ele><time>2026-05-01T11:29:54Z</time></trkpt><trkpt lat="40.772136691483595" lon="16.738931306018266"><ele>463.0</ele><time>2026-05-01T11:29:55Z</time></trkpt><trkpt lat="40.77196474201438" lon="16.738707594165376"><ele>463.0</ele><time>2026-05-01T11:29:56Z</time></trkpt><trkpt lat="40.77179103440133" lon="16.738483453474576"><ele>462.0</ele><time>2026-05-01T11:29:57Z</time></trkpt><trkpt lat="40.77161853519459" lon="16.738273221211628"><ele>461.0</ele><time>2026-05-01T11:29:58Z</time></trkpt><trkpt lat="40.771445276180394" lon="16.738058521212572"><ele>461.0</ele><time>2026-05-01T11:29:59Z</time></trkpt><trkpt lat="40.771258784062354" lon="16.73781977091561"><ele>461.0</ele><time>2026-05-01T11:30:00Z</time></trkpt><trkpt lat="40.7710567913985" lon="16.73759036430215"><ele>459.5</ele><time>2026-05-01T11:30:01Z</time></trkpt><trkpt lat="40.7708503236817" lon="16.737318385405462"><ele>458.0</ele><time>2026-05-01T11:30:02Z</time></trkpt><trkpt lat="40.77064122901128" lon="16.737015742380144"><ele>458.0</ele><time>2026-05-01T11:30:03Z</time></trkpt><trkpt lat="40.77038953371866" lon="16.73670221474255"><ele>458.0</ele><time>2026-05-01T11:30:04Z</time></trkpt><trkpt lat="40.77014312047494" lon="16.73640367830194"><ele>458.0</ele><time>2026-05-01T11:30:05Z</time></trkpt><trkpt lat="40.769887992421474" lon="16.736093737731032"><ele>458.0</ele><time>2026-05-01T11:30:06Z</time></trkpt><trkpt lat="40.76963777788145" lon="16.735782478871855"><ele>456.5</ele><time>2026-05-01T11:30:07Z</time></trkpt><trkpt lat="40.769390905967946" lon="16.735474510681527"><ele>455.0</ele><time>2026-05-01T11:30:08Z</time></trkpt><trkpt lat="40.7691391599482" lon="16.735199767953194"><ele>455.0</ele><time>2026-05-01T11:30:09Z</time></trkpt><trkpt lat="40.76886669606549" lon="16.734884548085663"><ele>455.0</ele><time>2026-05-01T11:30:10Z</time></trkpt><trkpt lat="40.76858866147647" lon="16.73458541388492"><ele>456.5</ele><time>2026-05-01T11:30:11Z</time></trkpt><trkpt lat="40.768321014585204" lon="16.734309713212166"><ele>458.0</ele><time>2026-05-01T11:30:12Z</time></trkpt><trkpt lat="40.7680738989142" lon="16.73403141587192"><ele>458.0</ele><time>2026-05-01T11:30:13Z</time></trkpt><trkpt lat="40.76782584671052" lon="16.733742394006505"><ele>458.0</ele><time>2026-05-01T11:30:14Z</time></trkpt><trkpt lat="40.76756469372185" lon="16.73347705031286"><ele>459.5</ele><time>2026-05-01T11:30:15Z</time></trkpt><trkpt lat="40.7673022427425" lon="16.733188483977674"><ele>461.0</ele><time>2026-05-01T11:30:16Z</time></trkpt><trkpt lat="40.76703492903695" lon="16.7328786453751"><ele>461.5</ele><time>2026-05-01T11:30:17Z</time></trkpt><trkpt lat="40.766777196600586" lon="16.73259688732193"><ele>462.0</ele><time>2026-05-01T11:30:18Z</time></trkpt><trkpt lat="40.76654246819089" lon="16.732328253258"><ele>462.0</ele><time>2026-05-01T11:30:19Z</time></trkpt><trkpt lat="40.76626762860906" lon="16.73203455756434"><ele>462.0</ele><time>2026-05-01T11:30:20Z</time></trkpt><trkpt lat="40.766202976599" lon="16.731653699251325"><ele>462.0</ele><time>2026-05-01T11:30:21Z</time></trkpt><trkpt lat="40.76601644449679" lon="16.731275878108892"><ele>462.0</ele><time>2026-05-01T11:30:22Z</time></trkpt><trkpt lat="40.765837870354844" lon="16.73085214992542"><ele>461.0</ele><time>2026-05-01T11:30:23Z</time></trkpt><trkpt lat="40.765693939671976" lon="16.730343222990413"><ele>460.0</ele><time>2026-05-01T11:30:24Z</time></trkpt><trkpt lat="40.765556163536466" lon="16.729906802934046"><ele>460.0</ele><time>2026-05-01T11:30:25Z</time></trkpt><trkpt lat="40.76544156992781" lon="16.72951283374394"><ele>460.0</ele><time>2026-05-01T11:30:26Z</time></trkpt><trkpt lat="40.76531311784884" lon="16.729122143479433"><ele>459.5</ele><time>2026-05-01T11:30:27Z</time></trkpt><trkpt lat="40.765196325622576" lon="16.728725037258364"><ele>459.0</ele><time>2026-05-01T11:30:28Z</time></trkpt><trkpt lat="40.76513921315288" lon="16.728271497211832"><ele>458.5</ele><time>2026-05-01T11:30:29Z</time></trkpt><trkpt lat="40.76502331437142" lon="16.727875617310897"><ele>458.0</ele><time>2026-05-01T11:30:30Z</time></trkpt><trkpt lat="40.76492176429181" lon="16.72746898323143"><ele>458.0</ele><time>2026-05-01T11:30:31Z</time></trkpt><trkpt lat="40.76476543715477" lon="16.727052361488933"><ele>458.0</ele><time>2026-05-01T11:30:32Z</time></trkpt><trkpt lat="40.76457451758937" lon="16.72665831381228"><ele>457.5</ele><time>2026-05-01T11:30:33Z</time></trkpt><trkpt lat="40.76437420865997" lon="16.72626047303894"><ele>457.0</ele><time>2026-05-01T11:30:34Z</time></trkpt><trkpt lat="40.76419451934689" lon="16.72587083812756"><ele>457.0</ele><time>2026-05-01T11:30:35Z</time></trkpt><trkpt lat="40.764004177396345" lon="16.72549087742975"><ele>457.0</ele><time>2026-05-01T11:30:36Z</time></trkpt><trkpt lat="40.76381123027276" lon="16.725104913293652"><ele>457.5</ele><time>2026-05-01T11:30:37Z</time></trkpt><trkpt lat="40.763606620720886" lon="16.72470578186121"><ele>458.0</ele><time>2026-05-01T11:30:38Z</time></trkpt><trkpt lat="40.763453735691826" lon="16.724330973165905"><ele>459.5</ele><time>2026-05-01T11:30:39Z</time></trkpt><trkpt lat="40.76325660612602" lon="16.723945556839574"><ele>461.0</ele><time>2026-05-01T11:30:40Z</time></trkpt><trkpt lat="40.763066321347296" lon="16.72355643808293"><ele>461.5</ele><time>2026-05-01T11:30:41Z</time></trkpt><trkpt lat="40.76289101651726" lon="16.723164084087152"><ele>462.0</ele><time>2026-05-01T11:30:42Z</time></trkpt><trkpt lat="40.76270900559285" lon="16.72277253086741"><ele>462.0</ele><time>2026-05-01T11:30:43Z</time></trkpt><trkpt lat="40.76252173326201" lon="16.722406599670535"><ele>462.0</ele><time>2026-05-01T11:30:43.999Z</time></trkpt><trkpt lat="40.76231207868502" lon="16.722029963137054"><ele>462.5</ele><time>2026-05-01T11:30:44.999Z</time></trkpt><trkpt lat="40.762052088174386" lon="16.721677565388898"><ele>463.0</ele><time>2026-05-01T11:30:45.999Z</time></trkpt><trkpt lat="40.76175423934846" lon="16.721315228114594"><ele>462.0</ele><time>2026-05-01T11:30:46.999Z</time></trkpt><trkpt lat="40.761462097995306" lon="16.720916380967942"><ele>461.0</ele><time>2026-05-01T11:30:47.999Z</time></trkpt><trkpt lat="40.76117661945599" lon="16.720523224338137"><ele>460.5</ele><time>2026-05-01T11:30:48.999Z</time></trkpt><trkpt lat="40.76089413193646" lon="16.72015623982072"><ele>460.0</ele><time>2026-05-01T11:30:49.999Z</time></trkpt><trkpt lat="40.76057463432395" lon="16.71985667304695"><ele>460.0</ele><time>2026-05-01T11:30:50.999Z</time></trkpt><trkpt lat="40.76022814291932" lon="16.719546485125296"><ele>460.0</ele><time>2026-05-01T11:30:51.999Z</time></trkpt><trkpt lat="40.75991307529143" lon="16.719266255402143"><ele>459.0</ele><time>2026-05-01T11:30:52.999Z</time></trkpt><trkpt lat="40.759654784558116" lon="16.719015840112657"><ele>458.0</ele><time>2026-05-01T11:30:53.999Z</time></trkpt><trkpt lat="40.75944793803259" lon="16.71877040475369"><ele>458.66666666666663</ele><time>2026-05-01T11:30:54.999Z</time></trkpt><trkpt lat="40.75925852238011" lon="16.718587184207664"><ele>459.33333333333337</ele><time>2026-05-01T11:30:55.999Z</time></trkpt><trkpt lat="40.759083694240125" lon="16.718469561777155"><ele>460.0</ele><time>2026-05-01T11:30:56.999Z</time></trkpt><trkpt lat="40.75891332766734" lon="16.718364033863406"><ele>460.0</ele><time>2026-05-01T11:30:57.999Z</time></trkpt><trkpt lat="40.75868806515265" lon="16.718321873356757"><ele>460.0</ele><time>2026-05-01T11:30:58.999Z</time></trkpt><trkpt lat="40.758424792939806" lon="16.718337264593423"><ele>460.5</ele><time>2026-05-01T11:30:59.999Z</time></trkpt><trkpt lat="40.75814658351133" lon="16.71841913053691"><ele>461.0</ele><time>2026-05-01T11:31:00.999Z</time></trkpt><trkpt lat="40.75782978663508" lon="16.71848111774703"><ele>461.5</ele><time>2026-05-01T11:31:01.999Z</time></trkpt><trkpt lat="40.75750839720116" lon="16.71854676378853"><ele>462.0</ele><time>2026-05-01T11:31:02.999Z</time></trkpt><trkpt lat="40.75722466063094" lon="16.7186020200145"><ele>461.0</ele><time>2026-05-01T11:31:03.999Z</time></trkpt><trkpt lat="40.75697401986072" lon="16.71863390745821"><ele>460.0</ele><time>2026-05-01T11:31:04.999Z</time></trkpt><trkpt lat="40.756792668966725" lon="16.718613262707066"><ele>459.0</ele><time>2026-05-01T11:31:05.999Z</time></trkpt><trkpt lat="40.75662518032901" lon="16.71854046189474"><ele>459.0</ele><time>2026-05-01T11:31:06.999Z</time></trkpt><trkpt lat="40.75642759143324" lon="16.71841370133814"><ele>459.0</ele><time>2026-05-01T11:31:07.999Z</time></trkpt><trkpt lat="40.75624656104382" lon="16.718279252712268"><ele>459.0</ele><time>2026-05-01T11:31:08.999Z</time></trkpt><trkpt lat="40.75614055657878" lon="16.718183400026913"><ele>459.0</ele><time>2026-05-01T11:31:09.999Z</time></trkpt><trkpt lat="40.756065576834196" lon="16.71807696035773"><ele>459.0</ele><time>2026-05-01T11:31:10.999Z</time></trkpt><trkpt lat="40.75597463098019" lon="16.717848829546067"><ele>459.0</ele><time>2026-05-01T11:31:11.999Z</time></trkpt><trkpt lat="40.755916415145826" lon="16.717593016917302"><ele>455.66666666666663</ele><time>2026-05-01T11:31:12.999Z</time></trkpt><trkpt lat="40.755857406212705" lon="16.717314310861163"><ele>452.3333333333333</ele><time>2026-05-01T11:31:13.999Z</time></trkpt><trkpt lat="40.75575180097637" lon="16.717091662757863"><ele>449.0</ele><time>2026-05-01T11:31:14.999Z</time></trkpt><trkpt lat="40.755662532456796" lon="16.71685744130057"><ele>449.0</ele><time>2026-05-01T11:31:15.999Z</time></trkpt><trkpt lat="40.75545523497213" lon="16.71666268745033"><ele>449.0</ele><time>2026-05-01T11:31:16.999Z</time></trkpt><trkpt lat="40.75527139063212" lon="16.716470651068605"><ele>444.0</ele><time>2026-05-01T11:31:17.999Z</time></trkpt><trkpt lat="40.75512758928994" lon="16.71625385737307"><ele>439.0</ele><time>2026-05-01T11:31:18.999Z</time></trkpt><trkpt lat="40.754989343440705" lon="16.716005633464977"><ele>439.0</ele><time>2026-05-01T11:31:19.999Z</time></trkpt><trkpt lat="40.75485399260288" lon="16.715708111353887"><ele>439.0</ele><time>2026-05-01T11:31:20.999Z</time></trkpt><trkpt lat="40.7547095275704" lon="16.71538300975918"><ele>440.33333333333337</ele><time>2026-05-01T11:31:21.999Z</time></trkpt><trkpt lat="40.754596855921285" lon="16.71511383617575"><ele>441.66666666666663</ele><time>2026-05-01T11:31:22.999Z</time></trkpt><trkpt lat="40.75451533221354" lon="16.71486787783604"><ele>443.0</ele><time>2026-05-01T11:31:23.999Z</time></trkpt><trkpt lat="40.75445972436783" lon="16.7146249220379"><ele>443.0</ele><time>2026-05-01T11:31:24.999Z</time></trkpt><trkpt lat="40.75444360221819" lon="16.714426753949024"><ele>443.0</ele><time>2026-05-01T11:31:25.999Z</time></trkpt><trkpt lat="40.75448836781145" lon="16.714282870929317"><ele>443.0</ele><time>2026-05-01T11:31:26.999Z</time></trkpt><trkpt lat="40.75455589386537" lon="16.71417254022519"><ele>443.0</ele><time>2026-05-01T11:31:27.999Z</time></trkpt><trkpt lat="40.75464515770147" lon="16.7140333672122"><ele>441.66666666666663</ele><time>2026-05-01T11:31:28.999Z</time></trkpt><trkpt lat="40.7547157210186" lon="16.71383896097898"><ele>440.33333333333337</ele><time>2026-05-01T11:31:29.999Z</time></trkpt><trkpt lat="40.75470614634119" lon="16.71365801819605"><ele>439.0</ele><time>2026-05-01T11:31:30.999Z</time></trkpt><trkpt lat="40.754657325192305" lon="16.713468205542135"><ele>437.6666666666667</ele><time>2026-05-01T11:31:31.999Z</time></trkpt><trkpt lat="40.75459492395385" lon="16.71326702336848"><ele>436.33333333333337</ele><time>2026-05-01T11:31:32.999Z</time></trkpt><trkpt lat="40.754510827884836" lon="16.712958644377945"><ele>435.0</ele><time>2026-05-01T11:31:33.999Z</time></trkpt><trkpt lat="40.75442750533062" lon="16.71268478961465"><ele>434.66666666666663</ele><time>2026-05-01T11:31:34.999Z</time></trkpt><trkpt lat="40.754389066573594" lon="16.712437809770456"><ele>434.3333333333333</ele><time>2026-05-01T11:31:35.999Z</time></trkpt><trkpt lat="40.754383956539534" lon="16.712195795112404"><ele>434.0</ele><time>2026-05-01T11:31:36.999Z</time></trkpt><trkpt lat="40.754415239968424" lon="16.711992246704597"><ele>433.25</ele><time>2026-05-01T11:31:37.999Z</time></trkpt><trkpt lat="40.754465971024075" lon="16.711785886599188"><ele>432.5</ele><time>2026-05-01T11:31:38.999Z</time></trkpt><trkpt lat="40.7545070311122" lon="16.711584075841397"><ele>431.75</ele><time>2026-05-01T11:31:39.999Z</time></trkpt><trkpt lat="40.75451356165606" lon="16.711451798411172"><ele>431.0</ele><time>2026-05-01T11:31:40.999Z</time></trkpt><trkpt lat="40.75448753774689" lon="16.711352074209746"><ele>431.0</ele><time>2026-05-01T11:31:41.999Z</time></trkpt><trkpt lat="40.7544048668842" lon="16.711276178324677"><ele>431.0</ele><time>2026-05-01T11:31:42.999Z</time></trkpt><trkpt lat="40.75427833834875" lon="16.711276868104513"><ele>431.0</ele><time>2026-05-01T11:31:43.999Z</time></trkpt><trkpt lat="40.754152190940836" lon="16.711316393104106"><ele>431.0</ele><time>2026-05-01T11:31:44.999Z</time></trkpt><trkpt lat="40.753964966450376" lon="16.71145821159064"><ele>425.5</ele><time>2026-05-01T11:31:45.999Z</time></trkpt><trkpt lat="40.75375932919517" lon="16.711618314810828"><ele>420.0</ele><time>2026-05-01T11:31:46.999Z</time></trkpt><trkpt lat="40.75353883923768" lon="16.711796724984534"><ele>418.0</ele><time>2026-05-01T11:31:47.999Z</time></trkpt><trkpt lat="40.75332170144869" lon="16.712043339899967"><ele>416.0</ele><time>2026-05-01T11:31:48.999Z</time></trkpt><trkpt lat="40.75310583078085" lon="16.712307321811206"><ele>416.0</ele><time>2026-05-01T11:31:49.999Z</time></trkpt><trkpt lat="40.75284761787073" lon="16.71252035192917"><ele>416.0</ele><time>2026-05-01T11:31:50.999Z</time></trkpt><trkpt lat="40.75262689599289" lon="16.71272163754654"><ele>414.5</ele><time>2026-05-01T11:31:51.999Z</time></trkpt><trkpt lat="40.75246607627048" lon="16.712842161782536"><ele>413.0</ele><time>2026-05-01T11:31:52.999Z</time></trkpt><trkpt lat="40.75234375046702" lon="16.71290499895421"><ele>411.5</ele><time>2026-05-01T11:31:53.999Z</time></trkpt><trkpt lat="40.75223481664162" lon="16.712920340865285"><ele>410.0</ele><time>2026-05-01T11:31:54.999Z</time></trkpt><trkpt lat="40.75214993856058" lon="16.712889349329867"><ele>410.0</ele><time>2026-05-01T11:31:56Z</time></trkpt><trkpt lat="40.75211132005418" lon="16.71281185577205"><ele>410.0</ele><time>2026-05-01T11:31:57Z</time></trkpt><trkpt lat="40.752071390747695" lon="16.712735130177975"><ele>410.0</ele><time>2026-05-01T11:31:58Z</time></trkpt><trkpt lat="40.75208110190352" lon="16.7126073752137"><ele>410.0</ele><time>2026-05-01T11:31:59Z</time></trkpt><trkpt lat="40.75210424357571" lon="16.71242612212887"><ele>410.0</ele><time>2026-05-01T11:32:00Z</time></trkpt><trkpt lat="40.75213074008591" lon="16.71218347902828"><ele>409.3333333333333</ele><time>2026-05-01T11:32:01Z</time></trkpt><trkpt lat="40.75215998995081" lon="16.711910663991468"><ele>408.66666666666663</ele><time>2026-05-01T11:32:02Z</time></trkpt><trkpt lat="40.75219166275221" lon="16.71161890577025"><ele>408.0</ele><time>2026-05-01T11:32:03Z</time></trkpt><trkpt lat="40.752227865484286" lon="16.711322096087542"><ele>406.0</ele><time>2026-05-01T11:32:04Z</time></trkpt><trkpt lat="40.75228881577628" lon="16.71102859785774"><ele>404.0</ele><time>2026-05-01T11:32:05Z</time></trkpt><trkpt lat="40.752378940697824" lon="16.710741695922795"><ele>404.0</ele><time>2026-05-01T11:32:06Z</time></trkpt><trkpt lat="40.752481227490875" lon="16.710449416382197"><ele>404.0</ele><time>2026-05-01T11:32:07Z</time></trkpt><trkpt lat="40.75257753436122" lon="16.710175796561362"><ele>405.0</ele><time>2026-05-01T11:32:08Z</time></trkpt><trkpt lat="40.752677860098785" lon="16.709892102719984"><ele>406.0</ele><time>2026-05-01T11:32:09Z</time></trkpt><trkpt lat="40.75276933918619" lon="16.70963077892923"><ele>403.0</ele><time>2026-05-01T11:32:10Z</time></trkpt><trkpt lat="40.75286798724037" lon="16.7093487040065"><ele>400.0</ele><time>2026-05-01T11:32:11Z</time></trkpt><trkpt lat="40.75296381488115" lon="16.709074693770905"><ele>400.0</ele><time>2026-05-01T11:32:12Z</time></trkpt><trkpt lat="40.753050712411905" lon="16.708826218393845"><ele>400.0</ele><time>2026-05-01T11:32:13Z</time></trkpt><trkpt lat="40.75311912161404" lon="16.708588416046833"><ele>400.0</ele><time>2026-05-01T11:32:14Z</time></trkpt><trkpt lat="40.75320047417686" lon="16.70835979933471"><ele>398.6666666666667</ele><time>2026-05-01T11:32:15Z</time></trkpt><trkpt lat="40.75326581711777" lon="16.708150598267807"><ele>397.33333333333337</ele><time>2026-05-01T11:32:16Z</time></trkpt><trkpt lat="40.75328027756951" lon="16.707925700786042"><ele>396.0</ele><time>2026-05-01T11:32:17Z</time></trkpt><trkpt lat="40.75323176545881" lon="16.707697963173413"><ele>395.66666666666663</ele><time>2026-05-01T11:32:18Z</time></trkpt><trkpt lat="40.75312712888789" lon="16.707469941822957"><ele>395.3333333333333</ele><time>2026-05-01T11:32:19Z</time></trkpt><trkpt lat="40.75296108296764" lon="16.707263817578035"><ele>395.0</ele><time>2026-05-01T11:32:20Z</time></trkpt><trkpt lat="40.75277447201427" lon="16.707030389328978"><ele>391.0</ele><time>2026-05-01T11:32:21Z</time></trkpt><trkpt lat="40.7525999240331" lon="16.706796310861694"><ele>387.0</ele><time>2026-05-01T11:32:22Z</time></trkpt><trkpt lat="40.75243126985895" lon="16.706582100032872"><ele>387.0</ele><time>2026-05-01T11:32:23Z</time></trkpt><trkpt lat="40.75227429073121" lon="16.70641203869865"><ele>387.0</ele><time>2026-05-01T11:32:24Z</time></trkpt><trkpt lat="40.75214930442839" lon="16.706273674181382"><ele>387.0</ele><time>2026-05-01T11:32:25Z</time></trkpt><trkpt lat="40.75205863300948" lon="16.706171785984086"><ele>386.75</ele><time>2026-05-01T11:32:26Z</time></trkpt><trkpt lat="40.751998330414665" lon="16.706055860709995"><ele>386.5</ele><time>2026-05-01T11:32:27Z</time></trkpt><trkpt lat="40.75194962709827" lon="16.705935238168372"><ele>386.25</ele><time>2026-05-01T11:32:28Z</time></trkpt><trkpt lat="40.75189145387943" lon="16.705787794087485"><ele>386.0</ele><time>2026-05-01T11:32:29Z</time></trkpt><trkpt lat="40.751857922926604" lon="16.705585238567284"><ele>384.66666666666663</ele><time>2026-05-01T11:32:30Z</time></trkpt><trkpt lat="40.75181523356271" lon="16.705369979958984"><ele>383.3333333333333</ele><time>2026-05-01T11:32:30.999Z</time></trkpt><trkpt lat="40.75176272816391" lon="16.70514427983934"><ele>382.0</ele><time>2026-05-01T11:32:31.999Z</time></trkpt><trkpt lat="40.751715578030364" lon="16.70489830277622"><ele>381.3333333333333</ele><time>2026-05-01T11:32:32.999Z</time></trkpt><trkpt lat="40.751664672786696" lon="16.704639318131154"><ele>380.6666666666667</ele><time>2026-05-01T11:32:33.999Z</time></trkpt><trkpt lat="40.75161021805118" lon="16.70436378693567"><ele>380.0</ele><time>2026-05-01T11:32:34.999Z</time></trkpt><trkpt lat="40.75155884044505" lon="16.704094539408548"><ele>380.0</ele><time>2026-05-01T11:32:35.999Z</time></trkpt><trkpt lat="40.75150605812196" lon="16.7038272101419"><ele>380.0</ele><time>2026-05-01T11:32:36.999Z</time></trkpt><trkpt lat="40.751447743202384" lon="16.703537364876638"><ele>380.0</ele><time>2026-05-01T11:32:37.999Z</time></trkpt><trkpt lat="40.751392049842536" lon="16.703240835151348"><ele>380.0</ele><time>2026-05-01T11:32:38.999Z</time></trkpt><trkpt lat="40.75133435866722" lon="16.702945238153806"><ele>380.0</ele><time>2026-05-01T11:32:39.999Z</time></trkpt><trkpt lat="40.75128556213354" lon="16.702623921504845"><ele>378.6666666666667</ele><time>2026-05-01T11:32:40.999Z</time></trkpt><trkpt lat="40.75124271422982" lon="16.702316820211088"><ele>377.3333333333333</ele><time>2026-05-01T11:32:41.999Z</time></trkpt><trkpt lat="40.751229558043285" lon="16.702037379998583"><ele>376.0</ele><time>2026-05-01T11:32:42.999Z</time></trkpt><trkpt lat="40.751130652222436" lon="16.701739731826493"><ele>375.3333333333333</ele><time>2026-05-01T11:32:43.999Z</time></trkpt><trkpt lat="40.75107568311149" lon="16.701450869147447"><ele>374.6666666666667</ele><time>2026-05-01T11:32:44.999Z</time></trkpt><trkpt lat="40.75101949969635" lon="16.701185003882625"><ele>374.0</ele><time>2026-05-01T11:32:45.999Z</time></trkpt><trkpt lat="40.75096693917668" lon="16.700931991228316"><ele>373.33333333333337</ele><time>2026-05-01T11:32:46.999Z</time></trkpt><trkpt lat="40.75092038736628" lon="16.70068310670413"><ele>372.6666666666667</ele><time>2026-05-01T11:32:47.999Z</time></trkpt><trkpt lat="40.750869825810874" lon="16.700421076595127"><ele>372.0</ele><time>2026-05-01T11:32:48.999Z</time></trkpt><trkpt lat="40.75081686285168" lon="16.70015892759753"><ele>371.6666666666667</ele><time>2026-05-01T11:32:49.999Z</time></trkpt><trkpt lat="40.75077620430082" lon="16.699899697860243"><ele>371.33333333333337</ele><time>2026-05-01T11:32:50.999Z</time></trkpt><trkpt lat="40.750736241554954" lon="16.699646122040104"><ele>371.0</ele><time>2026-05-01T11:32:51.999Z</time></trkpt><trkpt lat="40.7507051654546" lon="16.699387193500236"><ele>370.6666666666667</ele><time>2026-05-01T11:32:52.999Z</time></trkpt><trkpt lat="40.750689701093584" lon="16.699131594140034"><ele>370.3333333333333</ele><time>2026-05-01T11:32:53.999Z</time></trkpt><trkpt lat="40.75068282918804" lon="16.698875973347345"><ele>370.0</ele><time>2026-05-01T11:32:54.999Z</time></trkpt><trkpt lat="40.75068610468153" lon="16.69861900738611"><ele>370.0</ele><time>2026-05-01T11:32:55.999Z</time></trkpt><trkpt lat="40.750672100952826" lon="16.698354768365384"><ele>370.0</ele><time>2026-05-01T11:32:56.999Z</time></trkpt><trkpt lat="40.75065599114103" lon="16.698080310494078"><ele>370.0</ele><time>2026-05-01T11:32:57.999Z</time></trkpt><trkpt lat="40.75064119062661" lon="16.6978063446721"><ele>370.3333333333333</ele><time>2026-05-01T11:32:58.999Z</time></trkpt><trkpt lat="40.75062727302844" lon="16.697530910340266"><ele>370.6666666666667</ele><time>2026-05-01T11:32:59.999Z</time></trkpt><trkpt lat="40.75061753710302" lon="16.697250402122993"><ele>371.0</ele><time>2026-05-01T11:33:00.999Z</time></trkpt><trkpt lat="40.75060393704646" lon="16.69696882426995"><ele>372.0</ele><time>2026-05-01T11:33:01.999Z</time></trkpt><trkpt lat="40.75058992891291" lon="16.696686443909154"><ele>373.0</ele><time>2026-05-01T11:33:02.999Z</time></trkpt><trkpt lat="40.750574698792434" lon="16.69639915119523"><ele>374.0</ele><time>2026-05-01T11:33:03.999Z</time></trkpt><trkpt lat="40.750562820664584" lon="16.696109957711666"><ele>373.6666666666667</ele><time>2026-05-01T11:33:04.999Z</time></trkpt><trkpt lat="40.75055014811505" lon="16.695828315633133"><ele>373.3333333333333</ele><time>2026-05-01T11:33:05.999Z</time></trkpt><trkpt lat="40.75053807343731" lon="16.695536858295664"><ele>373.0</ele><time>2026-05-01T11:33:06.999Z</time></trkpt><trkpt lat="40.75052630793038" lon="16.69523772209021"><ele>373.0</ele><time>2026-05-01T11:33:07.999Z</time></trkpt><trkpt lat="40.75051627654211" lon="16.694928740562"><ele>373.0</ele><time>2026-05-01T11:33:08.999Z</time></trkpt><trkpt lat="40.75050386695398" lon="16.6946273200971"><ele>372.66666666666663</ele><time>2026-05-01T11:33:09.999Z</time></trkpt><trkpt lat="40.75048799152137" lon="16.694359657849688"><ele>372.3333333333333</ele><time>2026-05-01T11:33:10.999Z</time></trkpt><trkpt lat="40.750467619069724" lon="16.69407729888757"><ele>372.0</ele><time>2026-05-01T11:33:11.999Z</time></trkpt><trkpt lat="40.75044596344042" lon="16.69377685667031"><ele>372.0</ele><time>2026-05-01T11:33:12.999Z</time></trkpt><trkpt lat="40.75039522613531" lon="16.69346170452716"><ele>372.0</ele><time>2026-05-01T11:33:13.999Z</time></trkpt><trkpt lat="40.75030232438911" lon="16.693146731709007"><ele>371.5</ele><time>2026-05-01T11:33:14.999Z</time></trkpt><trkpt lat="40.75016840389199" lon="16.692859460745808"><ele>371.0</ele><time>2026-05-01T11:33:15.999Z</time></trkpt><trkpt lat="40.74997483951193" lon="16.69256914920788"><ele>371.0</ele><time>2026-05-01T11:33:16.999Z</time></trkpt><trkpt lat="40.74974129192417" lon="16.69225599999739"><ele>371.0</ele><time>2026-05-01T11:33:17.999Z</time></trkpt><trkpt lat="40.74953516397371" lon="16.691906755449356"><ele>372.0</ele><time>2026-05-01T11:33:18.999Z</time></trkpt><trkpt lat="40.749374130753125" lon="16.691585543467404"><ele>373.0</ele><time>2026-05-01T11:33:19.999Z</time></trkpt><trkpt lat="40.74922837581302" lon="16.69127479211347"><ele>374.5</ele><time>2026-05-01T11:33:20.999Z</time></trkpt><trkpt lat="40.74907827700926" lon="16.69097332089874"><ele>376.0</ele><time>2026-05-01T11:33:21.999Z</time></trkpt><trkpt lat="40.74895696105426" lon="16.690730014244856"><ele>376.0</ele><time>2026-05-01T11:33:22.999Z</time></trkpt><trkpt lat="40.74885364080201" lon="16.69047478733103"><ele>376.0</ele><time>2026-05-01T11:33:23.999Z</time></trkpt><trkpt lat="40.74873335793122" lon="16.6902142110539"><ele>376.3333333333333</ele><time>2026-05-01T11:33:24.999Z</time></trkpt><trkpt lat="40.74862018129342" lon="16.689979693465077"><ele>376.6666666666667</ele><time>2026-05-01T11:33:25.999Z</time></trkpt><trkpt lat="40.74849911660274" lon="16.68976002895718"><ele>377.0</ele><time>2026-05-01T11:33:26.999Z</time></trkpt><trkpt lat="40.74835074584521" lon="16.689554846483098"><ele>376.5</ele><time>2026-05-01T11:33:27.999Z</time></trkpt><trkpt lat="40.74818795350474" lon="16.689350194167943"><ele>376.0</ele><time>2026-05-01T11:33:28.999Z</time></trkpt><trkpt lat="40.748014159504216" lon="16.68914556563642"><ele>376.0</ele><time>2026-05-01T11:33:29.999Z</time></trkpt><trkpt lat="40.74783712881844" lon="16.688935911673415"><ele>376.0</ele><time>2026-05-01T11:33:30.999Z</time></trkpt><trkpt lat="40.74765622830103" lon="16.688719482318742"><ele>376.0</ele><time>2026-05-01T11:33:31.999Z</time></trkpt><trkpt lat="40.747497609177906" lon="16.68850686588632"><ele>376.0</ele><time>2026-05-01T11:33:32.999Z</time></trkpt><trkpt lat="40.74732318709314" lon="16.688317200170374"><ele>376.0</ele><time>2026-05-01T11:33:33.999Z</time></trkpt><trkpt lat="40.74717084083595" lon="16.688102357676858"><ele>376.0</ele><time>2026-05-01T11:33:34.999Z</time></trkpt><trkpt lat="40.747009274944546" lon="16.687902352395493"><ele>376.0</ele><time>2026-05-01T11:33:35.999Z</time></trkpt><trkpt lat="40.74684793603184" lon="16.68770262809357"><ele>376.0</ele><time>2026-05-01T11:33:36.999Z</time></trkpt><trkpt lat="40.74666149230293" lon="16.687539128082395"><ele>376.0</ele><time>2026-05-01T11:33:37.999Z</time></trkpt><trkpt lat="40.74649414282238" lon="16.68735991618035"><ele>376.0</ele><time>2026-05-01T11:33:38.999Z</time></trkpt><trkpt lat="40.746316412501585" lon="16.687170087234794"><ele>376.0</ele><time>2026-05-01T11:33:39.999Z</time></trkpt><trkpt lat="40.74613767863823" lon="16.686985635848373"><ele>376.0</ele><time>2026-05-01T11:33:40.999Z</time></trkpt><trkpt lat="40.745950739499364" lon="16.686793600035728"><ele>376.0</ele><time>2026-05-01T11:33:41.999Z</time></trkpt><trkpt lat="40.7457628944186" lon="16.686602254400167"><ele>376.0</ele><time>2026-05-01T11:33:42.999Z</time></trkpt><trkpt lat="40.74557700280813" lon="16.686417020565504"><ele>376.0</ele><time>2026-05-01T11:33:43.999Z</time></trkpt><trkpt lat="40.74541326594433" lon="16.686250299728655"><ele>376.0</ele><time>2026-05-01T11:33:44.999Z</time></trkpt><trkpt lat="40.74525373895434" lon="16.686090999086414"><ele>376.0</ele><time>2026-05-01T11:33:45.999Z</time></trkpt><trkpt lat="40.745089659859666" lon="16.685933828506933"><ele>376.66666666666663</ele><time>2026-05-01T11:33:46.999Z</time></trkpt><trkpt lat="40.74492719447759" lon="16.68576325074138"><ele>377.3333333333333</ele><time>2026-05-01T11:33:47.999Z</time></trkpt><trkpt lat="40.744762277559104" lon="16.68559471425132"><ele>378.0</ele><time>2026-05-01T11:33:48.999Z</time></trkpt><trkpt lat="40.7445962169505" lon="16.685426828438906"><ele>378.0</ele><time>2026-05-01T11:33:49.999Z</time></trkpt><trkpt lat="40.74444110242877" lon="16.685270939034684"><ele>378.0</ele><time>2026-05-01T11:33:50.999Z</time></trkpt><trkpt lat="40.74430722924428" lon="16.685110993170927"><ele>378.0</ele><time>2026-05-01T11:33:51.999Z</time></trkpt><trkpt lat="40.744189342821855" lon="16.68495075104004"><ele>377.0</ele><time>2026-05-01T11:33:52.999Z</time></trkpt><trkpt lat="40.744079411962375" lon="16.68479538378593"><ele>376.0</ele><time>2026-05-01T11:33:53.999Z</time></trkpt><trkpt lat="40.743968284981655" lon="16.68464188005266"><ele>375.0</ele><time>2026-05-01T11:33:55Z</time></trkpt><trkpt lat="40.743847486602846" lon="16.684470529517885"><ele>375.0</ele><time>2026-05-01T11:33:56Z</time></trkpt><trkpt lat="40.74372064139736" lon="16.684294398410717"><ele>375.0</ele><time>2026-05-01T11:33:57Z</time></trkpt><trkpt lat="40.743585275384966" lon="16.68411970283091"><ele>375.0</ele><time>2026-05-01T11:33:58Z</time></trkpt><trkpt lat="40.74344887802305" lon="16.683939987339965"><ele>374.0</ele><time>2026-05-01T11:33:59Z</time></trkpt><trkpt lat="40.74331134953504" lon="16.683751618199167"><ele>373.0</ele><time>2026-05-01T11:34:00Z</time></trkpt><trkpt lat="40.74317192385629" lon="16.68355743635484"><ele>372.0</ele><time>2026-05-01T11:34:01Z</time></trkpt><trkpt lat="40.74303508315725" lon="16.68336512898289"><ele>372.0</ele><time>2026-05-01T11:34:02Z</time></trkpt><trkpt lat="40.74290591699726" lon="16.6831830437829"><ele>372.0</ele><time>2026-05-01T11:34:03Z</time></trkpt><trkpt lat="40.74278405060005" lon="16.683016268517534"><ele>372.0</ele><time>2026-05-01T11:34:04Z</time></trkpt><trkpt lat="40.74265662972128" lon="16.682845091349268"><ele>371.6666666666667</ele><time>2026-05-01T11:34:05Z</time></trkpt><trkpt lat="40.742523871454374" lon="16.682661199539755"><ele>371.33333333333337</ele><time>2026-05-01T11:34:06Z</time></trkpt><trkpt lat="40.74239319340559" lon="16.68250558132354"><ele>371.0</ele><time>2026-05-01T11:34:07Z</time></trkpt><trkpt lat="40.742282648083524" lon="16.68233308390434"><ele>371.0</ele><time>2026-05-01T11:34:08Z</time></trkpt><trkpt lat="40.74216893066216" lon="16.68217549062673"><ele>371.0</ele><time>2026-05-01T11:34:09Z</time></trkpt><trkpt lat="40.74205522758887" lon="16.682020326954746"><ele>371.0</ele><time>2026-05-01T11:34:10Z</time></trkpt><trkpt lat="40.74191920151508" lon="16.681872657137397"><ele>371.6666666666667</ele><time>2026-05-01T11:34:11Z</time></trkpt><trkpt lat="40.7417866393223" lon="16.6816828707876"><ele>372.3333333333333</ele><time>2026-05-01T11:34:12Z</time></trkpt><trkpt lat="40.74167194450288" lon="16.681514341606352"><ele>373.0</ele><time>2026-05-01T11:34:13Z</time></trkpt><trkpt lat="40.74155684895579" lon="16.681357280376396"><ele>373.0</ele><time>2026-05-01T11:34:14Z</time></trkpt><trkpt lat="40.74140838310354" lon="16.681206142352995"><ele>373.0</ele><time>2026-05-01T11:34:15Z</time></trkpt><trkpt lat="40.74130784075965" lon="16.681018265272066"><ele>373.0</ele><time>2026-05-01T11:34:16Z</time></trkpt><trkpt lat="40.74119373383998" lon="16.680867693157694"><ele>373.66666666666663</ele><time>2026-05-01T11:34:17Z</time></trkpt><trkpt lat="40.74109098534057" lon="16.680727996684706"><ele>374.3333333333333</ele><time>2026-05-01T11:34:18Z</time></trkpt><trkpt lat="40.74098268750347" lon="16.68058105765178"><ele>375.0</ele><time>2026-05-01T11:34:19Z</time></trkpt><trkpt lat="40.74086219024433" lon="16.680422624960446"><ele>375.6666666666667</ele><time>2026-05-01T11:34:20Z</time></trkpt><trkpt lat="40.74073446387969" lon="16.680248312210704"><ele>376.33333333333337</ele><time>2026-05-01T11:34:21Z</time></trkpt><trkpt lat="40.740598719433436" lon="16.68005471567324"><ele>377.0</ele><time>2026-05-01T11:34:22Z</time></trkpt><trkpt lat="40.74045636795457" lon="16.67986316921778"><ele>377.0</ele><time>2026-05-01T11:34:23Z</time></trkpt><trkpt lat="40.7403202220001" lon="16.679662398720993"><ele>377.0</ele><time>2026-05-01T11:34:24Z</time></trkpt><trkpt lat="40.74018825189227" lon="16.679459580618417"><ele>377.0</ele><time>2026-05-01T11:34:25Z</time></trkpt><trkpt lat="40.7400646524889" lon="16.67925827649606"><ele>378.0</ele><time>2026-05-01T11:34:26Z</time></trkpt><trkpt lat="40.7399409692832" lon="16.67904831330419"><ele>379.0</ele><time>2026-05-01T11:34:27Z</time></trkpt><trkpt lat="40.739811750031755" lon="16.67882173990871"><ele>380.0</ele><time>2026-05-01T11:34:28Z</time></trkpt><trkpt lat="40.73969073825521" lon="16.678589143041467"><ele>380.33333333333337</ele><time>2026-05-01T11:34:29Z</time></trkpt><trkpt lat="40.739577860619114" lon="16.678347903120834"><ele>380.6666666666667</ele><time>2026-05-01T11:34:30Z</time></trkpt><trkpt lat="40.73946214176287" lon="16.678112280033417"><ele>381.0</ele><time>2026-05-01T11:34:31Z</time></trkpt><trkpt lat="40.73935060003414" lon="16.6778814112644"><ele>380.6666666666667</ele><time>2026-05-01T11:34:32Z</time></trkpt><trkpt lat="40.73925154469193" lon="16.677675128263882"><ele>380.33333333333337</ele><time>2026-05-01T11:34:33Z</time></trkpt><trkpt lat="40.73914718351681" lon="16.67746733153399"><ele>380.0</ele><time>2026-05-01T11:34:34Z</time></trkpt><trkpt lat="40.739046118273805" lon="16.677244799691614"><ele>380.0</ele><time>2026-05-01T11:34:35Z</time></trkpt><trkpt lat="40.73892552478472" lon="16.677012740564365"><ele>380.0</ele><time>2026-05-01T11:34:36Z</time></trkpt><trkpt lat="40.73882790133332" lon="16.676814970780345"><ele>380.0</ele><time>2026-05-01T11:34:37Z</time></trkpt><trkpt lat="40.7387194459918" lon="16.67661853170436"><ele>380.0</ele><time>2026-05-01T11:34:38Z</time></trkpt><trkpt lat="40.7386074340287" lon="16.676433990893525"><ele>380.0</ele><time>2026-05-01T11:34:39Z</time></trkpt><trkpt lat="40.73850714004254" lon="16.676255823241096"><ele>380.0</ele><time>2026-05-01T11:34:40Z</time></trkpt><trkpt lat="40.73839064036435" lon="16.676071620329967"><ele>380.33333333333337</ele><time>2026-05-01T11:34:41Z</time></trkpt><trkpt lat="40.73827291725019" lon="16.675904412795145"><ele>380.6666666666667</ele><time>2026-05-01T11:34:42Z</time></trkpt><trkpt lat="40.7381596122372" lon="16.67575550622592"><ele>381.0</ele><time>2026-05-01T11:34:43Z</time></trkpt><trkpt lat="40.738056229874815" lon="16.67562929067066"><ele>381.0</ele><time>2026-05-01T11:34:44Z</time></trkpt><trkpt lat="40.73796033151189" lon="16.675521585254224"><ele>381.0</ele><time>2026-05-01T11:34:45Z</time></trkpt><trkpt lat="40.737875724311294" lon="16.67542047373305"><ele>381.0</ele><time>2026-05-01T11:34:46Z</time></trkpt><trkpt lat="40.73781215709211" lon="16.675326235416104"><ele>381.0</ele><time>2026-05-01T11:34:47Z</time></trkpt><trkpt lat="40.73776505143149" lon="16.675215317718347"><ele>381.0</ele><time>2026-05-01T11:34:48Z</time></trkpt><trkpt lat="40.73773388549309" lon="16.675089210968938"><ele>381.4</ele><time>2026-05-01T11:34:49Z</time></trkpt><trkpt lat="40.73767589556282" lon="16.6749894345251"><ele>381.8</ele><time>2026-05-01T11:34:50Z</time></trkpt><trkpt lat="40.73759317435415" lon="16.674922358419728"><ele>382.2</ele><time>2026-05-01T11:34:51Z</time></trkpt><trkpt lat="40.73749638337942" lon="16.674896596835886"><ele>382.59999999999997</ele><time>2026-05-01T11:34:52Z</time></trkpt><trkpt lat="40.73737485601886" lon="16.674877895362325"><ele>383.0</ele><time>2026-05-01T11:34:53Z</time></trkpt><trkpt lat="40.737241372020264" lon="16.674844736924484"><ele>383.0</ele><time>2026-05-01T11:34:54Z</time></trkpt><trkpt lat="40.73710053968988" lon="16.674777887620582"><ele>383.0</ele><time>2026-05-01T11:34:55Z</time></trkpt><trkpt lat="40.7369458815338" lon="16.67467389822067"><ele>383.0</ele><time>2026-05-01T11:34:56Z</time></trkpt><trkpt lat="40.73676224675293" lon="16.6745654339074"><ele>384.0</ele><time>2026-05-01T11:34:57Z</time></trkpt><trkpt lat="40.7365796175163" lon="16.67447443312241"><ele>385.0</ele><time>2026-05-01T11:34:58Z</time></trkpt><trkpt lat="40.73638688130924" lon="16.67438065976674"><ele>386.0</ele><time>2026-05-01T11:34:59Z</time></trkpt><trkpt lat="40.73620710258358" lon="16.674290183237588"><ele>386.3333333333333</ele><time>2026-05-01T11:35:00Z</time></trkpt><trkpt lat="40.73601516781499" lon="16.674232934843022"><ele>386.66666666666663</ele><time>2026-05-01T11:35:01Z</time></trkpt><trkpt lat="40.73584116121659" lon="16.674177221629193"><ele>387.0</ele><time>2026-05-01T11:35:02Z</time></trkpt><trkpt lat="40.73566395489218" lon="16.674126348715472"><ele>387.0</ele><time>2026-05-01T11:35:03Z</time></trkpt><trkpt lat="40.73549282053988" lon="16.67407382561958"><ele>387.0</ele><time>2026-05-01T11:35:04Z</time></trkpt><trkpt lat="40.73531195641574" lon="16.674038994357893"><ele>387.0</ele><time>2026-05-01T11:35:05Z</time></trkpt><trkpt lat="40.735089227827956" lon="16.67397748818224"><ele>387.66666666666663</ele><time>2026-05-01T11:35:06Z</time></trkpt><trkpt lat="40.73492540956496" lon="16.673935984474586"><ele>388.3333333333333</ele><time>2026-05-01T11:35:07Z</time></trkpt><trkpt lat="40.73474651964838" lon="16.673893579600406"><ele>389.0</ele><time>2026-05-01T11:35:08Z</time></trkpt><trkpt lat="40.734580741441334" lon="16.6738536541674"><ele>389.0</ele><time>2026-05-01T11:35:09Z</time></trkpt><trkpt lat="40.73441264828338" lon="16.67381328076354"><ele>389.0</ele><time>2026-05-01T11:35:10Z</time></trkpt><trkpt lat="40.734256858878474" lon="16.673776239924788"><ele>389.0</ele><time>2026-05-01T11:35:11Z</time></trkpt><trkpt lat="40.73410331252507" lon="16.673741131619664"><ele>389.0</ele><time>2026-05-01T11:35:12Z</time></trkpt><trkpt lat="40.73394206734712" lon="16.673704523979406"><ele>389.0</ele><time>2026-05-01T11:35:13Z</time></trkpt><trkpt lat="40.73375976061945" lon="16.673678209930987"><ele>389.0</ele><time>2026-05-01T11:35:14Z</time></trkpt><trkpt lat="40.733630098951856" lon="16.67361990521231"><ele>389.25</ele><time>2026-05-01T11:35:15Z</time></trkpt><trkpt lat="40.733498026206135" lon="16.673558362716342"><ele>389.5</ele><time>2026-05-01T11:35:16Z</time></trkpt><trkpt lat="40.73337860535709" lon="16.673486118327418"><ele>389.75</ele><time>2026-05-01T11:35:17Z</time></trkpt><trkpt lat="40.73326517817928" lon="16.673386705124422"><ele>390.0</ele><time>2026-05-01T11:35:18Z</time></trkpt><trkpt lat="40.73314615612553" lon="16.673260827671488"><ele>390.0</ele><time>2026-05-01T11:35:19Z</time></trkpt><trkpt lat="40.733030657483226" lon="16.673116451241675"><ele>390.0</ele><time>2026-05-01T11:35:20Z</time></trkpt><trkpt lat="40.73290134425716" lon="16.672947986928584"><ele>390.0</ele><time>2026-05-01T11:35:21Z</time></trkpt><trkpt lat="40.73276365506974" lon="16.67276874066619"><ele>390.66666666666663</ele><time>2026-05-01T11:35:22Z</time></trkpt><trkpt lat="40.732605650746876" lon="16.672563047076682"><ele>391.3333333333333</ele><time>2026-05-01T11:35:23Z</time></trkpt><trkpt lat="40.73245826865327" lon="16.672371181903856"><ele>392.0</ele><time>2026-05-01T11:35:24Z</time></trkpt><trkpt lat="40.732300577874945" lon="16.67216589674113"><ele>392.0</ele><time>2026-05-01T11:35:25Z</time></trkpt><trkpt lat="40.73213124359958" lon="16.67194621624652"><ele>392.0</ele><time>2026-05-01T11:35:26Z</time></trkpt><trkpt lat="40.73194761854728" lon="16.67171013739115"><ele>392.0</ele><time>2026-05-01T11:35:27Z</time></trkpt><trkpt lat="40.73180053266362" lon="16.671517489630695"><ele>392.0</ele><time>2026-05-01T11:35:28Z</time></trkpt><trkpt lat="40.731558102440346" lon="16.671199962833583"><ele>392.5</ele><time>2026-05-01T11:35:29Z</time></trkpt><trkpt lat="40.73135666255329" lon="16.67093870218478"><ele>393.0</ele><time>2026-05-01T11:35:30Z</time></trkpt><trkpt lat="40.73113500810975" lon="16.670651137499288"><ele>393.0</ele><time>2026-05-01T11:35:31Z</time></trkpt><trkpt lat="40.73091243218262" lon="16.670362376300535"><ele>393.0</ele><time>2026-05-01T11:35:32Z</time></trkpt><trkpt lat="40.73067317663747" lon="16.670067215400508"><ele>393.0</ele><time>2026-05-01T11:35:33Z</time></trkpt><trkpt lat="40.73044836822876" lon="16.669761225094614"><ele>393.0</ele><time>2026-05-01T11:35:34Z</time></trkpt><trkpt lat="40.73022907597918" lon="16.669475513277686"><ele>393.5</ele><time>2026-05-01T11:35:35Z</time></trkpt><trkpt lat="40.730055092634686" lon="16.66924264931105"><ele>394.0</ele><time>2026-05-01T11:35:36Z</time></trkpt><trkpt lat="40.72991281426365" lon="16.66901422336748"><ele>394.0</ele><time>2026-05-01T11:35:37Z</time></trkpt><trkpt lat="40.729787636681834" lon="16.66876470262391"><ele>394.0</ele><time>2026-05-01T11:35:38Z</time></trkpt><trkpt lat="40.72969791843976" lon="16.66842250578375"><ele>393.5</ele><time>2026-05-01T11:35:39Z</time></trkpt><trkpt lat="40.72959317499325" lon="16.668150587357264"><ele>393.0</ele><time>2026-05-01T11:35:40Z</time></trkpt><trkpt lat="40.72946231071661" lon="16.66782438083399"><ele>390.0</ele><time>2026-05-01T11:35:41Z</time></trkpt><trkpt lat="40.72929377574005" lon="16.66758880769898"><ele>387.0</ele><time>2026-05-01T11:35:42Z</time></trkpt><trkpt lat="40.72913701434613" lon="16.667330795436644"><ele>387.0</ele><time>2026-05-01T11:35:43Z</time></trkpt><trkpt lat="40.7289611016326" lon="16.66711006905745"><ele>387.0</ele><time>2026-05-01T11:35:44Z</time></trkpt><trkpt lat="40.728793986455024" lon="16.6668504655532"><ele>385.0</ele><time>2026-05-01T11:35:44.999Z</time></trkpt><trkpt lat="40.728587616480496" lon="16.66660205692893"><ele>383.0</ele><time>2026-05-01T11:35:45.999Z</time></trkpt><trkpt lat="40.72840381541656" lon="16.666493417202126"><ele>381.5</ele><time>2026-05-01T11:35:46.999Z</time></trkpt><trkpt lat="40.72821479352198" lon="16.666274813633912"><ele>380.0</ele><time>2026-05-01T11:35:47.999Z</time></trkpt><trkpt lat="40.7280318767828" lon="16.66605202643599"><ele>379.0</ele><time>2026-05-01T11:35:48.999Z</time></trkpt><trkpt lat="40.72783873033818" lon="16.665817302709172"><ele>378.0</ele><time>2026-05-01T11:35:49.999Z</time></trkpt><trkpt lat="40.727661480314126" lon="16.665547486540728"><ele>375.5</ele><time>2026-05-01T11:35:50.999Z</time></trkpt><trkpt lat="40.72747452689335" lon="16.66528600290429"><ele>373.0</ele><time>2026-05-01T11:35:51.999Z</time></trkpt><trkpt lat="40.72728772816228" lon="16.665021667842304"><ele>372.5</ele><time>2026-05-01T11:35:52.999Z</time></trkpt><trkpt lat="40.727091915403385" lon="16.664771938365263"><ele>372.0</ele><time>2026-05-01T11:35:53.999Z</time></trkpt><trkpt lat="40.72692030086822" lon="16.664501728480328"><ele>370.0</ele><time>2026-05-01T11:35:54.999Z</time></trkpt><trkpt lat="40.726730773819725" lon="16.664255117854886"><ele>368.0</ele><time>2026-05-01T11:35:55.999Z</time></trkpt><trkpt lat="40.72654861009342" lon="16.66400715391668"><ele>368.0</ele><time>2026-05-01T11:35:56.999Z</time></trkpt><trkpt lat="40.726382085513976" lon="16.663741217587614"><ele>368.0</ele><time>2026-05-01T11:35:57.999Z</time></trkpt><trkpt lat="40.726203555040705" lon="16.663490089007507"><ele>365.5</ele><time>2026-05-01T11:35:58.999Z</time></trkpt><trkpt lat="40.7260164708844" lon="16.663256949742664"><ele>363.0</ele><time>2026-05-01T11:35:59.999Z</time></trkpt><trkpt lat="40.72583244720381" lon="16.66298554239292"><ele>363.0</ele><time>2026-05-01T11:36:01Z</time></trkpt><trkpt lat="40.72565201528119" lon="16.662735752306546"><ele>363.0</ele><time>2026-05-01T11:36:02Z</time></trkpt><trkpt lat="40.72548616867621" lon="16.662505847376092"><ele>363.0</ele><time>2026-05-01T11:36:03Z</time></trkpt><trkpt lat="40.72534278664869" lon="16.66229839839425"><ele>363.0</ele><time>2026-05-01T11:36:04Z</time></trkpt><trkpt lat="40.72520337936812" lon="16.66209669342017"><ele>363.0</ele><time>2026-05-01T11:36:05Z</time></trkpt><trkpt lat="40.725066698873476" lon="16.661904696989478"><ele>362.3333333333333</ele><time>2026-05-01T11:36:06Z</time></trkpt><trkpt lat="40.724921204616635" lon="16.661695413060887"><ele>361.66666666666663</ele><time>2026-05-01T11:36:07Z</time></trkpt><trkpt lat="40.72476962794939" lon="16.661484034538127"><ele>361.0</ele><time>2026-05-01T11:36:08Z</time></trkpt><trkpt lat="40.724620795395126" lon="16.661264598487477"><ele>361.5</ele><time>2026-05-01T11:36:09Z</time></trkpt><trkpt lat="40.724461548193446" lon="16.661041362003633"><ele>362.0</ele><time>2026-05-01T11:36:10Z</time></trkpt><trkpt lat="40.724294058490635" lon="16.660797951245698"><ele>360.5</ele><time>2026-05-01T11:36:11Z</time></trkpt><trkpt lat="40.72412549831639" lon="16.660572944422867"><ele>359.0</ele><time>2026-05-01T11:36:12Z</time></trkpt><trkpt lat="40.72396046016014" lon="16.660314415759185"><ele>360.0</ele><time>2026-05-01T11:36:13Z</time></trkpt><trkpt lat="40.72379035744533" lon="16.660073710203964"><ele>361.0</ele><time>2026-05-01T11:36:14Z</time></trkpt><trkpt lat="40.723623154873884" lon="16.659837525728513"><ele>360.0</ele><time>2026-05-01T11:36:15Z</time></trkpt><trkpt lat="40.723453751630494" lon="16.659602687628247"><ele>359.0</ele><time>2026-05-01T11:36:16Z</time></trkpt><trkpt lat="40.72326373348369" lon="16.659368834027696"><ele>358.5</ele><time>2026-05-01T11:36:17Z</time></trkpt><trkpt lat="40.72308239008396" lon="16.659121592777012"><ele>358.0</ele><time>2026-05-01T11:36:18Z</time></trkpt><trkpt lat="40.722895502753204" lon="16.658874299075187"><ele>357.5</ele><time>2026-05-01T11:36:19Z</time></trkpt><trkpt lat="40.72270413624582" lon="16.658615865360414"><ele>357.0</ele><time>2026-05-01T11:36:20Z</time></trkpt><trkpt lat="40.72251406905905" lon="16.658366878422104"><ele>357.0</ele><time>2026-05-01T11:36:21Z</time></trkpt><trkpt lat="40.722331880789966" lon="16.658131709794613"><ele>357.0</ele><time>2026-05-01T11:36:22Z</time></trkpt><trkpt lat="40.722158848116095" lon="16.657907573265767"><ele>356.5</ele><time>2026-05-01T11:36:23Z</time></trkpt><trkpt lat="40.72198175458923" lon="16.65767790028174"><ele>356.0</ele><time>2026-05-01T11:36:24Z</time></trkpt><trkpt lat="40.7218109668271" lon="16.657452272666212"><ele>355.5</ele><time>2026-05-01T11:36:25Z</time></trkpt><trkpt lat="40.72163738540981" lon="16.657224957067033"><ele>355.0</ele><time>2026-05-01T11:36:26Z</time></trkpt><trkpt lat="40.72146090641435" lon="16.657000383577298"><ele>355.5</ele><time>2026-05-01T11:36:27Z</time></trkpt><trkpt lat="40.72128144915645" lon="16.65677575422578"><ele>356.0</ele><time>2026-05-01T11:36:28Z</time></trkpt><trkpt lat="40.72110087919757" lon="16.65654153979986"><ele>356.0</ele><time>2026-05-01T11:36:29Z</time></trkpt><trkpt lat="40.72091896043783" lon="16.656309695508902"><ele>356.0</ele><time>2026-05-01T11:36:30Z</time></trkpt><trkpt lat="40.72071200949136" lon="16.65606356959485"><ele>356.0</ele><time>2026-05-01T11:36:31Z</time></trkpt><trkpt lat="40.72054923294547" lon="16.655803149235165"><ele>356.0</ele><time>2026-05-01T11:36:32Z</time></trkpt><trkpt lat="40.72041490792049" lon="16.655495694615812"><ele>356.0</ele><time>2026-05-01T11:36:33Z</time></trkpt><trkpt lat="40.72026373750241" lon="16.655219058399965"><ele>356.0</ele><time>2026-05-01T11:36:34Z</time></trkpt><trkpt lat="40.720111906563865" lon="16.654942463151727"><ele>355.5</ele><time>2026-05-01T11:36:35Z</time></trkpt><trkpt lat="40.7199820331086" lon="16.65469443326796"><ele>355.0</ele><time>2026-05-01T11:36:36Z</time></trkpt><trkpt lat="40.7198060987746" lon="16.65443524466648"><ele>354.0</ele><time>2026-05-01T11:36:37Z</time></trkpt><trkpt lat="40.71965098289605" lon="16.654182768588708"><ele>353.0</ele><time>2026-05-01T11:36:38Z</time></trkpt><trkpt lat="40.719488970599855" lon="16.65392887338411"><ele>353.0</ele><time>2026-05-01T11:36:39Z</time></trkpt><trkpt lat="40.71932510365065" lon="16.65371894157079"><ele>353.0</ele><time>2026-05-01T11:36:40Z</time></trkpt><trkpt lat="40.71916433961468" lon="16.65342527635121"><ele>353.5</ele><time>2026-05-01T11:36:41Z</time></trkpt><trkpt lat="40.719026202030705" lon="16.65313125085754"><ele>354.0</ele><time>2026-05-01T11:36:42Z</time></trkpt><trkpt lat="40.71887644463638" lon="16.65288994385627"><ele>354.5</ele><time>2026-05-01T11:36:43Z</time></trkpt><trkpt lat="40.71872070985786" lon="16.652639263544618"><ele>355.0</ele><time>2026-05-01T11:36:44Z</time></trkpt><trkpt lat="40.71856404106091" lon="16.652371550422686"><ele>353.5</ele><time>2026-05-01T11:36:45Z</time></trkpt><trkpt lat="40.71841003563816" lon="16.652107413762806"><ele>352.0</ele><time>2026-05-01T11:36:46Z</time></trkpt><trkpt lat="40.71828192000081" lon="16.651902650538457"><ele>351.0</ele><time>2026-05-01T11:36:47Z</time></trkpt><trkpt lat="40.71814069003375" lon="16.651664139650638"><ele>350.0</ele><time>2026-05-01T11:36:48Z</time></trkpt><trkpt lat="40.71800077851719" lon="16.651415216568353"><ele>350.0</ele><time>2026-05-01T11:36:49Z</time></trkpt><trkpt lat="40.717853023726704" lon="16.651161869778427"><ele>350.0</ele><time>2026-05-01T11:36:50Z</time></trkpt><trkpt lat="40.71770478841888" lon="16.65090983820927"><ele>350.5</ele><time>2026-05-01T11:36:51Z</time></trkpt><trkpt lat="40.71756086270955" lon="16.650660924437265"><ele>351.0</ele><time>2026-05-01T11:36:52Z</time></trkpt><trkpt lat="40.71741101787697" lon="16.65041300671809"><ele>351.0</ele><time>2026-05-01T11:36:53Z</time></trkpt><trkpt lat="40.71726635749571" lon="16.650175775241056"><ele>351.0</ele><time>2026-05-01T11:36:54Z</time></trkpt><trkpt lat="40.71712804608717" lon="16.649940172457733"><ele>351.0</ele><time>2026-05-01T11:36:55Z</time></trkpt><trkpt lat="40.71700199429957" lon="16.649666422983984"><ele>351.0</ele><time>2026-05-01T11:36:56Z</time></trkpt><trkpt lat="40.716920151491" lon="16.649376821286403"><ele>349.0</ele><time>2026-05-01T11:36:57Z</time></trkpt><trkpt lat="40.71689134861442" lon="16.64907592733502"><ele>347.0</ele><time>2026-05-01T11:36:58Z</time></trkpt><trkpt lat="40.716873004752884" lon="16.648753194643078"><ele>346.0</ele><time>2026-05-01T11:36:59Z</time></trkpt><trkpt lat="40.71685765968152" lon="16.64846346522051"><ele>345.0</ele><time>2026-05-01T11:37:00Z</time></trkpt><trkpt lat="40.71681696694395" lon="16.64809984397414"><ele>344.5</ele><time>2026-05-01T11:37:01Z</time></trkpt><trkpt lat="40.7167913387248" lon="16.647749681878288"><ele>344.0</ele><time>2026-05-01T11:37:02Z</time></trkpt><trkpt lat="40.7167631597314" lon="16.647423090309335"><ele>344.0</ele><time>2026-05-01T11:37:03Z</time></trkpt><trkpt lat="40.716724413172074" lon="16.647082255740717"><ele>344.0</ele><time>2026-05-01T11:37:04Z</time></trkpt><trkpt lat="40.716701015307486" lon="16.64678913683482"><ele>344.33333333333337</ele><time>2026-05-01T11:37:05Z</time></trkpt><trkpt lat="40.71667529793784" lon="16.646536678689646"><ele>344.6666666666667</ele><time>2026-05-01T11:37:06Z</time></trkpt><trkpt lat="40.71665028396345" lon="16.646286883183375"><ele>345.0</ele><time>2026-05-01T11:37:07Z</time></trkpt><trkpt lat="40.71663187069467" lon="16.646044596357342"><ele>345.0</ele><time>2026-05-01T11:37:08Z</time></trkpt><trkpt lat="40.71661232205865" lon="16.64583099886895"><ele>345.0</ele><time>2026-05-01T11:37:09Z</time></trkpt><trkpt lat="40.71659708605624" lon="16.64563796116231"><ele>345.0</ele><time>2026-05-01T11:37:10Z</time></trkpt><trkpt lat="40.71657524344148" lon="16.645465528499614"><ele>345.0</ele><time>2026-05-01T11:37:11Z</time></trkpt><trkpt lat="40.716518632032084" lon="16.645322085496804"><ele>345.5</ele><time>2026-05-01T11:37:12Z</time></trkpt><trkpt lat="40.71643099078549" lon="16.645176486774165"><ele>346.0</ele><time>2026-05-01T11:37:13Z</time></trkpt><trkpt lat="40.71633442983582" lon="16.645052439328516"><ele>346.5</ele><time>2026-05-01T11:37:14Z</time></trkpt><trkpt lat="40.71620269802269" lon="16.644987304480438"><ele>347.0</ele><time>2026-05-01T11:37:15Z</time></trkpt><trkpt lat="40.716052426544266" lon="16.644943005705947"><ele>347.33333333333337</ele><time>2026-05-01T11:37:16Z</time></trkpt><trkpt lat="40.71589059312973" lon="16.64491788924418"><ele>347.6666666666667</ele><time>2026-05-01T11:37:17Z</time></trkpt><trkpt lat="40.71572238061594" lon="16.64488875095287"><ele>348.0</ele><time>2026-05-01T11:37:18Z</time></trkpt><trkpt lat="40.71554495647123" lon="16.644855309466358"><ele>348.0</ele><time>2026-05-01T11:37:19Z</time></trkpt><trkpt lat="40.715358180186655" lon="16.644820785617014"><ele>348.0</ele><time>2026-05-01T11:37:20Z</time></trkpt><trkpt lat="40.71516892225551" lon="16.644786695077027"><ele>348.0</ele><time>2026-05-01T11:37:21Z</time></trkpt><trkpt lat="40.71496314841533" lon="16.644746952794407"><ele>347.5</ele><time>2026-05-01T11:37:22Z</time></trkpt><trkpt lat="40.71474280652746" lon="16.644708174849296"><ele>347.0</ele><time>2026-05-01T11:37:22.999Z</time></trkpt><trkpt lat="40.71450855045177" lon="16.644672177173213"><ele>346.5</ele><time>2026-05-01T11:37:23.999Z</time></trkpt><trkpt lat="40.71428563951703" lon="16.644635422544127"><ele>346.0</ele><time>2026-05-01T11:37:24.999Z</time></trkpt><trkpt lat="40.714061071682735" lon="16.64459309150058"><ele>346.0</ele><time>2026-05-01T11:37:25.999Z</time></trkpt><trkpt lat="40.71383298155439" lon="16.64454677214357"><ele>346.0</ele><time>2026-05-01T11:37:26.999Z</time></trkpt><trkpt lat="40.713595788647666" lon="16.644498829705572"><ele>347.5</ele><time>2026-05-01T11:37:27.999Z</time></trkpt><trkpt lat="40.7133323290773" lon="16.644447565514916"><ele>349.0</ele><time>2026-05-01T11:37:28.999Z</time></trkpt><trkpt lat="40.71303820378535" lon="16.644443570676035"><ele>349.0</ele><time>2026-05-01T11:37:29.999Z</time></trkpt><trkpt lat="40.71274056228335" lon="16.64438516166536"><ele>349.0</ele><time>2026-05-01T11:37:30.999Z</time></trkpt><trkpt lat="40.71247762332298" lon="16.644320362006372"><ele>349.5</ele><time>2026-05-01T11:37:31.999Z</time></trkpt><trkpt lat="40.712277690285866" lon="16.64413703898639"><ele>350.0</ele><time>2026-05-01T11:37:32.999Z</time></trkpt><trkpt lat="40.71205613005119" lon="16.64401554181926"><ele>350.5</ele><time>2026-05-01T11:37:33.999Z</time></trkpt><trkpt lat="40.711858588185336" lon="16.64379477669944"><ele>351.0</ele><time>2026-05-01T11:37:34.999Z</time></trkpt><trkpt lat="40.71170615360221" lon="16.643519771211945"><ele>353.0</ele><time>2026-05-01T11:37:35.999Z</time></trkpt><trkpt lat="40.71159534520708" lon="16.643171820521864"><ele>355.0</ele><time>2026-05-01T11:37:36.999Z</time></trkpt><trkpt lat="40.711487617035914" lon="16.64278825911191"><ele>356.5</ele><time>2026-05-01T11:37:37.999Z</time></trkpt><trkpt lat="40.71138370285657" lon="16.64241679187528"><ele>358.0</ele><time>2026-05-01T11:37:38.999Z</time></trkpt><trkpt lat="40.711240618990246" lon="16.641981625531326"><ele>357.5</ele><time>2026-05-01T11:37:39.999Z</time></trkpt><trkpt lat="40.71107779487469" lon="16.641532343621567"><ele>357.0</ele><time>2026-05-01T11:37:40.999Z</time></trkpt><trkpt lat="40.71095314330283" lon="16.641148328402657"><ele>353.0</ele><time>2026-05-01T11:37:41.999Z</time></trkpt><trkpt lat="40.710831500770446" lon="16.640775963556923"><ele>349.0</ele><time>2026-05-01T11:37:42.999Z</time></trkpt><trkpt lat="40.71070458342396" lon="16.640403991086778"><ele>349.5</ele><time>2026-05-01T11:37:43.999Z</time></trkpt><trkpt lat="40.710601894638636" lon="16.640039066997783"><ele>350.0</ele><time>2026-05-01T11:37:44.999Z</time></trkpt><trkpt lat="40.710470319488316" lon="16.639676487446945"><ele>350.5</ele><time>2026-05-01T11:37:45.999Z</time></trkpt><trkpt lat="40.71030444900422" lon="16.6392987214963"><ele>351.0</ele><time>2026-05-01T11:37:46.999Z</time></trkpt><trkpt lat="40.71016454877081" lon="16.639016663301238"><ele>350.0</ele><time>2026-05-01T11:37:47.999Z</time></trkpt><trkpt lat="40.71000927869386" lon="16.63870508177968"><ele>349.0</ele><time>2026-05-01T11:37:48.999Z</time></trkpt><trkpt lat="40.70988282312049" lon="16.638343137891987"><ele>349.0</ele><time>2026-05-01T11:37:49.999Z</time></trkpt><trkpt lat="40.70970488312406" lon="16.637953078794894"><ele>349.0</ele><time>2026-05-01T11:37:50.999Z</time></trkpt><trkpt lat="40.70945452674026" lon="16.63759022904314"><ele>350.0</ele><time>2026-05-01T11:37:51.999Z</time></trkpt><trkpt lat="40.70923548944254" lon="16.637151917117365"><ele>351.0</ele><time>2026-05-01T11:37:52.999Z</time></trkpt><trkpt lat="40.70901169079519" lon="16.6367056955177"><ele>352.0</ele><time>2026-05-01T11:37:53.999Z</time></trkpt><trkpt lat="40.70878684896035" lon="16.636252248758794"><ele>353.0</ele><time>2026-05-01T11:37:54.999Z</time></trkpt><trkpt lat="40.708524508206885" lon="16.635799592421755"><ele>355.0</ele><time>2026-05-01T11:37:55.999Z</time></trkpt><trkpt lat="40.70828080740001" lon="16.63530362510594"><ele>357.0</ele><time>2026-05-01T11:37:56.999Z</time></trkpt><trkpt lat="40.70804136239405" lon="16.63479570203697"><ele>358.0</ele><time>2026-05-01T11:37:57.999Z</time></trkpt><trkpt lat="40.70780521708306" lon="16.634318600496186"><ele>359.0</ele><time>2026-05-01T11:37:58.999Z</time></trkpt><trkpt lat="40.70754835605658" lon="16.63387185579558"><ele>359.5</ele><time>2026-05-01T11:37:59.999Z</time></trkpt><trkpt lat="40.70727709340428" lon="16.633461484282567"><ele>360.0</ele><time>2026-05-01T11:38:00.999Z</time></trkpt><trkpt lat="40.707005489319535" lon="16.633153909123845"><ele>361.5</ele><time>2026-05-01T11:38:01.999Z</time></trkpt><trkpt lat="40.706741769114984" lon="16.63279961539316"><ele>363.0</ele><time>2026-05-01T11:38:02.999Z</time></trkpt><trkpt lat="40.706555600428885" lon="16.632596669172962"><ele>363.0</ele><time>2026-05-01T11:38:03.999Z</time></trkpt><trkpt lat="40.70639212112531" lon="16.632388381817627"><ele>363.0</ele><time>2026-05-01T11:38:04.999Z</time></trkpt><trkpt lat="40.7062685194618" lon="16.63220333903467"><ele>363.0</ele><time>2026-05-01T11:38:05.999Z</time></trkpt><trkpt lat="40.70615399557425" lon="16.632084406356245"><ele>364.25</ele><time>2026-05-01T11:38:07Z</time></trkpt><trkpt lat="40.70606613215012" lon="16.631952666966665"><ele>365.5</ele><time>2026-05-01T11:38:08Z</time></trkpt><trkpt lat="40.70598184194209" lon="16.631784546185486"><ele>366.75</ele><time>2026-05-01T11:38:09Z</time></trkpt><trkpt lat="40.70601036146206" lon="16.63166832789847"><ele>368.0</ele><time>2026-05-01T11:38:10Z</time></trkpt><trkpt lat="40.70603424084654" lon="16.63154035063949"><ele>368.0</ele><time>2026-05-01T11:38:11Z</time></trkpt><trkpt lat="40.70601416634802" lon="16.631454964655184"><ele>368.0</ele><time>2026-05-01T11:38:12Z</time></trkpt><trkpt lat="40.70590906326856" lon="16.63143894032356"><ele>368.0</ele><time>2026-05-01T11:38:13Z</time></trkpt><trkpt lat="40.70579477404243" lon="16.63140223391337"><ele>368.0</ele><time>2026-05-01T11:38:14Z</time></trkpt><trkpt lat="40.705651198834175" lon="16.6313333113011"><ele>368.0</ele><time>2026-05-01T11:38:15Z</time></trkpt><trkpt lat="40.70549618454892" lon="16.6312607704994"><ele>368.0</ele><time>2026-05-01T11:38:16Z</time></trkpt><trkpt lat="40.70533363224961" lon="16.63117810384759"><ele>368.0</ele><time>2026-05-01T11:38:17Z</time></trkpt><trkpt lat="40.70516336164291" lon="16.63108923184693"><ele>368.0</ele><time>2026-05-01T11:38:18Z</time></trkpt><trkpt lat="40.70497881554602" lon="16.630995405222105"><ele>368.0</ele><time>2026-05-01T11:38:19Z</time></trkpt><trkpt lat="40.70480029428039" lon="16.630911857729227"><ele>368.0</ele><time>2026-05-01T11:38:20Z</time></trkpt><trkpt lat="40.70460681694543" lon="16.630830876504312"><ele>368.0</ele><time>2026-05-01T11:38:21Z</time></trkpt><trkpt lat="40.704454607870716" lon="16.63074706127271"><ele>367.33333333333337</ele><time>2026-05-01T11:38:22Z</time></trkpt><trkpt lat="40.70423680925927" lon="16.630647167946062"><ele>366.6666666666667</ele><time>2026-05-01T11:38:23Z</time></trkpt><trkpt lat="40.704041804172455" lon="16.630560671206545"><ele>366.0</ele><time>2026-05-01T11:38:24Z</time></trkpt><trkpt lat="40.70384342874452" lon="16.630466346980956"><ele>366.0</ele><time>2026-05-01T11:38:25Z</time></trkpt><trkpt lat="40.70364009826093" lon="16.63036865662093"><ele>366.0</ele><time>2026-05-01T11:38:26Z</time></trkpt><trkpt lat="40.70344458885914" lon="16.630278181592427"><ele>366.0</ele><time>2026-05-01T11:38:27Z</time></trkpt><trkpt lat="40.70322863900598" lon="16.63018882958401"><ele>368.0</ele><time>2026-05-01T11:38:28Z</time></trkpt><trkpt lat="40.703048473862516" lon="16.63010744544972"><ele>370.0</ele><time>2026-05-01T11:38:29Z</time></trkpt><trkpt lat="40.70286828584573" lon="16.63002374613389"><ele>372.0</ele><time>2026-05-01T11:38:30Z</time></trkpt><trkpt lat="40.70267382374759" lon="16.62992655901755"><ele>372.3333333333333</ele><time>2026-05-01T11:38:31Z</time></trkpt><trkpt lat="40.7024832392959" lon="16.629813702642494"><ele>372.66666666666663</ele><time>2026-05-01T11:38:32Z</time></trkpt><trkpt lat="40.70229168992235" lon="16.629740624338183"><ele>373.0</ele><time>2026-05-01T11:38:33Z</time></trkpt><trkpt lat="40.70211246806623" lon="16.62966212045658"><ele>373.0</ele><time>2026-05-01T11:38:34Z</time></trkpt><trkpt lat="40.70192341651875" lon="16.629580735438925"><ele>373.0</ele><time>2026-05-01T11:38:35Z</time></trkpt><trkpt lat="40.70173050692873" lon="16.62950159419329"><ele>373.0</ele><time>2026-05-01T11:38:36Z</time></trkpt><trkpt lat="40.70152777356014" lon="16.629416020308824"><ele>374.0</ele><time>2026-05-01T11:38:37Z</time></trkpt><trkpt lat="40.70132715985743" lon="16.629308280978965"><ele>375.0</ele><time>2026-05-01T11:38:38Z</time></trkpt><trkpt lat="40.70113469966774" lon="16.629233516708478"><ele>376.0</ele><time>2026-05-01T11:38:39Z</time></trkpt><trkpt lat="40.700956628388795" lon="16.629139818753416"><ele>376.0</ele><time>2026-05-01T11:38:40Z</time></trkpt><trkpt lat="40.70078357363108" lon="16.629049686887438"><ele>376.0</ele><time>2026-05-01T11:38:41Z</time></trkpt><trkpt lat="40.70061482681408" lon="16.628974612675396"><ele>376.0</ele><time>2026-05-01T11:38:42Z</time></trkpt><trkpt lat="40.70044029284174" lon="16.628899744000517"><ele>376.0</ele><time>2026-05-01T11:38:43Z</time></trkpt><trkpt lat="40.700263852381866" lon="16.62881017320759"><ele>376.0</ele><time>2026-05-01T11:38:44Z</time></trkpt><trkpt lat="40.70013127916523" lon="16.62871651553122"><ele>376.0</ele><time>2026-05-01T11:38:45Z</time></trkpt><trkpt lat="40.70001072293261" lon="16.628628157405824"><ele>376.5</ele><time>2026-05-01T11:38:46Z</time></trkpt><trkpt lat="40.69988905066377" lon="16.62853177736896"><ele>377.0</ele><time>2026-05-01T11:38:47Z</time></trkpt><trkpt lat="40.69977733093902" lon="16.62845079264873"><ele>377.5</ele><time>2026-05-01T11:38:48Z</time></trkpt><trkpt lat="40.69965657704326" lon="16.628329989032068"><ele>378.0</ele><time>2026-05-01T11:38:49Z</time></trkpt><trkpt lat="40.699523899516194" lon="16.62817743811684"><ele>376.6666666666667</ele><time>2026-05-01T11:38:50Z</time></trkpt><trkpt lat="40.69939574905339" lon="16.62803653893874"><ele>375.33333333333337</ele><time>2026-05-01T11:38:51Z</time></trkpt><trkpt lat="40.69925421554149" lon="16.62787365222354"><ele>374.0</ele><time>2026-05-01T11:38:52Z</time></trkpt><trkpt lat="40.69910122455018" lon="16.62771883519739"><ele>373.33333333333337</ele><time>2026-05-01T11:38:53Z</time></trkpt><trkpt lat="40.69895493253" lon="16.62753856405285"><ele>372.6666666666667</ele><time>2026-05-01T11:38:54Z</time></trkpt><trkpt lat="40.698794975647246" lon="16.62735809468091"><ele>372.0</ele><time>2026-05-01T11:38:55Z</time></trkpt><trkpt lat="40.698642311696176" lon="16.62717695077073"><ele>370.6666666666667</ele><time>2026-05-01T11:38:56Z</time></trkpt><trkpt lat="40.69850449379782" lon="16.627009602925273"><ele>369.33333333333337</ele><time>2026-05-01T11:38:57Z</time></trkpt><trkpt lat="40.698378451433584" lon="16.62685523951849"><ele>368.0</ele><time>2026-05-01T11:38:58Z</time></trkpt><trkpt lat="40.69825945286369" lon="16.62671213337211"><ele>367.25</ele><time>2026-05-01T11:38:59Z</time></trkpt><trkpt lat="40.698148111296895" lon="16.626580426709413"><ele>366.5</ele><time>2026-05-01T11:39:00Z</time></trkpt><trkpt lat="40.69803782557449" lon="16.626455608525497"><ele>365.75</ele><time>2026-05-01T11:39:01Z</time></trkpt><trkpt lat="40.69792367970153" lon="16.626324243740186"><ele>365.0</ele><time>2026-05-01T11:39:02Z</time></trkpt><trkpt lat="40.697800462504155" lon="16.626177997561673"><ele>364.6666666666667</ele><time>2026-05-01T11:39:03Z</time></trkpt><trkpt lat="40.69767084013254" lon="16.62602489956296"><ele>364.3333333333333</ele><time>2026-05-01T11:39:04Z</time></trkpt><trkpt lat="40.697534055896774" lon="16.625866767578884"><ele>364.0</ele><time>2026-05-01T11:39:05Z</time></trkpt><trkpt lat="40.69739528727419" lon="16.62570081560061"><ele>364.0</ele><time>2026-05-01T11:39:06Z</time></trkpt><trkpt lat="40.69725113118968" lon="16.625529542436553"><ele>364.0</ele><time>2026-05-01T11:39:07Z</time></trkpt><trkpt lat="40.69711066492665" lon="16.625355591519448"><ele>364.0</ele><time>2026-05-01T11:39:08Z</time></trkpt><trkpt lat="40.69697630658182" lon="16.625175476717743"><ele>365.3333333333333</ele><time>2026-05-01T11:39:09Z</time></trkpt><trkpt lat="40.69683859009688" lon="16.624987607294567"><ele>366.6666666666667</ele><time>2026-05-01T11:39:10Z</time></trkpt><trkpt lat="40.696720391247176" lon="16.624811780533587"><ele>368.0</ele><time>2026-05-01T11:39:11Z</time></trkpt><trkpt lat="40.696610774922" lon="16.624658521965305"><ele>368.0</ele><time>2026-05-01T11:39:12Z</time></trkpt><trkpt lat="40.69651293383594" lon="16.624495043495575"><ele>368.0</ele><time>2026-05-01T11:39:13Z</time></trkpt><trkpt lat="40.69640100499747" lon="16.624336153381183"><ele>368.0</ele><time>2026-05-01T11:39:14Z</time></trkpt><trkpt lat="40.69628571927534" lon="16.624172721007618"><ele>368.6666666666667</ele><time>2026-05-01T11:39:15Z</time></trkpt><trkpt lat="40.696160651567354" lon="16.62399614522087"><ele>369.3333333333333</ele><time>2026-05-01T11:39:16Z</time></trkpt><trkpt lat="40.696027903406964" lon="16.623808725777685"><ele>370.0</ele><time>2026-05-01T11:39:17Z</time></trkpt><trkpt lat="40.69590079531506" lon="16.623633403236017"><ele>368.66666666666663</ele><time>2026-05-01T11:39:18Z</time></trkpt><trkpt lat="40.695777868481436" lon="16.623488415798374"><ele>367.3333333333333</ele><time>2026-05-01T11:39:19Z</time></trkpt><trkpt lat="40.69564689359303" lon="16.623315812029286"><ele>366.0</ele><time>2026-05-01T11:39:20Z</time></trkpt><trkpt lat="40.695517865103206" lon="16.62312601427143"><ele>366.0</ele><time>2026-05-01T11:39:21Z</time></trkpt><trkpt lat="40.69538547978214" lon="16.622933268645113"><ele>366.0</ele><time>2026-05-01T11:39:22Z</time></trkpt><trkpt lat="40.695266892976214" lon="16.622768149612128"><ele>366.0</ele><time>2026-05-01T11:39:23Z</time></trkpt><trkpt lat="40.69514662972585" lon="16.62259684288825"><ele>364.6666666666667</ele><time>2026-05-01T11:39:24Z</time></trkpt><trkpt lat="40.69501658126736" lon="16.62241671615766"><ele>363.33333333333337</ele><time>2026-05-01T11:39:25Z</time></trkpt><trkpt lat="40.69488525521546" lon="16.622238994440544"><ele>362.0</ele><time>2026-05-01T11:39:26Z</time></trkpt><trkpt lat="40.69474955624499" lon="16.622052554044256"><ele>361.33333333333337</ele><time>2026-05-01T11:39:27Z</time></trkpt><trkpt lat="40.694620308129615" lon="16.62188010460371"><ele>360.6666666666667</ele><time>2026-05-01T11:39:28Z</time></trkpt><trkpt lat="40.6944954185984" lon="16.621707107484685"><ele>360.0</ele><time>2026-05-01T11:39:29Z</time></trkpt><trkpt lat="40.69436163742989" lon="16.621516977117885"><ele>358.6666666666667</ele><time>2026-05-01T11:39:30Z</time></trkpt><trkpt lat="40.69423196500187" lon="16.621331062288473"><ele>357.33333333333337</ele><time>2026-05-01T11:39:31Z</time></trkpt><trkpt lat="40.694107660022894" lon="16.62115070117689"><ele>356.0</ele><time>2026-05-01T11:39:32Z</time></trkpt><trkpt lat="40.69396463051886" lon="16.620973837748085"><ele>355.33333333333337</ele><time>2026-05-01T11:39:33Z</time></trkpt><trkpt lat="40.69382797026101" lon="16.620756439495405"><ele>354.6666666666667</ele><time>2026-05-01T11:39:34Z</time></trkpt><trkpt lat="40.693721115247456" lon="16.62063325298084"><ele>354.0</ele><time>2026-05-01T11:39:35Z</time></trkpt><trkpt lat="40.693621028580225" lon="16.62049134326129"><ele>354.0</ele><time>2026-05-01T11:39:36Z</time></trkpt><trkpt lat="40.69351341147877" lon="16.620317009106003"><ele>354.0</ele><time>2026-05-01T11:39:37Z</time></trkpt><trkpt lat="40.693378244177346" lon="16.62012884696014"><ele>354.0</ele><time>2026-05-01T11:39:38Z</time></trkpt><trkpt lat="40.69320459520657" lon="16.61995061455155"><ele>353.5</ele><time>2026-05-01T11:39:38.999Z</time></trkpt><trkpt lat="40.693078813631985" lon="16.619674610359034"><ele>353.0</ele><time>2026-05-01T11:39:39.999Z</time></trkpt><trkpt lat="40.692771558302155" lon="16.619648796731482"><ele>353.0</ele><time>2026-05-01T11:39:40.999Z</time></trkpt><trkpt lat="40.69249610325036" lon="16.619559777288025"><ele>353.0</ele><time>2026-05-01T11:39:41.999Z</time></trkpt><trkpt lat="40.69221235864185" lon="16.61951855036011"><ele>353.0</ele><time>2026-05-01T11:39:42.999Z</time></trkpt><trkpt lat="40.69194097475074" lon="16.61955045610927"><ele>353.0</ele><time>2026-05-01T11:39:43.999Z</time></trkpt><trkpt lat="40.69167858527939" lon="16.619648056594865"><ele>351.0</ele><time>2026-05-01T11:39:44.999Z</time></trkpt><trkpt lat="40.691408031402155" lon="16.61972112061587"><ele>349.0</ele><time>2026-05-01T11:39:45.999Z</time></trkpt><trkpt lat="40.69115743439267" lon="16.619777893288255"><ele>347.3333333333333</ele><time>2026-05-01T11:39:46.999Z</time></trkpt><trkpt lat="40.69094060016223" lon="16.61981386608832"><ele>345.6666666666667</ele><time>2026-05-01T11:39:47.999Z</time></trkpt><trkpt lat="40.69072673278946" lon="16.619821458610524"><ele>344.0</ele><time>2026-05-01T11:39:48.999Z</time></trkpt><trkpt lat="40.69050465278622" lon="16.61979135332539"><ele>344.0</ele><time>2026-05-01T11:39:49.999Z</time></trkpt><trkpt lat="40.690277375406396" lon="16.619764730309114"><ele>344.0</ele><time>2026-05-01T11:39:50.999Z</time></trkpt><trkpt lat="40.69005201278892" lon="16.619633323283267"><ele>342.0</ele><time>2026-05-01T11:39:51.999Z</time></trkpt><trkpt lat="40.689823334976595" lon="16.619457830607658"><ele>340.0</ele><time>2026-05-01T11:39:52.999Z</time></trkpt><trkpt lat="40.68959875584892" lon="16.61926904057573"><ele>336.5</ele><time>2026-05-01T11:39:53.999Z</time></trkpt><trkpt lat="40.68941343901927" lon="16.619013437918813"><ele>333.0</ele><time>2026-05-01T11:39:54.999Z</time></trkpt><trkpt lat="40.68924099465789" lon="16.618769936940005"><ele>332.5</ele><time>2026-05-01T11:39:55.999Z</time></trkpt><trkpt lat="40.689084053927175" lon="16.618518460116658"><ele>332.0</ele><time>2026-05-01T11:39:56.999Z</time></trkpt><trkpt lat="40.68898175644887" lon="16.61824073361046"><ele>332.0</ele><time>2026-05-01T11:39:57.999Z</time></trkpt><trkpt lat="40.68888097868201" lon="16.617938471375716"><ele>332.0</ele><time>2026-05-01T11:39:58.999Z</time></trkpt><trkpt lat="40.688796572038164" lon="16.617581120392437"><ele>331.0</ele><time>2026-05-01T11:39:59.999Z</time></trkpt><trkpt lat="40.68874486669611" lon="16.61721827423985"><ele>330.0</ele><time>2026-05-01T11:40:00.999Z</time></trkpt><trkpt lat="40.68870097417104" lon="16.616817024555374"><ele>329.5</ele><time>2026-05-01T11:40:01.999Z</time></trkpt><trkpt lat="40.688653019467296" lon="16.616374092717116"><ele>329.0</ele><time>2026-05-01T11:40:02.999Z</time></trkpt><trkpt lat="40.688586879182274" lon="16.615903602420833"><ele>326.0</ele><time>2026-05-01T11:40:03.999Z</time></trkpt><trkpt lat="40.688553107183914" lon="16.61547842307415"><ele>323.0</ele><time>2026-05-01T11:40:04.999Z</time></trkpt><trkpt lat="40.68851898411194" lon="16.61509622154904"><ele>323.0</ele><time>2026-05-01T11:40:05.999Z</time></trkpt><trkpt lat="40.688489941486395" lon="16.61473997222302"><ele>323.0</ele><time>2026-05-01T11:40:06.999Z</time></trkpt><trkpt lat="40.68844662604186" lon="16.614419856550448"><ele>324.0</ele><time>2026-05-01T11:40:07.999Z</time></trkpt><trkpt lat="40.68840550860404" lon="16.614100570426675"><ele>325.0</ele><time>2026-05-01T11:40:08.999Z</time></trkpt><trkpt lat="40.68837030431224" lon="16.613773210909063"><ele>324.5</ele><time>2026-05-01T11:40:09.999Z</time></trkpt><trkpt lat="40.68834083006453" lon="16.613450314253747"><ele>324.0</ele><time>2026-05-01T11:40:10.999Z</time></trkpt><trkpt lat="40.68830683445935" lon="16.613129610583556"><ele>324.0</ele><time>2026-05-01T11:40:11.999Z</time></trkpt><trkpt lat="40.68826144478872" lon="16.612800856694893"><ele>324.0</ele><time>2026-05-01T11:40:13Z</time></trkpt><trkpt lat="40.688203564005185" lon="16.612499737317926"><ele>324.0</ele><time>2026-05-01T11:40:14Z</time></trkpt><trkpt lat="40.68817469585943" lon="16.612181619284137"><ele>324.0</ele><time>2026-05-01T11:40:15Z</time></trkpt><trkpt lat="40.6880829245443" lon="16.611908766748105"><ele>323.3333333333333</ele><time>2026-05-01T11:40:16Z</time></trkpt><trkpt lat="40.68801628467848" lon="16.611646781143374"><ele>322.66666666666663</ele><time>2026-05-01T11:40:17Z</time></trkpt><trkpt lat="40.68795645837328" lon="16.611403303286142"><ele>322.0</ele><time>2026-05-01T11:40:18Z</time></trkpt><trkpt lat="40.687886633456735" lon="16.61116231243166"><ele>323.0</ele><time>2026-05-01T11:40:19Z</time></trkpt><trkpt lat="40.687825646456076" lon="16.610931617018473"><ele>324.0</ele><time>2026-05-01T11:40:20Z</time></trkpt><trkpt lat="40.687754624608175" lon="16.61069230240299"><ele>325.0</ele><time>2026-05-01T11:40:21Z</time></trkpt><trkpt lat="40.687695505254595" lon="16.610476066330268"><ele>323.5</ele><time>2026-05-01T11:40:22Z</time></trkpt><trkpt lat="40.687648575099566" lon="16.610283979034797"><ele>322.0</ele><time>2026-05-01T11:40:23Z</time></trkpt><trkpt lat="40.68760969102217" lon="16.6101296848955"><ele>320.5</ele><time>2026-05-01T11:40:24Z</time></trkpt><trkpt lat="40.68756896465879" lon="16.610002281198234"><ele>319.0</ele><time>2026-05-01T11:40:25Z</time></trkpt><trkpt lat="40.687501100024335" lon="16.609904357311695"><ele>319.0</ele><time>2026-05-01T11:40:26Z</time></trkpt><trkpt lat="40.68737845820237" lon="16.609807587237327"><ele>319.0</ele><time>2026-05-01T11:40:27Z</time></trkpt><trkpt lat="40.68721469734643" lon="16.609777288123844"><ele>319.0</ele><time>2026-05-01T11:40:28Z</time></trkpt><trkpt lat="40.687049774267265" lon="16.60977855970678"><ele>318.5</ele><time>2026-05-01T11:40:29Z</time></trkpt><trkpt lat="40.686906065664246" lon="16.609770438422707"><ele>318.0</ele><time>2026-05-01T11:40:30Z</time></trkpt><trkpt lat="40.68677355199246" lon="16.609756361972266"><ele>317.5</ele><time>2026-05-01T11:40:31Z</time></trkpt><trkpt lat="40.68662713737269" lon="16.60974063534211"><ele>317.0</ele><time>2026-05-01T11:40:32Z</time></trkpt><trkpt lat="40.68648111819061" lon="16.609728110068687"><ele>317.0</ele><time>2026-05-01T11:40:33Z</time></trkpt><trkpt lat="40.686340205782095" lon="16.60971679535161"><ele>317.0</ele><time>2026-05-01T11:40:34Z</time></trkpt><trkpt lat="40.686196421740526" lon="16.609716714125707"><ele>317.0</ele><time>2026-05-01T11:40:35Z</time></trkpt><trkpt lat="40.68605924405586" lon="16.609725628054306"><ele>317.0</ele><time>2026-05-01T11:40:36Z</time></trkpt><trkpt lat="40.685929912541596" lon="16.609707740730293"><ele>317.6666666666667</ele><time>2026-05-01T11:40:37Z</time></trkpt><trkpt lat="40.685802802240524" lon="16.60957382355943"><ele>318.3333333333333</ele><time>2026-05-01T11:40:38Z</time></trkpt><trkpt lat="40.68566334408466" lon="16.60943353042201"><ele>319.0</ele><time>2026-05-01T11:40:39Z</time></trkpt><trkpt lat="40.68553618753415" lon="16.609281654999883"><ele>319.0</ele><time>2026-05-01T11:40:40Z</time></trkpt><trkpt lat="40.68540524678096" lon="16.609118114148178"><ele>319.0</ele><time>2026-05-01T11:40:41Z</time></trkpt><trkpt lat="40.685285877617034" lon="16.6089722792295"><ele>319.0</ele><time>2026-05-01T11:40:42Z</time></trkpt><trkpt lat="40.685173319535274" lon="16.60884778934058"><ele>319.0</ele><time>2026-05-01T11:40:43Z</time></trkpt><trkpt lat="40.68507012227786" lon="16.60870804387645"><ele>319.0</ele><time>2026-05-01T11:40:44Z</time></trkpt><trkpt lat="40.68493940515046" lon="16.608583955470404"><ele>319.0</ele><time>2026-05-01T11:40:45Z</time></trkpt><trkpt lat="40.68478837914986" lon="16.60845778150363"><ele>319.0</ele><time>2026-05-01T11:40:46Z</time></trkpt><trkpt lat="40.68471236783129" lon="16.608238890559278"><ele>319.0</ele><time>2026-05-01T11:40:47Z</time></trkpt><trkpt lat="40.68462414987589" lon="16.608064264313732"><ele>319.0</ele><time>2026-05-01T11:40:48Z</time></trkpt><trkpt lat="40.68453986594597" lon="16.60790960090388"><ele>318.75</ele><time>2026-05-01T11:40:49Z</time></trkpt><trkpt lat="40.6844559297199" lon="16.60777505496464"><ele>318.5</ele><time>2026-05-01T11:40:50Z</time></trkpt><trkpt lat="40.6843307263646" lon="16.607667578790245"><ele>318.25</ele><time>2026-05-01T11:40:51Z</time></trkpt><trkpt lat="40.68417394633877" lon="16.607595127122078"><ele>318.0</ele><time>2026-05-01T11:40:52Z</time></trkpt><trkpt lat="40.684006735266486" lon="16.607524434347418"><ele>318.0</ele><time>2026-05-01T11:40:53Z</time></trkpt><trkpt lat="40.683856367349875" lon="16.60745593869265"><ele>318.0</ele><time>2026-05-01T11:40:54Z</time></trkpt><trkpt lat="40.68370872801586" lon="16.607388599240778"><ele>318.0</ele><time>2026-05-01T11:40:55Z</time></trkpt><trkpt lat="40.68354824119221" lon="16.607319680457174"><ele>319.3333333333333</ele><time>2026-05-01T11:40:56Z</time></trkpt><trkpt lat="40.68340287054343" lon="16.607251192557065"><ele>320.66666666666663</ele><time>2026-05-01T11:40:57Z</time></trkpt><trkpt lat="40.68325813255184" lon="16.60718136456981"><ele>322.0</ele><time>2026-05-01T11:40:58Z</time></trkpt><trkpt lat="40.68311571702146" lon="16.607112670395235"><ele>322.0</ele><time>2026-05-01T11:40:59Z</time></trkpt><trkpt lat="40.68296971072582" lon="16.60704871704536"><ele>322.0</ele><time>2026-05-01T11:41:00Z</time></trkpt><trkpt lat="40.68283616063804" lon="16.60699695690249"><ele>322.0</ele><time>2026-05-01T11:41:01Z</time></trkpt><trkpt lat="40.68271835765346" lon="16.60693268568453"><ele>322.0</ele><time>2026-05-01T11:41:02Z</time></trkpt><trkpt lat="40.682612680001725" lon="16.60688032640889"><ele>322.0</ele><time>2026-05-01T11:41:03Z</time></trkpt><trkpt lat="40.68252611325479" lon="16.60683795908018"><ele>322.0</ele><time>2026-05-01T11:41:04Z</time></trkpt><trkpt lat="40.68245098620066" lon="16.606742106851662"><ele>322.0</ele><time>2026-05-01T11:41:05Z</time></trkpt><trkpt lat="40.68236301848125" lon="16.60666105669003"><ele>322.0</ele><time>2026-05-01T11:41:06Z</time></trkpt><trkpt lat="40.682289785264224" lon="16.60657300937372"><ele>322.0</ele><time>2026-05-01T11:41:07Z</time></trkpt><trkpt lat="40.68221331727785" lon="16.606440869986407"><ele>322.0</ele><time>2026-05-01T11:41:08Z</time></trkpt><trkpt lat="40.68217083552198" lon="16.606253679474687"><ele>322.0</ele><time>2026-05-01T11:41:09Z</time></trkpt><trkpt lat="40.682159158708444" lon="16.606127564915752"><ele>322.0</ele><time>2026-05-01T11:41:10Z</time></trkpt><trkpt lat="40.682107879425246" lon="16.606058995526823"><ele>322.0</ele><time>2026-05-01T11:41:11Z</time></trkpt><trkpt lat="40.68202243745745" lon="16.605969874987935"><ele>322.0</ele><time>2026-05-01T11:41:13Z</time></trkpt><trkpt lat="40.6819590361837" lon="16.605986250585058"><ele>322.0</ele><time>2026-05-01T11:41:17Z</time></trkpt><trkpt lat="40.681925281740234" lon="16.60606257276457"><ele>322.0</ele><time>2026-05-01T11:43:41Z</time></trkpt><trkpt lat="40.681981771260155" lon="16.60619480767618"><ele>322.0</ele><time>2026-05-01T11:43:43Z</time></trkpt><trkpt lat="40.6820569367921" lon="16.606317057747336"><ele>322.0</ele><time>2026-05-01T11:43:44Z</time></trkpt><trkpt lat="40.68207233250373" lon="16.606473061524007"><ele>322.0</ele><time>2026-05-01T11:43:45Z</time></trkpt><trkpt lat="40.68202823869333" lon="16.606647389041587"><ele>322.0</ele><time>2026-05-01T11:43:46Z</time></trkpt><trkpt lat="40.681976878147985" lon="16.606854736957917"><ele>322.0</ele><time>2026-05-01T11:43:47Z</time></trkpt><trkpt lat="40.68187134098019" lon="16.607067127491856"><ele>322.0</ele><time>2026-05-01T11:43:48Z</time></trkpt><trkpt lat="40.681821347278564" lon="16.607252551599817"><ele>324.0</ele><time>2026-05-01T11:43:49Z</time></trkpt><trkpt lat="40.68175080820395" lon="16.607451263271873"><ele>326.0</ele><time>2026-05-01T11:43:50Z</time></trkpt><trkpt lat="40.681698323262076" lon="16.60760046150423"><ele>328.0</ele><time>2026-05-01T11:43:51Z</time></trkpt><trkpt lat="40.68163915744205" lon="16.607751578937858"><ele>330.0</ele><time>2026-05-01T11:43:52Z</time></trkpt><trkpt lat="40.681600532638186" lon="16.60791583079186"><ele>330.0</ele><time>2026-05-01T11:43:54Z</time></trkpt><trkpt lat="40.68162015449638" lon="16.607807877189234"><ele>330.0</ele><time>2026-05-01T11:43:59.999Z</time></trkpt><trkpt lat="40.681570076652044" lon="16.607655440380114"><ele>330.0</ele><time>2026-05-01T11:44:01.999Z</time></trkpt><trkpt lat="40.681425163318394" lon="16.60744295901658"><ele>330.0</ele><time>2026-05-01T11:44:02.999Z</time></trkpt><trkpt lat="40.6814149391551" lon="16.60712962058547"><ele>329.0</ele><time>2026-05-01T11:44:03.999Z</time></trkpt><trkpt lat="40.6814193069625" lon="16.606833208731118"><ele>328.0</ele><time>2026-05-01T11:44:04.999Z</time></trkpt><trkpt lat="40.68209057664606" lon="16.60656236255365"><ele>326.75</ele><time>2026-05-01T11:44:05.999Z</time></trkpt><trkpt lat="40.68211082188536" lon="16.606390966995768"><ele>325.5</ele><time>2026-05-01T11:44:06.999Z</time></trkpt><trkpt lat="40.6821095491427" lon="16.606227311011736"><ele>324.25</ele><time>2026-05-01T11:44:07.999Z</time></trkpt><trkpt lat="40.682037949164325" lon="16.606082812365425"><ele>323.0</ele><time>2026-05-01T11:44:08.999Z</time></trkpt><trkpt lat="40.68191151894122" lon="16.605982075183004"><ele>323.0</ele><time>2026-05-01T11:44:09.999Z</time></trkpt><trkpt lat="40.68171707642572" lon="16.605849553572337"><ele>323.0</ele><time>2026-05-01T11:44:10.999Z</time></trkpt><trkpt lat="40.68156470226979" lon="16.605766747029953"><ele>323.0</ele><time>2026-05-01T11:44:11.999Z</time></trkpt><trkpt lat="40.68144836720845" lon="16.605664595498418"><ele>323.0</ele><time>2026-05-01T11:44:12.999Z</time></trkpt><trkpt lat="40.68136766676492" lon="16.60557657074798"><ele>323.0</ele><time>2026-05-01T11:44:13.999Z</time></trkpt><trkpt lat="40.68129282594161" lon="16.60546733008499"><ele>323.0</ele><time>2026-05-01T11:44:14.999Z</time></trkpt><trkpt lat="40.68125706338367" lon="16.605336825454394"><ele>323.0</ele><time>2026-05-01T11:44:15.999Z</time></trkpt><trkpt lat="40.68123731882059" lon="16.60522755999343"><ele>323.0</ele><time>2026-05-01T11:44:16.999Z</time></trkpt><trkpt lat="40.68125917249872" lon="16.6050881909292"><ele>322.1666666666667</ele><time>2026-05-01T11:44:18.999Z</time></trkpt><trkpt lat="40.68131173793788" lon="16.60503264159388"><ele>321.33333333333337</ele><time>2026-05-01T11:44:19.999Z</time></trkpt><trkpt lat="40.681367312977116" lon="16.604979693571774"><ele>320.5</ele><time>2026-05-01T11:44:20.999Z</time></trkpt><trkpt lat="40.68142218249076" lon="16.60492929404954"><ele>319.6666666666667</ele><time>2026-05-01T11:44:21.999Z</time></trkpt><trkpt lat="40.68139409444251" lon="16.604835190259255"><ele>318.8333333333333</ele><time>2026-05-01T11:44:25Z</time></trkpt><trkpt lat="40.681299066424785" lon="16.60486718085965"><ele>318.0</ele><time>2026-05-01T11:44:28Z</time></trkpt><trkpt lat="40.68122348764215" lon="16.604946937171785"><ele>318.0</ele><time>2026-05-01T11:44:31Z</time></trkpt><trkpt lat="40.681193239745305" lon="16.605051684948204"><ele>318.0</ele><time>2026-05-01T11:44:32Z</time></trkpt><trkpt lat="40.68119588144862" lon="16.605170860331718"><ele>318.0</ele><time>2026-05-01T11:44:33Z</time></trkpt><trkpt lat="40.68122082854496" lon="16.605318812232966"><ele>318.0</ele><time>2026-05-01T11:44:34Z</time></trkpt><trkpt lat="40.68128664861379" lon="16.605520996196457"><ele>319.6666666666667</ele><time>2026-05-01T11:44:35Z</time></trkpt><trkpt lat="40.68139062924284" lon="16.60569515094092"><ele>321.33333333333337</ele><time>2026-05-01T11:44:36Z</time></trkpt><trkpt lat="40.681545537115674" lon="16.605846435677947"><ele>323.0</ele><time>2026-05-01T11:44:37Z</time></trkpt><trkpt lat="40.681707999778276" lon="16.60593707954809"><ele>323.0</ele><time>2026-05-01T11:44:38Z</time></trkpt><trkpt lat="40.68183620267744" lon="16.605998400057494"><ele>323.0</ele><time>2026-05-01T11:44:39Z</time></trkpt><trkpt lat="40.681941367772374" lon="16.60609537722153"><ele>323.0</ele><time>2026-05-01T11:44:40Z</time></trkpt><trkpt lat="40.682041298390004" lon="16.60621759624598"><ele>323.0</ele><time>2026-05-01T11:44:41Z</time></trkpt><trkpt lat="40.682096529323246" lon="16.606387995084038"><ele>322.6666666666667</ele><time>2026-05-01T11:44:42Z</time></trkpt><trkpt lat="40.682121309270975" lon="16.60656217149513"><ele>322.3333333333333</ele><time>2026-05-01T11:44:43Z</time></trkpt><trkpt lat="40.68200600439602" lon="16.606790690475798"><ele>322.0</ele><time>2026-05-01T11:44:44Z</time></trkpt><trkpt lat="40.68192093147735" lon="16.60700370660806"><ele>323.6</ele><time>2026-05-01T11:44:45Z</time></trkpt><trkpt lat="40.68183828456042" lon="16.60715823359381"><ele>325.20000000000005</ele><time>2026-05-01T11:44:46Z</time></trkpt><trkpt lat="40.68180541247085" lon="16.607273502964187"><ele>326.8</ele><time>2026-05-01T11:44:47Z</time></trkpt><trkpt lat="40.681763973135006" lon="16.607369929769646"><ele>328.4</ele><time>2026-05-01T11:44:48Z</time></trkpt><trkpt lat="40.68173012099516" lon="16.607495948177622"><ele>330.0</ele><time>2026-05-01T11:44:49Z</time></trkpt><trkpt lat="40.68169288697599" lon="16.60759715967632"><ele>330.0</ele><time>2026-05-01T11:44:50Z</time></trkpt><trkpt lat="40.68165849676749" lon="16.607681203216305"><ele>330.0</ele><time>2026-05-01T11:44:51Z</time></trkpt><trkpt lat="40.68161524472006" lon="16.60780217112885"><ele>330.0</ele><time>2026-05-01T11:44:53Z</time></trkpt><trkpt lat="40.68157024010133" lon="16.607863110832476"><ele>330.0</ele><time>2026-05-01T11:44:56Z</time></trkpt><trkpt lat="40.68165209481273" lon="16.607715917189207"><ele>330.0</ele><time>2026-05-01T11:45:04Z</time></trkpt><trkpt lat="40.68156878067672" lon="16.607634629782886"><ele>330.0</ele><time>2026-05-01T11:45:05Z</time></trkpt><trkpt lat="40.68143303251678" lon="16.607423036686964"><ele>330.0</ele><time>2026-05-01T11:45:06Z</time></trkpt><trkpt lat="40.68142942651262" lon="16.60718487396088"><ele>330.0</ele><time>2026-05-01T11:45:07Z</time></trkpt><trkpt lat="40.68195527183662" lon="16.60691370628152"><ele>328.0</ele><time>2026-05-01T11:45:08Z</time></trkpt><trkpt lat="40.68204033885337" lon="16.60672586401722"><ele>326.0</ele><time>2026-05-01T11:45:09Z</time></trkpt><trkpt lat="40.68210499420178" lon="16.60656168853443"><ele>324.0</ele><time>2026-05-01T11:45:10Z</time></trkpt><trkpt lat="40.6821095737167" lon="16.606425706920586"><ele>322.0</ele><time>2026-05-01T11:45:11Z</time></trkpt><trkpt lat="40.682108981155395" lon="16.606281783224638"><ele>322.0</ele><time>2026-05-01T11:45:12Z</time></trkpt><trkpt lat="40.68205728018713" lon="16.606162738252927"><ele>322.0</ele><time>2026-05-01T11:45:13Z</time></trkpt><trkpt lat="40.681997879352316" lon="16.606086263266164"><ele>322.0</ele><time>2026-05-01T11:45:14Z</time></trkpt><trkpt lat="40.6819601196973" lon="16.60600852893721"><ele>322.0</ele><time>2026-05-01T11:45:16Z</time></trkpt><trkpt lat="40.681902737579286" lon="16.605951584221078"><ele>322.0</ele><time>2026-05-01T11:45:19Z</time></trkpt><trkpt lat="40.68182439949079" lon="16.60593361075403"><ele>322.0</ele><time>2026-05-01T11:46:14.999Z</time></trkpt><trkpt lat="40.68174091523589" lon="16.605891134319844"><ele>322.25</ele><time>2026-05-01T11:46:15.999Z</time></trkpt><trkpt lat="40.681651328230366" lon="16.605828073784007"><ele>322.5</ele><time>2026-05-01T11:46:16.999Z</time></trkpt><trkpt lat="40.68154688815985" lon="16.605729414486973"><ele>322.75</ele><time>2026-05-01T11:46:17.999Z</time></trkpt><trkpt lat="40.68142526641541" lon="16.60561647168495"><ele>323.0</ele><time>2026-05-01T11:46:18.999Z</time></trkpt><trkpt lat="40.68133514794698" lon="16.605480579919295"><ele>321.33333333333337</ele><time>2026-05-01T11:46:19.999Z</time></trkpt><trkpt lat="40.68126902561197" lon="16.605305880181387"><ele>319.6666666666667</ele><time>2026-05-01T11:46:20.999Z</time></trkpt><trkpt lat="40.68124131677837" lon="16.605080378651675"><ele>318.0</ele><time>2026-05-01T11:46:21.999Z</time></trkpt><trkpt lat="40.68125590954178" lon="16.60484781572869"><ele>318.0</ele><time>2026-05-01T11:46:22.999Z</time></trkpt><trkpt lat="40.68128128933098" lon="16.604629449800964"><ele>318.0</ele><time>2026-05-01T11:46:23.999Z</time></trkpt><trkpt lat="40.6812966700344" lon="16.60441225831822"><ele>318.0</ele><time>2026-05-01T11:46:24.999Z</time></trkpt><trkpt lat="40.681321300224305" lon="16.604211561260964"><ele>317.6666666666667</ele><time>2026-05-01T11:46:25.999Z</time></trkpt><trkpt lat="40.68135136250111" lon="16.603996611375475"><ele>317.33333333333337</ele><time>2026-05-01T11:46:26.999Z</time></trkpt><trkpt lat="40.68137896858289" lon="16.60377511123816"><ele>317.0</ele><time>2026-05-01T11:46:27.999Z</time></trkpt><trkpt lat="40.68140278713576" lon="16.60356545639169"><ele>317.0</ele><time>2026-05-01T11:46:28.999Z</time></trkpt><trkpt lat="40.681422629916106" lon="16.603364562480746"><ele>317.0</ele><time>2026-05-01T11:46:29.999Z</time></trkpt><trkpt lat="40.681452650009135" lon="16.603193166292794"><ele>317.0</ele><time>2026-05-01T11:46:31Z</time></trkpt><trkpt lat="40.68146662078259" lon="16.603067429262577"><ele>317.0</ele><time>2026-05-01T11:46:32Z</time></trkpt><trkpt lat="40.68146803294606" lon="16.602930673800454"><ele>317.0</ele><time>2026-05-01T11:46:33Z</time></trkpt><trkpt lat="40.68148023620235" lon="16.602779535951733"><ele>317.0</ele><time>2026-05-01T11:46:34Z</time></trkpt><trkpt lat="40.681479339204955" lon="16.602657166424937"><ele>317.0</ele><time>2026-05-01T11:46:35Z</time></trkpt><trkpt lat="40.681484163949165" lon="16.602547793355633"><ele>317.0</ele><time>2026-05-01T11:46:36Z</time></trkpt><trkpt lat="40.68152300898728" lon="16.602437102115807"><ele>317.0</ele><time>2026-05-01T11:46:37Z</time></trkpt><trkpt lat="40.681546169375395" lon="16.602302131681054"><ele>317.0</ele><time>2026-05-01T11:46:38Z</time></trkpt><trkpt lat="40.68157929556813" lon="16.602206679023812"><ele>317.0</ele><time>2026-05-01T11:46:39Z</time></trkpt><trkpt lat="40.68154652423973" lon="16.602041589938107"><ele>317.0</ele><time>2026-05-01T11:46:41Z</time></trkpt><trkpt lat="40.681406357173756" lon="16.602017630040766"><ele>317.0</ele><time>2026-05-01T11:46:42Z</time></trkpt><trkpt lat="40.68128951084441" lon="16.602008508453824"><ele>318.0</ele><time>2026-05-01T11:46:43Z</time></trkpt><trkpt lat="40.681177559729456" lon="16.601976946593535"><ele>319.0</ele><time>2026-05-01T11:46:44Z</time></trkpt><trkpt lat="40.68108541132436" lon="16.60186744065678"><ele>320.0</ele><time>2026-05-01T11:46:45Z</time></trkpt><trkpt lat="40.68101728792787" lon="16.601726192538354"><ele>321.0</ele><time>2026-05-01T11:46:46Z</time></trkpt><trkpt lat="40.68094086591255" lon="16.601621325682263"><ele>322.25</ele><time>2026-05-01T11:46:47Z</time></trkpt><trkpt lat="40.68083792280416" lon="16.601500536935344"><ele>323.5</ele><time>2026-05-01T11:46:48Z</time></trkpt><trkpt lat="40.68075123146942" lon="16.60146316407175"><ele>324.75</ele><time>2026-05-01T11:46:49Z</time></trkpt><trkpt lat="40.68064206402579" lon="16.601463936395653"><ele>326.0</ele><time>2026-05-01T11:46:50Z</time></trkpt><trkpt lat="40.68049111618274" lon="16.601463025568666"><ele>326.0</ele><time>2026-05-01T11:46:51Z</time></trkpt><trkpt lat="40.68029774022672" lon="16.601500913409218"><ele>326.0</ele><time>2026-05-01T11:46:52Z</time></trkpt><trkpt lat="40.680156377436774" lon="16.60157874216147"><ele>326.0</ele><time>2026-05-01T11:46:53Z</time></trkpt><trkpt lat="40.6799827033186" lon="16.601751351466124"><ele>324.0</ele><time>2026-05-01T11:46:54Z</time></trkpt><trkpt lat="40.67977858877255" lon="16.601914078574225"><ele>322.0</ele><time>2026-05-01T11:46:55Z</time></trkpt><trkpt lat="40.679526493808524" lon="16.602049506554327"><ele>328.3333333333333</ele><time>2026-05-01T11:46:56Z</time></trkpt><trkpt lat="40.67932339648539" lon="16.602148449807476"><ele>334.6666666666667</ele><time>2026-05-01T11:46:57Z</time></trkpt><trkpt lat="40.6791532522272" lon="16.602196928251963"><ele>341.0</ele><time>2026-05-01T11:46:58Z</time></trkpt><trkpt lat="40.679018865480735" lon="16.602199280378557"><ele>341.0</ele><time>2026-05-01T11:46:59Z</time></trkpt><trkpt lat="40.67894295130245" lon="16.602148272685692"><ele>341.0</ele><time>2026-05-01T11:47:00Z</time></trkpt><trkpt lat="40.678912004286346" lon="16.602067978282538"><ele>341.0</ele><time>2026-05-01T11:47:01Z</time></trkpt><trkpt lat="40.6789080797776" lon="16.6019688103916"><ele>341.0</ele><time>2026-05-01T11:47:02Z</time></trkpt><trkpt lat="40.67892756348258" lon="16.601847966765902"><ele>341.0</ele><time>2026-05-01T11:47:03Z</time></trkpt><trkpt lat="40.67898287244455" lon="16.601693237094576"><ele>348.0</ele><time>2026-05-01T11:47:05Z</time></trkpt><trkpt lat="40.679074280190825" lon="16.601291999049945"><ele>355.0</ele><time>2026-05-01T11:47:06Z</time></trkpt><trkpt lat="40.67911331817863" lon="16.601123405275445"><ele>356.75</ele><time>2026-05-01T11:47:07Z</time></trkpt><trkpt lat="40.67913993589069" lon="16.601040901663524"><ele>358.5</ele><time>2026-05-01T11:47:08Z</time></trkpt><trkpt lat="40.67909869585908" lon="16.60087836087642"><ele>360.25</ele><time>2026-05-01T11:47:09Z</time></trkpt><trkpt lat="40.6790482521079" lon="16.60066209431348"><ele>362.0</ele><time>2026-05-01T11:47:10Z</time></trkpt><trkpt lat="40.67901029531769" lon="16.600372610220305"><ele>363.0</ele><time>2026-05-01T11:47:11Z</time></trkpt><trkpt lat="40.67894464273674" lon="16.600140016594978"><ele>364.0</ele><time>2026-05-01T11:47:12Z</time></trkpt><trkpt lat="40.67887465201599" lon="16.599886908930298"><ele>365.0</ele><time>2026-05-01T11:47:13Z</time></trkpt><trkpt lat="40.67882791615721" lon="16.59973800862359"><ele>365.0</ele><time>2026-05-01T11:47:14Z</time></trkpt><trkpt lat="40.67874689170315" lon="16.59962199045562"><ele>365.0</ele><time>2026-05-01T11:47:15Z</time></trkpt><trkpt lat="40.67862827553136" lon="16.599539761033345"><ele>365.0</ele><time>2026-05-01T11:47:16Z</time></trkpt><trkpt lat="40.678440369245635" lon="16.599496365182418"><ele>365.0</ele><time>2026-05-01T11:47:17Z</time></trkpt><trkpt lat="40.678260930715616" lon="16.599458423994392"><ele>367.6</ele><time>2026-05-01T11:47:18Z</time></trkpt><trkpt lat="40.67814591733543" lon="16.59941450629673"><ele>370.2</ele><time>2026-05-01T11:47:19Z</time></trkpt><trkpt lat="40.67803437121585" lon="16.59937538583594"><ele>372.79999999999995</ele><time>2026-05-01T11:47:20Z</time></trkpt><trkpt lat="40.67796026804369" lon="16.599342865444225"><ele>375.4</ele><time>2026-05-01T11:47:21Z</time></trkpt><trkpt lat="40.677891081926965" lon="16.599316589474526"><ele>378.0</ele><time>2026-05-01T11:47:22Z</time></trkpt><trkpt lat="40.6777781828857" lon="16.59926981806816"><ele>379.59999999999997</ele><time>2026-05-01T11:47:24Z</time></trkpt><trkpt lat="40.67767228990161" lon="16.599220654846647"><ele>381.2</ele><time>2026-05-01T11:47:26Z</time></trkpt><trkpt lat="40.677566185804075" lon="16.599161270144766"><ele>382.8</ele><time>2026-05-01T11:47:28Z</time></trkpt><trkpt lat="40.677498213885315" lon="16.599137435398223"><ele>384.4</ele><time>2026-05-01T11:47:29Z</time></trkpt><trkpt lat="40.67741624910201" lon="16.599094653464874"><ele>386.0</ele><time>2026-05-01T11:47:30Z</time></trkpt><trkpt lat="40.67734875244494" lon="16.599067659127343"><ele>385.99999999999994</ele><time>2026-05-01T11:47:31Z</time></trkpt><trkpt lat="40.67728891031266" lon="16.599016899093563"><ele>386.0</ele><time>2026-05-01T11:47:32Z</time></trkpt><trkpt lat="40.67719010225942" lon="16.598978381593945"><ele>386.0</ele><time>2026-05-01T11:47:34Z</time></trkpt><trkpt lat="40.6771180412266" lon="16.59895959968289"><ele>386.0</ele><time>2026-05-01T11:47:35Z</time></trkpt><trkpt lat="40.677036841918756" lon="16.598951341535347"><ele>385.99999999999994</ele><time>2026-05-01T11:47:36Z</time></trkpt><trkpt lat="40.67696903715705" lon="16.59895754317041"><ele>386.0</ele><time>2026-05-01T11:47:37Z</time></trkpt><trkpt lat="40.67686781976919" lon="16.59899015042984"><ele>386.4</ele><time>2026-05-01T11:47:39Z</time></trkpt><trkpt lat="40.67678172308504" lon="16.59895192529103"><ele>386.8</ele><time>2026-05-01T11:47:42Z</time></trkpt><trkpt lat="40.676791276601854" lon="16.598772896069413"><ele>387.2</ele><time>2026-05-01T11:47:43Z</time></trkpt><trkpt lat="40.67677136208276" lon="16.598636973086343"><ele>387.59999999999997</ele><time>2026-05-01T11:47:44Z</time></trkpt><trkpt lat="40.67675818854156" lon="16.598547059493768"><ele>388.0</ele><time>2026-05-01T11:47:45Z</time></trkpt><trkpt lat="40.67673595191397" lon="16.598389892956344"><ele>388.0</ele><time>2026-05-01T11:47:47Z</time></trkpt><trkpt lat="40.67670722353623" lon="16.59817818106043"><ele>388.0</ele><time>2026-05-01T11:47:49Z</time></trkpt><trkpt lat="40.67667991537291" lon="16.59803331576833"><ele>388.0</ele><time>2026-05-01T11:47:49.999Z</time></trkpt><trkpt lat="40.67665940542033" lon="16.59792309507382"><ele>388.0</ele><time>2026-05-01T11:47:50.999Z</time></trkpt><trkpt lat="40.67665601507827" lon="16.59780546174872"><ele>387.50000000000006</ele><time>2026-05-01T11:47:51.999Z</time></trkpt><trkpt lat="40.67664838823952" lon="16.59770762061728"><ele>387.0</ele><time>2026-05-01T11:47:52.999Z</time></trkpt><trkpt lat="40.6766452174124" lon="16.59760149288334"><ele>386.5</ele><time>2026-05-01T11:47:53.999Z</time></trkpt><trkpt lat="40.67664624134489" lon="16.59750736127413"><ele>386.0</ele><time>2026-05-01T11:47:54.999Z</time></trkpt><trkpt lat="40.67664944487647" lon="16.59737576710094"><ele>385.50000000000006</ele><time>2026-05-01T11:47:55.999Z</time></trkpt><trkpt lat="40.67666967659564" lon="16.59724552215057"><ele>385.0</ele><time>2026-05-01T11:47:56.999Z</time></trkpt><trkpt lat="40.67670056170911" lon="16.597066407630297"><ele>385.25</ele><time>2026-05-01T11:47:57.999Z</time></trkpt><trkpt lat="40.676750674943285" lon="16.596915681428516"><ele>385.5</ele><time>2026-05-01T11:47:58.999Z</time></trkpt><trkpt lat="40.67682325266744" lon="16.59674759359543"><ele>385.75</ele><time>2026-05-01T11:47:59.999Z</time></trkpt><trkpt lat="40.67689899224733" lon="16.59662410691193"><ele>386.0</ele><time>2026-05-01T11:48:00.999Z</time></trkpt><trkpt lat="40.67698844921037" lon="16.596473780611117"><ele>386.25</ele><time>2026-05-01T11:48:01.999Z</time></trkpt><trkpt lat="40.67710188171146" lon="16.59635840854199"><ele>386.5</ele><time>2026-05-01T11:48:02.999Z</time></trkpt><trkpt lat="40.67721351922084" lon="16.59623297959026"><ele>386.75</ele><time>2026-05-01T11:48:03.999Z</time></trkpt><trkpt lat="40.67734754544057" lon="16.596119139204465"><ele>387.0</ele><time>2026-05-01T11:48:04.999Z</time></trkpt><trkpt lat="40.67743449996713" lon="16.59601186851833"><ele>387.0</ele><time>2026-05-01T11:48:05.999Z</time></trkpt><trkpt lat="40.677546952542116" lon="16.595877926457014"><ele>387.0</ele><time>2026-05-01T11:48:06.999Z</time></trkpt><trkpt lat="40.67764446313127" lon="16.59562742203112"><ele>387.0</ele><time>2026-05-01T11:48:07.999Z</time></trkpt><trkpt lat="40.677715534519784" lon="16.59543542652136"><ele>384.6666666666667</ele><time>2026-05-01T11:48:08.999Z</time></trkpt><trkpt lat="40.67777331326638" lon="16.595222088350962"><ele>382.33333333333337</ele><time>2026-05-01T11:48:09.999Z</time></trkpt><trkpt lat="40.67782409268576" lon="16.59502298909577"><ele>380.0</ele><time>2026-05-01T11:48:10.999Z</time></trkpt><trkpt lat="40.677873629467015" lon="16.594860006064206"><ele>380.0</ele><time>2026-05-01T11:48:11.999Z</time></trkpt><trkpt lat="40.67792288602137" lon="16.59474076033194"><ele>380.0</ele><time>2026-05-01T11:48:12.999Z</time></trkpt><trkpt lat="40.67795909330489" lon="16.59461690969413"><ele>380.0</ele><time>2026-05-01T11:48:13.999Z</time></trkpt><trkpt lat="40.678010867787584" lon="16.594431360002613"><ele>380.0</ele><time>2026-05-01T11:48:14.999Z</time></trkpt><trkpt lat="40.678059838190876" lon="16.594265380727947"><ele>379.5</ele><time>2026-05-01T11:48:15.999Z</time></trkpt><trkpt lat="40.6781044625717" lon="16.594114468354118"><ele>379.0</ele><time>2026-05-01T11:48:16.999Z</time></trkpt><trkpt lat="40.67814452739821" lon="16.5939789743964"><ele>378.5</ele><time>2026-05-01T11:48:17.999Z</time></trkpt><trkpt lat="40.67818014405454" lon="16.593795968109735"><ele>378.0</ele><time>2026-05-01T11:48:18.999Z</time></trkpt><trkpt lat="40.67820554254025" lon="16.593630609241526"><ele>377.5</ele><time>2026-05-01T11:48:19.999Z</time></trkpt><trkpt lat="40.67821592263227" lon="16.59348545604697"><ele>377.0</ele><time>2026-05-01T11:48:20.999Z</time></trkpt><trkpt lat="40.67821053942553" lon="16.593333056931545"><ele>376.5</ele><time>2026-05-01T11:48:21.999Z</time></trkpt><trkpt lat="40.67813423616205" lon="16.59319983707435"><ele>376.0</ele><time>2026-05-01T11:48:22.999Z</time></trkpt><trkpt lat="40.678092105055605" lon="16.593023005659948"><ele>376.0</ele><time>2026-05-01T11:48:23.999Z</time></trkpt><trkpt lat="40.67801703521649" lon="16.59285044949985"><ele>376.0</ele><time>2026-05-01T11:48:24.999Z</time></trkpt><trkpt lat="40.67795981000718" lon="16.592706873747698"><ele>376.0</ele><time>2026-05-01T11:48:25.999Z</time></trkpt><trkpt lat="40.67789097115969" lon="16.59252641169518"><ele>376.0</ele><time>2026-05-01T11:48:26.999Z</time></trkpt><trkpt lat="40.677834266702" lon="16.592376343422142"><ele>375.5</ele><time>2026-05-01T11:48:27.999Z</time></trkpt><trkpt lat="40.6777889986166" lon="16.592256148785566"><ele>375.0</ele><time>2026-05-01T11:48:28.999Z</time></trkpt><trkpt lat="40.67774202041844" lon="16.592125655709737"><ele>374.5</ele><time>2026-05-01T11:48:29.999Z</time></trkpt><trkpt lat="40.67768774372967" lon="16.59197054376759"><ele>374.0</ele><time>2026-05-01T11:48:30.999Z</time></trkpt><trkpt lat="40.677639991154635" lon="16.59182541438484"><ele>373.75</ele><time>2026-05-01T11:48:31.999Z</time></trkpt><trkpt lat="40.677577194796335" lon="16.591673114134874"><ele>373.5</ele><time>2026-05-01T11:48:32.999Z</time></trkpt><trkpt lat="40.67751336515495" lon="16.59150141996321"><ele>373.25</ele><time>2026-05-01T11:48:33.999Z</time></trkpt><trkpt lat="40.67745564922733" lon="16.591297517905044"><ele>373.0</ele><time>2026-05-01T11:48:34.999Z</time></trkpt><trkpt lat="40.67736598273902" lon="16.591060386050653"><ele>372.75</ele><time>2026-05-01T11:48:35.999Z</time></trkpt><trkpt lat="40.67728445850689" lon="16.590856082968926"><ele>372.5</ele><time>2026-05-01T11:48:37Z</time></trkpt><trkpt lat="40.67722332483406" lon="16.59068022260071"><ele>372.25</ele><time>2026-05-01T11:48:38Z</time></trkpt><trkpt lat="40.67717256915817" lon="16.590542020790195"><ele>372.0</ele><time>2026-05-01T11:48:39Z</time></trkpt><trkpt lat="40.677124071397664" lon="16.590409311407548"><ele>372.1666666666667</ele><time>2026-05-01T11:48:40Z</time></trkpt><trkpt lat="40.67706173114442" lon="16.590296310234898"><ele>372.3333333333333</ele><time>2026-05-01T11:48:41Z</time></trkpt><trkpt lat="40.677023361068805" lon="16.590190261893664"><ele>372.5</ele><time>2026-05-01T11:48:42Z</time></trkpt><trkpt lat="40.67698827436526" lon="16.590093073044386"><ele>372.66666666666663</ele><time>2026-05-01T11:48:43Z</time></trkpt><trkpt lat="40.676954929308806" lon="16.589991984761088"><ele>372.8333333333333</ele><time>2026-05-01T11:48:44Z</time></trkpt><trkpt lat="40.676926782567804" lon="16.58991472206093"><ele>373.0</ele><time>2026-05-01T11:48:45Z</time></trkpt><trkpt lat="40.67688566684605" lon="16.589810250078898"><ele>373.25</ele><time>2026-05-01T11:48:46Z</time></trkpt><trkpt lat="40.676842344882644" lon="16.589650922622827"><ele>373.5</ele><time>2026-05-01T11:48:47Z</time></trkpt><trkpt lat="40.67678358683508" lon="16.589494743391246"><ele>373.75</ele><time>2026-05-01T11:48:48Z</time></trkpt><trkpt lat="40.676713641815226" lon="16.58938412330434"><ele>374.0</ele><time>2026-05-01T11:48:49Z</time></trkpt><trkpt lat="40.67666712827438" lon="16.589263342105724"><ele>374.0</ele><time>2026-05-01T11:48:50Z</time></trkpt><trkpt lat="40.67662058842372" lon="16.58913066426792"><ele>374.0</ele><time>2026-05-01T11:48:51Z</time></trkpt><trkpt lat="40.67658116828132" lon="16.58902128113434"><ele>374.0</ele><time>2026-05-01T11:48:52Z</time></trkpt><trkpt lat="40.67655236528386" lon="16.588918622271496"><ele>374.0</ele><time>2026-05-01T11:48:53Z</time></trkpt><trkpt lat="40.67653210797471" lon="16.58881165540777"><ele>374.0</ele><time>2026-05-01T11:48:54Z</time></trkpt><trkpt lat="40.67651116590019" lon="16.588707445507808"><ele>374.0</ele><time>2026-05-01T11:48:55Z</time></trkpt><trkpt lat="40.67651258150193" lon="16.588604699799138"><ele>374.0</ele><time>2026-05-01T11:48:56Z</time></trkpt><trkpt lat="40.67652637991177" lon="16.5884906294011"><ele>374.0</ele><time>2026-05-01T11:48:57Z</time></trkpt><trkpt lat="40.67656343168897" lon="16.58838661423545"><ele>374.0</ele><time>2026-05-01T11:48:58Z</time></trkpt><trkpt lat="40.676628735555056" lon="16.588281513516765"><ele>374.0</ele><time>2026-05-01T11:48:59Z</time></trkpt><trkpt lat="40.67673186991927" lon="16.588200694358918"><ele>374.0</ele><time>2026-05-01T11:49:00Z</time></trkpt><trkpt lat="40.67679117124632" lon="16.588132126425418"><ele>374.0</ele><time>2026-05-01T11:49:01Z</time></trkpt><trkpt lat="40.676892230754156" lon="16.58803476633973"><ele>374.0</ele><time>2026-05-01T11:49:02Z</time></trkpt><trkpt lat="40.677016854061314" lon="16.587937838637103"><ele>374.0</ele><time>2026-05-01T11:49:03Z</time></trkpt><trkpt lat="40.67715734817863" lon="16.587803100355583"><ele>373.25</ele><time>2026-05-01T11:49:04Z</time></trkpt><trkpt lat="40.67727039947482" lon="16.58773279838666"><ele>372.5</ele><time>2026-05-01T11:49:05Z</time></trkpt><trkpt lat="40.677385620572466" lon="16.58762358298009"><ele>371.75</ele><time>2026-05-01T11:49:06Z</time></trkpt><trkpt lat="40.67750469734357" lon="16.587519861490733"><ele>371.0</ele><time>2026-05-01T11:49:07Z</time></trkpt><trkpt lat="40.67764449819053" lon="16.58743870145908"><ele>371.0</ele><time>2026-05-01T11:49:08Z</time></trkpt><trkpt lat="40.67775041576772" lon="16.58734551755323"><ele>371.0</ele><time>2026-05-01T11:49:09Z</time></trkpt><trkpt lat="40.67786054401396" lon="16.587249890596205"><ele>371.0</ele><time>2026-05-01T11:49:10Z</time></trkpt><trkpt lat="40.67798926546679" lon="16.587147238684974"><ele>371.0</ele><time>2026-05-01T11:49:11Z</time></trkpt><trkpt lat="40.67810168753878" lon="16.587066134640956"><ele>370.75</ele><time>2026-05-01T11:49:12Z</time></trkpt><trkpt lat="40.67821233523464" lon="16.58698738277859"><ele>370.5</ele><time>2026-05-01T11:49:13Z</time></trkpt><trkpt lat="40.67829775908424" lon="16.586881604247186"><ele>370.25</ele><time>2026-05-01T11:49:14Z</time></trkpt><trkpt lat="40.678410131844636" lon="16.586812914349633"><ele>370.0</ele><time>2026-05-01T11:49:15Z</time></trkpt><trkpt lat="40.67850581995325" lon="16.586765514592013"><ele>369.5</ele><time>2026-05-01T11:49:16Z</time></trkpt><trkpt lat="40.67861422213906" lon="16.58670725426361"><ele>369.0</ele><time>2026-05-01T11:49:18Z</time></trkpt><trkpt lat="40.6787229213956" lon="16.58663931555886"><ele>368.5</ele><time>2026-05-01T11:49:19Z</time></trkpt><trkpt lat="40.6788575572678" lon="16.58657479818364"><ele>368.0</ele><time>2026-05-01T11:49:20Z</time></trkpt><trkpt lat="40.67899049290945" lon="16.586504686678225"><ele>368.0</ele><time>2026-05-01T11:49:21Z</time></trkpt><trkpt lat="40.67913550707887" lon="16.586442475172163"><ele>368.0</ele><time>2026-05-01T11:49:22Z</time></trkpt><trkpt lat="40.6792997548564" lon="16.58633754734268"><ele>368.0</ele><time>2026-05-01T11:49:23Z</time></trkpt><trkpt lat="40.679447763194425" lon="16.586249926355034"><ele>367.75</ele><time>2026-05-01T11:49:24Z</time></trkpt><trkpt lat="40.67959411531204" lon="16.586161669069977"><ele>367.5</ele><time>2026-05-01T11:49:25Z</time></trkpt><trkpt lat="40.679718255547286" lon="16.5860622414669"><ele>367.25</ele><time>2026-05-01T11:49:26Z</time></trkpt><trkpt lat="40.67982443737651" lon="16.585981815018876"><ele>367.0</ele><time>2026-05-01T11:49:27Z</time></trkpt><trkpt lat="40.67992297722835" lon="16.58588923936359"><ele>367.0</ele><time>2026-05-01T11:49:28Z</time></trkpt><trkpt lat="40.68000575620774" lon="16.585793462082464"><ele>367.0</ele><time>2026-05-01T11:49:29Z</time></trkpt><trkpt lat="40.68008332593175" lon="16.585685471590555"><ele>367.0</ele><time>2026-05-01T11:49:30Z</time></trkpt><trkpt lat="40.680140284292825" lon="16.58557381302636"><ele>367.0</ele><time>2026-05-01T11:49:31Z</time></trkpt><trkpt lat="40.68018524064188" lon="16.585469522661356"><ele>367.0</ele><time>2026-05-01T11:49:32Z</time></trkpt><trkpt lat="40.680232687220716" lon="16.585381245363084"><ele>367.20000000000005</ele><time>2026-05-01T11:49:33Z</time></trkpt><trkpt lat="40.68028187639239" lon="16.585326544678445"><ele>367.4</ele><time>2026-05-01T11:49:34Z</time></trkpt><trkpt lat="40.68034976323104" lon="16.58530859179826"><ele>367.6</ele><time>2026-05-01T11:49:35Z</time></trkpt><trkpt lat="40.68043041578236" lon="16.585303979219333"><ele>367.79999999999995</ele><time>2026-05-01T11:49:36Z</time></trkpt><trkpt lat="40.68059015772177" lon="16.585367249496425"><ele>368.0</ele><time>2026-05-01T11:49:38Z</time></trkpt><trkpt lat="40.68066154857817" lon="16.58546883717238"><ele>368.2</ele><time>2026-05-01T11:49:39Z</time></trkpt><trkpt lat="40.68070165629906" lon="16.585585780997093"><ele>368.4</ele><time>2026-05-01T11:49:40Z</time></trkpt><trkpt lat="40.68071415219767" lon="16.58572498305231"><ele>368.59999999999997</ele><time>2026-05-01T11:49:41Z</time></trkpt><trkpt lat="40.68065357663822" lon="16.585870668306644"><ele>368.79999999999995</ele><time>2026-05-01T11:49:42Z</time></trkpt><trkpt lat="40.680586781074524" lon="16.58594539555136"><ele>369.0</ele><time>2026-05-01T11:49:43Z</time></trkpt><trkpt lat="40.68050538448938" lon="16.586037437737513"><ele>369.0</ele><time>2026-05-01T11:49:44Z</time></trkpt><trkpt lat="40.680429773709655" lon="16.586160110895868"><ele>369.0</ele><time>2026-05-01T11:49:45Z</time></trkpt><trkpt lat="40.68035042251348" lon="16.586203970720657"><ele>369.0</ele><time>2026-05-01T11:49:46Z</time></trkpt><trkpt lat="40.680278421884125" lon="16.5862565601267"><ele>369.0</ele><time>2026-05-01T11:49:47Z</time></trkpt><trkpt lat="40.680201247784694" lon="16.586284710056333"><ele>369.0</ele><time>2026-05-01T11:49:48Z</time></trkpt><trkpt lat="40.68013677190911" lon="16.586295310084193"><ele>369.0</ele><time>2026-05-01T11:49:49Z</time></trkpt><trkpt lat="40.680064786986236" lon="16.586276563431596"><ele>368.6</ele><time>2026-05-01T11:49:50Z</time></trkpt><trkpt lat="40.68000187338158" lon="16.586257469770988"><ele>368.2</ele><time>2026-05-01T11:49:51Z</time></trkpt><trkpt lat="40.679931098861424" lon="16.586242611444543"><ele>367.8</ele><time>2026-05-01T11:49:52Z</time></trkpt><trkpt lat="40.67986029344024" lon="16.586166091328757"><ele>367.40000000000003</ele><time>2026-05-01T11:49:53Z</time></trkpt><trkpt lat="40.67975868708145" lon="16.58608959574657"><ele>367.0</ele><time>2026-05-01T11:49:54Z</time></trkpt><trkpt lat="40.67967124592803" lon="16.58595916057845"><ele>367.0</ele><time>2026-05-01T11:49:55Z</time></trkpt><trkpt lat="40.679579838612504" lon="16.585847260683682"><ele>367.0</ele><time>2026-05-01T11:49:56Z</time></trkpt><trkpt lat="40.679511273021355" lon="16.585752518962753"><ele>367.0</ele><time>2026-05-01T11:49:57Z</time></trkpt><trkpt lat="40.67943547966194" lon="16.585654378006396"><ele>367.0</ele><time>2026-05-01T11:49:58Z</time></trkpt><trkpt lat="40.67934893573826" lon="16.585501601699796"><ele>366.0</ele><time>2026-05-01T11:49:59Z</time></trkpt><trkpt lat="40.67924712742631" lon="16.585388541969035"><ele>365.0</ele><time>2026-05-01T11:50:00Z</time></trkpt><trkpt lat="40.679125723302455" lon="16.585240553683548"><ele>364.0</ele><time>2026-05-01T11:50:01Z</time></trkpt><trkpt lat="40.67898984452497" lon="16.585069226409132"><ele>363.3333333333333</ele><time>2026-05-01T11:50:02Z</time></trkpt><trkpt lat="40.67884390372194" lon="16.584886130349794"><ele>362.6666666666667</ele><time>2026-05-01T11:50:03Z</time></trkpt><trkpt lat="40.67872265572477" lon="16.58471307649532"><ele>362.0</ele><time>2026-05-01T11:50:04Z</time></trkpt><trkpt lat="40.6785788745023" lon="16.58455054787309"><ele>361.33333333333337</ele><time>2026-05-01T11:50:05Z</time></trkpt><trkpt lat="40.67845667827477" lon="16.584352337615258"><ele>360.6666666666667</ele><time>2026-05-01T11:50:06Z</time></trkpt><trkpt lat="40.6783056069926" lon="16.584134294240023"><ele>360.0</ele><time>2026-05-01T11:50:07Z</time></trkpt><trkpt lat="40.67817290328217" lon="16.583935569611008"><ele>360.0</ele><time>2026-05-01T11:50:08Z</time></trkpt><trkpt lat="40.67805417693001" lon="16.583750676119408"><ele>360.0</ele><time>2026-05-01T11:50:09Z</time></trkpt><trkpt lat="40.67792792504992" lon="16.583578492705342"><ele>360.0</ele><time>2026-05-01T11:50:10Z</time></trkpt><trkpt lat="40.67780800050345" lon="16.583364718562045"><ele>359.0</ele><time>2026-05-01T11:50:11Z</time></trkpt><trkpt lat="40.677686067325766" lon="16.58315039251269"><ele>358.0</ele><time>2026-05-01T11:50:12Z</time></trkpt><trkpt lat="40.677554829403526" lon="16.58292277144578"><ele>357.0</ele><time>2026-05-01T11:50:13Z</time></trkpt><trkpt lat="40.67743722547302" lon="16.582711887560436"><ele>355.3333333333333</ele><time>2026-05-01T11:50:14Z</time></trkpt><trkpt lat="40.67732166201434" lon="16.582495200912867"><ele>353.66666666666663</ele><time>2026-05-01T11:50:15Z</time></trkpt><trkpt lat="40.6772124166493" lon="16.582294710426126"><ele>352.0</ele><time>2026-05-01T11:50:16Z</time></trkpt><trkpt lat="40.67708365876814" lon="16.582094360003815"><ele>352.66666666666663</ele><time>2026-05-01T11:50:17Z</time></trkpt><trkpt lat="40.676974717356" lon="16.581893106158557"><ele>353.3333333333333</ele><time>2026-05-01T11:50:18Z</time></trkpt><trkpt lat="40.67685482434171" lon="16.58170337972824"><ele>354.0</ele><time>2026-05-01T11:50:19Z</time></trkpt><trkpt lat="40.67675023262358" lon="16.581517594808354"><ele>353.6666666666667</ele><time>2026-05-01T11:50:20Z</time></trkpt><trkpt lat="40.67664419585879" lon="16.581308623853538"><ele>353.33333333333337</ele><time>2026-05-01T11:50:21Z</time></trkpt><trkpt lat="40.6765353520575" lon="16.581125365142427"><ele>353.0</ele><time>2026-05-01T11:50:22Z</time></trkpt><trkpt lat="40.67642488280983" lon="16.58092836954672"><ele>353.0</ele><time>2026-05-01T11:50:23Z</time></trkpt><trkpt lat="40.67631792920821" lon="16.580735773841692"><ele>353.0</ele><time>2026-05-01T11:50:24Z</time></trkpt><trkpt lat="40.67621485725864" lon="16.58054771522473"><ele>353.0</ele><time>2026-05-01T11:50:25Z</time></trkpt><trkpt lat="40.67610656524577" lon="16.580390179306466"><ele>351.33333333333337</ele><time>2026-05-01T11:50:26Z</time></trkpt><trkpt lat="40.675995236497855" lon="16.580188354717816"><ele>349.6666666666667</ele><time>2026-05-01T11:50:27Z</time></trkpt><trkpt lat="40.675892974353175" lon="16.580014374423214"><ele>348.0</ele><time>2026-05-01T11:50:28Z</time></trkpt><trkpt lat="40.67578935322322" lon="16.57983055540712"><ele>348.0</ele><time>2026-05-01T11:50:29Z</time></trkpt><trkpt lat="40.675681332377096" lon="16.579639673890306"><ele>348.0</ele><time>2026-05-01T11:50:30Z</time></trkpt><trkpt lat="40.675578256269745" lon="16.579460886492427"><ele>348.0</ele><time>2026-05-01T11:50:31Z</time></trkpt><trkpt lat="40.67548873712348" lon="16.579278438252903"><ele>346.3333333333333</ele><time>2026-05-01T11:50:32Z</time></trkpt><trkpt lat="40.67536592478458" lon="16.579101556226657"><ele>344.66666666666663</ele><time>2026-05-01T11:50:33Z</time></trkpt><trkpt lat="40.67526719101401" lon="16.578925829304268"><ele>343.0</ele><time>2026-05-01T11:50:34Z</time></trkpt><trkpt lat="40.67515854959919" lon="16.57876723087386"><ele>341.0</ele><time>2026-05-01T11:50:35Z</time></trkpt><trkpt lat="40.675023540478016" lon="16.57858820747111"><ele>339.0</ele><time>2026-05-01T11:50:36Z</time></trkpt><trkpt lat="40.67488223747995" lon="16.578423580476898"><ele>337.0</ele><time>2026-05-01T11:50:37Z</time></trkpt><trkpt lat="40.674730145686745" lon="16.57829981981218"><ele>337.0</ele><time>2026-05-01T11:50:38Z</time></trkpt><trkpt lat="40.674581499891076" lon="16.578169178525187"><ele>337.0</ele><time>2026-05-01T11:50:39Z</time></trkpt><trkpt lat="40.67442861730188" lon="16.578028042287244"><ele>337.0</ele><time>2026-05-01T11:50:40Z</time></trkpt><trkpt lat="40.674257028174544" lon="16.577936992219303"><ele>335.0</ele><time>2026-05-01T11:50:41Z</time></trkpt><trkpt lat="40.67408078411128" lon="16.577838155366194"><ele>333.0</ele><time>2026-05-01T11:50:42Z</time></trkpt><trkpt lat="40.6738928807131" lon="16.577759343911968"><ele>331.0</ele><time>2026-05-01T11:50:43Z</time></trkpt><trkpt lat="40.67370105630001" lon="16.577699584879205"><ele>327.66666666666663</ele><time>2026-05-01T11:50:44Z</time></trkpt><trkpt lat="40.67352440958418" lon="16.57765616835814"><ele>324.3333333333333</ele><time>2026-05-01T11:50:45Z</time></trkpt><trkpt lat="40.67335245402984" lon="16.577638560958793"><ele>321.0</ele><time>2026-05-01T11:50:46Z</time></trkpt><trkpt lat="40.67319032389658" lon="16.577616198658646"><ele>321.0</ele><time>2026-05-01T11:50:47Z</time></trkpt><trkpt lat="40.67301906602924" lon="16.577638483763746"><ele>321.0</ele><time>2026-05-01T11:50:48Z</time></trkpt><trkpt lat="40.67285126163528" lon="16.57765183962017"><ele>321.0</ele><time>2026-05-01T11:50:49Z</time></trkpt><trkpt lat="40.672675791156486" lon="16.577683992489867"><ele>319.0</ele><time>2026-05-01T11:50:50Z</time></trkpt><trkpt lat="40.67250797291449" lon="16.577715337770535"><ele>317.0</ele><time>2026-05-01T11:50:51Z</time></trkpt><trkpt lat="40.67232576330759" lon="16.57776980767782"><ele>315.0</ele><time>2026-05-01T11:50:52Z</time></trkpt><trkpt lat="40.67213903946777" lon="16.57779752253632"><ele>317.0</ele><time>2026-05-01T11:50:53Z</time></trkpt><trkpt lat="40.671988205621524" lon="16.577852847255514"><ele>319.0</ele><time>2026-05-01T11:50:54Z</time></trkpt><trkpt lat="40.67183158712098" lon="16.57789647198481"><ele>321.0</ele><time>2026-05-01T11:50:55Z</time></trkpt><trkpt lat="40.67168358079883" lon="16.57793598870235"><ele>321.0</ele><time>2026-05-01T11:50:56Z</time></trkpt><trkpt lat="40.67154754999006" lon="16.57797106215748"><ele>321.0</ele><time>2026-05-01T11:50:57Z</time></trkpt><trkpt lat="40.67141284038746" lon="16.57800665543986"><ele>321.0</ele><time>2026-05-01T11:50:58Z</time></trkpt><trkpt lat="40.67129145297103" lon="16.578046897168818"><ele>321.0</ele><time>2026-05-01T11:50:59Z</time></trkpt><trkpt lat="40.67117982067077" lon="16.57808365380707"><ele>319.0</ele><time>2026-05-01T11:51:00Z</time></trkpt><trkpt lat="40.671063431458194" lon="16.57811731069683"><ele>317.0</ele><time>2026-05-01T11:51:01Z</time></trkpt><trkpt lat="40.67095035766519" lon="16.578144022978464"><ele>315.0</ele><time>2026-05-01T11:51:02Z</time></trkpt><trkpt lat="40.670843200567255" lon="16.578141484330164"><ele>313.0</ele><time>2026-05-01T11:51:03Z</time></trkpt><trkpt lat="40.67073158624962" lon="16.578096114720612"><ele>313.0</ele><time>2026-05-01T11:51:04Z</time></trkpt><trkpt lat="40.67062270683766" lon="16.578006375547268"><ele>313.0</ele><time>2026-05-01T11:51:05Z</time></trkpt><trkpt lat="40.67049943928043" lon="16.57791088261819"><ele>313.0</ele><time>2026-05-01T11:51:06Z</time></trkpt><trkpt lat="40.67037176822381" lon="16.5778287551906"><ele>313.0</ele><time>2026-05-01T11:51:07Z</time></trkpt><trkpt lat="40.6702429304087" lon="16.57775388858161"><ele>311.6</ele><time>2026-05-01T11:51:08Z</time></trkpt><trkpt lat="40.67013922101204" lon="16.577694774850578"><ele>310.20000000000005</ele><time>2026-05-01T11:51:09Z</time></trkpt><trkpt lat="40.67004435255359" lon="16.577632345622472"><ele>308.8</ele><time>2026-05-01T11:51:10Z</time></trkpt><trkpt lat="40.66995860201557" lon="16.577577413438082"><ele>307.40000000000003</ele><time>2026-05-01T11:51:11Z</time></trkpt><trkpt lat="40.66988023506021" lon="16.577530580298937"><ele>306.0</ele><time>2026-05-01T11:51:12Z</time></trkpt><trkpt lat="40.66980385260107" lon="16.577481633612635"><ele>306.0</ele><time>2026-05-01T11:51:13Z</time></trkpt><trkpt lat="40.66973738544533" lon="16.577410590601943"><ele>306.0</ele><time>2026-05-01T11:51:14Z</time></trkpt><trkpt lat="40.66969499089517" lon="16.577328100412547"><ele>306.0</ele><time>2026-05-01T11:51:15Z</time></trkpt><trkpt lat="40.669657923462346" lon="16.577222179780904"><ele>306.0</ele><time>2026-05-01T11:51:16Z</time></trkpt><trkpt lat="40.669626855637965" lon="16.57708933320384"><ele>306.0</ele><time>2026-05-01T11:51:17Z</time></trkpt><trkpt lat="40.66961290078054" lon="16.57698497242553"><ele>306.0</ele><time>2026-05-01T11:51:18Z</time></trkpt><trkpt lat="40.66960087598658" lon="16.57683216177131"><ele>305.0</ele><time>2026-05-01T11:51:19Z</time></trkpt><trkpt lat="40.66957290742367" lon="16.576662311175916"><ele>304.0</ele><time>2026-05-01T11:51:20Z</time></trkpt><trkpt lat="40.66954332751438" lon="16.576488804126015"><ele>303.0</ele><time>2026-05-01T11:51:21Z</time></trkpt><trkpt lat="40.66951948371239" lon="16.576344062947015"><ele>302.0</ele><time>2026-05-01T11:51:22Z</time></trkpt><trkpt lat="40.66950006863714" lon="16.57619871329195"><ele>301.75</ele><time>2026-05-01T11:51:23Z</time></trkpt><trkpt lat="40.66946897052867" lon="16.576035270560443"><ele>301.5</ele><time>2026-05-01T11:51:24Z</time></trkpt><trkpt lat="40.6694388248067" lon="16.575853721415974"><ele>301.25</ele><time>2026-05-01T11:51:25Z</time></trkpt><trkpt lat="40.669392061344425" lon="16.575677121142665"><ele>301.0</ele><time>2026-05-01T11:51:26Z</time></trkpt><trkpt lat="40.669336114007905" lon="16.575491783552774"><ele>299.75</ele><time>2026-05-01T11:51:27Z</time></trkpt><trkpt lat="40.669288411699895" lon="16.575335814822946"><ele>298.5</ele><time>2026-05-01T11:51:28Z</time></trkpt><trkpt lat="40.66922960366774" lon="16.57518932222968"><ele>297.25</ele><time>2026-05-01T11:51:29Z</time></trkpt><trkpt lat="40.669175871581366" lon="16.575031950470414"><ele>296.0</ele><time>2026-05-01T11:51:30Z</time></trkpt><trkpt lat="40.669117299344855" lon="16.57487628179688"><ele>296.0</ele><time>2026-05-01T11:51:31Z</time></trkpt><trkpt lat="40.669059390185765" lon="16.57473957173016"><ele>296.0</ele><time>2026-05-01T11:51:32Z</time></trkpt><trkpt lat="40.66901140041599" lon="16.57461478168665"><ele>296.0</ele><time>2026-05-01T11:51:33Z</time></trkpt><trkpt lat="40.668968825009166" lon="16.57449276187804"><ele>296.0</ele><time>2026-05-01T11:51:34Z</time></trkpt><trkpt lat="40.668937251158965" lon="16.57439940582439"><ele>296.0</ele><time>2026-05-01T11:51:35Z</time></trkpt><trkpt lat="40.66892446993572" lon="16.574303605118505"><ele>295.33333333333337</ele><time>2026-05-01T11:51:36Z</time></trkpt><trkpt lat="40.668939423598154" lon="16.574210891872955"><ele>294.6666666666667</ele><time>2026-05-01T11:51:37Z</time></trkpt><trkpt lat="40.66898358214627" lon="16.574118440902577"><ele>294.0</ele><time>2026-05-01T11:51:38Z</time></trkpt><trkpt lat="40.66903131628304" lon="16.574036419668694"><ele>293.3333333333333</ele><time>2026-05-01T11:51:39Z</time></trkpt><trkpt lat="40.66910726516356" lon="16.573959370297157"><ele>292.66666666666663</ele><time>2026-05-01T11:51:40Z</time></trkpt><trkpt lat="40.669213539149986" lon="16.57388466784185"><ele>292.0</ele><time>2026-05-01T11:51:41Z</time></trkpt><trkpt lat="40.66931267389739" lon="16.573796022644007"><ele>292.0</ele><time>2026-05-01T11:51:42Z</time></trkpt><trkpt lat="40.66941129336964" lon="16.57378334728319"><ele>292.0</ele><time>2026-05-01T11:51:43Z</time></trkpt><trkpt lat="40.669566939072034" lon="16.57358651256367"><ele>292.0</ele><time>2026-05-01T11:51:46Z</time></trkpt><trkpt lat="40.669559178762654" lon="16.573500382473338"><ele>292.0</ele><time>2026-05-01T11:51:54Z</time></trkpt><trkpt lat="40.66935107651372" lon="16.573526386504238"><ele>292.0</ele><time>2026-05-01T11:51:56Z</time></trkpt><trkpt lat="40.669546117953196" lon="16.5733554199718"><ele>292.0</ele><time>2026-05-01T11:51:57Z</time></trkpt><trkpt lat="40.66936368225215" lon="16.573513586202726"><ele>291.2</ele><time>2026-05-01T11:51:58Z</time></trkpt><trkpt lat="40.669339271658984" lon="16.57330807324115"><ele>290.4</ele><time>2026-05-01T11:53:19Z</time></trkpt><trkpt lat="40.66936390445759" lon="16.573390591035828"><ele>289.6</ele><time>2026-05-01T11:54:08Z</time></trkpt><trkpt lat="40.669370744806216" lon="16.573483690509182"><ele>288.8</ele><time>2026-05-01T11:54:19Z</time></trkpt><trkpt lat="40.66937124826095" lon="16.573596233517467"><ele>288.0</ele><time>2026-05-01T11:54:25Z</time></trkpt><trkpt lat="40.66905060188571" lon="16.57340108820741"><ele>285.0</ele><time>2026-05-01T11:54:26Z</time></trkpt><trkpt lat="40.66937647537516" lon="16.572855303794466"><ele>288.0</ele><time>2026-05-01T11:54:28Z</time></trkpt><trkpt lat="40.669955313383134" lon="16.572629140083524"><ele>288.0</ele><time>2026-05-01T11:54:29.999Z</time></trkpt><trkpt lat="40.670020387389194" lon="16.57254327842905"><ele>288.0</ele><time>2026-05-01T11:54:30.999Z</time></trkpt><trkpt lat="40.6699931629503" lon="16.572962522300674"><ele>288.0</ele><time>2026-05-01T11:54:34.999Z</time></trkpt><trkpt lat="40.66992714378453" lon="16.57336005865819"><ele>288.0</ele><time>2026-05-01T11:54:35.999Z</time></trkpt><trkpt lat="40.669031809188766" lon="16.57325604099878"><ele>288.0</ele><time>2026-05-01T11:54:36.999Z</time></trkpt><trkpt lat="40.66937690747565" lon="16.573223517066705"><ele>288.0</ele><time>2026-05-01T11:54:43.999Z</time></trkpt><trkpt lat="40.6693711263876" lon="16.573094479326475"><ele>288.0</ele><time>2026-05-01T11:54:49.999Z</time></trkpt><trkpt lat="40.66930847278528" lon="16.572974907928554"><ele>288.0</ele><time>2026-05-01T11:54:51.999Z</time></trkpt><trkpt lat="40.66943045463039" lon="16.57290532822451"><ele>288.0</ele><time>2026-05-01T11:54:55Z</time></trkpt><trkpt lat="40.66942714121082" lon="16.573001156602988"><ele>288.0</ele><time>2026-05-01T11:54:58Z</time></trkpt><trkpt lat="40.669583058954096" lon="16.573225334302126"><ele>288.0</ele><time>2026-05-01T11:54:59.02Z</time></trkpt><trkpt lat="40.66951520587928" lon="16.573193158521853"><ele>288.0</ele><time>2026-05-01T11:56:02.818Z</time></trkpt><trkpt lat="40.66937513604908" lon="16.57332182868457"><ele>288.0</ele><time>2026-05-01T11:56:08Z</time></trkpt><trkpt lat="40.66924734463182" lon="16.573367111139163"><ele>288.0</ele><time>2026-05-01T12:17:59Z</time></trkpt><trkpt lat="40.669228173504735" lon="16.573243359705433"><ele>288.0</ele><time>2026-05-01T12:18:06Z</time></trkpt><trkpt lat="40.669177658207026" lon="16.573183104203927"><ele>288.0</ele><time>2026-05-01T12:18:08Z</time></trkpt><trkpt lat="40.66910318700894" lon="16.57324326232214"><ele>288.0</ele><time>2026-05-01T12:18:10Z</time></trkpt><trkpt lat="40.66920153099629" lon="16.573433587239148"><ele>288.0</ele><time>2026-05-01T12:18:13Z</time></trkpt><trkpt lat="40.669227515228606" lon="16.573533901432985"><ele>288.0</ele><time>2026-05-01T12:18:14Z</time></trkpt><trkpt lat="40.669315741794684" lon="16.573613699468332"><ele>288.0</ele><time>2026-05-01T12:18:16Z</time></trkpt><trkpt lat="40.669391054728145" lon="16.573603377517703"><ele>288.6666666666667</ele><time>2026-05-01T12:18:18Z</time></trkpt><trkpt lat="40.66940435002035" lon="16.573706522602684"><ele>289.3333333333333</ele><time>2026-05-01T12:18:20Z</time></trkpt><trkpt lat="40.66934952876119" lon="16.5737576060685"><ele>290.0</ele><time>2026-05-01T12:18:22Z</time></trkpt><trkpt lat="40.66925568653754" lon="16.573762233634962"><ele>290.66666666666663</ele><time>2026-05-01T12:18:24Z</time></trkpt><trkpt lat="40.66918560769201" lon="16.573785465581693"><ele>291.3333333333333</ele><time>2026-05-01T12:18:26Z</time></trkpt><trkpt lat="40.669093782741804" lon="16.573775201614538"><ele>292.0</ele><time>2026-05-01T12:18:29Z</time></trkpt><trkpt lat="40.668955328745035" lon="16.573736485157855"><ele>292.0</ele><time>2026-05-01T12:18:31Z</time></trkpt><trkpt lat="40.66887929897746" lon="16.57369621171698"><ele>292.0</ele><time>2026-05-01T12:18:32Z</time></trkpt><trkpt lat="40.66876097171017" lon="16.5737121188188"><ele>292.0</ele><time>2026-05-01T12:18:34Z</time></trkpt><trkpt lat="40.66869615614483" lon="16.57376849078043"><ele>292.0</ele><time>2026-05-01T12:18:35Z</time></trkpt><trkpt lat="40.66865262823227" lon="16.57384493690268"><ele>292.0</ele><time>2026-05-01T12:18:36Z</time></trkpt><trkpt lat="40.66864325352185" lon="16.573930189398318"><ele>292.0</ele><time>2026-05-01T12:18:37Z</time></trkpt><trkpt lat="40.66866054077766" lon="16.574038842585868"><ele>292.0</ele><time>2026-05-01T12:18:38Z</time></trkpt><trkpt lat="40.668704833971276" lon="16.574136763366756"><ele>292.0</ele><time>2026-05-01T12:18:39Z</time></trkpt><trkpt lat="40.66876982700607" lon="16.574212674121014"><ele>292.0</ele><time>2026-05-01T12:18:40Z</time></trkpt><trkpt lat="40.66885380203628" lon="16.574300710416527"><ele>292.0</ele><time>2026-05-01T12:18:41Z</time></trkpt><trkpt lat="40.668927320333346" lon="16.574431507314067"><ele>292.0</ele><time>2026-05-01T12:18:42Z</time></trkpt><trkpt lat="40.668980688454084" lon="16.574580322318358"><ele>293.0</ele><time>2026-05-01T12:18:43Z</time></trkpt><trkpt lat="40.66902488161472" lon="16.57473049970704"><ele>294.0</ele><time>2026-05-01T12:18:44Z</time></trkpt><trkpt lat="40.669079560982226" lon="16.574883054540027"><ele>295.0</ele><time>2026-05-01T12:18:45Z</time></trkpt><trkpt lat="40.66915239795976" lon="16.57501745324702"><ele>296.0</ele><time>2026-05-01T12:18:46Z</time></trkpt><trkpt lat="40.669183944483706" lon="16.575178256008336"><ele>296.0</ele><time>2026-05-01T12:18:47Z</time></trkpt><trkpt lat="40.66923657071403" lon="16.575304270621253"><ele>296.0</ele><time>2026-05-01T12:18:48Z</time></trkpt><trkpt lat="40.669284665224346" lon="16.575429034590815"><ele>296.0</ele><time>2026-05-01T12:18:49Z</time></trkpt><trkpt lat="40.66932069138691" lon="16.575553124716244"><ele>296.0</ele><time>2026-05-01T12:18:50Z</time></trkpt><trkpt lat="40.66936559168465" lon="16.57567130813057"><ele>296.0</ele><time>2026-05-01T12:18:51Z</time></trkpt><trkpt lat="40.66939529351081" lon="16.575794951725562"><ele>296.8</ele><time>2026-05-01T12:18:52Z</time></trkpt><trkpt lat="40.669419049640865" lon="16.5759410645465"><ele>297.6</ele><time>2026-05-01T12:18:53Z</time></trkpt><trkpt lat="40.66944431081731" lon="16.57607635927717"><ele>298.4</ele><time>2026-05-01T12:18:54Z</time></trkpt><trkpt lat="40.66946995951214" lon="16.576216337081718"><ele>299.2</ele><time>2026-05-01T12:18:55Z</time></trkpt><trkpt lat="40.669509468616155" lon="16.57635002385155"><ele>300.0</ele><time>2026-05-01T12:18:56Z</time></trkpt><trkpt lat="40.66953406130454" lon="16.576490627905823"><ele>300.5</ele><time>2026-05-01T12:18:57Z</time></trkpt><trkpt lat="40.669556039048366" lon="16.57664329771332"><ele>301.0</ele><time>2026-05-01T12:18:58Z</time></trkpt><trkpt lat="40.66957906681947" lon="16.576793009391096"><ele>301.5</ele><time>2026-05-01T12:18:59Z</time></trkpt><trkpt lat="40.66958270189653" lon="16.576968795993164"><ele>302.0</ele><time>2026-05-01T12:19:00Z</time></trkpt><trkpt lat="40.66961339008932" lon="16.5771641580746"><ele>303.33333333333337</ele><time>2026-05-01T12:19:01Z</time></trkpt><trkpt lat="40.66964226621276" lon="16.577354627349532"><ele>304.6666666666667</ele><time>2026-05-01T12:19:02Z</time></trkpt><trkpt lat="40.669682399936654" lon="16.577567904300263"><ele>306.0</ele><time>2026-05-01T12:19:03Z</time></trkpt><trkpt lat="40.669705969491204" lon="16.577793115776995"><ele>307.0</ele><time>2026-05-01T12:19:04Z</time></trkpt><trkpt lat="40.669733440533406" lon="16.578021745184365"><ele>308.0</ele><time>2026-05-01T12:19:05Z</time></trkpt><trkpt lat="40.66974979729732" lon="16.578218541713063"><ele>309.0</ele><time>2026-05-01T12:19:06Z</time></trkpt><trkpt lat="40.66974453182239" lon="16.578398365860444"><ele>309.0</ele><time>2026-05-01T12:19:07Z</time></trkpt><trkpt lat="40.669758383693065" lon="16.578507978031265"><ele>309.0</ele><time>2026-05-01T12:19:08Z</time></trkpt><trkpt lat="40.66977206975001" lon="16.578702606103285"><ele>309.0</ele><time>2026-05-01T12:19:09Z</time></trkpt><trkpt lat="40.66977754081578" lon="16.578858404827177"><ele>309.0</ele><time>2026-05-01T12:19:10Z</time></trkpt><trkpt lat="40.6697817053584" lon="16.578996596526487"><ele>310.8</ele><time>2026-05-01T12:19:11Z</time></trkpt><trkpt lat="40.66978878825071" lon="16.579113711413207"><ele>312.59999999999997</ele><time>2026-05-01T12:19:12Z</time></trkpt><trkpt lat="40.66979854945563" lon="16.57921944835304"><ele>314.4</ele><time>2026-05-01T12:19:13Z</time></trkpt><trkpt lat="40.66979100117747" lon="16.57931818539511"><ele>316.2</ele><time>2026-05-01T12:19:14Z</time></trkpt><trkpt lat="40.6699436354294" lon="16.579414374460754"><ele>318.0</ele><time>2026-05-01T12:19:16Z</time></trkpt><trkpt lat="40.67001850660635" lon="16.579424312559677"><ele>318.0</ele><time>2026-05-01T12:19:17Z</time></trkpt><trkpt lat="40.67009083770261" lon="16.579393017372627"><ele>318.0</ele><time>2026-05-01T12:19:18Z</time></trkpt><trkpt lat="40.670171837911894" lon="16.57934014263252"><ele>318.0</ele><time>2026-05-01T12:19:19Z</time></trkpt><trkpt lat="40.67025721456497" lon="16.579284308887683"><ele>318.0</ele><time>2026-05-01T12:19:20Z</time></trkpt><trkpt lat="40.67035559946965" lon="16.57921385693187"><ele>318.0</ele><time>2026-05-01T12:19:21Z</time></trkpt><trkpt lat="40.67043224491566" lon="16.57906795417102"><ele>319.0</ele><time>2026-05-01T12:19:22Z</time></trkpt><trkpt lat="40.670504060631714" lon="16.57885494409887"><ele>320.0</ele><time>2026-05-01T12:19:23Z</time></trkpt><trkpt lat="40.670542230578974" lon="16.578735736341812"><ele>321.0</ele><time>2026-05-01T12:19:24Z</time></trkpt><trkpt lat="40.670570665571894" lon="16.57857373556351"><ele>322.0</ele><time>2026-05-01T12:19:25Z</time></trkpt><trkpt lat="40.670626386685775" lon="16.578418825418645"><ele>321.75</ele><time>2026-05-01T12:19:26Z</time></trkpt><trkpt lat="40.67072612846576" lon="16.578290492408293"><ele>321.5</ele><time>2026-05-01T12:19:27Z</time></trkpt><trkpt lat="40.67085967191318" lon="16.57821272355049"><ele>321.25</ele><time>2026-05-01T12:19:28Z</time></trkpt><trkpt lat="40.671017233011156" lon="16.57817303842737"><ele>321.0</ele><time>2026-05-01T12:19:29Z</time></trkpt><trkpt lat="40.671188694454685" lon="16.57812887678557"><ele>321.0</ele><time>2026-05-01T12:19:30Z</time></trkpt><trkpt lat="40.67135970457772" lon="16.578079276963955"><ele>321.0</ele><time>2026-05-01T12:19:31Z</time></trkpt><trkpt lat="40.671530955331235" lon="16.578020807021776"><ele>321.0</ele><time>2026-05-01T12:19:32Z</time></trkpt><trkpt lat="40.671709717123406" lon="16.57796411328243"><ele>321.0</ele><time>2026-05-01T12:19:33Z</time></trkpt><trkpt lat="40.671894901591436" lon="16.577912431087057"><ele>321.0</ele><time>2026-05-01T12:19:34Z</time></trkpt><trkpt lat="40.67208218638519" lon="16.577861017566082"><ele>321.0</ele><time>2026-05-01T12:19:35Z</time></trkpt><trkpt lat="40.67227027760754" lon="16.577811260725376"><ele>321.0</ele><time>2026-05-01T12:19:36Z</time></trkpt><trkpt lat="40.67246148151671" lon="16.577757668817057"><ele>321.0</ele><time>2026-05-01T12:19:37Z</time></trkpt><trkpt lat="40.672657621908726" lon="16.577710839977865"><ele>321.0</ele><time>2026-05-01T12:19:38Z</time></trkpt><trkpt lat="40.67285540704458" lon="16.57767651471508"><ele>321.0</ele><time>2026-05-01T12:19:39Z</time></trkpt><trkpt lat="40.673065159794305" lon="16.577655604822635"><ele>321.0</ele><time>2026-05-01T12:19:40Z</time></trkpt><trkpt lat="40.67323893930912" lon="16.577658799831948"><ele>321.0</ele><time>2026-05-01T12:19:41Z</time></trkpt><trkpt lat="40.67341758047521" lon="16.577672229790917"><ele>321.0</ele><time>2026-05-01T12:19:42Z</time></trkpt><trkpt lat="40.67359675181503" lon="16.5776994373785"><ele>321.0</ele><time>2026-05-01T12:19:43Z</time></trkpt><trkpt lat="40.673778267957104" lon="16.577742329688153"><ele>321.0</ele><time>2026-05-01T12:19:44Z</time></trkpt><trkpt lat="40.673951454905186" lon="16.577799650102865"><ele>325.0</ele><time>2026-05-01T12:19:45Z</time></trkpt><trkpt lat="40.67411567198956" lon="16.57787474029574"><ele>329.0</ele><time>2026-05-01T12:19:46Z</time></trkpt><trkpt lat="40.674275821774565" lon="16.577963132829748"><ele>333.0</ele><time>2026-05-01T12:19:47Z</time></trkpt><trkpt lat="40.67443456574908" lon="16.578064843787264"><ele>334.3333333333333</ele><time>2026-05-01T12:19:48Z</time></trkpt><trkpt lat="40.67458310076982" lon="16.578197359722278"><ele>335.66666666666663</ele><time>2026-05-01T12:19:49Z</time></trkpt><trkpt lat="40.6747330736401" lon="16.578330113799076"><ele>337.0</ele><time>2026-05-01T12:19:50Z</time></trkpt><trkpt lat="40.6748800620491" lon="16.578478858882747"><ele>337.0</ele><time>2026-05-01T12:19:51Z</time></trkpt><trkpt lat="40.67502199577916" lon="16.57864591602222"><ele>337.0</ele><time>2026-05-01T12:19:52Z</time></trkpt><trkpt lat="40.67515605956272" lon="16.578828023988745"><ele>337.0</ele><time>2026-05-01T12:19:53Z</time></trkpt><trkpt lat="40.67528302613143" lon="16.579016648884185"><ele>338.66666666666663</ele><time>2026-05-01T12:19:54Z</time></trkpt><trkpt lat="40.67540225014139" lon="16.579206278047877"><ele>340.3333333333333</ele><time>2026-05-01T12:19:55Z</time></trkpt><trkpt lat="40.6755339761581" lon="16.579390131739373"><ele>342.0</ele><time>2026-05-01T12:19:56Z</time></trkpt><trkpt lat="40.67564874719511" lon="16.57959857348833"><ele>344.0</ele><time>2026-05-01T12:19:57Z</time></trkpt><trkpt lat="40.67576439599521" lon="16.57981059559813"><ele>346.0</ele><time>2026-05-01T12:19:58Z</time></trkpt><trkpt lat="40.67588156822354" lon="16.58001155958912"><ele>348.0</ele><time>2026-05-01T12:19:59Z</time></trkpt><trkpt lat="40.67599779403018" lon="16.58022094390884"><ele>349.6666666666667</ele><time>2026-05-01T12:20:00Z</time></trkpt><trkpt lat="40.676123864840804" lon="16.580427822447664"><ele>351.33333333333337</ele><time>2026-05-01T12:20:01Z</time></trkpt><trkpt lat="40.67624029884452" lon="16.580665481506973"><ele>353.0</ele><time>2026-05-01T12:20:02Z</time></trkpt><trkpt lat="40.67635670709329" lon="16.580869078226062"><ele>353.0</ele><time>2026-05-01T12:20:03Z</time></trkpt><trkpt lat="40.676478394143814" lon="16.581081906428455"><ele>353.0</ele><time>2026-05-01T12:20:04Z</time></trkpt><trkpt lat="40.67660619037144" lon="16.581290748033584"><ele>353.0</ele><time>2026-05-01T12:20:05Z</time></trkpt><trkpt lat="40.676737317382816" lon="16.581516082747715"><ele>353.5</ele><time>2026-05-01T12:20:06Z</time></trkpt><trkpt lat="40.676866405880816" lon="16.58174725083556"><ele>354.0</ele><time>2026-05-01T12:20:06.999Z</time></trkpt><trkpt lat="40.6770073547017" lon="16.581990613021883"><ele>353.0</ele><time>2026-05-01T12:20:07.999Z</time></trkpt><trkpt lat="40.67714112392879" lon="16.582231927406728"><ele>352.0</ele><time>2026-05-01T12:20:08.999Z</time></trkpt><trkpt lat="40.67728848681152" lon="16.58247291476581"><ele>352.0</ele><time>2026-05-01T12:20:09.999Z</time></trkpt><trkpt lat="40.67742703275156" lon="16.582739989855202"><ele>352.0</ele><time>2026-05-01T12:20:10.999Z</time></trkpt><trkpt lat="40.67755844938693" lon="16.582971876175314"><ele>354.5</ele><time>2026-05-01T12:20:11.999Z</time></trkpt><trkpt lat="40.67770492397927" lon="16.58323217375802"><ele>357.0</ele><time>2026-05-01T12:20:12.999Z</time></trkpt><trkpt lat="40.67784828898526" lon="16.583480321504705"><ele>358.5</ele><time>2026-05-01T12:20:13.999Z</time></trkpt><trkpt lat="40.67799149990026" lon="16.583719604417652"><ele>360.0</ele><time>2026-05-01T12:20:14.999Z</time></trkpt><trkpt lat="40.67814081295555" lon="16.58395364589883"><ele>360.0</ele><time>2026-05-01T12:20:15.999Z</time></trkpt><trkpt lat="40.678307096024746" lon="16.584169866879808"><ele>360.0</ele><time>2026-05-01T12:20:16.999Z</time></trkpt><trkpt lat="40.67846512726234" lon="16.584396978863683"><ele>361.0</ele><time>2026-05-01T12:20:17.999Z</time></trkpt><trkpt lat="40.67862042571581" lon="16.58462628118516"><ele>362.0</ele><time>2026-05-01T12:20:18.999Z</time></trkpt><trkpt lat="40.67878375401867" lon="16.584847140315286"><ele>362.0</ele><time>2026-05-01T12:20:19.999Z</time></trkpt><trkpt lat="40.67895068584681" lon="16.585061705629293"><ele>362.0</ele><time>2026-05-01T12:20:20.999Z</time></trkpt><trkpt lat="40.67912036112045" lon="16.585270501090793"><ele>363.0</ele><time>2026-05-01T12:20:21.999Z</time></trkpt><trkpt lat="40.67928552582506" lon="16.585488798249138"><ele>364.0</ele><time>2026-05-01T12:20:22.999Z</time></trkpt><trkpt lat="40.67944205910102" lon="16.585723804463857"><ele>365.5</ele><time>2026-05-01T12:20:23.999Z</time></trkpt><trkpt lat="40.67960012985737" lon="16.58593220105732"><ele>367.0</ele><time>2026-05-01T12:20:24.999Z</time></trkpt><trkpt lat="40.679759599507314" lon="16.58614510056654"><ele>367.0</ele><time>2026-05-01T12:20:25.999Z</time></trkpt><trkpt lat="40.67990380643589" lon="16.586338110308002"><ele>367.0</ele><time>2026-05-01T12:20:26.999Z</time></trkpt><trkpt lat="40.68005987135393" lon="16.58655602348728"><ele>367.0</ele><time>2026-05-01T12:20:27.999Z</time></trkpt><trkpt lat="40.680210142607024" lon="16.586767042646414"><ele>367.66666666666663</ele><time>2026-05-01T12:20:28.999Z</time></trkpt><trkpt lat="40.680358688578345" lon="16.586986563461625"><ele>368.3333333333333</ele><time>2026-05-01T12:20:29.999Z</time></trkpt><trkpt lat="40.680499326699774" lon="16.587196937742995"><ele>369.0</ele><time>2026-05-01T12:20:30.999Z</time></trkpt><trkpt lat="40.68063269727191" lon="16.587407949176388"><ele>369.0</ele><time>2026-05-01T12:20:31.999Z</time></trkpt><trkpt lat="40.68076063948569" lon="16.587611076634715"><ele>369.0</ele><time>2026-05-01T12:20:32.999Z</time></trkpt><trkpt lat="40.68090699479257" lon="16.587812530114412"><ele>369.0</ele><time>2026-05-01T12:20:33.999Z</time></trkpt><trkpt lat="40.68106194531731" lon="16.58804422618119"><ele>368.3333333333333</ele><time>2026-05-01T12:20:35Z</time></trkpt><trkpt lat="40.68118469453646" lon="16.58824668118766"><ele>367.66666666666663</ele><time>2026-05-01T12:20:36Z</time></trkpt><trkpt lat="40.68129364296586" lon="16.588449337769067"><ele>367.0</ele><time>2026-05-01T12:20:37Z</time></trkpt><trkpt lat="40.681383059914815" lon="16.588624222721325"><ele>365.0</ele><time>2026-05-01T12:20:38Z</time></trkpt><trkpt lat="40.6814855270891" lon="16.588822639945086"><ele>363.0</ele><time>2026-05-01T12:20:39Z</time></trkpt><trkpt lat="40.68157044708952" lon="16.589063751302717"><ele>361.0</ele><time>2026-05-01T12:20:40Z</time></trkpt><trkpt lat="40.68162247687975" lon="16.58930850755513"><ele>359.66666666666663</ele><time>2026-05-01T12:20:41Z</time></trkpt><trkpt lat="40.68165290461233" lon="16.58957344903137"><ele>358.3333333333333</ele><time>2026-05-01T12:20:42Z</time></trkpt><trkpt lat="40.681653931807915" lon="16.589858768788908"><ele>357.0</ele><time>2026-05-01T12:20:43Z</time></trkpt><trkpt lat="40.68166637364255" lon="16.590113959375167"><ele>355.3333333333333</ele><time>2026-05-01T12:20:44Z</time></trkpt><trkpt lat="40.681722790062885" lon="16.590380136313446"><ele>353.66666666666663</ele><time>2026-05-01T12:20:45Z</time></trkpt><trkpt lat="40.6817984559344" lon="16.59063619999425"><ele>352.0</ele><time>2026-05-01T12:20:46Z</time></trkpt><trkpt lat="40.68187860705794" lon="16.590899023808877"><ele>353.0</ele><time>2026-05-01T12:20:47Z</time></trkpt><trkpt lat="40.68196482873217" lon="16.5910829540421"><ele>354.0</ele><time>2026-05-01T12:20:48Z</time></trkpt><trkpt lat="40.68202997955517" lon="16.591270193232713"><ele>355.0</ele><time>2026-05-01T12:20:49Z</time></trkpt><trkpt lat="40.68213960613485" lon="16.591434022086347"><ele>353.0</ele><time>2026-05-01T12:20:50Z</time></trkpt><trkpt lat="40.682311408741974" lon="16.59153687801295"><ele>351.0</ele><time>2026-05-01T12:20:51Z</time></trkpt><trkpt lat="40.682457670486166" lon="16.591581812788746"><ele>349.0</ele><time>2026-05-01T12:20:52Z</time></trkpt><trkpt lat="40.68258178845312" lon="16.591589160564485"><ele>349.0</ele><time>2026-05-01T12:20:53Z</time></trkpt><trkpt lat="40.682731465490406" lon="16.59164748291031"><ele>349.0</ele><time>2026-05-01T12:20:54Z</time></trkpt><trkpt lat="40.68285638532367" lon="16.59168742366817"><ele>349.0</ele><time>2026-05-01T12:20:55Z</time></trkpt><trkpt lat="40.682949608426064" lon="16.5916752194763"><ele>349.0</ele><time>2026-05-01T12:20:56Z</time></trkpt><trkpt lat="40.68303118627928" lon="16.591701633412946"><ele>349.0</ele><time>2026-05-01T12:20:57Z</time></trkpt><trkpt lat="40.683115772880676" lon="16.59175487876891"><ele>349.0</ele><time>2026-05-01T12:20:58Z</time></trkpt><trkpt lat="40.68321131801878" lon="16.591842763446284"><ele>349.0</ele><time>2026-05-01T12:20:59Z</time></trkpt><trkpt lat="40.68328954770264" lon="16.59195941367746"><ele>349.0</ele><time>2026-05-01T12:21:00Z</time></trkpt><trkpt lat="40.683359345914695" lon="16.59208874242497"><ele>349.0</ele><time>2026-05-01T12:21:01Z</time></trkpt><trkpt lat="40.683414145647696" lon="16.59225408708433"><ele>348.0</ele><time>2026-05-01T12:21:02Z</time></trkpt><trkpt lat="40.68345900104614" lon="16.592439869602703"><ele>347.0</ele><time>2026-05-01T12:21:03Z</time></trkpt><trkpt lat="40.683506021436706" lon="16.592636462436605"><ele>346.0</ele><time>2026-05-01T12:21:04Z</time></trkpt><trkpt lat="40.683556851539706" lon="16.59281885120917"><ele>344.5</ele><time>2026-05-01T12:21:05Z</time></trkpt><trkpt lat="40.6835981187609" lon="16.592983744911137"><ele>343.0</ele><time>2026-05-01T12:21:06Z</time></trkpt><trkpt lat="40.68366077093439" lon="16.59316185561036"><ele>341.5</ele><time>2026-05-01T12:21:07Z</time></trkpt><trkpt lat="40.683680326459395" lon="16.593286913577167"><ele>340.0</ele><time>2026-05-01T12:21:08Z</time></trkpt><trkpt lat="40.68368439567839" lon="16.59341502315023"><ele>340.0</ele><time>2026-05-01T12:21:09Z</time></trkpt><trkpt lat="40.683680424427855" lon="16.593552269972125"><ele>340.0</ele><time>2026-05-01T12:21:10Z</time></trkpt><trkpt lat="40.68363423919003" lon="16.593717171901584"><ele>340.0</ele><time>2026-05-01T12:21:11Z</time></trkpt><trkpt lat="40.68358988562686" lon="16.593889270076733"><ele>340.0</ele><time>2026-05-01T12:21:12Z</time></trkpt><trkpt lat="40.68350172150531" lon="16.59403588668434"><ele>337.66666666666663</ele><time>2026-05-01T12:21:13Z</time></trkpt><trkpt lat="40.68340902815191" lon="16.59419612521205"><ele>335.3333333333333</ele><time>2026-05-01T12:21:14Z</time></trkpt><trkpt lat="40.68327863219953" lon="16.59432892322921"><ele>333.0</ele><time>2026-05-01T12:21:15Z</time></trkpt><trkpt lat="40.683149772313556" lon="16.594454478381092"><ele>332.6666666666667</ele><time>2026-05-01T12:21:16Z</time></trkpt><trkpt lat="40.68303898232991" lon="16.59459537833187"><ele>332.33333333333337</ele><time>2026-05-01T12:21:17Z</time></trkpt><trkpt lat="40.68299049633102" lon="16.594832952356292"><ele>332.0</ele><time>2026-05-01T12:21:18Z</time></trkpt><trkpt lat="40.68297523964577" lon="16.595094299159335"><ele>332.0</ele><time>2026-05-01T12:21:19Z</time></trkpt><trkpt lat="40.682932223143844" lon="16.5953243635237"><ele>332.0</ele><time>2026-05-01T12:21:20Z</time></trkpt><trkpt lat="40.68291438238535" lon="16.59553662668828"><ele>332.0</ele><time>2026-05-01T12:21:21Z</time></trkpt><trkpt lat="40.68288646666467" lon="16.595750027640452"><ele>331.0</ele><time>2026-05-01T12:21:22Z</time></trkpt><trkpt lat="40.68285298658709" lon="16.59595956950153"><ele>330.0</ele><time>2026-05-01T12:21:23Z</time></trkpt><trkpt lat="40.682817178241415" lon="16.596173136219146"><ele>329.0</ele><time>2026-05-01T12:21:24Z</time></trkpt><trkpt lat="40.68278078787896" lon="16.596384280008436"><ele>329.5</ele><time>2026-05-01T12:21:25Z</time></trkpt><trkpt lat="40.68274855268908" lon="16.596594992182453"><ele>330.0</ele><time>2026-05-01T12:21:26Z</time></trkpt><trkpt lat="40.682686223212414" lon="16.597033844609687"><ele>329.5</ele><time>2026-05-01T12:21:28Z</time></trkpt><trkpt lat="40.68265149777038" lon="16.59720166804259"><ele>329.0</ele><time>2026-05-01T12:21:29Z</time></trkpt><trkpt lat="40.68256219757631" lon="16.59735373406265"><ele>328.5</ele><time>2026-05-01T12:21:30Z</time></trkpt><trkpt lat="40.68247195205006" lon="16.597510829528066"><ele>328.0</ele><time>2026-05-01T12:21:31Z</time></trkpt><trkpt lat="40.68239446793085" lon="16.597691109092903"><ele>327.3333333333333</ele><time>2026-05-01T12:21:32Z</time></trkpt><trkpt lat="40.682303993449594" lon="16.597846327068318"><ele>326.6666666666667</ele><time>2026-05-01T12:21:33Z</time></trkpt><trkpt lat="40.682208623955596" lon="16.598034206238697"><ele>326.0</ele><time>2026-05-01T12:21:34Z</time></trkpt><trkpt lat="40.682137071716525" lon="16.598213011869284"><ele>326.0</ele><time>2026-05-01T12:21:35Z</time></trkpt><trkpt lat="40.682078688039375" lon="16.598394904095258"><ele>326.0</ele><time>2026-05-01T12:21:36Z</time></trkpt><trkpt lat="40.68202918695632" lon="16.598583947803643"><ele>326.0</ele><time>2026-05-01T12:21:37Z</time></trkpt><trkpt lat="40.68198380703028" lon="16.598799677541443"><ele>326.0</ele><time>2026-05-01T12:21:38Z</time></trkpt><trkpt lat="40.681947782772845" lon="16.59902071604151"><ele>326.0</ele><time>2026-05-01T12:21:39Z</time></trkpt><trkpt lat="40.68190254706122" lon="16.59921816040017"><ele>326.0</ele><time>2026-05-01T12:21:40Z</time></trkpt><trkpt lat="40.681872776038986" lon="16.59942917848634"><ele>325.33333333333337</ele><time>2026-05-01T12:21:41Z</time></trkpt><trkpt lat="40.68184310384903" lon="16.599642578210982"><ele>324.6666666666667</ele><time>2026-05-01T12:21:42Z</time></trkpt><trkpt lat="40.68181349168787" lon="16.59986063736088"><ele>324.0</ele><time>2026-05-01T12:21:43Z</time></trkpt><trkpt lat="40.68178485332275" lon="16.60007761341499"><ele>324.0</ele><time>2026-05-01T12:21:44Z</time></trkpt><trkpt lat="40.68176129535248" lon="16.600271481753754"><ele>324.0</ele><time>2026-05-01T12:21:45Z</time></trkpt><trkpt lat="40.681739588360934" lon="16.600464637966272"><ele>324.0</ele><time>2026-05-01T12:21:46Z</time></trkpt><trkpt lat="40.68171704773206" lon="16.600667101231707"><ele>323.5</ele><time>2026-05-01T12:21:47Z</time></trkpt><trkpt lat="40.681694790972436" lon="16.60085459864105"><ele>323.0</ele><time>2026-05-01T12:21:48Z</time></trkpt><trkpt lat="40.68167565215901" lon="16.60101713519942"><ele>322.5</ele><time>2026-05-01T12:21:49Z</time></trkpt><trkpt lat="40.68165552831743" lon="16.601188229952424"><ele>322.0</ele><time>2026-05-01T12:21:50Z</time></trkpt><trkpt lat="40.68163623570754" lon="16.601352257483263"><ele>321.8</ele><time>2026-05-01T12:21:51Z</time></trkpt><trkpt lat="40.68162077350193" lon="16.60148993729434"><ele>321.6</ele><time>2026-05-01T12:21:52Z</time></trkpt><trkpt lat="40.68160558921659" lon="16.601615677044418"><ele>321.40000000000003</ele><time>2026-05-01T12:21:53Z</time></trkpt><trkpt lat="40.68158793759816" lon="16.60173671972808"><ele>321.20000000000005</ele><time>2026-05-01T12:21:54Z</time></trkpt><trkpt lat="40.681579509830776" lon="16.601852100012565"><ele>321.0</ele><time>2026-05-01T12:21:55Z</time></trkpt><trkpt lat="40.68153466566994" lon="16.601941632082635"><ele>320.2</ele><time>2026-05-01T12:21:56Z</time></trkpt><trkpt lat="40.68145688777114" lon="16.60202898463124"><ele>319.40000000000003</ele><time>2026-05-01T12:21:57Z</time></trkpt><trkpt lat="40.68138903502716" lon="16.602102895289033"><ele>318.6</ele><time>2026-05-01T12:21:58Z</time></trkpt><trkpt lat="40.68134257800671" lon="16.602206426577123"><ele>317.8</ele><time>2026-05-01T12:21:59Z</time></trkpt><trkpt lat="40.681343857842876" lon="16.602343667106915"><ele>317.0</ele><time>2026-05-01T12:22:00Z</time></trkpt><trkpt lat="40.68135879683657" lon="16.60245900806813"><ele>317.0</ele><time>2026-05-01T12:22:01Z</time></trkpt><trkpt lat="40.68139607169787" lon="16.602586542595212"><ele>317.0</ele><time>2026-05-01T12:22:02Z</time></trkpt><trkpt lat="40.6814415137948" lon="16.6026983084535"><ele>317.0</ele><time>2026-05-01T12:22:03Z</time></trkpt><trkpt lat="40.68144266656176" lon="16.602863378149692"><ele>317.0</ele><time>2026-05-01T12:22:04Z</time></trkpt><trkpt lat="40.68143546976698" lon="16.603037538727463"><ele>317.0</ele><time>2026-05-01T12:22:05Z</time></trkpt><trkpt lat="40.68141440534205" lon="16.603234335517325"><ele>317.0</ele><time>2026-05-01T12:22:06Z</time></trkpt><trkpt lat="40.681391123822905" lon="16.60343047509086"><ele>317.0</ele><time>2026-05-01T12:22:07Z</time></trkpt><trkpt lat="40.68138618091766" lon="16.60361138805429"><ele>317.0</ele><time>2026-05-01T12:22:08Z</time></trkpt><trkpt lat="40.681349994078325" lon="16.60377801903492"><ele>316.75</ele><time>2026-05-01T12:22:09Z</time></trkpt><trkpt lat="40.681347664363045" lon="16.603927940765118"><ele>316.5</ele><time>2026-05-01T12:22:10Z</time></trkpt><trkpt lat="40.68132261777255" lon="16.604075025979093"><ele>316.25</ele><time>2026-05-01T12:22:11Z</time></trkpt><trkpt lat="40.68130687567862" lon="16.604245145017856"><ele>316.0</ele><time>2026-05-01T12:22:12Z</time></trkpt><trkpt lat="40.681283042137004" lon="16.604406481992772"><ele>316.5</ele><time>2026-05-01T12:22:13Z</time></trkpt><trkpt lat="40.68126674709112" lon="16.60455701448136"><ele>317.0</ele><time>2026-05-01T12:22:14Z</time></trkpt><trkpt lat="40.68124436172748" lon="16.60470770375526"><ele>317.5</ele><time>2026-05-01T12:22:15Z</time></trkpt><trkpt lat="40.681221857361116" lon="16.604902970974333"><ele>318.0</ele><time>2026-05-01T12:22:16Z</time></trkpt><trkpt lat="40.68119991395075" lon="16.605125433817122"><ele>319.6666666666667</ele><time>2026-05-01T12:22:17Z</time></trkpt><trkpt lat="40.681222489424876" lon="16.605347076456418"><ele>321.33333333333337</ele><time>2026-05-01T12:22:18Z</time></trkpt><trkpt lat="40.681302771304544" lon="16.605549404816333"><ele>323.0</ele><time>2026-05-01T12:22:19Z</time></trkpt><trkpt lat="40.681437430772604" lon="16.60573055280211"><ele>323.0</ele><time>2026-05-01T12:22:20Z</time></trkpt><trkpt lat="40.68161470364367" lon="16.605882158095536"><ele>323.0</ele><time>2026-05-01T12:22:21Z</time></trkpt><trkpt lat="40.681793438518596" lon="16.605966737293404"><ele>323.0</ele><time>2026-05-01T12:22:22Z</time></trkpt><trkpt lat="40.681928949316315" lon="16.60604949690073"><ele>322.75</ele><time>2026-05-01T12:22:23Z</time></trkpt><trkpt lat="40.68205118131474" lon="16.60612774535878"><ele>322.5</ele><time>2026-05-01T12:22:24Z</time></trkpt><trkpt lat="40.68209975993209" lon="16.60631570282447"><ele>322.25</ele><time>2026-05-01T12:22:25Z</time></trkpt><trkpt lat="40.6820986110128" lon="16.606485674757007"><ele>322.0</ele><time>2026-05-01T12:22:26Z</time></trkpt><trkpt lat="40.68204396187384" lon="16.606682833360832"><ele>322.0</ele><time>2026-05-01T12:22:27Z</time></trkpt><trkpt lat="40.681952698390575" lon="16.606907846833305"><ele>322.0</ele><time>2026-05-01T12:22:28Z</time></trkpt><trkpt lat="40.68186309310744" lon="16.607143833252913"><ele>322.0</ele><time>2026-05-01T12:22:29Z</time></trkpt><trkpt lat="40.68177980278072" lon="16.607374539219485"><ele>324.66666666666663</ele><time>2026-05-01T12:22:30Z</time></trkpt><trkpt lat="40.681697826990764" lon="16.60762321609375"><ele>327.3333333333333</ele><time>2026-05-01T12:22:31Z</time></trkpt><trkpt lat="40.681609521968795" lon="16.607888836993066"><ele>330.0</ele><time>2026-05-01T12:22:32Z</time></trkpt><trkpt lat="40.68149911299394" lon="16.608168648817973"><ele>330.3333333333333</ele><time>2026-05-01T12:22:33Z</time></trkpt><trkpt lat="40.681430762967054" lon="16.60841116497134"><ele>330.66666666666663</ele><time>2026-05-01T12:22:34Z</time></trkpt><trkpt lat="40.681355230022085" lon="16.608639239696988"><ele>331.0</ele><time>2026-05-01T12:22:35Z</time></trkpt><trkpt lat="40.681283597613046" lon="16.608860910466724"><ele>332.3333333333333</ele><time>2026-05-01T12:22:36Z</time></trkpt><trkpt lat="40.6812072947948" lon="16.609094480265387"><ele>333.6666666666667</ele><time>2026-05-01T12:22:37Z</time></trkpt><trkpt lat="40.68113760235092" lon="16.609326822336733"><ele>335.0</ele><time>2026-05-01T12:22:38Z</time></trkpt><trkpt lat="40.681082985185235" lon="16.609560263424708"><ele>338.0</ele><time>2026-05-01T12:22:39Z</time></trkpt><trkpt lat="40.68103726200829" lon="16.609818795413997"><ele>341.0</ele><time>2026-05-01T12:22:40Z</time></trkpt><trkpt lat="40.68099869709835" lon="16.610087635677207"><ele>344.0</ele><time>2026-05-01T12:22:41Z</time></trkpt><trkpt lat="40.680954439626916" lon="16.610348550439067"><ele>344.0</ele><time>2026-05-01T12:22:42Z</time></trkpt><trkpt lat="40.680910837081804" lon="16.610598272776134"><ele>344.0</ele><time>2026-05-01T12:22:43Z</time></trkpt><trkpt lat="40.68086806774056" lon="16.61084731606382"><ele>344.0</ele><time>2026-05-01T12:22:44Z</time></trkpt><trkpt lat="40.68081085075281" lon="16.611100199802873"><ele>345.33333333333337</ele><time>2026-05-01T12:22:45Z</time></trkpt><trkpt lat="40.68078434163956" lon="16.611352117987472"><ele>346.6666666666667</ele><time>2026-05-01T12:22:46Z</time></trkpt><trkpt lat="40.680744541535844" lon="16.61159148756682"><ele>348.0</ele><time>2026-05-01T12:22:47Z</time></trkpt><trkpt lat="40.68070331316878" lon="16.611835461617343"><ele>348.3333333333333</ele><time>2026-05-01T12:22:48Z</time></trkpt><trkpt lat="40.68066072321889" lon="16.612081526669932"><ele>348.66666666666663</ele><time>2026-05-01T12:22:49Z</time></trkpt><trkpt lat="40.68063234997143" lon="16.612323035438493"><ele>349.0</ele><time>2026-05-01T12:22:50Z</time></trkpt><trkpt lat="40.68060870465513" lon="16.612555267962215"><ele>349.0</ele><time>2026-05-01T12:22:51Z</time></trkpt><trkpt lat="40.68058661556167" lon="16.61280232161721"><ele>349.0</ele><time>2026-05-01T12:22:52Z</time></trkpt><trkpt lat="40.68056362271165" lon="16.61305751676164"><ele>349.0</ele><time>2026-05-01T12:22:53Z</time></trkpt><trkpt lat="40.68052388128368" lon="16.613315120608526"><ele>350.0</ele><time>2026-05-01T12:22:54Z</time></trkpt><trkpt lat="40.680514564316745" lon="16.613584327093182"><ele>351.0</ele><time>2026-05-01T12:22:55Z</time></trkpt><trkpt lat="40.6804848756772" lon="16.613857720198837"><ele>352.0</ele><time>2026-05-01T12:22:56Z</time></trkpt><trkpt lat="40.68046054581396" lon="16.614125454663505"><ele>352.0</ele><time>2026-05-01T12:22:57Z</time></trkpt><trkpt lat="40.68043467507731" lon="16.614396219883073"><ele>352.0</ele><time>2026-05-01T12:22:58Z</time></trkpt><trkpt lat="40.68040498142969" lon="16.61468823272443"><ele>352.0</ele><time>2026-05-01T12:22:59Z</time></trkpt><trkpt lat="40.68037546175098" lon="16.615016279520308"><ele>353.0</ele><time>2026-05-01T12:23:00Z</time></trkpt><trkpt lat="40.680349693478874" lon="16.61524909140329"><ele>354.0</ele><time>2026-05-01T12:23:01Z</time></trkpt><trkpt lat="40.68032143286062" lon="16.61554204300152"><ele>355.0</ele><time>2026-05-01T12:23:02Z</time></trkpt><trkpt lat="40.68029884281378" lon="16.61583230591328"><ele>355.0</ele><time>2026-05-01T12:23:03Z</time></trkpt><trkpt lat="40.68027396923114" lon="16.616127643131854"><ele>355.0</ele><time>2026-05-01T12:23:04Z</time></trkpt><trkpt lat="40.68024126041673" lon="16.616441469943805"><ele>358.5</ele><time>2026-05-01T12:23:05Z</time></trkpt><trkpt lat="40.68021635377223" lon="16.61676128223586"><ele>362.0</ele><time>2026-05-01T12:23:06Z</time></trkpt><trkpt lat="40.68017767404679" lon="16.61708633790411"><ele>362.0</ele><time>2026-05-01T12:23:07Z</time></trkpt><trkpt lat="40.680151915445194" lon="16.61739651539228"><ele>362.0</ele><time>2026-05-01T12:23:08Z</time></trkpt><trkpt lat="40.68012331521556" lon="16.61771062156401"><ele>361.5</ele><time>2026-05-01T12:23:09Z</time></trkpt><trkpt lat="40.68008422855429" lon="16.618047670926384"><ele>361.0</ele><time>2026-05-01T12:23:10Z</time></trkpt><trkpt lat="40.68002731404872" lon="16.618360246849214"><ele>360.5</ele><time>2026-05-01T12:23:11Z</time></trkpt><trkpt lat="40.67998699118786" lon="16.61870674168359"><ele>360.0</ele><time>2026-05-01T12:23:12Z</time></trkpt><trkpt lat="40.67998835423125" lon="16.618980229161732"><ele>360.0</ele><time>2026-05-01T12:23:13Z</time></trkpt><trkpt lat="40.67996682928794" lon="16.619279820255695"><ele>360.0</ele><time>2026-05-01T12:23:14Z</time></trkpt><trkpt lat="40.67994471885514" lon="16.61957376146056"><ele>360.0</ele><time>2026-05-01T12:23:15Z</time></trkpt><trkpt lat="40.67991077954407" lon="16.619857163037516"><ele>360.0</ele><time>2026-05-01T12:23:16Z</time></trkpt><trkpt lat="40.679882111013434" lon="16.62015044238599"><ele>360.0</ele><time>2026-05-01T12:23:17Z</time></trkpt><trkpt lat="40.679854555664406" lon="16.62044044482904"><ele>361.0</ele><time>2026-05-01T12:23:18Z</time></trkpt><trkpt lat="40.67982756846209" lon="16.62073978083417"><ele>362.0</ele><time>2026-05-01T12:23:19Z</time></trkpt><trkpt lat="40.67980992277883" lon="16.621048898688873"><ele>361.0</ele><time>2026-05-01T12:23:20Z</time></trkpt><trkpt lat="40.67978830197264" lon="16.621362142055695"><ele>360.0</ele><time>2026-05-01T12:23:21Z</time></trkpt><trkpt lat="40.67975587450979" lon="16.621706226985175"><ele>360.0</ele><time>2026-05-01T12:23:22Z</time></trkpt><trkpt lat="40.67973930543159" lon="16.62197571204808"><ele>360.0</ele><time>2026-05-01T12:23:23Z</time></trkpt><trkpt lat="40.67972256192637" lon="16.622287003537444"><ele>360.0</ele><time>2026-05-01T12:23:24Z</time></trkpt><trkpt lat="40.67975184471019" lon="16.622610572010124"><ele>357.5</ele><time>2026-05-01T12:23:25Z</time></trkpt><trkpt lat="40.679744766154755" lon="16.622932219397757"><ele>355.0</ele><time>2026-05-01T12:23:26Z</time></trkpt><trkpt lat="40.67974062194799" lon="16.623250840837095"><ele>355.0</ele><time>2026-05-01T12:23:27Z</time></trkpt><trkpt lat="40.67973205907891" lon="16.623577729602257"><ele>355.0</ele><time>2026-05-01T12:23:28Z</time></trkpt><trkpt lat="40.67971963206503" lon="16.623890183436675"><ele>354.3333333333333</ele><time>2026-05-01T12:23:29Z</time></trkpt><trkpt lat="40.6797119680976" lon="16.624191096806378"><ele>353.6666666666667</ele><time>2026-05-01T12:23:30Z</time></trkpt><trkpt lat="40.679699016053725" lon="16.624479501768374"><ele>353.0</ele><time>2026-05-01T12:23:31Z</time></trkpt><trkpt lat="40.679712454628344" lon="16.62479430451955"><ele>351.6666666666667</ele><time>2026-05-01T12:23:32Z</time></trkpt><trkpt lat="40.67968930958418" lon="16.62502823670004"><ele>350.3333333333333</ele><time>2026-05-01T12:23:33Z</time></trkpt><trkpt lat="40.67967160669377" lon="16.625266992507054"><ele>349.0</ele><time>2026-05-01T12:23:34Z</time></trkpt><trkpt lat="40.679656528217976" lon="16.625524545713667"><ele>348.0</ele><time>2026-05-01T12:23:35Z</time></trkpt><trkpt lat="40.679632516147514" lon="16.6258043572777"><ele>347.0</ele><time>2026-05-01T12:23:36Z</time></trkpt><trkpt lat="40.67959990300143" lon="16.626091460580785"><ele>346.0</ele><time>2026-05-01T12:23:37Z</time></trkpt><trkpt lat="40.67953961467826" lon="16.626386030869483"><ele>345.5</ele><time>2026-05-01T12:23:38Z</time></trkpt><trkpt lat="40.67944156269464" lon="16.626675866166753"><ele>345.0</ele><time>2026-05-01T12:23:39Z</time></trkpt><trkpt lat="40.67932305593931" lon="16.62697199604942"><ele>343.5</ele><time>2026-05-01T12:23:40Z</time></trkpt><trkpt lat="40.6791787806833" lon="16.627270187857775"><ele>342.0</ele><time>2026-05-01T12:23:41Z</time></trkpt><trkpt lat="40.67899979529864" lon="16.627571630576686"><ele>340.0</ele><time>2026-05-01T12:23:42Z</time></trkpt><trkpt lat="40.67876541616693" lon="16.62787518673629"><ele>338.0</ele><time>2026-05-01T12:23:43Z</time></trkpt><trkpt lat="40.67851931445108" lon="16.62817002183487"><ele>338.0</ele><time>2026-05-01T12:23:44Z</time></trkpt><trkpt lat="40.67831798000015" lon="16.628421744913982"><ele>338.0</ele><time>2026-05-01T12:23:45Z</time></trkpt><trkpt lat="40.678147713817" lon="16.62867198859237"><ele>337.5</ele><time>2026-05-01T12:23:46Z</time></trkpt><trkpt lat="40.678058530795276" lon="16.62900663044829"><ele>337.0</ele><time>2026-05-01T12:23:47Z</time></trkpt><trkpt lat="40.67798864762714" lon="16.629386321322876"><ele>335.5</ele><time>2026-05-01T12:23:48Z</time></trkpt><trkpt lat="40.67793189526413" lon="16.62978830059537"><ele>334.0</ele><time>2026-05-01T12:23:49Z</time></trkpt><trkpt lat="40.67782513094153" lon="16.630083901140484"><ele>339.0</ele><time>2026-05-01T12:23:50Z</time></trkpt><trkpt lat="40.6777083085566" lon="16.63038187387713"><ele>344.0</ele><time>2026-05-01T12:23:51Z</time></trkpt><trkpt lat="40.67759722438105" lon="16.630668742535573"><ele>344.0</ele><time>2026-05-01T12:23:52Z</time></trkpt><trkpt lat="40.67748543523077" lon="16.630979031243903"><ele>344.0</ele><time>2026-05-01T12:23:53Z</time></trkpt><trkpt lat="40.67735522771067" lon="16.63128661679393"><ele>341.5</ele><time>2026-05-01T12:23:54Z</time></trkpt><trkpt lat="40.67723677380837" lon="16.631603196730772"><ele>339.0</ele><time>2026-05-01T12:23:55Z</time></trkpt><trkpt lat="40.67712689402682" lon="16.631938026181853"><ele>338.5</ele><time>2026-05-01T12:23:56Z</time></trkpt><trkpt lat="40.67705379104221" lon="16.63232455579944"><ele>338.0</ele><time>2026-05-01T12:23:57Z</time></trkpt><trkpt lat="40.6770300737193" lon="16.632759493195135"><ele>337.5</ele><time>2026-05-01T12:23:58Z</time></trkpt><trkpt lat="40.677010128901884" lon="16.63316571408915"><ele>337.0</ele><time>2026-05-01T12:23:59Z</time></trkpt><trkpt lat="40.67700209309115" lon="16.63352340407639"><ele>337.0</ele><time>2026-05-01T12:24:00.001Z</time></trkpt><trkpt lat="40.67702310210214" lon="16.633865117941056"><ele>337.0</ele><time>2026-05-01T12:24:01.001Z</time></trkpt><trkpt lat="40.67700724757584" lon="16.634187436175555"><ele>336.0</ele><time>2026-05-01T12:24:02.001Z</time></trkpt><trkpt lat="40.67701145158048" lon="16.634525779054414"><ele>335.0</ele><time>2026-05-01T12:24:03.001Z</time></trkpt><trkpt lat="40.67703025401495" lon="16.63488104159931"><ele>335.0</ele><time>2026-05-01T12:24:04.001Z</time></trkpt><trkpt lat="40.677070194714034" lon="16.635263456484793"><ele>335.0</ele><time>2026-05-01T12:24:05.001Z</time></trkpt><trkpt lat="40.67712502941926" lon="16.635672865192124"><ele>336.0</ele><time>2026-05-01T12:24:06.001Z</time></trkpt><trkpt lat="40.677165162544576" lon="16.63605153789533"><ele>337.0</ele><time>2026-05-01T12:24:07.001Z</time></trkpt><trkpt lat="40.67720035988779" lon="16.636410304887853"><ele>338.5</ele><time>2026-05-01T12:24:08.001Z</time></trkpt><trkpt lat="40.67723965289862" lon="16.63676050462577"><ele>340.0</ele><time>2026-05-01T12:24:09.001Z</time></trkpt><trkpt lat="40.67727567350281" lon="16.637081694617592"><ele>341.5</ele><time>2026-05-01T12:24:10.001Z</time></trkpt><trkpt lat="40.67732600208679" lon="16.637412828929264"><ele>343.0</ele><time>2026-05-01T12:24:11.001Z</time></trkpt><trkpt lat="40.67738186981036" lon="16.63779558153668"><ele>344.0</ele><time>2026-05-01T12:24:12.001Z</time></trkpt><trkpt lat="40.6774105435538" lon="16.63809791952308"><ele>345.0</ele><time>2026-05-01T12:24:13.001Z</time></trkpt><trkpt lat="40.67747629316034" lon="16.638272158949988"><ele>346.0</ele><time>2026-05-01T12:24:14.001Z</time></trkpt><trkpt lat="40.67749124685906" lon="16.638458335830137"><ele>346.0</ele><time>2026-05-01T12:24:15.001Z</time></trkpt><trkpt lat="40.677479092136764" lon="16.63860874370707"><ele>346.0</ele><time>2026-05-01T12:24:16.001Z</time></trkpt><trkpt lat="40.67743353723544" lon="16.63875555090877"><ele>346.0</ele><time>2026-05-01T12:24:17.001Z</time></trkpt><trkpt lat="40.67738358960408" lon="16.638967217606574"><ele>346.0</ele><time>2026-05-01T12:24:18.001Z</time></trkpt><trkpt lat="40.677290429134544" lon="16.639186914077168"><ele>345.66666666666663</ele><time>2026-05-01T12:24:19.001Z</time></trkpt><trkpt lat="40.677200422118034" lon="16.63942143300837"><ele>345.3333333333333</ele><time>2026-05-01T12:24:20.001Z</time></trkpt><trkpt lat="40.67720151520645" lon="16.63965611248486"><ele>345.0</ele><time>2026-05-01T12:24:21.001Z</time></trkpt><trkpt lat="40.67725263572976" lon="16.639950885296585"><ele>345.0</ele><time>2026-05-01T12:24:22.001Z</time></trkpt><trkpt lat="40.6773305527769" lon="16.64026257448328"><ele>345.0</ele><time>2026-05-01T12:24:23.001Z</time></trkpt><trkpt lat="40.67736877954142" lon="16.64051393528385"><ele>345.0</ele><time>2026-05-01T12:24:24.001Z</time></trkpt><trkpt lat="40.67731961586742" lon="16.64072692723989"><ele>345.0</ele><time>2026-05-01T12:24:25.001Z</time></trkpt><trkpt lat="40.677231612348564" lon="16.640992356007683"><ele>345.0</ele><time>2026-05-01T12:24:26.001Z</time></trkpt><trkpt lat="40.677130497474295" lon="16.641267873771714"><ele>345.6666666666667</ele><time>2026-05-01T12:24:27.001Z</time></trkpt><trkpt lat="40.67704207916172" lon="16.641532216560268"><ele>346.33333333333337</ele><time>2026-05-01T12:24:28.001Z</time></trkpt><trkpt lat="40.67695659005366" lon="16.641746286311722"><ele>347.0</ele><time>2026-05-01T12:24:29.001Z</time></trkpt><trkpt lat="40.67687780288069" lon="16.641968274955822"><ele>349.0</ele><time>2026-05-01T12:24:30.001Z</time></trkpt><trkpt lat="40.67686315153919" lon="16.64218118892787"><ele>351.0</ele><time>2026-05-01T12:24:31.001Z</time></trkpt><trkpt lat="40.67689561563545" lon="16.642370013114157"><ele>353.0</ele><time>2026-05-01T12:24:32.001Z</time></trkpt><trkpt lat="40.67698139081558" lon="16.642519267335302"><ele>353.0</ele><time>2026-05-01T12:24:33.001Z</time></trkpt><trkpt lat="40.677111152722496" lon="16.6426011831745"><ele>353.0</ele><time>2026-05-01T12:24:34.001Z</time></trkpt><trkpt lat="40.67726049515019" lon="16.64262581294917"><ele>353.0</ele><time>2026-05-01T12:24:35.001Z</time></trkpt><trkpt lat="40.67742739020313" lon="16.642555721190387"><ele>353.0</ele><time>2026-05-01T12:24:36.001Z</time></trkpt><trkpt lat="40.677595181744024" lon="16.642470790537974"><ele>353.0</ele><time>2026-05-01T12:24:37.001Z</time></trkpt><trkpt lat="40.67771594639841" lon="16.642479480744367"><ele>353.0</ele><time>2026-05-01T12:24:38.001Z</time></trkpt><trkpt lat="40.67781186997069" lon="16.642505751201902"><ele>353.0</ele><time>2026-05-01T12:24:39.001Z</time></trkpt><trkpt lat="40.677890126621335" lon="16.64256514875214"><ele>352.5</ele><time>2026-05-01T12:24:40.001Z</time></trkpt><trkpt lat="40.67796465380723" lon="16.6426475742123"><ele>352.0</ele><time>2026-05-01T12:24:41.001Z</time></trkpt><trkpt lat="40.67799849013168" lon="16.64277912795064"><ele>351.5</ele><time>2026-05-01T12:24:42.001Z</time></trkpt><trkpt lat="40.678038113972704" lon="16.64294204946522"><ele>351.0</ele><time>2026-05-01T12:24:43.001Z</time></trkpt><trkpt lat="40.67807095249741" lon="16.643129721583726"><ele>351.0</ele><time>2026-05-01T12:24:44.001Z</time></trkpt><trkpt lat="40.678115596413235" lon="16.643374627170136"><ele>351.0</ele><time>2026-05-01T12:24:45.001Z</time></trkpt><trkpt lat="40.678170692771246" lon="16.643631757481526"><ele>351.0</ele><time>2026-05-01T12:24:46.001Z</time></trkpt><trkpt lat="40.678261827343675" lon="16.643896268868378"><ele>353.5</ele><time>2026-05-01T12:24:47.001Z</time></trkpt><trkpt lat="40.67839809705112" lon="16.644142859187806"><ele>356.0</ele><time>2026-05-01T12:24:48.001Z</time></trkpt><trkpt lat="40.678555042488355" lon="16.644366122849924"><ele>355.5</ele><time>2026-05-01T12:24:49.001Z</time></trkpt><trkpt lat="40.67874686917193" lon="16.644610091934524"><ele>355.0</ele><time>2026-05-01T12:24:50.001Z</time></trkpt><trkpt lat="40.678978981784056" lon="16.644914342823476"><ele>355.0</ele><time>2026-05-01T12:24:51.001Z</time></trkpt><trkpt lat="40.679119981250814" lon="16.64510509447989"><ele>355.0</ele><time>2026-05-01T12:24:52.001Z</time></trkpt><trkpt lat="40.679240962657175" lon="16.64534087285935"><ele>355.0</ele><time>2026-05-01T12:24:53.001Z</time></trkpt><trkpt lat="40.67931899566994" lon="16.645608991333432"><ele>357.0</ele><time>2026-05-01T12:24:54.001Z</time></trkpt><trkpt lat="40.679373779589206" lon="16.64587112514058"><ele>359.0</ele><time>2026-05-01T12:24:55.001Z</time></trkpt><trkpt lat="40.67941194142396" lon="16.646190809979117"><ele>359.0</ele><time>2026-05-01T12:24:56.001Z</time></trkpt><trkpt lat="40.679396605422696" lon="16.646538834547556"><ele>359.0</ele><time>2026-05-01T12:24:57.001Z</time></trkpt><trkpt lat="40.6793844747042" lon="16.64686206034258"><ele>360.0</ele><time>2026-05-01T12:24:58.001Z</time></trkpt><trkpt lat="40.67937376160878" lon="16.647150672975695"><ele>361.0</ele><time>2026-05-01T12:24:59.001Z</time></trkpt><trkpt lat="40.67941293452881" lon="16.64748801190479"><ele>361.5</ele><time>2026-05-01T12:25:00.001Z</time></trkpt><trkpt lat="40.679399980770235" lon="16.647847243075066"><ele>362.0</ele><time>2026-05-01T12:25:01.001Z</time></trkpt><trkpt lat="40.67937393990874" lon="16.648158522427103"><ele>362.0</ele><time>2026-05-01T12:25:02.001Z</time></trkpt><trkpt lat="40.679359158993556" lon="16.648440015393582"><ele>362.0</ele><time>2026-05-01T12:25:03.001Z</time></trkpt><trkpt lat="40.679321540866916" lon="16.64870038403737"><ele>362.0</ele><time>2026-05-01T12:25:04.001Z</time></trkpt><trkpt lat="40.67931448644287" lon="16.648936465194677"><ele>362.0</ele><time>2026-05-01T12:25:05.001Z</time></trkpt><trkpt lat="40.679307691908676" lon="16.64916384897865"><ele>362.0</ele><time>2026-05-01T12:25:06.001Z</time></trkpt><trkpt lat="40.67929711655781" lon="16.64939771655404"><ele>362.0</ele><time>2026-05-01T12:25:07.001Z</time></trkpt><trkpt lat="40.679275742577886" lon="16.649603101863995"><ele>362.33333333333337</ele><time>2026-05-01T12:25:08.001Z</time></trkpt><trkpt lat="40.67924226979304" lon="16.64979363229631"><ele>362.6666666666667</ele><time>2026-05-01T12:25:09.001Z</time></trkpt><trkpt lat="40.67919207162704" lon="16.65000747014065"><ele>363.0</ele><time>2026-05-01T12:25:10.001Z</time></trkpt><trkpt lat="40.67913690733854" lon="16.65023100558078"><ele>362.3333333333333</ele><time>2026-05-01T12:25:11.001Z</time></trkpt><trkpt lat="40.67908062024305" lon="16.650452933109214"><ele>361.66666666666663</ele><time>2026-05-01T12:25:12.001Z</time></trkpt><trkpt lat="40.67902286574514" lon="16.65068064628653"><ele>361.0</ele><time>2026-05-01T12:25:13.001Z</time></trkpt><trkpt lat="40.67896764113119" lon="16.650898384688944"><ele>361.66666666666663</ele><time>2026-05-01T12:25:14.001Z</time></trkpt><trkpt lat="40.67890998794623" lon="16.651125726586628"><ele>362.3333333333333</ele><time>2026-05-01T12:25:15.001Z</time></trkpt><trkpt lat="40.67886043726772" lon="16.651321205693407"><ele>363.0</ele><time>2026-05-01T12:25:16.001Z</time></trkpt><trkpt lat="40.67882031616635" lon="16.65153026253191"><ele>363.0</ele><time>2026-05-01T12:25:17.001Z</time></trkpt><trkpt lat="40.678759966171555" lon="16.651720254143"><ele>363.0</ele><time>2026-05-01T12:25:18.001Z</time></trkpt><trkpt lat="40.67870416960499" lon="16.651942922008182"><ele>363.0</ele><time>2026-05-01T12:25:19.001Z</time></trkpt><trkpt lat="40.678644781643754" lon="16.652179922069106"><ele>364.3333333333333</ele><time>2026-05-01T12:25:20.001Z</time></trkpt><trkpt lat="40.67858882231206" lon="16.652403239466043"><ele>365.66666666666663</ele><time>2026-05-01T12:25:21.001Z</time></trkpt><trkpt lat="40.67854230748837" lon="16.652588866588967"><ele>367.0</ele><time>2026-05-01T12:25:22.001Z</time></trkpt><trkpt lat="40.678490966324574" lon="16.652793754223612"><ele>367.66666666666663</ele><time>2026-05-01T12:25:23.001Z</time></trkpt><trkpt lat="40.67844147314039" lon="16.652991267126463"><ele>368.3333333333333</ele><time>2026-05-01T12:25:24.001Z</time></trkpt><trkpt lat="40.678391303462654" lon="16.653191479698712"><ele>369.0</ele><time>2026-05-01T12:25:25.001Z</time></trkpt><trkpt lat="40.678337114486084" lon="16.653435455943644"><ele>369.6666666666667</ele><time>2026-05-01T12:25:26.001Z</time></trkpt><trkpt lat="40.678281272371876" lon="16.653629586850087"><ele>370.33333333333337</ele><time>2026-05-01T12:25:27.001Z</time></trkpt><trkpt lat="40.67823156165033" lon="16.653828780459843"><ele>371.0</ele><time>2026-05-01T12:25:28.001Z</time></trkpt><trkpt lat="40.67819079460458" lon="16.65399732881755"><ele>371.0</ele><time>2026-05-01T12:25:29.001Z</time></trkpt><trkpt lat="40.67814670666249" lon="16.654194872907393"><ele>371.0</ele><time>2026-05-01T12:25:30.001Z</time></trkpt><trkpt lat="40.678105878638846" lon="16.654443667490646"><ele>371.0</ele><time>2026-05-01T12:25:31.001Z</time></trkpt><trkpt lat="40.67808939031898" lon="16.654637464782436"><ele>371.5</ele><time>2026-05-01T12:25:32.001Z</time></trkpt><trkpt lat="40.67808396735137" lon="16.654843454020675"><ele>372.0</ele><time>2026-05-01T12:25:33.001Z</time></trkpt><trkpt lat="40.67808862591918" lon="16.655020382588596"><ele>372.5</ele><time>2026-05-01T12:25:34.001Z</time></trkpt><trkpt lat="40.67809551524877" lon="16.655190808770413"><ele>373.0</ele><time>2026-05-01T12:25:35.001Z</time></trkpt><trkpt lat="40.678102901356446" lon="16.655373523999373"><ele>373.75</ele><time>2026-05-01T12:25:36.001Z</time></trkpt><trkpt lat="40.67811037791189" lon="16.65555847664415"><ele>374.5</ele><time>2026-05-01T12:25:37.001Z</time></trkpt><trkpt lat="40.67811795417396" lon="16.655745895792037"><ele>375.25</ele><time>2026-05-01T12:25:38.001Z</time></trkpt><trkpt lat="40.67815429589529" lon="16.655952647871096"><ele>376.0</ele><time>2026-05-01T12:25:39.001Z</time></trkpt><trkpt lat="40.67816397879877" lon="16.656164449723036"><ele>376.75</ele><time>2026-05-01T12:25:40.001Z</time></trkpt><trkpt lat="40.67816341846595" lon="16.656336411771104"><ele>377.5</ele><time>2026-05-01T12:25:41.001Z</time></trkpt><trkpt lat="40.678168432210384" lon="16.656501328739633"><ele>378.25</ele><time>2026-05-01T12:25:42.001Z</time></trkpt><trkpt lat="40.6781795867947" lon="16.65668341311398"><ele>379.0</ele><time>2026-05-01T12:25:43.001Z</time></trkpt><trkpt lat="40.67818400772005" lon="16.656856425418297"><ele>378.75</ele><time>2026-05-01T12:25:44.001Z</time></trkpt><trkpt lat="40.67818209283241" lon="16.65703343490029"><ele>378.5</ele><time>2026-05-01T12:25:45.001Z</time></trkpt><trkpt lat="40.678152974052175" lon="16.65722535094228"><ele>378.25</ele><time>2026-05-01T12:25:46.001Z</time></trkpt><trkpt lat="40.67809225215388" lon="16.657418492337023"><ele>378.0</ele><time>2026-05-01T12:25:47.001Z</time></trkpt><trkpt lat="40.678046383045846" lon="16.657589329830135"><ele>378.0</ele><time>2026-05-01T12:25:48.001Z</time></trkpt><trkpt lat="40.67799484449249" lon="16.65775153333415"><ele>378.0</ele><time>2026-05-01T12:25:49.001Z</time></trkpt><trkpt lat="40.67794214234296" lon="16.65792792880659"><ele>378.0</ele><time>2026-05-01T12:25:50.001Z</time></trkpt><trkpt lat="40.67789070077491" lon="16.658088325498493"><ele>378.0</ele><time>2026-05-01T12:25:51.001Z</time></trkpt><trkpt lat="40.67784510717898" lon="16.658249325146386"><ele>378.25</ele><time>2026-05-01T12:25:52.001Z</time></trkpt><trkpt lat="40.67779740604557" lon="16.658417758490103"><ele>378.5</ele><time>2026-05-01T12:25:53.001Z</time></trkpt><trkpt lat="40.67775365151002" lon="16.658592924138485"><ele>378.75</ele><time>2026-05-01T12:25:54.001Z</time></trkpt><trkpt lat="40.677707526155025" lon="16.65877131348769"><ele>379.0</ele><time>2026-05-01T12:25:55.001Z</time></trkpt><trkpt lat="40.677670916551634" lon="16.65892997185532"><ele>379.25</ele><time>2026-05-01T12:25:56.001Z</time></trkpt><trkpt lat="40.67762991764103" lon="16.659103724469457"><ele>379.5</ele><time>2026-05-01T12:25:57.001Z</time></trkpt><trkpt lat="40.67755462536554" lon="16.659260988373553"><ele>379.75</ele><time>2026-05-01T12:25:58.001Z</time></trkpt><trkpt lat="40.67750713485742" lon="16.65940253023601"><ele>380.0</ele><time>2026-05-01T12:25:59.001Z</time></trkpt><trkpt lat="40.677462454353154" lon="16.65955104851413"><ele>380.0</ele><time>2026-05-01T12:26:00.001Z</time></trkpt><trkpt lat="40.67741963975928" lon="16.6597133079308"><ele>380.0</ele><time>2026-05-01T12:26:01.001Z</time></trkpt><trkpt lat="40.67737124725604" lon="16.659890378345235"><ele>380.0</ele><time>2026-05-01T12:26:02.001Z</time></trkpt><trkpt lat="40.67732738726661" lon="16.66008931591341"><ele>380.0</ele><time>2026-05-01T12:26:03.001Z</time></trkpt><trkpt lat="40.67726991169683" lon="16.660285280169948"><ele>379.5</ele><time>2026-05-01T12:26:04.001Z</time></trkpt><trkpt lat="40.67721608418815" lon="16.66045800082007"><ele>379.0</ele><time>2026-05-01T12:26:05.001Z</time></trkpt><trkpt lat="40.67715540781641" lon="16.660655383520236"><ele>378.5</ele><time>2026-05-01T12:26:06.001Z</time></trkpt><trkpt lat="40.67710881430896" lon="16.660836357973146"><ele>378.0</ele><time>2026-05-01T12:26:07.001Z</time></trkpt><trkpt lat="40.677058901456334" lon="16.66100568948035"><ele>377.6666666666667</ele><time>2026-05-01T12:26:08.001Z</time></trkpt><trkpt lat="40.677008537331815" lon="16.66119746881526"><ele>377.33333333333337</ele><time>2026-05-01T12:26:09.001Z</time></trkpt><trkpt lat="40.67694642960728" lon="16.661373824822622"><ele>377.0</ele><time>2026-05-01T12:26:10.001Z</time></trkpt><trkpt lat="40.67691500965584" lon="16.661598438855023"><ele>377.0</ele><time>2026-05-01T12:26:11.001Z</time></trkpt><trkpt lat="40.676855684998664" lon="16.661832423971678"><ele>377.0</ele><time>2026-05-01T12:26:12.001Z</time></trkpt><trkpt lat="40.67677123701238" lon="16.66215399598974"><ele>377.0</ele><time>2026-05-01T12:26:13.001Z</time></trkpt><trkpt lat="40.67667815058528" lon="16.66252570586153"><ele>375.5</ele><time>2026-05-01T12:26:14.001Z</time></trkpt><trkpt lat="40.676562139818984" lon="16.662905040735346"><ele>374.0</ele><time>2026-05-01T12:26:15.001Z</time></trkpt><trkpt lat="40.67645453466572" lon="16.6632556428438"><ele>374.0</ele><time>2026-05-01T12:26:16.001Z</time></trkpt><trkpt lat="40.676372303625094" lon="16.66355015234765"><ele>374.0</ele><time>2026-05-01T12:26:17.001Z</time></trkpt><trkpt lat="40.67628185810983" lon="16.663788525386586"><ele>374.0</ele><time>2026-05-01T12:26:18.001Z</time></trkpt><trkpt lat="40.67621225310738" lon="16.66401809952077"><ele>374.0</ele><time>2026-05-01T12:26:19.001Z</time></trkpt><trkpt lat="40.67618573716099" lon="16.664262741631706"><ele>374.0</ele><time>2026-05-01T12:26:20.001Z</time></trkpt><trkpt lat="40.67621523671488" lon="16.66454275597531"><ele>374.0</ele><time>2026-05-01T12:26:21.001Z</time></trkpt><trkpt lat="40.67634113751971" lon="16.664826276946645"><ele>375.0</ele><time>2026-05-01T12:26:22.001Z</time></trkpt><trkpt lat="40.67651052963499" lon="16.665122860707108"><ele>376.0</ele><time>2026-05-01T12:26:23.001Z</time></trkpt><trkpt lat="40.67665070449898" lon="16.66541008175162"><ele>376.3333333333333</ele><time>2026-05-01T12:26:24.001Z</time></trkpt><trkpt lat="40.67676683047812" lon="16.66565918758621"><ele>376.6666666666667</ele><time>2026-05-01T12:26:25.002Z</time></trkpt><trkpt lat="40.67680320760372" lon="16.665902701137668"><ele>377.0</ele><time>2026-05-01T12:26:26.002Z</time></trkpt><trkpt lat="40.67684452138548" lon="16.66618306592205"><ele>377.0</ele><time>2026-05-01T12:26:27.002Z</time></trkpt><trkpt lat="40.67683786607945" lon="16.66647803066043"><ele>377.0</ele><time>2026-05-01T12:26:28.002Z</time></trkpt><trkpt lat="40.67681014141469" lon="16.666871499357203"><ele>377.5</ele><time>2026-05-01T12:26:29.002Z</time></trkpt><trkpt lat="40.67677744749809" lon="16.6672799611607"><ele>378.0</ele><time>2026-05-01T12:26:30.002Z</time></trkpt><trkpt lat="40.67674331325371" lon="16.667719781969986"><ele>378.0</ele><time>2026-05-01T12:26:31.001Z</time></trkpt><trkpt lat="40.67670864141303" lon="16.668185630664965"><ele>378.0</ele><time>2026-05-01T12:26:32.001Z</time></trkpt><trkpt lat="40.67667119958916" lon="16.668684162353063"><ele>378.0</ele><time>2026-05-01T12:26:33.001Z</time></trkpt><trkpt lat="40.67663661137122" lon="16.66913891239009"><ele>378.0</ele><time>2026-05-01T12:26:34.001Z</time></trkpt><trkpt lat="40.67660760053508" lon="16.669551766024238"><ele>379.0</ele><time>2026-05-01T12:26:35.001Z</time></trkpt><trkpt lat="40.67660362043588" lon="16.669976931176592"><ele>380.0</ele><time>2026-05-01T12:26:36.001Z</time></trkpt><trkpt lat="40.67664856168405" lon="16.6704413259633"><ele>380.5</ele><time>2026-05-01T12:26:37.001Z</time></trkpt><trkpt lat="40.67672739234493" lon="16.67095540898531"><ele>381.0</ele><time>2026-05-01T12:26:38.001Z</time></trkpt><trkpt lat="40.6767990714298" lon="16.67146542227018"><ele>381.5</ele><time>2026-05-01T12:26:39.001Z</time></trkpt><trkpt lat="40.676868537525486" lon="16.671974236307808"><ele>382.0</ele><time>2026-05-01T12:26:40.001Z</time></trkpt><trkpt lat="40.676933732002" lon="16.67244471822861"><ele>381.5</ele><time>2026-05-01T12:26:41.001Z</time></trkpt><trkpt lat="40.67699743258258" lon="16.672897299640677"><ele>381.0</ele><time>2026-05-01T12:26:42.001Z</time></trkpt><trkpt lat="40.67706223730971" lon="16.673368741928144"><ele>382.0</ele><time>2026-05-01T12:26:43.001Z</time></trkpt><trkpt lat="40.6771209565442" lon="16.67379799415847"><ele>383.0</ele><time>2026-05-01T12:26:44.001Z</time></trkpt><trkpt lat="40.67717544633871" lon="16.67418648306242"><ele>383.5</ele><time>2026-05-01T12:26:45.001Z</time></trkpt><trkpt lat="40.677201809191274" lon="16.67456807377194"><ele>384.0</ele><time>2026-05-01T12:26:46.001Z</time></trkpt><trkpt lat="40.67721818801299" lon="16.67499006973674"><ele>384.0</ele><time>2026-05-01T12:26:47.001Z</time></trkpt><trkpt lat="40.67722977642184" lon="16.67544467663162"><ele>384.0</ele><time>2026-05-01T12:26:48.001Z</time></trkpt><trkpt lat="40.677241740077434" lon="16.67587274057226"><ele>383.5</ele><time>2026-05-01T12:26:49.001Z</time></trkpt><trkpt lat="40.67725355198837" lon="16.676295374779205"><ele>383.0</ele><time>2026-05-01T12:26:50.001Z</time></trkpt><trkpt lat="40.67726162195307" lon="16.67662957387822"><ele>383.0</ele><time>2026-05-01T12:26:51.001Z</time></trkpt><trkpt lat="40.677263498335364" lon="16.676861587728553"><ele>383.0</ele><time>2026-05-01T12:26:52.001Z</time></trkpt><trkpt lat="40.67722569584924" lon="16.67709146359896"><ele>383.0</ele><time>2026-05-01T12:26:53.001Z</time></trkpt><trkpt lat="40.677133866011076" lon="16.677280728719886"><ele>381.5</ele><time>2026-05-01T12:26:54.001Z</time></trkpt><trkpt lat="40.67698123877115" lon="16.677475921391572"><ele>380.0</ele><time>2026-05-01T12:26:55.001Z</time></trkpt><trkpt lat="40.676790544064644" lon="16.677712208585543"><ele>380.5</ele><time>2026-05-01T12:26:56.001Z</time></trkpt><trkpt lat="40.67657200621578" lon="16.67798299584527"><ele>381.0</ele><time>2026-05-01T12:26:57.001Z</time></trkpt><trkpt lat="40.67632979776344" lon="16.678287361540686"><ele>380.5</ele><time>2026-05-01T12:26:58.001Z</time></trkpt><trkpt lat="40.67611798824416" lon="16.678658615687944"><ele>380.0</ele><time>2026-05-01T12:26:59.001Z</time></trkpt><trkpt lat="40.67591135222481" lon="16.679004246442172"><ele>381.5</ele><time>2026-05-01T12:27:00.001Z</time></trkpt><trkpt lat="40.67569475163574" lon="16.679373794686864"><ele>383.0</ele><time>2026-05-01T12:27:01.001Z</time></trkpt><trkpt lat="40.675539473913" lon="16.67973547846206"><ele>383.0</ele><time>2026-05-01T12:27:02.001Z</time></trkpt><trkpt lat="40.675381355454704" lon="16.680045714914307"><ele>383.0</ele><time>2026-05-01T12:27:03.001Z</time></trkpt><trkpt lat="40.67523021777123" lon="16.68034192476978"><ele>385.5</ele><time>2026-05-01T12:27:04.001Z</time></trkpt><trkpt lat="40.67509309696322" lon="16.680610663408473"><ele>388.0</ele><time>2026-05-01T12:27:05.001Z</time></trkpt><trkpt lat="40.67496297434895" lon="16.680865686510117"><ele>387.5</ele><time>2026-05-01T12:27:06.001Z</time></trkpt><trkpt lat="40.67483656074895" lon="16.68111344043859"><ele>387.0</ele><time>2026-05-01T12:27:07.001Z</time></trkpt><trkpt lat="40.674707697659976" lon="16.68136599504242"><ele>387.0</ele><time>2026-05-01T12:27:08.001Z</time></trkpt><trkpt lat="40.674586963916035" lon="16.68160252084684"><ele>387.0</ele><time>2026-05-01T12:27:09.001Z</time></trkpt><trkpt lat="40.67445040708229" lon="16.681870422836266"><ele>388.0</ele><time>2026-05-01T12:27:10.001Z</time></trkpt><trkpt lat="40.674331822195995" lon="16.682103439730568"><ele>389.0</ele><time>2026-05-01T12:27:11.001Z</time></trkpt><trkpt lat="40.67422085533742" lon="16.68232148322422"><ele>390.0</ele><time>2026-05-01T12:27:12.001Z</time></trkpt><trkpt lat="40.674102727396075" lon="16.68255359782869"><ele>389.0</ele><time>2026-05-01T12:27:13.001Z</time></trkpt><trkpt lat="40.67397732867739" lon="16.68279999909175"><ele>388.0</ele><time>2026-05-01T12:27:14.001Z</time></trkpt><trkpt lat="40.67384733633086" lon="16.683055426574917"><ele>388.0</ele><time>2026-05-01T12:27:15.001Z</time></trkpt><trkpt lat="40.673724401395475" lon="16.683296986646038"><ele>388.0</ele><time>2026-05-01T12:27:16.001Z</time></trkpt><trkpt lat="40.67361126940635" lon="16.683519284494402"><ele>388.0</ele><time>2026-05-01T12:27:17.001Z</time></trkpt><trkpt lat="40.67349429362197" lon="16.68374913517674"><ele>389.6666666666667</ele><time>2026-05-01T12:27:18.001Z</time></trkpt><trkpt lat="40.673381623055505" lon="16.683970526356482"><ele>391.33333333333337</ele><time>2026-05-01T12:27:19.001Z</time></trkpt><trkpt lat="40.673271827436615" lon="16.684186268433024"><ele>393.0</ele><time>2026-05-01T12:27:20.001Z</time></trkpt><trkpt lat="40.6731590253978" lon="16.684407917798588"><ele>392.33333333333337</ele><time>2026-05-01T12:27:21.001Z</time></trkpt><trkpt lat="40.67304961910216" lon="16.68462289473725"><ele>391.6666666666667</ele><time>2026-05-01T12:27:22.001Z</time></trkpt><trkpt lat="40.67295894197872" lon="16.684824338382267"><ele>391.0</ele><time>2026-05-01T12:27:23.001Z</time></trkpt><trkpt lat="40.672864900681056" lon="16.685017115123088"><ele>391.0</ele><time>2026-05-01T12:27:24.001Z</time></trkpt><trkpt lat="40.67278339457592" lon="16.68518536842431"><ele>391.0</ele><time>2026-05-01T12:27:25.001Z</time></trkpt><trkpt lat="40.672703162701936" lon="16.685340738693963"><ele>391.0</ele><time>2026-05-01T12:27:26.001Z</time></trkpt><trkpt lat="40.67260413835939" lon="16.685500143048614"><ele>392.25</ele><time>2026-05-01T12:27:27.001Z</time></trkpt><trkpt lat="40.67250800782765" lon="16.685676750256437"><ele>393.5</ele><time>2026-05-01T12:27:28.001Z</time></trkpt><trkpt lat="40.6724233105641" lon="16.68582774165213"><ele>394.75</ele><time>2026-05-01T12:27:29.001Z</time></trkpt><trkpt lat="40.672355793478026" lon="16.685983331856455"><ele>396.0</ele><time>2026-05-01T12:27:30.001Z</time></trkpt><trkpt lat="40.67226722650141" lon="16.686125277848266"><ele>396.66666666666663</ele><time>2026-05-01T12:27:31.001Z</time></trkpt><trkpt lat="40.672183659133594" lon="16.686328418608397"><ele>397.3333333333333</ele><time>2026-05-01T12:27:32.001Z</time></trkpt><trkpt lat="40.6720964909072" lon="16.686487503563605"><ele>398.0</ele><time>2026-05-01T12:27:33.001Z</time></trkpt><trkpt lat="40.67202203301428" lon="16.686637351848898"><ele>398.0</ele><time>2026-05-01T12:27:34.001Z</time></trkpt><trkpt lat="40.671946435275196" lon="16.68678808191769"><ele>398.0</ele><time>2026-05-01T12:27:35.001Z</time></trkpt><trkpt lat="40.67187817665012" lon="16.68692436904845"><ele>398.0</ele><time>2026-05-01T12:27:36.001Z</time></trkpt><trkpt lat="40.671814244320636" lon="16.68704936583112"><ele>398.0</ele><time>2026-05-01T12:27:37.001Z</time></trkpt><trkpt lat="40.67175646356952" lon="16.687173595904877"><ele>398.79999999999995</ele><time>2026-05-01T12:27:38.001Z</time></trkpt><trkpt lat="40.671698377865106" lon="16.68729331382707"><ele>399.6</ele><time>2026-05-01T12:27:39.001Z</time></trkpt><trkpt lat="40.67164297362495" lon="16.687403828267477"><ele>400.4</ele><time>2026-05-01T12:27:40.001Z</time></trkpt><trkpt lat="40.671588461153924" lon="16.68751270268753"><ele>401.20000000000005</ele><time>2026-05-01T12:27:41.001Z</time></trkpt><trkpt lat="40.671531152276565" lon="16.687629633986944"><ele>402.0</ele><time>2026-05-01T12:27:42.001Z</time></trkpt><trkpt lat="40.671474787575534" lon="16.687754158962942"><ele>402.20000000000005</ele><time>2026-05-01T12:27:43.001Z</time></trkpt><trkpt lat="40.671412868007664" lon="16.68787602740204"><ele>402.4</ele><time>2026-05-01T12:27:44.001Z</time></trkpt><trkpt lat="40.67134721741453" lon="16.68799755806974"><ele>402.6</ele><time>2026-05-01T12:27:45.001Z</time></trkpt><trkpt lat="40.67129699764386" lon="16.68809087372664"><ele>402.79999999999995</ele><time>2026-05-01T12:27:46.001Z</time></trkpt><trkpt lat="40.671249037796855" lon="16.688175358527403"><ele>403.0</ele><time>2026-05-01T12:27:47.001Z</time></trkpt><trkpt lat="40.67119792518081" lon="16.6882827229807"><ele>403.00000000000006</ele><time>2026-05-01T12:27:48.001Z</time></trkpt><trkpt lat="40.67115583431219" lon="16.68840045651803"><ele>403.0</ele><time>2026-05-01T12:27:49.001Z</time></trkpt><trkpt lat="40.67110264734899" lon="16.68850307745891"><ele>403.0</ele><time>2026-05-01T12:27:50.001Z</time></trkpt><trkpt lat="40.67105662290257" lon="16.688600131338024"><ele>403.0</ele><time>2026-05-01T12:27:51.001Z</time></trkpt><trkpt lat="40.671018596710006" lon="16.688680533954614"><ele>403.00000000000006</ele><time>2026-05-01T12:27:52.001Z</time></trkpt><trkpt lat="40.670977204342535" lon="16.688770942930024"><ele>403.0</ele><time>2026-05-01T12:27:53.001Z</time></trkpt><trkpt lat="40.67092912850592" lon="16.68883653875052"><ele>403.1666666666667</ele><time>2026-05-01T12:27:54.001Z</time></trkpt><trkpt lat="40.67088780620529" lon="16.688980460617206"><ele>403.33333333333337</ele><time>2026-05-01T12:27:56.001Z</time></trkpt><trkpt lat="40.67084604041336" lon="16.689070300573434"><ele>403.5</ele><time>2026-05-01T12:27:58.001Z</time></trkpt><trkpt lat="40.67080668096886" lon="16.689152687967987"><ele>403.66666666666663</ele><time>2026-05-01T12:28:01.001Z</time></trkpt><trkpt lat="40.67077263917664" lon="16.689242891956166"><ele>403.8333333333333</ele><time>2026-05-01T12:28:18.001Z</time></trkpt><trkpt lat="40.67072646514971" lon="16.68934460291203"><ele>404.0</ele><time>2026-05-01T12:28:19.001Z</time></trkpt><trkpt lat="40.67067782302853" lon="16.689463506439964"><ele>403.25</ele><time>2026-05-01T12:28:20.001Z</time></trkpt><trkpt lat="40.67061865640037" lon="16.689620582052523"><ele>402.5</ele><time>2026-05-01T12:28:21.001Z</time></trkpt><trkpt lat="40.67056240766263" lon="16.68976276974102"><ele>401.75</ele><time>2026-05-01T12:28:22Z</time></trkpt><trkpt lat="40.67051438382783" lon="16.689881064053814"><ele>401.0</ele><time>2026-05-01T12:28:23Z</time></trkpt><trkpt lat="40.67044889639866" lon="16.68998638538894"><ele>401.0</ele><time>2026-05-01T12:28:24Z</time></trkpt><trkpt lat="40.670353649649805" lon="16.69004640471841"><ele>401.0</ele><time>2026-05-01T12:28:25Z</time></trkpt><trkpt lat="40.6702598363078" lon="16.690053128889694"><ele>401.0</ele><time>2026-05-01T12:28:26Z</time></trkpt><trkpt lat="40.670177830311296" lon="16.690036482291685"><ele>401.0</ele><time>2026-05-01T12:28:27Z</time></trkpt><trkpt lat="40.670101351666766" lon="16.689867900938076"><ele>401.0</ele><time>2026-05-01T12:28:29Z</time></trkpt><trkpt lat="40.66997115343045" lon="16.689703389094205"><ele>402.0</ele><time>2026-05-01T12:28:30Z</time></trkpt><trkpt lat="40.669832945134324" lon="16.68955233756027"><ele>403.0</ele><time>2026-05-01T12:28:31.001Z</time></trkpt><trkpt lat="40.66971887716575" lon="16.689430018414694"><ele>404.0</ele><time>2026-05-01T12:28:32.001Z</time></trkpt><trkpt lat="40.66960083957762" lon="16.689315172831954"><ele>404.66666666666663</ele><time>2026-05-01T12:28:33.001Z</time></trkpt><trkpt lat="40.669463971008355" lon="16.689173550748375"><ele>405.33333333333337</ele><time>2026-05-01T12:28:34.001Z</time></trkpt><trkpt lat="40.669327383478546" lon="16.689025208274735"><ele>406.0</ele><time>2026-05-01T12:28:35.001Z</time></trkpt><trkpt lat="40.66918626739971" lon="16.688892251138796"><ele>406.6666666666667</ele><time>2026-05-01T12:28:36.001Z</time></trkpt><trkpt lat="40.6690203416981" lon="16.68882383851265"><ele>407.33333333333337</ele><time>2026-05-01T12:28:37.001Z</time></trkpt><trkpt lat="40.6688657028498" lon="16.688712811529705"><ele>408.0</ele><time>2026-05-01T12:28:38.001Z</time></trkpt><trkpt lat="40.66872715587102" lon="16.688617895264827"><ele>410.66666666666663</ele><time>2026-05-01T12:28:39.001Z</time></trkpt><trkpt lat="40.66856894050452" lon="16.688539378133218"><ele>413.3333333333333</ele><time>2026-05-01T12:28:40.001Z</time></trkpt><trkpt lat="40.66841324884761" lon="16.688456132057606"><ele>416.0</ele><time>2026-05-01T12:28:41.001Z</time></trkpt><trkpt lat="40.66826594999644" lon="16.688347689787467"><ele>416.0</ele><time>2026-05-01T12:28:42.001Z</time></trkpt><trkpt lat="40.66807280615069" lon="16.688361299939483"><ele>416.0</ele><time>2026-05-01T12:28:43.001Z</time></trkpt><trkpt lat="40.66789898044377" lon="16.688301412502078"><ele>416.0</ele><time>2026-05-01T12:28:44.001Z</time></trkpt><trkpt lat="40.6677383749314" lon="16.688231989787862"><ele>417.3333333333333</ele><time>2026-05-01T12:28:45.001Z</time></trkpt><trkpt lat="40.6675506080311" lon="16.688172332037876"><ele>418.66666666666663</ele><time>2026-05-01T12:28:46.001Z</time></trkpt><trkpt lat="40.66730741850356" lon="16.688115702357592"><ele>420.0</ele><time>2026-05-01T12:28:47.001Z</time></trkpt><trkpt lat="40.66711255104794" lon="16.688076637692976"><ele>420.33333333333337</ele><time>2026-05-01T12:28:48.001Z</time></trkpt><trkpt lat="40.66692338599517" lon="16.688075406292384"><ele>420.6666666666667</ele><time>2026-05-01T12:28:49.001Z</time></trkpt><trkpt lat="40.66674911476379" lon="16.688152961779604"><ele>421.0</ele><time>2026-05-01T12:28:50.001Z</time></trkpt><trkpt lat="40.66657320376912" lon="16.68828183016534"><ele>421.0</ele><time>2026-05-01T12:28:51.001Z</time></trkpt><trkpt lat="40.66640678696087" lon="16.68840161180015"><ele>421.0</ele><time>2026-05-01T12:28:52.001Z</time></trkpt><trkpt lat="40.66624671828121" lon="16.68856664421332"><ele>421.0</ele><time>2026-05-01T12:28:53.001Z</time></trkpt><trkpt lat="40.66607018700408" lon="16.68876293011318"><ele>421.5</ele><time>2026-05-01T12:28:54.001Z</time></trkpt><trkpt lat="40.665893293523936" lon="16.688964437728174"><ele>422.0</ele><time>2026-05-01T12:28:55.001Z</time></trkpt><trkpt lat="40.66573085142206" lon="16.68915162952258"><ele>422.0</ele><time>2026-05-01T12:28:56.001Z</time></trkpt><trkpt lat="40.665567614151996" lon="16.689342627337673"><ele>422.0</ele><time>2026-05-01T12:28:57.001Z</time></trkpt><trkpt lat="40.66539261490742" lon="16.689541542981562"><ele>422.0</ele><time>2026-05-01T12:28:58.001Z</time></trkpt><trkpt lat="40.665219774065704" lon="16.689742844276306"><ele>423.0</ele><time>2026-05-01T12:28:59.001Z</time></trkpt><trkpt lat="40.66506674293036" lon="16.689930261741132"><ele>424.0</ele><time>2026-05-01T12:29:00.001Z</time></trkpt><trkpt lat="40.66493024571824" lon="16.690113730956632"><ele>425.0</ele><time>2026-05-01T12:29:01.001Z</time></trkpt><trkpt lat="40.66480843083383" lon="16.690286825136543"><ele>425.0</ele><time>2026-05-01T12:29:02.001Z</time></trkpt><trkpt lat="40.66468050204342" lon="16.690453943802375"><ele>425.0</ele><time>2026-05-01T12:29:03.001Z</time></trkpt><trkpt lat="40.664552405859204" lon="16.690609322381256"><ele>425.0</ele><time>2026-05-01T12:29:04.001Z</time></trkpt><trkpt lat="40.66440192040019" lon="16.690763159617216"><ele>424.3333333333333</ele><time>2026-05-01T12:29:05.001Z</time></trkpt><trkpt lat="40.664228326897884" lon="16.69088055388445"><ele>423.66666666666663</ele><time>2026-05-01T12:29:06.001Z</time></trkpt><trkpt lat="40.66403597592551" lon="16.690993010810104"><ele>423.0</ele><time>2026-05-01T12:29:07.001Z</time></trkpt><trkpt lat="40.66382632517236" lon="16.691110392829955"><ele>421.5</ele><time>2026-05-01T12:29:08.001Z</time></trkpt><trkpt lat="40.66357770960857" lon="16.691246554748624"><ele>420.0</ele><time>2026-05-01T12:29:09.001Z</time></trkpt><trkpt lat="40.663317122927566" lon="16.691387769785003"><ele>420.0</ele><time>2026-05-01T12:29:10.001Z</time></trkpt><trkpt lat="40.663029011848955" lon="16.691543932631372"><ele>420.0</ele><time>2026-05-01T12:29:11.001Z</time></trkpt><trkpt lat="40.66271687332215" lon="16.691713207427398"><ele>420.0</ele><time>2026-05-01T12:29:12.001Z</time></trkpt><trkpt lat="40.66243424033806" lon="16.6918435283784"><ele>420.0</ele><time>2026-05-01T12:29:13.001Z</time></trkpt><trkpt lat="40.662157637347015" lon="16.69193154281954"><ele>419.5</ele><time>2026-05-01T12:29:14.001Z</time></trkpt><trkpt lat="40.66185476165246" lon="16.69202656874665"><ele>419.0</ele><time>2026-05-01T12:29:15.001Z</time></trkpt><trkpt lat="40.661540152597105" lon="16.692012523285378"><ele>419.0</ele><time>2026-05-01T12:29:16.001Z</time></trkpt><trkpt lat="40.66126332105307" lon="16.6919922831714"><ele>419.0</ele><time>2026-05-01T12:29:17.001Z</time></trkpt><trkpt lat="40.660989204523226" lon="16.69199066996222"><ele>420.5</ele><time>2026-05-01T12:29:18.001Z</time></trkpt><trkpt lat="40.66072921719863" lon="16.691957605890533"><ele>422.0</ele><time>2026-05-01T12:29:19.001Z</time></trkpt><trkpt lat="40.66046747844448" lon="16.69195554569062"><ele>423.0</ele><time>2026-05-01T12:29:20Z</time></trkpt><trkpt lat="40.66019342313466" lon="16.69197152105431"><ele>424.0</ele><time>2026-05-01T12:29:21Z</time></trkpt><trkpt lat="40.659918119269065" lon="16.691974272745053"><ele>424.0</ele><time>2026-05-01T12:29:22Z</time></trkpt><trkpt lat="40.659655010595365" lon="16.691957763535537"><ele>424.0</ele><time>2026-05-01T12:29:23Z</time></trkpt><trkpt lat="40.659402987620396" lon="16.691980201106247"><ele>425.0</ele><time>2026-05-01T12:29:24Z</time></trkpt><trkpt lat="40.65913802629602" lon="16.691958882154744"><ele>426.0</ele><time>2026-05-01T12:29:25Z</time></trkpt><trkpt lat="40.65885198363728" lon="16.691958113226445"><ele>426.0</ele><time>2026-05-01T12:29:26Z</time></trkpt><trkpt lat="40.65865026214351" lon="16.691960709861263"><ele>426.0</ele><time>2026-05-01T12:29:27Z</time></trkpt><trkpt lat="40.65838331663872" lon="16.691973688576844"><ele>429.66666666666663</ele><time>2026-05-01T12:29:28Z</time></trkpt><trkpt lat="40.65815777243817" lon="16.692016714254674"><ele>433.3333333333333</ele><time>2026-05-01T12:29:29Z</time></trkpt><trkpt lat="40.657947328993515" lon="16.692057680446112"><ele>437.0</ele><time>2026-05-01T12:29:30Z</time></trkpt><trkpt lat="40.657706372299714" lon="16.692127515972864"><ele>442.5</ele><time>2026-05-01T12:29:31Z</time></trkpt><trkpt lat="40.657483847987024" lon="16.692221959252716"><ele>448.0</ele><time>2026-05-01T12:29:32Z</time></trkpt><trkpt lat="40.65726888876352" lon="16.692328677604024"><ele>448.0</ele><time>2026-05-01T12:29:33Z</time></trkpt><trkpt lat="40.65705168489888" lon="16.692431016772602"><ele>448.0</ele><time>2026-05-01T12:29:34Z</time></trkpt><trkpt lat="40.65682622383743" lon="16.692516657700647"><ele>450.0</ele><time>2026-05-01T12:29:35Z</time></trkpt><trkpt lat="40.656605958753524" lon="16.692633837349163"><ele>452.0</ele><time>2026-05-01T12:29:36Z</time></trkpt><trkpt lat="40.65637641130013" lon="16.69271686099721"><ele>451.0</ele><time>2026-05-01T12:29:37Z</time></trkpt><trkpt lat="40.656143876159554" lon="16.692820170305612"><ele>450.0</ele><time>2026-05-01T12:29:38Z</time></trkpt><trkpt lat="40.65591514607725" lon="16.69292178914417"><ele>453.0</ele><time>2026-05-01T12:29:39Z</time></trkpt><trkpt lat="40.655693547448664" lon="16.693043162802965"><ele>456.0</ele><time>2026-05-01T12:29:40Z</time></trkpt><trkpt lat="40.65546167614923" lon="16.69314593753411"><ele>458.0</ele><time>2026-05-01T12:29:41Z</time></trkpt><trkpt lat="40.655227932744424" lon="16.69322709089277"><ele>460.0</ele><time>2026-05-01T12:29:42Z</time></trkpt><trkpt lat="40.654983446870745" lon="16.6933370157434"><ele>460.0</ele><time>2026-05-01T12:29:43Z</time></trkpt><trkpt lat="40.65473873955825" lon="16.693476629313427"><ele>460.0</ele><time>2026-05-01T12:29:44Z</time></trkpt><trkpt lat="40.654501150833084" lon="16.693582877473684"><ele>464.0</ele><time>2026-05-01T12:29:45Z</time></trkpt><trkpt lat="40.654269917557855" lon="16.69368718507735"><ele>468.0</ele><time>2026-05-01T12:29:46Z</time></trkpt><trkpt lat="40.654037091400426" lon="16.693791460533546"><ele>468.0</ele><time>2026-05-01T12:29:47Z</time></trkpt><trkpt lat="40.65381057725378" lon="16.693894768235758"><ele>468.0</ele><time>2026-05-01T12:29:48Z</time></trkpt><trkpt lat="40.65358083111946" lon="16.69399790324946"><ele>470.5</ele><time>2026-05-01T12:29:49Z</time></trkpt><trkpt lat="40.653353580588885" lon="16.69409281682739"><ele>473.0</ele><time>2026-05-01T12:29:50Z</time></trkpt><trkpt lat="40.65312350431302" lon="16.694193109309214"><ele>473.0</ele><time>2026-05-01T12:29:51Z</time></trkpt><trkpt lat="40.65289657755227" lon="16.694293122947744"><ele>473.0</ele><time>2026-05-01T12:29:52Z</time></trkpt><trkpt lat="40.65266612460528" lon="16.694394705324605"><ele>474.3333333333333</ele><time>2026-05-01T12:29:53Z</time></trkpt><trkpt lat="40.65244991660932" lon="16.69448624885404"><ele>475.66666666666663</ele><time>2026-05-01T12:29:54Z</time></trkpt><trkpt lat="40.65224947188593" lon="16.694575207592916"><ele>477.0</ele><time>2026-05-01T12:29:55Z</time></trkpt><trkpt lat="40.6520595803374" lon="16.694658252336"><ele>479.0</ele><time>2026-05-01T12:29:56Z</time></trkpt><trkpt lat="40.65188644077619" lon="16.69473153531187"><ele>481.0</ele><time>2026-05-01T12:29:57Z</time></trkpt><trkpt lat="40.651725888953216" lon="16.694803770766864"><ele>483.0</ele><time>2026-05-01T12:29:58Z</time></trkpt><trkpt lat="40.65155897409967" lon="16.69491327730146"><ele>483.0</ele><time>2026-05-01T12:29:59Z</time></trkpt><trkpt lat="40.6514010202823" lon="16.69510404552696"><ele>483.0</ele><time>2026-05-01T12:30:00Z</time></trkpt><trkpt lat="40.65125065585421" lon="16.695336857815942"><ele>483.0</ele><time>2026-05-01T12:30:01Z</time></trkpt><trkpt lat="40.651079070603956" lon="16.695564710599047"><ele>484.5</ele><time>2026-05-01T12:30:02Z</time></trkpt><trkpt lat="40.65090127353991" lon="16.695777881372642"><ele>486.0</ele><time>2026-05-01T12:30:03Z</time></trkpt><trkpt lat="40.650742759572736" lon="16.6959710023281"><ele>486.0</ele><time>2026-05-01T12:30:04Z</time></trkpt><trkpt lat="40.65057743935455" lon="16.696174373835966"><ele>486.0</ele><time>2026-05-01T12:30:05Z</time></trkpt><trkpt lat="40.6504205378634" lon="16.696364390357527"><ele>486.0</ele><time>2026-05-01T12:30:06Z</time></trkpt><trkpt lat="40.65026074378953" lon="16.69656341403408"><ele>486.0</ele><time>2026-05-01T12:30:07Z</time></trkpt><trkpt lat="40.6501370852268" lon="16.69672104779111"><ele>486.0</ele><time>2026-05-01T12:30:08Z</time></trkpt><trkpt lat="40.6499867889047" lon="16.696862911877748"><ele>486.0</ele><time>2026-05-01T12:30:09Z</time></trkpt><trkpt lat="40.64979652838861" lon="16.69694788665007"><ele>486.0</ele><time>2026-05-01T12:30:10Z</time></trkpt><trkpt lat="40.64958052738333" lon="16.6969910434681"><ele>486.0</ele><time>2026-05-01T12:30:11Z</time></trkpt><trkpt lat="40.64933725105899" lon="16.697025469282732"><ele>487.0</ele><time>2026-05-01T12:30:12Z</time></trkpt><trkpt lat="40.64910832355084" lon="16.69706261085018"><ele>488.0</ele><time>2026-05-01T12:30:13Z</time></trkpt><trkpt lat="40.64886978505345" lon="16.69711420317794"><ele>488.0</ele><time>2026-05-01T12:30:14Z</time></trkpt><trkpt lat="40.64864087256694" lon="16.697171457502396"><ele>488.0</ele><time>2026-05-01T12:30:15Z</time></trkpt><trkpt lat="40.64840917464979" lon="16.69722695373145"><ele>487.5</ele><time>2026-05-01T12:30:16Z</time></trkpt><trkpt lat="40.64816879696426" lon="16.697286169793525"><ele>487.0</ele><time>2026-05-01T12:30:17Z</time></trkpt><trkpt lat="40.64792930085554" lon="16.697346714326343"><ele>486.0</ele><time>2026-05-01T12:30:18Z</time></trkpt><trkpt lat="40.64770520537665" lon="16.697404502294262"><ele>485.0</ele><time>2026-05-01T12:30:19Z</time></trkpt><trkpt lat="40.6474790466658" lon="16.697455103249574"><ele>485.0</ele><time>2026-05-01T12:30:20Z</time></trkpt><trkpt lat="40.64725414360738" lon="16.697509932794585"><ele>485.0</ele><time>2026-05-01T12:30:21Z</time></trkpt><trkpt lat="40.64703059717853" lon="16.69756916779695"><ele>485.5</ele><time>2026-05-01T12:30:22Z</time></trkpt><trkpt lat="40.64678332600663" lon="16.697638525891012"><ele>486.0</ele><time>2026-05-01T12:30:23Z</time></trkpt><trkpt lat="40.64655821171891" lon="16.697673869960894"><ele>486.0</ele><time>2026-05-01T12:30:24Z</time></trkpt><trkpt lat="40.64634041076604" lon="16.697730656301683"><ele>486.0</ele><time>2026-05-01T12:30:25Z</time></trkpt><trkpt lat="40.64611351707625" lon="16.697780345582895"><ele>485.0</ele><time>2026-05-01T12:30:26Z</time></trkpt><trkpt lat="40.64588114663262" lon="16.697833909127908"><ele>484.0</ele><time>2026-05-01T12:30:27Z</time></trkpt><trkpt lat="40.64564679231" lon="16.697887660395097"><ele>484.0</ele><time>2026-05-01T12:30:28Z</time></trkpt><trkpt lat="40.64540295198727" lon="16.697940612647773"><ele>484.0</ele><time>2026-05-01T12:30:29Z</time></trkpt><trkpt lat="40.6451591225365" lon="16.697996239364436"><ele>484.0</ele><time>2026-05-01T12:30:30Z</time></trkpt><trkpt lat="40.64491726256916" lon="16.698052368945405"><ele>484.0</ele><time>2026-05-01T12:30:31Z</time></trkpt><trkpt lat="40.64467016657195" lon="16.69810711949911"><ele>482.5</ele><time>2026-05-01T12:30:32Z</time></trkpt><trkpt lat="40.644416087500844" lon="16.698159504619788"><ele>481.0</ele><time>2026-05-01T12:30:33Z</time></trkpt><trkpt lat="40.64416145052428" lon="16.698219777301315"><ele>481.0</ele><time>2026-05-01T12:30:34Z</time></trkpt><trkpt lat="40.64390783365885" lon="16.698278922059025"><ele>481.0</ele><time>2026-05-01T12:30:35Z</time></trkpt><trkpt lat="40.64365973467533" lon="16.69833274831882"><ele>479.5</ele><time>2026-05-01T12:30:36Z</time></trkpt><trkpt lat="40.643426629413035" lon="16.69838601660564"><ele>478.0</ele><time>2026-05-01T12:30:37.001Z</time></trkpt><trkpt lat="40.64318615401343" lon="16.6984349879293"><ele>478.0</ele><time>2026-05-01T12:30:38.001Z</time></trkpt><trkpt lat="40.642945367269206" lon="16.69849828039452"><ele>478.0</ele><time>2026-05-01T12:30:39.001Z</time></trkpt><trkpt lat="40.642694511697016" lon="16.698556795081643"><ele>477.5</ele><time>2026-05-01T12:30:40.001Z</time></trkpt><trkpt lat="40.64244515191897" lon="16.69861206566679"><ele>477.0</ele><time>2026-05-01T12:30:41.001Z</time></trkpt><trkpt lat="40.64220220187617" lon="16.69866729740377"><ele>475.5</ele><time>2026-05-01T12:30:42.001Z</time></trkpt><trkpt lat="40.64195726042994" lon="16.698721414831688"><ele>474.0</ele><time>2026-05-01T12:30:43.001Z</time></trkpt><trkpt lat="40.641725596270504" lon="16.698774142923533"><ele>474.0</ele><time>2026-05-01T12:30:44.001Z</time></trkpt><trkpt lat="40.64150260273577" lon="16.698826632157957"><ele>474.0</ele><time>2026-05-01T12:30:45.001Z</time></trkpt><trkpt lat="40.641277829167635" lon="16.698876671069424"><ele>472.33333333333337</ele><time>2026-05-01T12:30:46.001Z</time></trkpt><trkpt lat="40.641073423637934" lon="16.698927017250202"><ele>470.6666666666667</ele><time>2026-05-01T12:30:47.001Z</time></trkpt><trkpt lat="40.64087527083954" lon="16.698973555524724"><ele>469.0</ele><time>2026-05-01T12:30:48.001Z</time></trkpt><trkpt lat="40.640683735818484" lon="16.699020684570584"><ele>469.0</ele><time>2026-05-01T12:30:49.001Z</time></trkpt><trkpt lat="40.640481362755025" lon="16.69903217988314"><ele>469.0</ele><time>2026-05-01T12:30:50.001Z</time></trkpt><trkpt lat="40.640286441023626" lon="16.699077047622943"><ele>469.0</ele><time>2026-05-01T12:30:51.001Z</time></trkpt><trkpt lat="40.64010655507813" lon="16.699119124230624"><ele>467.6666666666667</ele><time>2026-05-01T12:30:52.001Z</time></trkpt><trkpt lat="40.63992189954653" lon="16.699202922502288"><ele>466.33333333333337</ele><time>2026-05-01T12:30:53.001Z</time></trkpt><trkpt lat="40.639722393242785" lon="16.699288374980302"><ele>465.0</ele><time>2026-05-01T12:30:54.001Z</time></trkpt><trkpt lat="40.639515808997686" lon="16.69939534722659"><ele>462.66666666666663</ele><time>2026-05-01T12:30:55.001Z</time></trkpt><trkpt lat="40.63929835410256" lon="16.699490401529825"><ele>460.3333333333333</ele><time>2026-05-01T12:30:56.001Z</time></trkpt><trkpt lat="40.63909412347971" lon="16.699599583236427"><ele>458.0</ele><time>2026-05-01T12:30:57.001Z</time></trkpt><trkpt lat="40.63888118667608" lon="16.699711555577622"><ele>458.0</ele><time>2026-05-01T12:30:58.001Z</time></trkpt><trkpt lat="40.638660811818774" lon="16.699826983118072"><ele>458.0</ele><time>2026-05-01T12:30:59.001Z</time></trkpt><trkpt lat="40.6384289783983" lon="16.699947469464075"><ele>455.5</ele><time>2026-05-01T12:31:00.001Z</time></trkpt><trkpt lat="40.63819681518599" lon="16.700042390511662"><ele>453.0</ele><time>2026-05-01T12:31:01.001Z</time></trkpt><trkpt lat="40.637939441323134" lon="16.700134764189325"><ele>450.0</ele><time>2026-05-01T12:31:02.001Z</time></trkpt><trkpt lat="40.63767086315101" lon="16.70012756103784"><ele>447.0</ele><time>2026-05-01T12:31:03.001Z</time></trkpt><trkpt lat="40.637411201799544" lon="16.700107233359464"><ele>447.0</ele><time>2026-05-01T12:31:04.001Z</time></trkpt><trkpt lat="40.63715796564589" lon="16.700092397267056"><ele>447.0</ele><time>2026-05-01T12:31:05.001Z</time></trkpt><trkpt lat="40.63692068989088" lon="16.700040208696482"><ele>446.33333333333337</ele><time>2026-05-01T12:31:06.001Z</time></trkpt><trkpt lat="40.636700289827864" lon="16.700020825464716"><ele>445.6666666666667</ele><time>2026-05-01T12:31:07.001Z</time></trkpt><trkpt lat="40.636510836757424" lon="16.70000880075611"><ele>445.0</ele><time>2026-05-01T12:31:08.001Z</time></trkpt><trkpt lat="40.63636029591837" lon="16.699986110381996"><ele>445.0</ele><time>2026-05-01T12:31:09.001Z</time></trkpt><trkpt lat="40.63622622452737" lon="16.699906453283695"><ele>445.0</ele><time>2026-05-01T12:31:10.001Z</time></trkpt><trkpt lat="40.63614491054953" lon="16.699756885622232"><ele>445.0</ele><time>2026-05-01T12:31:11.001Z</time></trkpt><trkpt lat="40.636029314011445" lon="16.699567895490915"><ele>445.6666666666667</ele><time>2026-05-01T12:31:12.001Z</time></trkpt><trkpt lat="40.635906718271" lon="16.699338012040187"><ele>446.33333333333337</ele><time>2026-05-01T12:31:13.001Z</time></trkpt><trkpt lat="40.635807123751405" lon="16.699090572059475"><ele>447.0</ele><time>2026-05-01T12:31:14.001Z</time></trkpt><trkpt lat="40.6357156976694" lon="16.698843728053344"><ele>447.0</ele><time>2026-05-01T12:31:15.001Z</time></trkpt><trkpt lat="40.635657038424405" lon="16.698627174159405"><ele>447.0</ele><time>2026-05-01T12:31:16.001Z</time></trkpt><trkpt lat="40.63559374227969" lon="16.698411761470496"><ele>447.0</ele><time>2026-05-01T12:31:17.001Z</time></trkpt><trkpt lat="40.63552711373545" lon="16.6981902834298"><ele>447.66666666666663</ele><time>2026-05-01T12:31:18.001Z</time></trkpt><trkpt lat="40.63548321058832" lon="16.698003930881818"><ele>448.3333333333333</ele><time>2026-05-01T12:31:19.001Z</time></trkpt><trkpt lat="40.63543241743504" lon="16.697829426033174"><ele>449.0</ele><time>2026-05-01T12:31:20.001Z</time></trkpt><trkpt lat="40.63535555854613" lon="16.697545289370517"><ele>449.66666666666663</ele><time>2026-05-01T12:31:21.001Z</time></trkpt><trkpt lat="40.63527531909658" lon="16.697293390441697"><ele>450.33333333333337</ele><time>2026-05-01T12:31:22.001Z</time></trkpt><trkpt lat="40.635207651049065" lon="16.69705265868616"><ele>451.0</ele><time>2026-05-01T12:31:23.001Z</time></trkpt><trkpt lat="40.63514000003854" lon="16.69683504055686"><ele>451.33333333333337</ele><time>2026-05-01T12:31:24.001Z</time></trkpt><trkpt lat="40.6350690305252" lon="16.696633925187722"><ele>451.66666666666663</ele><time>2026-05-01T12:31:25.001Z</time></trkpt><trkpt lat="40.63500801079751" lon="16.69642515782487"><ele>452.0</ele><time>2026-05-01T12:31:26.001Z</time></trkpt><trkpt lat="40.634913713992276" lon="16.696240024308313"><ele>452.0</ele><time>2026-05-01T12:31:27.001Z</time></trkpt><trkpt lat="40.63479711906519" lon="16.69612248867949"><ele>452.0</ele><time>2026-05-01T12:31:28.001Z</time></trkpt><trkpt lat="40.63465483465172" lon="16.696030980606242"><ele>452.0</ele><time>2026-05-01T12:31:29.001Z</time></trkpt><trkpt lat="40.63449336242869" lon="16.69604923688541"><ele>451.0</ele><time>2026-05-01T12:31:30.001Z</time></trkpt><trkpt lat="40.63436221652996" lon="16.696089555139757"><ele>450.0</ele><time>2026-05-01T12:31:31.001Z</time></trkpt><trkpt lat="40.63425266077107" lon="16.696117763647326"><ele>449.0</ele><time>2026-05-01T12:31:32.001Z</time></trkpt><trkpt lat="40.63394971063761" lon="16.69625044764838"><ele>449.0</ele><time>2026-05-01T12:31:33.001Z</time></trkpt><trkpt lat="40.63368418559936" lon="16.696321348947098"><ele>449.0</ele><time>2026-05-01T12:31:34.001Z</time></trkpt><trkpt lat="40.63347727914714" lon="16.69639314532408"><ele>447.3333333333333</ele><time>2026-05-01T12:31:35.001Z</time></trkpt><trkpt lat="40.633291972863304" lon="16.696457208000027"><ele>445.66666666666663</ele><time>2026-05-01T12:31:36.001Z</time></trkpt><trkpt lat="40.63312894058361" lon="16.696495945751813"><ele>444.0</ele><time>2026-05-01T12:31:37.001Z</time></trkpt><trkpt lat="40.63299567406143" lon="16.69654278070555"><ele>444.0</ele><time>2026-05-01T12:31:38.001Z</time></trkpt><trkpt lat="40.63283494912264" lon="16.696600397548075"><ele>444.0</ele><time>2026-05-01T12:31:39.001Z</time></trkpt><trkpt lat="40.6326638677108" lon="16.69666962760008"><ele>444.0</ele><time>2026-05-01T12:31:40.001Z</time></trkpt><trkpt lat="40.63247523039688" lon="16.696768596749994"><ele>443.33333333333337</ele><time>2026-05-01T12:31:41.001Z</time></trkpt><trkpt lat="40.63233187034248" lon="16.696849691056975"><ele>442.6666666666667</ele><time>2026-05-01T12:31:42.001Z</time></trkpt><trkpt lat="40.632196552388294" lon="16.696944926137416"><ele>442.0</ele><time>2026-05-01T12:31:43Z</time></trkpt><trkpt lat="40.632049724940366" lon="16.6970617148821"><ele>441.33333333333337</ele><time>2026-05-01T12:31:44Z</time></trkpt><trkpt lat="40.63189312516606" lon="16.69718630978089"><ele>440.66666666666663</ele><time>2026-05-01T12:31:45Z</time></trkpt><trkpt lat="40.631738724045945" lon="16.697308128945878"><ele>440.0</ele><time>2026-05-01T12:31:46Z</time></trkpt><trkpt lat="40.63158860332704" lon="16.697447733364662"><ele>440.0</ele><time>2026-05-01T12:31:47Z</time></trkpt><trkpt lat="40.631373277104444" lon="16.69756529789949"><ele>440.0</ele><time>2026-05-01T12:31:48Z</time></trkpt><trkpt lat="40.63122811865029" lon="16.697735975808193"><ele>440.0</ele><time>2026-05-01T12:31:49Z</time></trkpt><trkpt lat="40.63106405189921" lon="16.697858554606483"><ele>438.66666666666663</ele><time>2026-05-01T12:31:50Z</time></trkpt><trkpt lat="40.63091043383751" lon="16.697982772341074"><ele>437.33333333333337</ele><time>2026-05-01T12:31:51Z</time></trkpt><trkpt lat="40.63075289348705" lon="16.698111614627507"><ele>436.0</ele><time>2026-05-01T12:31:52Z</time></trkpt><trkpt lat="40.63060994096172" lon="16.698229031125745"><ele>436.0</ele><time>2026-05-01T12:31:53Z</time></trkpt><trkpt lat="40.6304651299368" lon="16.69834755037222"><ele>436.0</ele><time>2026-05-01T12:31:54Z</time></trkpt><trkpt lat="40.6303058474695" lon="16.69847791363048"><ele>436.0</ele><time>2026-05-01T12:31:55Z</time></trkpt><trkpt lat="40.630137241530605" lon="16.698615907687213"><ele>435.0</ele><time>2026-05-01T12:31:56Z</time></trkpt><trkpt lat="40.629963327445886" lon="16.698757318495886"><ele>434.0</ele><time>2026-05-01T12:31:57Z</time></trkpt><trkpt lat="40.629789194486605" lon="16.69889721009836"><ele>433.0</ele><time>2026-05-01T12:31:58Z</time></trkpt><trkpt lat="40.62961309697486" lon="16.699038680158967"><ele>432.6666666666667</ele><time>2026-05-01T12:31:59Z</time></trkpt><trkpt lat="40.629441688410616" lon="16.699176383174446"><ele>432.33333333333337</ele><time>2026-05-01T12:32:00Z</time></trkpt><trkpt lat="40.62927704334917" lon="16.699310822646687"><ele>432.0</ele><time>2026-05-01T12:32:01Z</time></trkpt><trkpt lat="40.629099547803335" lon="16.699456268709877"><ele>432.0</ele><time>2026-05-01T12:32:02Z</time></trkpt><trkpt lat="40.6289350979701" lon="16.699590990821235"><ele>432.0</ele><time>2026-05-01T12:32:03Z</time></trkpt><trkpt lat="40.628784836648535" lon="16.69971320523737"><ele>432.0</ele><time>2026-05-01T12:32:04Z</time></trkpt><trkpt lat="40.62864985821159" lon="16.699822989424575"><ele>431.0</ele><time>2026-05-01T12:32:05Z</time></trkpt><trkpt lat="40.62851455821271" lon="16.699957473690947"><ele>430.0</ele><time>2026-05-01T12:32:06Z</time></trkpt><trkpt lat="40.628357338306074" lon="16.70007827993637"><ele>429.0</ele><time>2026-05-01T12:32:07Z</time></trkpt><trkpt lat="40.628194323668765" lon="16.700217827505206"><ele>429.66666666666663</ele><time>2026-05-01T12:32:08Z</time></trkpt><trkpt lat="40.62802302681222" lon="16.7003577479059"><ele>430.3333333333333</ele><time>2026-05-01T12:32:09Z</time></trkpt><trkpt lat="40.62785525504391" lon="16.70049451307992"><ele>431.0</ele><time>2026-05-01T12:32:10Z</time></trkpt><trkpt lat="40.62768056153597" lon="16.700612908312362"><ele>431.0</ele><time>2026-05-01T12:32:11Z</time></trkpt><trkpt lat="40.6275066120696" lon="16.70076642230985"><ele>431.0</ele><time>2026-05-01T12:32:12Z</time></trkpt><trkpt lat="40.62733861467019" lon="16.70089100468056"><ele>431.0</ele><time>2026-05-01T12:32:13Z</time></trkpt><trkpt lat="40.62718886295114" lon="16.70103856332364"><ele>431.0</ele><time>2026-05-01T12:32:14Z</time></trkpt><trkpt lat="40.62702887810517" lon="16.701166885973517"><ele>431.0</ele><time>2026-05-01T12:32:15Z</time></trkpt><trkpt lat="40.626878532521225" lon="16.701264429499997"><ele>431.0</ele><time>2026-05-01T12:32:16Z</time></trkpt><trkpt lat="40.62673129335906" lon="16.701375412126183"><ele>430.3333333333333</ele><time>2026-05-01T12:32:17Z</time></trkpt><trkpt lat="40.6265760637954" lon="16.701492418687852"><ele>429.66666666666663</ele><time>2026-05-01T12:32:18Z</time></trkpt><trkpt lat="40.626420114436854" lon="16.701592054949"><ele>429.0</ele><time>2026-05-01T12:32:19Z</time></trkpt><trkpt lat="40.62625345252239" lon="16.701626492184293"><ele>427.33333333333337</ele><time>2026-05-01T12:32:20Z</time></trkpt><trkpt lat="40.62603579344384" lon="16.701620323172136"><ele>425.6666666666667</ele><time>2026-05-01T12:32:21Z</time></trkpt><trkpt lat="40.62584354829868" lon="16.701628246623912"><ele>424.0</ele><time>2026-05-01T12:32:22Z</time></trkpt><trkpt lat="40.62568013806201" lon="16.701642216447826"><ele>424.0</ele><time>2026-05-01T12:32:23Z</time></trkpt><trkpt lat="40.62553279280662" lon="16.701676120964184"><ele>424.0</ele><time>2026-05-01T12:32:24Z</time></trkpt><trkpt lat="40.625391413305984" lon="16.70168394738769"><ele>424.0</ele><time>2026-05-01T12:32:25Z</time></trkpt><trkpt lat="40.625253044617104" lon="16.70172431592586"><ele>424.0</ele><time>2026-05-01T12:32:26Z</time></trkpt><trkpt lat="40.62511653424876" lon="16.701824274360217"><ele>422.33333333333337</ele><time>2026-05-01T12:32:27Z</time></trkpt><trkpt lat="40.62500021786152" lon="16.70199962573958"><ele>420.66666666666663</ele><time>2026-05-01T12:32:28Z</time></trkpt><trkpt lat="40.62492139932857" lon="16.702236062045536"><ele>419.0</ele><time>2026-05-01T12:32:29Z</time></trkpt><trkpt lat="40.62490013921691" lon="16.70249936813"><ele>417.3333333333333</ele><time>2026-05-01T12:32:30Z</time></trkpt><trkpt lat="40.62491470982618" lon="16.70277215041926"><ele>415.66666666666663</ele><time>2026-05-01T12:32:31Z</time></trkpt><trkpt lat="40.62488923361543" lon="16.702999324012715"><ele>414.0</ele><time>2026-05-01T12:32:32Z</time></trkpt><trkpt lat="40.62483996743551" lon="16.70319768602903"><ele>414.0</ele><time>2026-05-01T12:32:33Z</time></trkpt><trkpt lat="40.62476681964732" lon="16.703424957931055"><ele>414.0</ele><time>2026-05-01T12:32:34Z</time></trkpt><trkpt lat="40.624691566614864" lon="16.703649168146853"><ele>414.0</ele><time>2026-05-01T12:32:35Z</time></trkpt><trkpt lat="40.62462265647355" lon="16.703852789064168"><ele>414.0</ele><time>2026-05-01T12:32:36Z</time></trkpt><trkpt lat="40.6245554335606" lon="16.704045120497582"><ele>414.0</ele><time>2026-05-01T12:32:37Z</time></trkpt><trkpt lat="40.624475977115154" lon="16.704234661715756"><ele>414.0</ele><time>2026-05-01T12:32:38Z</time></trkpt><trkpt lat="40.624374717957295" lon="16.704404667142544"><ele>410.33333333333337</ele><time>2026-05-01T12:32:39Z</time></trkpt><trkpt lat="40.624239680569715" lon="16.704572820950876"><ele>406.6666666666667</ele><time>2026-05-01T12:32:40Z</time></trkpt><trkpt lat="40.62410837653979" lon="16.704733034094765"><ele>403.0</ele><time>2026-05-01T12:32:41Z</time></trkpt><trkpt lat="40.62399345213406" lon="16.704861287860307"><ele>403.0</ele><time>2026-05-01T12:32:42Z</time></trkpt><trkpt lat="40.623879843816574" lon="16.704962963220417"><ele>403.0</ele><time>2026-05-01T12:32:43.001Z</time></trkpt><trkpt lat="40.62374765426637" lon="16.705026543841765"><ele>403.0</ele><time>2026-05-01T12:32:44.001Z</time></trkpt><trkpt lat="40.62356971431164" lon="16.70503941979338"><ele>403.33333333333337</ele><time>2026-05-01T12:32:45.001Z</time></trkpt><trkpt lat="40.62336307011043" lon="16.705026547891116"><ele>403.66666666666663</ele><time>2026-05-01T12:32:46.001Z</time></trkpt><trkpt lat="40.62316303757398" lon="16.70496971567201"><ele>404.0</ele><time>2026-05-01T12:32:47.001Z</time></trkpt><trkpt lat="40.622955633058574" lon="16.704919982019437"><ele>403.0</ele><time>2026-05-01T12:32:48.001Z</time></trkpt><trkpt lat="40.622763175476656" lon="16.7048294909284"><ele>402.0</ele><time>2026-05-01T12:32:49.001Z</time></trkpt><trkpt lat="40.62255616972871" lon="16.704753246010423"><ele>401.0</ele><time>2026-05-01T12:32:50.001Z</time></trkpt><trkpt lat="40.622390788113236" lon="16.704716948232694"><ele>401.0</ele><time>2026-05-01T12:32:51.001Z</time></trkpt><trkpt lat="40.62222577897207" lon="16.704672133343742"><ele>401.0</ele><time>2026-05-01T12:32:52.001Z</time></trkpt><trkpt lat="40.622051129912144" lon="16.704627585888865"><ele>401.0</ele><time>2026-05-01T12:32:53.001Z</time></trkpt><trkpt lat="40.62188562668564" lon="16.704595602318644"><ele>399.66666666666663</ele><time>2026-05-01T12:32:54.001Z</time></trkpt><trkpt lat="40.62171580067775" lon="16.704561785081317"><ele>398.33333333333337</ele><time>2026-05-01T12:32:55.001Z</time></trkpt><trkpt lat="40.62154860862239" lon="16.70453700165374"><ele>397.0</ele><time>2026-05-01T12:32:56.001Z</time></trkpt><trkpt lat="40.62138279638191" lon="16.704497826966957"><ele>397.0</ele><time>2026-05-01T12:32:57.001Z</time></trkpt><trkpt lat="40.62120527241774" lon="16.70448827806101"><ele>397.0</ele><time>2026-05-01T12:32:58.001Z</time></trkpt><trkpt lat="40.621025657212215" lon="16.704489537907207"><ele>397.0</ele><time>2026-05-01T12:32:59.001Z</time></trkpt><trkpt lat="40.62084117648561" lon="16.704494531280613"><ele>395.6666666666667</ele><time>2026-05-01T12:33:00.001Z</time></trkpt><trkpt lat="40.62067137830311" lon="16.70450241054521"><ele>394.33333333333337</ele><time>2026-05-01T12:33:01.001Z</time></trkpt><trkpt lat="40.620516896151635" lon="16.7045332593982"><ele>393.0</ele><time>2026-05-01T12:33:02.001Z</time></trkpt><trkpt lat="40.62035446798798" lon="16.704534610205524"><ele>392.0</ele><time>2026-05-01T12:33:03.001Z</time></trkpt><trkpt lat="40.62018048627273" lon="16.704540133112502"><ele>391.0</ele><time>2026-05-01T12:33:04.001Z</time></trkpt><trkpt lat="40.62001142045348" lon="16.704547442952236"><ele>390.0</ele><time>2026-05-01T12:33:05.001Z</time></trkpt><trkpt lat="40.61983545147529" lon="16.704550817983524"><ele>390.0</ele><time>2026-05-01T12:33:06.001Z</time></trkpt><trkpt lat="40.619663276042324" lon="16.704538071205366"><ele>390.0</ele><time>2026-05-01T12:33:07.001Z</time></trkpt><trkpt lat="40.61950064187344" lon="16.704542832449565"><ele>390.0</ele><time>2026-05-01T12:33:08Z</time></trkpt><trkpt lat="40.61935158671019" lon="16.704547196161187"><ele>389.75</ele><time>2026-05-01T12:33:09Z</time></trkpt><trkpt lat="40.619215981762935" lon="16.70455116610739"><ele>389.5</ele><time>2026-05-01T12:33:10Z</time></trkpt><trkpt lat="40.619076558037456" lon="16.70455574124089"><ele>389.25</ele><time>2026-05-01T12:33:11Z</time></trkpt><trkpt lat="40.61892552887379" lon="16.704578283155477"><ele>389.0</ele><time>2026-05-01T12:33:12Z</time></trkpt><trkpt lat="40.61877323716785" lon="16.704585828677047"><ele>389.3333333333333</ele><time>2026-05-01T12:33:13Z</time></trkpt><trkpt lat="40.618610524954526" lon="16.70460794267648"><ele>389.66666666666663</ele><time>2026-05-01T12:33:14Z</time></trkpt><trkpt lat="40.61843514732852" lon="16.704617244913898"><ele>390.0</ele><time>2026-05-01T12:33:15Z</time></trkpt><trkpt lat="40.61826950456445" lon="16.7046857395753"><ele>390.0</ele><time>2026-05-01T12:33:16Z</time></trkpt><trkpt lat="40.618092151212835" lon="16.704718609773085"><ele>390.0</ele><time>2026-05-01T12:33:17Z</time></trkpt><trkpt lat="40.61793655958409" lon="16.704789608032378"><ele>390.0</ele><time>2026-05-01T12:33:18Z</time></trkpt><trkpt lat="40.61776950618928" lon="16.704860845660686"><ele>390.0</ele><time>2026-05-01T12:33:19Z</time></trkpt><trkpt lat="40.61759974269057" lon="16.70493980987707"><ele>390.0</ele><time>2026-05-01T12:33:20Z</time></trkpt><trkpt lat="40.61742571114372" lon="16.70499966000266"><ele>390.0</ele><time>2026-05-01T12:33:21Z</time></trkpt><trkpt lat="40.61725716052819" lon="16.705071633470762"><ele>390.0</ele><time>2026-05-01T12:33:22Z</time></trkpt><trkpt lat="40.617105029477266" lon="16.70513659570202"><ele>390.0</ele><time>2026-05-01T12:33:23Z</time></trkpt><trkpt lat="40.61695738739122" lon="16.70519934692355"><ele>390.0</ele><time>2026-05-01T12:33:24Z</time></trkpt><trkpt lat="40.61678221927893" lon="16.70527200262461"><ele>389.66666666666663</ele><time>2026-05-01T12:33:25Z</time></trkpt><trkpt lat="40.616628889750324" lon="16.70533559977568"><ele>389.3333333333333</ele><time>2026-05-01T12:33:26Z</time></trkpt><trkpt lat="40.6164890249716" lon="16.705394702639992"><ele>389.0</ele><time>2026-05-01T12:33:27Z</time></trkpt><trkpt lat="40.61634651075429" lon="16.70545503850863"><ele>389.0</ele><time>2026-05-01T12:33:28Z</time></trkpt><trkpt lat="40.61620693125084" lon="16.705514954760687"><ele>389.0</ele><time>2026-05-01T12:33:29Z</time></trkpt><trkpt lat="40.616077923668534" lon="16.70560148592206"><ele>389.0</ele><time>2026-05-01T12:33:30Z</time></trkpt><trkpt lat="40.61593933916897" lon="16.70567649142466"><ele>389.0</ele><time>2026-05-01T12:33:31Z</time></trkpt><trkpt lat="40.61580683605531" lon="16.705764225203374"><ele>388.75</ele><time>2026-05-01T12:33:32Z</time></trkpt><trkpt lat="40.61568256534404" lon="16.70587534899023"><ele>388.5</ele><time>2026-05-01T12:33:33Z</time></trkpt><trkpt lat="40.61556691679349" lon="16.705998460325013"><ele>388.25</ele><time>2026-05-01T12:33:34Z</time></trkpt><trkpt lat="40.615463723331466" lon="16.706135008560523"><ele>388.0</ele><time>2026-05-01T12:33:35Z</time></trkpt><trkpt lat="40.615365127307705" lon="16.70627933905167"><ele>387.33333333333337</ele><time>2026-05-01T12:33:36Z</time></trkpt><trkpt lat="40.61526941549369" lon="16.706423526386576"><ele>386.66666666666663</ele><time>2026-05-01T12:33:37Z</time></trkpt><trkpt lat="40.61517497388417" lon="16.70657680628472"><ele>386.0</ele><time>2026-05-01T12:33:38Z</time></trkpt><trkpt lat="40.61507244759579" lon="16.706736641364117"><ele>386.25</ele><time>2026-05-01T12:33:39Z</time></trkpt><trkpt lat="40.61493368427005" lon="16.70692453324024"><ele>386.5</ele><time>2026-05-01T12:33:40Z</time></trkpt><trkpt lat="40.614857312115944" lon="16.707041052311325"><ele>386.75</ele><time>2026-05-01T12:33:41Z</time></trkpt><trkpt lat="40.614773166300544" lon="16.707172677065817"><ele>387.0</ele><time>2026-05-01T12:33:42Z</time></trkpt><trkpt lat="40.61470476856999" lon="16.707313440204366"><ele>387.0</ele><time>2026-05-01T12:33:43Z</time></trkpt><trkpt lat="40.61461325423614" lon="16.707433641638804"><ele>387.0</ele><time>2026-05-01T12:33:44Z</time></trkpt><trkpt lat="40.614532674867185" lon="16.70757490298307"><ele>387.0</ele><time>2026-05-01T12:33:45Z</time></trkpt><trkpt lat="40.61445550885371" lon="16.707734016544965"><ele>387.0</ele><time>2026-05-01T12:33:46Z</time></trkpt><trkpt lat="40.61436682236665" lon="16.707906158316895"><ele>386.0</ele><time>2026-05-01T12:33:47Z</time></trkpt><trkpt lat="40.61427453938764" lon="16.708114637320076"><ele>385.0</ele><time>2026-05-01T12:33:48Z</time></trkpt><trkpt lat="40.61420067441407" lon="16.70831916797281"><ele>384.0</ele><time>2026-05-01T12:33:49Z</time></trkpt><trkpt lat="40.614107985006136" lon="16.70849861584863"><ele>383.0</ele><time>2026-05-01T12:33:50Z</time></trkpt><trkpt lat="40.61399960707244" lon="16.70866442752624"><ele>382.0</ele><time>2026-05-01T12:33:51Z</time></trkpt><trkpt lat="40.613855234265436" lon="16.70884248669378"><ele>381.0</ele><time>2026-05-01T12:33:52Z</time></trkpt><trkpt lat="40.61369843177592" lon="16.70898394497087"><ele>381.0</ele><time>2026-05-01T12:33:53Z</time></trkpt><trkpt lat="40.61352603278865" lon="16.709110810778135"><ele>381.0</ele><time>2026-05-01T12:33:54Z</time></trkpt><trkpt lat="40.61336001790835" lon="16.709232013847004"><ele>381.0</ele><time>2026-05-01T12:33:55Z</time></trkpt><trkpt lat="40.61316406608907" lon="16.70932557585694"><ele>380.0</ele><time>2026-05-01T12:33:56Z</time></trkpt><trkpt lat="40.61296826117778" lon="16.709441764407135"><ele>379.0</ele><time>2026-05-01T12:33:57Z</time></trkpt><trkpt lat="40.61278219278087" lon="16.709553845061908"><ele>378.0</ele><time>2026-05-01T12:33:58Z</time></trkpt><trkpt lat="40.61260349589109" lon="16.70966522985175"><ele>377.6666666666667</ele><time>2026-05-01T12:33:59Z</time></trkpt><trkpt lat="40.6124208659843" lon="16.709777463497232"><ele>377.33333333333337</ele><time>2026-05-01T12:34:00Z</time></trkpt><trkpt lat="40.612244090504134" lon="16.70988038649443"><ele>377.0</ele><time>2026-05-01T12:34:01Z</time></trkpt><trkpt lat="40.612059608042664" lon="16.710002623993848"><ele>376.6666666666667</ele><time>2026-05-01T12:34:02Z</time></trkpt><trkpt lat="40.61187799582129" lon="16.710108329875283"><ele>376.3333333333333</ele><time>2026-05-01T12:34:03Z</time></trkpt><trkpt lat="40.611710325914174" lon="16.710215572478983"><ele>376.0</ele><time>2026-05-01T12:34:04Z</time></trkpt><trkpt lat="40.611531991506624" lon="16.710305656022037"><ele>376.0</ele><time>2026-05-01T12:34:05Z</time></trkpt><trkpt lat="40.61134037019492" lon="16.710421637950766"><ele>376.0</ele><time>2026-05-01T12:34:06Z</time></trkpt><trkpt lat="40.61116535160249" lon="16.710527570922828"><ele>376.0</ele><time>2026-05-01T12:34:07Z</time></trkpt><trkpt lat="40.61100009303603" lon="16.71065033916955"><ele>375.0</ele><time>2026-05-01T12:34:08Z</time></trkpt><trkpt lat="40.610836312837534" lon="16.710748393422058"><ele>374.0</ele><time>2026-05-01T12:34:09Z</time></trkpt><trkpt lat="40.61066140720545" lon="16.71083149769838"><ele>373.0</ele><time>2026-05-01T12:34:10Z</time></trkpt><trkpt lat="40.61048688307115" lon="16.710953608161983"><ele>371.66666666666663</ele><time>2026-05-01T12:34:11Z</time></trkpt><trkpt lat="40.61029897021348" lon="16.711066479936942"><ele>370.3333333333333</ele><time>2026-05-01T12:34:12Z</time></trkpt><trkpt lat="40.610116917049076" lon="16.711180815188566"><ele>369.0</ele><time>2026-05-01T12:34:13Z</time></trkpt><trkpt lat="40.60992968733189" lon="16.711295555180083"><ele>368.3333333333333</ele><time>2026-05-01T12:34:14Z</time></trkpt><trkpt lat="40.609735021046255" lon="16.711394853960595"><ele>367.66666666666663</ele><time>2026-05-01T12:34:15Z</time></trkpt><trkpt lat="40.60955499426361" lon="16.71150410874329"><ele>367.0</ele><time>2026-05-01T12:34:16Z</time></trkpt><trkpt lat="40.609371289287914" lon="16.7116315464374"><ele>365.66666666666663</ele><time>2026-05-01T12:34:17Z</time></trkpt><trkpt lat="40.60916871262202" lon="16.711738124648388"><ele>364.3333333333333</ele><time>2026-05-01T12:34:18Z</time></trkpt><trkpt lat="40.60897406494334" lon="16.711854963378926"><ele>363.0</ele><time>2026-05-01T12:34:19Z</time></trkpt><trkpt lat="40.608794625420664" lon="16.711962293588247"><ele>360.6666666666667</ele><time>2026-05-01T12:34:20Z</time></trkpt><trkpt lat="40.608616193918266" lon="16.71206902089406"><ele>358.33333333333337</ele><time>2026-05-01T12:34:21Z</time></trkpt><trkpt lat="40.60842701160757" lon="16.712182178643033"><ele>356.0</ele><time>2026-05-01T12:34:22Z</time></trkpt><trkpt lat="40.60824072662316" lon="16.712294946092296"><ele>356.0</ele><time>2026-05-01T12:34:23Z</time></trkpt><trkpt lat="40.60807269861069" lon="16.712396741163744"><ele>356.0</ele><time>2026-05-01T12:34:24Z</time></trkpt><trkpt lat="40.60790874901172" lon="16.712495712336757"><ele>356.0</ele><time>2026-05-01T12:34:25Z</time></trkpt><trkpt lat="40.607737213159254" lon="16.71259878250673"><ele>355.33333333333337</ele><time>2026-05-01T12:34:26Z</time></trkpt><trkpt lat="40.607537112891904" lon="16.71271799419283"><ele>354.6666666666667</ele><time>2026-05-01T12:34:27Z</time></trkpt><trkpt lat="40.607378430072316" lon="16.712812531132123"><ele>354.0</ele><time>2026-05-01T12:34:28Z</time></trkpt><trkpt lat="40.60722133106257" lon="16.71290612445565"><ele>353.6666666666667</ele><time>2026-05-01T12:34:29Z</time></trkpt><trkpt lat="40.6070333790598" lon="16.71301940970904"><ele>353.33333333333337</ele><time>2026-05-01T12:34:30Z</time></trkpt><trkpt lat="40.6068490568796" lon="16.713132908766315"><ele>353.0</ele><time>2026-05-01T12:34:31Z</time></trkpt><trkpt lat="40.60664820656996" lon="16.7132565851583"><ele>352.0</ele><time>2026-05-01T12:34:32Z</time></trkpt><trkpt lat="40.606439637566474" lon="16.713381171209654"><ele>351.0</ele><time>2026-05-01T12:34:33Z</time></trkpt><trkpt lat="40.60623607038864" lon="16.713506730781535"><ele>348.5</ele><time>2026-05-01T12:34:34Z</time></trkpt><trkpt lat="40.60603845262591" lon="16.713632015062334"><ele>346.0</ele><time>2026-05-01T12:34:35Z</time></trkpt><trkpt lat="40.60582099414442" lon="16.71377220951874"><ele>346.0</ele><time>2026-05-01T12:34:36Z</time></trkpt><trkpt lat="40.60561480470264" lon="16.713893925377487"><ele>346.0</ele><time>2026-05-01T12:34:37Z</time></trkpt><trkpt lat="40.60540867516627" lon="16.713994060009405"><ele>346.0</ele><time>2026-05-01T12:34:38Z</time></trkpt><trkpt lat="40.6052280181122" lon="16.714124283577455"><ele>345.66666666666663</ele><time>2026-05-01T12:34:39Z</time></trkpt><trkpt lat="40.60503556202736" lon="16.714254813727223"><ele>345.3333333333333</ele><time>2026-05-01T12:34:40Z</time></trkpt><trkpt lat="40.604853175758876" lon="16.714424687411185"><ele>345.0</ele><time>2026-05-01T12:34:41Z</time></trkpt><trkpt lat="40.60469952537128" lon="16.714626957594227"><ele>344.6666666666667</ele><time>2026-05-01T12:34:42Z</time></trkpt><trkpt lat="40.60457937115102" lon="16.714848276808695"><ele>344.33333333333337</ele><time>2026-05-01T12:34:43Z</time></trkpt><trkpt lat="40.604472066771145" lon="16.715091463631364"><ele>344.0</ele><time>2026-05-01T12:34:44Z</time></trkpt><trkpt lat="40.60434688744875" lon="16.71533514780679"><ele>344.0</ele><time>2026-05-01T12:34:45Z</time></trkpt><trkpt lat="40.60423225795921" lon="16.715573622243703"><ele>344.0</ele><time>2026-05-01T12:34:46Z</time></trkpt><trkpt lat="40.60411401874583" lon="16.715819606688605"><ele>344.0</ele><time>2026-05-01T12:34:47Z</time></trkpt><trkpt lat="40.60399792833046" lon="16.716061120672506"><ele>343.33333333333337</ele><time>2026-05-01T12:34:48Z</time></trkpt><trkpt lat="40.603880629679445" lon="16.716304942028565"><ele>342.6666666666667</ele><time>2026-05-01T12:34:49Z</time></trkpt><trkpt lat="40.603767575820335" lon="16.716535983333234"><ele>342.0</ele><time>2026-05-01T12:34:50Z</time></trkpt><trkpt lat="40.603656147319946" lon="16.71676370347202"><ele>342.3333333333333</ele><time>2026-05-01T12:34:51Z</time></trkpt><trkpt lat="40.603544786199855" lon="16.716993269969375"><ele>342.66666666666663</ele><time>2026-05-01T12:34:52Z</time></trkpt><trkpt lat="40.603443334460884" lon="16.717203261153863"><ele>343.0</ele><time>2026-05-01T12:34:53Z</time></trkpt><trkpt lat="40.60333305831675" lon="16.71743020343451"><ele>343.0</ele><time>2026-05-01T12:34:54Z</time></trkpt><trkpt lat="40.60321502252601" lon="16.717672253515133"><ele>343.0</ele><time>2026-05-01T12:34:55Z</time></trkpt><trkpt lat="40.60309113655262" lon="16.717926299945685"><ele>343.0</ele><time>2026-05-01T12:34:56Z</time></trkpt><trkpt lat="40.60296517076008" lon="16.718201396626842"><ele>344.0</ele><time>2026-05-01T12:34:57Z</time></trkpt><trkpt lat="40.60287081636764" lon="16.718472082617627"><ele>345.0</ele><time>2026-05-01T12:34:58Z</time></trkpt><trkpt lat="40.602798471447876" lon="16.718747292107107"><ele>346.0</ele><time>2026-05-01T12:34:59Z</time></trkpt><trkpt lat="40.60278150903332" lon="16.719012953364945"><ele>346.66666666666663</ele><time>2026-05-01T12:35:00Z</time></trkpt><trkpt lat="40.60279530677181" lon="16.719263020188684"><ele>347.3333333333333</ele><time>2026-05-01T12:35:01Z</time></trkpt><trkpt lat="40.60282820940456" lon="16.719548281936852"><ele>348.0</ele><time>2026-05-01T12:35:02Z</time></trkpt><trkpt lat="40.602867337488455" lon="16.71984942859764"><ele>344.5</ele><time>2026-05-01T12:35:03Z</time></trkpt><trkpt lat="40.602917175854714" lon="16.72017097201672"><ele>341.0</ele><time>2026-05-01T12:35:04Z</time></trkpt><trkpt lat="40.60323146681472" lon="16.72041589915372"><ele>341.0</ele><time>2026-05-01T12:35:05Z</time></trkpt><trkpt lat="40.6033649487208" lon="16.720673653277657"><ele>341.0</ele><time>2026-05-01T12:35:06Z</time></trkpt><trkpt lat="40.603468228977015" lon="16.720913192545297"><ele>341.0</ele><time>2026-05-01T12:35:07Z</time></trkpt><trkpt lat="40.603563900581335" lon="16.721173486331633"><ele>340.6666666666667</ele><time>2026-05-01T12:35:08Z</time></trkpt><trkpt lat="40.60363119950813" lon="16.721424490107957"><ele>340.3333333333333</ele><time>2026-05-01T12:35:09Z</time></trkpt><trkpt lat="40.603692745467534" lon="16.721632697651003"><ele>340.0</ele><time>2026-05-01T12:35:10Z</time></trkpt><trkpt lat="40.60372725073879" lon="16.721798726886174"><ele>337.75</ele><time>2026-05-01T12:35:11Z</time></trkpt><trkpt lat="40.603743366269484" lon="16.721966760037922"><ele>335.5</ele><time>2026-05-01T12:35:12Z</time></trkpt><trkpt lat="40.60372579658493" lon="16.722170113934673"><ele>333.25</ele><time>2026-05-01T12:35:13Z</time></trkpt><trkpt lat="40.60370568033838" lon="16.72236848604252"><ele>331.0</ele><time>2026-05-01T12:35:14Z</time></trkpt><trkpt lat="40.603574213133385" lon="16.722540147446615"><ele>331.0</ele><time>2026-05-01T12:35:15Z</time></trkpt><trkpt lat="40.60344303739476" lon="16.722692699772846"><ele>331.0</ele><time>2026-05-01T12:35:16Z</time></trkpt><trkpt lat="40.60329367687607" lon="16.722850771313208"><ele>331.0</ele><time>2026-05-01T12:35:17Z</time></trkpt><trkpt lat="40.60311880766499" lon="16.723015151928543"><ele>329.5</ele><time>2026-05-01T12:35:18Z</time></trkpt><trkpt lat="40.602937717035644" lon="16.72319700058465"><ele>328.0</ele><time>2026-05-01T12:35:19Z</time></trkpt><trkpt lat="40.60275566550442" lon="16.723393029986777"><ele>328.3333333333333</ele><time>2026-05-01T12:35:20Z</time></trkpt><trkpt lat="40.602586939558975" lon="16.723576793965087"><ele>328.6666666666667</ele><time>2026-05-01T12:35:21Z</time></trkpt><trkpt lat="40.60243372071635" lon="16.723769676232592"><ele>329.0</ele><time>2026-05-01T12:35:22Z</time></trkpt><trkpt lat="40.60230975909615" lon="16.723991672988753"><ele>329.0</ele><time>2026-05-01T12:35:23Z</time></trkpt><trkpt lat="40.60221658915653" lon="16.724239242476898"><ele>329.0</ele><time>2026-05-01T12:35:24Z</time></trkpt><trkpt lat="40.602135690983765" lon="16.7245186958472"><ele>329.0</ele><time>2026-05-01T12:35:25Z</time></trkpt><trkpt lat="40.602035744802585" lon="16.724783937120023"><ele>327.6666666666667</ele><time>2026-05-01T12:35:26Z</time></trkpt><trkpt lat="40.60195454041058" lon="16.72503578734357"><ele>326.3333333333333</ele><time>2026-05-01T12:35:27Z</time></trkpt><trkpt lat="40.60187274920219" lon="16.725306978950496"><ele>325.0</ele><time>2026-05-01T12:35:28Z</time></trkpt><trkpt lat="40.60178345133682" lon="16.725547932511418"><ele>325.0</ele><time>2026-05-01T12:35:29Z</time></trkpt><trkpt lat="40.6017266001032" lon="16.725807662841213"><ele>325.0</ele><time>2026-05-01T12:35:30Z</time></trkpt><trkpt lat="40.601679862004936" lon="16.7260901955221"><ele>325.0</ele><time>2026-05-01T12:35:31Z</time></trkpt><trkpt lat="40.60163516799813" lon="16.726371039935202"><ele>326.0</ele><time>2026-05-01T12:35:32Z</time></trkpt><trkpt lat="40.60159480894635" lon="16.726652193715655"><ele>327.0</ele><time>2026-05-01T12:35:33Z</time></trkpt><trkpt lat="40.60155588866671" lon="16.726909343940985"><ele>328.0</ele><time>2026-05-01T12:35:34Z</time></trkpt><trkpt lat="40.60151326503599" lon="16.727149808470738"><ele>329.3333333333333</ele><time>2026-05-01T12:35:35Z</time></trkpt><trkpt lat="40.60148648633942" lon="16.727406277552184"><ele>330.6666666666667</ele><time>2026-05-01T12:35:36Z</time></trkpt><trkpt lat="40.60148429495737" lon="16.727678745725996"><ele>332.0</ele><time>2026-05-01T12:35:37Z</time></trkpt><trkpt lat="40.60150910840118" lon="16.727957309289685"><ele>332.0</ele><time>2026-05-01T12:35:38Z</time></trkpt><trkpt lat="40.60154237694073" lon="16.728205088384605"><ele>332.0</ele><time>2026-05-01T12:35:39Z</time></trkpt><trkpt lat="40.601586248446075" lon="16.7284304591253"><ele>332.0</ele><time>2026-05-01T12:35:40Z</time></trkpt><trkpt lat="40.60164489339718" lon="16.728676733037428"><ele>332.0</ele><time>2026-05-01T12:35:41Z</time></trkpt><trkpt lat="40.601723243811485" lon="16.728900813854555"><ele>332.0</ele><time>2026-05-01T12:35:42Z</time></trkpt><trkpt lat="40.60183641900683" lon="16.729092228770444"><ele>332.0</ele><time>2026-05-01T12:35:43Z</time></trkpt><trkpt lat="40.60199017822101" lon="16.729219976153097"><ele>333.33333333333337</ele><time>2026-05-01T12:35:44Z</time></trkpt><trkpt lat="40.6021728290639" lon="16.729312746931335"><ele>334.6666666666667</ele><time>2026-05-01T12:35:45Z</time></trkpt><trkpt lat="40.60231665123943" lon="16.72940640116376"><ele>336.0</ele><time>2026-05-01T12:35:46Z</time></trkpt><trkpt lat="40.60243480913477" lon="16.729552972916274"><ele>336.0</ele><time>2026-05-01T12:35:47Z</time></trkpt><trkpt lat="40.60252102099854" lon="16.72972090794592"><ele>336.0</ele><time>2026-05-01T12:35:48Z</time></trkpt><trkpt lat="40.60249606884833" lon="16.72998613692747"><ele>336.0</ele><time>2026-05-01T12:35:49Z</time></trkpt><trkpt lat="40.602516686895704" lon="16.730236395261137"><ele>336.0</ele><time>2026-05-01T12:35:50Z</time></trkpt><trkpt lat="40.6025548060341" lon="16.730464046615467"><ele>336.0</ele><time>2026-05-01T12:35:51Z</time></trkpt><trkpt lat="40.602622839359356" lon="16.730678724994796"><ele>336.0</ele><time>2026-05-01T12:35:52Z</time></trkpt><trkpt lat="40.60271124202643" lon="16.73088066256909"><ele>335.0</ele><time>2026-05-01T12:35:53Z</time></trkpt><trkpt lat="40.602805633651776" lon="16.731071996327124"><ele>334.0</ele><time>2026-05-01T12:35:54Z</time></trkpt><trkpt lat="40.60290086958989" lon="16.731262568358215"><ele>333.0</ele><time>2026-05-01T12:35:55Z</time></trkpt><trkpt lat="40.603018191960146" lon="16.731450780418164"><ele>335.3333333333333</ele><time>2026-05-01T12:35:56Z</time></trkpt><trkpt lat="40.60316726530309" lon="16.731628622611513"><ele>337.66666666666663</ele><time>2026-05-01T12:35:57Z</time></trkpt><trkpt lat="40.60333507680087" lon="16.73178295743281"><ele>340.0</ele><time>2026-05-01T12:35:58Z</time></trkpt><trkpt lat="40.60349731916375" lon="16.73192298366292"><ele>340.0</ele><time>2026-05-01T12:35:59Z</time></trkpt><trkpt lat="40.603642786250404" lon="16.732125906565088"><ele>340.0</ele><time>2026-05-01T12:36:00Z</time></trkpt><trkpt lat="40.603743806963344" lon="16.732354289631544"><ele>340.0</ele><time>2026-05-01T12:36:01Z</time></trkpt><trkpt lat="40.60381276546721" lon="16.73257961990496"><ele>342.0</ele><time>2026-05-01T12:36:02Z</time></trkpt><trkpt lat="40.603843900493004" lon="16.73280423636104"><ele>344.0</ele><time>2026-05-01T12:36:03Z</time></trkpt><trkpt lat="40.60383561114834" lon="16.733056540642178"><ele>346.0</ele><time>2026-05-01T12:36:04Z</time></trkpt><trkpt lat="40.603815092912654" lon="16.733324055953492"><ele>346.3333333333333</ele><time>2026-05-01T12:36:05Z</time></trkpt><trkpt lat="40.60376171800095" lon="16.733584138754896"><ele>346.6666666666667</ele><time>2026-05-01T12:36:06Z</time></trkpt><trkpt lat="40.60366437944697" lon="16.73381704025508"><ele>347.0</ele><time>2026-05-01T12:36:07Z</time></trkpt><trkpt lat="40.603518989523735" lon="16.73402715416684"><ele>345.33333333333337</ele><time>2026-05-01T12:36:08Z</time></trkpt><trkpt lat="40.60335606033266" lon="16.73424257126122"><ele>343.6666666666667</ele><time>2026-05-01T12:36:09Z</time></trkpt><trkpt lat="40.603203365511185" lon="16.73444215842217"><ele>342.0</ele><time>2026-05-01T12:36:10Z</time></trkpt><trkpt lat="40.6030533284321" lon="16.734603489091725"><ele>341.6666666666667</ele><time>2026-05-01T12:36:11Z</time></trkpt><trkpt lat="40.60292617647446" lon="16.73478874606082"><ele>341.33333333333337</ele><time>2026-05-01T12:36:12Z</time></trkpt><trkpt lat="40.602808078254306" lon="16.73495992283697"><ele>341.0</ele><time>2026-05-01T12:36:13Z</time></trkpt><trkpt lat="40.60269124412474" lon="16.73512844294065"><ele>340.33333333333337</ele><time>2026-05-01T12:36:14Z</time></trkpt><trkpt lat="40.60256807398689" lon="16.73530764934473"><ele>339.6666666666667</ele><time>2026-05-01T12:36:15Z</time></trkpt><trkpt lat="40.602456218031634" lon="16.73546463032403"><ele>339.0</ele><time>2026-05-01T12:36:16Z</time></trkpt><trkpt lat="40.60235001250076" lon="16.73560622714024"><ele>339.0</ele><time>2026-05-01T12:36:17Z</time></trkpt><trkpt lat="40.60223074241043" lon="16.735733990411042"><ele>339.0</ele><time>2026-05-01T12:36:18Z</time></trkpt><trkpt lat="40.602099218265074" lon="16.735853100180677"><ele>339.0</ele><time>2026-05-01T12:36:19Z</time></trkpt><trkpt lat="40.601964010187274" lon="16.73595316158949"><ele>338.5</ele><time>2026-05-01T12:36:20Z</time></trkpt><trkpt lat="40.60183628225159" lon="16.736030220060663"><ele>338.0</ele><time>2026-05-01T12:36:21Z</time></trkpt><trkpt lat="40.601715239156995" lon="16.73608764689471"><ele>337.5</ele><time>2026-05-01T12:36:21.999Z</time></trkpt><trkpt lat="40.60158536614562" lon="16.736144315523273"><ele>337.0</ele><time>2026-05-01T12:36:22.999Z</time></trkpt><trkpt lat="40.60144059276429" lon="16.736193591234596"><ele>337.0</ele><time>2026-05-01T12:36:23.999Z</time></trkpt><trkpt lat="40.6012776904901" lon="16.736234145856724"><ele>337.0</ele><time>2026-05-01T12:36:24.999Z</time></trkpt><trkpt lat="40.60110661339924" lon="16.73626845201085"><ele>337.0</ele><time>2026-05-01T12:36:25.999Z</time></trkpt><trkpt lat="40.60093624080907" lon="16.73629802984526"><ele>336.66666666666663</ele><time>2026-05-01T12:36:26.999Z</time></trkpt><trkpt lat="40.600769085243066" lon="16.736326179333595"><ele>336.3333333333333</ele><time>2026-05-01T12:36:27.999Z</time></trkpt><trkpt lat="40.60059653202931" lon="16.736355239353056"><ele>336.0</ele><time>2026-05-01T12:36:28.999Z</time></trkpt><trkpt lat="40.60042186741324" lon="16.736384653409548"><ele>335.3333333333333</ele><time>2026-05-01T12:36:29.999Z</time></trkpt><trkpt lat="40.60025036966555" lon="16.736415313912826"><ele>334.66666666666663</ele><time>2026-05-01T12:36:30.999Z</time></trkpt><trkpt lat="40.600083941444076" lon="16.73644333186834"><ele>334.0</ele><time>2026-05-01T12:36:31.999Z</time></trkpt><trkpt lat="40.59992762693633" lon="16.736469647188795"><ele>334.0</ele><time>2026-05-01T12:36:32.999Z</time></trkpt><trkpt lat="40.599767209459905" lon="16.73649695207016"><ele>334.0</ele><time>2026-05-01T12:36:33.999Z</time></trkpt><trkpt lat="40.59959558151219" lon="16.7365554464981"><ele>334.0</ele><time>2026-05-01T12:36:34.999Z</time></trkpt><trkpt lat="40.599422600070206" lon="16.736600708186337"><ele>332.66666666666663</ele><time>2026-05-01T12:36:35.999Z</time></trkpt><trkpt lat="40.5992362101972" lon="16.73665036360604"><ele>331.3333333333333</ele><time>2026-05-01T12:36:36.999Z</time></trkpt><trkpt lat="40.59907138874199" lon="16.736740355894746"><ele>330.0</ele><time>2026-05-01T12:36:37.999Z</time></trkpt><trkpt lat="40.59891318971878" lon="16.736798101008567"><ele>330.0</ele><time>2026-05-01T12:36:38.999Z</time></trkpt><trkpt lat="40.598751530072114" lon="16.736885685450922"><ele>330.0</ele><time>2026-05-01T12:36:39.999Z</time></trkpt><trkpt lat="40.598585447756115" lon="16.736973685318482"><ele>330.0</ele><time>2026-05-01T12:36:40.999Z</time></trkpt><trkpt lat="40.59842605529894" lon="16.737057568796182"><ele>332.0</ele><time>2026-05-01T12:36:41.999Z</time></trkpt><trkpt lat="40.59828260093573" lon="16.737142762490542"><ele>334.0</ele><time>2026-05-01T12:36:42.999Z</time></trkpt><trkpt lat="40.59813996133153" lon="16.737241034608594"><ele>336.0</ele><time>2026-05-01T12:36:43.999Z</time></trkpt><trkpt lat="40.59800128612176" lon="16.73738191354076"><ele>336.0</ele><time>2026-05-01T12:36:44.999Z</time></trkpt><trkpt lat="40.59783932471089" lon="16.737510742269926"><ele>336.0</ele><time>2026-05-01T12:36:45.999Z</time></trkpt><trkpt lat="40.59770060207088" lon="16.73766366148743"><ele>336.0</ele><time>2026-05-01T12:36:46.999Z</time></trkpt><trkpt lat="40.597589309587946" lon="16.737823086620704"><ele>334.0</ele><time>2026-05-01T12:36:47.999Z</time></trkpt><trkpt lat="40.59751426368825" lon="16.738005370813397"><ele>332.0</ele><time>2026-05-01T12:36:48.999Z</time></trkpt><trkpt lat="40.597443916103785" lon="16.738189724049185"><ele>330.0</ele><time>2026-05-01T12:36:49.999Z</time></trkpt><trkpt lat="40.597402701037495" lon="16.738410519346655"><ele>330.6666666666667</ele><time>2026-05-01T12:36:50.999Z</time></trkpt><trkpt lat="40.59736681186736" lon="16.73864678131177"><ele>331.33333333333337</ele><time>2026-05-01T12:36:51.999Z</time></trkpt><trkpt lat="40.59733938841488" lon="16.73888365222248"><ele>332.0</ele><time>2026-05-01T12:36:52.999Z</time></trkpt><trkpt lat="40.597316840868096" lon="16.73909979095087"><ele>332.0</ele><time>2026-05-01T12:36:53.999Z</time></trkpt><trkpt lat="40.59729652738716" lon="16.739326069652105"><ele>332.0</ele><time>2026-05-01T12:36:55Z</time></trkpt><trkpt lat="40.597270398801896" lon="16.73954495531026"><ele>332.0</ele><time>2026-05-01T12:36:56Z</time></trkpt><trkpt lat="40.5972289359358" lon="16.739788068643286"><ele>331.33333333333337</ele><time>2026-05-01T12:36:57Z</time></trkpt><trkpt lat="40.59719169875962" lon="16.73996536630477"><ele>330.6666666666667</ele><time>2026-05-01T12:36:58Z</time></trkpt><trkpt lat="40.597139681556214" lon="16.740180965352316"><ele>330.0</ele><time>2026-05-01T12:36:59Z</time></trkpt><trkpt lat="40.5970996549378" lon="16.740373900536767"><ele>329.3333333333333</ele><time>2026-05-01T12:37:00Z</time></trkpt><trkpt lat="40.59708074928708" lon="16.740624699526787"><ele>328.66666666666663</ele><time>2026-05-01T12:37:01Z</time></trkpt><trkpt lat="40.597089031125336" lon="16.740900870741907"><ele>328.0</ele><time>2026-05-01T12:37:02Z</time></trkpt><trkpt lat="40.59714042120089" lon="16.74115505613546"><ele>327.3333333333333</ele><time>2026-05-01T12:37:03Z</time></trkpt><trkpt lat="40.59715653344774" lon="16.74136637349937"><ele>326.6666666666667</ele><time>2026-05-01T12:37:04Z</time></trkpt><trkpt lat="40.5971615294447" lon="16.7415820481723"><ele>326.0</ele><time>2026-05-01T12:37:05Z</time></trkpt><trkpt lat="40.59712333425259" lon="16.741775144328304"><ele>325.0</ele><time>2026-05-01T12:37:06Z</time></trkpt><trkpt lat="40.597059060222755" lon="16.74196088448785"><ele>324.0</ele><time>2026-05-01T12:37:07Z</time></trkpt><trkpt lat="40.59696769615193" lon="16.742151062617893"><ele>323.0</ele><time>2026-05-01T12:37:08Z</time></trkpt><trkpt lat="40.59684668918033" lon="16.74232594226379"><ele>321.6666666666667</ele><time>2026-05-01T12:37:09Z</time></trkpt><trkpt lat="40.59673636964206" lon="16.742499293908477"><ele>320.3333333333333</ele><time>2026-05-01T12:37:10Z</time></trkpt><trkpt lat="40.59664513543215" lon="16.74266154171415"><ele>319.0</ele><time>2026-05-01T12:37:11Z</time></trkpt><trkpt lat="40.59654809809313" lon="16.742848871999147"><ele>318.3333333333333</ele><time>2026-05-01T12:37:12Z</time></trkpt><trkpt lat="40.596480866211465" lon="16.743106203183885"><ele>317.6666666666667</ele><time>2026-05-01T12:37:13Z</time></trkpt><trkpt lat="40.596430927050804" lon="16.74333244706614"><ele>317.0</ele><time>2026-05-01T12:37:14Z</time></trkpt><trkpt lat="40.59639340465492" lon="16.743555598303367"><ele>316.33333333333337</ele><time>2026-05-01T12:37:15Z</time></trkpt><trkpt lat="40.59633278625218" lon="16.743765787533043"><ele>315.6666666666667</ele><time>2026-05-01T12:37:16Z</time></trkpt><trkpt lat="40.596288648800815" lon="16.74396760663176"><ele>315.0</ele><time>2026-05-01T12:37:17Z</time></trkpt><trkpt lat="40.596242137785154" lon="16.744180278641092"><ele>315.0</ele><time>2026-05-01T12:37:18Z</time></trkpt><trkpt lat="40.59620079920225" lon="16.74436506019267"><ele>315.0</ele><time>2026-05-01T12:37:19Z</time></trkpt><trkpt lat="40.59616359042083" lon="16.74451897076952"><ele>315.0</ele><time>2026-05-01T12:37:20Z</time></trkpt><trkpt lat="40.59610534532998" lon="16.74471937234221"><ele>315.0</ele><time>2026-05-01T12:37:21Z</time></trkpt><trkpt lat="40.596030367457246" lon="16.744920903332922"><ele>313.6666666666667</ele><time>2026-05-01T12:37:22Z</time></trkpt><trkpt lat="40.59593371370381" lon="16.7451062420107"><ele>312.33333333333337</ele><time>2026-05-01T12:37:23Z</time></trkpt><trkpt lat="40.595815581228536" lon="16.745254910679645"><ele>311.0</ele><time>2026-05-01T12:37:24Z</time></trkpt><trkpt lat="40.59566985343928" lon="16.74539708437015"><ele>311.0</ele><time>2026-05-01T12:37:25Z</time></trkpt><trkpt lat="40.59550398255715" lon="16.745510049678654"><ele>311.0</ele><time>2026-05-01T12:37:26Z</time></trkpt><trkpt lat="40.59534927665027" lon="16.745606202558502"><ele>311.0</ele><time>2026-05-01T12:37:27Z</time></trkpt><trkpt lat="40.59517883664607" lon="16.745686423293964"><ele>310.33333333333337</ele><time>2026-05-01T12:37:28Z</time></trkpt><trkpt lat="40.594989028182034" lon="16.7457324705115"><ele>309.6666666666667</ele><time>2026-05-01T12:37:29Z</time></trkpt><trkpt lat="40.594793501603995" lon="16.74576913537774"><ele>309.0</ele><time>2026-05-01T12:37:30Z</time></trkpt><trkpt lat="40.59463868215566" lon="16.745851397529385"><ele>308.6666666666667</ele><time>2026-05-01T12:37:31Z</time></trkpt><trkpt lat="40.59448414301213" lon="16.74592593194967"><ele>308.33333333333337</ele><time>2026-05-01T12:37:32Z</time></trkpt><trkpt lat="40.59434709272755" lon="16.746032474392504"><ele>308.0</ele><time>2026-05-01T12:37:33Z</time></trkpt><trkpt lat="40.59422935426263" lon="16.7461336042908"><ele>308.0</ele><time>2026-05-01T12:37:34Z</time></trkpt><trkpt lat="40.59411555204726" lon="16.746226132067953"><ele>308.0</ele><time>2026-05-01T12:37:35Z</time></trkpt><trkpt lat="40.59398973769047" lon="16.746321446367084"><ele>308.0</ele><time>2026-05-01T12:37:36Z</time></trkpt><trkpt lat="40.593853393680554" lon="16.7464105760822"><ele>308.0</ele><time>2026-05-01T12:37:37Z</time></trkpt><trkpt lat="40.59369702029577" lon="16.746484559756748"><ele>307.0</ele><time>2026-05-01T12:37:38Z</time></trkpt><trkpt lat="40.593544181448294" lon="16.746556113137"><ele>306.0</ele><time>2026-05-01T12:37:39Z</time></trkpt><trkpt lat="40.59340073131602" lon="16.74662327118493"><ele>305.0</ele><time>2026-05-01T12:37:40Z</time></trkpt><trkpt lat="40.593272610527414" lon="16.746684924472948"><ele>305.0</ele><time>2026-05-01T12:37:41Z</time></trkpt><trkpt lat="40.593135600907964" lon="16.746753760408144"><ele>305.0</ele><time>2026-05-01T12:37:42Z</time></trkpt><trkpt lat="40.5929876441734" lon="16.746828096352"><ele>305.0</ele><time>2026-05-01T12:37:43Z</time></trkpt><trkpt lat="40.59283735037195" lon="16.74689905783645"><ele>304.5</ele><time>2026-05-01T12:37:44Z</time></trkpt><trkpt lat="40.59270707019939" lon="16.746960640637173"><ele>304.0</ele><time>2026-05-01T12:37:45Z</time></trkpt><trkpt lat="40.59257781850721" lon="16.747021737375462"><ele>303.5</ele><time>2026-05-01T12:37:46Z</time></trkpt><trkpt lat="40.592448125904546" lon="16.74708289408096"><ele>303.0</ele><time>2026-05-01T12:37:47Z</time></trkpt><trkpt lat="40.59230455640524" lon="16.747149940762394"><ele>303.0</ele><time>2026-05-01T12:37:48Z</time></trkpt><trkpt lat="40.59217000455715" lon="16.747212804429026"><ele>303.0</ele><time>2026-05-01T12:37:49Z</time></trkpt><trkpt lat="40.592040729185406" lon="16.747274549642444"><ele>303.0</ele><time>2026-05-01T12:37:50Z</time></trkpt><trkpt lat="40.59191669208844" lon="16.747332943974786"><ele>303.0</ele><time>2026-05-01T12:37:51Z</time></trkpt><trkpt lat="40.59179463262338" lon="16.74738900601016"><ele>302.25</ele><time>2026-05-01T12:37:52Z</time></trkpt><trkpt lat="40.591690598612" lon="16.747437734883363"><ele>301.5</ele><time>2026-05-01T12:37:53Z</time></trkpt><trkpt lat="40.591583926358666" lon="16.747507813514225"><ele>300.75</ele><time>2026-05-01T12:37:54Z</time></trkpt><trkpt lat="40.59146383158077" lon="16.74753562153674"><ele>300.0</ele><time>2026-05-01T12:37:55Z</time></trkpt><trkpt lat="40.59134347561142" lon="16.747575605351287"><ele>300.0</ele><time>2026-05-01T12:37:56Z</time></trkpt><trkpt lat="40.59123712261017" lon="16.747600231933628"><ele>300.0</ele><time>2026-05-01T12:37:57Z</time></trkpt><trkpt lat="40.59112952178253" lon="16.747612231447146"><ele>300.0</ele><time>2026-05-01T12:37:58Z</time></trkpt><trkpt lat="40.59101356855988" lon="16.747618857630894"><ele>300.0</ele><time>2026-05-01T12:37:59Z</time></trkpt><trkpt lat="40.590885406688614" lon="16.747614780575606"><ele>299.5</ele><time>2026-05-01T12:38:00Z</time></trkpt><trkpt lat="40.59075257581054" lon="16.7476052542807"><ele>299.0</ele><time>2026-05-01T12:38:01Z</time></trkpt><trkpt lat="40.59063073123639" lon="16.74759323384917"><ele>298.5</ele><time>2026-05-01T12:38:02Z</time></trkpt><trkpt lat="40.59050152930679" lon="16.74758219500558"><ele>298.0</ele><time>2026-05-01T12:38:03Z</time></trkpt><trkpt lat="40.590366287456554" lon="16.74758092473609"><ele>296.75</ele><time>2026-05-01T12:38:03.999Z</time></trkpt><trkpt lat="40.5902384202809" lon="16.747605394643283"><ele>295.5</ele><time>2026-05-01T12:38:04.999Z</time></trkpt><trkpt lat="40.59013110638009" lon="16.747624287158658"><ele>294.25</ele><time>2026-05-01T12:38:05.999Z</time></trkpt><trkpt lat="40.59000868671414" lon="16.747642374583755"><ele>293.0</ele><time>2026-05-01T12:38:06.999Z</time></trkpt><trkpt lat="40.589889056479045" lon="16.747691047106034"><ele>292.6</ele><time>2026-05-01T12:38:07.999Z</time></trkpt><trkpt lat="40.58977933424804" lon="16.74774279118468"><ele>292.20000000000005</ele><time>2026-05-01T12:38:08.999Z</time></trkpt><trkpt lat="40.58969140641163" lon="16.74780972842704"><ele>291.8</ele><time>2026-05-01T12:38:09.999Z</time></trkpt><trkpt lat="40.589597760180524" lon="16.747846670805263"><ele>291.40000000000003</ele><time>2026-05-01T12:38:10.999Z</time></trkpt><trkpt lat="40.5895033992406" lon="16.747880611237285"><ele>291.0</ele><time>2026-05-01T12:38:11.999Z</time></trkpt><trkpt lat="40.58940451746115" lon="16.747924811048875"><ele>291.0</ele><time>2026-05-01T12:38:12.999Z</time></trkpt><trkpt lat="40.58929506542937" lon="16.747958403461162"><ele>291.0</ele><time>2026-05-01T12:38:13.999Z</time></trkpt><trkpt lat="40.589188390195396" lon="16.747984960495327"><ele>291.0</ele><time>2026-05-01T12:38:14.999Z</time></trkpt><trkpt lat="40.58909059597817" lon="16.748014272327854"><ele>291.0</ele><time>2026-05-01T12:38:15.999Z</time></trkpt><trkpt lat="40.58898609344821" lon="16.748038846688353"><ele>291.0</ele><time>2026-05-01T12:38:16.999Z</time></trkpt><trkpt lat="40.58887776060448" lon="16.748061293191487"><ele>291.0</ele><time>2026-05-01T12:38:17.999Z</time></trkpt><trkpt lat="40.58878008483366" lon="16.748089895982524"><ele>291.0</ele><time>2026-05-01T12:38:18.999Z</time></trkpt><trkpt lat="40.588687597226546" lon="16.748118443093674"><ele>291.0</ele><time>2026-05-01T12:38:19.999Z</time></trkpt><trkpt lat="40.5885954060108" lon="16.748128309634886"><ele>291.0</ele><time>2026-05-01T12:38:20.999Z</time></trkpt><trkpt lat="40.58852079290021" lon="16.748174846660625"><ele>291.0</ele><time>2026-05-01T12:38:21.999Z</time></trkpt><trkpt lat="40.588444763871735" lon="16.748204713863508"><ele>291.0</ele><time>2026-05-01T12:38:22.999Z</time></trkpt><trkpt lat="40.58835783768036" lon="16.748237387860783"><ele>290.5</ele><time>2026-05-01T12:38:23.999Z</time></trkpt><trkpt lat="40.58827748100444" lon="16.74827848783721"><ele>290.0</ele><time>2026-05-01T12:38:24.999Z</time></trkpt><trkpt lat="40.588209454330475" lon="16.748311535868805"><ele>289.5</ele><time>2026-05-01T12:38:25.999Z</time></trkpt><trkpt lat="40.588140385764596" lon="16.74834378745146"><ele>289.0</ele><time>2026-05-01T12:38:26.999Z</time></trkpt><trkpt lat="40.588065654205394" lon="16.74837553475972"><ele>288.5</ele><time>2026-05-01T12:38:27.999Z</time></trkpt><trkpt lat="40.58796913051583" lon="16.748414770391772"><ele>288.0</ele><time>2026-05-01T12:38:28.999Z</time></trkpt><trkpt lat="40.58786146938349" lon="16.748453403874645"><ele>288.25</ele><time>2026-05-01T12:38:29.999Z</time></trkpt><trkpt lat="40.58772281922677" lon="16.74849882254671"><ele>288.5</ele><time>2026-05-01T12:38:30.999Z</time></trkpt><trkpt lat="40.58758564707505" lon="16.74854114797674"><ele>288.75</ele><time>2026-05-01T12:38:31.999Z</time></trkpt><trkpt lat="40.58743143935418" lon="16.748574428591592"><ele>289.0</ele><time>2026-05-01T12:38:32.999Z</time></trkpt><trkpt lat="40.58727136995968" lon="16.7485928771207"><ele>289.0</ele><time>2026-05-01T12:38:33.999Z</time></trkpt><trkpt lat="40.587130214852756" lon="16.74861856797977"><ele>289.0</ele><time>2026-05-01T12:38:34.999Z</time></trkpt><trkpt lat="40.58699214168161" lon="16.748639334765716"><ele>289.0</ele><time>2026-05-01T12:38:35.999Z</time></trkpt><trkpt lat="40.58684339643462" lon="16.748675390918564"><ele>289.0</ele><time>2026-05-01T12:38:36.999Z</time></trkpt><trkpt lat="40.58668776060377" lon="16.748681839487915"><ele>287.75</ele><time>2026-05-01T12:38:37.999Z</time></trkpt><trkpt lat="40.58654595664741" lon="16.748682207810774"><ele>286.5</ele><time>2026-05-01T12:38:38.999Z</time></trkpt><trkpt lat="40.58640307899903" lon="16.748692837654577"><ele>285.25</ele><time>2026-05-01T12:38:39.999Z</time></trkpt><trkpt lat="40.58625143110056" lon="16.748695995084866"><ele>284.0</ele><time>2026-05-01T12:38:40.999Z</time></trkpt><trkpt lat="40.58611285732714" lon="16.748660406079882"><ele>282.0</ele><time>2026-05-01T12:38:41.999Z</time></trkpt><trkpt lat="40.585978104927904" lon="16.74861235185043"><ele>280.0</ele><time>2026-05-01T12:38:42.999Z</time></trkpt><trkpt lat="40.5858511337144" lon="16.74855934572582"><ele>278.0</ele><time>2026-05-01T12:38:43.999Z</time></trkpt><trkpt lat="40.58573861193575" lon="16.748475512846415"><ele>276.0</ele><time>2026-05-01T12:38:44.999Z</time></trkpt><trkpt lat="40.58561025442613" lon="16.748452087833204"><ele>275.25</ele><time>2026-05-01T12:38:45.999Z</time></trkpt><trkpt lat="40.5854776892338" lon="16.74848457669607"><ele>274.5</ele><time>2026-05-01T12:38:46.999Z</time></trkpt><trkpt lat="40.58533990483535" lon="16.74857599335268"><ele>273.75</ele><time>2026-05-01T12:38:47.999Z</time></trkpt><trkpt lat="40.585215678112334" lon="16.74870857045666"><ele>273.0</ele><time>2026-05-01T12:38:48.999Z</time></trkpt><trkpt lat="40.58509788219956" lon="16.748864584166473"><ele>271.25</ele><time>2026-05-01T12:38:49.999Z</time></trkpt><trkpt lat="40.58500201741649" lon="16.749003421296635"><ele>269.5</ele><time>2026-05-01T12:38:50.999Z</time></trkpt><trkpt lat="40.584928396594144" lon="16.749152516907056"><ele>267.75</ele><time>2026-05-01T12:38:51.999Z</time></trkpt><trkpt lat="40.584872221493946" lon="16.749319649127127"><ele>266.0</ele><time>2026-05-01T12:38:52.999Z</time></trkpt><trkpt lat="40.58479612088984" lon="16.74947627710949"><ele>266.0</ele><time>2026-05-01T12:38:53.999Z</time></trkpt><trkpt lat="40.58470921195695" lon="16.749619009755573"><ele>266.0</ele><time>2026-05-01T12:38:54.999Z</time></trkpt><trkpt lat="40.58460884607246" lon="16.749738364078357"><ele>266.0</ele><time>2026-05-01T12:38:55.999Z</time></trkpt><trkpt lat="40.584498512920085" lon="16.749834518020208"><ele>266.0</ele><time>2026-05-01T12:38:56.999Z</time></trkpt><trkpt lat="40.58436869197114" lon="16.749905742026986"><ele>263.25</ele><time>2026-05-01T12:38:57.999Z</time></trkpt><trkpt lat="40.584224671102824" lon="16.74998213394452"><ele>260.5</ele><time>2026-05-01T12:38:58.999Z</time></trkpt><trkpt lat="40.584098698590005" lon="16.750062965127817"><ele>257.75</ele><time>2026-05-01T12:38:59.999Z</time></trkpt><trkpt lat="40.583980930246895" lon="16.750126666373244"><ele>255.0</ele><time>2026-05-01T12:39:00.999Z</time></trkpt><trkpt lat="40.583867918044476" lon="16.75017549085349"><ele>255.75</ele><time>2026-05-01T12:39:01.999Z</time></trkpt><trkpt lat="40.58377498672438" lon="16.750273107018845"><ele>256.5</ele><time>2026-05-01T12:39:02.999Z</time></trkpt><trkpt lat="40.583671552598396" lon="16.750371818892145"><ele>257.25</ele><time>2026-05-01T12:39:03.999Z</time></trkpt><trkpt lat="40.58357794407547" lon="16.750500160933086"><ele>258.0</ele><time>2026-05-01T12:39:04.999Z</time></trkpt><trkpt lat="40.58351237991048" lon="16.750626833275618"><ele>256.0</ele><time>2026-05-01T12:39:05.999Z</time></trkpt><trkpt lat="40.583444325605434" lon="16.75074408695493"><ele>254.0</ele><time>2026-05-01T12:39:06.999Z</time></trkpt><trkpt lat="40.583387756534634" lon="16.750882797464627"><ele>252.0</ele><time>2026-05-01T12:39:07.999Z</time></trkpt><trkpt lat="40.58333379217857" lon="16.751015478591178"><ele>250.0</ele><time>2026-05-01T12:39:08.999Z</time></trkpt><trkpt lat="40.583280891484755" lon="16.75112753088135"><ele>248.0</ele><time>2026-05-01T12:39:09.999Z</time></trkpt><trkpt lat="40.58322989239168" lon="16.75121927328661"><ele>248.00000000000003</ele><time>2026-05-01T12:39:10.999Z</time></trkpt><trkpt lat="40.58318288285778" lon="16.75130137847427"><ele>248.0</ele><time>2026-05-01T12:39:11.999Z</time></trkpt><trkpt lat="40.58312867080257" lon="16.751352697945418"><ele>248.0</ele><time>2026-05-01T12:39:12.999Z</time></trkpt><trkpt lat="40.58302760523147" lon="16.751430427808256"><ele>248.0</ele><time>2026-05-01T12:39:14.999Z</time></trkpt><trkpt lat="40.58295873508468" lon="16.751431714182182"><ele>248.00000000000003</ele><time>2026-05-01T12:39:15.999Z</time></trkpt><trkpt lat="40.58287115582917" lon="16.75146039409784"><ele>248.0</ele><time>2026-05-01T12:39:16.999Z</time></trkpt><trkpt lat="40.582761806635844" lon="16.751492994302822"><ele>247.66666666666669</ele><time>2026-05-01T12:39:17.999Z</time></trkpt><trkpt lat="40.58265150282637" lon="16.751525570039302"><ele>247.33333333333334</ele><time>2026-05-01T12:39:18.999Z</time></trkpt><trkpt lat="40.582562117001274" lon="16.75154870617172"><ele>247.0</ele><time>2026-05-01T12:39:19.999Z</time></trkpt><trkpt lat="40.58248898899826" lon="16.75156869166036"><ele>246.66666666666669</ele><time>2026-05-01T12:39:20.999Z</time></trkpt><trkpt lat="40.58241877535594" lon="16.75158788044031"><ele>246.33333333333334</ele><time>2026-05-01T12:39:21.999Z</time></trkpt><trkpt lat="40.58233899735459" lon="16.7516093408347"><ele>246.0</ele><time>2026-05-01T12:39:22.999Z</time></trkpt><trkpt lat="40.58226756210192" lon="16.75162867668492"><ele>246.0</ele><time>2026-05-01T12:39:23.999Z</time></trkpt><trkpt lat="40.58219402447128" lon="16.751648581975086"><ele>246.0</ele><time>2026-05-01T12:39:24.999Z</time></trkpt><trkpt lat="40.58211513867604" lon="16.751670176817928"><ele>246.0</ele><time>2026-05-01T12:39:25.999Z</time></trkpt><trkpt lat="40.58200193789905" lon="16.751701086718754"><ele>246.0</ele><time>2026-05-01T12:39:26.999Z</time></trkpt><trkpt lat="40.58191166455341" lon="16.751725737152977"><ele>246.0</ele><time>2026-05-01T12:39:27.999Z</time></trkpt><trkpt lat="40.58183249114146" lon="16.751747335807416"><ele>246.0</ele><time>2026-05-01T12:39:28.999Z</time></trkpt><trkpt lat="40.581759155535075" lon="16.751767350062657"><ele>245.5</ele><time>2026-05-01T12:39:29.999Z</time></trkpt><trkpt lat="40.5816635685513" lon="16.751793437851976"><ele>245.0</ele><time>2026-05-01T12:39:30.999Z</time></trkpt><trkpt lat="40.58158637934506" lon="16.75181476453024"><ele>244.5</ele><time>2026-05-01T12:39:31.999Z</time></trkpt><trkpt lat="40.58148901715595" lon="16.751841524875715"><ele>244.0</ele><time>2026-05-01T12:39:32.999Z</time></trkpt><trkpt lat="40.58141824044224" lon="16.75186097917496"><ele>243.5</ele><time>2026-05-01T12:39:33.999Z</time></trkpt><trkpt lat="40.58135213482106" lon="16.75187904173458"><ele>243.0</ele><time>2026-05-01T12:39:34.999Z</time></trkpt><trkpt lat="40.58128224084395" lon="16.751898195404625"><ele>242.16666666666666</ele><time>2026-05-01T12:39:35.999Z</time></trkpt><trkpt lat="40.581210458485586" lon="16.75191786801379"><ele>241.33333333333331</ele><time>2026-05-01T12:39:36.999Z</time></trkpt><trkpt lat="40.58114471687167" lon="16.751934330163415"><ele>240.5</ele><time>2026-05-01T12:39:37.999Z</time></trkpt><trkpt lat="40.581037891344835" lon="16.75196113132919"><ele>239.66666666666666</ele><time>2026-05-01T12:39:39.999Z</time></trkpt><trkpt lat="40.58096970028113" lon="16.751978112495063"><ele>238.83333333333331</ele><time>2026-05-01T12:39:42.999Z</time></trkpt><trkpt lat="40.58089786152755" lon="16.751996001979677"><ele>238.0</ele><time>2026-05-01T12:39:45.999Z</time></trkpt><trkpt lat="40.58082982461975" lon="16.752162088688266"><ele>238.0</ele><time>2026-05-01T12:39:47.999Z</time></trkpt><trkpt lat="40.58077142858781" lon="16.752242177942627"><ele>238.0</ele><time>2026-05-01T12:39:49.999Z</time></trkpt><trkpt lat="40.5807231966696" lon="16.752302722658328"><ele>238.0</ele><time>2026-05-01T12:39:50.999Z</time></trkpt><trkpt lat="40.580669048563045" lon="16.752359426955504"><ele>238.0</ele><time>2026-05-01T12:39:51.999Z</time></trkpt><trkpt lat="40.58059277294074" lon="16.752411508003437"><ele>238.0</ele><time>2026-05-01T12:39:52.999Z</time></trkpt><trkpt lat="40.58053300240331" lon="16.7524733826043"><ele>238.0</ele><time>2026-05-01T12:39:53.999Z</time></trkpt><trkpt lat="40.58047553075825" lon="16.75251274966763"><ele>238.0</ele><time>2026-05-01T12:39:54.999Z</time></trkpt><trkpt lat="40.58035659749268" lon="16.752589266869325"><ele>238.33333333333331</ele><time>2026-05-01T12:39:56.999Z</time></trkpt><trkpt lat="40.580283008203004" lon="16.752636810968152"><ele>238.66666666666666</ele><time>2026-05-01T12:39:57.999Z</time></trkpt><trkpt lat="40.58021606558602" lon="16.752679509561766"><ele>239.0</ele><time>2026-05-01T12:39:58.999Z</time></trkpt><trkpt lat="40.580142846167085" lon="16.752726428685026"><ele>239.33333333333331</ele><time>2026-05-01T12:39:59.999Z</time></trkpt><trkpt lat="40.580067396248104" lon="16.75277488001353"><ele>239.66666666666666</ele><time>2026-05-01T12:40:00.999Z</time></trkpt><trkpt lat="40.58000293380791" lon="16.75281630073167"><ele>240.0</ele><time>2026-05-01T12:40:01.999Z</time></trkpt><trkpt lat="40.57993206283741" lon="16.752861839216376"><ele>240.0</ele><time>2026-05-01T12:40:02.999Z</time></trkpt><trkpt lat="40.579857472601006" lon="16.75290629478218"><ele>240.0</ele><time>2026-05-01T12:40:03.999Z</time></trkpt><trkpt lat="40.57977373788958" lon="16.752954905204597"><ele>240.0</ele><time>2026-05-01T12:40:04.999Z</time></trkpt><trkpt lat="40.579697230294755" lon="16.752999320070984"><ele>240.0</ele><time>2026-05-01T12:40:05.999Z</time></trkpt><trkpt lat="40.57962567485807" lon="16.753041322603377"><ele>240.0</ele><time>2026-05-01T12:40:06.999Z</time></trkpt><trkpt lat="40.57955603860303" lon="16.75308258672295"><ele>240.0</ele><time>2026-05-01T12:40:07.999Z</time></trkpt><trkpt lat="40.57948084084867" lon="16.753126117782024"><ele>241.75</ele><time>2026-05-01T12:40:08.999Z</time></trkpt><trkpt lat="40.579404413163815" lon="16.75316947534167"><ele>243.5</ele><time>2026-05-01T12:40:10.999Z</time></trkpt><trkpt lat="40.57927131847551" lon="16.75320081832498"><ele>245.25</ele><time>2026-05-01T12:40:12.999Z</time></trkpt><trkpt lat="40.57910836372438" lon="16.75324466164829"><ele>247.0</ele><time>2026-05-01T12:40:14.999Z</time></trkpt><trkpt lat="40.57903032840287" lon="16.753215280757168"><ele>247.0</ele><time>2026-05-01T12:40:15.999Z</time></trkpt><trkpt lat="40.578957074136035" lon="16.753232987613806"><ele>247.0</ele><time>2026-05-01T12:40:16.999Z</time></trkpt><trkpt lat="40.57886430282725" lon="16.75324206716036"><ele>247.0</ele><time>2026-05-01T12:40:18.999Z</time></trkpt><trkpt lat="40.578775765248224" lon="16.753253918970987"><ele>247.0</ele><time>2026-05-01T12:40:21.999Z</time></trkpt><trkpt lat="40.5787128247886" lon="16.75329235660855"><ele>247.0</ele><time>2026-05-01T12:40:23.999Z</time></trkpt><trkpt lat="40.57859801953451" lon="16.753372950002117"><ele>248.66666666666666</ele><time>2026-05-01T12:40:25.999Z</time></trkpt><trkpt lat="40.57853189954276" lon="16.753516040715414"><ele>250.33333333333331</ele><time>2026-05-01T12:40:27.999Z</time></trkpt><trkpt lat="40.57847899194293" lon="16.75358748597317"><ele>252.0</ele><time>2026-05-01T12:40:28.999Z</time></trkpt><trkpt lat="40.578425635349866" lon="16.75367423543223"><ele>253.66666666666669</ele><time>2026-05-01T12:40:29.999Z</time></trkpt><trkpt lat="40.578389975166196" lon="16.753766600312503"><ele>255.33333333333334</ele><time>2026-05-01T12:40:30.999Z</time></trkpt><trkpt lat="40.57836391883515" lon="16.753844752559992"><ele>257.0</ele><time>2026-05-01T12:40:31.999Z</time></trkpt><trkpt lat="40.57831601831091" lon="16.753903877343586"><ele>257.2</ele><time>2026-05-01T12:40:32.999Z</time></trkpt><trkpt lat="40.5782736042031" lon="16.754012882595827"><ele>257.4</ele><time>2026-05-01T12:40:33.999Z</time></trkpt><trkpt lat="40.57823975581418" lon="16.754085697110796"><ele>257.6</ele><time>2026-05-01T12:40:34.999Z</time></trkpt><trkpt lat="40.57817555982318" lon="16.75424685714956"><ele>257.8</ele><time>2026-05-01T12:40:36.999Z</time></trkpt><trkpt lat="40.578119272398084" lon="16.754326026764637"><ele>258.0</ele><time>2026-05-01T12:40:37.999Z</time></trkpt><trkpt lat="40.57805174540832" lon="16.754465582540796"><ele>258.1666666666667</ele><time>2026-05-01T12:40:39.999Z</time></trkpt><trkpt lat="40.57800731977799" lon="16.754557395521896"><ele>258.3333333333333</ele><time>2026-05-01T12:40:40.999Z</time></trkpt><trkpt lat="40.577962778497614" lon="16.754649447089456"><ele>258.5</ele><time>2026-05-01T12:40:41.999Z</time></trkpt><trkpt lat="40.57791678581493" lon="16.75474545878081"><ele>258.66666666666663</ele><time>2026-05-01T12:40:42.999Z</time></trkpt><trkpt lat="40.57787574415539" lon="16.754829965375695"><ele>258.8333333333333</ele><time>2026-05-01T12:40:43.999Z</time></trkpt><trkpt lat="40.57783398400514" lon="16.75494264943517"><ele>259.0</ele><time>2026-05-01T12:40:44.999Z</time></trkpt><trkpt lat="40.57777613023315" lon="16.755035074148992"><ele>259.0</ele><time>2026-05-01T12:40:45.999Z</time></trkpt><trkpt lat="40.57773875641018" lon="16.75514456443753"><ele>259.0</ele><time>2026-05-01T12:40:46.999Z</time></trkpt><trkpt lat="40.57766215946518" lon="16.755271333564757"><ele>259.0</ele><time>2026-05-01T12:40:48.999Z</time></trkpt><trkpt lat="40.57762193545622" lon="16.75535464598193"><ele>259.0</ele><time>2026-05-01T12:40:49.999Z</time></trkpt><trkpt lat="40.57757475205593" lon="16.755452303431824"><ele>259.0</ele><time>2026-05-01T12:40:50.999Z</time></trkpt><trkpt lat="40.577534611019594" lon="16.755535389165026"><ele>258.2</ele><time>2026-05-01T12:40:51.999Z</time></trkpt><trkpt lat="40.577489830606105" lon="16.75566311159389"><ele>257.4</ele><time>2026-05-01T12:40:53.999Z</time></trkpt><trkpt lat="40.57742999182788" lon="16.755774462940927"><ele>256.6</ele><time>2026-05-01T12:40:55.999Z</time></trkpt><trkpt lat="40.57734572671616" lon="16.75581799847324"><ele>255.8</ele><time>2026-05-01T12:40:58.999Z</time></trkpt><trkpt lat="40.57723740022305" lon="16.75582904145429"><ele>255.0</ele><time>2026-05-01T12:41:00.999Z</time></trkpt><trkpt lat="40.57714070275672" lon="16.755909398578332"><ele>255.0</ele><time>2026-05-01T12:41:02.999Z</time></trkpt><trkpt lat="40.57709223257203" lon="16.755964750407582"><ele>255.0</ele><time>2026-05-01T12:41:03.999Z</time></trkpt><trkpt lat="40.577027470801625" lon="16.756038706854397"><ele>255.0</ele><time>2026-05-01T12:41:04.999Z</time></trkpt><trkpt lat="40.57695674244179" lon="16.75611947703225"><ele>255.0</ele><time>2026-05-01T12:41:05.999Z</time></trkpt><trkpt lat="40.576882217404695" lon="16.756213899283377"><ele>255.0</ele><time>2026-05-01T12:41:06.999Z</time></trkpt><trkpt lat="40.57680803903019" lon="16.75629640744098"><ele>255.0</ele><time>2026-05-01T12:41:07.999Z</time></trkpt><trkpt lat="40.5767620657688" lon="16.756365240413547"><ele>254.8</ele><time>2026-05-01T12:41:08.999Z</time></trkpt><trkpt lat="40.576660068380164" lon="16.7564781199461"><ele>254.6</ele><time>2026-05-01T12:41:10.999Z</time></trkpt><trkpt lat="40.57659265716377" lon="16.756549592996482"><ele>254.39999999999998</ele><time>2026-05-01T12:41:11.999Z</time></trkpt><trkpt lat="40.57651533726382" lon="16.756620187521293"><ele>254.2</ele><time>2026-05-01T12:41:13.999Z</time></trkpt><trkpt lat="40.576597717515945" lon="16.75675924317193"><ele>254.0</ele><time>2026-05-01T12:41:14.999Z</time></trkpt><trkpt lat="40.57663775405387" lon="16.756828448303033"><ele>253.6</ele><time>2026-05-01T12:41:15.999Z</time></trkpt><trkpt lat="40.57653492469847" lon="16.756915918239915"><ele>253.2</ele><time>2026-05-01T12:41:19.999Z</time></trkpt><trkpt lat="40.576435623792335" lon="16.757007541518433"><ele>252.79999999999998</ele><time>2026-05-01T12:41:20.999Z</time></trkpt><trkpt lat="40.57634467453331" lon="16.757036794043657"><ele>252.39999999999998</ele><time>2026-05-01T12:41:21.999Z</time></trkpt><trkpt lat="40.576279747874096" lon="16.757073995508502"><ele>252.0</ele><time>2026-05-01T12:41:22.999Z</time></trkpt><trkpt lat="40.57615849671016" lon="16.75713712211841"><ele>250.83333333333334</ele><time>2026-05-01T12:41:24.999Z</time></trkpt><trkpt lat="40.57608052163149" lon="16.757169538093382"><ele>249.66666666666669</ele><time>2026-05-01T12:41:25.999Z</time></trkpt><trkpt lat="40.57601604349127" lon="16.75719305385249"><ele>248.5</ele><time>2026-05-01T12:41:26.999Z</time></trkpt><trkpt lat="40.575949286841855" lon="16.757217344476064"><ele>247.33333333333334</ele><time>2026-05-01T12:41:27.999Z</time></trkpt><trkpt lat="40.575880775271074" lon="16.75731466706375"><ele>246.16666666666669</ele><time>2026-05-01T12:41:28.999Z</time></trkpt><trkpt lat="40.57579604908652" lon="16.75734537300481"><ele>245.0</ele><time>2026-05-01T12:41:29.999Z</time></trkpt><trkpt lat="40.575698184535526" lon="16.757374842223953"><ele>245.0</ele><time>2026-05-01T12:41:30.999Z</time></trkpt><trkpt lat="40.57559463801531" lon="16.757402527637446"><ele>245.0</ele><time>2026-05-01T12:41:31.999Z</time></trkpt><trkpt lat="40.57548527452218" lon="16.757349338120186"><ele>245.0</ele><time>2026-05-01T12:41:32.999Z</time></trkpt><trkpt lat="40.57538065381339" lon="16.757384977578116"><ele>245.0</ele><time>2026-05-01T12:41:33.999Z</time></trkpt><trkpt lat="40.57527814992968" lon="16.757425213965153"><ele>245.0</ele><time>2026-05-01T12:41:34.999Z</time></trkpt><trkpt lat="40.575163596858324" lon="16.75747802417424"><ele>244.5</ele><time>2026-05-01T12:41:35.999Z</time></trkpt><trkpt lat="40.57504411829115" lon="16.75753877473544"><ele>244.0</ele><time>2026-05-01T12:41:36.999Z</time></trkpt><trkpt lat="40.57493935648461" lon="16.757593814219835"><ele>243.5</ele><time>2026-05-01T12:41:37.999Z</time></trkpt><trkpt lat="40.57484252650305" lon="16.757652248396756"><ele>243.0</ele><time>2026-05-01T12:41:38.999Z</time></trkpt><trkpt lat="40.57474079219083" lon="16.757713864600106"><ele>243.0</ele><time>2026-05-01T12:41:39.999Z</time></trkpt><trkpt lat="40.57463585059162" lon="16.75777763870486"><ele>243.0</ele><time>2026-05-01T12:41:40.999Z</time></trkpt><trkpt lat="40.574537417092145" lon="16.757837457781854"><ele>243.0</ele><time>2026-05-01T12:41:41.999Z</time></trkpt><trkpt lat="40.57444410042542" lon="16.75789165752098"><ele>243.0</ele><time>2026-05-01T12:41:42.999Z</time></trkpt><trkpt lat="40.57435723692601" lon="16.75793977432795"><ele>243.0</ele><time>2026-05-01T12:41:43.999Z</time></trkpt><trkpt lat="40.574277663035446" lon="16.75798385315075"><ele>242.0</ele><time>2026-05-01T12:41:44.999Z</time></trkpt><trkpt lat="40.574188576867165" lon="16.758033665227895"><ele>241.0</ele><time>2026-05-01T12:41:45.999Z</time></trkpt><trkpt lat="40.574087576378226" lon="16.758091008526446"><ele>240.0</ele><time>2026-05-01T12:41:46.999Z</time></trkpt><trkpt lat="40.57400744275516" lon="16.75813858586449"><ele>239.0</ele><time>2026-05-01T12:41:47.999Z</time></trkpt><trkpt lat="40.57392491420509" lon="16.758190015050083"><ele>238.0</ele><time>2026-05-01T12:41:48.999Z</time></trkpt><trkpt lat="40.57382895999755" lon="16.758257549766185"><ele>238.0</ele><time>2026-05-01T12:41:49.999Z</time></trkpt><trkpt lat="40.57372639039506" lon="16.758346489736848"><ele>238.0</ele><time>2026-05-01T12:41:50.999Z</time></trkpt><trkpt lat="40.57362957365933" lon="16.758436815399186"><ele>238.0</ele><time>2026-05-01T12:41:51.999Z</time></trkpt><trkpt lat="40.57354806199176" lon="16.758515731135443"><ele>238.0</ele><time>2026-05-01T12:41:52.999Z</time></trkpt><trkpt lat="40.57347720973971" lon="16.75859867374444"><ele>238.0</ele><time>2026-05-01T12:41:53.999Z</time></trkpt><trkpt lat="40.57340876520467" lon="16.75866911987252"><ele>236.25</ele><time>2026-05-01T12:41:54.999Z</time></trkpt><trkpt lat="40.57332596348032" lon="16.758757172149085"><ele>234.5</ele><time>2026-05-01T12:41:55.999Z</time></trkpt><trkpt lat="40.57324223817069" lon="16.75884879785302"><ele>232.75</ele><time>2026-05-01T12:41:56.999Z</time></trkpt><trkpt lat="40.57314814681787" lon="16.75894266651158"><ele>231.0</ele><time>2026-05-01T12:41:57.999Z</time></trkpt><trkpt lat="40.573048657798566" lon="16.759034129469722"><ele>231.0</ele><time>2026-05-01T12:41:58.999Z</time></trkpt><trkpt lat="40.572956515574774" lon="16.759090061223045"><ele>231.00000000000003</ele><time>2026-05-01T12:41:59.999Z</time></trkpt><trkpt lat="40.57287110502812" lon="16.759115780210017"><ele>231.00000000000003</ele><time>2026-05-01T12:42:00.999Z</time></trkpt><trkpt lat="40.57277985650034" lon="16.75914958822982"><ele>231.0</ele><time>2026-05-01T12:42:01.999Z</time></trkpt><trkpt lat="40.57267128502961" lon="16.759169498620068"><ele>231.0</ele><time>2026-05-01T12:42:02.999Z</time></trkpt><trkpt lat="40.5725612682819" lon="16.759183862869737"><ele>230.0</ele><time>2026-05-01T12:42:03.999Z</time></trkpt><trkpt lat="40.57244857332311" lon="16.759193591197906"><ele>229.00000000000003</ele><time>2026-05-01T12:42:04.999Z</time></trkpt><trkpt lat="40.57233150626437" lon="16.759221731020165"><ele>228.00000000000003</ele><time>2026-05-01T12:42:05.999Z</time></trkpt><trkpt lat="40.57224641838401" lon="16.759210093624752"><ele>227.0</ele><time>2026-05-01T12:42:06.999Z</time></trkpt><trkpt lat="40.57215741406742" lon="16.759216561570145"><ele>226.0</ele><time>2026-05-01T12:42:07.999Z</time></trkpt><trkpt lat="40.572056336969354" lon="16.759234644508098"><ele>224.25</ele><time>2026-05-01T12:42:08.999Z</time></trkpt><trkpt lat="40.571940494105014" lon="16.759231257666343"><ele>222.5</ele><time>2026-05-01T12:42:09.999Z</time></trkpt><trkpt lat="40.57182578248879" lon="16.759269666665208"><ele>220.75</ele><time>2026-05-01T12:42:10.999Z</time></trkpt><trkpt lat="40.57171202946054" lon="16.75927743849698"><ele>219.0</ele><time>2026-05-01T12:42:11.999Z</time></trkpt><trkpt lat="40.57158030942714" lon="16.75927341505292"><ele>219.0</ele><time>2026-05-01T12:42:12.999Z</time></trkpt><trkpt lat="40.5714584707508" lon="16.75929366634327"><ele>219.0</ele><time>2026-05-01T12:42:13.999Z</time></trkpt><trkpt lat="40.571331246160426" lon="16.75929957463192"><ele>219.0</ele><time>2026-05-01T12:42:14.999Z</time></trkpt><trkpt lat="40.571213265268646" lon="16.759308180982803"><ele>219.0</ele><time>2026-05-01T12:42:15.999Z</time></trkpt><trkpt lat="40.57108797489226" lon="16.75928053282283"><ele>218.0</ele><time>2026-05-01T12:42:16.999Z</time></trkpt><trkpt lat="40.570956316053106" lon="16.759296619336027"><ele>217.0</ele><time>2026-05-01T12:42:17.999Z</time></trkpt><trkpt lat="40.57084480752549" lon="16.759337106645486"><ele>216.0</ele><time>2026-05-01T12:42:18.999Z</time></trkpt><trkpt lat="40.57073415732322" lon="16.759365591068946"><ele>215.0</ele><time>2026-05-01T12:42:19.999Z</time></trkpt><trkpt lat="40.57061343507001" lon="16.759433805268376"><ele>215.0</ele><time>2026-05-01T12:42:20.999Z</time></trkpt><trkpt lat="40.570479881305964" lon="16.759502295697544"><ele>215.0</ele><time>2026-05-01T12:42:21.999Z</time></trkpt><trkpt lat="40.570355881386334" lon="16.759586304618313"><ele>215.0</ele><time>2026-05-01T12:42:22.999Z</time></trkpt><trkpt lat="40.570235710073646" lon="16.759671531658615"><ele>215.0</ele><time>2026-05-01T12:42:23.999Z</time></trkpt><trkpt lat="40.57012230231542" lon="16.75975444091662"><ele>212.75</ele><time>2026-05-01T12:42:24.999Z</time></trkpt><trkpt lat="40.57001014183556" lon="16.759832984014974"><ele>210.5</ele><time>2026-05-01T12:42:25.999Z</time></trkpt><trkpt lat="40.5699010034378" lon="16.759904157454134"><ele>208.25</ele><time>2026-05-01T12:42:26.999Z</time></trkpt><trkpt lat="40.569792874202356" lon="16.75997188892082"><ele>206.0</ele><time>2026-05-01T12:42:27.999Z</time></trkpt><trkpt lat="40.56966954771611" lon="16.760046865489922"><ele>206.0</ele><time>2026-05-01T12:42:28.999Z</time></trkpt><trkpt lat="40.56956089259921" lon="16.760118509051708"><ele>206.0</ele><time>2026-05-01T12:42:29.999Z</time></trkpt><trkpt lat="40.56945868564221" lon="16.760165993389403"><ele>206.0</ele><time>2026-05-01T12:42:30.999Z</time></trkpt><trkpt lat="40.5693531694359" lon="16.760225311717747"><ele>206.0</ele><time>2026-05-01T12:42:31.999Z</time></trkpt><trkpt lat="40.569227375191275" lon="16.76029867768953"><ele>203.25</ele><time>2026-05-01T12:42:32.999Z</time></trkpt><trkpt lat="40.569091854115165" lon="16.760379578443427"><ele>200.5</ele><time>2026-05-01T12:42:33.999Z</time></trkpt><trkpt lat="40.568965707155385" lon="16.76046001609487"><ele>197.75</ele><time>2026-05-01T12:42:34.999Z</time></trkpt><trkpt lat="40.56885759479068" lon="16.760536408895444"><ele>195.0</ele><time>2026-05-01T12:42:35.999Z</time></trkpt><trkpt lat="40.56874673962941" lon="16.760620985543692"><ele>194.75</ele><time>2026-05-01T12:42:36.999Z</time></trkpt><trkpt lat="40.56863281654876" lon="16.76070744642041"><ele>194.5</ele><time>2026-05-01T12:42:37.999Z</time></trkpt><trkpt lat="40.56852180350883" lon="16.76078306233053"><ele>194.25</ele><time>2026-05-01T12:42:38.999Z</time></trkpt><trkpt lat="40.5684069826752" lon="16.760846998027674"><ele>194.0</ele><time>2026-05-01T12:42:39.999Z</time></trkpt><trkpt lat="40.56828835982892" lon="16.760898815749215"><ele>194.0</ele><time>2026-05-01T12:42:40.999Z</time></trkpt><trkpt lat="40.568163956416015" lon="16.760950801644768"><ele>194.0</ele><time>2026-05-01T12:42:41.999Z</time></trkpt><trkpt lat="40.56804144148661" lon="16.76099857845664"><ele>194.0</ele><time>2026-05-01T12:42:42.999Z</time></trkpt><trkpt lat="40.567907076383875" lon="16.76104953497289"><ele>194.0</ele><time>2026-05-01T12:42:43.999Z</time></trkpt><trkpt lat="40.567765261715344" lon="16.761089571676205"><ele>191.75</ele><time>2026-05-01T12:42:44.999Z</time></trkpt><trkpt lat="40.56763689380382" lon="16.761103846552075"><ele>189.5</ele><time>2026-05-01T12:42:45.999Z</time></trkpt><trkpt lat="40.56751703079981" lon="16.7611123973209"><ele>187.25</ele><time>2026-05-01T12:42:46.999Z</time></trkpt><trkpt lat="40.567389142864755" lon="16.761125004730918"><ele>185.0</ele><time>2026-05-01T12:42:47.999Z</time></trkpt><trkpt lat="40.56724967435089" lon="16.761139298662012"><ele>185.0</ele><time>2026-05-01T12:42:48.999Z</time></trkpt><trkpt lat="40.56710612004784" lon="16.761153694912924"><ele>185.0</ele><time>2026-05-01T12:42:49.999Z</time></trkpt><trkpt lat="40.56697947363693" lon="16.76116862610816"><ele>185.0</ele><time>2026-05-01T12:42:50.999Z</time></trkpt><trkpt lat="40.56684833202579" lon="16.761186049782268"><ele>185.0</ele><time>2026-05-01T12:42:51.999Z</time></trkpt><trkpt lat="40.566725301875934" lon="16.76122232270964"><ele>183.75</ele><time>2026-05-01T12:42:52.999Z</time></trkpt><trkpt lat="40.5666055112621" lon="16.761243491326226"><ele>182.5</ele><time>2026-05-01T12:42:53.999Z</time></trkpt><trkpt lat="40.56650017859132" lon="16.761265161189215"><ele>181.25</ele><time>2026-05-01T12:42:54.999Z</time></trkpt><trkpt lat="40.56639506019113" lon="16.761288239848497"><ele>180.0</ele><time>2026-05-01T12:42:55.999Z</time></trkpt><trkpt lat="40.566273763114246" lon="16.76131074643522"><ele>179.25</ele><time>2026-05-01T12:42:56.999Z</time></trkpt><trkpt lat="40.566140899836974" lon="16.761297907388155"><ele>178.5</ele><time>2026-05-01T12:42:57.999Z</time></trkpt><trkpt lat="40.566012924910204" lon="16.761253737188525"><ele>177.75</ele><time>2026-05-01T12:42:58.999Z</time></trkpt><trkpt lat="40.56590927803875" lon="16.761233145399654"><ele>177.0</ele><time>2026-05-01T12:42:59.999Z</time></trkpt><trkpt lat="40.56580924865345" lon="16.76122786617781"><ele>177.0</ele><time>2026-05-01T12:43:00.999Z</time></trkpt><trkpt lat="40.56573624788995" lon="16.76126660405902"><ele>177.0</ele><time>2026-05-01T12:43:01.999Z</time></trkpt><trkpt lat="40.56566964082134" lon="16.76131834362766"><ele>177.0</ele><time>2026-05-01T12:43:02.999Z</time></trkpt><trkpt lat="40.565614763458" lon="16.76141362959879"><ele>177.0</ele><time>2026-05-01T12:43:03.999Z</time></trkpt><trkpt lat="40.565618207072205" lon="16.761580873174502"><ele>177.0</ele><time>2026-05-01T12:43:04.999Z</time></trkpt><trkpt lat="40.565567842310834" lon="16.76173161672745"><ele>175.66666666666666</ele><time>2026-05-01T12:43:05.999Z</time></trkpt><trkpt lat="40.56549001708103" lon="16.76187483474716"><ele>174.33333333333331</ele><time>2026-05-01T12:43:06.999Z</time></trkpt><trkpt lat="40.56529824243178" lon="16.76190242656823"><ele>173.0</ele><time>2026-05-01T12:43:07.999Z</time></trkpt><trkpt lat="40.565150938878354" lon="16.761993852272546"><ele>172.0</ele><time>2026-05-01T12:43:08.999Z</time></trkpt><trkpt lat="40.5650001684537" lon="16.762103285231586"><ele>171.0</ele><time>2026-05-01T12:43:09.999Z</time></trkpt><trkpt lat="40.56482973637479" lon="16.76222213426175"><ele>170.0</ele><time>2026-05-01T12:43:10.999Z</time></trkpt><trkpt lat="40.5646796254106" lon="16.7623379163382"><ele>170.0</ele><time>2026-05-01T12:43:11.999Z</time></trkpt><trkpt lat="40.56453501760332" lon="16.76245767765774"><ele>170.0</ele><time>2026-05-01T12:43:13Z</time></trkpt><trkpt lat="40.56438926519799" lon="16.762581392178"><ele>170.0</ele><time>2026-05-01T12:43:14Z</time></trkpt><trkpt lat="40.56425267155041" lon="16.762713293463776"><ele>169.0</ele><time>2026-05-01T12:43:15Z</time></trkpt><trkpt lat="40.56413283247006" lon="16.762858668612875"><ele>168.0</ele><time>2026-05-01T12:43:16Z</time></trkpt><trkpt lat="40.56400364113237" lon="16.763011098172402"><ele>167.0</ele><time>2026-05-01T12:43:17Z</time></trkpt><trkpt lat="40.56388554501097" lon="16.76315839099203"><ele>167.0</ele><time>2026-05-01T12:43:18Z</time></trkpt><trkpt lat="40.56377851527876" lon="16.763299357600395"><ele>167.0</ele><time>2026-05-01T12:43:19Z</time></trkpt><trkpt lat="40.56366704296467" lon="16.76344557281731"><ele>167.0</ele><time>2026-05-01T12:43:20Z</time></trkpt><trkpt lat="40.56355123813961" lon="16.763590521363625"><ele>166.5</ele><time>2026-05-01T12:43:21Z</time></trkpt><trkpt lat="40.563443814034144" lon="16.763711878280198"><ele>166.0</ele><time>2026-05-01T12:43:22Z</time></trkpt><trkpt lat="40.563347395487014" lon="16.763816607488888"><ele>165.5</ele><time>2026-05-01T12:43:23Z</time></trkpt><trkpt lat="40.56324033613623" lon="16.763921291520784"><ele>165.0</ele><time>2026-05-01T12:43:24Z</time></trkpt><trkpt lat="40.563162380382025" lon="16.764035882818973"><ele>165.0</ele><time>2026-05-01T12:43:25Z</time></trkpt><trkpt lat="40.563061320579514" lon="16.764099243107527"><ele>165.0</ele><time>2026-05-01T12:43:26Z</time></trkpt><trkpt lat="40.562945114601526" lon="16.764136819727742"><ele>165.0</ele><time>2026-05-01T12:43:27Z</time></trkpt><trkpt lat="40.56284329860944" lon="16.76416135794643"><ele>165.0</ele><time>2026-05-01T12:43:28Z</time></trkpt><trkpt lat="40.562773075027536" lon="16.76423035416697"><ele>165.0</ele><time>2026-05-01T12:43:29Z</time></trkpt><trkpt lat="40.562743015122265" lon="16.76434967174361"><ele>164.5</ele><time>2026-05-01T12:43:30Z</time></trkpt><trkpt lat="40.56270510058938" lon="16.764502092957077"><ele>164.0</ele><time>2026-05-01T12:43:31Z</time></trkpt><trkpt lat="40.562651888751695" lon="16.7646444110163"><ele>163.5</ele><time>2026-05-01T12:43:32Z</time></trkpt><trkpt lat="40.56253719424011" lon="16.76476939177364"><ele>163.0</ele><time>2026-05-01T12:43:33Z</time></trkpt><trkpt lat="40.56243121438921" lon="16.764926346791928"><ele>163.0</ele><time>2026-05-01T12:43:34Z</time></trkpt><trkpt lat="40.56233759262919" lon="16.765103585932625"><ele>163.0</ele><time>2026-05-01T12:43:35Z</time></trkpt><trkpt lat="40.562245192845936" lon="16.76525448336185"><ele>163.0</ele><time>2026-05-01T12:43:36Z</time></trkpt><trkpt lat="40.5621587234368" lon="16.76540069152735"><ele>163.0</ele><time>2026-05-01T12:43:37Z</time></trkpt><trkpt lat="40.5620624675805" lon="16.7655607284938"><ele>163.0</ele><time>2026-05-01T12:43:38Z</time></trkpt><trkpt lat="40.561960769628236" lon="16.76572585589498"><ele>163.0</ele><time>2026-05-01T12:43:39Z</time></trkpt><trkpt lat="40.56187846575441" lon="16.765867416801633"><ele>162.75</ele><time>2026-05-01T12:43:40Z</time></trkpt><trkpt lat="40.56178914180554" lon="16.76600326695446"><ele>162.5</ele><time>2026-05-01T12:43:41Z</time></trkpt><trkpt lat="40.561694694661576" lon="16.76615241081234"><ele>162.25</ele><time>2026-05-01T12:43:42Z</time></trkpt><trkpt lat="40.56160448736373" lon="16.766326146874878"><ele>162.0</ele><time>2026-05-01T12:43:43Z</time></trkpt><trkpt lat="40.56152106096208" lon="16.766493282349714"><ele>161.75</ele><time>2026-05-01T12:43:44Z</time></trkpt><trkpt lat="40.56144256499669" lon="16.766643505342863"><ele>161.5</ele><time>2026-05-01T12:43:45Z</time></trkpt><trkpt lat="40.561369135580016" lon="16.766773304382724"><ele>161.25</ele><time>2026-05-01T12:43:46Z</time></trkpt><trkpt lat="40.561307439454" lon="16.766896615121343"><ele>161.0</ele><time>2026-05-01T12:43:47Z</time></trkpt><trkpt lat="40.56124167190659" lon="16.767018434057228"><ele>161.0</ele><time>2026-05-01T12:43:48Z</time></trkpt><trkpt lat="40.561168109990206" lon="16.76714786050022"><ele>161.0</ele><time>2026-05-01T12:43:49Z</time></trkpt><trkpt lat="40.561100909826344" lon="16.767312648447906"><ele>161.0</ele><time>2026-05-01T12:43:50Z</time></trkpt><trkpt lat="40.56103346607354" lon="16.767494516091798"><ele>161.0</ele><time>2026-05-01T12:43:51Z</time></trkpt><trkpt lat="40.56095964077669" lon="16.767654331033786"><ele>160.66666666666666</ele><time>2026-05-01T12:43:52Z</time></trkpt><trkpt lat="40.56088076257357" lon="16.767819981977254"><ele>160.33333333333334</ele><time>2026-05-01T12:43:53Z</time></trkpt><trkpt lat="40.56079408428472" lon="16.767978306624457"><ele>160.0</ele><time>2026-05-01T12:43:54Z</time></trkpt><trkpt lat="40.56068512322467" lon="16.76814043662775"><ele>160.0</ele><time>2026-05-01T12:43:55Z</time></trkpt><trkpt lat="40.56057032308895" lon="16.76828202559023"><ele>160.0</ele><time>2026-05-01T12:43:56Z</time></trkpt><trkpt lat="40.56046520540444" lon="16.768412359158372"><ele>160.0</ele><time>2026-05-01T12:43:57Z</time></trkpt><trkpt lat="40.56035504859481" lon="16.768538341239747"><ele>160.0</ele><time>2026-05-01T12:43:58Z</time></trkpt><trkpt lat="40.5602369830471" lon="16.768681185250504"><ele>159.5</ele><time>2026-05-01T12:43:59Z</time></trkpt><trkpt lat="40.560119871922105" lon="16.768812999966443"><ele>159.0</ele><time>2026-05-01T12:44:00Z</time></trkpt><trkpt lat="40.56003832567044" lon="16.76895798679925"><ele>158.5</ele><time>2026-05-01T12:44:01Z</time></trkpt><trkpt lat="40.5599244619656" lon="16.769066648010707"><ele>158.0</ele><time>2026-05-01T12:44:02Z</time></trkpt><trkpt lat="40.55979966772757" lon="16.769204582776045"><ele>158.0</ele><time>2026-05-01T12:44:03Z</time></trkpt><trkpt lat="40.55966211360365" lon="16.769334414324"><ele>158.0</ele><time>2026-05-01T12:44:04Z</time></trkpt><trkpt lat="40.55951466396093" lon="16.76947397372773"><ele>158.0</ele><time>2026-05-01T12:44:05Z</time></trkpt><trkpt lat="40.55936533481589" lon="16.769579044792316"><ele>158.0</ele><time>2026-05-01T12:44:06Z</time></trkpt><trkpt lat="40.559223453708945" lon="16.769670817280154"><ele>158.0</ele><time>2026-05-01T12:44:07Z</time></trkpt><trkpt lat="40.559092910282864" lon="16.769768450812613"><ele>158.0</ele><time>2026-05-01T12:44:08Z</time></trkpt><trkpt lat="40.55896185481965" lon="16.769885729307507"><ele>158.0</ele><time>2026-05-01T12:44:09Z</time></trkpt><trkpt lat="40.55884608473576" lon="16.770001743455925"><ele>158.0</ele><time>2026-05-01T12:44:10Z</time></trkpt><trkpt lat="40.558739562256065" lon="16.770108134668334"><ele>158.0</ele><time>2026-05-01T12:44:11Z</time></trkpt><trkpt lat="40.55861969235875" lon="16.770231576351815"><ele>158.0</ele><time>2026-05-01T12:44:12Z</time></trkpt><trkpt lat="40.55848744297032" lon="16.770357367061777"><ele>156.66666666666666</ele><time>2026-05-01T12:44:13Z</time></trkpt><trkpt lat="40.558359695686065" lon="16.77050016715989"><ele>155.33333333333334</ele><time>2026-05-01T12:44:14Z</time></trkpt><trkpt lat="40.558245090897564" lon="16.770630528616298"><ele>154.0</ele><time>2026-05-01T12:44:15Z</time></trkpt><trkpt lat="40.55814353058813" lon="16.770766851216422"><ele>154.0</ele><time>2026-05-01T12:44:16Z</time></trkpt><trkpt lat="40.55804752995984" lon="16.770919639164127"><ele>154.0</ele><time>2026-05-01T12:44:17Z</time></trkpt><trkpt lat="40.55795461156626" lon="16.771110395694418"><ele>154.0</ele><time>2026-05-01T12:44:18Z</time></trkpt><trkpt lat="40.557866777712874" lon="16.7713131162952"><ele>152.66666666666669</ele><time>2026-05-01T12:44:19Z</time></trkpt><trkpt lat="40.55778309177461" lon="16.771520011716593"><ele>151.33333333333334</ele><time>2026-05-01T12:44:20Z</time></trkpt><trkpt lat="40.55771604472333" lon="16.77173545317877"><ele>150.0</ele><time>2026-05-01T12:44:21Z</time></trkpt><trkpt lat="40.557636817537805" lon="16.77188495714222"><ele>149.0</ele><time>2026-05-01T12:44:22Z</time></trkpt><trkpt lat="40.557535676842335" lon="16.772073696701874"><ele>148.0</ele><time>2026-05-01T12:44:23Z</time></trkpt><trkpt lat="40.557418396110954" lon="16.772263897152776"><ele>147.0</ele><time>2026-05-01T12:44:24Z</time></trkpt><trkpt lat="40.557290599189834" lon="16.772455233553476"><ele>147.0</ele><time>2026-05-01T12:44:25Z</time></trkpt><trkpt lat="40.55717510856956" lon="16.772623458858654"><ele>147.0</ele><time>2026-05-01T12:44:26Z</time></trkpt><trkpt lat="40.55706428084015" lon="16.77278352589764"><ele>147.0</ele><time>2026-05-01T12:44:27Z</time></trkpt><trkpt lat="40.55693324158434" lon="16.77296973518897"><ele>144.33333333333334</ele><time>2026-05-01T12:44:28Z</time></trkpt><trkpt lat="40.55680628164644" lon="16.77313456877909"><ele>141.66666666666669</ele><time>2026-05-01T12:44:29Z</time></trkpt><trkpt lat="40.556667227878776" lon="16.773290289770824"><ele>139.0</ele><time>2026-05-01T12:44:30Z</time></trkpt><trkpt lat="40.556523705698496" lon="16.77344444320877"><ele>137.66666666666669</ele><time>2026-05-01T12:44:31Z</time></trkpt><trkpt lat="40.556432621834894" lon="16.773574221762466"><ele>136.33333333333334</ele><time>2026-05-01T12:44:32Z</time></trkpt><trkpt lat="40.556309468367374" lon="16.773745186347632"><ele>135.0</ele><time>2026-05-01T12:44:33Z</time></trkpt><trkpt lat="40.55621288570888" lon="16.77396740647784"><ele>134.66666666666666</ele><time>2026-05-01T12:44:34Z</time></trkpt><trkpt lat="40.55614463900801" lon="16.774189308031495"><ele>134.33333333333331</ele><time>2026-05-01T12:44:35Z</time></trkpt><trkpt lat="40.556056029143605" lon="16.77435159023435"><ele>134.0</ele><time>2026-05-01T12:44:36Z</time></trkpt><trkpt lat="40.55596139857017" lon="16.774492269386634"><ele>133.33333333333331</ele><time>2026-05-01T12:44:37Z</time></trkpt><trkpt lat="40.555842855907436" lon="16.77460133517566"><ele>132.66666666666666</ele><time>2026-05-01T12:44:38Z</time></trkpt><trkpt lat="40.555664806027956" lon="16.77469376805878"><ele>132.0</ele><time>2026-05-01T12:44:39Z</time></trkpt><trkpt lat="40.5554912065171" lon="16.77472216282766"><ele>131.33333333333334</ele><time>2026-05-01T12:44:40Z</time></trkpt><trkpt lat="40.5552911297993" lon="16.774695505510604"><ele>130.66666666666669</ele><time>2026-05-01T12:44:41Z</time></trkpt><trkpt lat="40.55508610124727" lon="16.774650840700346"><ele>130.0</ele><time>2026-05-01T12:44:42Z</time></trkpt><trkpt lat="40.55491298731033" lon="16.774590236091925"><ele>130.0</ele><time>2026-05-01T12:44:43Z</time></trkpt><trkpt lat="40.554750275493575" lon="16.77453059657318"><ele>130.0</ele><time>2026-05-01T12:44:44Z</time></trkpt><trkpt lat="40.554582042787295" lon="16.774483630576515"><ele>130.0</ele><time>2026-05-01T12:44:45Z</time></trkpt><trkpt lat="40.554454367947876" lon="16.774504310682637"><ele>129.66666666666669</ele><time>2026-05-01T12:44:46Z</time></trkpt><trkpt lat="40.554301486781874" lon="16.774589612318245"><ele>129.33333333333334</ele><time>2026-05-01T12:44:47Z</time></trkpt><trkpt lat="40.554126098628515" lon="16.774713555641842"><ele>129.0</ele><time>2026-05-01T12:44:48Z</time></trkpt><trkpt lat="40.55393882838996" lon="16.77486249503886"><ele>129.0</ele><time>2026-05-01T12:44:49Z</time></trkpt><trkpt lat="40.553745331360645" lon="16.77498434793717"><ele>129.0</ele><time>2026-05-01T12:44:50Z</time></trkpt><trkpt lat="40.553559823767465" lon="16.77512050806909"><ele>129.0</ele><time>2026-05-01T12:44:51Z</time></trkpt><trkpt lat="40.55337413862646" lon="16.775256798524147"><ele>129.0</ele><time>2026-05-01T12:44:52Z</time></trkpt><trkpt lat="40.553207007881646" lon="16.775379470314526"><ele>129.0</ele><time>2026-05-01T12:44:53Z</time></trkpt><trkpt lat="40.55304206541528" lon="16.775500535900235"><ele>129.0</ele><time>2026-05-01T12:44:54Z</time></trkpt><trkpt lat="40.552865582918365" lon="16.77563007197937"><ele>128.66666666666666</ele><time>2026-05-01T12:44:55Z</time></trkpt><trkpt lat="40.552679807775085" lon="16.775768118825628"><ele>128.33333333333331</ele><time>2026-05-01T12:44:56Z</time></trkpt><trkpt lat="40.552528824714024" lon="16.775880083317393"><ele>128.0</ele><time>2026-05-01T12:44:57Z</time></trkpt><trkpt lat="40.552337332127344" lon="16.776020126118432"><ele>128.0</ele><time>2026-05-01T12:44:58Z</time></trkpt><trkpt lat="40.55214526539382" lon="16.776160416051134"><ele>128.0</ele><time>2026-05-01T12:44:59Z</time></trkpt><trkpt lat="40.55196737413741" lon="16.77629131266684"><ele>128.0</ele><time>2026-05-01T12:45:00Z</time></trkpt><trkpt lat="40.551810998656826" lon="16.776406463284317"><ele>128.33333333333331</ele><time>2026-05-01T12:45:01Z</time></trkpt><trkpt lat="40.55165953114116" lon="16.77651791854558"><ele>128.66666666666666</ele><time>2026-05-01T12:45:02Z</time></trkpt><trkpt lat="40.55150907310041" lon="16.776627939179452"><ele>129.0</ele><time>2026-05-01T12:45:03Z</time></trkpt><trkpt lat="40.55135160607543" lon="16.776742798816187"><ele>128.33333333333334</ele><time>2026-05-01T12:45:04Z</time></trkpt><trkpt lat="40.55118580550535" lon="16.77686010981552"><ele>127.66666666666667</ele><time>2026-05-01T12:45:05Z</time></trkpt><trkpt lat="40.55105392973713" lon="16.777006016547954"><ele>127.0</ele><time>2026-05-01T12:45:06Z</time></trkpt><trkpt lat="40.55092318549726" lon="16.777104419001727"><ele>127.0</ele><time>2026-05-01T12:45:07Z</time></trkpt><trkpt lat="40.550788045682644" lon="16.777201204279507"><ele>127.0</ele><time>2026-05-01T12:45:08Z</time></trkpt><trkpt lat="40.55065509048296" lon="16.777299382584427"><ele>127.0</ele><time>2026-05-01T12:45:09Z</time></trkpt><trkpt lat="40.5505084192431" lon="16.777351991110702"><ele>127.0</ele><time>2026-05-01T12:45:10Z</time></trkpt><trkpt lat="40.55039521128611" lon="16.777434486159798"><ele>127.0</ele><time>2026-05-01T12:45:11Z</time></trkpt><trkpt lat="40.55028456739109" lon="16.777515060151163"><ele>127.0</ele><time>2026-05-01T12:45:12Z</time></trkpt><trkpt lat="40.550155646502034" lon="16.777608943989694"><ele>127.0</ele><time>2026-05-01T12:45:13Z</time></trkpt><trkpt lat="40.55007016174393" lon="16.777671270478706"><ele>126.5</ele><time>2026-05-01T12:45:14Z</time></trkpt><trkpt lat="40.54997063963971" lon="16.777743902356434"><ele>126.0</ele><time>2026-05-01T12:45:15Z</time></trkpt><trkpt lat="40.5498585824228" lon="16.777825682420367"><ele>125.5</ele><time>2026-05-01T12:45:16Z</time></trkpt><trkpt lat="40.54972240609279" lon="16.777925064791972"><ele>125.0</ele><time>2026-05-01T12:45:17Z</time></trkpt><trkpt lat="40.549556087727346" lon="16.778046444985968"><ele>125.0</ele><time>2026-05-01T12:45:18Z</time></trkpt><trkpt lat="40.549407305148286" lon="16.778166918573113"><ele>125.0</ele><time>2026-05-01T12:45:19Z</time></trkpt><trkpt lat="40.54927326631033" lon="16.778332727112"><ele>125.0</ele><time>2026-05-01T12:45:20Z</time></trkpt><trkpt lat="40.549135733105146" lon="16.77853929691866"><ele>124.66666666666666</ele><time>2026-05-01T12:45:21Z</time></trkpt><trkpt lat="40.54902118325624" lon="16.77877350382676"><ele>124.33333333333334</ele><time>2026-05-01T12:45:22Z</time></trkpt><trkpt lat="40.548901144027205" lon="16.77900548370441"><ele>124.0</ele><time>2026-05-01T12:45:23Z</time></trkpt><trkpt lat="40.54878012059309" lon="16.77926575044009"><ele>123.5</ele><time>2026-05-01T12:45:24Z</time></trkpt><trkpt lat="40.548653708557396" lon="16.779533431336578"><ele>123.0</ele><time>2026-05-01T12:45:25Z</time></trkpt><trkpt lat="40.548532547136226" lon="16.779793063397484"><ele>123.0</ele><time>2026-05-01T12:45:26Z</time></trkpt><trkpt lat="40.548417928620275" lon="16.78003648661557"><ele>123.0</ele><time>2026-05-01T12:45:27Z</time></trkpt><trkpt lat="40.54829704964029" lon="16.78029796697036"><ele>122.33333333333334</ele><time>2026-05-01T12:45:28Z</time></trkpt><trkpt lat="40.54817920578933" lon="16.78054994522936"><ele>121.66666666666667</ele><time>2026-05-01T12:45:29Z</time></trkpt><trkpt lat="40.54806163051543" lon="16.780801349549044"><ele>121.0</ele><time>2026-05-01T12:45:30Z</time></trkpt><trkpt lat="40.54794302388878" lon="16.781056777710035"><ele>120.66666666666667</ele><time>2026-05-01T12:45:31Z</time></trkpt><trkpt lat="40.54782817697912" lon="16.781298280992676"><ele>120.33333333333334</ele><time>2026-05-01T12:45:32Z</time></trkpt><trkpt lat="40.5477149860285" lon="16.78153721158746"><ele>120.0</ele><time>2026-05-01T12:45:33Z</time></trkpt><trkpt lat="40.54759962089623" lon="16.781780273684046"><ele>120.0</ele><time>2026-05-01T12:45:34Z</time></trkpt><trkpt lat="40.54748857378141" lon="16.782013723709092"><ele>120.0</ele><time>2026-05-01T12:45:35Z</time></trkpt><trkpt lat="40.54737994391762" lon="16.78224144877242"><ele>120.0</ele><time>2026-05-01T12:45:36Z</time></trkpt><trkpt lat="40.54727113045588" lon="16.782469309429977"><ele>119.33333333333334</ele><time>2026-05-01T12:45:37Z</time></trkpt><trkpt lat="40.547159509749356" lon="16.782703151516476"><ele>118.66666666666667</ele><time>2026-05-01T12:45:38Z</time></trkpt><trkpt lat="40.54704123076803" lon="16.78295129160522"><ele>118.0</ele><time>2026-05-01T12:45:39Z</time></trkpt><trkpt lat="40.54693098267586" lon="16.78318258428296"><ele>118.0</ele><time>2026-05-01T12:45:40Z</time></trkpt><trkpt lat="40.54680986595678" lon="16.7834366774044"><ele>118.0</ele><time>2026-05-01T12:45:41Z</time></trkpt><trkpt lat="40.54668590256594" lon="16.783696743421842"><ele>117.5</ele><time>2026-05-01T12:45:42Z</time></trkpt><trkpt lat="40.54655840755075" lon="16.78396352997623"><ele>117.0</ele><time>2026-05-01T12:45:43Z</time></trkpt><trkpt lat="40.54642749368288" lon="16.78423734208691"><ele>117.0</ele><time>2026-05-01T12:45:44Z</time></trkpt><trkpt lat="40.54630164153535" lon="16.784505793785772"><ele>117.0</ele><time>2026-05-01T12:45:45Z</time></trkpt><trkpt lat="40.546175145319765" lon="16.784773365061707"><ele>117.0</ele><time>2026-05-01T12:45:46Z</time></trkpt><trkpt lat="40.54604796494414" lon="16.785039464895025"><ele>117.0</ele><time>2026-05-01T12:45:47Z</time></trkpt><trkpt lat="40.54591829107327" lon="16.785310539304838"><ele>117.0</ele><time>2026-05-01T12:45:48Z</time></trkpt><trkpt lat="40.54579188716028" lon="16.785564218680513"><ele>117.0</ele><time>2026-05-01T12:45:49Z</time></trkpt><trkpt lat="40.54566611954606" lon="16.785795417330544"><ele>117.0</ele><time>2026-05-01T12:45:50Z</time></trkpt><trkpt lat="40.545533647117004" lon="16.786027387431865"><ele>117.0</ele><time>2026-05-01T12:45:51Z</time></trkpt><trkpt lat="40.54539060983679" lon="16.78626860015523"><ele>117.0</ele><time>2026-05-01T12:45:52Z</time></trkpt><trkpt lat="40.54523558477379" lon="16.78651259440824"><ele>116.5</ele><time>2026-05-01T12:45:53Z</time></trkpt><trkpt lat="40.545078358586075" lon="16.78675102216247"><ele>116.0</ele><time>2026-05-01T12:45:54Z</time></trkpt><trkpt lat="40.54490845206285" lon="16.786990830964754"><ele>115.5</ele><time>2026-05-01T12:45:55Z</time></trkpt><trkpt lat="40.54473069988975" lon="16.787228639557714"><ele>115.0</ele><time>2026-05-01T12:45:56Z</time></trkpt><trkpt lat="40.544550325797175" lon="16.78744967388614"><ele>114.5</ele><time>2026-05-01T12:45:57Z</time></trkpt><trkpt lat="40.54436818094696" lon="16.78766917888214"><ele>114.0</ele><time>2026-05-01T12:45:58Z</time></trkpt><trkpt lat="40.54417920971305" lon="16.787879117526234"><ele>113.5</ele><time>2026-05-01T12:45:59Z</time></trkpt><trkpt lat="40.54398223596902" lon="16.788084414555104"><ele>113.0</ele><time>2026-05-01T12:46:00Z</time></trkpt><trkpt lat="40.543797541826486" lon="16.788300904221877"><ele>113.0</ele><time>2026-05-01T12:46:01Z</time></trkpt><trkpt lat="40.54358264719977" lon="16.788484631887297"><ele>113.0</ele><time>2026-05-01T12:46:02Z</time></trkpt><trkpt lat="40.543384087791196" lon="16.788705215811664"><ele>113.0</ele><time>2026-05-01T12:46:03Z</time></trkpt><trkpt lat="40.54317274727026" lon="16.78890300041126"><ele>113.0</ele><time>2026-05-01T12:46:04Z</time></trkpt><trkpt lat="40.54296177541719" lon="16.789103415955942"><ele>112.0</ele><time>2026-05-01T12:46:05Z</time></trkpt><trkpt lat="40.5425461141431" lon="16.78951370093047"><ele>112.0</ele><time>2026-05-01T12:46:07Z</time></trkpt><trkpt lat="40.542335985398815" lon="16.78972269735811"><ele>112.0</ele><time>2026-05-01T12:46:08Z</time></trkpt><trkpt lat="40.54211478699519" lon="16.789938926729594"><ele>111.5</ele><time>2026-05-01T12:46:09Z</time></trkpt><trkpt lat="40.541895085637" lon="16.790154867125754"><ele>111.0</ele><time>2026-05-01T12:46:10Z</time></trkpt><trkpt lat="40.54167763622212" lon="16.790368106031273"><ele>111.0</ele><time>2026-05-01T12:46:11Z</time></trkpt><trkpt lat="40.54144989199438" lon="16.790590705612825"><ele>111.0</ele><time>2026-05-01T12:46:12Z</time></trkpt><trkpt lat="40.54121103043573" lon="16.790818406998888"><ele>110.5</ele><time>2026-05-01T12:46:13Z</time></trkpt><trkpt lat="40.540965073824474" lon="16.79105675362356"><ele>110.0</ele><time>2026-05-01T12:46:14Z</time></trkpt><trkpt lat="40.540718776644596" lon="16.791298576213396"><ele>110.0</ele><time>2026-05-01T12:46:15Z</time></trkpt><trkpt lat="40.54047896216044" lon="16.7915468610545"><ele>110.0</ele><time>2026-05-01T12:46:16Z</time></trkpt><trkpt lat="40.54023195268575" lon="16.791762998643442"><ele>109.5</ele><time>2026-05-01T12:46:17Z</time></trkpt><trkpt lat="40.5399969267206" lon="16.791992196784786"><ele>109.0</ele><time>2026-05-01T12:46:18Z</time></trkpt><trkpt lat="40.53977292439096" lon="16.792210645152707"><ele>108.5</ele><time>2026-05-01T12:46:19Z</time></trkpt><trkpt lat="40.53955007017697" lon="16.79242797628601"><ele>108.0</ele><time>2026-05-01T12:46:20Z</time></trkpt><trkpt lat="40.53932908517768" lon="16.7926434845337"><ele>107.5</ele><time>2026-05-01T12:46:21Z</time></trkpt><trkpt lat="40.539135281321826" lon="16.792863109585983"><ele>107.0</ele><time>2026-05-01T12:46:22Z</time></trkpt><trkpt lat="40.53895286837148" lon="16.793045313700507"><ele>107.0</ele><time>2026-05-01T12:46:23Z</time></trkpt><trkpt lat="40.53877386768783" lon="16.79322462853653"><ele>107.0</ele><time>2026-05-01T12:46:24Z</time></trkpt><trkpt lat="40.53859236478901" lon="16.793400974058528"><ele>106.0</ele><time>2026-05-01T12:46:25Z</time></trkpt><trkpt lat="40.53841258608343" lon="16.793587470422768"><ele>105.0</ele><time>2026-05-01T12:46:26Z</time></trkpt><trkpt lat="40.5382308877375" lon="16.793759993832822"><ele>105.0</ele><time>2026-05-01T12:46:27Z</time></trkpt><trkpt lat="40.53805749401382" lon="16.793928124379146"><ele>105.0</ele><time>2026-05-01T12:46:28Z</time></trkpt><trkpt lat="40.53787909865938" lon="16.794111941092872"><ele>105.0</ele><time>2026-05-01T12:46:29Z</time></trkpt><trkpt lat="40.53769917131573" lon="16.79431506934581"><ele>104.5</ele><time>2026-05-01T12:46:30Z</time></trkpt><trkpt lat="40.537519602938346" lon="16.794519256027282"><ele>104.0</ele><time>2026-05-01T12:46:31Z</time></trkpt><trkpt lat="40.537339425569364" lon="16.794724341939535"><ele>104.0</ele><time>2026-05-01T12:46:32Z</time></trkpt><trkpt lat="40.53715084448911" lon="16.794939430557076"><ele>104.0</ele><time>2026-05-01T12:46:33Z</time></trkpt><trkpt lat="40.53696166399858" lon="16.795168046310657"><ele>103.0</ele><time>2026-05-01T12:46:34Z</time></trkpt><trkpt lat="40.53677639194214" lon="16.79539185619888"><ele>102.0</ele><time>2026-05-01T12:46:35Z</time></trkpt><trkpt lat="40.53658996937665" lon="16.795615200701903"><ele>102.0</ele><time>2026-05-01T12:46:36Z</time></trkpt><trkpt lat="40.53639595020212" lon="16.79584503761865"><ele>102.0</ele><time>2026-05-01T12:46:37Z</time></trkpt><trkpt lat="40.536206589318695" lon="16.796071490363413"><ele>101.5</ele><time>2026-05-01T12:46:38Z</time></trkpt><trkpt lat="40.5360146480406" lon="16.79630440646073"><ele>101.0</ele><time>2026-05-01T12:46:39Z</time></trkpt><trkpt lat="40.53581939038215" lon="16.796535108676952"><ele>101.0</ele><time>2026-05-01T12:46:40Z</time></trkpt><trkpt lat="40.53562539323454" lon="16.79676370868469"><ele>101.0</ele><time>2026-05-01T12:46:41Z</time></trkpt><trkpt lat="40.535433129616386" lon="16.796991308542744"><ele>99.5</ele><time>2026-05-01T12:46:42Z</time></trkpt><trkpt lat="40.5352428998733" lon="16.797224930353234"><ele>98.0</ele><time>2026-05-01T12:46:43Z</time></trkpt><trkpt lat="40.53505753166458" lon="16.797450756060876"><ele>98.5</ele><time>2026-05-01T12:46:44Z</time></trkpt><trkpt lat="40.53487227059971" lon="16.797673415662164"><ele>99.0</ele><time>2026-05-01T12:46:45Z</time></trkpt><trkpt lat="40.534683910515525" lon="16.797893547858816"><ele>99.0</ele><time>2026-05-01T12:46:46Z</time></trkpt><trkpt lat="40.534495425529165" lon="16.798118939147187"><ele>99.0</ele><time>2026-05-01T12:46:47Z</time></trkpt><trkpt lat="40.53430854442335" lon="16.798339793835797"><ele>99.0</ele><time>2026-05-01T12:46:48Z</time></trkpt><trkpt lat="40.53411705358578" lon="16.798566831956403"><ele>99.0</ele><time>2026-05-01T12:46:49Z</time></trkpt><trkpt lat="40.53392548365044" lon="16.7987850265535"><ele>99.0</ele><time>2026-05-01T12:46:50Z</time></trkpt><trkpt lat="40.5337313273931" lon="16.798999738052736"><ele>99.0</ele><time>2026-05-01T12:46:51Z</time></trkpt><trkpt lat="40.53352437181509" lon="16.799213257585368"><ele>99.5</ele><time>2026-05-01T12:46:52Z</time></trkpt><trkpt lat="40.53331007022889" lon="16.799423844864418"><ele>100.0</ele><time>2026-05-01T12:46:53Z</time></trkpt><trkpt lat="40.533097056237615" lon="16.7996295880881"><ele>99.0</ele><time>2026-05-01T12:46:54Z</time></trkpt><trkpt lat="40.53288620225705" lon="16.79982657256228"><ele>98.0</ele><time>2026-05-01T12:46:55Z</time></trkpt><trkpt lat="40.53266787594293" lon="16.80002294114804"><ele>98.5</ele><time>2026-05-01T12:46:56Z</time></trkpt><trkpt lat="40.5324456516376" lon="16.80021406829663"><ele>99.0</ele><time>2026-05-01T12:46:57Z</time></trkpt><trkpt lat="40.53221071600454" lon="16.800411083298606"><ele>98.5</ele><time>2026-05-01T12:46:58Z</time></trkpt><trkpt lat="40.53196470672871" lon="16.800606114033624"><ele>98.0</ele><time>2026-05-01T12:46:59Z</time></trkpt><trkpt lat="40.53171555209214" lon="16.80079150337113"><ele>98.0</ele><time>2026-05-01T12:47:00Z</time></trkpt><trkpt lat="40.53147072203611" lon="16.800967283930262"><ele>98.0</ele><time>2026-05-01T12:47:01Z</time></trkpt><trkpt lat="40.53121569548205" lon="16.80115256787984"><ele>98.5</ele><time>2026-05-01T12:47:02Z</time></trkpt><trkpt lat="40.530958977626874" lon="16.801332538728"><ele>99.0</ele><time>2026-05-01T12:47:03Z</time></trkpt><trkpt lat="40.53069840203055" lon="16.80151721091361"><ele>99.0</ele><time>2026-05-01T12:47:04Z</time></trkpt><trkpt lat="40.53044500978539" lon="16.801694163879873"><ele>99.0</ele><time>2026-05-01T12:47:05Z</time></trkpt><trkpt lat="40.53018124361789" lon="16.8018764729398"><ele>98.5</ele><time>2026-05-01T12:47:06Z</time></trkpt><trkpt lat="40.5299257536828" lon="16.802063031809592"><ele>98.0</ele><time>2026-05-01T12:47:07Z</time></trkpt><trkpt lat="40.5296690144317" lon="16.802249532486496"><ele>98.0</ele><time>2026-05-01T12:47:08Z</time></trkpt><trkpt lat="40.52941859272908" lon="16.802435448392966"><ele>98.0</ele><time>2026-05-01T12:47:09Z</time></trkpt><trkpt lat="40.529165118049335" lon="16.80261868821403"><ele>98.0</ele><time>2026-05-01T12:47:10Z</time></trkpt><trkpt lat="40.52890914578243" lon="16.802811517423724"><ele>98.0</ele><time>2026-05-01T12:47:11Z</time></trkpt><trkpt lat="40.52864792389661" lon="16.803016829581832"><ele>98.0</ele><time>2026-05-01T12:47:12Z</time></trkpt><trkpt lat="40.528394324033414" lon="16.80322702804719"><ele>98.0</ele><time>2026-05-01T12:47:13Z</time></trkpt><trkpt lat="40.528143940707494" lon="16.80343861925373"><ele>98.0</ele><time>2026-05-01T12:47:14Z</time></trkpt><trkpt lat="40.527898522815235" lon="16.803657598332855"><ele>98.0</ele><time>2026-05-01T12:47:15Z</time></trkpt><trkpt lat="40.5276605663519" lon="16.80388311157881"><ele>98.0</ele><time>2026-05-01T12:47:16Z</time></trkpt><trkpt lat="40.5274264570044" lon="16.804105176036316"><ele>98.0</ele><time>2026-05-01T12:47:17Z</time></trkpt><trkpt lat="40.52721861789868" lon="16.8043144339831"><ele>97.5</ele><time>2026-05-01T12:47:18Z</time></trkpt><trkpt lat="40.527020456133954" lon="16.804514461525294"><ele>97.0</ele><time>2026-05-01T12:47:19Z</time></trkpt><trkpt lat="40.52683354271561" lon="16.80470266806827"><ele>97.0</ele><time>2026-05-01T12:47:20Z</time></trkpt><trkpt lat="40.5266589691894" lon="16.804887780015264"><ele>97.0</ele><time>2026-05-01T12:47:21Z</time></trkpt><trkpt lat="40.526495543096864" lon="16.80506500702539"><ele>97.0</ele><time>2026-05-01T12:47:22Z</time></trkpt><trkpt lat="40.5263289931365" lon="16.805261477067965"><ele>97.5</ele><time>2026-05-01T12:47:23Z</time></trkpt><trkpt lat="40.52615905095835" lon="16.805482544456403"><ele>98.0</ele><time>2026-05-01T12:47:24Z</time></trkpt><trkpt lat="40.5259976264506" lon="16.80572686328929"><ele>98.0</ele><time>2026-05-01T12:47:25Z</time></trkpt><trkpt lat="40.525843943518545" lon="16.805978531583463"><ele>98.0</ele><time>2026-05-01T12:47:26Z</time></trkpt><trkpt lat="40.52569932861463" lon="16.80621869042097"><ele>97.0</ele><time>2026-05-01T12:47:27Z</time></trkpt><trkpt lat="40.52555279475902" lon="16.806466174256094"><ele>96.0</ele><time>2026-05-01T12:47:28Z</time></trkpt><trkpt lat="40.525412054924466" lon="16.80672385359638"><ele>95.0</ele><time>2026-05-01T12:47:29Z</time></trkpt><trkpt lat="40.52525993402258" lon="16.80695661193217"><ele>94.0</ele><time>2026-05-01T12:47:30Z</time></trkpt><trkpt lat="40.5251036451852" lon="16.807195610639482"><ele>94.0</ele><time>2026-05-01T12:47:31Z</time></trkpt><trkpt lat="40.524929411970795" lon="16.80743398323374"><ele>94.0</ele><time>2026-05-01T12:47:32Z</time></trkpt><trkpt lat="40.52473985675328" lon="16.807664142865363"><ele>94.0</ele><time>2026-05-01T12:47:33Z</time></trkpt><trkpt lat="40.52453987079852" lon="16.807882232025335"><ele>94.0</ele><time>2026-05-01T12:47:34Z</time></trkpt><trkpt lat="40.52432561999251" lon="16.80809527479259"><ele>94.0</ele><time>2026-05-01T12:47:35Z</time></trkpt><trkpt lat="40.52409578667202" lon="16.80829219936785"><ele>94.0</ele><time>2026-05-01T12:47:36Z</time></trkpt><trkpt lat="40.523847423330125" lon="16.808476934064334"><ele>94.5</ele><time>2026-05-01T12:47:37Z</time></trkpt><trkpt lat="40.52358715274375" lon="16.808645576371497"><ele>95.0</ele><time>2026-05-01T12:47:38Z</time></trkpt><trkpt lat="40.52332045666027" lon="16.808792334446807"><ele>95.0</ele><time>2026-05-01T12:47:39Z</time></trkpt><trkpt lat="40.52306584581194" lon="16.808929039648707"><ele>95.0</ele><time>2026-05-01T12:47:40Z</time></trkpt><trkpt lat="40.52282936387254" lon="16.80908647935787"><ele>95.0</ele><time>2026-05-01T12:47:41Z</time></trkpt><trkpt lat="40.52258655123786" lon="16.809258789628906"><ele>95.0</ele><time>2026-05-01T12:47:42Z</time></trkpt><trkpt lat="40.522342507350565" lon="16.809460387502263"><ele>95.0</ele><time>2026-05-01T12:47:43Z</time></trkpt><trkpt lat="40.52209849354785" lon="16.809679969814734"><ele>95.0</ele><time>2026-05-01T12:47:44Z</time></trkpt><trkpt lat="40.52186719258987" lon="16.809909934681187"><ele>94.5</ele><time>2026-05-01T12:47:45Z</time></trkpt><trkpt lat="40.52164118551468" lon="16.810145136198155"><ele>94.0</ele><time>2026-05-01T12:47:46Z</time></trkpt><trkpt lat="40.521407849163964" lon="16.81037334571539"><ele>93.0</ele><time>2026-05-01T12:47:47Z</time></trkpt><trkpt lat="40.521179001076916" lon="16.81061207009207"><ele>92.0</ele><time>2026-05-01T12:47:48Z</time></trkpt><trkpt lat="40.520972708595686" lon="16.810856827923125"><ele>92.0</ele><time>2026-05-01T12:47:49Z</time></trkpt><trkpt lat="40.52075411507475" lon="16.811085698954855"><ele>92.0</ele><time>2026-05-01T12:47:50Z</time></trkpt><trkpt lat="40.52053887650607" lon="16.811314941306364"><ele>91.5</ele><time>2026-05-01T12:47:51Z</time></trkpt><trkpt lat="40.520313038956296" lon="16.811526061215293"><ele>91.0</ele><time>2026-05-01T12:47:52Z</time></trkpt><trkpt lat="40.520113064586205" lon="16.811763000852324"><ele>91.0</ele><time>2026-05-01T12:47:53Z</time></trkpt><trkpt lat="40.51989634330317" lon="16.81196255142509"><ele>91.0</ele><time>2026-05-01T12:47:54Z</time></trkpt><trkpt lat="40.519699280851846" lon="16.812166787641022"><ele>90.5</ele><time>2026-05-01T12:47:55Z</time></trkpt><trkpt lat="40.5194973038017" lon="16.812369382225565"><ele>90.0</ele><time>2026-05-01T12:47:56Z</time></trkpt><trkpt lat="40.51929727085828" lon="16.812594886298488"><ele>89.5</ele><time>2026-05-01T12:47:57Z</time></trkpt><trkpt lat="40.51908094640184" lon="16.81279535498148"><ele>89.0</ele><time>2026-05-01T12:47:58Z</time></trkpt><trkpt lat="40.51886857510286" lon="16.8129812336849"><ele>88.0</ele><time>2026-05-01T12:47:59Z</time></trkpt><trkpt lat="40.51867924511752" lon="16.813160540070037"><ele>87.0</ele><time>2026-05-01T12:48:00Z</time></trkpt><trkpt lat="40.51844466703405" lon="16.813347678593022"><ele>87.5</ele><time>2026-05-01T12:48:01Z</time></trkpt><trkpt lat="40.518224609728854" lon="16.813525812403242"><ele>88.0</ele><time>2026-05-01T12:48:02Z</time></trkpt><trkpt lat="40.518009118259585" lon="16.8137027921818"><ele>87.5</ele><time>2026-05-01T12:48:03Z</time></trkpt><trkpt lat="40.51779205554069" lon="16.813872800265347"><ele>87.0</ele><time>2026-05-01T12:48:04Z</time></trkpt><trkpt lat="40.51756857281685" lon="16.81403755085223"><ele>87.0</ele><time>2026-05-01T12:48:05Z</time></trkpt><trkpt lat="40.517335909952145" lon="16.81420488266021"><ele>87.0</ele><time>2026-05-01T12:48:06Z</time></trkpt><trkpt lat="40.51710440152605" lon="16.81436714629011"><ele>86.5</ele><time>2026-05-01T12:48:07Z</time></trkpt><trkpt lat="40.51687033609911" lon="16.814534571898538"><ele>86.0</ele><time>2026-05-01T12:48:08Z</time></trkpt><trkpt lat="40.51663036730762" lon="16.814702065073597"><ele>86.0</ele><time>2026-05-01T12:48:09Z</time></trkpt><trkpt lat="40.51639118355311" lon="16.814872445686028"><ele>86.0</ele><time>2026-05-01T12:48:10Z</time></trkpt><trkpt lat="40.51616515073688" lon="16.815031550471844"><ele>86.5</ele><time>2026-05-01T12:48:11Z</time></trkpt><trkpt lat="40.51594069235524" lon="16.81519267357181"><ele>87.0</ele><time>2026-05-01T12:48:12Z</time></trkpt><trkpt lat="40.51571714654293" lon="16.815349967190297"><ele>87.0</ele><time>2026-05-01T12:48:13Z</time></trkpt><trkpt lat="40.51548578450876" lon="16.81551361388633"><ele>87.0</ele><time>2026-05-01T12:48:14Z</time></trkpt><trkpt lat="40.515264700807855" lon="16.81567124796894"><ele>87.0</ele><time>2026-05-01T12:48:15Z</time></trkpt><trkpt lat="40.51505076272985" lon="16.815827425581723"><ele>87.0</ele><time>2026-05-01T12:48:16Z</time></trkpt><trkpt lat="40.51483365386265" lon="16.815985286639776"><ele>87.5</ele><time>2026-05-01T12:48:17Z</time></trkpt><trkpt lat="40.514612634250355" lon="16.81614151872892"><ele>88.0</ele><time>2026-05-01T12:48:18Z</time></trkpt><trkpt lat="40.51439641856297" lon="16.81629771022665"><ele>88.0</ele><time>2026-05-01T12:48:19Z</time></trkpt><trkpt lat="40.51417378763229" lon="16.816437828408887"><ele>88.0</ele><time>2026-05-01T12:48:20Z</time></trkpt><trkpt lat="40.5139597531137" lon="16.816611609365754"><ele>88.0</ele><time>2026-05-01T12:48:21Z</time></trkpt><trkpt lat="40.51372396287328" lon="16.816758316238403"><ele>88.0</ele><time>2026-05-01T12:48:22Z</time></trkpt><trkpt lat="40.51351563155297" lon="16.816920279985744"><ele>88.0</ele><time>2026-05-01T12:48:23Z</time></trkpt><trkpt lat="40.513299244719384" lon="16.81707734234413"><ele>88.0</ele><time>2026-05-01T12:48:24Z</time></trkpt><trkpt lat="40.513096804420144" lon="16.81722293966629"><ele>88.5</ele><time>2026-05-01T12:48:25Z</time></trkpt><trkpt lat="40.51287315449928" lon="16.817380558888942"><ele>89.0</ele><time>2026-05-01T12:48:26Z</time></trkpt><trkpt lat="40.51266029943502" lon="16.817531557828694"><ele>89.5</ele><time>2026-05-01T12:48:27Z</time></trkpt><trkpt lat="40.512446261513055" lon="16.817690391856605"><ele>90.0</ele><time>2026-05-01T12:48:28Z</time></trkpt><trkpt lat="40.51222359462251" lon="16.817846844705027"><ele>90.5</ele><time>2026-05-01T12:48:29Z</time></trkpt><trkpt lat="40.51201467298828" lon="16.81799875884275"><ele>91.0</ele><time>2026-05-01T12:48:30Z</time></trkpt><trkpt lat="40.5118065776357" lon="16.81814428547424"><ele>91.0</ele><time>2026-05-01T12:48:31Z</time></trkpt><trkpt lat="40.51159683784076" lon="16.818292068686695"><ele>91.0</ele><time>2026-05-01T12:48:32Z</time></trkpt><trkpt lat="40.51138815331095" lon="16.81843873169978"><ele>89.5</ele><time>2026-05-01T12:48:33Z</time></trkpt><trkpt lat="40.51118646215404" lon="16.81857761080842"><ele>88.0</ele><time>2026-05-01T12:48:34Z</time></trkpt><trkpt lat="40.51098721434933" lon="16.8187181229697"><ele>88.0</ele><time>2026-05-01T12:48:35Z</time></trkpt><trkpt lat="40.51079188960561" lon="16.81885617543076"><ele>88.0</ele><time>2026-05-01T12:48:36Z</time></trkpt><trkpt lat="40.51060391621251" lon="16.81899174454118"><ele>88.0</ele><time>2026-05-01T12:48:37Z</time></trkpt><trkpt lat="40.51040811440766" lon="16.819127637380358"><ele>87.0</ele><time>2026-05-01T12:48:38Z</time></trkpt><trkpt lat="40.510205557269366" lon="16.81927278506997"><ele>86.0</ele><time>2026-05-01T12:48:39Z</time></trkpt><trkpt lat="40.51001130022367" lon="16.819414733032914"><ele>86.0</ele><time>2026-05-01T12:48:40Z</time></trkpt><trkpt lat="40.50981517870813" lon="16.819555050641185"><ele>86.0</ele><time>2026-05-01T12:48:41Z</time></trkpt><trkpt lat="40.509608557600615" lon="16.81970546421439"><ele>85.0</ele><time>2026-05-01T12:48:42Z</time></trkpt><trkpt lat="40.50939758686671" lon="16.81985697751563"><ele>84.0</ele><time>2026-05-01T12:48:43Z</time></trkpt><trkpt lat="40.509181459157475" lon="16.820009239109243"><ele>83.0</ele><time>2026-05-01T12:48:44Z</time></trkpt><trkpt lat="40.50896782592173" lon="16.82016301119317"><ele>82.0</ele><time>2026-05-01T12:48:45Z</time></trkpt><trkpt lat="40.50874367396755" lon="16.820322374164537"><ele>81.5</ele><time>2026-05-01T12:48:46Z</time></trkpt><trkpt lat="40.50852875710114" lon="16.820484201534082"><ele>81.0</ele><time>2026-05-01T12:48:47Z</time></trkpt><trkpt lat="40.50831227097689" lon="16.820631980749223"><ele>81.0</ele><time>2026-05-01T12:48:48Z</time></trkpt><trkpt lat="40.508099340002154" lon="16.82077795282912"><ele>81.0</ele><time>2026-05-01T12:48:49Z</time></trkpt><trkpt lat="40.50788871804448" lon="16.820927368342158"><ele>80.0</ele><time>2026-05-01T12:48:50Z</time></trkpt><trkpt lat="40.50768386160602" lon="16.82107004267947"><ele>79.0</ele><time>2026-05-01T12:48:51Z</time></trkpt><trkpt lat="40.507472128653816" lon="16.821225852184185"><ele>79.0</ele><time>2026-05-01T12:48:52Z</time></trkpt><trkpt lat="40.50724373768909" lon="16.821395727444294"><ele>79.0</ele><time>2026-05-01T12:48:53Z</time></trkpt><trkpt lat="40.50698888457001" lon="16.821582516292935"><ele>79.0</ele><time>2026-05-01T12:48:54Z</time></trkpt><trkpt lat="40.50671456200471" lon="16.821783601158284"><ele>79.0</ele><time>2026-05-01T12:48:55Z</time></trkpt><trkpt lat="40.50642557037579" lon="16.82198169172813"><ele>77.5</ele><time>2026-05-01T12:48:56Z</time></trkpt><trkpt lat="40.50611650701227" lon="16.822191314298312"><ele>76.0</ele><time>2026-05-01T12:48:57Z</time></trkpt><trkpt lat="40.50579432714059" lon="16.82237911671687"><ele>74.5</ele><time>2026-05-01T12:48:58Z</time></trkpt><trkpt lat="40.505471647658325" lon="16.822652851631382"><ele>73.0</ele><time>2026-05-01T12:48:59Z</time></trkpt><trkpt lat="40.50512834973022" lon="16.82290045697091"><ele>73.0</ele><time>2026-05-01T12:49:00Z</time></trkpt><trkpt lat="40.50476896314425" lon="16.82316006348788"><ele>73.0</ele><time>2026-05-01T12:49:01Z</time></trkpt><trkpt lat="40.50441022981012" lon="16.823419757511765"><ele>73.0</ele><time>2026-05-01T12:49:02Z</time></trkpt><trkpt lat="40.50406344350198" lon="16.823664044624916"><ele>73.0</ele><time>2026-05-01T12:49:03Z</time></trkpt><trkpt lat="40.50371819827795" lon="16.82390744569946"><ele>73.0</ele><time>2026-05-01T12:49:04Z</time></trkpt><trkpt lat="40.50337259173924" lon="16.82415388682632"><ele>73.0</ele><time>2026-05-01T12:49:05Z</time></trkpt><trkpt lat="40.50301997476777" lon="16.824404833402458"><ele>71.5</ele><time>2026-05-01T12:49:06Z</time></trkpt><trkpt lat="40.50265441727906" lon="16.824659495757647"><ele>70.0</ele><time>2026-05-01T12:49:07Z</time></trkpt><trkpt lat="40.50228418942192" lon="16.82491867089906"><ele>68.5</ele><time>2026-05-01T12:49:08Z</time></trkpt><trkpt lat="40.501920579829786" lon="16.82517550457065"><ele>67.0</ele><time>2026-05-01T12:49:09Z</time></trkpt><trkpt lat="40.50155852097685" lon="16.825450438437517"><ele>66.0</ele><time>2026-05-01T12:49:10Z</time></trkpt><trkpt lat="40.50121125500847" lon="16.825693394913362"><ele>65.0</ele><time>2026-05-01T12:49:11Z</time></trkpt><trkpt lat="40.50086609629043" lon="16.82594432265279"><ele>64.0</ele><time>2026-05-01T12:49:12Z</time></trkpt><trkpt lat="40.500517216303514" lon="16.82619931017346"><ele>63.0</ele><time>2026-05-01T12:49:13Z</time></trkpt><trkpt lat="40.50014824046289" lon="16.82645323787615"><ele>62.5</ele><time>2026-05-01T12:49:14Z</time></trkpt><trkpt lat="40.4997907264312" lon="16.826715090254204"><ele>62.0</ele><time>2026-05-01T12:49:15Z</time></trkpt><trkpt lat="40.4994565288836" lon="16.82695327921188"><ele>61.0</ele><time>2026-05-01T12:49:16Z</time></trkpt><trkpt lat="40.499153581565835" lon="16.82716682144811"><ele>60.0</ele><time>2026-05-01T12:49:17Z</time></trkpt><trkpt lat="40.4988731905953" lon="16.82738129762374"><ele>60.0</ele><time>2026-05-01T12:49:18Z</time></trkpt><trkpt lat="40.498590470228585" lon="16.827577759048815"><ele>60.0</ele><time>2026-05-01T12:49:19Z</time></trkpt><trkpt lat="40.49832222700112" lon="16.82777578921253"><ele>60.0</ele><time>2026-05-01T12:49:20Z</time></trkpt><trkpt lat="40.49806747430244" lon="16.827958697000398"><ele>60.0</ele><time>2026-05-01T12:49:21Z</time></trkpt><trkpt lat="40.49782171029514" lon="16.82813396511472"><ele>60.0</ele><time>2026-05-01T12:49:22Z</time></trkpt><trkpt lat="40.49757702302846" lon="16.8283034702612"><ele>60.0</ele><time>2026-05-01T12:49:23Z</time></trkpt><trkpt lat="40.49732994425914" lon="16.82845197422123"><ele>59.5</ele><time>2026-05-01T12:49:24Z</time></trkpt><trkpt lat="40.49709044376626" lon="16.82865404930018"><ele>59.0</ele><time>2026-05-01T12:49:25Z</time></trkpt><trkpt lat="40.496848307129916" lon="16.828831134252038"><ele>58.0</ele><time>2026-05-01T12:49:26Z</time></trkpt><trkpt lat="40.49660880668153" lon="16.82900833677457"><ele>57.0</ele><time>2026-05-01T12:49:27Z</time></trkpt><trkpt lat="40.49636774447567" lon="16.829171841244772"><ele>56.0</ele><time>2026-05-01T12:49:28Z</time></trkpt><trkpt lat="40.496138352110705" lon="16.829340562543464"><ele>55.0</ele><time>2026-05-01T12:49:29Z</time></trkpt><trkpt lat="40.49589371303912" lon="16.8295081351253"><ele>55.0</ele><time>2026-05-01T12:49:30Z</time></trkpt><trkpt lat="40.49565535806283" lon="16.82967859660392"><ele>55.0</ele><time>2026-05-01T12:49:31Z</time></trkpt><trkpt lat="40.495421151472954" lon="16.829843081829363"><ele>53.5</ele><time>2026-05-01T12:49:32Z</time></trkpt><trkpt lat="40.49517827703848" lon="16.830015446098095"><ele>52.0</ele><time>2026-05-01T12:49:33Z</time></trkpt><trkpt lat="40.49493413794109" lon="16.830188570793492"><ele>52.0</ele><time>2026-05-01T12:49:34Z</time></trkpt><trkpt lat="40.49469193492852" lon="16.830361743425623"><ele>52.0</ele><time>2026-05-01T12:49:35Z</time></trkpt><trkpt lat="40.49444917570886" lon="16.83053943276138"><ele>51.5</ele><time>2026-05-01T12:49:36Z</time></trkpt><trkpt lat="40.494222838061276" lon="16.830711081823626"><ele>51.0</ele><time>2026-05-01T12:49:37Z</time></trkpt><trkpt lat="40.49399028958508" lon="16.830878511720144"><ele>50.0</ele><time>2026-05-01T12:49:38Z</time></trkpt><trkpt lat="40.49374196276199" lon="16.831031576218646"><ele>49.0</ele><time>2026-05-01T12:49:39Z</time></trkpt><trkpt lat="40.493525439918095" lon="16.831203958978783"><ele>49.0</ele><time>2026-05-01T12:49:40Z</time></trkpt><trkpt lat="40.49329673801468" lon="16.83136612274241"><ele>49.0</ele><time>2026-05-01T12:49:41Z</time></trkpt><trkpt lat="40.4930676843513" lon="16.83153254978436"><ele>49.5</ele><time>2026-05-01T12:49:42Z</time></trkpt><trkpt lat="40.49283339376094" lon="16.83170037981405"><ele>50.0</ele><time>2026-05-01T12:49:43Z</time></trkpt><trkpt lat="40.49258950668344" lon="16.83187233510532"><ele>49.0</ele><time>2026-05-01T12:49:44Z</time></trkpt><trkpt lat="40.492351501700256" lon="16.8320472120935"><ele>48.0</ele><time>2026-05-01T12:49:45Z</time></trkpt><trkpt lat="40.49210872505032" lon="16.83221898801611"><ele>47.5</ele><time>2026-05-01T12:49:46Z</time></trkpt><trkpt lat="40.49186320383352" lon="16.83239697460289"><ele>47.0</ele><time>2026-05-01T12:49:47Z</time></trkpt><trkpt lat="40.49162204778458" lon="16.832568493373014"><ele>46.0</ele><time>2026-05-01T12:49:48Z</time></trkpt><trkpt lat="40.491375400348716" lon="16.832740520928052"><ele>45.0</ele><time>2026-05-01T12:49:49Z</time></trkpt><trkpt lat="40.491106767603384" lon="16.832928828794365"><ele>45.0</ele><time>2026-05-01T12:49:50Z</time></trkpt><trkpt lat="40.490827443830156" lon="16.833135901127342"><ele>45.0</ele><time>2026-05-01T12:49:51Z</time></trkpt><trkpt lat="40.49052151085692" lon="16.83335526935332"><ele>45.0</ele><time>2026-05-01T12:49:52Z</time></trkpt><trkpt lat="40.49019805135063" lon="16.8335887888068"><ele>45.0</ele><time>2026-05-01T12:49:53Z</time></trkpt><trkpt lat="40.48988194823026" lon="16.83382037105949"><ele>45.5</ele><time>2026-05-01T12:49:54Z</time></trkpt><trkpt lat="40.48956580755028" lon="16.834046134229325"><ele>46.0</ele><time>2026-05-01T12:49:55Z</time></trkpt><trkpt lat="40.48924345831748" lon="16.83427685960917"><ele>46.0</ele><time>2026-05-01T12:49:56Z</time></trkpt><trkpt lat="40.48891829129172" lon="16.834513025763545"><ele>46.0</ele><time>2026-05-01T12:49:57Z</time></trkpt><trkpt lat="40.48859887818421" lon="16.834756321218848"><ele>46.0</ele><time>2026-05-01T12:49:58Z</time></trkpt><trkpt lat="40.48825211465269" lon="16.83500272669691"><ele>46.0</ele><time>2026-05-01T12:49:59Z</time></trkpt><trkpt lat="40.48792292203142" lon="16.835232105772707"><ele>44.5</ele><time>2026-05-01T12:50:00Z</time></trkpt><trkpt lat="40.487588878092346" lon="16.835468416933935"><ele>43.0</ele><time>2026-05-01T12:50:01Z</time></trkpt><trkpt lat="40.487253743870475" lon="16.83570874866444"><ele>42.0</ele><time>2026-05-01T12:50:02Z</time></trkpt><trkpt lat="40.48693108452809" lon="16.835939730264002"><ele>41.0</ele><time>2026-05-01T12:50:03Z</time></trkpt><trkpt lat="40.486630987459016" lon="16.836156448749062"><ele>40.0</ele><time>2026-05-01T12:50:04Z</time></trkpt><trkpt lat="40.486341654400185" lon="16.836375277015808"><ele>39.0</ele><time>2026-05-01T12:50:05Z</time></trkpt><trkpt lat="40.48605782196491" lon="16.836598434092267"><ele>38.5</ele><time>2026-05-01T12:50:06Z</time></trkpt><trkpt lat="40.485774291817876" lon="16.836827223009248"><ele>38.0</ele><time>2026-05-01T12:50:07Z</time></trkpt><trkpt lat="40.48550042905477" lon="16.837049637106713"><ele>37.5</ele><time>2026-05-01T12:50:08Z</time></trkpt><trkpt lat="40.485232444947336" lon="16.83725821874503"><ele>37.0</ele><time>2026-05-01T12:50:09Z</time></trkpt><trkpt lat="40.484989584919035" lon="16.83745862965458"><ele>38.5</ele><time>2026-05-01T12:50:10Z</time></trkpt><trkpt lat="40.4847466737176" lon="16.837675551249966"><ele>40.0</ele><time>2026-05-01T12:50:11Z</time></trkpt><trkpt lat="40.48451915600458" lon="16.837847647260855"><ele>41.0</ele><time>2026-05-01T12:50:12Z</time></trkpt><trkpt lat="40.48432969299849" lon="16.8380246202945"><ele>42.0</ele><time>2026-05-01T12:50:13Z</time></trkpt><trkpt lat="40.48412180957755" lon="16.83818798173797"><ele>42.0</ele><time>2026-05-01T12:50:14Z</time></trkpt><trkpt lat="40.483918663482996" lon="16.838359123866294"><ele>42.0</ele><time>2026-05-01T12:50:15Z</time></trkpt><trkpt lat="40.48371625051796" lon="16.838532418529663"><ele>43.0</ele><time>2026-05-01T12:50:16Z</time></trkpt><trkpt lat="40.483505787831014" lon="16.8387126033527"><ele>44.0</ele><time>2026-05-01T12:50:17Z</time></trkpt><trkpt lat="40.48329985594274" lon="16.83888890918593"><ele>44.0</ele><time>2026-05-01T12:50:18Z</time></trkpt><trkpt lat="40.483125867709134" lon="16.839131584138944"><ele>44.0</ele><time>2026-05-01T12:50:19Z</time></trkpt><trkpt lat="40.4829222818552" lon="16.839330113021145"><ele>45.5</ele><time>2026-05-01T12:50:20Z</time></trkpt><trkpt lat="40.48271450148267" lon="16.839534025597867"><ele>47.0</ele><time>2026-05-01T12:50:21Z</time></trkpt><trkpt lat="40.48251051711557" lon="16.83975343410866"><ele>47.0</ele><time>2026-05-01T12:50:22Z</time></trkpt><trkpt lat="40.482289214974436" lon="16.83997035184091"><ele>47.0</ele><time>2026-05-01T12:50:23Z</time></trkpt><trkpt lat="40.482053332768785" lon="16.840175087807143"><ele>47.0</ele><time>2026-05-01T12:50:24Z</time></trkpt><trkpt lat="40.48181537156922" lon="16.840378984519504"><ele>47.0</ele><time>2026-05-01T12:50:25Z</time></trkpt><trkpt lat="40.48158945279695" lon="16.84058960143058"><ele>47.0</ele><time>2026-05-01T12:50:26Z</time></trkpt><trkpt lat="40.48137491822496" lon="16.84080145081652"><ele>47.0</ele><time>2026-05-01T12:50:27Z</time></trkpt><trkpt lat="40.481144925886895" lon="16.841020158098658"><ele>46.5</ele><time>2026-05-01T12:50:28Z</time></trkpt><trkpt lat="40.480928984713465" lon="16.841225552027705"><ele>46.0</ele><time>2026-05-01T12:50:29Z</time></trkpt><trkpt lat="40.48071915513203" lon="16.841425643018145"><ele>46.0</ele><time>2026-05-01T12:50:30Z</time></trkpt><trkpt lat="40.48050294459941" lon="16.84162963499238"><ele>46.0</ele><time>2026-05-01T12:50:31Z</time></trkpt><trkpt lat="40.480290780566385" lon="16.841829304802317"><ele>46.0</ele><time>2026-05-01T12:50:32Z</time></trkpt><trkpt lat="40.48008249887987" lon="16.84203328400026"><ele>46.0</ele><time>2026-05-01T12:50:33Z</time></trkpt><trkpt lat="40.47987152098939" lon="16.842233473408687"><ele>46.0</ele><time>2026-05-01T12:50:34Z</time></trkpt><trkpt lat="40.47966440052201" lon="16.842433504221813"><ele>46.0</ele><time>2026-05-01T12:50:35Z</time></trkpt><trkpt lat="40.479466771406294" lon="16.84262408675096"><ele>45.5</ele><time>2026-05-01T12:50:36Z</time></trkpt><trkpt lat="40.479262959583274" lon="16.842824434795112"><ele>45.0</ele><time>2026-05-01T12:50:37Z</time></trkpt><trkpt lat="40.479063985691326" lon="16.843023050444234"><ele>45.0</ele><time>2026-05-01T12:50:38Z</time></trkpt><trkpt lat="40.47885649695381" lon="16.8432302587946"><ele>45.0</ele><time>2026-05-01T12:50:39Z</time></trkpt><trkpt lat="40.478646234569375" lon="16.8434238165572"><ele>44.5</ele><time>2026-05-01T12:50:40Z</time></trkpt><trkpt lat="40.47844729957307" lon="16.843613591488893"><ele>44.0</ele><time>2026-05-01T12:50:41Z</time></trkpt><trkpt lat="40.47824649613325" lon="16.8438007509949"><ele>44.0</ele><time>2026-05-01T12:50:42Z</time></trkpt><trkpt lat="40.478028378446815" lon="16.84401401365582"><ele>44.0</ele><time>2026-05-01T12:50:43Z</time></trkpt><trkpt lat="40.477814721254035" lon="16.844220763425984"><ele>43.0</ele><time>2026-05-01T12:50:44Z</time></trkpt><trkpt lat="40.47759778759908" lon="16.844443605169005"><ele>42.0</ele><time>2026-05-01T12:50:45Z</time></trkpt><trkpt lat="40.477382434132785" lon="16.844634700701796"><ele>42.0</ele><time>2026-05-01T12:50:46Z</time></trkpt><trkpt lat="40.477174648937506" lon="16.84483527265328"><ele>42.0</ele><time>2026-05-01T12:50:47Z</time></trkpt><trkpt lat="40.47695782609466" lon="16.845035889755653"><ele>41.5</ele><time>2026-05-01T12:50:48Z</time></trkpt><trkpt lat="40.476741650591336" lon="16.845241391294557"><ele>41.0</ele><time>2026-05-01T12:50:49Z</time></trkpt><trkpt lat="40.47653132611649" lon="16.845442995424097"><ele>41.0</ele><time>2026-05-01T12:50:50Z</time></trkpt><trkpt lat="40.47632196782951" lon="16.845673639755653"><ele>41.0</ele><time>2026-05-01T12:50:51Z</time></trkpt><trkpt lat="40.476108242688134" lon="16.845864285731604"><ele>41.0</ele><time>2026-05-01T12:50:52Z</time></trkpt><trkpt lat="40.47589903959864" lon="16.846063198012576"><ele>41.0</ele><time>2026-05-01T12:50:53Z</time></trkpt><trkpt lat="40.47568821701426" lon="16.84626510983122"><ele>41.0</ele><time>2026-05-01T12:50:54Z</time></trkpt><trkpt lat="40.47547180266599" lon="16.846477121308496"><ele>41.0</ele><time>2026-05-01T12:50:55Z</time></trkpt><trkpt lat="40.475254313607905" lon="16.846684328061244"><ele>40.0</ele><time>2026-05-01T12:50:56Z</time></trkpt><trkpt lat="40.4750426649394" lon="16.84689209640522"><ele>39.0</ele><time>2026-05-01T12:50:57Z</time></trkpt><trkpt lat="40.47482827980233" lon="16.84709822575624"><ele>39.0</ele><time>2026-05-01T12:50:58Z</time></trkpt><trkpt lat="40.47461542399504" lon="16.847297147084657"><ele>39.0</ele><time>2026-05-01T12:50:59Z</time></trkpt><trkpt lat="40.474406422524325" lon="16.847491100919655"><ele>39.0</ele><time>2026-05-01T12:51:00Z</time></trkpt><trkpt lat="40.47420738673003" lon="16.84769120238732"><ele>39.0</ele><time>2026-05-01T12:51:01Z</time></trkpt><trkpt lat="40.47400833879556" lon="16.847888989831123"><ele>39.0</ele><time>2026-05-01T12:51:02Z</time></trkpt><trkpt lat="40.473798862714425" lon="16.84809272037515"><ele>39.0</ele><time>2026-05-01T12:51:03Z</time></trkpt><trkpt lat="40.47360020061573" lon="16.848281740883152"><ele>40.0</ele><time>2026-05-01T12:51:04Z</time></trkpt><trkpt lat="40.47339576984928" lon="16.848474631782604"><ele>41.0</ele><time>2026-05-01T12:51:05Z</time></trkpt><trkpt lat="40.47319269584644" lon="16.848670787500623"><ele>41.0</ele><time>2026-05-01T12:51:06Z</time></trkpt><trkpt lat="40.47298623274822" lon="16.848869177558537"><ele>41.0</ele><time>2026-05-01T12:51:07Z</time></trkpt><trkpt lat="40.472771370117506" lon="16.849078098656225"><ele>40.0</ele><time>2026-05-01T12:51:08Z</time></trkpt><trkpt lat="40.47256262911663" lon="16.84928095194564"><ele>39.0</ele><time>2026-05-01T12:51:09Z</time></trkpt><trkpt lat="40.472336990094725" lon="16.84948392262082"><ele>39.5</ele><time>2026-05-01T12:51:10Z</time></trkpt><trkpt lat="40.47209626966816" lon="16.849670744363205"><ele>40.0</ele><time>2026-05-01T12:51:11Z</time></trkpt><trkpt lat="40.47193229234915" lon="16.849874343545217"><ele>40.0</ele><time>2026-05-01T12:51:12Z</time></trkpt><trkpt lat="40.4717389072026" lon="16.850068374740722"><ele>40.0</ele><time>2026-05-01T12:51:13Z</time></trkpt><trkpt lat="40.47154309658321" lon="16.85026132637818"><ele>39.5</ele><time>2026-05-01T12:51:14Z</time></trkpt><trkpt lat="40.47133697603499" lon="16.850467839186667"><ele>39.0</ele><time>2026-05-01T12:51:15Z</time></trkpt><trkpt lat="40.47113041248466" lon="16.850665339863443"><ele>38.5</ele><time>2026-05-01T12:51:16Z</time></trkpt><trkpt lat="40.4709290543853" lon="16.850857975965667"><ele>38.0</ele><time>2026-05-01T12:51:17Z</time></trkpt><trkpt lat="40.470725623282846" lon="16.851052171305902"><ele>38.0</ele><time>2026-05-01T12:51:18Z</time></trkpt><trkpt lat="40.470525338456135" lon="16.851237987919035"><ele>38.0</ele><time>2026-05-01T12:51:19Z</time></trkpt><trkpt lat="40.47033494482157" lon="16.851430848931173"><ele>38.0</ele><time>2026-05-01T12:51:20Z</time></trkpt><trkpt lat="40.47013147810148" lon="16.851627006982035"><ele>38.0</ele><time>2026-05-01T12:51:21Z</time></trkpt><trkpt lat="40.46992472235762" lon="16.8518145154219"><ele>37.5</ele><time>2026-05-01T12:51:22Z</time></trkpt><trkpt lat="40.469723087446546" lon="16.85199978804873"><ele>37.0</ele><time>2026-05-01T12:51:23Z</time></trkpt><trkpt lat="40.46952402717988" lon="16.852184727682353"><ele>37.0</ele><time>2026-05-01T12:51:24Z</time></trkpt><trkpt lat="40.46933423481394" lon="16.852370941492367"><ele>37.0</ele><time>2026-05-01T12:51:25Z</time></trkpt><trkpt lat="40.46914178500011" lon="16.852558098291393"><ele>35.5</ele><time>2026-05-01T12:51:26Z</time></trkpt><trkpt lat="40.46894382888802" lon="16.852746028205285"><ele>34.0</ele><time>2026-05-01T12:51:27Z</time></trkpt><trkpt lat="40.46874743929964" lon="16.852934201778126"><ele>34.0</ele><time>2026-05-01T12:51:28Z</time></trkpt><trkpt lat="40.46855363281799" lon="16.853120783444606"><ele>34.0</ele><time>2026-05-01T12:51:29Z</time></trkpt><trkpt lat="40.46834898262559" lon="16.85331568352488"><ele>33.5</ele><time>2026-05-01T12:51:30Z</time></trkpt><trkpt lat="40.46812276452004" lon="16.853501289289955"><ele>33.0</ele><time>2026-05-01T12:51:31Z</time></trkpt><trkpt lat="40.46794164607913" lon="16.8536969741304"><ele>31.5</ele><time>2026-05-01T12:51:32Z</time></trkpt><trkpt lat="40.46771958465214" lon="16.853904124774566"><ele>30.0</ele><time>2026-05-01T12:51:33Z</time></trkpt><trkpt lat="40.46750422030791" lon="16.854123899025286"><ele>29.5</ele><time>2026-05-01T12:51:34Z</time></trkpt><trkpt lat="40.46726758533259" lon="16.85434055096364"><ele>29.0</ele><time>2026-05-01T12:51:35Z</time></trkpt><trkpt lat="40.467041253382654" lon="16.85456588507705"><ele>28.0</ele><time>2026-05-01T12:51:36Z</time></trkpt><trkpt lat="40.46680290965777" lon="16.854795923243024"><ele>27.0</ele><time>2026-05-01T12:51:37Z</time></trkpt><trkpt lat="40.46655266526739" lon="16.85503666022621"><ele>27.0</ele><time>2026-05-01T12:51:38Z</time></trkpt><trkpt lat="40.46630529393764" lon="16.855272854538406"><ele>27.0</ele><time>2026-05-01T12:51:39Z</time></trkpt><trkpt lat="40.4660690434996" lon="16.85549984046638"><ele>26.5</ele><time>2026-05-01T12:51:40Z</time></trkpt><trkpt lat="40.46582678946146" lon="16.85574182689586"><ele>26.0</ele><time>2026-05-01T12:51:41Z</time></trkpt><trkpt lat="40.465575858502056" lon="16.855984719157096"><ele>25.0</ele><time>2026-05-01T12:51:42Z</time></trkpt><trkpt lat="40.46533077168341" lon="16.856226354889387"><ele>24.0</ele><time>2026-05-01T12:51:43Z</time></trkpt><trkpt lat="40.46509858383738" lon="16.85645105974578"><ele>24.0</ele><time>2026-05-01T12:51:44Z</time></trkpt><trkpt lat="40.464880701056764" lon="16.8566609216933"><ele>24.0</ele><time>2026-05-01T12:51:45Z</time></trkpt><trkpt lat="40.46467719693081" lon="16.856855661097857"><ele>22.5</ele><time>2026-05-01T12:51:46Z</time></trkpt><trkpt lat="40.46448672023742" lon="16.857048183041254"><ele>21.0</ele><time>2026-05-01T12:51:47Z</time></trkpt><trkpt lat="40.4643080572726" lon="16.857231478427163"><ele>21.0</ele><time>2026-05-01T12:51:48Z</time></trkpt><trkpt lat="40.4641186727299" lon="16.85738837381539"><ele>21.0</ele><time>2026-05-01T12:51:49Z</time></trkpt><trkpt lat="40.463945031477266" lon="16.85755488165969"><ele>21.0</ele><time>2026-05-01T12:51:50Z</time></trkpt><trkpt lat="40.4637595574484" lon="16.85773273617755"><ele>19.5</ele><time>2026-05-01T12:51:51Z</time></trkpt><trkpt lat="40.4635625129689" lon="16.857921330273744"><ele>18.0</ele><time>2026-05-01T12:51:52Z</time></trkpt><trkpt lat="40.46336007810143" lon="16.85811468281619"><ele>18.0</ele><time>2026-05-01T12:51:53Z</time></trkpt><trkpt lat="40.463145682153126" lon="16.858327221486512"><ele>18.0</ele><time>2026-05-01T12:51:54Z</time></trkpt><trkpt lat="40.46292273757368" lon="16.85853365948039"><ele>17.5</ele><time>2026-05-01T12:51:55Z</time></trkpt><trkpt lat="40.462719952365205" lon="16.858726847595538"><ele>17.0</ele><time>2026-05-01T12:51:56Z</time></trkpt><trkpt lat="40.462513923587544" lon="16.85892911755679"><ele>17.0</ele><time>2026-05-01T12:51:57Z</time></trkpt><trkpt lat="40.46229391919074" lon="16.85913169337932"><ele>17.0</ele><time>2026-05-01T12:51:58Z</time></trkpt><trkpt lat="40.462076612375704" lon="16.85933654085385"><ele>17.0</ele><time>2026-05-01T12:51:59Z</time></trkpt><trkpt lat="40.461875544285704" lon="16.8595229815502"><ele>17.0</ele><time>2026-05-01T12:52:00Z</time></trkpt><trkpt lat="40.46169012017878" lon="16.859706781213454"><ele>17.0</ele><time>2026-05-01T12:52:01Z</time></trkpt><trkpt lat="40.461498768809136" lon="16.859900064223023"><ele>17.0</ele><time>2026-05-01T12:52:02Z</time></trkpt><trkpt lat="40.46128532586704" lon="16.860091395787144"><ele>17.5</ele><time>2026-05-01T12:52:03Z</time></trkpt><trkpt lat="40.46108282611107" lon="16.860290162695453"><ele>18.0</ele><time>2026-05-01T12:52:04Z</time></trkpt><trkpt lat="40.46087998598759" lon="16.860489263701353"><ele>18.0</ele><time>2026-05-01T12:52:05Z</time></trkpt><trkpt lat="40.46066919020214" lon="16.860696173715127"><ele>18.0</ele><time>2026-05-01T12:52:06Z</time></trkpt><trkpt lat="40.46046309933452" lon="16.860896709391486"><ele>14.5</ele><time>2026-05-01T12:52:07Z</time></trkpt><trkpt lat="40.460267553675564" lon="16.861086933312155"><ele>11.0</ele><time>2026-05-01T12:52:08Z</time></trkpt><trkpt lat="40.460071995705015" lon="16.86127716920655"><ele>11.0</ele><time>2026-05-01T12:52:09Z</time></trkpt><trkpt lat="40.45986580963457" lon="16.86147671570997"><ele>11.0</ele><time>2026-05-01T12:52:10Z</time></trkpt><trkpt lat="40.45965210186803" lon="16.861682547725295"><ele>9.0</ele><time>2026-05-01T12:52:11Z</time></trkpt><trkpt lat="40.45944659099522" lon="16.861880484928314"><ele>7.0</ele><time>2026-05-01T12:52:12Z</time></trkpt><trkpt lat="40.45923587011542" lon="16.862083259195405"><ele>7.0</ele><time>2026-05-01T12:52:13Z</time></trkpt><trkpt lat="40.459026296795" lon="16.862284391888345"><ele>7.0</ele><time>2026-05-01T12:52:14Z</time></trkpt><trkpt lat="40.45881456080151" lon="16.86248760015272"><ele>6.5</ele><time>2026-05-01T12:52:15Z</time></trkpt><trkpt lat="40.458611651187816" lon="16.862682337522983"><ele>6.0</ele><time>2026-05-01T12:52:16Z</time></trkpt><trkpt lat="40.45841216820927" lon="16.862873786267716"><ele>6.0</ele><time>2026-05-01T12:52:17Z</time></trkpt><trkpt lat="40.45822219402148" lon="16.86305610919041"><ele>6.0</ele><time>2026-05-01T12:52:18Z</time></trkpt><trkpt lat="40.45803672781738" lon="16.863234105692907"><ele>6.333333333333334</ele><time>2026-05-01T12:52:19Z</time></trkpt><trkpt lat="40.457867662466036" lon="16.86342240626479"><ele>6.666666666666667</ele><time>2026-05-01T12:52:20Z</time></trkpt><trkpt lat="40.45768948169509" lon="16.863586539929454"><ele>7.0</ele><time>2026-05-01T12:52:21Z</time></trkpt><trkpt lat="40.457510809576604" lon="16.863756672404854"><ele>7.0</ele><time>2026-05-01T12:52:22Z</time></trkpt><trkpt lat="40.45735069305803" lon="16.863905772842088"><ele>7.0</ele><time>2026-05-01T12:52:23Z</time></trkpt><trkpt lat="40.457190316060164" lon="16.864069336932626"><ele>7.0</ele><time>2026-05-01T12:52:24Z</time></trkpt><trkpt lat="40.45703719682029" lon="16.864215817369164"><ele>6.333333333333334</ele><time>2026-05-01T12:52:25Z</time></trkpt><trkpt lat="40.456879957469276" lon="16.8643665195061"><ele>5.666666666666667</ele><time>2026-05-01T12:52:26Z</time></trkpt><trkpt lat="40.4567260284679" lon="16.86451004939111"><ele>5.0</ele><time>2026-05-01T12:52:27Z</time></trkpt><trkpt lat="40.45656224302578" lon="16.864663163902016"><ele>5.0</ele><time>2026-05-01T12:52:28Z</time></trkpt><trkpt lat="40.4563853447879" lon="16.864828556653304"><ele>5.0</ele><time>2026-05-01T12:52:29Z</time></trkpt><trkpt lat="40.456218824194764" lon="16.86499106501485"><ele>5.0</ele><time>2026-05-01T12:52:30Z</time></trkpt><trkpt lat="40.45606340950684" lon="16.865140607177807"><ele>5.666666666666667</ele><time>2026-05-01T12:52:31Z</time></trkpt><trkpt lat="40.45590660899913" lon="16.865288526024518"><ele>6.333333333333334</ele><time>2026-05-01T12:52:32Z</time></trkpt><trkpt lat="40.45575894081064" lon="16.865438571902583"><ele>7.0</ele><time>2026-05-01T12:52:33Z</time></trkpt><trkpt lat="40.455612075703975" lon="16.86558107188551"><ele>7.0</ele><time>2026-05-01T12:52:34Z</time></trkpt><trkpt lat="40.45547746589141" lon="16.865703663129146"><ele>7.0</ele><time>2026-05-01T12:52:35Z</time></trkpt><trkpt lat="40.455350047882305" lon="16.86583063798552"><ele>7.0</ele><time>2026-05-01T12:52:36Z</time></trkpt><trkpt lat="40.455235389004095" lon="16.865943087966834"><ele>7.500000000000001</ele><time>2026-05-01T12:52:37Z</time></trkpt><trkpt lat="40.4551725143413" lon="16.865996005179316"><ele>8.0</ele><time>2026-05-01T12:52:38Z</time></trkpt><trkpt lat="40.45509044743276" lon="16.86606893713246"><ele>8.5</ele><time>2026-05-01T12:52:39Z</time></trkpt><trkpt lat="40.45502543005372" lon="16.866133022281883"><ele>9.0</ele><time>2026-05-01T12:52:40Z</time></trkpt><trkpt lat="40.454969860040904" lon="16.866188433844105"><ele>9.5</ele><time>2026-05-01T12:52:41Z</time></trkpt><trkpt lat="40.45492090621508" lon="16.86624244014756"><ele>10.0</ele><time>2026-05-01T12:52:43Z</time></trkpt><trkpt lat="40.45484462719227" lon="16.866247683276733"><ele>10.0</ele><time>2026-05-01T12:55:43Z</time></trkpt><trkpt lat="40.45477848403963" lon="16.866321686259255"><ele>10.0</ele><time>2026-05-01T12:56:22Z</time></trkpt><trkpt lat="40.45471588218533" lon="16.866416071105114"><ele>10.0</ele><time>2026-05-01T12:56:25Z</time></trkpt><trkpt lat="40.45459835860135" lon="16.86653418623402"><ele>10.0</ele><time>2026-05-01T12:56:27Z</time></trkpt><trkpt lat="40.454533136177325" lon="16.866582542912113"><ele>10.0</ele><time>2026-05-01T12:56:28Z</time></trkpt><trkpt lat="40.45439368745875" lon="16.86672531213757"><ele>10.0</ele><time>2026-05-01T12:56:30Z</time></trkpt><trkpt lat="40.45430324839437" lon="16.866812776875612"><ele>10.0</ele><time>2026-05-01T12:56:31Z</time></trkpt><trkpt lat="40.45420348839246" lon="16.866923779610232"><ele>10.0</ele><time>2026-05-01T12:56:32Z</time></trkpt><trkpt lat="40.45412811231119" lon="16.866970898612724"><ele>10.0</ele><time>2026-05-01T12:56:33Z</time></trkpt><trkpt lat="40.45403661745403" lon="16.86704932956201"><ele>10.0</ele><time>2026-05-01T12:56:34Z</time></trkpt><trkpt lat="40.45396497212885" lon="16.867143296566162"><ele>10.0</ele><time>2026-05-01T12:56:35Z</time></trkpt><trkpt lat="40.453835123273635" lon="16.867281689663916"><ele>10.0</ele><time>2026-05-01T12:56:36Z</time></trkpt><trkpt lat="40.4537248732692" lon="16.867400939394525"><ele>10.0</ele><time>2026-05-01T12:56:37Z</time></trkpt><trkpt lat="40.453602392417146" lon="16.86749755631612"><ele>9.75</ele><time>2026-05-01T12:56:38Z</time></trkpt><trkpt lat="40.453478686417085" lon="16.867631377111103"><ele>9.5</ele><time>2026-05-01T12:56:39Z</time></trkpt><trkpt lat="40.45335803622842" lon="16.86773561855746"><ele>9.25</ele><time>2026-05-01T12:56:40Z</time></trkpt><trkpt lat="40.45324323054875" lon="16.867850907085362"><ele>9.0</ele><time>2026-05-01T12:56:41Z</time></trkpt><trkpt lat="40.45311604435502" lon="16.867974863582457"><ele>9.0</ele><time>2026-05-01T12:56:42Z</time></trkpt><trkpt lat="40.452999365308735" lon="16.86809345548204"><ele>9.0</ele><time>2026-05-01T12:56:43Z</time></trkpt><trkpt lat="40.452885422430185" lon="16.86822298118178"><ele>9.0</ele><time>2026-05-01T12:56:44Z</time></trkpt><trkpt lat="40.452743676755915" lon="16.86833711475226"><ele>7.333333333333333</ele><time>2026-05-01T12:56:45Z</time></trkpt><trkpt lat="40.452608016490515" lon="16.86846641658114"><ele>5.666666666666666</ele><time>2026-05-01T12:56:46Z</time></trkpt><trkpt lat="40.452471966934816" lon="16.868596271761742"><ele>4.0</ele><time>2026-05-01T12:56:47Z</time></trkpt><trkpt lat="40.45233000942923" lon="16.868735598768804"><ele>4.0</ele><time>2026-05-01T12:56:48Z</time></trkpt><trkpt lat="40.4521819990092" lon="16.86888086652908"><ele>4.0</ele><time>2026-05-01T12:56:49Z</time></trkpt><trkpt lat="40.45203372592261" lon="16.869024562881926"><ele>4.0</ele><time>2026-05-01T12:56:50Z</time></trkpt><trkpt lat="40.451893664736254" lon="16.869159572370513"><ele>4.0</ele><time>2026-05-01T12:56:51Z</time></trkpt><trkpt lat="40.45175536340852" lon="16.869311424276596"><ele>4.0</ele><time>2026-05-01T12:56:52Z</time></trkpt><trkpt lat="40.45160293831464" lon="16.869463169383064"><ele>4.0</ele><time>2026-05-01T12:56:53Z</time></trkpt><trkpt lat="40.451433131279" lon="16.869602577150737"><ele>3.6666666666666665</ele><time>2026-05-01T12:56:54Z</time></trkpt><trkpt lat="40.45126671417591" lon="16.869763294143283"><ele>3.333333333333333</ele><time>2026-05-01T12:56:55Z</time></trkpt><trkpt lat="40.451103479094265" lon="16.869921034389034"><ele>3.0</ele><time>2026-05-01T12:56:56Z</time></trkpt><trkpt lat="40.450943140488185" lon="16.870075975664825"><ele>3.0</ele><time>2026-05-01T12:56:57Z</time></trkpt><trkpt lat="40.450767629845615" lon="16.87024460189648"><ele>3.0</ele><time>2026-05-01T12:56:58Z</time></trkpt><trkpt lat="40.450598138099124" lon="16.87040745216897"><ele>3.0</ele><time>2026-05-01T12:56:59Z</time></trkpt><trkpt lat="40.4504432524992" lon="16.870556268656745"><ele>3.0</ele><time>2026-05-01T12:57:00Z</time></trkpt><trkpt lat="40.450294036584" lon="16.87070117347059"><ele>3.0</ele><time>2026-05-01T12:57:01Z</time></trkpt><trkpt lat="40.45016232834233" lon="16.870854620805837"><ele>3.0</ele><time>2026-05-01T12:57:02Z</time></trkpt><trkpt lat="40.45001482477485" lon="16.870998658077507"><ele>2.6666666666666665</ele><time>2026-05-01T12:57:03Z</time></trkpt><trkpt lat="40.44985916874212" lon="16.871141360707277"><ele>2.333333333333333</ele><time>2026-05-01T12:57:04Z</time></trkpt><trkpt lat="40.44970217118632" lon="16.871297700146073"><ele>2.0</ele><time>2026-05-01T12:57:05Z</time></trkpt><trkpt lat="40.4495553603362" lon="16.871441618876286"><ele>2.0</ele><time>2026-05-01T12:57:06Z</time></trkpt><trkpt lat="40.449402645973876" lon="16.871581565342364"><ele>2.0</ele><time>2026-05-01T12:57:07Z</time></trkpt><trkpt lat="40.44925285224327" lon="16.87172098343539"><ele>2.0</ele><time>2026-05-01T12:57:08Z</time></trkpt><trkpt lat="40.44909847191243" lon="16.87184543836635"><ele>2.0</ele><time>2026-05-01T12:57:09Z</time></trkpt><trkpt lat="40.44895216513275" lon="16.871983253999183"><ele>2.0</ele><time>2026-05-01T12:57:10Z</time></trkpt><trkpt lat="40.44881132721274" lon="16.872119713461554"><ele>2.0</ele><time>2026-05-01T12:57:11Z</time></trkpt><trkpt lat="40.44866736298624" lon="16.872262196838914"><ele>2.0</ele><time>2026-05-01T12:57:12Z</time></trkpt><trkpt lat="40.44851877646248" lon="16.872403311228304"><ele>2.0</ele><time>2026-05-01T12:57:13Z</time></trkpt><trkpt lat="40.44836905134252" lon="16.872545499715127"><ele>2.0</ele><time>2026-05-01T12:57:14Z</time></trkpt><trkpt lat="40.44821190370527" lon="16.872697349181216"><ele>2.0</ele><time>2026-05-01T12:57:15Z</time></trkpt><trkpt lat="40.44805706279754" lon="16.872849221894185"><ele>2.0</ele><time>2026-05-01T12:57:16Z</time></trkpt><trkpt lat="40.44791663161924" lon="16.873006892269665"><ele>2.0</ele><time>2026-05-01T12:57:17Z</time></trkpt><trkpt lat="40.44777158855892" lon="16.87314603465926"><ele>2.0</ele><time>2026-05-01T12:57:18Z</time></trkpt><trkpt lat="40.4476189259195" lon="16.873265969114655"><ele>2.0</ele><time>2026-05-01T12:57:19Z</time></trkpt><trkpt lat="40.44746305909424" lon="16.873417073803775"><ele>2.0</ele><time>2026-05-01T12:57:20Z</time></trkpt><trkpt lat="40.447300546660216" lon="16.873575271387363"><ele>2.0</ele><time>2026-05-01T12:57:21Z</time></trkpt><trkpt lat="40.44712687770706" lon="16.873740117348046"><ele>2.0</ele><time>2026-05-01T12:57:22Z</time></trkpt><trkpt lat="40.446964355996165" lon="16.873894382386965"><ele>2.0</ele><time>2026-05-01T12:57:23Z</time></trkpt><trkpt lat="40.44679591658574" lon="16.874055721831855"><ele>2.0</ele><time>2026-05-01T12:57:24Z</time></trkpt><trkpt lat="40.44661572212851" lon="16.87419614890011"><ele>2.0</ele><time>2026-05-01T12:57:25Z</time></trkpt><trkpt lat="40.446479109176586" lon="16.874373295483117"><ele>2.0</ele><time>2026-05-01T12:57:26Z</time></trkpt><trkpt lat="40.446306374155725" lon="16.874539713798196"><ele>2.0</ele><time>2026-05-01T12:57:27Z</time></trkpt><trkpt lat="40.44613861183544" lon="16.874699922272036"><ele>2.0</ele><time>2026-05-01T12:57:28Z</time></trkpt><trkpt lat="40.44598216519231" lon="16.87485677136826"><ele>2.0</ele><time>2026-05-01T12:57:29Z</time></trkpt><trkpt lat="40.44581868145333" lon="16.875014209900417"><ele>2.0</ele><time>2026-05-01T12:57:30Z</time></trkpt><trkpt lat="40.44564421306299" lon="16.875161965648637"><ele>2.0</ele><time>2026-05-01T12:57:31Z</time></trkpt><trkpt lat="40.44547227255237" lon="16.875351009940303"><ele>2.0</ele><time>2026-05-01T12:57:31.999Z</time></trkpt><trkpt lat="40.44530128514303" lon="16.875512846285257"><ele>2.333333333333333</ele><time>2026-05-01T12:57:32.999Z</time></trkpt><trkpt lat="40.44513953316033" lon="16.875667118286078"><ele>2.6666666666666665</ele><time>2026-05-01T12:57:33.999Z</time></trkpt><trkpt lat="40.444987182142846" lon="16.875798634540917"><ele>3.0</ele><time>2026-05-01T12:57:34.999Z</time></trkpt><trkpt lat="40.44481882803853" lon="16.875968737951613"><ele>3.0</ele><time>2026-05-01T12:57:35.999Z</time></trkpt><trkpt lat="40.44464914758822" lon="16.876127876414632"><ele>3.0</ele><time>2026-05-01T12:57:36.999Z</time></trkpt><trkpt lat="40.4444864055565" lon="16.876278533883823"><ele>3.0</ele><time>2026-05-01T12:57:37.999Z</time></trkpt><trkpt lat="40.4443399154974" lon="16.876428738741062"><ele>3.0</ele><time>2026-05-01T12:57:38.999Z</time></trkpt><trkpt lat="40.4441813100511" lon="16.87658197184685"><ele>3.0</ele><time>2026-05-01T12:57:39.999Z</time></trkpt><trkpt lat="40.44401511112979" lon="16.87673835066642"><ele>3.0</ele><time>2026-05-01T12:57:40.999Z</time></trkpt><trkpt lat="40.4438572768161" lon="16.87688949545228"><ele>3.333333333333333</ele><time>2026-05-01T12:57:41.999Z</time></trkpt><trkpt lat="40.4437024746799" lon="16.87703808058931"><ele>3.6666666666666665</ele><time>2026-05-01T12:57:42.999Z</time></trkpt><trkpt lat="40.4435445697548" lon="16.877188708702818"><ele>4.0</ele><time>2026-05-01T12:57:43.999Z</time></trkpt><trkpt lat="40.443378045244856" lon="16.877352309605634"><ele>4.0</ele><time>2026-05-01T12:57:44.999Z</time></trkpt><trkpt lat="40.44321663354421" lon="16.87751383383329"><ele>4.0</ele><time>2026-05-01T12:57:45.999Z</time></trkpt><trkpt lat="40.443061469892285" lon="16.87766486263853"><ele>4.0</ele><time>2026-05-01T12:57:46.999Z</time></trkpt><trkpt lat="40.44291573323844" lon="16.87777984970898"><ele>3.75</ele><time>2026-05-01T12:57:47.999Z</time></trkpt><trkpt lat="40.44279533991941" lon="16.877914137265954"><ele>3.5</ele><time>2026-05-01T12:57:48.999Z</time></trkpt><trkpt lat="40.44267616280272" lon="16.878016547635376"><ele>3.25</ele><time>2026-05-01T12:57:49.999Z</time></trkpt><trkpt lat="40.44257381366796" lon="16.878097273963377"><ele>3.0</ele><time>2026-05-01T12:57:50.999Z</time></trkpt><trkpt lat="40.44248773071266" lon="16.878204680219945"><ele>3.0</ele><time>2026-05-01T12:57:51.999Z</time></trkpt><trkpt lat="40.44240762497883" lon="16.878283862433356"><ele>3.0</ele><time>2026-05-01T12:57:52.999Z</time></trkpt><trkpt lat="40.442325571133466" lon="16.878362922792515"><ele>3.0</ele><time>2026-05-01T12:57:53.999Z</time></trkpt><trkpt lat="40.44224469863595" lon="16.8784453207926"><ele>3.0</ele><time>2026-05-01T12:57:55Z</time></trkpt><trkpt lat="40.44216570874406" lon="16.878523623265355"><ele>3.0</ele><time>2026-05-01T12:57:56Z</time></trkpt><trkpt lat="40.44209447098018" lon="16.878591657821207"><ele>3.1666666666666665</ele><time>2026-05-01T12:57:57Z</time></trkpt><trkpt lat="40.44203247655612" lon="16.87864706331908"><ele>3.333333333333333</ele><time>2026-05-01T12:57:58Z</time></trkpt><trkpt lat="40.44197596174022" lon="16.87869952852297"><ele>3.5</ele><time>2026-05-01T12:57:59Z</time></trkpt><trkpt lat="40.44188755603856" lon="16.87879073854828"><ele>3.6666666666666665</ele><time>2026-05-01T12:58:01Z</time></trkpt><trkpt lat="40.44183374035199" lon="16.878836540644134"><ele>3.833333333333333</ele><time>2026-05-01T12:58:03Z</time></trkpt><trkpt lat="40.44174855791034" lon="16.878905264469115"><ele>4.0</ele><time>2026-05-01T12:58:27Z</time></trkpt><trkpt lat="40.4416967395803" lon="16.878980930133494"><ele>4.0</ele><time>2026-05-01T12:58:28Z</time></trkpt><trkpt lat="40.44161268333536" lon="16.879052746230826"><ele>4.0</ele><time>2026-05-01T12:58:29Z</time></trkpt><trkpt lat="40.44151432629742" lon="16.879140392520263"><ele>4.0</ele><time>2026-05-01T12:58:30Z</time></trkpt><trkpt lat="40.44141790456077" lon="16.879235110337934"><ele>4.0</ele><time>2026-05-01T12:58:31Z</time></trkpt><trkpt lat="40.44131287115587" lon="16.879335939198064"><ele>4.333333333333333</ele><time>2026-05-01T12:58:32Z</time></trkpt><trkpt lat="40.44119990541515" lon="16.87944129664196"><ele>4.666666666666667</ele><time>2026-05-01T12:58:33Z</time></trkpt><trkpt lat="40.44107865782989" lon="16.87956075199341"><ele>5.0</ele><time>2026-05-01T12:58:34Z</time></trkpt><trkpt lat="40.44094302621501" lon="16.87968953656277"><ele>5.0</ele><time>2026-05-01T12:58:35Z</time></trkpt><trkpt lat="40.4408152256715" lon="16.87981755518292"><ele>5.0</ele><time>2026-05-01T12:58:36Z</time></trkpt><trkpt lat="40.44068687929909" lon="16.87994019742388"><ele>5.0</ele><time>2026-05-01T12:58:37Z</time></trkpt><trkpt lat="40.44055547824697" lon="16.880067911055484"><ele>5.666666666666667</ele><time>2026-05-01T12:58:38Z</time></trkpt><trkpt lat="40.44041338458513" lon="16.88020573556246"><ele>6.333333333333334</ele><time>2026-05-01T12:58:39Z</time></trkpt><trkpt lat="40.440257448204115" lon="16.880357250727844"><ele>7.0</ele><time>2026-05-01T12:58:40Z</time></trkpt><trkpt lat="40.44009385198338" lon="16.880514712688434"><ele>7.0</ele><time>2026-05-01T12:58:41Z</time></trkpt><trkpt lat="40.43995870100122" lon="16.880648745845583"><ele>7.0</ele><time>2026-05-01T12:58:42Z</time></trkpt><trkpt lat="40.439798090004814" lon="16.880803124251443"><ele>7.0</ele><time>2026-05-01T12:58:43Z</time></trkpt><trkpt lat="40.43963123467371" lon="16.880961273996625"><ele>7.333333333333334</ele><time>2026-05-01T12:58:44Z</time></trkpt><trkpt lat="40.4394636889739" lon="16.881121040793953"><ele>7.666666666666666</ele><time>2026-05-01T12:58:45Z</time></trkpt><trkpt lat="40.439306689547294" lon="16.881278542559134"><ele>8.0</ele><time>2026-05-01T12:58:46Z</time></trkpt><trkpt lat="40.43914998927301" lon="16.881442928338263"><ele>8.0</ele><time>2026-05-01T12:58:47Z</time></trkpt><trkpt lat="40.4389808077972" lon="16.88161584492001"><ele>8.0</ele><time>2026-05-01T12:58:48Z</time></trkpt><trkpt lat="40.438823188886225" lon="16.881764253723983"><ele>8.0</ele><time>2026-05-01T12:58:49Z</time></trkpt><trkpt lat="40.438657015698865" lon="16.881907342103077"><ele>8.0</ele><time>2026-05-01T12:58:50Z</time></trkpt><trkpt lat="40.43849295475195" lon="16.88206218007327"><ele>8.0</ele><time>2026-05-01T12:58:51Z</time></trkpt><trkpt lat="40.438344143499286" lon="16.882175466946478"><ele>8.0</ele><time>2026-05-01T12:58:52Z</time></trkpt><trkpt lat="40.43821633713971" lon="16.882297637026284"><ele>8.0</ele><time>2026-05-01T12:58:53Z</time></trkpt><trkpt lat="40.438076332906" lon="16.88245084640351"><ele>8.0</ele><time>2026-05-01T12:58:54Z</time></trkpt><trkpt lat="40.43794064684531" lon="16.88258052398006"><ele>8.0</ele><time>2026-05-01T12:58:55Z</time></trkpt><trkpt lat="40.43777013962267" lon="16.882744617667434"><ele>8.333333333333332</ele><time>2026-05-01T12:58:56Z</time></trkpt><trkpt lat="40.43762105503601" lon="16.882890497063322"><ele>8.666666666666666</ele><time>2026-05-01T12:58:57Z</time></trkpt><trkpt lat="40.437469381823895" lon="16.88303011821379"><ele>9.0</ele><time>2026-05-01T12:58:58Z</time></trkpt><trkpt lat="40.437320912229005" lon="16.883176314974488"><ele>9.0</ele><time>2026-05-01T12:58:59Z</time></trkpt><trkpt lat="40.43716360311697" lon="16.883326855586205"><ele>9.0</ele><time>2026-05-01T12:59:00Z</time></trkpt><trkpt lat="40.437016849132824" lon="16.883471803881744"><ele>9.0</ele><time>2026-05-01T12:59:01Z</time></trkpt><trkpt lat="40.43687575079669" lon="16.883608038143176"><ele>10.333333333333332</ele><time>2026-05-01T12:59:02Z</time></trkpt><trkpt lat="40.436742103663754" lon="16.88373471494196"><ele>11.666666666666666</ele><time>2026-05-01T12:59:03Z</time></trkpt><trkpt lat="40.436612625636485" lon="16.88385959000384"><ele>13.0</ele><time>2026-05-01T12:59:04Z</time></trkpt><trkpt lat="40.43646857379806" lon="16.883994885896346"><ele>13.0</ele><time>2026-05-01T12:59:05Z</time></trkpt><trkpt lat="40.43631981784849" lon="16.884140515017698"><ele>13.0</ele><time>2026-05-01T12:59:06Z</time></trkpt><trkpt lat="40.43617992947566" lon="16.884273905613853"><ele>13.0</ele><time>2026-05-01T12:59:07Z</time></trkpt><trkpt lat="40.436042045349176" lon="16.884396281520345"><ele>12.0</ele><time>2026-05-01T12:59:08Z</time></trkpt><trkpt lat="40.43590535356463" lon="16.88452699052842"><ele>11.0</ele><time>2026-05-01T12:59:09Z</time></trkpt><trkpt lat="40.43576412594515" lon="16.884647109801524"><ele>10.0</ele><time>2026-05-01T12:59:10Z</time></trkpt><trkpt lat="40.43566259777926" lon="16.88479369526619"><ele>10.0</ele><time>2026-05-01T12:59:11Z</time></trkpt><trkpt lat="40.435536044733304" lon="16.884949183826134"><ele>10.0</ele><time>2026-05-01T12:59:12Z</time></trkpt><trkpt lat="40.435374562151495" lon="16.885059795873847"><ele>10.0</ele><time>2026-05-01T12:59:13Z</time></trkpt><trkpt lat="40.435246379536224" lon="16.885186913201785"><ele>9.333333333333334</ele><time>2026-05-01T12:59:14Z</time></trkpt><trkpt lat="40.43510366592856" lon="16.885285965535594"><ele>8.666666666666666</ele><time>2026-05-01T12:59:15Z</time></trkpt><trkpt lat="40.434961497481396" lon="16.885423835458074"><ele>8.0</ele><time>2026-05-01T12:59:16Z</time></trkpt><trkpt lat="40.434840016635775" lon="16.88554164328621"><ele>8.0</ele><time>2026-05-01T12:59:17Z</time></trkpt><trkpt lat="40.43472934665534" lon="16.885666022085612"><ele>8.0</ele><time>2026-05-01T12:59:18Z</time></trkpt><trkpt lat="40.4346143654103" lon="16.8857826136929"><ele>8.0</ele><time>2026-05-01T12:59:19Z</time></trkpt><trkpt lat="40.43449715034553" lon="16.885872164883878"><ele>8.0</ele><time>2026-05-01T12:59:20Z</time></trkpt><trkpt lat="40.43441800039399" lon="16.885973439746298"><ele>8.5</ele><time>2026-05-01T12:59:21Z</time></trkpt><trkpt lat="40.43432058756763" lon="16.886040400177947"><ele>9.0</ele><time>2026-05-01T12:59:22Z</time></trkpt><trkpt lat="40.43423028411663" lon="16.886126432780536"><ele>9.5</ele><time>2026-05-01T12:59:23Z</time></trkpt><trkpt lat="40.43411525956171" lon="16.886235541135733"><ele>10.0</ele><time>2026-05-01T12:59:24Z</time></trkpt><trkpt lat="40.4340238104231" lon="16.886322286594254"><ele>10.0</ele><time>2026-05-01T12:59:25Z</time></trkpt><trkpt lat="40.43393976992943" lon="16.88644064834225"><ele>10.0</ele><time>2026-05-01T12:59:26Z</time></trkpt><trkpt lat="40.433835734816235" lon="16.88654266754132"><ele>10.0</ele><time>2026-05-01T12:59:27Z</time></trkpt><trkpt lat="40.433749170859556" lon="16.886636764072687"><ele>10.0</ele><time>2026-05-01T12:59:28Z</time></trkpt><trkpt lat="40.43366664748063" lon="16.886716951281475"><ele>9.833333333333334</ele><time>2026-05-01T12:59:28.999Z</time></trkpt><trkpt lat="40.43357159109543" lon="16.88675463307744"><ele>9.666666666666668</ele><time>2026-05-01T12:59:29.999Z</time></trkpt><trkpt lat="40.43351641000913" lon="16.886854042084373"><ele>9.5</ele><time>2026-05-01T12:59:30.999Z</time></trkpt><trkpt lat="40.433427649704385" lon="16.886911900356296"><ele>9.333333333333334</ele><time>2026-05-01T12:59:31.999Z</time></trkpt><trkpt lat="40.43337972109824" lon="16.886967625362043"><ele>9.166666666666666</ele><time>2026-05-01T12:59:32.999Z</time></trkpt><trkpt lat="40.43331964703711" lon="16.887030876205454"><ele>9.0</ele><time>2026-05-01T12:59:33.999Z</time></trkpt><trkpt lat="40.43325439411464" lon="16.887095067813902"><ele>9.0</ele><time>2026-05-01T12:59:34.999Z</time></trkpt><trkpt lat="40.43320116978251" lon="16.88714444483394"><ele>9.0</ele><time>2026-05-01T12:59:35.999Z</time></trkpt><trkpt lat="40.4330887840858" lon="16.8872234129406"><ele>9.0</ele><time>2026-05-01T12:59:37.999Z</time></trkpt><trkpt lat="40.43301944566334" lon="16.887306326251824"><ele>9.0</ele><time>2026-05-01T12:59:39.999Z</time></trkpt><trkpt lat="40.432892161716104" lon="16.88743347932469"><ele>9.0</ele><time>2026-05-01T12:59:41.999Z</time></trkpt><trkpt lat="40.432799491040825" lon="16.887497929652405"><ele>8.5</ele><time>2026-05-01T12:59:42.999Z</time></trkpt><trkpt lat="40.43272107440814" lon="16.887604057166755"><ele>8.0</ele><time>2026-05-01T12:59:43.999Z</time></trkpt><trkpt lat="40.43263332732021" lon="16.887697727245932"><ele>7.5</ele><time>2026-05-01T12:59:44.999Z</time></trkpt><trkpt lat="40.432536291780266" lon="16.88779336311384"><ele>7.0</ele><time>2026-05-01T12:59:45.999Z</time></trkpt><trkpt lat="40.43243285682595" lon="16.88788561841065"><ele>7.0</ele><time>2026-05-01T12:59:46.999Z</time></trkpt><trkpt lat="40.432331370496854" lon="16.88794799532656"><ele>6.999999999999999</ele><time>2026-05-01T12:59:47.999Z</time></trkpt><trkpt lat="40.432255776989656" lon="16.88801828420814"><ele>6.999999999999999</ele><time>2026-05-01T12:59:48.999Z</time></trkpt><trkpt lat="40.43219360973136" lon="16.888076089010678"><ele>7.0</ele><time>2026-05-01T12:59:49.999Z</time></trkpt><trkpt lat="40.432119203183156" lon="16.888145274228634"><ele>7.0</ele><time>2026-05-01T12:59:50.999Z</time></trkpt><trkpt lat="40.432022613396896" lon="16.88823508601826"><ele>7.000000000000001</ele><time>2026-05-01T12:59:51.999Z</time></trkpt><trkpt lat="40.431936540584154" lon="16.888315118852596"><ele>7.0</ele><time>2026-05-01T12:59:52.999Z</time></trkpt><trkpt lat="40.4318773130696" lon="16.888370190199435"><ele>7.0</ele><time>2026-05-01T12:59:53.999Z</time></trkpt><trkpt lat="40.43181557949743" lon="16.888427591748812"><ele>7.0</ele><time>2026-05-01T12:59:54.999Z</time></trkpt><trkpt lat="40.43175332200355" lon="16.888485480445837"><ele>7.000000000000001</ele><time>2026-05-01T12:59:55.999Z</time></trkpt><trkpt lat="40.43168955876277" lon="16.888544769233267"><ele>7.0</ele><time>2026-05-01T12:59:56.999Z</time></trkpt><trkpt lat="40.43163012852806" lon="16.888600090665793"><ele>7.000000000000001</ele><time>2026-05-01T12:59:57.999Z</time></trkpt><trkpt lat="40.43157140948284" lon="16.888654803610336"><ele>7.0</ele><time>2026-05-01T12:59:58.999Z</time></trkpt><trkpt lat="40.43150646577514" lon="16.888741230311105"><ele>7.0</ele><time>2026-05-01T13:00:01Z</time></trkpt><trkpt lat="40.431430884206726" lon="16.888792821932476"><ele>7.0</ele><time>2026-05-01T13:00:03Z</time></trkpt><trkpt lat="40.43136233370638" lon="16.888725238776317"><ele>7.000000000000001</ele><time>2026-05-01T13:00:05Z</time></trkpt><trkpt lat="40.431284065690264" lon="16.888623208092863"><ele>7.0</ele><time>2026-05-01T13:00:07Z</time></trkpt><trkpt lat="40.43121646789482" lon="16.8885474862869"><ele>6.8</ele><time>2026-05-01T13:00:08Z</time></trkpt><trkpt lat="40.43115050122869" lon="16.88846469090813"><ele>6.6</ele><time>2026-05-01T13:00:09Z</time></trkpt><trkpt lat="40.43110847231264" lon="16.888362833931243"><ele>6.3999999999999995</ele><time>2026-05-01T13:00:10Z</time></trkpt><trkpt lat="40.43100256089763" lon="16.888271551321466"><ele>6.199999999999999</ele><time>2026-05-01T13:00:12Z</time></trkpt><trkpt lat="40.43091772779662" lon="16.888181733832283"><ele>6.0</ele><time>2026-05-01T13:00:14Z</time></trkpt><trkpt lat="40.43087579602302" lon="16.888099984725546"><ele>6.0</ele><time>2026-05-01T13:00:15Z</time></trkpt><trkpt lat="40.430813708747834" lon="16.88801947822248"><ele>6.0</ele><time>2026-05-01T13:00:16Z</time></trkpt><trkpt lat="40.43076460123722" lon="16.887955802149182"><ele>6.0</ele><time>2026-05-01T13:00:17Z</time></trkpt><trkpt lat="40.43070436868292" lon="16.887877011994384"><ele>6.0</ele><time>2026-05-01T13:00:18Z</time></trkpt><trkpt lat="40.430639455437415" lon="16.887792077763507"><ele>6.0</ele><time>2026-05-01T13:00:20Z</time></trkpt><trkpt lat="40.43059118630299" lon="16.88772892114187"><ele>6.0</ele><time>2026-05-01T13:00:21Z</time></trkpt><trkpt lat="40.43052942559773" lon="16.887648111218866"><ele>5.5</ele><time>2026-05-01T13:00:22Z</time></trkpt><trkpt lat="40.430464913123735" lon="16.8875799668726"><ele>5.0</ele><time>2026-05-01T13:00:23Z</time></trkpt><trkpt lat="40.43041750539799" lon="16.887518738960335"><ele>4.5</ele><time>2026-05-01T13:00:24Z</time></trkpt><trkpt lat="40.430324574578094" lon="16.887403772911235"><ele>4.0</ele><time>2026-05-01T13:00:26Z</time></trkpt><trkpt lat="40.430258543491064" lon="16.887319982005383"><ele>3.5</ele><time>2026-05-01T13:00:28Z</time></trkpt><trkpt lat="40.43020885310167" lon="16.887243522390577"><ele>3.0</ele><time>2026-05-01T13:00:31Z</time></trkpt><trkpt lat="40.430152721600635" lon="16.88715465661764"><ele>3.0</ele><time>2026-05-01T13:00:34Z</time></trkpt><trkpt lat="40.42997784604879" lon="16.887321936200646"><ele>3.0</ele><time>2026-05-01T13:00:38Z</time></trkpt><trkpt lat="40.42992751966568" lon="16.88739665481306"><ele>3.0</ele><time>2026-05-01T13:00:39Z</time></trkpt><trkpt lat="40.42987106645804" lon="16.887461844643774"><ele>3.0</ele><time>2026-05-01T13:00:40Z</time></trkpt><trkpt lat="40.4297922290558" lon="16.887577021619393"><ele>3.4</ele><time>2026-05-01T13:00:42Z</time></trkpt><trkpt lat="40.429737562157484" lon="16.88765380617207"><ele>3.8</ele><time>2026-05-01T13:00:43Z</time></trkpt><trkpt lat="40.42968051043156" lon="16.887754363056033"><ele>4.2</ele><time>2026-05-01T13:00:44Z</time></trkpt><trkpt lat="40.42960699255113" lon="16.887832393091614"><ele>4.6</ele><time>2026-05-01T13:00:45Z</time></trkpt><trkpt lat="40.42955143023412" lon="16.88790558873628"><ele>5.0</ele><time>2026-05-01T13:00:46Z</time></trkpt><trkpt lat="40.42942963928653" lon="16.888035095822012"><ele>5.0</ele><time>2026-05-01T13:00:48Z</time></trkpt><trkpt lat="40.429356086267504" lon="16.888152530239157"><ele>5.0</ele><time>2026-05-01T13:00:50Z</time></trkpt><trkpt lat="40.429281653585775" lon="16.88825990711096"><ele>5.0</ele><time>2026-05-01T13:00:52Z</time></trkpt><trkpt lat="40.42922680177138" lon="16.888314034555922"><ele>5.0</ele><time>2026-05-01T13:00:53Z</time></trkpt><trkpt lat="40.42913858091078" lon="16.88844662629807"><ele>5.0</ele><time>2026-05-01T13:00:55Z</time></trkpt><trkpt lat="40.42905717037868" lon="16.888509486925958"><ele>5.0</ele><time>2026-05-01T13:00:56Z</time></trkpt><trkpt lat="40.42896967197289" lon="16.88862409928247"><ele>5.0</ele><time>2026-05-01T13:00:57Z</time></trkpt><trkpt lat="40.42890742072908" lon="16.888705640892304"><ele>5.0</ele><time>2026-05-01T13:00:58Z</time></trkpt><trkpt lat="40.42882498256265" lon="16.888813624951663"><ele>5.0</ele><time>2026-05-01T13:00:59Z</time></trkpt><trkpt lat="40.42876846078637" lon="16.88888717652294"><ele>5.0</ele><time>2026-05-01T13:01:00Z</time></trkpt><trkpt lat="40.428718616867656" lon="16.888951980248613"><ele>5.166666666666667</ele><time>2026-05-01T13:01:01Z</time></trkpt><trkpt lat="40.42866130402293" lon="16.889026494553104"><ele>5.333333333333334</ele><time>2026-05-01T13:01:02Z</time></trkpt><trkpt lat="40.42862481459378" lon="16.889102174673962"><ele>5.5</ele><time>2026-05-01T13:01:03Z</time></trkpt><trkpt lat="40.42855438758052" lon="16.88912616469219"><ele>5.666666666666667</ele><time>2026-05-01T13:01:04Z</time></trkpt><trkpt lat="40.428527090095024" lon="16.889200990485815"><ele>5.833333333333333</ele><time>2026-05-01T13:01:07Z</time></trkpt><trkpt lat="40.42859436165623" lon="16.8893265567474"><ele>6.0</ele><time>2026-05-01T13:01:09Z</time></trkpt><trkpt lat="40.42864544212263" lon="16.889398354124445"><ele>6.166666666666667</ele><time>2026-05-01T13:01:10Z</time></trkpt><trkpt lat="40.4286916737669" lon="16.88945583539689"><ele>6.333333333333334</ele><time>2026-05-01T13:01:11Z</time></trkpt><trkpt lat="40.4287323207217" lon="16.889532689164323"><ele>6.5</ele><time>2026-05-01T13:01:13Z</time></trkpt><trkpt lat="40.42879703060327" lon="16.889588873144465"><ele>6.666666666666667</ele><time>2026-05-01T13:01:15Z</time></trkpt><trkpt lat="40.428867617612745" lon="16.889703280881395"><ele>6.833333333333334</ele><time>2026-05-01T13:01:17Z</time></trkpt><trkpt lat="40.42892462126873" lon="16.889774368092734"><ele>7.0</ele><time>2026-05-01T13:01:19Z</time></trkpt><trkpt lat="40.42899131620025" lon="16.889790698581404"><ele>7.000000000000001</ele><time>2026-05-01T13:01:24.999Z</time></trkpt><trkpt lat="40.429061590457735" lon="16.889690309654252"><ele>7.0</ele><time>2026-05-01T13:01:25.999Z</time></trkpt><trkpt lat="40.42909563788268" lon="16.889617169442165"><ele>7.0</ele><time>2026-05-01T13:02:26Z</time></trkpt><trkpt lat="40.429155662266965" lon="16.88955524863254"><ele>7.0</ele><time>2026-05-01T13:03:02Z</time></trkpt><trkpt lat="40.429199261428394" lon="16.88962886261847"><ele>7.000000000000001</ele><time>2026-05-01T13:03:04Z</time></trkpt><trkpt lat="40.42915162016459" lon="16.88955586804021"><ele>7.0</ele><time>2026-05-01T13:03:08Z</time></trkpt><trkpt lat="40.42919943167483" lon="16.88962618869263"><ele>7.0</ele><time>2026-05-01T13:03:57.999Z</time></trkpt><trkpt lat="40.42922886456062" lon="16.889718072683724"><ele>6.999999999999999</ele><time>2026-05-01T13:04:06.999Z</time></trkpt><trkpt lat="40.42911890877085" lon="16.889512838822576"><ele>6.999999999999999</ele><time>2026-05-01T13:04:10.999Z</time></trkpt><trkpt lat="40.429057659153244" lon="16.88956559837973"><ele>7.0</ele><time>2026-05-01T13:04:11.999Z</time></trkpt><trkpt lat="40.42899045693449" lon="16.88952226787148"><ele>7.0</ele><time>2026-05-01T13:04:15Z</time></trkpt><trkpt lat="40.42901535184924" lon="16.889627602979413"><ele>7.0</ele><time>2026-05-01T13:04:16Z</time></trkpt><trkpt lat="40.42911995329646" lon="16.889671034328263"><ele>6.999999999999999</ele><time>2026-05-01T13:04:25Z</time></trkpt><trkpt lat="40.429166263211464" lon="16.889737952440726"><ele>6.999999999999999</ele><time>2026-05-01T13:04:26Z</time></trkpt><trkpt lat="40.42925782234093" lon="16.889745324569102"><ele>7.0</ele><time>2026-05-01T13:04:35Z</time></trkpt><trkpt lat="40.42930539047494" lon="16.88964904402586"><ele>7.0</ele><time>2026-05-01T13:05:10Z</time></trkpt><trkpt lat="40.42933947702688" lon="16.889527119113712"><ele>7.0</ele><time>2026-05-01T13:05:29.999Z</time></trkpt><trkpt lat="40.4293068572672" lon="16.889621644749646"><ele>6.999999999999999</ele><time>2026-05-01T13:05:38.999Z</time></trkpt><trkpt lat="40.429248526291055" lon="16.889680586905833"><ele>6.999999999999999</ele><time>2026-05-01T13:05:47.999Z</time></trkpt><trkpt lat="40.429157931780935" lon="16.88977820332268"><ele>7.0</ele><time>2026-05-01T13:05:49.999Z</time></trkpt><trkpt lat="40.429248120596384" lon="16.88963762583399"><ele>7.0</ele><time>2026-05-01T13:05:54.999Z</time></trkpt><trkpt lat="40.42929568305552" lon="16.889578420725936"><ele>7.0</ele><time>2026-05-01T13:05:59.019Z</time></trkpt><trkpt lat="40.429252243436544" lon="16.88971045780238"><ele>7.0</ele><time>2026-05-01T13:06:37.428Z</time></trkpt><trkpt lat="40.42924174493407" lon="16.890022641128105"><ele>7.0</ele><time>2026-05-01T13:06:43.426Z</time></trkpt><trkpt lat="40.4292318863436" lon="16.88975622507828"><ele>7.000000000000001</ele><time>2026-05-01T13:06:43.999Z</time></trkpt><trkpt lat="40.429278709030456" lon="16.889681261003847"><ele>7.0</ele><time>2026-05-01T13:08:51.999Z</time></trkpt><trkpt lat="40.42927871755211" lon="16.88950393521199"><ele>7.0</ele><time>2026-05-01T13:09:11Z</time></trkpt><trkpt lat="40.42924802930007" lon="16.88957797853133"><ele>7.0</ele><time>2026-05-01T13:09:14Z</time></trkpt><trkpt lat="40.42921607083424" lon="16.88965012361575"><ele>7.000000000000001</ele><time>2026-05-01T13:10:00Z</time></trkpt><trkpt lat="40.429160571954334" lon="16.889722124140537"><ele>7.0</ele><time>2026-05-01T13:10:10Z</time></trkpt><trkpt lat="40.429318347961456" lon="16.889734843553626"><ele>7.0</ele><time>2026-05-01T13:10:18Z</time></trkpt><trkpt lat="40.42924136955353" lon="16.889662934595062"><ele>6.999999999999999</ele><time>2026-05-01T13:10:27Z</time></trkpt><trkpt lat="40.42933215795588" lon="16.889612692197648"><ele>6.999999999999999</ele><time>2026-05-01T13:10:51.999Z</time></trkpt><trkpt lat="40.42939555835037" lon="16.889542769656416"><ele>7.0</ele><time>2026-05-01T13:10:52.999Z</time></trkpt><trkpt lat="40.42947582288147" lon="16.889486193449233"><ele>7.0</ele><time>2026-05-01T13:10:56.999Z</time></trkpt><trkpt lat="40.42937241208905" lon="16.889744712998485"><ele>7.0</ele><time>2026-05-01T13:11:03Z</time></trkpt><trkpt lat="40.42919078452682" lon="16.889676180480613"><ele>7.0</ele><time>2026-05-01T13:11:08Z</time></trkpt><trkpt lat="40.42915066856311" lon="16.889914941972215"><ele>7.0</ele><time>2026-05-01T13:11:36Z</time></trkpt><trkpt lat="40.42921020395091" lon="16.88963200701942"><ele>7.0</ele><time>2026-05-01T13:11:37Z</time></trkpt><trkpt lat="40.429143936034464" lon="16.889675309797333"><ele>7.0</ele><time>2026-05-01T13:12:37Z</time></trkpt><trkpt lat="40.42908294972714" lon="16.889644283385092"><ele>7.0</ele><time>2026-05-01T13:12:43.999Z</time></trkpt><trkpt lat="40.42902224261171" lon="16.889685454820583"><ele>7.0</ele><time>2026-05-01T13:13:42Z</time></trkpt><trkpt lat="40.42901775818625" lon="16.889772981576705"><ele>7.0</ele><time>2026-05-01T13:13:48Z</time></trkpt><trkpt lat="40.42899626287316" lon="16.889851613908807"><ele>7.0</ele><time>2026-05-01T13:13:53Z</time></trkpt><trkpt lat="40.42898006090316" lon="16.88995093109442"><ele>7.0</ele><time>2026-05-01T13:14:01.999Z</time></trkpt><trkpt lat="40.42895542304438" lon="16.889853900916183"><ele>7.0</ele><time>2026-05-01T13:14:08.999Z</time></trkpt><trkpt lat="40.42887401022011" lon="16.890010010374716"><ele>7.0</ele><time>2026-05-01T13:14:48.999Z</time></trkpt><trkpt lat="40.42885172801924" lon="16.890143440342314"><ele>7.0</ele><time>2026-05-01T13:14:51.999Z</time></trkpt><trkpt lat="40.42880761981633" lon="16.890214186837234"><ele>7.0</ele><time>2026-05-01T13:14:52.999Z</time></trkpt><trkpt lat="40.428954946322946" lon="16.88991511448816"><ele>5.0</ele><time>2026-05-01T13:15:03.999Z</time></trkpt><trkpt lat="40.42941090436354" lon="16.888704792138636"><ele>5.0</ele><time>2026-05-01T13:15:14Z</time></trkpt><trkpt lat="40.42945938654284" lon="16.888602152482502"><ele>5.0</ele><time>2026-05-01T13:15:16Z</time></trkpt><trkpt lat="40.42949425549583" lon="16.888514954062064"><ele>5.0</ele><time>2026-05-01T13:15:18Z</time></trkpt><trkpt lat="40.429530591089595" lon="16.88842593811286"><ele>5.0</ele><time>2026-05-01T13:15:20Z</time></trkpt><trkpt lat="40.429005819799954" lon="16.889825786090928"><ele>6.0</ele><time>2026-05-01T13:15:38.586Z</time></trkpt><trkpt lat="40.42870409324805" lon="16.88979229891383"><ele>7.0</ele><time>2026-05-01T13:15:41Z</time></trkpt><trkpt lat="40.42893832675997" lon="16.889843700469612"><ele>7.0</ele><time>2026-05-01T13:15:44Z</time></trkpt><trkpt lat="40.429027659081314" lon="16.889854188971814"><ele>7.0</ele><time>2026-05-01T13:16:13Z</time></trkpt><trkpt lat="40.42902698965595" lon="16.889767817613464"><ele>7.0</ele><time>2026-05-01T13:19:46Z</time></trkpt><trkpt lat="40.429073271941604" lon="16.889701288943797"><ele>7.0</ele><time>2026-05-01T13:19:53Z</time></trkpt><trkpt lat="40.42911231823513" lon="16.889636265212342"><ele>7.0</ele><time>2026-05-01T13:20:25Z</time></trkpt><trkpt lat="40.429065040608215" lon="16.889575682097348"><ele>7.0</ele><time>2026-05-01T13:23:59Z</time></trkpt><trkpt lat="40.429092793881225" lon="16.889658740394946"><ele>7.0</ele><time>2026-05-01T13:25:09Z</time></trkpt><trkpt lat="40.429159864562315" lon="16.889570991030666"><ele>7.000000000000001</ele><time>2026-05-01T13:25:23Z</time></trkpt><trkpt lat="40.42921797938537" lon="16.889482133816525"><ele>7.0</ele><time>2026-05-01T13:25:24Z</time></trkpt><trkpt lat="40.42928172552738" lon="16.889393565876645"><ele>7.0</ele><time>2026-05-01T13:25:25Z</time></trkpt><trkpt lat="40.42934023795734" lon="16.88932130444742"><ele>7.0</ele><time>2026-05-01T13:25:26Z</time></trkpt><trkpt lat="40.42939875823375" lon="16.889251680175374"><ele>7.000000000000001</ele><time>2026-05-01T13:25:27Z</time></trkpt><trkpt lat="40.42947636625511" lon="16.889155835716817"><ele>7.0</ele><time>2026-05-01T13:25:28Z</time></trkpt><trkpt lat="40.42953396756963" lon="16.889081161166033"><ele>6.857142857142857</ele><time>2026-05-01T13:25:29Z</time></trkpt><trkpt lat="40.42957993157632" lon="16.88900902847561"><ele>6.714285714285714</ele><time>2026-05-01T13:25:31Z</time></trkpt><trkpt lat="40.42964458610644" lon="16.888963948594434"><ele>6.571428571428571</ele><time>2026-05-01T13:25:32.999Z</time></trkpt><trkpt lat="40.429680927855536" lon="16.88903283314697"><ele>6.428571428571429</ele><time>2026-05-01T13:25:34.999Z</time></trkpt><trkpt lat="40.42973816273625" lon="16.889089930505538"><ele>6.285714285714286</ele><time>2026-05-01T13:25:36.999Z</time></trkpt><trkpt lat="40.429784318885325" lon="16.889153495629383"><ele>6.142857142857142</ele><time>2026-05-01T13:25:37.999Z</time></trkpt><trkpt lat="40.42984077205261" lon="16.889226367307224"><ele>6.0</ele><time>2026-05-01T13:25:38.999Z</time></trkpt><trkpt lat="40.429895498281894" lon="16.889307821265533"><ele>6.0</ele><time>2026-05-01T13:25:39.999Z</time></trkpt><trkpt lat="40.42998308218841" lon="16.889426659135378"><ele>6.0</ele><time>2026-05-01T13:25:41.999Z</time></trkpt><trkpt lat="40.43007727583039" lon="16.889554292639463"><ele>6.0</ele><time>2026-05-01T13:25:43.999Z</time></trkpt><trkpt lat="40.43018358409243" lon="16.889668047070167"><ele>6.0</ele><time>2026-05-01T13:25:45.999Z</time></trkpt><trkpt lat="40.43024709788756" lon="16.88975847188228"><ele>6.0</ele><time>2026-05-01T13:25:47.999Z</time></trkpt><trkpt lat="40.43029194537264" lon="16.889826331795312"><ele>6.0</ele><time>2026-05-01T13:25:50.999Z</time></trkpt><trkpt lat="40.430341057060254" lon="16.889880720128073"><ele>6.0</ele><time>2026-05-01T13:25:56Z</time></trkpt><trkpt lat="40.430461527339354" lon="16.889758684230184"><ele>6.0</ele><time>2026-05-01T13:25:57Z</time></trkpt><trkpt lat="40.43051189807687" lon="16.88968165992033"><ele>6.0</ele><time>2026-05-01T13:25:58Z</time></trkpt><trkpt lat="40.43056413516146" lon="16.889627210356533"><ele>6.0</ele><time>2026-05-01T13:25:59Z</time></trkpt><trkpt lat="40.43062907176613" lon="16.889566937558065"><ele>5.8</ele><time>2026-05-01T13:26:00Z</time></trkpt><trkpt lat="40.4307060656389" lon="16.889500249088645"><ele>5.6</ele><time>2026-05-01T13:26:01Z</time></trkpt><trkpt lat="40.43079400621673" lon="16.889427626121346"><ele>5.4</ele><time>2026-05-01T13:26:02Z</time></trkpt><trkpt lat="40.43089223742061" lon="16.889346140239272"><ele>5.2</ele><time>2026-05-01T13:26:03Z</time></trkpt><trkpt lat="40.43098283841788" lon="16.88926162872533"><ele>5.0</ele><time>2026-05-01T13:26:04Z</time></trkpt><trkpt lat="40.43107347722942" lon="16.889191488383496"><ele>5.0</ele><time>2026-05-01T13:26:05Z</time></trkpt><trkpt lat="40.43115529603693" lon="16.88907570329554"><ele>5.0</ele><time>2026-05-01T13:26:06Z</time></trkpt><trkpt lat="40.43125368122844" lon="16.888991290801613"><ele>5.0</ele><time>2026-05-01T13:26:07Z</time></trkpt><trkpt lat="40.43133065568527" lon="16.888923541386664"><ele>5.0</ele><time>2026-05-01T13:26:08Z</time></trkpt><trkpt lat="40.431390209023256" lon="16.88886190685886"><ele>5.0</ele><time>2026-05-01T13:26:09Z</time></trkpt><trkpt lat="40.4314660874473" lon="16.8887912167644"><ele>5.5</ele><time>2026-05-01T13:26:10Z</time></trkpt><trkpt lat="40.43155680852581" lon="16.88870776154429"><ele>6.0</ele><time>2026-05-01T13:26:11Z</time></trkpt><trkpt lat="40.43165611546487" lon="16.888607295665995"><ele>6.5</ele><time>2026-05-01T13:26:12Z</time></trkpt><trkpt lat="40.431750824089946" lon="16.888519214268605"><ele>7.0</ele><time>2026-05-01T13:26:13Z</time></trkpt><trkpt lat="40.43186558187371" lon="16.88842904404802"><ele>7.0</ele><time>2026-05-01T13:26:14Z</time></trkpt><trkpt lat="40.43198043809535" lon="16.888319015917247"><ele>7.0</ele><time>2026-05-01T13:26:15Z</time></trkpt><trkpt lat="40.43209732301817" lon="16.888210141253165"><ele>7.0</ele><time>2026-05-01T13:26:16Z</time></trkpt><trkpt lat="40.43222946166659" lon="16.888089088089906"><ele>7.0</ele><time>2026-05-01T13:26:17Z</time></trkpt><trkpt lat="40.43235608677601" lon="16.887969394619613"><ele>7.0</ele><time>2026-05-01T13:26:18Z</time></trkpt><trkpt lat="40.432472120432706" lon="16.88785394967042"><ele>7.0</ele><time>2026-05-01T13:26:19Z</time></trkpt><trkpt lat="40.43258792178657" lon="16.8877442144726"><ele>7.0</ele><time>2026-05-01T13:26:20Z</time></trkpt><trkpt lat="40.432705155919564" lon="16.88763590985541"><ele>7.0</ele><time>2026-05-01T13:26:21Z</time></trkpt><trkpt lat="40.432814325759374" lon="16.887534273173795"><ele>7.666666666666667</ele><time>2026-05-01T13:26:22Z</time></trkpt><trkpt lat="40.43304895014523" lon="16.887293969496948"><ele>8.333333333333334</ele><time>2026-05-01T13:26:24Z</time></trkpt><trkpt lat="40.433168004583706" lon="16.887179602092136"><ele>9.0</ele><time>2026-05-01T13:26:25Z</time></trkpt><trkpt lat="40.433259131729" lon="16.887074569068208"><ele>9.0</ele><time>2026-05-01T13:26:26Z</time></trkpt><trkpt lat="40.43335917509719" lon="16.886982760596577"><ele>9.0</ele><time>2026-05-01T13:26:27Z</time></trkpt><trkpt lat="40.43347158056423" lon="16.886879114516155"><ele>9.0</ele><time>2026-05-01T13:26:28Z</time></trkpt><trkpt lat="40.433594076617055" lon="16.8867609682107"><ele>9.0</ele><time>2026-05-01T13:26:29Z</time></trkpt><trkpt lat="40.43371927543174" lon="16.886655183626157"><ele>9.333333333333334</ele><time>2026-05-01T13:26:30Z</time></trkpt><trkpt lat="40.43384342186654" lon="16.88653133381438"><ele>9.666666666666668</ele><time>2026-05-01T13:26:31Z</time></trkpt><trkpt lat="40.43397619647333" lon="16.886405087803787"><ele>10.0</ele><time>2026-05-01T13:26:32Z</time></trkpt><trkpt lat="40.43411774317241" lon="16.886265754039464"><ele>10.0</ele><time>2026-05-01T13:26:33Z</time></trkpt><trkpt lat="40.43425327299478" lon="16.886135862035204"><ele>10.0</ele><time>2026-05-01T13:26:34Z</time></trkpt><trkpt lat="40.434375171910276" lon="16.886023504007902"><ele>10.0</ele><time>2026-05-01T13:26:35Z</time></trkpt><trkpt lat="40.434482414222295" lon="16.885923314124135"><ele>10.0</ele><time>2026-05-01T13:26:36Z</time></trkpt><trkpt lat="40.43460193886575" lon="16.88580755430586"><ele>9.5</ele><time>2026-05-01T13:26:37Z</time></trkpt><trkpt lat="40.43471455230907" lon="16.885698149287567"><ele>9.0</ele><time>2026-05-01T13:26:38Z</time></trkpt><trkpt lat="40.43482707689379" lon="16.885584497146485"><ele>8.5</ele><time>2026-05-01T13:26:39Z</time></trkpt><trkpt lat="40.434946010864515" lon="16.88547072208861"><ele>8.0</ele><time>2026-05-01T13:26:40Z</time></trkpt><trkpt lat="40.4350778939397" lon="16.88536523234516"><ele>8.0</ele><time>2026-05-01T13:26:41Z</time></trkpt><trkpt lat="40.43520031689453" lon="16.885223877459886"><ele>8.0</ele><time>2026-05-01T13:26:42Z</time></trkpt><trkpt lat="40.435335914935315" lon="16.885099094371586"><ele>8.0</ele><time>2026-05-01T13:26:43Z</time></trkpt><trkpt lat="40.435461713142246" lon="16.884974303703196"><ele>8.666666666666666</ele><time>2026-05-01T13:26:44Z</time></trkpt><trkpt lat="40.43558851125565" lon="16.884859720967786"><ele>9.333333333333334</ele><time>2026-05-01T13:26:45Z</time></trkpt><trkpt lat="40.435718717019334" lon="16.884734730071322"><ele>10.0</ele><time>2026-05-01T13:26:46Z</time></trkpt><trkpt lat="40.435855416738534" lon="16.884599347535737"><ele>10.0</ele><time>2026-05-01T13:26:47Z</time></trkpt><trkpt lat="40.43599100521462" lon="16.88448577066464"><ele>10.0</ele><time>2026-05-01T13:26:48Z</time></trkpt><trkpt lat="40.43612312871699" lon="16.884358626961692"><ele>10.0</ele><time>2026-05-01T13:26:49Z</time></trkpt><trkpt lat="40.43626435746555" lon="16.884223364325955"><ele>11.0</ele><time>2026-05-01T13:26:50Z</time></trkpt><trkpt lat="40.436392108286896" lon="16.8840800774136"><ele>12.0</ele><time>2026-05-01T13:26:51Z</time></trkpt><trkpt lat="40.43653158640481" lon="16.88394212660287"><ele>13.0</ele><time>2026-05-01T13:26:52Z</time></trkpt><trkpt lat="40.436692166719446" lon="16.883813627583837"><ele>13.0</ele><time>2026-05-01T13:26:53Z</time></trkpt><trkpt lat="40.43684740582651" lon="16.883664484477467"><ele>13.0</ele><time>2026-05-01T13:26:54Z</time></trkpt><trkpt lat="40.437001450915396" lon="16.883516492649683"><ele>13.0</ele><time>2026-05-01T13:26:55Z</time></trkpt><trkpt lat="40.43714793231554" lon="16.88336134522847"><ele>11.666666666666666</ele><time>2026-05-01T13:26:56Z</time></trkpt><trkpt lat="40.43729669301881" lon="16.883217318068624"><ele>10.333333333333332</ele><time>2026-05-01T13:26:57Z</time></trkpt><trkpt lat="40.43744141121114" lon="16.88307197302139"><ele>9.0</ele><time>2026-05-01T13:26:58Z</time></trkpt><trkpt lat="40.437584118929266" lon="16.882957531058178"><ele>9.0</ele><time>2026-05-01T13:26:59Z</time></trkpt><trkpt lat="40.437745436563176" lon="16.882802899385485"><ele>9.0</ele><time>2026-05-01T13:27:00Z</time></trkpt><trkpt lat="40.43788571394591" lon="16.882655003151285"><ele>9.0</ele><time>2026-05-01T13:27:01Z</time></trkpt><trkpt lat="40.43805918331395" lon="16.882502156161234"><ele>8.666666666666666</ele><time>2026-05-01T13:27:02Z</time></trkpt><trkpt lat="40.438205872547805" lon="16.882350794145893"><ele>8.333333333333332</ele><time>2026-05-01T13:27:03Z</time></trkpt><trkpt lat="40.43834347345887" lon="16.88223583750936"><ele>8.0</ele><time>2026-05-01T13:27:04Z</time></trkpt><trkpt lat="40.43847399464961" lon="16.88211925214731"><ele>8.0</ele><time>2026-05-01T13:27:05Z</time></trkpt><trkpt lat="40.43866224749339" lon="16.881917780962027"><ele>8.0</ele><time>2026-05-01T13:27:06Z</time></trkpt><trkpt lat="40.43882456930196" lon="16.8817540757163"><ele>8.0</ele><time>2026-05-01T13:27:07Z</time></trkpt><trkpt lat="40.43899588392493" lon="16.881598636283872"><ele>8.0</ele><time>2026-05-01T13:27:08Z</time></trkpt><trkpt lat="40.439143344425176" lon="16.881463485728403"><ele>8.0</ele><time>2026-05-01T13:27:09Z</time></trkpt><trkpt lat="40.439300937975005" lon="16.881319792712596"><ele>8.0</ele><time>2026-05-01T13:27:10Z</time></trkpt><trkpt lat="40.43945817968255" lon="16.881154145929656"><ele>8.0</ele><time>2026-05-01T13:27:11Z</time></trkpt><trkpt lat="40.43962186669424" lon="16.881005037005657"><ele>8.0</ele><time>2026-05-01T13:27:12Z</time></trkpt><trkpt lat="40.43979117727522" lon="16.880841586340612"><ele>8.0</ele><time>2026-05-01T13:27:13Z</time></trkpt><trkpt lat="40.43994664905936" lon="16.88066957024803"><ele>7.666666666666666</ele><time>2026-05-01T13:27:14Z</time></trkpt><trkpt lat="40.44011698004305" lon="16.88050729522011"><ele>7.333333333333334</ele><time>2026-05-01T13:27:15Z</time></trkpt><trkpt lat="40.44030049523445" lon="16.88033688267967"><ele>7.0</ele><time>2026-05-01T13:27:16Z</time></trkpt><trkpt lat="40.44048464481408" lon="16.880158456119933"><ele>6.0</ele><time>2026-05-01T13:27:17Z</time></trkpt><trkpt lat="40.440677331016126" lon="16.879972572545505"><ele>5.0</ele><time>2026-05-01T13:27:18Z</time></trkpt><trkpt lat="40.440870681183384" lon="16.87977864187641"><ele>5.0</ele><time>2026-05-01T13:27:19Z</time></trkpt><trkpt lat="40.44106251954105" lon="16.87959952595392"><ele>5.0</ele><time>2026-05-01T13:27:20Z</time></trkpt><trkpt lat="40.44123649782259" lon="16.879429566293354"><ele>4.666666666666667</ele><time>2026-05-01T13:27:21Z</time></trkpt><trkpt lat="40.44140951158487" lon="16.879259780152488"><ele>4.333333333333333</ele><time>2026-05-01T13:27:22Z</time></trkpt><trkpt lat="40.44156297905405" lon="16.879115524482668"><ele>4.0</ele><time>2026-05-01T13:27:23Z</time></trkpt><trkpt lat="40.441712833372954" lon="16.87897048282952"><ele>4.0</ele><time>2026-05-01T13:27:24Z</time></trkpt><trkpt lat="40.44187192068381" lon="16.878819230428785"><ele>4.0</ele><time>2026-05-01T13:27:25Z</time></trkpt><trkpt lat="40.44203207613781" lon="16.878667226930002"><ele>4.0</ele><time>2026-05-01T13:27:26Z</time></trkpt><trkpt lat="40.442200355695434" lon="16.87850957873115"><ele>3.6666666666666665</ele><time>2026-05-01T13:27:27Z</time></trkpt><trkpt lat="40.442368230477726" lon="16.87835431432619"><ele>3.333333333333333</ele><time>2026-05-01T13:27:28Z</time></trkpt><trkpt lat="40.442536816992316" lon="16.878183861106812"><ele>3.0</ele><time>2026-05-01T13:27:28.999Z</time></trkpt><trkpt lat="40.44271075173182" lon="16.878033797103523"><ele>3.0</ele><time>2026-05-01T13:27:29.999Z</time></trkpt><trkpt lat="40.442864102056014" lon="16.87787220592633"><ele>3.0</ele><time>2026-05-01T13:27:30.999Z</time></trkpt><trkpt lat="40.44302075318654" lon="16.877724555923912"><ele>3.0</ele><time>2026-05-01T13:27:31.999Z</time></trkpt><trkpt lat="40.44317899724922" lon="16.877569762859018"><ele>3.333333333333333</ele><time>2026-05-01T13:27:32.999Z</time></trkpt><trkpt lat="40.44334999542574" lon="16.877407911531414"><ele>3.6666666666666665</ele><time>2026-05-01T13:27:33.999Z</time></trkpt><trkpt lat="40.443536718676306" lon="16.877271949537025"><ele>4.0</ele><time>2026-05-01T13:27:34.999Z</time></trkpt><trkpt lat="40.44367814353303" lon="16.877139229894645"><ele>4.0</ele><time>2026-05-01T13:27:35.999Z</time></trkpt><trkpt lat="40.443840154083034" lon="16.87698529813001"><ele>4.0</ele><time>2026-05-01T13:27:36.999Z</time></trkpt><trkpt lat="40.44400941113286" lon="16.876813112256308"><ele>4.0</ele><time>2026-05-01T13:27:37.999Z</time></trkpt><trkpt lat="40.44418328944287" lon="16.876651721834154"><ele>3.6666666666666665</ele><time>2026-05-01T13:27:38.999Z</time></trkpt><trkpt lat="40.44435027958614" lon="16.87648339846068"><ele>3.333333333333333</ele><time>2026-05-01T13:27:39.999Z</time></trkpt><trkpt lat="40.44452388812599" lon="16.87632903414735"><ele>3.0</ele><time>2026-05-01T13:27:40.999Z</time></trkpt><trkpt lat="40.44469157078726" lon="16.876167022211273"><ele>3.0</ele><time>2026-05-01T13:27:41.999Z</time></trkpt><trkpt lat="40.44484396913755" lon="16.876018227378694"><ele>3.0</ele><time>2026-05-01T13:27:42.999Z</time></trkpt><trkpt lat="40.445016764510235" lon="16.875841998816814"><ele>3.0</ele><time>2026-05-01T13:27:43.999Z</time></trkpt><trkpt lat="40.44517745957261" lon="16.875687850966543"><ele>3.0</ele><time>2026-05-01T13:27:44.999Z</time></trkpt><trkpt lat="40.445339821102486" lon="16.875528200747098"><ele>3.0</ele><time>2026-05-01T13:27:45.999Z</time></trkpt><trkpt lat="40.44551652277152" lon="16.875376429557072"><ele>3.0</ele><time>2026-05-01T13:27:46.999Z</time></trkpt><trkpt lat="40.445661161718206" lon="16.875229054088"><ele>2.6666666666666665</ele><time>2026-05-01T13:27:47.999Z</time></trkpt><trkpt lat="40.445802403855154" lon="16.875073320937965"><ele>2.333333333333333</ele><time>2026-05-01T13:27:48.999Z</time></trkpt><trkpt lat="40.44597715946832" lon="16.87492068315265"><ele>2.0</ele><time>2026-05-01T13:27:49.999Z</time></trkpt><trkpt lat="40.44613432219141" lon="16.874739432255428"><ele>2.0</ele><time>2026-05-01T13:27:50.999Z</time></trkpt><trkpt lat="40.44631299930082" lon="16.874587991275938"><ele>2.0</ele><time>2026-05-01T13:27:51.999Z</time></trkpt><trkpt lat="40.44645186647061" lon="16.87442794992024"><ele>2.0</ele><time>2026-05-01T13:27:52.999Z</time></trkpt><trkpt lat="40.44662073343271" lon="16.874267778403826"><ele>2.0</ele><time>2026-05-01T13:27:53.999Z</time></trkpt><trkpt lat="40.44679339340555" lon="16.874097781836856"><ele>2.0</ele><time>2026-05-01T13:27:54.999Z</time></trkpt><trkpt lat="40.44694414796971" lon="16.873967570539094"><ele>2.0</ele><time>2026-05-01T13:27:55.999Z</time></trkpt><trkpt lat="40.44711719036216" lon="16.873803187700233"><ele>2.0</ele><time>2026-05-01T13:27:56.999Z</time></trkpt><trkpt lat="40.44729334064554" lon="16.87363598644994"><ele>2.0</ele><time>2026-05-01T13:27:57.999Z</time></trkpt><trkpt lat="40.44744019022153" lon="16.873493855521524"><ele>2.0</ele><time>2026-05-01T13:27:58.999Z</time></trkpt><trkpt lat="40.44760188425235" lon="16.873336713237155"><ele>2.0</ele><time>2026-05-01T13:27:59.999Z</time></trkpt><trkpt lat="40.44778816551597" lon="16.873157803607118"><ele>2.0</ele><time>2026-05-01T13:28:00.999Z</time></trkpt><trkpt lat="40.44796015932274" lon="16.872995872956196"><ele>2.0</ele><time>2026-05-01T13:28:01.999Z</time></trkpt><trkpt lat="40.44812235710064" lon="16.87283967986849"><ele>2.0</ele><time>2026-05-01T13:28:02.999Z</time></trkpt><trkpt lat="40.44828235315897" lon="16.87268275080132"><ele>2.0</ele><time>2026-05-01T13:28:03.999Z</time></trkpt><trkpt lat="40.44846183273968" lon="16.87251127291556"><ele>2.0</ele><time>2026-05-01T13:28:04.999Z</time></trkpt><trkpt lat="40.44863186901623" lon="16.87233282139156"><ele>2.0</ele><time>2026-05-01T13:28:05.999Z</time></trkpt><trkpt lat="40.44878301762745" lon="16.87220241050863"><ele>2.0</ele><time>2026-05-01T13:28:06.999Z</time></trkpt><trkpt lat="40.44892434834767" lon="16.872063190330458"><ele>2.0</ele><time>2026-05-01T13:28:07.999Z</time></trkpt><trkpt lat="40.44906057885105" lon="16.871934866251898"><ele>2.0</ele><time>2026-05-01T13:28:08.999Z</time></trkpt><trkpt lat="40.44920735707582" lon="16.87179660654236"><ele>2.0</ele><time>2026-05-01T13:28:09.999Z</time></trkpt><trkpt lat="40.449364754010716" lon="16.87164834495236"><ele>2.0</ele><time>2026-05-01T13:28:10.999Z</time></trkpt><trkpt lat="40.44951718357237" lon="16.8714874393895"><ele>2.0</ele><time>2026-05-01T13:28:11.999Z</time></trkpt><trkpt lat="40.44963242178351" lon="16.871392302740933"><ele>2.0</ele><time>2026-05-01T13:28:12.999Z</time></trkpt><trkpt lat="40.44977390470892" lon="16.871256442205937"><ele>2.0</ele><time>2026-05-01T13:28:13.999Z</time></trkpt><trkpt lat="40.449902394402145" lon="16.871112654410894"><ele>2.0</ele><time>2026-05-01T13:28:14.999Z</time></trkpt><trkpt lat="40.449999154559514" lon="16.87099456057238"><ele>2.0</ele><time>2026-05-01T13:28:15.999Z</time></trkpt><trkpt lat="40.450126669810274" lon="16.87087926666937"><ele>2.0</ele><time>2026-05-01T13:28:16.999Z</time></trkpt><trkpt lat="40.45024982308668" lon="16.870760149756862"><ele>2.0</ele><time>2026-05-01T13:28:17.999Z</time></trkpt><trkpt lat="40.450378577104274" lon="16.870645298864115"><ele>2.0</ele><time>2026-05-01T13:28:18.999Z</time></trkpt><trkpt lat="40.45050324233544" lon="16.87055226798884"><ele>2.0</ele><time>2026-05-01T13:28:19.999Z</time></trkpt><trkpt lat="40.45061437770883" lon="16.87044595423836"><ele>2.0</ele><time>2026-05-01T13:28:20.999Z</time></trkpt><trkpt lat="40.45073666800365" lon="16.87032845577343"><ele>2.0</ele><time>2026-05-01T13:28:21.999Z</time></trkpt><trkpt lat="40.45087061851564" lon="16.87019975394371"><ele>2.25</ele><time>2026-05-01T13:28:22.999Z</time></trkpt><trkpt lat="40.45097468107224" lon="16.870099769692988"><ele>2.5</ele><time>2026-05-01T13:28:23.999Z</time></trkpt><trkpt lat="40.45108332879234" lon="16.86999472055508"><ele>2.75</ele><time>2026-05-01T13:28:25Z</time></trkpt><trkpt lat="40.45120822791244" lon="16.869874026090635"><ele>3.0</ele><time>2026-05-01T13:28:26Z</time></trkpt><trkpt lat="40.45133167694178" lon="16.869754732465132"><ele>3.25</ele><time>2026-05-01T13:28:27Z</time></trkpt><trkpt lat="40.45145724388843" lon="16.86963339399907"><ele>3.5</ele><time>2026-05-01T13:28:28Z</time></trkpt><trkpt lat="40.45157518831931" lon="16.869520055623138"><ele>3.75</ele><time>2026-05-01T13:28:29Z</time></trkpt><trkpt lat="40.45167687295983" lon="16.869422241434926"><ele>4.0</ele><time>2026-05-01T13:28:30Z</time></trkpt><trkpt lat="40.451797454822675" lon="16.869306248929316"><ele>4.0</ele><time>2026-05-01T13:28:31Z</time></trkpt><trkpt lat="40.45192393657392" lon="16.869184581322365"><ele>4.0</ele><time>2026-05-01T13:28:32Z</time></trkpt><trkpt lat="40.4520579689018" lon="16.869055348560508"><ele>4.0</ele><time>2026-05-01T13:28:33Z</time></trkpt><trkpt lat="40.45217873331218" lon="16.868938572008847"><ele>4.0</ele><time>2026-05-01T13:28:34Z</time></trkpt><trkpt lat="40.452312779272255" lon="16.868807026091364"><ele>4.0</ele><time>2026-05-01T13:28:35Z</time></trkpt><trkpt lat="40.45243446431997" lon="16.868687595911087"><ele>4.0</ele><time>2026-05-01T13:28:36Z</time></trkpt><trkpt lat="40.45256173593897" lon="16.868564483240363"><ele>4.25</ele><time>2026-05-01T13:28:37Z</time></trkpt><trkpt lat="40.45269731765457" lon="16.868435256290898"><ele>4.5</ele><time>2026-05-01T13:28:38Z</time></trkpt><trkpt lat="40.45281791531883" lon="16.86832031105028"><ele>4.75</ele><time>2026-05-01T13:28:39Z</time></trkpt><trkpt lat="40.45292147124913" lon="16.868219769340197"><ele>5.0</ele><time>2026-05-01T13:28:40Z</time></trkpt><trkpt lat="40.45300949718562" lon="16.868132580171785"><ele>5.666666666666667</ele><time>2026-05-01T13:28:41Z</time></trkpt><trkpt lat="40.45308566012673" lon="16.868057141318776"><ele>6.333333333333334</ele><time>2026-05-01T13:28:42Z</time></trkpt><trkpt lat="40.4531472188024" lon="16.86797724216816"><ele>7.0</ele><time>2026-05-01T13:28:43Z</time></trkpt><trkpt lat="40.453213467712416" lon="16.867934035361927"><ele>7.666666666666667</ele><time>2026-05-01T13:28:44Z</time></trkpt><trkpt lat="40.45328175631932" lon="16.86790339739272"><ele>8.333333333333334</ele><time>2026-05-01T13:28:45Z</time></trkpt><trkpt lat="40.45336828850214" lon="16.867921057025967"><ele>9.0</ele><time>2026-05-01T13:28:46Z</time></trkpt><trkpt lat="40.453470207262995" lon="16.867942381893993"><ele>9.0</ele><time>2026-05-01T13:28:47Z</time></trkpt><trkpt lat="40.453569960992766" lon="16.868011085936214"><ele>9.0</ele><time>2026-05-01T13:28:48Z</time></trkpt><trkpt lat="40.45362927447843" lon="16.868175976959503"><ele>9.0</ele><time>2026-05-01T13:28:49Z</time></trkpt><trkpt lat="40.453720914560996" lon="16.86833927245027"><ele>9.0</ele><time>2026-05-01T13:28:49.999Z</time></trkpt><trkpt lat="40.45382761256285" lon="16.86849476049076"><ele>9.666666666666666</ele><time>2026-05-01T13:28:50.999Z</time></trkpt><trkpt lat="40.4539298829591" lon="16.868680307051587"><ele>10.333333333333332</ele><time>2026-05-01T13:28:51.999Z</time></trkpt><trkpt lat="40.45404617115897" lon="16.868873895140318"><ele>11.0</ele><time>2026-05-01T13:28:52.999Z</time></trkpt><trkpt lat="40.45415794966784" lon="16.86910171541365"><ele>10.333333333333332</ele><time>2026-05-01T13:28:53.999Z</time></trkpt><trkpt lat="40.454280675433814" lon="16.869315684897447"><ele>9.666666666666666</ele><time>2026-05-01T13:28:54.999Z</time></trkpt><trkpt lat="40.45441364071697" lon="16.869547506664677"><ele>9.0</ele><time>2026-05-01T13:28:55.999Z</time></trkpt><trkpt lat="40.45450001981715" lon="16.86969822283381"><ele>9.0</ele><time>2026-05-01T13:28:56.999Z</time></trkpt><trkpt lat="40.45459750329459" lon="16.86986857641666"><ele>9.0</ele><time>2026-05-01T13:28:57.999Z</time></trkpt><trkpt lat="40.45471378113739" lon="16.870071773683325"><ele>9.0</ele><time>2026-05-01T13:28:58.999Z</time></trkpt><trkpt lat="40.45482398911334" lon="16.870264363670273"><ele>9.333333333333334</ele><time>2026-05-01T13:28:59.999Z</time></trkpt><trkpt lat="40.45493744443878" lon="16.870462628516417"><ele>9.666666666666668</ele><time>2026-05-01T13:29:00.999Z</time></trkpt><trkpt lat="40.45504455563999" lon="16.870648128241132"><ele>10.0</ele><time>2026-05-01T13:29:01.999Z</time></trkpt><trkpt lat="40.45515381465523" lon="16.870837032426856"><ele>10.0</ele><time>2026-05-01T13:29:02.999Z</time></trkpt><trkpt lat="40.45526307233173" lon="16.87102593440109"><ele>10.0</ele><time>2026-05-01T13:29:03.999Z</time></trkpt><trkpt lat="40.45536966270322" lon="16.871217241525496"><ele>10.0</ele><time>2026-05-01T13:29:04.999Z</time></trkpt><trkpt lat="40.45546477310181" lon="16.871383371752234"><ele>10.0</ele><time>2026-05-01T13:29:05.999Z</time></trkpt><trkpt lat="40.4555539306198" lon="16.871539104707647"><ele>10.0</ele><time>2026-05-01T13:29:06.999Z</time></trkpt><trkpt lat="40.45565147064452" lon="16.871707626158123"><ele>10.0</ele><time>2026-05-01T13:29:07.999Z</time></trkpt><trkpt lat="40.45575300804902" lon="16.87185507363812"><ele>9.0</ele><time>2026-05-01T13:29:08.999Z</time></trkpt><trkpt lat="40.45588560855531" lon="16.871971425285462"><ele>8.0</ele><time>2026-05-01T13:29:09.999Z</time></trkpt><trkpt lat="40.456039605275265" lon="16.87209618957994"><ele>7.0</ele><time>2026-05-01T13:29:10.999Z</time></trkpt><trkpt lat="40.45621208842259" lon="16.872152775847034"><ele>8.0</ele><time>2026-05-01T13:29:11.999Z</time></trkpt><trkpt lat="40.4564008063945" lon="16.872172953188162"><ele>9.0</ele><time>2026-05-01T13:29:12.999Z</time></trkpt><trkpt lat="40.45659458202825" lon="16.8721721301116"><ele>10.0</ele><time>2026-05-01T13:29:13.999Z</time></trkpt><trkpt lat="40.456771034355086" lon="16.872210006681776"><ele>10.0</ele><time>2026-05-01T13:29:14.999Z</time></trkpt><trkpt lat="40.45693876245047" lon="16.872237807863208"><ele>10.0</ele><time>2026-05-01T13:29:15.999Z</time></trkpt><trkpt lat="40.45711176578163" lon="16.87228787733354"><ele>10.0</ele><time>2026-05-01T13:29:16.999Z</time></trkpt><trkpt lat="40.457286798258465" lon="16.872375048089694"><ele>10.333333333333334</ele><time>2026-05-01T13:29:17.999Z</time></trkpt><trkpt lat="40.45744757054476" lon="16.87252058254662"><ele>10.666666666666666</ele><time>2026-05-01T13:29:18.999Z</time></trkpt><trkpt lat="40.45759123072714" lon="16.872707470036634"><ele>11.0</ele><time>2026-05-01T13:29:19.999Z</time></trkpt><trkpt lat="40.457705141348214" lon="16.872883674348266"><ele>11.0</ele><time>2026-05-01T13:29:20.999Z</time></trkpt><trkpt lat="40.45779707674846" lon="16.873036730121186"><ele>11.0</ele><time>2026-05-01T13:29:21.999Z</time></trkpt><trkpt lat="40.45790733014713" lon="16.87318492810452"><ele>11.0</ele><time>2026-05-01T13:29:22.999Z</time></trkpt><trkpt lat="40.4580153695268" lon="16.873359538867472"><ele>11.0</ele><time>2026-05-01T13:29:23.999Z</time></trkpt><trkpt lat="40.458120982984305" lon="16.87352198052856"><ele>11.0</ele><time>2026-05-01T13:29:24.999Z</time></trkpt><trkpt lat="40.45821855125088" lon="16.873675379069027"><ele>11.0</ele><time>2026-05-01T13:29:25.999Z</time></trkpt><trkpt lat="40.45832630043551" lon="16.87384185697679"><ele>11.0</ele><time>2026-05-01T13:29:26.999Z</time></trkpt><trkpt lat="40.45843095527363" lon="16.87400285481634"><ele>11.0</ele><time>2026-05-01T13:29:27.999Z</time></trkpt><trkpt lat="40.45852825294356" lon="16.874153881528223"><ele>11.0</ele><time>2026-05-01T13:29:28.999Z</time></trkpt><trkpt lat="40.45862587850746" lon="16.87431047764931"><ele>10.75</ele><time>2026-05-01T13:29:29.999Z</time></trkpt><trkpt lat="40.45871238583021" lon="16.874475426933795"><ele>10.5</ele><time>2026-05-01T13:29:30.999Z</time></trkpt><trkpt lat="40.45880989693876" lon="16.874596853670706"><ele>10.25</ele><time>2026-05-01T13:29:31.999Z</time></trkpt><trkpt lat="40.45888644707297" lon="16.87472168638146"><ele>10.0</ele><time>2026-05-01T13:29:32.999Z</time></trkpt><trkpt lat="40.458963168819785" lon="16.87486098586472"><ele>10.4</ele><time>2026-05-01T13:29:33.999Z</time></trkpt><trkpt lat="40.45905493123573" lon="16.874985231936353"><ele>10.8</ele><time>2026-05-01T13:29:34.999Z</time></trkpt><trkpt lat="40.4591187924309" lon="16.87508842166525"><ele>11.2</ele><time>2026-05-01T13:29:35.999Z</time></trkpt><trkpt lat="40.459170919978185" lon="16.87517789356215"><ele>11.6</ele><time>2026-05-01T13:29:36.999Z</time></trkpt><trkpt lat="40.459219733212265" lon="16.875247161338546"><ele>12.0</ele><time>2026-05-01T13:29:37.999Z</time></trkpt><trkpt lat="40.45929106955771" lon="16.87536791238006"><ele>12.166666666666666</ele><time>2026-05-01T13:29:39.999Z</time></trkpt><trkpt lat="40.459331410152735" lon="16.875460195119363"><ele>12.333333333333332</ele><time>2026-05-01T13:29:41.999Z</time></trkpt><trkpt lat="40.459261977575636" lon="16.875505561871584"><ele>12.5</ele><time>2026-05-01T13:29:44.999Z</time></trkpt><trkpt lat="40.45920602022049" lon="16.875568629680064"><ele>12.666666666666666</ele><time>2026-05-01T13:29:47.999Z</time></trkpt><trkpt lat="40.459146806410466" lon="16.875634811275635"><ele>12.833333333333332</ele><time>2026-05-01T13:29:51.999Z</time></trkpt><trkpt lat="40.459096892710505" lon="16.87569059842601"><ele>13.0</ele><time>2026-05-01T13:29:54.999Z</time></trkpt><trkpt lat="40.459036330889084" lon="16.875758286643443"><ele>13.0</ele><time>2026-05-01T13:29:58.999Z</time></trkpt><trkpt lat="40.45899697420826" lon="16.875883793676884"><ele>13.0</ele><time>2026-05-01T13:30:01.999Z</time></trkpt><trkpt lat="40.45903399333677" lon="16.875951184855964"><ele>13.0</ele><time>2026-05-01T13:30:04Z</time></trkpt><trkpt lat="40.45893030807214" lon="16.876065039371884"><ele>13.0</ele><time>2026-05-01T13:30:08Z</time></trkpt><trkpt lat="40.4588705338132" lon="16.87612833703349"><ele>13.0</ele><time>2026-05-01T13:30:12Z</time></trkpt><trkpt lat="40.45880587579302" lon="16.87619176692697"><ele>12.166666666666666</ele><time>2026-05-01T13:30:16Z</time></trkpt><trkpt lat="40.45873575587275" lon="16.876258166312997"><ele>11.333333333333332</ele><time>2026-05-01T13:30:19Z</time></trkpt><trkpt lat="40.45868170415215" lon="16.876307175462717"><ele>10.5</ele><time>2026-05-01T13:30:21Z</time></trkpt><trkpt lat="40.45861424898933" lon="16.876386060305435"><ele>9.666666666666666</ele><time>2026-05-01T13:30:24Z</time></trkpt><trkpt lat="40.45855186731479" lon="16.87644535887782"><ele>8.833333333333332</ele><time>2026-05-01T13:30:27Z</time></trkpt><trkpt lat="40.45849237125486" lon="16.876475429459493"><ele>8.0</ele><time>2026-05-01T13:30:30Z</time></trkpt><trkpt lat="40.45844427376173" lon="16.876539222879153"><ele>8.0</ele><time>2026-05-01T13:30:32Z</time></trkpt><trkpt lat="40.45837867345453" lon="16.876585994849503"><ele>8.0</ele><time>2026-05-01T13:30:35Z</time></trkpt><trkpt lat="40.45828322067528" lon="16.87665711520391"><ele>8.0</ele><time>2026-05-01T13:30:37Z</time></trkpt><trkpt lat="40.45821034801364" lon="16.8767042068032"><ele>8.0</ele><time>2026-05-01T13:30:38Z</time></trkpt><trkpt lat="40.45811880152426" lon="16.876771105358035"><ele>8.0</ele><time>2026-05-01T13:30:40Z</time></trkpt><trkpt lat="40.45804849610379" lon="16.876823372948298"><ele>7.4</ele><time>2026-05-01T13:30:43Z</time></trkpt><trkpt lat="40.45792020236715" lon="16.87692638497583"><ele>6.800000000000001</ele><time>2026-05-01T13:30:45Z</time></trkpt><trkpt lat="40.4578367828871" lon="16.87698018047586"><ele>6.2</ele><time>2026-05-01T13:30:46Z</time></trkpt><trkpt lat="40.45775969905148" lon="16.877075756731074"><ele>5.6</ele><time>2026-05-01T13:30:48Z</time></trkpt><trkpt lat="40.457679313360785" lon="16.87713471503203"><ele>5.0</ele><time>2026-05-01T13:30:49Z</time></trkpt><trkpt lat="40.457591227489495" lon="16.87725233818925"><ele>5.0</ele><time>2026-05-01T13:30:50Z</time></trkpt><trkpt lat="40.45752900664653" lon="16.877294699783214"><ele>5.0</ele><time>2026-05-01T13:30:51Z</time></trkpt><trkpt lat="40.45746103014904" lon="16.877368355244545"><ele>5.0</ele><time>2026-05-01T13:30:53Z</time></trkpt><trkpt lat="40.45739865949204" lon="16.877454110209754"><ele>5.0</ele><time>2026-05-01T13:30:56Z</time></trkpt><trkpt lat="40.4573524749906" lon="16.877514187217535"><ele>5.0</ele><time>2026-05-01T13:30:57Z</time></trkpt><trkpt lat="40.45726190144066" lon="16.87758414865688"><ele>5.0</ele><time>2026-05-01T13:30:59Z</time></trkpt><trkpt lat="40.457224472632845" lon="16.87765197915386"><ele>5.0</ele><time>2026-05-01T13:31:00Z</time></trkpt><trkpt lat="40.45716219471485" lon="16.877717341004416"><ele>5.0</ele><time>2026-05-01T13:31:01Z</time></trkpt><trkpt lat="40.45709173778087" lon="16.877792484299587"><ele>5.0</ele><time>2026-05-01T13:31:03Z</time></trkpt><trkpt lat="40.45703149409631" lon="16.877833838452887"><ele>5.0</ele><time>2026-05-01T13:31:05Z</time></trkpt><trkpt lat="40.45697823875637" lon="16.877891550643916"><ele>5.0</ele><time>2026-05-01T13:31:07Z</time></trkpt><trkpt lat="40.456934702701204" lon="16.87796654724468"><ele>5.0</ele><time>2026-05-01T13:31:09Z</time></trkpt><trkpt lat="40.45685598167295" lon="16.878024039231427"><ele>4.6</ele><time>2026-05-01T13:31:11Z</time></trkpt><trkpt lat="40.45678851368777" lon="16.878097153480695"><ele>4.2</ele><time>2026-05-01T13:31:12Z</time></trkpt><trkpt lat="40.456728802669126" lon="16.878161861631625"><ele>3.8</ele><time>2026-05-01T13:31:14Z</time></trkpt><trkpt lat="40.45664712125253" lon="16.87825037881919"><ele>3.4</ele><time>2026-05-01T13:31:17Z</time></trkpt><trkpt lat="40.456557271913255" lon="16.878347747518244"><ele>3.0</ele><time>2026-05-01T13:31:19Z</time></trkpt><trkpt lat="40.45642599256261" lon="16.878490013315833"><ele>2.8333333333333335</ele><time>2026-05-01T13:31:21Z</time></trkpt><trkpt lat="40.456374239937254" lon="16.87857286954854"><ele>2.6666666666666665</ele><time>2026-05-01T13:31:22Z</time></trkpt><trkpt lat="40.45630726990656" lon="16.878618671760226"><ele>2.5</ele><time>2026-05-01T13:31:23Z</time></trkpt><trkpt lat="40.4562583320556" lon="16.878671705137105"><ele>2.333333333333333</ele><time>2026-05-01T13:31:24Z</time></trkpt><trkpt lat="40.45617840731061" lon="16.878778960977964"><ele>2.1666666666666665</ele><time>2026-05-01T13:31:26Z</time></trkpt><trkpt lat="40.45610146188647" lon="16.87886580713247"><ele>2.0</ele><time>2026-05-01T13:31:29Z</time></trkpt><trkpt lat="40.45603628923933" lon="16.87893822829218"><ele>1.8333333333333333</ele><time>2026-05-01T13:31:31Z</time></trkpt><trkpt lat="40.45598085737809" lon="16.879013681449663"><ele>1.6666666666666665</ele><time>2026-05-01T13:31:34Z</time></trkpt><trkpt lat="40.45592261402719" lon="16.87907844348985"><ele>1.5</ele><time>2026-05-01T13:31:39Z</time></trkpt><trkpt lat="40.45587528523784" lon="16.879161435831367"><ele>1.3333333333333333</ele><time>2026-05-01T13:31:42Z</time></trkpt><trkpt lat="40.45582586518311" lon="16.87923096100016"><ele>1.1666666666666665</ele><time>2026-05-01T13:31:45Z</time></trkpt><trkpt lat="40.455763601123934" lon="16.879276101171353"><ele>1.0</ele><time>2026-05-01T13:31:48Z</time></trkpt><trkpt lat="40.45572773745474" lon="16.87936579638436"><ele>1.0</ele><time>2026-05-01T13:31:52Z</time></trkpt><trkpt lat="40.455922744414686" lon="16.87974045117621"><ele>1.0</ele><time>2026-05-01T13:31:55Z</time></trkpt><trkpt lat="40.455943609537165" lon="16.87991591661827"><ele>0.9999999999999999</ele><time>2026-05-01T13:31:57Z</time></trkpt><trkpt lat="40.4559772880984" lon="16.880001833038623"><ele>1.0</ele><time>2026-05-01T13:31:59Z</time></trkpt><trkpt lat="40.45602072841521" lon="16.880089412860983"><ele>1.0</ele><time>2026-05-01T13:32:02Z</time></trkpt><trkpt lat="40.45606686376657" lon="16.88019121008979"><ele>1.0</ele><time>2026-05-01T13:32:04Z</time></trkpt><trkpt lat="40.45609748817189" lon="16.880277792701108"><ele>0.9999999999999999</ele><time>2026-05-01T13:32:06Z</time></trkpt><trkpt lat="40.456127103125475" lon="16.88036538651523"><ele>1.0</ele><time>2026-05-01T13:32:09Z</time></trkpt><trkpt lat="40.456172978300245" lon="16.88042934812669"><ele>1.1428571428571428</ele><time>2026-05-01T13:32:12.001Z</time></trkpt><trkpt lat="40.456182051860665" lon="16.88052135865856"><ele>1.2857142857142856</ele><time>2026-05-01T13:32:20Z</time></trkpt><trkpt lat="40.45620597725978" lon="16.880605708931196"><ele>1.4285714285714284</ele><time>2026-05-01T13:32:25Z</time></trkpt><trkpt lat="40.45623044153757" lon="16.88070297870017"><ele>1.5714285714285714</ele><time>2026-05-01T13:32:31Z</time></trkpt><trkpt lat="40.456252349427" lon="16.88079844474232"><ele>1.714285714285714</ele><time>2026-05-01T13:32:38Z</time></trkpt><trkpt lat="40.45627204699273" lon="16.88088614733802"><ele>1.857142857142857</ele><time>2026-05-01T13:32:44Z</time></trkpt><trkpt lat="40.45629613255423" lon="16.880964114583332"><ele>2.0</ele><time>2026-05-01T13:32:49Z</time></trkpt><trkpt lat="40.456388000547136" lon="16.88089258926271"><ele>1.9999999999999998</ele><time>2026-05-01T13:33:06Z</time></trkpt><trkpt lat="40.456463289111895" lon="16.880806237533037"><ele>2.0</ele><time>2026-05-01T13:33:09Z</time></trkpt><trkpt lat="40.456534738362336" lon="16.880764446897206"><ele>2.0</ele><time>2026-05-01T13:33:12Z</time></trkpt><trkpt lat="40.456564142865666" lon="16.880674526156625"><ele>2.0</ele><time>2026-05-01T13:34:09Z</time></trkpt><trkpt lat="40.45649479635803" lon="16.88062432583912"><ele>1.9999999999999998</ele><time>2026-05-01T13:34:13Z</time></trkpt><trkpt lat="40.45654274856024" lon="16.880684896347226"><ele>2.0</ele><time>2026-05-01T13:38:17.999Z</time></trkpt><trkpt lat="40.45662173354408" lon="16.88060583960348"><ele>2.0</ele><time>2026-05-01T13:38:35Z</time></trkpt><trkpt lat="40.45667141638384" lon="16.88065689123537"><ele>1.9999999999999998</ele><time>2026-05-01T13:38:56Z</time></trkpt><trkpt lat="40.45673371464662" lon="16.880696027322955"><ele>2.0</ele><time>2026-05-01T13:39:41Z</time></trkpt><trkpt lat="40.45677701210008" lon="16.8807938752479"><ele>2.0</ele><time>2026-05-01T13:39:48Z</time></trkpt><trkpt lat="40.4568033145965" lon="16.880872710843267"><ele>1.9999999999999998</ele><time>2026-05-01T13:39:55.999Z</time></trkpt><trkpt lat="40.45683709860572" lon="16.880957446701046"><ele>2.0</ele><time>2026-05-01T13:40:02.999Z</time></trkpt><trkpt lat="40.45686048824701" lon="16.88104859005745"><ele>2.0</ele><time>2026-05-01T13:40:06.999Z</time></trkpt><trkpt lat="40.456910119621405" lon="16.881123883350377"><ele>2.0</ele><time>2026-05-01T13:40:13.999Z</time></trkpt><trkpt lat="40.456941369452046" lon="16.881206787410576"><ele>1.9999999999999998</ele><time>2026-05-01T13:40:21.999Z</time></trkpt><trkpt lat="40.45699894871576" lon="16.881271712070067"><ele>2.0</ele><time>2026-05-01T13:40:27.999Z</time></trkpt><trkpt lat="40.45701071849386" lon="16.88135604498523"><ele>2.0</ele><time>2026-05-01T13:40:35Z</time></trkpt><trkpt lat="40.4570048240994" lon="16.88144095346307"><ele>1.9999999999999998</ele><time>2026-05-01T13:40:40Z</time></trkpt><trkpt lat="40.45697889284144" lon="16.881520860675042"><ele>2.0</ele><time>2026-05-01T13:40:46Z</time></trkpt><trkpt lat="40.456997519622256" lon="16.881600706716856"><ele>2.0</ele><time>2026-05-01T13:40:55Z</time></trkpt><trkpt lat="40.457029485690484" lon="16.881674658141776"><ele>2.0</ele><time>2026-05-01T13:41:02Z</time></trkpt><trkpt lat="40.457111808154494" lon="16.88171384302261"><ele>1.9999999999999998</ele><time>2026-05-01T13:41:08Z</time></trkpt><trkpt lat="40.4571261443553" lon="16.881801848323455"><ele>2.0</ele><time>2026-05-01T13:41:17Z</time></trkpt><trkpt lat="40.45714266451892" lon="16.88188669540722"><ele>2.0</ele><time>2026-05-01T13:41:26Z</time></trkpt><trkpt lat="40.45715148821359" lon="16.881972844580844"><ele>1.9999999999999998</ele><time>2026-05-01T13:41:46.999Z</time></trkpt><trkpt lat="40.45722524602996" lon="16.881950373968255"><ele>2.0</ele><time>2026-05-01T13:41:50.999Z</time></trkpt><trkpt lat="40.457188145188496" lon="16.882026172104155"><ele>2.0</ele><time>2026-05-01T13:41:53.999Z</time></trkpt><trkpt lat="40.457219355514106" lon="16.88212051826789"><ele>1.857142857142857</ele><time>2026-05-01T13:42:06.999Z</time></trkpt><trkpt lat="40.45726851467366" lon="16.882191675030867"><ele>1.714285714285714</ele><time>2026-05-01T13:42:12.999Z</time></trkpt><trkpt lat="40.45732584554251" lon="16.882253915849258"><ele>1.5714285714285714</ele><time>2026-05-01T13:42:22.999Z</time></trkpt><trkpt lat="40.45729597372545" lon="16.882326788618975"><ele>1.4285714285714284</ele><time>2026-05-01T13:42:32.999Z</time></trkpt><trkpt lat="40.45730397630401" lon="16.882233210033778"><ele>1.2857142857142856</ele><time>2026-05-01T13:43:54.999Z</time></trkpt><trkpt lat="40.45730989072837" lon="16.88214904203105"><ele>1.1428571428571428</ele><time>2026-05-01T13:44:04.999Z</time></trkpt><trkpt lat="40.45735166805798" lon="16.88208631389193"><ele>1.0</ele><time>2026-05-01T13:44:11.999Z</time></trkpt><trkpt lat="40.457404422299774" lon="16.882035871626023"><ele>0.9999999999999999</ele><time>2026-05-01T13:44:22.999Z</time></trkpt><trkpt lat="40.457464935206744" lon="16.88198414143341"><ele>1.0</ele><time>2026-05-01T13:44:27.999Z</time></trkpt><trkpt lat="40.457543083318704" lon="16.88200317494896"><ele>1.0</ele><time>2026-05-01T13:44:37.999Z</time></trkpt><trkpt lat="40.45759546253357" lon="16.88193601912598"><ele>1.0</ele><time>2026-05-01T13:44:46Z</time></trkpt><trkpt lat="40.457694778512064" lon="16.881910332182592"><ele>0.9999999999999999</ele><time>2026-05-01T13:45:26Z</time></trkpt><trkpt lat="40.457590731529" lon="16.881913581281587"><ele>1.0</ele><time>2026-05-01T13:45:48Z</time></trkpt><trkpt lat="40.457542723930914" lon="16.881817091447957"><ele>1.0</ele><time>2026-05-01T13:46:00.999Z</time></trkpt><trkpt lat="40.45750878246335" lon="16.881895041717566"><ele>0.9999999999999999</ele><time>2026-05-01T13:46:16.999Z</time></trkpt><trkpt lat="40.45744676002085" lon="16.881923442543904"><ele>1.0</ele><time>2026-05-01T13:46:28.999Z</time></trkpt><trkpt lat="40.45738394564341" lon="16.881901126194244"><ele>1.0</ele><time>2026-05-01T13:46:34.999Z</time></trkpt><trkpt lat="40.45732118856582" lon="16.88189428882766"><ele>0.9999999999999999</ele><time>2026-05-01T13:46:44.999Z</time></trkpt><trkpt lat="40.457252449776085" lon="16.88185882582446"><ele>1.0</ele><time>2026-05-01T13:46:50.999Z</time></trkpt><trkpt lat="40.457192298931034" lon="16.881824522128106"><ele>1.0</ele><time>2026-05-01T13:46:58Z</time></trkpt><trkpt lat="40.457153246967714" lon="16.881758263417133"><ele>1.0</ele><time>2026-05-01T13:47:06Z</time></trkpt><trkpt lat="40.45707580771603" lon="16.881781844987895"><ele>0.9999999999999999</ele><time>2026-05-01T13:47:29Z</time></trkpt><trkpt lat="40.45705023694832" lon="16.881864059222092"><ele>1.0</ele><time>2026-05-01T13:47:36Z</time></trkpt><trkpt lat="40.457006052818784" lon="16.88192326878045"><ele>1.0</ele><time>2026-05-01T13:47:48Z</time></trkpt><trkpt lat="40.457014453431476" lon="16.882016294011947"><ele>0.9999999999999999</ele><time>2026-05-01T13:47:54.999Z</time></trkpt><trkpt lat="40.45696398634661" lon="16.88207090820599"><ele>1.0</ele><time>2026-05-01T13:48:09.999Z</time></trkpt><trkpt lat="40.4568688543335" lon="16.882054795264512"><ele>1.0</ele><time>2026-05-01T13:48:34.999Z</time></trkpt><trkpt lat="40.45691429884563" lon="16.882117749502743"><ele>1.0</ele><time>2026-05-01T13:49:01Z</time></trkpt><trkpt lat="40.45694069632947" lon="16.882195883444147"><ele>0.9999999999999999</ele><time>2026-05-01T13:49:43Z</time></trkpt><trkpt lat="40.45689955923612" lon="16.882125990408017"><ele>1.0</ele><time>2026-05-01T13:50:06.999Z</time></trkpt><trkpt lat="40.45693932327883" lon="16.88205529809094"><ele>1.0</ele><time>2026-05-01T13:50:25.999Z</time></trkpt><trkpt lat="40.4570456003797" lon="16.882047919588764"><ele>0.9999999999999999</ele><time>2026-05-01T13:50:37.999Z</time></trkpt><trkpt lat="40.457103389790085" lon="16.882092458122173"><ele>1.0</ele><time>2026-05-01T13:50:43.999Z</time></trkpt><trkpt lat="40.457158867166804" lon="16.882135514349404"><ele>1.0</ele><time>2026-05-01T13:50:50.999Z</time></trkpt><trkpt lat="40.457108664313196" lon="16.882076997182665"><ele>1.0</ele><time>2026-05-01T13:52:20Z</time></trkpt><trkpt lat="40.45707009333808" lon="16.88199857319396"><ele>0.9999999999999999</ele><time>2026-05-01T13:52:26Z</time></trkpt><trkpt lat="40.45712276582646" lon="16.88208691859436"><ele>1.0</ele><time>2026-05-01T13:52:28.999Z</time></trkpt><trkpt lat="40.45716063619247" lon="16.882157285675977"><ele>1.0</ele><time>2026-05-01T13:52:34.999Z</time></trkpt><trkpt lat="40.457121838963445" lon="16.882090789990244"><ele>0.9999999999999999</ele><time>2026-05-01T13:52:43.999Z</time></trkpt><trkpt lat="40.45706157722556" lon="16.882052646749504"><ele>1.0</ele><time>2026-05-01T13:53:07.999Z</time></trkpt><trkpt lat="40.456996792559664" lon="16.882046058889987"><ele>1.0</ele><time>2026-05-01T13:53:32Z</time></trkpt><trkpt lat="40.45692871214335" lon="16.882048079591666"><ele>1.0</ele><time>2026-05-01T13:53:42Z</time></trkpt><trkpt lat="40.45693600729553" lon="16.88213569589612"><ele>0.9999999999999999</ele><time>2026-05-01T13:57:44Z</time></trkpt><trkpt lat="40.456967727685374" lon="16.88221897761541"><ele>1.0</ele><time>2026-05-01T13:57:50Z</time></trkpt><trkpt lat="40.45690853394367" lon="16.88225464213832"><ele>1.0</ele><time>2026-05-01T13:57:55Z</time></trkpt><trkpt lat="40.45697552338861" lon="16.882223324482275"><ele>0.9999999999999999</ele><time>2026-05-01T13:57:57Z</time></trkpt><trkpt lat="40.45706136448517" lon="16.88220135946726"><ele>1.0</ele><time>2026-05-01T13:58:10Z</time></trkpt><trkpt lat="40.456999239430054" lon="16.882244974323683"><ele>1.0</ele><time>2026-05-01T14:00:16Z</time></trkpt><trkpt lat="40.4570619741891" lon="16.882205503818632"><ele>1.0</ele><time>2026-05-01T14:05:50.999Z</time></trkpt><trkpt lat="40.457120560047066" lon="16.882155541779102"><ele>0.9999999999999999</ele><time>2026-05-01T14:05:55.999Z</time></trkpt><trkpt lat="40.457183932198426" lon="16.88212676027352"><ele>1.0</ele><time>2026-05-01T14:06:01.999Z</time></trkpt><trkpt lat="40.45711523651486" lon="16.882127467191392"><ele>1.0</ele><time>2026-05-01T14:06:45.999Z</time></trkpt><trkpt lat="40.45718671071611" lon="16.882174506547113"><ele>0.9999999999999999</ele><time>2026-05-01T14:06:50.999Z</time></trkpt><trkpt lat="40.45713122370914" lon="16.882131908010237"><ele>1.0</ele><time>2026-05-01T14:07:29.999Z</time></trkpt><trkpt lat="40.457066942853224" lon="16.882164268763447"><ele>1.0</ele><time>2026-05-01T14:07:34.999Z</time></trkpt><trkpt lat="40.45701247015019" lon="16.88221317719197"><ele>1.0</ele><time>2026-05-01T14:07:40.999Z</time></trkpt><trkpt lat="40.45699822166591" lon="16.88211846720942"><ele>0.9999999999999999</ele><time>2026-05-01T14:27:54Z</time></trkpt><trkpt lat="40.456998313480796" lon="16.882216292220715"><ele>1.0</ele><time>2026-05-01T14:28:04Z</time></trkpt><trkpt lat="40.45706456142937" lon="16.882176149373134"><ele>1.0</ele><time>2026-05-01T14:28:21Z</time></trkpt><trkpt lat="40.45711625158693" lon="16.88212294203797"><ele>0.9999999999999999</ele><time>2026-05-01T14:28:27Z</time></trkpt><trkpt lat="40.457187955336316" lon="16.882145238045922"><ele>1.0</ele><time>2026-05-01T14:28:34Z</time></trkpt><trkpt lat="40.457257270656385" lon="16.882148932272912"><ele>1.0</ele><time>2026-05-01T14:28:42Z</time></trkpt><trkpt lat="40.45732053537125" lon="16.882150273967564"><ele>1.0</ele><time>2026-05-01T14:28:49Z</time></trkpt><trkpt lat="40.45739316137134" lon="16.88214149688877"><ele>0.9999999999999999</ele><time>2026-05-01T14:28:57Z</time></trkpt><trkpt lat="40.45745547120714" lon="16.882115048604206"><ele>1.0</ele><time>2026-05-01T14:29:02Z</time></trkpt><trkpt lat="40.45752206337782" lon="16.882058041171376"><ele>1.0</ele><time>2026-05-01T14:29:09Z</time></trkpt><trkpt lat="40.45757311423555" lon="16.882107292648698"><ele>0.9999999999999999</ele><time>2026-05-01T14:29:17Z</time></trkpt><trkpt lat="40.457517985834116" lon="16.88217059658334"><ele>1.0</ele><time>2026-05-01T14:30:35Z</time></trkpt><trkpt lat="40.45746664538543" lon="16.882120020605907"><ele>1.0</ele><time>2026-05-01T14:30:46Z</time></trkpt><trkpt lat="40.45740272459804" lon="16.88215633531631"><ele>1.0</ele><time>2026-05-01T14:30:51Z</time></trkpt><trkpt lat="40.457340183836145" lon="16.882184838010136"><ele>0.9999999999999999</ele><time>2026-05-01T14:30:57Z</time></trkpt><trkpt lat="40.45730897907166" lon="16.88227412174859"><ele>1.0</ele><time>2026-05-01T14:31:08Z</time></trkpt><trkpt lat="40.4573055457815" lon="16.882361091609837"><ele>1.0</ele><time>2026-05-01T14:31:18Z</time></trkpt><trkpt lat="40.45723975042735" lon="16.8823788569693"><ele>0.9999999999999999</ele><time>2026-05-01T14:31:47Z</time></trkpt><trkpt lat="40.457193689642345" lon="16.882470338288474"><ele>1.0</ele><time>2026-05-01T14:31:55Z</time></trkpt><trkpt lat="40.45722106354797" lon="16.882545798407502"><ele>1.0</ele><time>2026-05-01T14:32:07Z</time></trkpt><trkpt lat="40.457180435021634" lon="16.8826171297797"><ele>1.0</ele><time>2026-05-01T14:32:15Z</time></trkpt><trkpt lat="40.457124374098676" lon="16.882679209646057"><ele>0.9999999999999999</ele><time>2026-05-01T14:33:36Z</time></trkpt><trkpt lat="40.457142166148564" lon="16.882595553538117"><ele>1.0</ele><time>2026-05-01T14:34:19Z</time></trkpt><trkpt lat="40.45718451754814" lon="16.882530747032924"><ele>1.0</ele><time>2026-05-01T14:34:27Z</time></trkpt><trkpt lat="40.45720626102598" lon="16.88242711961729"><ele>0.9999999999999999</ele><time>2026-05-01T14:34:34Z</time></trkpt><trkpt lat="40.45721027242705" lon="16.882331534310826"><ele>1.0</ele><time>2026-05-01T14:34:45Z</time></trkpt><trkpt lat="40.45726833032555" lon="16.882289385198778"><ele>1.0</ele><time>2026-05-01T14:34:52Z</time></trkpt><trkpt lat="40.4572319971373" lon="16.88221176819336"><ele>0.9999999999999999</ele><time>2026-05-01T14:35:03Z</time></trkpt><trkpt lat="40.45717189249812" lon="16.882160971288265"><ele>1.0</ele><time>2026-05-01T14:35:05Z</time></trkpt><trkpt lat="40.457252330152215" lon="16.88217982622135"><ele>1.0</ele><time>2026-05-01T14:35:16Z</time></trkpt><trkpt lat="40.4573275826326" lon="16.882229952094104"><ele>1.0</ele><time>2026-05-01T14:35:27Z</time></trkpt><trkpt lat="40.457275684179145" lon="16.88231301877555"><ele>0.9999999999999999</ele><time>2026-05-01T14:35:32Z</time></trkpt><trkpt lat="40.45720497414874" lon="16.882314553651444"><ele>1.0</ele><time>2026-05-01T14:35:37.999Z</time></trkpt><trkpt lat="40.457094579662936" lon="16.882264151622845"><ele>1.0</ele><time>2026-05-01T14:35:59Z</time></trkpt><trkpt lat="40.45716540942938" lon="16.882266985180404"><ele>0.9999999999999999</ele><time>2026-05-01T14:36:05Z</time></trkpt><trkpt lat="40.45720029773986" lon="16.882184881026113"><ele>1.0</ele><time>2026-05-01T14:37:42.999Z</time></trkpt><trkpt lat="40.45713703129" lon="16.88209241968371"><ele>1.0</ele><time>2026-05-01T14:37:47.999Z</time></trkpt><trkpt lat="40.457174058792994" lon="16.88201811047161"><ele>0.9999999999999999</ele><time>2026-05-01T14:37:58Z</time></trkpt><trkpt lat="40.45715077237407" lon="16.881940475468273"><ele>1.0</ele><time>2026-05-01T14:38:06Z</time></trkpt><trkpt lat="40.45712557918819" lon="16.881857922394968"><ele>1.0</ele><time>2026-05-01T14:38:13Z</time></trkpt><trkpt lat="40.45709295670118" lon="16.881768328956852"><ele>1.1428571428571428</ele><time>2026-05-01T14:38:24Z</time></trkpt><trkpt lat="40.45702786483131" lon="16.881739147069297"><ele>1.2857142857142856</ele><time>2026-05-01T14:38:33Z</time></trkpt><trkpt lat="40.45700429210889" lon="16.88165726840277"><ele>1.4285714285714284</ele><time>2026-05-01T14:38:40Z</time></trkpt><trkpt lat="40.45696503802198" lon="16.881577803823813"><ele>1.5714285714285714</ele><time>2026-05-01T14:38:46Z</time></trkpt><trkpt lat="40.45695517630003" lon="16.88149479637176"><ele>1.714285714285714</ele><time>2026-05-01T14:38:53Z</time></trkpt><trkpt lat="40.45698877071664" lon="16.88142029815088"><ele>1.857142857142857</ele><time>2026-05-01T14:39:01Z</time></trkpt><trkpt lat="40.45699042374295" lon="16.881336642971657"><ele>2.0</ele><time>2026-05-01T14:39:06Z</time></trkpt><trkpt lat="40.456974688763175" lon="16.88125636913994"><ele>2.0</ele><time>2026-05-01T14:39:13Z</time></trkpt><trkpt lat="40.45693279631894" lon="16.881191870809065"><ele>1.9999999999999998</ele><time>2026-05-01T14:39:19Z</time></trkpt><trkpt lat="40.45690195894117" lon="16.881118769495373"><ele>2.0</ele><time>2026-05-01T14:39:24.999Z</time></trkpt><trkpt lat="40.45687935387262" lon="16.881032077563486"><ele>2.0</ele><time>2026-05-01T14:39:30.999Z</time></trkpt><trkpt lat="40.456829395468525" lon="16.880971485107523"><ele>1.9999999999999998</ele><time>2026-05-01T14:39:34.999Z</time></trkpt><trkpt lat="40.45681074347404" lon="16.880891529482124"><ele>2.0</ele><time>2026-05-01T14:39:41.999Z</time></trkpt><trkpt lat="40.45676339691005" lon="16.880827154467383"><ele>2.0</ele><time>2026-05-01T14:39:46.999Z</time></trkpt><trkpt lat="40.45671259934664" lon="16.880761040015795"><ele>1.9999999999999998</ele><time>2026-05-01T14:39:52.999Z</time></trkpt><trkpt lat="40.45666413896854" lon="16.880684681544107"><ele>2.0</ele><time>2026-05-01T14:39:59.999Z</time></trkpt><trkpt lat="40.45664418749868" lon="16.88059189762729"><ele>2.0</ele><time>2026-05-01T14:40:09Z</time></trkpt><trkpt lat="40.4565637962881" lon="16.880667181228404"><ele>2.0</ele><time>2026-05-01T14:40:13Z</time></trkpt><trkpt lat="40.456471103052465" lon="16.880641869514964"><ele>1.9999999999999998</ele><time>2026-05-01T14:44:04.999Z</time></trkpt><trkpt lat="40.45641947710029" lon="16.880695813305138"><ele>2.0</ele><time>2026-05-01T14:53:42Z</time></trkpt><trkpt lat="40.45636689754667" lon="16.88074706666825"><ele>2.0</ele><time>2026-05-01T14:53:45Z</time></trkpt><trkpt lat="40.456311376728436" lon="16.88080351719028"><ele>1.9999999999999998</ele><time>2026-05-01T14:53:49Z</time></trkpt><trkpt lat="40.456233686371014" lon="16.88078178220335"><ele>2.0</ele><time>2026-05-01T14:53:53Z</time></trkpt><trkpt lat="40.45620536742684" lon="16.88070325725749"><ele>2.0</ele><time>2026-05-01T14:53:57Z</time></trkpt><trkpt lat="40.456167194749895" lon="16.88063457068318"><ele>1.9999999999999998</ele><time>2026-05-01T14:54:13.999Z</time></trkpt><trkpt lat="40.456148164174316" lon="16.880533199460285"><ele>2.0</ele><time>2026-05-01T14:54:15.999Z</time></trkpt><trkpt lat="40.456102541098126" lon="16.88044786571114"><ele>2.0</ele><time>2026-05-01T14:54:17.999Z</time></trkpt><trkpt lat="40.45605618766924" lon="16.880318234993847"><ele>1.9999999999999998</ele><time>2026-05-01T14:54:19.999Z</time></trkpt><trkpt lat="40.456012400819645" lon="16.880213800572758"><ele>2.0</ele><time>2026-05-01T14:54:22.999Z</time></trkpt><trkpt lat="40.455971798889244" lon="16.88010593692344"><ele>2.0</ele><time>2026-05-01T14:54:25.999Z</time></trkpt><trkpt lat="40.45593911616473" lon="16.880007043019067"><ele>2.0</ele><time>2026-05-01T14:54:28.999Z</time></trkpt><trkpt lat="40.45590979875183" lon="16.879931345246135"><ele>1.9999999999999998</ele><time>2026-05-01T14:54:30.999Z</time></trkpt><trkpt lat="40.45589064360369" lon="16.87984731779925"><ele>2.0</ele><time>2026-05-01T14:54:32.999Z</time></trkpt><trkpt lat="40.45588392938343" lon="16.879759066930074"><ele>1.8333333333333333</ele><time>2026-05-01T14:54:34.999Z</time></trkpt><trkpt lat="40.455878561039974" lon="16.87967105891507"><ele>1.6666666666666665</ele><time>2026-05-01T14:54:36.999Z</time></trkpt><trkpt lat="40.45587320508705" lon="16.879547175846152"><ele>1.5</ele><time>2026-05-01T14:54:39.999Z</time></trkpt><trkpt lat="40.455862833887004" lon="16.879464042524962"><ele>1.3333333333333333</ele><time>2026-05-01T14:54:41.999Z</time></trkpt><trkpt lat="40.45581704070608" lon="16.879367107876636"><ele>1.1666666666666665</ele><time>2026-05-01T14:54:44.999Z</time></trkpt><trkpt lat="40.455726342847186" lon="16.879340523999716"><ele>1.0</ele><time>2026-05-01T14:54:47.999Z</time></trkpt><trkpt lat="40.45566680333792" lon="16.87938092278451"><ele>0.9999999999999999</ele><time>2026-05-01T14:54:49.999Z</time></trkpt><trkpt lat="40.455590532832026" lon="16.879451455093484"><ele>1.0</ele><time>2026-05-01T14:54:52.999Z</time></trkpt><trkpt lat="40.45551741630207" lon="16.87953211511907"><ele>1.0</ele><time>2026-05-01T14:54:55.999Z</time></trkpt><trkpt lat="40.45544492640707" lon="16.879605379938702"><ele>1.0</ele><time>2026-05-01T14:54:57.999Z</time></trkpt><trkpt lat="40.45539148883327" lon="16.879658510537656"><ele>0.9999999999999999</ele><time>2026-05-01T14:54:59.999Z</time></trkpt><trkpt lat="40.45533040824619" lon="16.87972084710208"><ele>1.0</ele><time>2026-05-01T14:55:01.999Z</time></trkpt><trkpt lat="40.455268860039396" lon="16.87978140778841"><ele>1.1666666666666665</ele><time>2026-05-01T14:55:03.999Z</time></trkpt><trkpt lat="40.45521314894206" lon="16.879839879241825"><ele>1.3333333333333333</ele><time>2026-05-01T14:55:06.999Z</time></trkpt><trkpt lat="40.45516083253693" lon="16.87989548906947"><ele>1.5</ele><time>2026-05-01T14:55:08.999Z</time></trkpt><trkpt lat="40.45508874060079" lon="16.87997169496083"><ele>1.6666666666666665</ele><time>2026-05-01T14:55:11.999Z</time></trkpt><trkpt lat="40.45503700280059" lon="16.880027874669654"><ele>1.8333333333333333</ele><time>2026-05-01T14:55:13.999Z</time></trkpt><trkpt lat="40.45495904200325" lon="16.88010552125063"><ele>2.0</ele><time>2026-05-01T14:55:15.999Z</time></trkpt><trkpt lat="40.45488888442674" lon="16.88018325849766"><ele>1.9999999999999998</ele><time>2026-05-01T14:55:17.999Z</time></trkpt><trkpt lat="40.45483395535419" lon="16.880252400637545"><ele>2.0</ele><time>2026-05-01T14:55:19.999Z</time></trkpt><trkpt lat="40.45477723089986" lon="16.88031518728338"><ele>2.0</ele><time>2026-05-01T14:55:21.999Z</time></trkpt><trkpt lat="40.454702142836936" lon="16.880387909300843"><ele>2.0</ele><time>2026-05-01T14:55:24.999Z</time></trkpt><trkpt lat="40.45464015234339" lon="16.88045300728011"><ele>1.9999999999999998</ele><time>2026-05-01T14:55:26.999Z</time></trkpt><trkpt lat="40.4545780423598" lon="16.88051899904501"><ele>2.0</ele><time>2026-05-01T14:55:28.999Z</time></trkpt><trkpt lat="40.454521788815754" lon="16.8805806555304"><ele>1.9999999999999998</ele><time>2026-05-01T14:55:30.999Z</time></trkpt><trkpt lat="40.45446405070928" lon="16.88063853430944"><ele>2.0</ele><time>2026-05-01T14:55:32.999Z</time></trkpt><trkpt lat="40.45440098794015" lon="16.880707235980115"><ele>2.0</ele><time>2026-05-01T14:55:35.999Z</time></trkpt><trkpt lat="40.45433143950857" lon="16.880781440120423"><ele>2.0</ele><time>2026-05-01T14:55:38.999Z</time></trkpt><trkpt lat="40.45425626599927" lon="16.880859613573158"><ele>1.9999999999999998</ele><time>2026-05-01T14:55:41.999Z</time></trkpt><trkpt lat="40.45418483985315" lon="16.880918659910733"><ele>2.0</ele><time>2026-05-01T14:55:43.999Z</time></trkpt><trkpt lat="40.45412843267295" lon="16.880985190668476"><ele>1.9999999999999998</ele><time>2026-05-01T14:55:45.999Z</time></trkpt><trkpt lat="40.4540785476801" lon="16.881037236258937"><ele>2.0</ele><time>2026-05-01T14:55:47.999Z</time></trkpt><trkpt lat="40.45401471051217" lon="16.88111077511756"><ele>2.0</ele><time>2026-05-01T14:55:50.999Z</time></trkpt><trkpt lat="40.45395503311426" lon="16.88117272241897"><ele>2.0</ele><time>2026-05-01T14:55:53.999Z</time></trkpt><trkpt lat="40.45387307976128" lon="16.881261696929446"><ele>1.9999999999999998</ele><time>2026-05-01T14:55:56.999Z</time></trkpt><trkpt lat="40.4538021830724" lon="16.881349941559215"><ele>2.0</ele><time>2026-05-01T14:55:58.999Z</time></trkpt><trkpt lat="40.453720213893234" lon="16.88144103951677"><ele>1.9999999999999998</ele><time>2026-05-01T14:56:00.999Z</time></trkpt><trkpt lat="40.453661434530304" lon="16.881493007676273"><ele>2.0</ele><time>2026-05-01T14:56:02.999Z</time></trkpt><trkpt lat="40.45360920285462" lon="16.881547250113652"><ele>2.0</ele><time>2026-05-01T14:56:04.999Z</time></trkpt><trkpt lat="40.453539861912745" lon="16.881619126363976"><ele>2.0</ele><time>2026-05-01T14:56:07.999Z</time></trkpt><trkpt lat="40.453469416843134" lon="16.881690277640107"><ele>1.9999999999999998</ele><time>2026-05-01T14:56:09.999Z</time></trkpt><trkpt lat="40.453422100202495" lon="16.88174756971634"><ele>2.0</ele><time>2026-05-01T14:56:10.999Z</time></trkpt><trkpt lat="40.45335241803331" lon="16.881824947400823"><ele>1.8</ele><time>2026-05-01T14:56:12.999Z</time></trkpt><trkpt lat="40.45325392215844" lon="16.881882242286636"><ele>1.6</ele><time>2026-05-01T14:56:14.999Z</time></trkpt><trkpt lat="40.45320034153563" lon="16.881961894962952"><ele>1.4000000000000001</ele><time>2026-05-01T14:56:16.999Z</time></trkpt><trkpt lat="40.45312341551798" lon="16.882018833372612"><ele>1.2000000000000002</ele><time>2026-05-01T14:56:18.999Z</time></trkpt><trkpt lat="40.45303566544318" lon="16.882111569410572"><ele>1.0</ele><time>2026-05-01T14:56:20.999Z</time></trkpt><trkpt lat="40.452980545121996" lon="16.882170059144556"><ele>0.9999999999999999</ele><time>2026-05-01T14:56:22.999Z</time></trkpt><trkpt lat="40.452920624715816" lon="16.882233642460054"><ele>1.0</ele><time>2026-05-01T14:56:24.999Z</time></trkpt><trkpt lat="40.45286905817738" lon="16.882288361230955"><ele>1.0</ele><time>2026-05-01T14:56:26.999Z</time></trkpt><trkpt lat="40.452831356107296" lon="16.882356228215293"><ele>1.0</ele><time>2026-05-01T14:56:28.999Z</time></trkpt><trkpt lat="40.452754040240166" lon="16.882438376136378"><ele>0.9999999999999999</ele><time>2026-05-01T14:56:31.999Z</time></trkpt><trkpt lat="40.45268483092448" lon="16.88251138900131"><ele>1.0</ele><time>2026-05-01T14:56:33.999Z</time></trkpt><trkpt lat="40.452605542594405" lon="16.88256798519173"><ele>0.9999999999999999</ele><time>2026-05-01T14:56:35.999Z</time></trkpt><trkpt lat="40.452557105336204" lon="16.88264577920747"><ele>1.0</ele><time>2026-05-01T14:56:37.999Z</time></trkpt><trkpt lat="40.45248702403545" lon="16.88269411006784"><ele>1.0</ele><time>2026-05-01T14:56:40.999Z</time></trkpt><trkpt lat="40.45243612397656" lon="16.882773177343076"><ele>1.0</ele><time>2026-05-01T14:56:43.999Z</time></trkpt><trkpt lat="40.45237849338505" lon="16.882828928976203"><ele>0.9999999999999999</ele><time>2026-05-01T14:56:45.999Z</time></trkpt><trkpt lat="40.4522937616011" lon="16.88291808707072"><ele>1.0</ele><time>2026-05-01T14:56:47.999Z</time></trkpt><trkpt lat="40.452221958846096" lon="16.882996487466922"><ele>1.0</ele><time>2026-05-01T14:56:49.999Z</time></trkpt><trkpt lat="40.45213961674005" lon="16.88308569556925"><ele>1.0</ele><time>2026-05-01T14:56:51.997Z</time></trkpt><trkpt lat="40.452062218686436" lon="16.883172813110086"><ele>1.0</ele><time>2026-05-01T14:56:54.997Z</time></trkpt><trkpt lat="40.45199594485376" lon="16.88323836282428"><ele>1.0</ele><time>2026-05-01T14:56:56.997Z</time></trkpt><trkpt lat="40.45190028600359" lon="16.88332063613573"><ele>1.0</ele><time>2026-05-01T14:56:58.997Z</time></trkpt><trkpt lat="40.45185270798026" lon="16.883391940539223"><ele>1.0</ele><time>2026-05-01T14:57:00.997Z</time></trkpt><trkpt lat="40.45178889110686" lon="16.88346570514563"><ele>1.0</ele><time>2026-05-01T14:57:03.998Z</time></trkpt><trkpt lat="40.4517153129115" lon="16.883540640083805"><ele>1.0</ele><time>2026-05-01T14:57:05.998Z</time></trkpt><trkpt lat="40.45163025563052" lon="16.883631854018724"><ele>1.0</ele><time>2026-05-01T14:57:07.998Z</time></trkpt><trkpt lat="40.45154292858655" lon="16.88370687932457"><ele>1.0</ele><time>2026-05-01T14:57:09.998Z</time></trkpt><trkpt lat="40.4514909745848" lon="16.883786091744323"><ele>1.0</ele><time>2026-05-01T14:57:11.998Z</time></trkpt><trkpt lat="40.45141167152213" lon="16.883876991314064"><ele>1.0</ele><time>2026-05-01T14:57:13.998Z</time></trkpt><trkpt lat="40.45133299329924" lon="16.883935195161648"><ele>1.0</ele><time>2026-05-01T14:57:15.998Z</time></trkpt><trkpt lat="40.45126136639535" lon="16.884013093251287"><ele>1.0</ele><time>2026-05-01T14:57:17.998Z</time></trkpt><trkpt lat="40.451178077121085" lon="16.88410367477569"><ele>1.0</ele><time>2026-05-01T14:57:19.998Z</time></trkpt><trkpt lat="40.451107489606436" lon="16.884203786436363"><ele>1.4</ele><time>2026-05-01T14:57:21.998Z</time></trkpt><trkpt lat="40.4510252509226" lon="16.884294259080576"><ele>1.8</ele><time>2026-05-01T14:57:23.998Z</time></trkpt><trkpt lat="40.45094249493312" lon="16.884354183914724"><ele>2.1999999999999997</ele><time>2026-05-01T14:57:25.998Z</time></trkpt><trkpt lat="40.45086217657311" lon="16.88443927100433"><ele>2.6</ele><time>2026-05-01T14:57:27.999Z</time></trkpt><trkpt lat="40.450810805660105" lon="16.88452012263431"><ele>3.0</ele><time>2026-05-01T14:57:29.999Z</time></trkpt><trkpt lat="40.450739998219525" lon="16.884597883409548"><ele>3.0</ele><time>2026-05-01T14:57:31.999Z</time></trkpt><trkpt lat="40.45066368430803" lon="16.88467133843565"><ele>3.0</ele><time>2026-05-01T14:57:33.999Z</time></trkpt><trkpt lat="40.45060190727654" lon="16.884738910762653"><ele>3.0</ele><time>2026-05-01T14:57:36.999Z</time></trkpt><trkpt lat="40.4505364064792" lon="16.884789295822053"><ele>3.0</ele><time>2026-05-01T14:57:38.999Z</time></trkpt><trkpt lat="40.4504722440903" lon="16.884884347321552"><ele>3.0</ele><time>2026-05-01T14:57:40.999Z</time></trkpt><trkpt lat="40.45037327515549" lon="16.884985600159926"><ele>2.6</ele><time>2026-05-01T14:57:42.999Z</time></trkpt><trkpt lat="40.45029202755595" lon="16.88504570974324"><ele>2.1999999999999997</ele><time>2026-05-01T14:57:44.999Z</time></trkpt><trkpt lat="40.45020381061694" lon="16.885137954139918"><ele>1.8</ele><time>2026-05-01T14:57:46.999Z</time></trkpt><trkpt lat="40.45015581753758" lon="16.8852170737508"><ele>1.4</ele><time>2026-05-01T14:57:47.999Z</time></trkpt><trkpt lat="40.450062083675455" lon="16.88531535156537"><ele>1.0</ele><time>2026-05-01T14:57:49.999Z</time></trkpt><trkpt lat="40.44999360891165" lon="16.885362545309352"><ele>1.0</ele><time>2026-05-01T14:57:51.999Z</time></trkpt><trkpt lat="40.44993697817008" lon="16.885421147816697"><ele>1.0</ele><time>2026-05-01T14:57:53.999Z</time></trkpt><trkpt lat="40.44986865078499" lon="16.88549096115045"><ele>1.0</ele><time>2026-05-01T14:57:56.999Z</time></trkpt><trkpt lat="40.449811987507815" lon="16.885553249124964"><ele>1.0</ele><time>2026-05-01T14:57:59.999Z</time></trkpt><trkpt lat="40.44975350054978" lon="16.88560360628353"><ele>1.0</ele><time>2026-05-01T14:58:02.999Z</time></trkpt><trkpt lat="40.44966188510105" lon="16.885442623425952"><ele>1.0</ele><time>2026-05-01T14:58:04.999Z</time></trkpt><trkpt lat="40.449582275984" lon="16.885354188550924"><ele>1.0</ele><time>2026-05-01T14:58:05.999Z</time></trkpt><trkpt lat="40.44948847686942" lon="16.88525231480202"><ele>1.0</ele><time>2026-05-01T14:58:06.999Z</time></trkpt><trkpt lat="40.44937699317766" lon="16.8851314731855"><ele>1.0</ele><time>2026-05-01T14:58:07.999Z</time></trkpt><trkpt lat="40.44926421450454" lon="16.885009227885718"><ele>1.3333333333333333</ele><time>2026-05-01T14:58:08.999Z</time></trkpt><trkpt lat="40.449130551186556" lon="16.884864345990707"><ele>1.6666666666666665</ele><time>2026-05-01T14:58:09.999Z</time></trkpt><trkpt lat="40.448988801824065" lon="16.88470593351218"><ele>2.0</ele><time>2026-05-01T14:58:10.999Z</time></trkpt><trkpt lat="40.4488557885321" lon="16.884558605820256"><ele>2.0</ele><time>2026-05-01T14:58:11.999Z</time></trkpt><trkpt lat="40.44873497456533" lon="16.88442479031539"><ele>2.0</ele><time>2026-05-01T14:58:12.999Z</time></trkpt><trkpt lat="40.448628647184115" lon="16.88430867694241"><ele>2.0</ele><time>2026-05-01T14:58:13.999Z</time></trkpt><trkpt lat="40.44851592986182" lon="16.88418418934156"><ele>2.0</ele><time>2026-05-01T14:58:14.999Z</time></trkpt><trkpt lat="40.448390694656304" lon="16.8840462125279"><ele>2.6666666666666665</ele><time>2026-05-01T14:58:15.999Z</time></trkpt><trkpt lat="40.44825036870604" lon="16.88389305761333"><ele>3.333333333333333</ele><time>2026-05-01T14:58:16.999Z</time></trkpt><trkpt lat="40.44810944182371" lon="16.883736206209058"><ele>4.0</ele><time>2026-05-01T14:58:17.999Z</time></trkpt><trkpt lat="40.44796890332717" lon="16.883581698826706"><ele>3.333333333333333</ele><time>2026-05-01T14:58:18.999Z</time></trkpt><trkpt lat="40.44783619045998" lon="16.883435442910535"><ele>2.6666666666666665</ele><time>2026-05-01T14:58:19.999Z</time></trkpt><trkpt lat="40.44771469504977" lon="16.883300999167723"><ele>2.0</ele><time>2026-05-01T14:58:20.999Z</time></trkpt><trkpt lat="40.44758901483684" lon="16.88317440953496"><ele>2.0</ele><time>2026-05-01T14:58:21.999Z</time></trkpt><trkpt lat="40.44744251518929" lon="16.883073389978957"><ele>2.0</ele><time>2026-05-01T14:58:22.999Z</time></trkpt><trkpt lat="40.44728825866237" lon="16.882985399651343"><ele>2.0</ele><time>2026-05-01T14:58:23.999Z</time></trkpt><trkpt lat="40.44710094140317" lon="16.882934243799937"><ele>2.0</ele><time>2026-05-01T14:58:24.999Z</time></trkpt><trkpt lat="40.446904613380404" lon="16.882916223792584"><ele>2.0</ele><time>2026-05-01T14:58:25.999Z</time></trkpt><trkpt lat="40.44670505084631" lon="16.88287069656161"><ele>2.0</ele><time>2026-05-01T14:58:26.999Z</time></trkpt><trkpt lat="40.44652936006682" lon="16.88284222345315"><ele>2.0</ele><time>2026-05-01T14:58:27.999Z</time></trkpt><trkpt lat="40.44637171045968" lon="16.88281747633329"><ele>2.0</ele><time>2026-05-01T14:58:28.999Z</time></trkpt><trkpt lat="40.446198664867865" lon="16.882791007549297"><ele>2.0</ele><time>2026-05-01T14:58:29.999Z</time></trkpt><trkpt lat="40.446004442706304" lon="16.882780500764166"><ele>2.0</ele><time>2026-05-01T14:58:30.999Z</time></trkpt><trkpt lat="40.44581652443" lon="16.882736804853643"><ele>2.0</ele><time>2026-05-01T14:58:31.999Z</time></trkpt><trkpt lat="40.44564999851584" lon="16.88264464405169"><ele>2.0</ele><time>2026-05-01T14:58:32.999Z</time></trkpt><trkpt lat="40.445485649790484" lon="16.88253910378439"><ele>2.0</ele><time>2026-05-01T14:58:33.999Z</time></trkpt><trkpt lat="40.44531702420092" lon="16.882396555763158"><ele>2.0</ele><time>2026-05-01T14:58:34.999Z</time></trkpt><trkpt lat="40.44514442764164" lon="16.88223180632628"><ele>2.0</ele><time>2026-05-01T14:58:35.999Z</time></trkpt><trkpt lat="40.44498640034048" lon="16.882080100234223"><ele>2.0</ele><time>2026-05-01T14:58:36.999Z</time></trkpt><trkpt lat="40.44483050913117" lon="16.88194905168278"><ele>2.0</ele><time>2026-05-01T14:58:37.999Z</time></trkpt><trkpt lat="40.44467297498634" lon="16.881769948532675"><ele>2.0</ele><time>2026-05-01T14:58:38.999Z</time></trkpt><trkpt lat="40.44450836375687" lon="16.881610024140844"><ele>2.333333333333333</ele><time>2026-05-01T14:58:39.999Z</time></trkpt><trkpt lat="40.44435300485819" lon="16.881459236206222"><ele>2.6666666666666665</ele><time>2026-05-01T14:58:40.999Z</time></trkpt><trkpt lat="40.444200654643765" lon="16.881309959013226"><ele>3.0</ele><time>2026-05-01T14:58:41.999Z</time></trkpt><trkpt lat="40.44403844968555" lon="16.881150634024372"><ele>3.0</ele><time>2026-05-01T14:58:42.999Z</time></trkpt><trkpt lat="40.44388196529257" lon="16.880997943413565"><ele>3.0</ele><time>2026-05-01T14:58:43.999Z</time></trkpt><trkpt lat="40.443717353775796" lon="16.880837601395235"><ele>3.0</ele><time>2026-05-01T14:58:44.999Z</time></trkpt><trkpt lat="40.44356569017593" lon="16.880695615497412"><ele>3.333333333333333</ele><time>2026-05-01T14:58:45.999Z</time></trkpt><trkpt lat="40.44341257088493" lon="16.8805685259057"><ele>3.6666666666666665</ele><time>2026-05-01T14:58:46.999Z</time></trkpt><trkpt lat="40.443238528870495" lon="16.88046389724559"><ele>4.0</ele><time>2026-05-01T14:58:47.999Z</time></trkpt><trkpt lat="40.44306557458485" lon="16.880398156293552"><ele>3.6666666666666665</ele><time>2026-05-01T14:58:48.999Z</time></trkpt><trkpt lat="40.44290653763408" lon="16.8803568857634"><ele>3.333333333333333</ele><time>2026-05-01T14:58:49.999Z</time></trkpt><trkpt lat="40.44273632641445" lon="16.880307109816947"><ele>3.0</ele><time>2026-05-01T14:58:50.999Z</time></trkpt><trkpt lat="40.44260391669385" lon="16.88024605490992"><ele>3.0</ele><time>2026-05-01T14:58:51.999Z</time></trkpt><trkpt lat="40.442501897049304" lon="16.880164736171704"><ele>3.0</ele><time>2026-05-01T14:58:52.999Z</time></trkpt><trkpt lat="40.442411045596046" lon="16.88007189177873"><ele>3.0</ele><time>2026-05-01T14:58:53.999Z</time></trkpt><trkpt lat="40.44232122321437" lon="16.879964269834918"><ele>3.0</ele><time>2026-05-01T14:58:54.999Z</time></trkpt><trkpt lat="40.44223914960271" lon="16.879854552840627"><ele>3.0</ele><time>2026-05-01T14:58:55.999Z</time></trkpt><trkpt lat="40.442148193407576" lon="16.879734476599744"><ele>3.0</ele><time>2026-05-01T14:58:56.996Z</time></trkpt><trkpt lat="40.44208583323428" lon="16.879651566807194"><ele>3.0</ele><time>2026-05-01T14:58:57.996Z</time></trkpt><trkpt lat="40.44201986053489" lon="16.879561964848797"><ele>3.0</ele><time>2026-05-01T14:58:58.996Z</time></trkpt><trkpt lat="40.441956467620976" lon="16.879475866636206"><ele>3.0</ele><time>2026-05-01T14:58:59.996Z</time></trkpt><trkpt lat="40.441901503398924" lon="16.879401215984092"><ele>3.0</ele><time>2026-05-01T14:59:00.996Z</time></trkpt><trkpt lat="40.44184767587428" lon="16.879328109165602"><ele>3.0</ele><time>2026-05-01T14:59:02.996Z</time></trkpt><trkpt lat="40.44178311617302" lon="16.879240426277406"><ele>3.0</ele><time>2026-05-01T14:59:43.999Z</time></trkpt><trkpt lat="40.44173501192955" lon="16.87917541364276"><ele>3.0</ele><time>2026-05-01T14:59:44.999Z</time></trkpt><trkpt lat="40.44169780615916" lon="16.879106762405875"><ele>3.0</ele><time>2026-05-01T14:59:46.999Z</time></trkpt><trkpt lat="40.44176410328554" lon="16.87897629351985"><ele>3.0</ele><time>2026-05-01T14:59:48.999Z</time></trkpt><trkpt lat="40.44180934175983" lon="16.878912956419036"><ele>3.0</ele><time>2026-05-01T14:59:49.999Z</time></trkpt><trkpt lat="40.44187559002941" lon="16.87884047859396"><ele>3.0</ele><time>2026-05-01T14:59:50.999Z</time></trkpt><trkpt lat="40.44196151401337" lon="16.87876705577766"><ele>3.0</ele><time>2026-05-01T14:59:51.999Z</time></trkpt><trkpt lat="40.442070655356126" lon="16.87867284565001"><ele>3.0</ele><time>2026-05-01T14:59:52.999Z</time></trkpt><trkpt lat="40.442196255672734" lon="16.878565568787998"><ele>3.0</ele><time>2026-05-01T14:59:53.999Z</time></trkpt><trkpt lat="40.44233397944792" lon="16.87842837273722"><ele>3.0</ele><time>2026-05-01T14:59:54.999Z</time></trkpt><trkpt lat="40.44245564018739" lon="16.878302885960327"><ele>3.0</ele><time>2026-05-01T14:59:55.999Z</time></trkpt><trkpt lat="40.44259305406061" lon="16.87816303259508"><ele>3.0</ele><time>2026-05-01T14:59:56.999Z</time></trkpt><trkpt lat="40.44274162010112" lon="16.878024560171895"><ele>3.0</ele><time>2026-05-01T14:59:57.999Z</time></trkpt><trkpt lat="40.44288188657531" lon="16.877890092103105"><ele>3.0</ele><time>2026-05-01T14:59:58.999Z</time></trkpt><trkpt lat="40.443026645283354" lon="16.87774510336778"><ele>3.333333333333333</ele><time>2026-05-01T14:59:59.999Z</time></trkpt><trkpt lat="40.44317717326313" lon="16.877588629532738"><ele>3.6666666666666665</ele><time>2026-05-01T15:00:00.999Z</time></trkpt><trkpt lat="40.44332979148362" lon="16.877443445808083"><ele>4.0</ele><time>2026-05-01T15:00:01.999Z</time></trkpt><trkpt lat="40.443475441009475" lon="16.877304158584586"><ele>4.0</ele><time>2026-05-01T15:00:02.999Z</time></trkpt><trkpt lat="40.44362459945905" lon="16.87715916557321"><ele>4.0</ele><time>2026-05-01T15:00:03.999Z</time></trkpt><trkpt lat="40.44377621249177" lon="16.877009601772105"><ele>4.0</ele><time>2026-05-01T15:00:04.999Z</time></trkpt><trkpt lat="40.443924470859876" lon="16.876865459575544"><ele>3.6666666666666665</ele><time>2026-05-01T15:00:05.999Z</time></trkpt><trkpt lat="40.444074620669" lon="16.876727390351068"><ele>3.333333333333333</ele><time>2026-05-01T15:00:06.999Z</time></trkpt><trkpt lat="40.44421648232896" lon="16.876596043641513"><ele>3.0</ele><time>2026-05-01T15:00:07.999Z</time></trkpt><trkpt lat="40.44435932240094" lon="16.876458094725667"><ele>3.0</ele><time>2026-05-01T15:00:08.999Z</time></trkpt><trkpt lat="40.44450637320929" lon="16.87631737616249"><ele>3.0</ele><time>2026-05-01T15:00:09.999Z</time></trkpt><trkpt lat="40.444657544751365" lon="16.876170063035488"><ele>3.0</ele><time>2026-05-01T15:00:10.999Z</time></trkpt><trkpt lat="40.44481180578571" lon="16.87601669171741"><ele>3.0</ele><time>2026-05-01T15:00:11.999Z</time></trkpt><trkpt lat="40.44496966581791" lon="16.875864315035546"><ele>3.0</ele><time>2026-05-01T15:00:12.999Z</time></trkpt><trkpt lat="40.445123766502505" lon="16.875713044834274"><ele>3.0</ele><time>2026-05-01T15:00:13.999Z</time></trkpt><trkpt lat="40.445287360664885" lon="16.875553037503025"><ele>3.0</ele><time>2026-05-01T15:00:14.999Z</time></trkpt><trkpt lat="40.445441491772584" lon="16.87540530194146"><ele>3.0</ele><time>2026-05-01T15:00:15.999Z</time></trkpt><trkpt lat="40.445591984837" lon="16.875263377086345"><ele>3.0</ele><time>2026-05-01T15:00:16.999Z</time></trkpt><trkpt lat="40.44574507321797" lon="16.875117399721116"><ele>2.6666666666666665</ele><time>2026-05-01T15:00:17.999Z</time></trkpt><trkpt lat="40.44589826516382" lon="16.874971503204225"><ele>2.333333333333333</ele><time>2026-05-01T15:00:18.999Z</time></trkpt><trkpt lat="40.4460506977466" lon="16.874829207677035"><ele>2.0</ele><time>2026-05-01T15:00:19.999Z</time></trkpt><trkpt lat="40.446203208706095" lon="16.87468623554284"><ele>2.0</ele><time>2026-05-01T15:00:20.999Z</time></trkpt><trkpt lat="40.44636021272708" lon="16.874529811092692"><ele>2.0</ele><time>2026-05-01T15:00:21.999Z</time></trkpt><trkpt lat="40.44651888617126" lon="16.87437225989173"><ele>2.0</ele><time>2026-05-01T15:00:22.999Z</time></trkpt><trkpt lat="40.44668090341332" lon="16.874218426976007"><ele>2.0</ele><time>2026-05-01T15:00:23.999Z</time></trkpt><trkpt lat="40.44684549378029" lon="16.8740608089505"><ele>2.0</ele><time>2026-05-01T15:00:24.999Z</time></trkpt><trkpt lat="40.447009402759946" lon="16.873904467201328"><ele>2.0</ele><time>2026-05-01T15:00:25.999Z</time></trkpt><trkpt lat="40.447170518902354" lon="16.873751510103553"><ele>2.0</ele><time>2026-05-01T15:00:26.999Z</time></trkpt><trkpt lat="40.44733182671822" lon="16.873629275022402"><ele>2.0</ele><time>2026-05-01T15:00:27.999Z</time></trkpt><trkpt lat="40.44749964823955" lon="16.873477171370553"><ele>2.0</ele><time>2026-05-01T15:00:28.999Z</time></trkpt><trkpt lat="40.447679311799696" lon="16.873268749140028"><ele>2.0</ele><time>2026-05-01T15:00:29.999Z</time></trkpt><trkpt lat="40.447852958756975" lon="16.873092485953013"><ele>2.0</ele><time>2026-05-01T15:00:30.999Z</time></trkpt><trkpt lat="40.44802995798561" lon="16.872918184405975"><ele>2.0</ele><time>2026-05-01T15:00:31.999Z</time></trkpt><trkpt lat="40.44820685115154" lon="16.87274478979625"><ele>2.0</ele><time>2026-05-01T15:00:32.999Z</time></trkpt><trkpt lat="40.44839014240022" lon="16.872565360427135"><ele>2.0</ele><time>2026-05-01T15:00:33.999Z</time></trkpt><trkpt lat="40.448579411702944" lon="16.8723840225734"><ele>2.0</ele><time>2026-05-01T15:00:34.999Z</time></trkpt><trkpt lat="40.44875707424748" lon="16.872212957176995"><ele>2.0</ele><time>2026-05-01T15:00:35.999Z</time></trkpt><trkpt lat="40.4489250915229" lon="16.872052685245094"><ele>2.0</ele><time>2026-05-01T15:00:36.999Z</time></trkpt><trkpt lat="40.44909846765825" lon="16.871886003638444"><ele>2.0</ele><time>2026-05-01T15:00:37.999Z</time></trkpt><trkpt lat="40.44926189028207" lon="16.871726843313027"><ele>2.0</ele><time>2026-05-01T15:00:38.999Z</time></trkpt><trkpt lat="40.44941941034626" lon="16.871575601889912"><ele>2.0</ele><time>2026-05-01T15:00:39.999Z</time></trkpt><trkpt lat="40.44958212417041" lon="16.871416401450386"><ele>2.0</ele><time>2026-05-01T15:00:40.999Z</time></trkpt><trkpt lat="40.44974839298732" lon="16.871258989663026"><ele>2.0</ele><time>2026-05-01T15:00:41.999Z</time></trkpt><trkpt lat="40.449921279571385" lon="16.871097225658517"><ele>2.0</ele><time>2026-05-01T15:00:42.999Z</time></trkpt><trkpt lat="40.45009757266554" lon="16.870931932754985"><ele>2.0</ele><time>2026-05-01T15:00:43.999Z</time></trkpt><trkpt lat="40.450257199712354" lon="16.87077351137564"><ele>2.0</ele><time>2026-05-01T15:00:44.999Z</time></trkpt><trkpt lat="40.450407668738926" lon="16.87062437031386"><ele>2.0</ele><time>2026-05-01T15:00:45.999Z</time></trkpt><trkpt lat="40.45053379106373" lon="16.870501197381678"><ele>2.0</ele><time>2026-05-01T15:00:46.999Z</time></trkpt><trkpt lat="40.450676308502636" lon="16.870386449776603"><ele>2.0</ele><time>2026-05-01T15:00:48Z</time></trkpt><trkpt lat="40.45079828200176" lon="16.870246086721203"><ele>2.0</ele><time>2026-05-01T15:00:49Z</time></trkpt><trkpt lat="40.450925632585225" lon="16.87014689673468"><ele>2.25</ele><time>2026-05-01T15:00:50Z</time></trkpt><trkpt lat="40.45104314666481" lon="16.870033551313863"><ele>2.5</ele><time>2026-05-01T15:00:51Z</time></trkpt><trkpt lat="40.451160913087286" lon="16.869919749121973"><ele>2.75</ele><time>2026-05-01T15:00:52Z</time></trkpt><trkpt lat="40.45126622464722" lon="16.86981798259383"><ele>3.0</ele><time>2026-05-01T15:00:53Z</time></trkpt><trkpt lat="40.4513790809766" lon="16.86970892523623"><ele>3.333333333333333</ele><time>2026-05-01T15:00:54Z</time></trkpt><trkpt lat="40.451502435485004" lon="16.869590039199483"><ele>3.6666666666666665</ele><time>2026-05-01T15:00:55Z</time></trkpt><trkpt lat="40.45162430725215" lon="16.86947280610564"><ele>4.0</ele><time>2026-05-01T15:00:56Z</time></trkpt><trkpt lat="40.45174227804072" lon="16.86935932546222"><ele>4.0</ele><time>2026-05-01T15:00:57Z</time></trkpt><trkpt lat="40.451871843788" lon="16.869234691243506"><ele>4.0</ele><time>2026-05-01T15:00:58Z</time></trkpt><trkpt lat="40.45198424584711" lon="16.869126567443057"><ele>4.0</ele><time>2026-05-01T15:00:59Z</time></trkpt><trkpt lat="40.45209348290412" lon="16.869021007225523"><ele>4.0</ele><time>2026-05-01T15:01:00Z</time></trkpt><trkpt lat="40.452209528445984" lon="16.868908363538186"><ele>4.0</ele><time>2026-05-01T15:01:01Z</time></trkpt><trkpt lat="40.45231155602792" lon="16.868782616210638"><ele>4.0</ele><time>2026-05-01T15:01:02Z</time></trkpt><trkpt lat="40.45241839402136" lon="16.868682351066354"><ele>4.0</ele><time>2026-05-01T15:01:02.999Z</time></trkpt><trkpt lat="40.45252104198804" lon="16.868584326752128"><ele>4.0</ele><time>2026-05-01T15:01:03.999Z</time></trkpt><trkpt lat="40.452630365931846" lon="16.868475797801153"><ele>4.2</ele><time>2026-05-01T15:01:04.999Z</time></trkpt><trkpt lat="40.45273524446104" lon="16.86837391681802"><ele>4.4</ele><time>2026-05-01T15:01:05.999Z</time></trkpt><trkpt lat="40.45282871776968" lon="16.868298357769852"><ele>4.6</ele><time>2026-05-01T15:01:06.999Z</time></trkpt><trkpt lat="40.452896111726005" lon="16.86822073689278"><ele>4.8</ele><time>2026-05-01T15:01:07.999Z</time></trkpt><trkpt lat="40.45296806664395" lon="16.868156362415228"><ele>5.0</ele><time>2026-05-01T15:01:08.999Z</time></trkpt><trkpt lat="40.45305345258807" lon="16.868089042514626"><ele>5.666666666666667</ele><time>2026-05-01T15:01:09.999Z</time></trkpt><trkpt lat="40.453109654861784" lon="16.86801042389512"><ele>6.333333333333334</ele><time>2026-05-01T15:01:10.999Z</time></trkpt><trkpt lat="40.45316670571638" lon="16.8679710611903"><ele>7.0</ele><time>2026-05-01T15:01:11.999Z</time></trkpt><trkpt lat="40.45322586648087" lon="16.867917712299445"><ele>7.666666666666667</ele><time>2026-05-01T15:01:12.999Z</time></trkpt><trkpt lat="40.45331000046128" lon="16.86784560127249"><ele>8.333333333333334</ele><time>2026-05-01T15:01:13.999Z</time></trkpt><trkpt lat="40.45340178856761" lon="16.867759773069334"><ele>9.0</ele><time>2026-05-01T15:01:14.999Z</time></trkpt><trkpt lat="40.45349748486542" lon="16.86765114287905"><ele>9.0</ele><time>2026-05-01T15:01:15.999Z</time></trkpt><trkpt lat="40.45360321011318" lon="16.86753743560443"><ele>9.0</ele><time>2026-05-01T15:01:16.999Z</time></trkpt><trkpt lat="40.45372253957738" lon="16.867418861325113"><ele>9.0</ele><time>2026-05-01T15:01:17.999Z</time></trkpt><trkpt lat="40.453852728038584" lon="16.867296815839193"><ele>9.0</ele><time>2026-05-01T15:01:19Z</time></trkpt><trkpt lat="40.45397917128656" lon="16.867176572093367"><ele>9.25</ele><time>2026-05-01T15:01:20Z</time></trkpt><trkpt lat="40.454102754842836" lon="16.867052241299007"><ele>9.5</ele><time>2026-05-01T15:01:21Z</time></trkpt><trkpt lat="40.45422470541788" lon="16.866936069677497"><ele>9.75</ele><time>2026-05-01T15:01:22Z</time></trkpt><trkpt lat="40.454328799097084" lon="16.86684081517838"><ele>10.0</ele><time>2026-05-01T15:01:23Z</time></trkpt><trkpt lat="40.454431147758534" lon="16.86674298513352"><ele>10.0</ele><time>2026-05-01T15:01:24Z</time></trkpt><trkpt lat="40.45453343143901" lon="16.86664022540726"><ele>10.0</ele><time>2026-05-01T15:01:25Z</time></trkpt><trkpt lat="40.45461715760499" lon="16.866561338273037"><ele>10.0</ele><time>2026-05-01T15:01:26Z</time></trkpt><trkpt lat="40.454686735023856" lon="16.86649153723383"><ele>10.0</ele><time>2026-05-01T15:01:27Z</time></trkpt><trkpt lat="40.45474227983447" lon="16.866436756711785"><ele>10.0</ele><time>2026-05-01T15:01:28Z</time></trkpt><trkpt lat="40.45483029716778" lon="16.866364046383403"><ele>10.0</ele><time>2026-05-01T15:01:30Z</time></trkpt><trkpt lat="40.45476954583552" lon="16.866123778138313"><ele>10.0</ele><time>2026-05-01T15:01:32Z</time></trkpt><trkpt lat="40.45470252748569" lon="16.866041988805716"><ele>10.0</ele><time>2026-05-01T15:01:33Z</time></trkpt><trkpt lat="40.45461443157214" lon="16.86596303006765"><ele>10.0</ele><time>2026-05-01T15:01:34Z</time></trkpt><trkpt lat="40.45452607859319" lon="16.865864125700032"><ele>9.4</ele><time>2026-05-01T15:01:35Z</time></trkpt><trkpt lat="40.45446844971492" lon="16.86574876679337"><ele>8.8</ele><time>2026-05-01T15:01:36Z</time></trkpt><trkpt lat="40.454401707574355" lon="16.86565171274199"><ele>8.2</ele><time>2026-05-01T15:01:37Z</time></trkpt><trkpt lat="40.45433637293909" lon="16.865553703607603"><ele>7.6</ele><time>2026-05-01T15:01:38Z</time></trkpt><trkpt lat="40.45428856280728" lon="16.865481840789247"><ele>7.0</ele><time>2026-05-01T15:01:39Z</time></trkpt><trkpt lat="40.45408233526992" lon="16.865631139769665"><ele>7.0</ele><time>2026-05-01T15:01:42Z</time></trkpt><trkpt lat="40.45402519798422" lon="16.86573963102217"><ele>6.999999999999999</ele><time>2026-05-01T15:01:43Z</time></trkpt><trkpt lat="40.45393966206705" lon="16.86582346490338"><ele>6.999999999999999</ele><time>2026-05-01T15:01:44Z</time></trkpt><trkpt lat="40.45384625090201" lon="16.86591269629334"><ele>7.0</ele><time>2026-05-01T15:01:45Z</time></trkpt><trkpt lat="40.45372984067123" lon="16.865924219693863"><ele>7.0</ele><time>2026-05-01T15:01:46Z</time></trkpt><trkpt lat="40.453624479246145" lon="16.86590241040042"><ele>7.75</ele><time>2026-05-01T15:01:47Z</time></trkpt><trkpt lat="40.45352855264479" lon="16.865834327221723"><ele>8.5</ele><time>2026-05-01T15:01:48Z</time></trkpt><trkpt lat="40.45343456467051" lon="16.865728974725744"><ele>9.25</ele><time>2026-05-01T15:01:49Z</time></trkpt><trkpt lat="40.45334350548026" lon="16.865574745917726"><ele>10.0</ele><time>2026-05-01T15:01:50Z</time></trkpt><trkpt lat="40.45324362305778" lon="16.865418954031032"><ele>10.0</ele><time>2026-05-01T15:01:51Z</time></trkpt><trkpt lat="40.45312609445663" lon="16.86525371772238"><ele>10.0</ele><time>2026-05-01T15:01:52Z</time></trkpt><trkpt lat="40.45300757858703" lon="16.865080264439325"><ele>10.0</ele><time>2026-05-01T15:01:53Z</time></trkpt><trkpt lat="40.45288660210249" lon="16.864896369166534"><ele>10.333333333333334</ele><time>2026-05-01T15:01:54Z</time></trkpt><trkpt lat="40.45275685899314" lon="16.864700728043836"><ele>10.666666666666666</ele><time>2026-05-01T15:01:55Z</time></trkpt><trkpt lat="40.45262904078462" lon="16.86450325278794"><ele>11.0</ele><time>2026-05-01T15:01:56Z</time></trkpt><trkpt lat="40.452490027545636" lon="16.864291882157527"><ele>10.666666666666666</ele><time>2026-05-01T15:01:57Z</time></trkpt><trkpt lat="40.45234992764805" lon="16.864073449443552"><ele>10.333333333333334</ele><time>2026-05-01T15:01:58Z</time></trkpt><trkpt lat="40.45220486432173" lon="16.863844163429462"><ele>10.0</ele><time>2026-05-01T15:01:59Z</time></trkpt><trkpt lat="40.452058578717946" lon="16.86361464440945"><ele>10.0</ele><time>2026-05-01T15:02:00Z</time></trkpt><trkpt lat="40.451905579051186" lon="16.863377687966892"><ele>10.0</ele><time>2026-05-01T15:02:01Z</time></trkpt><trkpt lat="40.45174756939618" lon="16.863134604164426"><ele>10.0</ele><time>2026-05-01T15:02:02Z</time></trkpt><trkpt lat="40.45158684335178" lon="16.862886066623783"><ele>10.0</ele><time>2026-05-01T15:02:03Z</time></trkpt><trkpt lat="40.45143440442766" lon="16.862643233844196"><ele>9.5</ele><time>2026-05-01T15:02:04Z</time></trkpt><trkpt lat="40.451280039919325" lon="16.862402477107757"><ele>9.0</ele><time>2026-05-01T15:02:05Z</time></trkpt><trkpt lat="40.451121741376596" lon="16.862150669808436"><ele>9.0</ele><time>2026-05-01T15:02:06Z</time></trkpt><trkpt lat="40.450962996424806" lon="16.861904695652242"><ele>9.0</ele><time>2026-05-01T15:02:07Z</time></trkpt><trkpt lat="40.450801751155105" lon="16.861645158090187"><ele>9.5</ele><time>2026-05-01T15:02:08Z</time></trkpt><trkpt lat="40.45063759463865" lon="16.86137809455947"><ele>10.0</ele><time>2026-05-01T15:02:09Z</time></trkpt><trkpt lat="40.4504711265066" lon="16.861122261135495"><ele>10.0</ele><time>2026-05-01T15:02:10Z</time></trkpt><trkpt lat="40.4503091290391" lon="16.860868090600544"><ele>10.0</ele><time>2026-05-01T15:02:11Z</time></trkpt><trkpt lat="40.450148887812944" lon="16.860617740692483"><ele>10.0</ele><time>2026-05-01T15:02:12Z</time></trkpt><trkpt lat="40.44998426411444" lon="16.86036534903075"><ele>10.0</ele><time>2026-05-01T15:02:13Z</time></trkpt><trkpt lat="40.44982985888334" lon="16.860126062787025"><ele>9.5</ele><time>2026-05-01T15:02:14.001Z</time></trkpt><trkpt lat="40.44968306036317" lon="16.85989428316056"><ele>9.0</ele><time>2026-05-01T15:02:15.001Z</time></trkpt><trkpt lat="40.44953643705558" lon="16.859663870774494"><ele>8.5</ele><time>2026-05-01T15:02:16.001Z</time></trkpt><trkpt lat="40.44938478623449" lon="16.85942505755336"><ele>8.0</ele><time>2026-05-01T15:02:17.001Z</time></trkpt><trkpt lat="40.44922949473409" lon="16.859182543346165"><ele>9.0</ele><time>2026-05-01T15:02:18.001Z</time></trkpt><trkpt lat="40.44907495626103" lon="16.858942719209658"><ele>10.0</ele><time>2026-05-01T15:02:19.001Z</time></trkpt><trkpt lat="40.44892003469462" lon="16.858698623786093"><ele>9.5</ele><time>2026-05-01T15:02:20.001Z</time></trkpt><trkpt lat="40.44876963067381" lon="16.85845168792869"><ele>9.0</ele><time>2026-05-01T15:02:21.001Z</time></trkpt><trkpt lat="40.44861314205678" lon="16.8582076164642"><ele>8.5</ele><time>2026-05-01T15:02:22.001Z</time></trkpt><trkpt lat="40.448459175923865" lon="16.857970814130237"><ele>8.0</ele><time>2026-05-01T15:02:23.001Z</time></trkpt><trkpt lat="40.44831104622753" lon="16.857735035682687"><ele>8.5</ele><time>2026-05-01T15:02:24.001Z</time></trkpt><trkpt lat="40.44815625659204" lon="16.857493868136515"><ele>9.0</ele><time>2026-05-01T15:02:25.001Z</time></trkpt><trkpt lat="40.448005685854646" lon="16.85726297174879"><ele>8.5</ele><time>2026-05-01T15:02:26.001Z</time></trkpt><trkpt lat="40.44785344652813" lon="16.857019321791054"><ele>8.0</ele><time>2026-05-01T15:02:27.001Z</time></trkpt><trkpt lat="40.447707631186134" lon="16.85679109920985"><ele>8.5</ele><time>2026-05-01T15:02:28.001Z</time></trkpt><trkpt lat="40.447556097116156" lon="16.85655473017447"><ele>9.0</ele><time>2026-05-01T15:02:29.001Z</time></trkpt><trkpt lat="40.447404062143065" lon="16.85631769940281"><ele>9.0</ele><time>2026-05-01T15:02:30.001Z</time></trkpt><trkpt lat="40.44725894223583" lon="16.85608428925372"><ele>9.0</ele><time>2026-05-01T15:02:31.001Z</time></trkpt><trkpt lat="40.447114942252675" lon="16.855847856878885"><ele>9.0</ele><time>2026-05-01T15:02:32.001Z</time></trkpt><trkpt lat="40.44696449176732" lon="16.85561294186132"><ele>9.0</ele><time>2026-05-01T15:02:33.001Z</time></trkpt><trkpt lat="40.4468102406936" lon="16.855374828397636"><ele>9.0</ele><time>2026-05-01T15:02:34.001Z</time></trkpt><trkpt lat="40.44665962207564" lon="16.855142226257925"><ele>9.0</ele><time>2026-05-01T15:02:35.001Z</time></trkpt><trkpt lat="40.44651055006138" lon="16.854911966559364"><ele>9.0</ele><time>2026-05-01T15:02:36.001Z</time></trkpt><trkpt lat="40.44635761469329" lon="16.8546782639967"><ele>9.0</ele><time>2026-05-01T15:02:37.001Z</time></trkpt><trkpt lat="40.44620686057299" lon="16.854439370317706"><ele>9.0</ele><time>2026-05-01T15:02:38.001Z</time></trkpt><trkpt lat="40.44605467241534" lon="16.854201191882115"><ele>9.0</ele><time>2026-05-01T15:02:39.001Z</time></trkpt><trkpt lat="40.445897741213976" lon="16.853953269588768"><ele>9.0</ele><time>2026-05-01T15:02:40.001Z</time></trkpt><trkpt lat="40.44573493443931" lon="16.853697573610113"><ele>9.0</ele><time>2026-05-01T15:02:41.001Z</time></trkpt><trkpt lat="40.44556997263567" lon="16.853433104716988"><ele>9.0</ele><time>2026-05-01T15:02:42.001Z</time></trkpt><trkpt lat="40.44540336369785" lon="16.853169621727478"><ele>9.0</ele><time>2026-05-01T15:02:43.001Z</time></trkpt><trkpt lat="40.44523429385013" lon="16.85290583115889"><ele>9.0</ele><time>2026-05-01T15:02:44.001Z</time></trkpt><trkpt lat="40.445064748080995" lon="16.85263606715705"><ele>9.0</ele><time>2026-05-01T15:02:45.001Z</time></trkpt><trkpt lat="40.44489287593212" lon="16.85236968931679"><ele>9.5</ele><time>2026-05-01T15:02:46.001Z</time></trkpt><trkpt lat="40.44472347955167" lon="16.85210512284152"><ele>10.0</ele><time>2026-05-01T15:02:47.001Z</time></trkpt><trkpt lat="40.44455797882693" lon="16.85184079169356"><ele>10.0</ele><time>2026-05-01T15:02:48.001Z</time></trkpt><trkpt lat="40.444384474750336" lon="16.851573236472927"><ele>10.0</ele><time>2026-05-01T15:02:49.001Z</time></trkpt><trkpt lat="40.44422090948811" lon="16.85131126517461"><ele>10.0</ele><time>2026-05-01T15:02:50.001Z</time></trkpt><trkpt lat="40.444050779642716" lon="16.85104705855467"><ele>10.0</ele><time>2026-05-01T15:02:51.001Z</time></trkpt><trkpt lat="40.443881612629994" lon="16.85078345900499"><ele>10.0</ele><time>2026-05-01T15:02:52.001Z</time></trkpt><trkpt lat="40.443716322962885" lon="16.850520108729235"><ele>10.0</ele><time>2026-05-01T15:02:53.001Z</time></trkpt><trkpt lat="40.44354806033724" lon="16.85025643909741"><ele>10.5</ele><time>2026-05-01T15:02:54.001Z</time></trkpt><trkpt lat="40.443384225696256" lon="16.849994869468585"><ele>11.0</ele><time>2026-05-01T15:02:55.001Z</time></trkpt><trkpt lat="40.44321610873042" lon="16.849731720132244"><ele>11.0</ele><time>2026-05-01T15:02:56.001Z</time></trkpt><trkpt lat="40.443046473597306" lon="16.849470478098954"><ele>11.0</ele><time>2026-05-01T15:02:57.001Z</time></trkpt><trkpt lat="40.44288150496909" lon="16.849210514449354"><ele>10.5</ele><time>2026-05-01T15:02:58.001Z</time></trkpt><trkpt lat="40.44272589641682" lon="16.848961429337255"><ele>10.0</ele><time>2026-05-01T15:02:59.001Z</time></trkpt><trkpt lat="40.44257738705637" lon="16.848722507448542"><ele>10.0</ele><time>2026-05-01T15:03:00.001Z</time></trkpt><trkpt lat="40.44242243594329" lon="16.848487747075833"><ele>10.0</ele><time>2026-05-01T15:03:01.001Z</time></trkpt><trkpt lat="40.44227053756409" lon="16.848250208444217"><ele>9.0</ele><time>2026-05-01T15:03:02.001Z</time></trkpt><trkpt lat="40.442120813492714" lon="16.848016681012215"><ele>8.0</ele><time>2026-05-01T15:03:03.001Z</time></trkpt><trkpt lat="40.44197575966438" lon="16.847782303349884"><ele>9.0</ele><time>2026-05-01T15:03:04.001Z</time></trkpt><trkpt lat="40.44181660808733" lon="16.847531052321077"><ele>10.0</ele><time>2026-05-01T15:03:05.001Z</time></trkpt><trkpt lat="40.44166763458817" lon="16.847295592027255"><ele>10.0</ele><time>2026-05-01T15:03:06.001Z</time></trkpt><trkpt lat="40.44151143920896" lon="16.84705148996715"><ele>10.0</ele><time>2026-05-01T15:03:07.001Z</time></trkpt><trkpt lat="40.44135244041702" lon="16.846804070623747"><ele>9.5</ele><time>2026-05-01T15:03:08.001Z</time></trkpt><trkpt lat="40.44119091372359" lon="16.846558080855317"><ele>9.0</ele><time>2026-05-01T15:03:09Z</time></trkpt><trkpt lat="40.441036265392036" lon="16.846305404928874"><ele>9.0</ele><time>2026-05-01T15:03:10Z</time></trkpt><trkpt lat="40.44088341757337" lon="16.84606375062468"><ele>9.0</ele><time>2026-05-01T15:03:11Z</time></trkpt><trkpt lat="40.440727570807056" lon="16.845816294274435"><ele>9.0</ele><time>2026-05-01T15:03:12Z</time></trkpt><trkpt lat="40.44056810567602" lon="16.845563385424843"><ele>9.0</ele><time>2026-05-01T15:03:13Z</time></trkpt><trkpt lat="40.44040559841765" lon="16.84530798104527"><ele>9.5</ele><time>2026-05-01T15:03:14Z</time></trkpt><trkpt lat="40.44024377681755" lon="16.845054428585907"><ele>10.0</ele><time>2026-05-01T15:03:15Z</time></trkpt><trkpt lat="40.4400757381251" lon="16.84480092735744"><ele>10.0</ele><time>2026-05-01T15:03:16Z</time></trkpt><trkpt lat="40.43991365412129" lon="16.844542594673968"><ele>10.0</ele><time>2026-05-01T15:03:17Z</time></trkpt><trkpt lat="40.439746894822214" lon="16.844273724651295"><ele>10.5</ele><time>2026-05-01T15:03:18Z</time></trkpt><trkpt lat="40.439587122504676" lon="16.844018424128816"><ele>11.0</ele><time>2026-05-01T15:03:19Z</time></trkpt><trkpt lat="40.43943932140966" lon="16.843742525769887"><ele>11.0</ele><time>2026-05-01T15:03:20Z</time></trkpt><trkpt lat="40.43926935209907" lon="16.843501551830002"><ele>11.0</ele><time>2026-05-01T15:03:21Z</time></trkpt><trkpt lat="40.439100807751956" lon="16.843249596476365"><ele>11.0</ele><time>2026-05-01T15:03:22Z</time></trkpt><trkpt lat="40.438937892846305" lon="16.842995370245106"><ele>11.0</ele><time>2026-05-01T15:03:23Z</time></trkpt><trkpt lat="40.43877731107521" lon="16.84274197437171"><ele>11.0</ele><time>2026-05-01T15:03:24Z</time></trkpt><trkpt lat="40.438624191609726" lon="16.842502866542755"><ele>11.0</ele><time>2026-05-01T15:03:25Z</time></trkpt><trkpt lat="40.43846541160925" lon="16.84225386902855"><ele>11.0</ele><time>2026-05-01T15:03:26Z</time></trkpt><trkpt lat="40.438308981434524" lon="16.842008134638192"><ele>11.0</ele><time>2026-05-01T15:03:27Z</time></trkpt><trkpt lat="40.438159504126034" lon="16.84177742177766"><ele>11.5</ele><time>2026-05-01T15:03:28Z</time></trkpt><trkpt lat="40.438003185276294" lon="16.841542487223215"><ele>12.0</ele><time>2026-05-01T15:03:29Z</time></trkpt><trkpt lat="40.43785610125606" lon="16.84130470300335"><ele>12.0</ele><time>2026-05-01T15:03:30Z</time></trkpt><trkpt lat="40.4376979423013" lon="16.841062060079754"><ele>12.0</ele><time>2026-05-01T15:03:31Z</time></trkpt><trkpt lat="40.43752754523991" lon="16.84081239984641"><ele>11.0</ele><time>2026-05-01T15:03:32Z</time></trkpt><trkpt lat="40.43738188394819" lon="16.840578802558767"><ele>10.0</ele><time>2026-05-01T15:03:33Z</time></trkpt><trkpt lat="40.43722359532288" lon="16.84033757455037"><ele>10.0</ele><time>2026-05-01T15:03:34Z</time></trkpt><trkpt lat="40.4370679772242" lon="16.840089149057594"><ele>10.0</ele><time>2026-05-01T15:03:35Z</time></trkpt><trkpt lat="40.43691292951423" lon="16.83984468440496"><ele>10.0</ele><time>2026-05-01T15:03:36Z</time></trkpt><trkpt lat="40.43677255465726" lon="16.83961026580538"><ele>10.0</ele><time>2026-05-01T15:03:37.001Z</time></trkpt><trkpt lat="40.43663605610147" lon="16.83938621561763"><ele>10.0</ele><time>2026-05-01T15:03:38.001Z</time></trkpt><trkpt lat="40.436491576193795" lon="16.83916208436191"><ele>10.0</ele><time>2026-05-01T15:03:39.001Z</time></trkpt><trkpt lat="40.43633800068864" lon="16.838920123771537"><ele>10.0</ele><time>2026-05-01T15:03:40.001Z</time></trkpt><trkpt lat="40.43618627887837" lon="16.838680701049164"><ele>9.0</ele><time>2026-05-01T15:03:41.001Z</time></trkpt><trkpt lat="40.43603329558358" lon="16.838440303234826"><ele>8.0</ele><time>2026-05-01T15:03:42.001Z</time></trkpt><trkpt lat="40.435878421533104" lon="16.838194968169038"><ele>8.0</ele><time>2026-05-01T15:03:43.001Z</time></trkpt><trkpt lat="40.4357226197481" lon="16.83794994483568"><ele>8.0</ele><time>2026-05-01T15:03:44.001Z</time></trkpt><trkpt lat="40.435565915524464" lon="16.837698351236714"><ele>8.0</ele><time>2026-05-01T15:03:45.001Z</time></trkpt><trkpt lat="40.43540947789451" lon="16.83745766408961"><ele>8.0</ele><time>2026-05-01T15:03:46.001Z</time></trkpt><trkpt lat="40.43525316865537" lon="16.837215607598093"><ele>8.0</ele><time>2026-05-01T15:03:47.001Z</time></trkpt><trkpt lat="40.435098886401654" lon="16.836973361316883"><ele>8.0</ele><time>2026-05-01T15:03:48.001Z</time></trkpt><trkpt lat="40.43495064938877" lon="16.83673676028324"><ele>8.0</ele><time>2026-05-01T15:03:49.001Z</time></trkpt><trkpt lat="40.43480863736942" lon="16.836506983908013"><ele>8.0</ele><time>2026-05-01T15:03:50.001Z</time></trkpt><trkpt lat="40.43470832847183" lon="16.8363266656104"><ele>8.0</ele><time>2026-05-01T15:03:51.001Z</time></trkpt><trkpt lat="40.43456209044976" lon="16.836101594228968"><ele>7.5</ele><time>2026-05-01T15:03:52.001Z</time></trkpt><trkpt lat="40.43440063355839" lon="16.835870755123253"><ele>7.0</ele><time>2026-05-01T15:03:53.001Z</time></trkpt><trkpt lat="40.43425040359889" lon="16.835636546163357"><ele>7.0</ele><time>2026-05-01T15:03:54.001Z</time></trkpt><trkpt lat="40.43410013456003" lon="16.83539613446536"><ele>7.0</ele><time>2026-05-01T15:03:55.001Z</time></trkpt><trkpt lat="40.43395860324274" lon="16.835163889807298"><ele>7.666666666666667</ele><time>2026-05-01T15:03:56.001Z</time></trkpt><trkpt lat="40.43381154757976" lon="16.83494144609757"><ele>8.333333333333334</ele><time>2026-05-01T15:03:57.001Z</time></trkpt><trkpt lat="40.433677923576084" lon="16.834721717782763"><ele>9.0</ele><time>2026-05-01T15:03:58.001Z</time></trkpt><trkpt lat="40.43354821990431" lon="16.834509924970728"><ele>9.0</ele><time>2026-05-01T15:03:59.001Z</time></trkpt><trkpt lat="40.43341437698953" lon="16.83430579894548"><ele>9.0</ele><time>2026-05-01T15:04:00.001Z</time></trkpt><trkpt lat="40.43326056013462" lon="16.834064641304014"><ele>9.0</ele><time>2026-05-01T15:04:01.001Z</time></trkpt><trkpt lat="40.433111319314065" lon="16.833831194599767"><ele>9.5</ele><time>2026-05-01T15:04:02.001Z</time></trkpt><trkpt lat="40.43295951674302" lon="16.83360350275232"><ele>10.0</ele><time>2026-05-01T15:04:03.001Z</time></trkpt><trkpt lat="40.4328128135004" lon="16.833371056966595"><ele>9.0</ele><time>2026-05-01T15:04:04.001Z</time></trkpt><trkpt lat="40.43266394715125" lon="16.833137998268334"><ele>8.0</ele><time>2026-05-01T15:04:05.001Z</time></trkpt><trkpt lat="40.43251813365629" lon="16.832908267325383"><ele>8.0</ele><time>2026-05-01T15:04:06.001Z</time></trkpt><trkpt lat="40.4323757636958" lon="16.832684105558585"><ele>8.0</ele><time>2026-05-01T15:04:07.001Z</time></trkpt><trkpt lat="40.43221827323456" lon="16.83243914430734"><ele>8.5</ele><time>2026-05-01T15:04:08.001Z</time></trkpt><trkpt lat="40.43206450069269" lon="16.832204962519395"><ele>9.0</ele><time>2026-05-01T15:04:09.001Z</time></trkpt><trkpt lat="40.431908974536604" lon="16.831967532606747"><ele>9.0</ele><time>2026-05-01T15:04:10.001Z</time></trkpt><trkpt lat="40.43175719490804" lon="16.83172792800127"><ele>9.0</ele><time>2026-05-01T15:04:11.001Z</time></trkpt><trkpt lat="40.43160412339407" lon="16.831485397465332"><ele>9.0</ele><time>2026-05-01T15:04:12.001Z</time></trkpt><trkpt lat="40.43144999951275" lon="16.83124124703703"><ele>9.0</ele><time>2026-05-01T15:04:13.001Z</time></trkpt><trkpt lat="40.43129962477984" lon="16.83100001790005"><ele>8.666666666666666</ele><time>2026-05-01T15:04:14.001Z</time></trkpt><trkpt lat="40.4311577734157" lon="16.83077700387629"><ele>8.333333333333332</ele><time>2026-05-01T15:04:15.001Z</time></trkpt><trkpt lat="40.43101479332739" lon="16.830552573945102"><ele>8.0</ele><time>2026-05-01T15:04:16.001Z</time></trkpt><trkpt lat="40.43085664838627" lon="16.83031022651866"><ele>8.5</ele><time>2026-05-01T15:04:17.001Z</time></trkpt><trkpt lat="40.430709726234895" lon="16.830082355052703"><ele>9.0</ele><time>2026-05-01T15:04:18.001Z</time></trkpt><trkpt lat="40.43054583017213" lon="16.82983867306763"><ele>8.0</ele><time>2026-05-01T15:04:19.001Z</time></trkpt><trkpt lat="40.43037646657948" lon="16.829600686848654"><ele>7.0</ele><time>2026-05-01T15:04:20.001Z</time></trkpt><trkpt lat="40.43020797793644" lon="16.82936437150033"><ele>7.5</ele><time>2026-05-01T15:04:21.001Z</time></trkpt><trkpt lat="40.43002896975942" lon="16.829129391057243"><ele>8.0</ele><time>2026-05-01T15:04:22.001Z</time></trkpt><trkpt lat="40.42985121583941" lon="16.828898956866812"><ele>8.0</ele><time>2026-05-01T15:04:23.001Z</time></trkpt><trkpt lat="40.429666339413416" lon="16.82867128244446"><ele>8.0</ele><time>2026-05-01T15:04:24.001Z</time></trkpt><trkpt lat="40.42947914357403" lon="16.82845020668727"><ele>8.5</ele><time>2026-05-01T15:04:25.001Z</time></trkpt><trkpt lat="40.429285483223815" lon="16.828247926415724"><ele>9.0</ele><time>2026-05-01T15:04:26.001Z</time></trkpt><trkpt lat="40.42908826546088" lon="16.82804454135387"><ele>9.0</ele><time>2026-05-01T15:04:27.001Z</time></trkpt><trkpt lat="40.428891257008104" lon="16.827856768908976"><ele>9.0</ele><time>2026-05-01T15:04:28.001Z</time></trkpt><trkpt lat="40.428696500445795" lon="16.827677854445"><ele>9.0</ele><time>2026-05-01T15:04:29.001Z</time></trkpt><trkpt lat="40.428501454370775" lon="16.827506082326813"><ele>9.0</ele><time>2026-05-01T15:04:30.001Z</time></trkpt><trkpt lat="40.428295048319775" lon="16.827331931709946"><ele>9.0</ele><time>2026-05-01T15:04:31.001Z</time></trkpt><trkpt lat="40.42808356651838" lon="16.827166158052325"><ele>9.0</ele><time>2026-05-01T15:04:32.001Z</time></trkpt><trkpt lat="40.42786787041152" lon="16.827005899637715"><ele>8.5</ele><time>2026-05-01T15:04:33.001Z</time></trkpt><trkpt lat="40.427646294699535" lon="16.826853255570512"><ele>8.0</ele><time>2026-05-01T15:04:34.001Z</time></trkpt><trkpt lat="40.42741979999844" lon="16.82671508580206"><ele>8.0</ele><time>2026-05-01T15:04:35.001Z</time></trkpt><trkpt lat="40.42718762893153" lon="16.826589497968804"><ele>8.0</ele><time>2026-05-01T15:04:36.001Z</time></trkpt><trkpt lat="40.4269550203652" lon="16.826466409780938"><ele>8.0</ele><time>2026-05-01T15:04:37.001Z</time></trkpt><trkpt lat="40.426713975451804" lon="16.826349770182926"><ele>8.0</ele><time>2026-05-01T15:04:38.001Z</time></trkpt><trkpt lat="40.42648574662331" lon="16.82623561973308"><ele>7.5</ele><time>2026-05-01T15:04:39.001Z</time></trkpt><trkpt lat="40.42624315615592" lon="16.826128694916857"><ele>7.0</ele><time>2026-05-01T15:04:40.001Z</time></trkpt><trkpt lat="40.42599754684853" lon="16.826024227357795"><ele>8.0</ele><time>2026-05-01T15:04:41.001Z</time></trkpt><trkpt lat="40.42575686443725" lon="16.825927648281823"><ele>9.0</ele><time>2026-05-01T15:04:42.001Z</time></trkpt><trkpt lat="40.42550950486747" lon="16.82582755221087"><ele>9.0</ele><time>2026-05-01T15:04:43.001Z</time></trkpt><trkpt lat="40.42526494858391" lon="16.825734622210184"><ele>9.0</ele><time>2026-05-01T15:04:44.001Z</time></trkpt><trkpt lat="40.425013603325645" lon="16.825646095601346"><ele>9.0</ele><time>2026-05-01T15:04:45.001Z</time></trkpt><trkpt lat="40.424738221481306" lon="16.825548893051533"><ele>9.0</ele><time>2026-05-01T15:04:46.001Z</time></trkpt><trkpt lat="40.42448602792473" lon="16.825455993083725"><ele>8.5</ele><time>2026-05-01T15:04:47.001Z</time></trkpt><trkpt lat="40.42429558678805" lon="16.825379886067307"><ele>8.0</ele><time>2026-05-01T15:04:48.001Z</time></trkpt><trkpt lat="40.42404792658856" lon="16.825290797248645"><ele>8.0</ele><time>2026-05-01T15:04:49.001Z</time></trkpt><trkpt lat="40.42380692784039" lon="16.82519815051493"><ele>8.0</ele><time>2026-05-01T15:04:50.001Z</time></trkpt><trkpt lat="40.423553836924306" lon="16.82511451524913"><ele>8.0</ele><time>2026-05-01T15:04:51.001Z</time></trkpt><trkpt lat="40.42330325525584" lon="16.82502024868135"><ele>8.0</ele><time>2026-05-01T15:04:52.001Z</time></trkpt><trkpt lat="40.42307563844874" lon="16.82491747508833"><ele>8.0</ele><time>2026-05-01T15:04:53.001Z</time></trkpt><trkpt lat="40.4228446573094" lon="16.824842393317613"><ele>8.0</ele><time>2026-05-01T15:04:54.001Z</time></trkpt><trkpt lat="40.42262803191935" lon="16.82475646602401"><ele>8.0</ele><time>2026-05-01T15:04:55.001Z</time></trkpt><trkpt lat="40.4223992112656" lon="16.82468487425848"><ele>8.0</ele><time>2026-05-01T15:04:56.001Z</time></trkpt><trkpt lat="40.4221752010319" lon="16.82459523044443"><ele>8.0</ele><time>2026-05-01T15:04:57.001Z</time></trkpt><trkpt lat="40.421944942880714" lon="16.824506581960513"><ele>8.0</ele><time>2026-05-01T15:04:58.001Z</time></trkpt><trkpt lat="40.421707548353965" lon="16.824412175566167"><ele>8.0</ele><time>2026-05-01T15:04:59.001Z</time></trkpt><trkpt lat="40.421468213055874" lon="16.824313350189737"><ele>8.0</ele><time>2026-05-01T15:05:00.001Z</time></trkpt><trkpt lat="40.42122402539336" lon="16.82421162026459"><ele>8.5</ele><time>2026-05-01T15:05:01.001Z</time></trkpt><trkpt lat="40.420987188934646" lon="16.824108435618424"><ele>9.0</ele><time>2026-05-01T15:05:02.001Z</time></trkpt><trkpt lat="40.42075550048442" lon="16.824003952560616"><ele>9.0</ele><time>2026-05-01T15:05:03.002Z</time></trkpt><trkpt lat="40.4205372503239" lon="16.823900144335997"><ele>9.0</ele><time>2026-05-01T15:05:04.002Z</time></trkpt><trkpt lat="40.420327504178154" lon="16.82379264301742"><ele>9.5</ele><time>2026-05-01T15:05:05.002Z</time></trkpt><trkpt lat="40.420118728641874" lon="16.823675491491013"><ele>10.0</ele><time>2026-05-01T15:05:06.002Z</time></trkpt><trkpt lat="40.41991029607674" lon="16.823560665627742"><ele>10.0</ele><time>2026-05-01T15:05:07.002Z</time></trkpt><trkpt lat="40.41971425227413" lon="16.82344701475859"><ele>10.0</ele><time>2026-05-01T15:05:08.002Z</time></trkpt><trkpt lat="40.41951813666412" lon="16.823340121557997"><ele>10.0</ele><time>2026-05-01T15:05:09.002Z</time></trkpt><trkpt lat="40.4193148441573" lon="16.823223843542205"><ele>10.0</ele><time>2026-05-01T15:05:10.002Z</time></trkpt><trkpt lat="40.419101810067616" lon="16.82310787418696"><ele>10.0</ele><time>2026-05-01T15:05:11.002Z</time></trkpt><trkpt lat="40.41888708608025" lon="16.82298568759765"><ele>9.0</ele><time>2026-05-01T15:05:12.002Z</time></trkpt><trkpt lat="40.4186753202867" lon="16.82285604673546"><ele>8.0</ele><time>2026-05-01T15:05:13.002Z</time></trkpt><trkpt lat="40.41847917440433" lon="16.822725183195203"><ele>8.5</ele><time>2026-05-01T15:05:14.002Z</time></trkpt><trkpt lat="40.41827656259038" lon="16.822594930912707"><ele>9.0</ele><time>2026-05-01T15:05:15.002Z</time></trkpt><trkpt lat="40.418062899947344" lon="16.822455094825237"><ele>9.0</ele><time>2026-05-01T15:05:16.002Z</time></trkpt><trkpt lat="40.41785698493347" lon="16.82231245815897"><ele>9.0</ele><time>2026-05-01T15:05:17.002Z</time></trkpt><trkpt lat="40.417648383546066" lon="16.822171068897198"><ele>9.0</ele><time>2026-05-01T15:05:18.002Z</time></trkpt><trkpt lat="40.41744950443432" lon="16.822030115776577"><ele>9.0</ele><time>2026-05-01T15:05:19.002Z</time></trkpt><trkpt lat="40.41724319821398" lon="16.821885768904483"><ele>8.666666666666666</ele><time>2026-05-01T15:05:20.002Z</time></trkpt><trkpt lat="40.41703469968325" lon="16.82174966722366"><ele>8.333333333333332</ele><time>2026-05-01T15:05:21.002Z</time></trkpt><trkpt lat="40.416844440945404" lon="16.821620564501504"><ele>8.0</ele><time>2026-05-01T15:05:22.002Z</time></trkpt><trkpt lat="40.41664823635491" lon="16.821469534971946"><ele>8.0</ele><time>2026-05-01T15:05:23.002Z</time></trkpt><trkpt lat="40.41645335657406" lon="16.821312303029064"><ele>8.0</ele><time>2026-05-01T15:05:24.002Z</time></trkpt><trkpt lat="40.41627203948485" lon="16.821147892089922"><ele>8.0</ele><time>2026-05-01T15:05:25.002Z</time></trkpt><trkpt lat="40.41608928846126" lon="16.820953043470478"><ele>9.5</ele><time>2026-05-01T15:05:26.002Z</time></trkpt><trkpt lat="40.415919054773305" lon="16.82075771416644"><ele>11.0</ele><time>2026-05-01T15:05:27.002Z</time></trkpt><trkpt lat="40.41574988030066" lon="16.820546549841385"><ele>11.0</ele><time>2026-05-01T15:05:28.001Z</time></trkpt><trkpt lat="40.41559119331195" lon="16.820319170712132"><ele>11.0</ele><time>2026-05-01T15:05:29.001Z</time></trkpt><trkpt lat="40.415444993964215" lon="16.82008382421807"><ele>11.0</ele><time>2026-05-01T15:05:30.001Z</time></trkpt><trkpt lat="40.41531813073578" lon="16.81984885413653"><ele>11.0</ele><time>2026-05-01T15:05:31.001Z</time></trkpt><trkpt lat="40.415195051633454" lon="16.819620237784683"><ele>11.0</ele><time>2026-05-01T15:05:32.001Z</time></trkpt><trkpt lat="40.41506915994989" lon="16.819392557642892"><ele>12.0</ele><time>2026-05-01T15:05:33.001Z</time></trkpt><trkpt lat="40.41494079571036" lon="16.819163475257238"><ele>13.0</ele><time>2026-05-01T15:05:34.001Z</time></trkpt><trkpt lat="40.414853612159256" lon="16.818861918038582"><ele>13.0</ele><time>2026-05-01T15:05:35.001Z</time></trkpt><trkpt lat="40.414748257835406" lon="16.818579092063025"><ele>13.0</ele><time>2026-05-01T15:05:36.001Z</time></trkpt><trkpt lat="40.41465105990282" lon="16.818311096536643"><ele>12.0</ele><time>2026-05-01T15:05:37.001Z</time></trkpt><trkpt lat="40.41452660571368" lon="16.81801639486045"><ele>11.0</ele><time>2026-05-01T15:05:38.001Z</time></trkpt><trkpt lat="40.41441123956674" lon="16.817736521559365"><ele>11.5</ele><time>2026-05-01T15:05:39.001Z</time></trkpt><trkpt lat="40.41430274562702" lon="16.81744663468582"><ele>12.0</ele><time>2026-05-01T15:05:40.001Z</time></trkpt><trkpt lat="40.414193526634705" lon="16.817181781998155"><ele>12.0</ele><time>2026-05-01T15:05:41.001Z</time></trkpt><trkpt lat="40.41407413268249" lon="16.816912721375235"><ele>12.0</ele><time>2026-05-01T15:05:42.001Z</time></trkpt><trkpt lat="40.41395403860909" lon="16.816637737512117"><ele>12.0</ele><time>2026-05-01T15:05:43.001Z</time></trkpt><trkpt lat="40.41383325890297" lon="16.816378211720675"><ele>12.0</ele><time>2026-05-01T15:05:44.001Z</time></trkpt><trkpt lat="40.41370883106033" lon="16.816116788514268"><ele>13.0</ele><time>2026-05-01T15:05:45.001Z</time></trkpt><trkpt lat="40.41358569155305" lon="16.81586660268514"><ele>14.0</ele><time>2026-05-01T15:05:46.001Z</time></trkpt><trkpt lat="40.41346130045103" lon="16.815607339275058"><ele>14.0</ele><time>2026-05-01T15:05:47.001Z</time></trkpt><trkpt lat="40.413330278206985" lon="16.815345175702824"><ele>14.0</ele><time>2026-05-01T15:05:48.001Z</time></trkpt><trkpt lat="40.413200074089154" lon="16.81508286777319"><ele>14.0</ele><time>2026-05-01T15:05:49.001Z</time></trkpt><trkpt lat="40.41305192676871" lon="16.814825390433747"><ele>14.0</ele><time>2026-05-01T15:05:50.001Z</time></trkpt><trkpt lat="40.41290970051829" lon="16.814560680676568"><ele>14.0</ele><time>2026-05-01T15:05:51.001Z</time></trkpt><trkpt lat="40.412772070296356" lon="16.81430678515167"><ele>14.0</ele><time>2026-05-01T15:05:52.001Z</time></trkpt><trkpt lat="40.41262347807902" lon="16.814047317018165"><ele>14.0</ele><time>2026-05-01T15:05:53.001Z</time></trkpt><trkpt lat="40.41245543882618" lon="16.813819324218294"><ele>14.0</ele><time>2026-05-01T15:05:54.001Z</time></trkpt><trkpt lat="40.41228384965345" lon="16.813602518700748"><ele>14.0</ele><time>2026-05-01T15:05:55.001Z</time></trkpt><trkpt lat="40.41210212920019" lon="16.813392600446036"><ele>14.0</ele><time>2026-05-01T15:05:56.001Z</time></trkpt><trkpt lat="40.41191308332445" lon="16.813197030473102"><ele>14.0</ele><time>2026-05-01T15:05:57.001Z</time></trkpt><trkpt lat="40.41171447919065" lon="16.81300535378899"><ele>14.0</ele><time>2026-05-01T15:05:58.001Z</time></trkpt><trkpt lat="40.41150814848617" lon="16.81282188020127"><ele>14.5</ele><time>2026-05-01T15:05:59.001Z</time></trkpt><trkpt lat="40.411292313077126" lon="16.81265088925412"><ele>15.0</ele><time>2026-05-01T15:06:00.001Z</time></trkpt><trkpt lat="40.41106647969489" lon="16.812500079367943"><ele>15.0</ele><time>2026-05-01T15:06:01.001Z</time></trkpt><trkpt lat="40.410832639745074" lon="16.81235691773277"><ele>15.0</ele><time>2026-05-01T15:06:02.001Z</time></trkpt><trkpt lat="40.410601148150825" lon="16.81219981596665"><ele>15.0</ele><time>2026-05-01T15:06:03.001Z</time></trkpt><trkpt lat="40.41037147626507" lon="16.8120349392926"><ele>15.0</ele><time>2026-05-01T15:06:04.001Z</time></trkpt><trkpt lat="40.410145047667875" lon="16.811872874480283"><ele>15.0</ele><time>2026-05-01T15:06:05.001Z</time></trkpt><trkpt lat="40.40990865427429" lon="16.811709813084523"><ele>15.0</ele><time>2026-05-01T15:06:06.001Z</time></trkpt><trkpt lat="40.409678893265244" lon="16.811552545817932"><ele>14.0</ele><time>2026-05-01T15:06:07.001Z</time></trkpt><trkpt lat="40.40945620699581" lon="16.811395864568034"><ele>13.0</ele><time>2026-05-01T15:06:08.001Z</time></trkpt><trkpt lat="40.40923829526723" lon="16.811247414661427"><ele>13.0</ele><time>2026-05-01T15:06:09.001Z</time></trkpt><trkpt lat="40.40901786403407" lon="16.811096403353947"><ele>13.0</ele><time>2026-05-01T15:06:10.001Z</time></trkpt><trkpt lat="40.408778686855946" lon="16.81095151222025"><ele>13.5</ele><time>2026-05-01T15:06:11.001Z</time></trkpt><trkpt lat="40.40856220359451" lon="16.81078302280463"><ele>14.0</ele><time>2026-05-01T15:06:12.001Z</time></trkpt><trkpt lat="40.40834306695171" lon="16.81063351121927"><ele>14.0</ele><time>2026-05-01T15:06:13.001Z</time></trkpt><trkpt lat="40.408118531389924" lon="16.81048096378479"><ele>14.0</ele><time>2026-05-01T15:06:14.001Z</time></trkpt><trkpt lat="40.40791601765241" lon="16.810317893833123"><ele>14.0</ele><time>2026-05-01T15:06:15.001Z</time></trkpt><trkpt lat="40.40769536694902" lon="16.810162587641845"><ele>14.0</ele><time>2026-05-01T15:06:16.001Z</time></trkpt><trkpt lat="40.40744191344463" lon="16.810006251129202"><ele>14.0</ele><time>2026-05-01T15:06:17.001Z</time></trkpt><trkpt lat="40.40721257671113" lon="16.809847710814164"><ele>14.0</ele><time>2026-05-01T15:06:18.001Z</time></trkpt><trkpt lat="40.406985064623434" lon="16.80968712720718"><ele>14.5</ele><time>2026-05-01T15:06:19.001Z</time></trkpt><trkpt lat="40.40675953802323" lon="16.809536207950394"><ele>15.0</ele><time>2026-05-01T15:06:20.001Z</time></trkpt><trkpt lat="40.40653948530728" lon="16.80938919938343"><ele>15.5</ele><time>2026-05-01T15:06:21.001Z</time></trkpt><trkpt lat="40.406316045849465" lon="16.80923810656639"><ele>16.0</ele><time>2026-05-01T15:06:22.001Z</time></trkpt><trkpt lat="40.40609413148347" lon="16.80908257608478"><ele>16.0</ele><time>2026-05-01T15:06:23.001Z</time></trkpt><trkpt lat="40.4058746463924" lon="16.80893071097464"><ele>16.0</ele><time>2026-05-01T15:06:24.001Z</time></trkpt><trkpt lat="40.405673588107256" lon="16.80879103697929"><ele>16.333333333333332</ele><time>2026-05-01T15:06:25.001Z</time></trkpt><trkpt lat="40.405489184908966" lon="16.80866672086418"><ele>16.666666666666668</ele><time>2026-05-01T15:06:26.001Z</time></trkpt><trkpt lat="40.40530760291137" lon="16.808541807601596"><ele>17.0</ele><time>2026-05-01T15:06:27.001Z</time></trkpt><trkpt lat="40.40511156514246" lon="16.80840715311775"><ele>17.0</ele><time>2026-05-01T15:06:28.001Z</time></trkpt><trkpt lat="40.40492087679541" lon="16.80826868093594"><ele>17.0</ele><time>2026-05-01T15:06:29.001Z</time></trkpt><trkpt lat="40.404731449673804" lon="16.808136450323197"><ele>17.0</ele><time>2026-05-01T15:06:30.001Z</time></trkpt><trkpt lat="40.40455583733678" lon="16.80799890775433"><ele>16.333333333333336</ele><time>2026-05-01T15:06:31.001Z</time></trkpt><trkpt lat="40.40439133529166" lon="16.807889168206827"><ele>15.666666666666668</ele><time>2026-05-01T15:06:32.001Z</time></trkpt><trkpt lat="40.40422694058917" lon="16.807797745145876"><ele>15.0</ele><time>2026-05-01T15:06:33.001Z</time></trkpt><trkpt lat="40.40406491754837" lon="16.80767214907547"><ele>15.0</ele><time>2026-05-01T15:06:34.001Z</time></trkpt><trkpt lat="40.403925047081096" lon="16.8075709717867"><ele>15.0</ele><time>2026-05-01T15:06:35.001Z</time></trkpt><trkpt lat="40.403793781981385" lon="16.807478363834818"><ele>15.0</ele><time>2026-05-01T15:06:36.001Z</time></trkpt><trkpt lat="40.40369357288281" lon="16.8073594447361"><ele>15.0</ele><time>2026-05-01T15:06:37.001Z</time></trkpt><trkpt lat="40.40360270546699" lon="16.807263576357595"><ele>15.0</ele><time>2026-05-01T15:06:38.001Z</time></trkpt><trkpt lat="40.40361995099465" lon="16.80699076337797"><ele>15.0</ele><time>2026-05-01T15:06:39.001Z</time></trkpt><trkpt lat="40.40361683459064" lon="16.806772686935044"><ele>15.0</ele><time>2026-05-01T15:06:40.001Z</time></trkpt><trkpt lat="40.40361535558396" lon="16.806575231791875"><ele>14.666666666666668</ele><time>2026-05-01T15:06:41.001Z</time></trkpt><trkpt lat="40.40363006571745" lon="16.806386461346765"><ele>14.333333333333334</ele><time>2026-05-01T15:06:42.001Z</time></trkpt><trkpt lat="40.40367381852892" lon="16.806199580399458"><ele>14.0</ele><time>2026-05-01T15:06:43.001Z</time></trkpt><trkpt lat="40.40375161345339" lon="16.806013998406574"><ele>14.0</ele><time>2026-05-01T15:06:44.001Z</time></trkpt><trkpt lat="40.40385585781976" lon="16.80586211112807"><ele>14.0</ele><time>2026-05-01T15:06:45.001Z</time></trkpt><trkpt lat="40.404003349351825" lon="16.805745427120222"><ele>14.0</ele><time>2026-05-01T15:06:46.001Z</time></trkpt><trkpt lat="40.40418178286575" lon="16.80567690882238"><ele>14.0</ele><time>2026-05-01T15:06:47.001Z</time></trkpt><trkpt lat="40.404319335164104" lon="16.80556954354792"><ele>14.0</ele><time>2026-05-01T15:06:48.001Z</time></trkpt><trkpt lat="40.40448514994843" lon="16.80556386617223"><ele>14.0</ele><time>2026-05-01T15:06:49.001Z</time></trkpt><trkpt lat="40.40461351423376" lon="16.805506407309377"><ele>14.0</ele><time>2026-05-01T15:06:50.001Z</time></trkpt><trkpt lat="40.404743724925304" lon="16.805450917158005"><ele>14.0</ele><time>2026-05-01T15:06:51.001Z</time></trkpt><trkpt lat="40.404859097652796" lon="16.80540281825468"><ele>14.0</ele><time>2026-05-01T15:06:52.001Z</time></trkpt><trkpt lat="40.40496153142602" lon="16.80535844023706"><ele>14.0</ele><time>2026-05-01T15:06:53.001Z</time></trkpt><trkpt lat="40.40504896591446" lon="16.805315531875284"><ele>14.000000000000002</ele><time>2026-05-01T15:06:54.001Z</time></trkpt><trkpt lat="40.40513162292744" lon="16.805268953159846"><ele>14.0</ele><time>2026-05-01T15:06:55.001Z</time></trkpt><trkpt lat="40.4052171488718" lon="16.80524962828181"><ele>14.0</ele><time>2026-05-01T15:06:56.001Z</time></trkpt><trkpt lat="40.405288108711794" lon="16.80522351633393"><ele>14.0</ele><time>2026-05-01T15:06:57.001Z</time></trkpt><trkpt lat="40.40535481701784" lon="16.805183733498488"><ele>14.000000000000002</ele><time>2026-05-01T15:06:58.001Z</time></trkpt><trkpt lat="40.405421156610664" lon="16.805151431890685"><ele>14.0</ele><time>2026-05-01T15:06:59.001Z</time></trkpt><trkpt lat="40.40550757879865" lon="16.805135120148343"><ele>13.666666666666668</ele><time>2026-05-01T15:07:02.001Z</time></trkpt><trkpt lat="40.405615679923294" lon="16.805088083096937"><ele>13.333333333333334</ele><time>2026-05-01T15:07:04.001Z</time></trkpt><trkpt lat="40.405691206577764" lon="16.805044171181486"><ele>13.0</ele><time>2026-05-01T15:07:05.001Z</time></trkpt><trkpt lat="40.40576249245826" lon="16.805030599761842"><ele>12.666666666666668</ele><time>2026-05-01T15:07:06.001Z</time></trkpt><trkpt lat="40.40584735906541" lon="16.8049993966902"><ele>12.333333333333334</ele><time>2026-05-01T15:07:07.001Z</time></trkpt><trkpt lat="40.405934534686374" lon="16.804965904925087"><ele>12.0</ele><time>2026-05-01T15:07:08.001Z</time></trkpt><trkpt lat="40.40603170067968" lon="16.804932922639292"><ele>12.0</ele><time>2026-05-01T15:07:09.001Z</time></trkpt><trkpt lat="40.40613415734586" lon="16.804894011937034"><ele>12.0</ele><time>2026-05-01T15:07:10.001Z</time></trkpt><trkpt lat="40.40623033208884" lon="16.804857334678186"><ele>12.0</ele><time>2026-05-01T15:07:11.002Z</time></trkpt><trkpt lat="40.40632561144928" lon="16.804817724508656"><ele>12.0</ele><time>2026-05-01T15:07:12.002Z</time></trkpt><trkpt lat="40.406419529599326" lon="16.804781971247554"><ele>12.0</ele><time>2026-05-01T15:07:13.002Z</time></trkpt><trkpt lat="40.40651204832304" lon="16.804746299966652"><ele>11.4</ele><time>2026-05-01T15:07:14.002Z</time></trkpt><trkpt lat="40.40660044964463" lon="16.804708568559278"><ele>10.799999999999999</ele><time>2026-05-01T15:07:15.002Z</time></trkpt><trkpt lat="40.40669996029151" lon="16.804667040038797"><ele>10.2</ele><time>2026-05-01T15:07:16.002Z</time></trkpt><trkpt lat="40.40681109375134" lon="16.804619399439858"><ele>9.6</ele><time>2026-05-01T15:07:17.002Z</time></trkpt><trkpt lat="40.406937490582145" lon="16.80457634896377"><ele>9.0</ele><time>2026-05-01T15:07:18.002Z</time></trkpt><trkpt lat="40.40706557873628" lon="16.804525334928016"><ele>9.25</ele><time>2026-05-01T15:07:19.002Z</time></trkpt><trkpt lat="40.40719878341544" lon="16.804467304506698"><ele>9.5</ele><time>2026-05-01T15:07:20.002Z</time></trkpt><trkpt lat="40.40733908928924" lon="16.804404694240194"><ele>9.75</ele><time>2026-05-01T15:07:21.002Z</time></trkpt><trkpt lat="40.40748026702687" lon="16.804343013879645"><ele>10.0</ele><time>2026-05-01T15:07:22.002Z</time></trkpt><trkpt lat="40.4076207189805" lon="16.804282660791454"><ele>10.0</ele><time>2026-05-01T15:07:23.002Z</time></trkpt><trkpt lat="40.407755096775986" lon="16.804248656528692"><ele>10.0</ele><time>2026-05-01T15:07:24.002Z</time></trkpt><trkpt lat="40.407892861529156" lon="16.804195963270562"><ele>10.0</ele><time>2026-05-01T15:07:25.002Z</time></trkpt><trkpt lat="40.408029821502595" lon="16.804145173246795"><ele>10.0</ele><time>2026-05-01T15:07:26.002Z</time></trkpt><trkpt lat="40.40816528568101" lon="16.80409459400917"><ele>10.25</ele><time>2026-05-01T15:07:27.002Z</time></trkpt><trkpt lat="40.40830008500346" lon="16.804033207729436"><ele>10.5</ele><time>2026-05-01T15:07:28.002Z</time></trkpt><trkpt lat="40.40844572051468" lon="16.80398085384875"><ele>10.75</ele><time>2026-05-01T15:07:29.002Z</time></trkpt><trkpt lat="40.40859082033183" lon="16.80392819810291"><ele>11.0</ele><time>2026-05-01T15:07:30.002Z</time></trkpt><trkpt lat="40.40874055267617" lon="16.80387120574135"><ele>11.333333333333332</ele><time>2026-05-01T15:07:31.002Z</time></trkpt><trkpt lat="40.40888632411199" lon="16.803821321176738"><ele>11.666666666666666</ele><time>2026-05-01T15:07:32.002Z</time></trkpt><trkpt lat="40.40903183666504" lon="16.803767127450648"><ele>12.0</ele><time>2026-05-01T15:07:33.002Z</time></trkpt><trkpt lat="40.409180966878374" lon="16.80370889672641"><ele>12.0</ele><time>2026-05-01T15:07:34.002Z</time></trkpt><trkpt lat="40.40932336385795" lon="16.8036505640624"><ele>12.0</ele><time>2026-05-01T15:07:35.002Z</time></trkpt><trkpt lat="40.40946807435606" lon="16.803600223201656"><ele>12.0</ele><time>2026-05-01T15:07:36.002Z</time></trkpt><trkpt lat="40.40959988262764" lon="16.803549321533406"><ele>12.0</ele><time>2026-05-01T15:07:37.002Z</time></trkpt><trkpt lat="40.409726612430624" lon="16.80349152023001"><ele>13.0</ele><time>2026-05-01T15:07:38.002Z</time></trkpt><trkpt lat="40.40985750535862" lon="16.803440472499464"><ele>14.0</ele><time>2026-05-01T15:07:39.002Z</time></trkpt><trkpt lat="40.40999456247601" lon="16.803385541137416"><ele>15.0</ele><time>2026-05-01T15:07:40.002Z</time></trkpt><trkpt lat="40.41013295173808" lon="16.80332907613976"><ele>16.0</ele><time>2026-05-01T15:07:41.001Z</time></trkpt><trkpt lat="40.41028934659664" lon="16.803276008407728"><ele>16.0</ele><time>2026-05-01T15:07:42.001Z</time></trkpt><trkpt lat="40.41044191591401" lon="16.803219334269862"><ele>16.0</ele><time>2026-05-01T15:07:43.001Z</time></trkpt><trkpt lat="40.41058923953779" lon="16.803172938088533"><ele>16.0</ele><time>2026-05-01T15:07:44.001Z</time></trkpt><trkpt lat="40.410731659562586" lon="16.80311173233946"><ele>16.0</ele><time>2026-05-01T15:07:45.001Z</time></trkpt><trkpt lat="40.41087604619006" lon="16.803046049625024"><ele>16.0</ele><time>2026-05-01T15:07:46.001Z</time></trkpt><trkpt lat="40.41100252556998" lon="16.80302175607626"><ele>16.0</ele><time>2026-05-01T15:07:47.001Z</time></trkpt><trkpt lat="40.41114712761486" lon="16.802949332521266"><ele>16.0</ele><time>2026-05-01T15:07:48.001Z</time></trkpt><trkpt lat="40.411292462464026" lon="16.80290000724306"><ele>16.0</ele><time>2026-05-01T15:07:49.001Z</time></trkpt><trkpt lat="40.411452144592815" lon="16.802836403638267"><ele>16.0</ele><time>2026-05-01T15:07:50.001Z</time></trkpt><trkpt lat="40.41161574329044" lon="16.802776159828216"><ele>16.0</ele><time>2026-05-01T15:07:51.001Z</time></trkpt><trkpt lat="40.4117835167897" lon="16.80271085393082"><ele>16.666666666666664</ele><time>2026-05-01T15:07:52.001Z</time></trkpt><trkpt lat="40.41194991052535" lon="16.80265327436304"><ele>17.333333333333332</ele><time>2026-05-01T15:07:53.001Z</time></trkpt><trkpt lat="40.412121512685765" lon="16.802585774340564"><ele>18.0</ele><time>2026-05-01T15:07:54.001Z</time></trkpt><trkpt lat="40.41227792487265" lon="16.80252129700518"><ele>18.0</ele><time>2026-05-01T15:07:55.001Z</time></trkpt><trkpt lat="40.41243010095365" lon="16.80246650173045"><ele>18.0</ele><time>2026-05-01T15:07:56.001Z</time></trkpt><trkpt lat="40.412580280525724" lon="16.802415581534763"><ele>18.0</ele><time>2026-05-01T15:07:57.001Z</time></trkpt><trkpt lat="40.41273971044818" lon="16.80234737589586"><ele>18.0</ele><time>2026-05-01T15:07:58.001Z</time></trkpt><trkpt lat="40.41289589445236" lon="16.802291987723407"><ele>18.0</ele><time>2026-05-01T15:07:59.001Z</time></trkpt><trkpt lat="40.413051376338736" lon="16.8022337354384"><ele>18.0</ele><time>2026-05-01T15:08:00.001Z</time></trkpt><trkpt lat="40.41321170330696" lon="16.802174010154708"><ele>18.0</ele><time>2026-05-01T15:08:01.001Z</time></trkpt><trkpt lat="40.41336984267941" lon="16.802115034272198"><ele>18.0</ele><time>2026-05-01T15:08:02.001Z</time></trkpt><trkpt lat="40.41352439124412" lon="16.80205825373362"><ele>18.0</ele><time>2026-05-01T15:08:03.001Z</time></trkpt><trkpt lat="40.413677432025416" lon="16.801996047850057"><ele>18.666666666666668</ele><time>2026-05-01T15:08:04.001Z</time></trkpt><trkpt lat="40.41383766339296" lon="16.801932944214073"><ele>19.333333333333336</ele><time>2026-05-01T15:08:05.001Z</time></trkpt><trkpt lat="40.414011619363016" lon="16.80186783578434"><ele>20.0</ele><time>2026-05-01T15:08:06.001Z</time></trkpt><trkpt lat="40.41418968303617" lon="16.80180005116782"><ele>21.0</ele><time>2026-05-01T15:08:07.001Z</time></trkpt><trkpt lat="40.414365781540326" lon="16.801709721145603"><ele>22.0</ele><time>2026-05-01T15:08:08.001Z</time></trkpt><trkpt lat="40.41454835559625" lon="16.801644039215844"><ele>23.0</ele><time>2026-05-01T15:08:09.001Z</time></trkpt><trkpt lat="40.41474931453483" lon="16.801572180501203"><ele>23.0</ele><time>2026-05-01T15:08:10.001Z</time></trkpt><trkpt lat="40.414939367976146" lon="16.80150373240558"><ele>23.0</ele><time>2026-05-01T15:08:11.001Z</time></trkpt><trkpt lat="40.41513803460854" lon="16.80145395471821"><ele>23.0</ele><time>2026-05-01T15:08:12.001Z</time></trkpt><trkpt lat="40.41527674247223" lon="16.801403136375487"><ele>23.0</ele><time>2026-05-01T15:08:13.001Z</time></trkpt><trkpt lat="40.415444320032826" lon="16.801312391529756"><ele>23.0</ele><time>2026-05-01T15:08:14.001Z</time></trkpt><trkpt lat="40.415620304621136" lon="16.801224680858027"><ele>23.0</ele><time>2026-05-01T15:08:15.001Z</time></trkpt><trkpt lat="40.415779572390555" lon="16.801179362905135"><ele>23.333333333333336</ele><time>2026-05-01T15:08:16.001Z</time></trkpt><trkpt lat="40.41595756098882" lon="16.801121080759195"><ele>23.666666666666668</ele><time>2026-05-01T15:08:17.001Z</time></trkpt><trkpt lat="40.41612791955461" lon="16.80105459548004"><ele>24.0</ele><time>2026-05-01T15:08:18.001Z</time></trkpt><trkpt lat="40.41629569020318" lon="16.800993018494605"><ele>24.0</ele><time>2026-05-01T15:08:19.001Z</time></trkpt><trkpt lat="40.41647265651344" lon="16.800927109015046"><ele>24.0</ele><time>2026-05-01T15:08:20.001Z</time></trkpt><trkpt lat="40.41665302970509" lon="16.800856756121775"><ele>24.0</ele><time>2026-05-01T15:08:21.001Z</time></trkpt><trkpt lat="40.41682445390074" lon="16.800788137732187"><ele>24.0</ele><time>2026-05-01T15:08:22.001Z</time></trkpt><trkpt lat="40.41699652189112" lon="16.800725758916546"><ele>24.0</ele><time>2026-05-01T15:08:23.001Z</time></trkpt><trkpt lat="40.41716620358308" lon="16.8006627127905"><ele>24.0</ele><time>2026-05-01T15:08:24.001Z</time></trkpt><trkpt lat="40.417323294786826" lon="16.800604613779107"><ele>24.0</ele><time>2026-05-01T15:08:25.001Z</time></trkpt><trkpt lat="40.41748176656702" lon="16.800542003660272"><ele>24.0</ele><time>2026-05-01T15:08:26.001Z</time></trkpt><trkpt lat="40.417636196529585" lon="16.800481049798886"><ele>24.0</ele><time>2026-05-01T15:08:27.001Z</time></trkpt><trkpt lat="40.41779502123771" lon="16.80042007822312"><ele>24.0</ele><time>2026-05-01T15:08:28.001Z</time></trkpt><trkpt lat="40.41795935363894" lon="16.800351663910334"><ele>24.0</ele><time>2026-05-01T15:08:29.001Z</time></trkpt><trkpt lat="40.41812862697832" lon="16.800290202279854"><ele>24.0</ele><time>2026-05-01T15:08:30.001Z</time></trkpt><trkpt lat="40.41828907189909" lon="16.80021620933432"><ele>24.333333333333336</ele><time>2026-05-01T15:08:31.001Z</time></trkpt><trkpt lat="40.41844294554706" lon="16.800172847301518"><ele>24.666666666666668</ele><time>2026-05-01T15:08:32.001Z</time></trkpt><trkpt lat="40.41861475154276" lon="16.800109809895297"><ele>25.0</ele><time>2026-05-01T15:08:33.001Z</time></trkpt><trkpt lat="40.41878228100482" lon="16.800050465818654"><ele>26.0</ele><time>2026-05-01T15:08:34.001Z</time></trkpt><trkpt lat="40.41895131750957" lon="16.799978348034006"><ele>27.0</ele><time>2026-05-01T15:08:35.001Z</time></trkpt><trkpt lat="40.41912794609393" lon="16.799908832986308"><ele>28.0</ele><time>2026-05-01T15:08:36.001Z</time></trkpt><trkpt lat="40.41930369891336" lon="16.7998379700361"><ele>28.0</ele><time>2026-05-01T15:08:37.001Z</time></trkpt><trkpt lat="40.419478280921204" lon="16.79976807938848"><ele>28.0</ele><time>2026-05-01T15:08:38.001Z</time></trkpt><trkpt lat="40.41966952758297" lon="16.79968254172317"><ele>28.0</ele><time>2026-05-01T15:08:39.001Z</time></trkpt><trkpt lat="40.41987488424841" lon="16.7996120211836"><ele>28.666666666666668</ele><time>2026-05-01T15:08:40.001Z</time></trkpt><trkpt lat="40.42004991378744" lon="16.79954558183382"><ele>29.333333333333336</ele><time>2026-05-01T15:08:41.001Z</time></trkpt><trkpt lat="40.42023812809238" lon="16.79948065468698"><ele>30.0</ele><time>2026-05-01T15:08:42.001Z</time></trkpt><trkpt lat="40.42041820027555" lon="16.799410483308147"><ele>29.333333333333336</ele><time>2026-05-01T15:08:43.001Z</time></trkpt><trkpt lat="40.42059877000367" lon="16.799343327205527"><ele>28.666666666666668</ele><time>2026-05-01T15:08:44.001Z</time></trkpt><trkpt lat="40.420790705900394" lon="16.799270858353065"><ele>28.0</ele><time>2026-05-01T15:08:45.001Z</time></trkpt><trkpt lat="40.42098532939191" lon="16.799199189904105"><ele>29.666666666666668</ele><time>2026-05-01T15:08:46.001Z</time></trkpt><trkpt lat="40.42116297561688" lon="16.79913583105632"><ele>31.333333333333336</ele><time>2026-05-01T15:08:47.001Z</time></trkpt><trkpt lat="40.42133724417058" lon="16.799063764104336"><ele>33.0</ele><time>2026-05-01T15:08:48.001Z</time></trkpt><trkpt lat="40.421519029389216" lon="16.798993314421878"><ele>33.0</ele><time>2026-05-01T15:08:49.001Z</time></trkpt><trkpt lat="40.42170985097603" lon="16.79891931287434"><ele>33.0</ele><time>2026-05-01T15:08:50.001Z</time></trkpt><trkpt lat="40.42190986046613" lon="16.79884500675558"><ele>33.0</ele><time>2026-05-01T15:08:51.001Z</time></trkpt><trkpt lat="40.422114040723905" lon="16.79876790053497"><ele>32.666666666666664</ele><time>2026-05-01T15:08:52.001Z</time></trkpt><trkpt lat="40.42231048125648" lon="16.798691549223317"><ele>32.33333333333333</ele><time>2026-05-01T15:08:53.001Z</time></trkpt><trkpt lat="40.42248974512287" lon="16.798620151222615"><ele>32.0</ele><time>2026-05-01T15:08:54.001Z</time></trkpt><trkpt lat="40.4226809943332" lon="16.798544533516004"><ele>32.666666666666664</ele><time>2026-05-01T15:08:55.001Z</time></trkpt><trkpt lat="40.42287390280425" lon="16.79846811845994"><ele>33.333333333333336</ele><time>2026-05-01T15:08:56.001Z</time></trkpt><trkpt lat="40.42306449459444" lon="16.798394654633594"><ele>34.0</ele><time>2026-05-01T15:08:57.001Z</time></trkpt><trkpt lat="40.423243612000554" lon="16.798318757976244"><ele>35.0</ele><time>2026-05-01T15:08:58.001Z</time></trkpt><trkpt lat="40.42342483226931" lon="16.798244213966168"><ele>36.0</ele><time>2026-05-01T15:08:59.001Z</time></trkpt><trkpt lat="40.42359498811949" lon="16.79817639972989"><ele>37.0</ele><time>2026-05-01T15:09:00.001Z</time></trkpt><trkpt lat="40.4237997696523" lon="16.798086751173663"><ele>36.66666666666667</ele><time>2026-05-01T15:09:01.001Z</time></trkpt><trkpt lat="40.42398608158049" lon="16.798003490117416"><ele>36.333333333333336</ele><time>2026-05-01T15:09:02.001Z</time></trkpt><trkpt lat="40.42415749128032" lon="16.797915950203056"><ele>36.0</ele><time>2026-05-01T15:09:03.001Z</time></trkpt><trkpt lat="40.424340640176894" lon="16.797828210291584"><ele>36.0</ele><time>2026-05-01T15:09:04.001Z</time></trkpt><trkpt lat="40.42451987090618" lon="16.797740109990016"><ele>36.0</ele><time>2026-05-01T15:09:05.001Z</time></trkpt><trkpt lat="40.42470131282776" lon="16.797645288086102"><ele>36.0</ele><time>2026-05-01T15:09:06.001Z</time></trkpt><trkpt lat="40.424869664935905" lon="16.79755640162327"><ele>37.0</ele><time>2026-05-01T15:09:07.001Z</time></trkpt><trkpt lat="40.425056090661606" lon="16.797466443007057"><ele>38.0</ele><time>2026-05-01T15:09:08.001Z</time></trkpt><trkpt lat="40.42523706994125" lon="16.79736327871329"><ele>39.0</ele><time>2026-05-01T15:09:09.001Z</time></trkpt><trkpt lat="40.4254207514287" lon="16.797266331239605"><ele>38.666666666666664</ele><time>2026-05-01T15:09:10.001Z</time></trkpt><trkpt lat="40.42560847899481" lon="16.797153858206155"><ele>38.33333333333333</ele><time>2026-05-01T15:09:11.001Z</time></trkpt><trkpt lat="40.42579211453765" lon="16.79705157292913"><ele>38.0</ele><time>2026-05-01T15:09:12.001Z</time></trkpt><trkpt lat="40.42596150090133" lon="16.796944302701082"><ele>38.0</ele><time>2026-05-01T15:09:13.001Z</time></trkpt><trkpt lat="40.42614055565608" lon="16.796845816596147"><ele>38.0</ele><time>2026-05-01T15:09:14.001Z</time></trkpt><trkpt lat="40.42632761040193" lon="16.796738774848965"><ele>38.0</ele><time>2026-05-01T15:09:15.001Z</time></trkpt><trkpt lat="40.426508580393886" lon="16.79665245008231"><ele>37.666666666666664</ele><time>2026-05-01T15:09:16.001Z</time></trkpt><trkpt lat="40.4266674196467" lon="16.796542674169753"><ele>37.333333333333336</ele><time>2026-05-01T15:09:17.001Z</time></trkpt><trkpt lat="40.426835790437735" lon="16.796401307049493"><ele>37.0</ele><time>2026-05-01T15:09:18.001Z</time></trkpt><trkpt lat="40.42700758834896" lon="16.796279309915196"><ele>37.66666666666667</ele><time>2026-05-01T15:09:19.001Z</time></trkpt><trkpt lat="40.427187794258096" lon="16.796154258240808"><ele>38.333333333333336</ele><time>2026-05-01T15:09:20.001Z</time></trkpt><trkpt lat="40.42736655571204" lon="16.796028250460854"><ele>39.0</ele><time>2026-05-01T15:09:21.001Z</time></trkpt><trkpt lat="40.427547029078625" lon="16.795899371304976"><ele>36.666666666666664</ele><time>2026-05-01T15:09:22.001Z</time></trkpt><trkpt lat="40.427731484556055" lon="16.795763749720344"><ele>34.33333333333333</ele><time>2026-05-01T15:09:23.001Z</time></trkpt><trkpt lat="40.42790852612109" lon="16.795644074324372"><ele>32.0</ele><time>2026-05-01T15:09:24.001Z</time></trkpt><trkpt lat="40.428099323908825" lon="16.795522085723306"><ele>30.333333333333332</ele><time>2026-05-01T15:09:25.001Z</time></trkpt><trkpt lat="40.42828280862107" lon="16.795382384105814"><ele>28.666666666666664</ele><time>2026-05-01T15:09:26.001Z</time></trkpt><trkpt lat="40.4284520283566" lon="16.79525179140662"><ele>27.0</ele><time>2026-05-01T15:09:27.002Z</time></trkpt><trkpt lat="40.4286236659112" lon="16.79512638720502"><ele>24.666666666666668</ele><time>2026-05-01T15:09:28.002Z</time></trkpt><trkpt lat="40.42879180396119" lon="16.795003086766084"><ele>22.333333333333336</ele><time>2026-05-01T15:09:29.002Z</time></trkpt><trkpt lat="40.428958478893165" lon="16.79487846673247"><ele>20.0</ele><time>2026-05-01T15:09:30.002Z</time></trkpt><trkpt lat="40.42913531585062" lon="16.79474818695767"><ele>18.333333333333336</ele><time>2026-05-01T15:09:31.002Z</time></trkpt><trkpt lat="40.429308547514104" lon="16.794623164026067"><ele>16.666666666666668</ele><time>2026-05-01T15:09:32.002Z</time></trkpt><trkpt lat="40.42948161532629" lon="16.794499655879196"><ele>15.0</ele><time>2026-05-01T15:09:33.002Z</time></trkpt><trkpt lat="40.429656871397725" lon="16.794377368346485"><ele>15.333333333333332</ele><time>2026-05-01T15:09:34.001Z</time></trkpt><trkpt lat="40.42983093317195" lon="16.79425030240602"><ele>15.666666666666666</ele><time>2026-05-01T15:09:35.001Z</time></trkpt><trkpt lat="40.43000870220488" lon="16.794120348207016"><ele>16.0</ele><time>2026-05-01T15:09:36.001Z</time></trkpt><trkpt lat="40.430177655177715" lon="16.793994154954387"><ele>16.0</ele><time>2026-05-01T15:09:37.001Z</time></trkpt><trkpt lat="40.43034632545403" lon="16.793872600552195"><ele>16.0</ele><time>2026-05-01T15:09:38.001Z</time></trkpt><trkpt lat="40.43051226545231" lon="16.79375331690935"><ele>16.0</ele><time>2026-05-01T15:09:39.001Z</time></trkpt><trkpt lat="40.43068193799023" lon="16.793624353751483"><ele>17.0</ele><time>2026-05-01T15:09:40.001Z</time></trkpt><trkpt lat="40.430845975460336" lon="16.793493976789822"><ele>18.0</ele><time>2026-05-01T15:09:41.001Z</time></trkpt><trkpt lat="40.43100530236483" lon="16.79336357084351"><ele>19.0</ele><time>2026-05-01T15:09:42.001Z</time></trkpt><trkpt lat="40.43116461061154" lon="16.793226154299482"><ele>17.0</ele><time>2026-05-01T15:09:43.001Z</time></trkpt><trkpt lat="40.43132350660364" lon="16.79308586976102"><ele>15.0</ele><time>2026-05-01T15:09:44.001Z</time></trkpt><trkpt lat="40.43146942803622" lon="16.792947240461558"><ele>13.0</ele><time>2026-05-01T15:09:45.001Z</time></trkpt><trkpt lat="40.43163604509402" lon="16.792791331350987"><ele>14.0</ele><time>2026-05-01T15:09:46.001Z</time></trkpt><trkpt lat="40.431801134096204" lon="16.79262249697991"><ele>15.0</ele><time>2026-05-01T15:09:47.001Z</time></trkpt><trkpt lat="40.43194864296881" lon="16.792462943517165"><ele>16.0</ele><time>2026-05-01T15:09:48.001Z</time></trkpt><trkpt lat="40.43210574045743" lon="16.7922886545684"><ele>15.333333333333332</ele><time>2026-05-01T15:09:49.001Z</time></trkpt><trkpt lat="40.43226402499559" lon="16.792113715570636"><ele>14.666666666666668</ele><time>2026-05-01T15:09:50.001Z</time></trkpt><trkpt lat="40.432413026072915" lon="16.791947342165784"><ele>14.0</ele><time>2026-05-01T15:09:51.001Z</time></trkpt><trkpt lat="40.43256116153323" lon="16.79179187840188"><ele>14.0</ele><time>2026-05-01T15:09:52.001Z</time></trkpt><trkpt lat="40.432710597032" lon="16.791627742625792"><ele>14.0</ele><time>2026-05-01T15:09:53.001Z</time></trkpt><trkpt lat="40.43286413716592" lon="16.791460600498386"><ele>14.0</ele><time>2026-05-01T15:09:54.001Z</time></trkpt><trkpt lat="40.43301947567379" lon="16.79128579803011"><ele>13.333333333333334</ele><time>2026-05-01T15:09:55.001Z</time></trkpt><trkpt lat="40.43317195463067" lon="16.791111341849337"><ele>12.666666666666668</ele><time>2026-05-01T15:09:56.001Z</time></trkpt><trkpt lat="40.43332630024538" lon="16.790929855994484"><ele>12.0</ele><time>2026-05-01T15:09:57.001Z</time></trkpt><trkpt lat="40.43348176686488" lon="16.790751112328024"><ele>12.0</ele><time>2026-05-01T15:09:58.001Z</time></trkpt><trkpt lat="40.43363827704774" lon="16.790573560723526"><ele>12.0</ele><time>2026-05-01T15:09:59.001Z</time></trkpt><trkpt lat="40.43379546896266" lon="16.79040007005548"><ele>12.0</ele><time>2026-05-01T15:10:00.001Z</time></trkpt><trkpt lat="40.433955980523066" lon="16.790220607859126"><ele>12.666666666666668</ele><time>2026-05-01T15:10:01.001Z</time></trkpt><trkpt lat="40.43411244540097" lon="16.79004615426216"><ele>13.333333333333334</ele><time>2026-05-01T15:10:02.001Z</time></trkpt><trkpt lat="40.434274834345175" lon="16.789872596012984"><ele>14.0</ele><time>2026-05-01T15:10:03.001Z</time></trkpt><trkpt lat="40.43443240706135" lon="16.78969358473849"><ele>14.0</ele><time>2026-05-01T15:10:04.001Z</time></trkpt><trkpt lat="40.43459312548486" lon="16.789514447338775"><ele>14.0</ele><time>2026-05-01T15:10:05.001Z</time></trkpt><trkpt lat="40.43474867638047" lon="16.789329390156016"><ele>14.0</ele><time>2026-05-01T15:10:06.001Z</time></trkpt><trkpt lat="40.43490749590347" lon="16.78916978245996"><ele>14.0</ele><time>2026-05-01T15:10:07.001Z</time></trkpt><trkpt lat="40.43507024509923" lon="16.788986570887026"><ele>14.0</ele><time>2026-05-01T15:10:08.001Z</time></trkpt><trkpt lat="40.435224988729324" lon="16.788813795807062"><ele>14.0</ele><time>2026-05-01T15:10:09.001Z</time></trkpt><trkpt lat="40.43537885336155" lon="16.788644514502078"><ele>13.666666666666668</ele><time>2026-05-01T15:10:10.001Z</time></trkpt><trkpt lat="40.43552872138259" lon="16.788482679911432"><ele>13.333333333333332</ele><time>2026-05-01T15:10:11.001Z</time></trkpt><trkpt lat="40.43569020189107" lon="16.788313615141085"><ele>13.0</ele><time>2026-05-01T15:10:12.001Z</time></trkpt><trkpt lat="40.43585449988212" lon="16.788141795564346"><ele>13.0</ele><time>2026-05-01T15:10:13.001Z</time></trkpt><trkpt lat="40.43602642390406" lon="16.787973610869507"><ele>13.0</ele><time>2026-05-01T15:10:14.001Z</time></trkpt><trkpt lat="40.436192585609916" lon="16.78780495106703"><ele>13.0</ele><time>2026-05-01T15:10:15.001Z</time></trkpt><trkpt lat="40.43636289031506" lon="16.787635697722262"><ele>12.333333333333332</ele><time>2026-05-01T15:10:16.001Z</time></trkpt><trkpt lat="40.43652841089365" lon="16.787470398165965"><ele>11.666666666666666</ele><time>2026-05-01T15:10:17.001Z</time></trkpt><trkpt lat="40.436706322610746" lon="16.787299349270313"><ele>11.0</ele><time>2026-05-01T15:10:18.001Z</time></trkpt><trkpt lat="40.436879427682655" lon="16.787133057723775"><ele>11.0</ele><time>2026-05-01T15:10:19.001Z</time></trkpt><trkpt lat="40.4370482690171" lon="16.78697295210359"><ele>11.0</ele><time>2026-05-01T15:10:20.001Z</time></trkpt><trkpt lat="40.437203613381094" lon="16.78680250156"><ele>11.0</ele><time>2026-05-01T15:10:21.001Z</time></trkpt><trkpt lat="40.43737696192209" lon="16.78664623787525"><ele>10.666666666666666</ele><time>2026-05-01T15:10:22.001Z</time></trkpt><trkpt lat="40.4375535051189" lon="16.78648371226656"><ele>10.333333333333334</ele><time>2026-05-01T15:10:23.001Z</time></trkpt><trkpt lat="40.43772724093882" lon="16.7863197875496"><ele>10.0</ele><time>2026-05-01T15:10:24.001Z</time></trkpt><trkpt lat="40.437897989704744" lon="16.786166280588745"><ele>11.333333333333334</ele><time>2026-05-01T15:10:25.001Z</time></trkpt><trkpt lat="40.43807167471736" lon="16.786017295321358"><ele>12.666666666666668</ele><time>2026-05-01T15:10:26.001Z</time></trkpt><trkpt lat="40.438237244682135" lon="16.785866272928235"><ele>14.0</ele><time>2026-05-01T15:10:27.001Z</time></trkpt><trkpt lat="40.438399460831725" lon="16.78572142443791"><ele>14.0</ele><time>2026-05-01T15:10:28.001Z</time></trkpt><trkpt lat="40.43856025309164" lon="16.78556671017362"><ele>14.0</ele><time>2026-05-01T15:10:29.001Z</time></trkpt><trkpt lat="40.43872162540975" lon="16.78541695283198"><ele>14.0</ele><time>2026-05-01T15:10:30.001Z</time></trkpt><trkpt lat="40.4388799212341" lon="16.785265206751475"><ele>14.0</ele><time>2026-05-01T15:10:31.001Z</time></trkpt><trkpt lat="40.4390407517402" lon="16.7851171803141"><ele>14.0</ele><time>2026-05-01T15:10:32.001Z</time></trkpt><trkpt lat="40.4391996518063" lon="16.784971483967244"><ele>14.0</ele><time>2026-05-01T15:10:33.001Z</time></trkpt><trkpt lat="40.43936856262596" lon="16.784816157498216"><ele>14.0</ele><time>2026-05-01T15:10:34.001Z</time></trkpt><trkpt lat="40.439538734514805" lon="16.784653757566044"><ele>14.0</ele><time>2026-05-01T15:10:35.001Z</time></trkpt><trkpt lat="40.43970961731223" lon="16.784505002806775"><ele>14.0</ele><time>2026-05-01T15:10:36.001Z</time></trkpt><trkpt lat="40.43986891120847" lon="16.784361085881635"><ele>14.0</ele><time>2026-05-01T15:10:37.001Z</time></trkpt><trkpt lat="40.440023225535164" lon="16.78419819743235"><ele>14.0</ele><time>2026-05-01T15:10:38.001Z</time></trkpt><trkpt lat="40.44018392176453" lon="16.784062856311408"><ele>14.0</ele><time>2026-05-01T15:10:39.001Z</time></trkpt><trkpt lat="40.44034042657233" lon="16.78391447201962"><ele>13.666666666666668</ele><time>2026-05-01T15:10:40.001Z</time></trkpt><trkpt lat="40.44050186280017" lon="16.783761535424084"><ele>13.333333333333332</ele><time>2026-05-01T15:10:41.001Z</time></trkpt><trkpt lat="40.440663523531846" lon="16.783610368578255"><ele>13.0</ele><time>2026-05-01T15:10:42.001Z</time></trkpt><trkpt lat="40.440815227516104" lon="16.78347270879135"><ele>12.666666666666666</ele><time>2026-05-01T15:10:43.001Z</time></trkpt><trkpt lat="40.44096132458724" lon="16.78333611381341"><ele>12.333333333333332</ele><time>2026-05-01T15:10:44.001Z</time></trkpt><trkpt lat="40.44111898298912" lon="16.783190757103874"><ele>12.0</ele><time>2026-05-01T15:10:45.001Z</time></trkpt><trkpt lat="40.44127623427928" lon="16.783049022105487"><ele>12.0</ele><time>2026-05-01T15:10:46.001Z</time></trkpt><trkpt lat="40.44142910305615" lon="16.78290978674626"><ele>12.0</ele><time>2026-05-01T15:10:47.001Z</time></trkpt><trkpt lat="40.441574849534106" lon="16.78276815555898"><ele>12.0</ele><time>2026-05-01T15:10:48.001Z</time></trkpt><trkpt lat="40.441719303795786" lon="16.782630274626733"><ele>12.333333333333332</ele><time>2026-05-01T15:10:49.001Z</time></trkpt><trkpt lat="40.44186088774155" lon="16.782497748561532"><ele>12.666666666666666</ele><time>2026-05-01T15:10:50.001Z</time></trkpt><trkpt lat="40.44200930521724" lon="16.782364616628143"><ele>13.0</ele><time>2026-05-01T15:10:51.001Z</time></trkpt><trkpt lat="40.442164734697265" lon="16.782219173511926"><ele>13.333333333333332</ele><time>2026-05-01T15:10:52.001Z</time></trkpt><trkpt lat="40.442316383271915" lon="16.782072313115805"><ele>13.666666666666668</ele><time>2026-05-01T15:10:53.001Z</time></trkpt><trkpt lat="40.44246943084121" lon="16.78192091806312"><ele>14.0</ele><time>2026-05-01T15:10:54.001Z</time></trkpt><trkpt lat="40.442625675921725" lon="16.781770084567473"><ele>14.666666666666668</ele><time>2026-05-01T15:10:55.001Z</time></trkpt><trkpt lat="40.44278518902224" lon="16.781632307215492"><ele>15.333333333333332</ele><time>2026-05-01T15:10:56Z</time></trkpt><trkpt lat="40.44295287230009" lon="16.7814871894979"><ele>16.0</ele><time>2026-05-01T15:10:57Z</time></trkpt><trkpt lat="40.44312556289201" lon="16.781349162000446"><ele>16.333333333333332</ele><time>2026-05-01T15:10:58Z</time></trkpt><trkpt lat="40.44329259801359" lon="16.781200282364562"><ele>16.666666666666668</ele><time>2026-05-01T15:10:59Z</time></trkpt><trkpt lat="40.443456744695794" lon="16.781049699297235"><ele>17.0</ele><time>2026-05-01T15:11:00Z</time></trkpt><trkpt lat="40.44361678257107" lon="16.78090299861765"><ele>17.666666666666668</ele><time>2026-05-01T15:11:01Z</time></trkpt><trkpt lat="40.44377947036132" lon="16.780747282271054"><ele>18.333333333333332</ele><time>2026-05-01T15:11:02Z</time></trkpt><trkpt lat="40.44393567408138" lon="16.780598447735727"><ele>19.0</ele><time>2026-05-01T15:11:03Z</time></trkpt><trkpt lat="40.444094625791685" lon="16.780452429752895"><ele>19.666666666666664</ele><time>2026-05-01T15:11:04Z</time></trkpt><trkpt lat="40.44425629843379" lon="16.78031005313912"><ele>20.333333333333332</ele><time>2026-05-01T15:11:05Z</time></trkpt><trkpt lat="40.44441444770302" lon="16.780167666147573"><ele>21.0</ele><time>2026-05-01T15:11:06Z</time></trkpt><trkpt lat="40.44456942157125" lon="16.78001836830563"><ele>22.0</ele><time>2026-05-01T15:11:07Z</time></trkpt><trkpt lat="40.44473073108552" lon="16.779870098439076"><ele>23.0</ele><time>2026-05-01T15:11:08Z</time></trkpt><trkpt lat="40.444893760081314" lon="16.779710417737753"><ele>24.0</ele><time>2026-05-01T15:11:09Z</time></trkpt><trkpt lat="40.445047280226945" lon="16.779563569443695"><ele>24.0</ele><time>2026-05-01T15:11:10Z</time></trkpt><trkpt lat="40.44519823092814" lon="16.779418660653988"><ele>24.0</ele><time>2026-05-01T15:11:11Z</time></trkpt><trkpt lat="40.445349436202534" lon="16.779273948202075"><ele>24.0</ele><time>2026-05-01T15:11:12Z</time></trkpt><trkpt lat="40.44550655288071" lon="16.779123569229245"><ele>23.333333333333332</ele><time>2026-05-01T15:11:13Z</time></trkpt><trkpt lat="40.44567847190747" lon="16.778961315139835"><ele>22.666666666666664</ele><time>2026-05-01T15:11:14Z</time></trkpt><trkpt lat="40.44585581514989" lon="16.778818431913184"><ele>22.0</ele><time>2026-05-01T15:11:15Z</time></trkpt><trkpt lat="40.446001365625605" lon="16.778663407663277"><ele>23.0</ele><time>2026-05-01T15:11:16Z</time></trkpt><trkpt lat="40.44615829547619" lon="16.778517260384803"><ele>24.0</ele><time>2026-05-01T15:11:17Z</time></trkpt><trkpt lat="40.44629944659046" lon="16.778387362768623"><ele>25.0</ele><time>2026-05-01T15:11:18Z</time></trkpt><trkpt lat="40.44642992837353" lon="16.77826557634571"><ele>25.0</ele><time>2026-05-01T15:11:19Z</time></trkpt><trkpt lat="40.44655949150762" lon="16.778137833153004"><ele>25.0</ele><time>2026-05-01T15:11:20Z</time></trkpt><trkpt lat="40.446703354812904" lon="16.77800482140927"><ele>25.0</ele><time>2026-05-01T15:11:21Z</time></trkpt><trkpt lat="40.446857325323286" lon="16.777854656791213"><ele>25.0</ele><time>2026-05-01T15:11:22Z</time></trkpt><trkpt lat="40.447011760429014" lon="16.777714841717493"><ele>25.0</ele><time>2026-05-01T15:11:23Z</time></trkpt><trkpt lat="40.44716711237241" lon="16.777567665541827"><ele>25.0</ele><time>2026-05-01T15:11:24Z</time></trkpt><trkpt lat="40.44732644509677" lon="16.77742133571234"><ele>26.0</ele><time>2026-05-01T15:11:25Z</time></trkpt><trkpt lat="40.447487205508466" lon="16.77727642330274"><ele>27.0</ele><time>2026-05-01T15:11:26Z</time></trkpt><trkpt lat="40.447647524232735" lon="16.777122556020885"><ele>28.0</ele><time>2026-05-01T15:11:27Z</time></trkpt><trkpt lat="40.44780745530879" lon="16.776977775759793"><ele>28.666666666666668</ele><time>2026-05-01T15:11:28Z</time></trkpt><trkpt lat="40.44797844892128" lon="16.776830287218882"><ele>29.333333333333336</ele><time>2026-05-01T15:11:29Z</time></trkpt><trkpt lat="40.44815121792742" lon="16.77668990342818"><ele>30.0</ele><time>2026-05-01T15:11:30Z</time></trkpt><trkpt lat="40.44832486987189" lon="16.77655166641912"><ele>30.0</ele><time>2026-05-01T15:11:31Z</time></trkpt><trkpt lat="40.44850028405638" lon="16.77642282400149"><ele>30.0</ele><time>2026-05-01T15:11:32Z</time></trkpt><trkpt lat="40.448681976968224" lon="16.776299554445444"><ele>30.0</ele><time>2026-05-01T15:11:33.001Z</time></trkpt><trkpt lat="40.44886314447147" lon="16.776183684218765"><ele>30.333333333333336</ele><time>2026-05-01T15:11:34.001Z</time></trkpt><trkpt lat="40.44903904254425" lon="16.776071605383397"><ele>30.666666666666668</ele><time>2026-05-01T15:11:35.001Z</time></trkpt><trkpt lat="40.449219871735906" lon="16.775959659028157"><ele>31.0</ele><time>2026-05-01T15:11:36.001Z</time></trkpt><trkpt lat="40.44939047210328" lon="16.77586077256248"><ele>32.66666666666667</ele><time>2026-05-01T15:11:37.001Z</time></trkpt><trkpt lat="40.449556611789276" lon="16.775761363706238"><ele>34.333333333333336</ele><time>2026-05-01T15:11:38.001Z</time></trkpt><trkpt lat="40.44973278864161" lon="16.77565194311965"><ele>36.0</ele><time>2026-05-01T15:11:39.001Z</time></trkpt><trkpt lat="40.449905139885985" lon="16.775554783138517"><ele>36.333333333333336</ele><time>2026-05-01T15:11:40.001Z</time></trkpt><trkpt lat="40.450076798116086" lon="16.77545643002794"><ele>36.66666666666667</ele><time>2026-05-01T15:11:41.001Z</time></trkpt><trkpt lat="40.45024513634502" lon="16.775359891563888"><ele>37.0</ele><time>2026-05-01T15:11:42.001Z</time></trkpt><trkpt lat="40.4504151244973" lon="16.77526133562773"><ele>36.333333333333336</ele><time>2026-05-01T15:11:43.001Z</time></trkpt><trkpt lat="40.45058834979778" lon="16.775155222659045"><ele>35.666666666666664</ele><time>2026-05-01T15:11:44.001Z</time></trkpt><trkpt lat="40.45076194574972" lon="16.775053449342362"><ele>35.0</ele><time>2026-05-01T15:11:45.001Z</time></trkpt><trkpt lat="40.45093329784366" lon="16.774953169876085"><ele>35.0</ele><time>2026-05-01T15:11:46.001Z</time></trkpt><trkpt lat="40.451110405105986" lon="16.774851380607352"><ele>35.0</ele><time>2026-05-01T15:11:47.001Z</time></trkpt><trkpt lat="40.451285472307404" lon="16.77474803672539"><ele>35.0</ele><time>2026-05-01T15:11:48.001Z</time></trkpt><trkpt lat="40.45145998344784" lon="16.774647974513712"><ele>32.33333333333333</ele><time>2026-05-01T15:11:49.001Z</time></trkpt><trkpt lat="40.45163421341381" lon="16.77454987018734"><ele>29.666666666666664</ele><time>2026-05-01T15:11:50.001Z</time></trkpt><trkpt lat="40.45180866754233" lon="16.774451188445802"><ele>27.0</ele><time>2026-05-01T15:11:51.001Z</time></trkpt><trkpt lat="40.45197550330867" lon="16.77434980454007"><ele>25.333333333333332</ele><time>2026-05-01T15:11:52Z</time></trkpt><trkpt lat="40.452146678618725" lon="16.774246330279"><ele>23.666666666666664</ele><time>2026-05-01T15:11:53Z</time></trkpt><trkpt lat="40.45231871374317" lon="16.774146101255727"><ele>22.0</ele><time>2026-05-01T15:11:54Z</time></trkpt><trkpt lat="40.45249622702308" lon="16.77404345487935"><ele>22.0</ele><time>2026-05-01T15:11:55Z</time></trkpt><trkpt lat="40.452686759629735" lon="16.773942825979034"><ele>22.0</ele><time>2026-05-01T15:11:56Z</time></trkpt><trkpt lat="40.4528802577204" lon="16.77383775226759"><ele>22.0</ele><time>2026-05-01T15:11:57Z</time></trkpt><trkpt lat="40.453076861433786" lon="16.773731269062427"><ele>21.666666666666664</ele><time>2026-05-01T15:11:58Z</time></trkpt><trkpt lat="40.45326853675437" lon="16.773618501653733"><ele>21.333333333333332</ele><time>2026-05-01T15:11:59Z</time></trkpt><trkpt lat="40.45346584494919" lon="16.773500811602695"><ele>21.0</ele><time>2026-05-01T15:12:00Z</time></trkpt><trkpt lat="40.45365859115853" lon="16.773367115328423"><ele>20.5</ele><time>2026-05-01T15:12:01Z</time></trkpt><trkpt lat="40.45385984587697" lon="16.773216971275712"><ele>20.0</ele><time>2026-05-01T15:12:02Z</time></trkpt><trkpt lat="40.454057850925615" lon="16.773061861320752"><ele>20.0</ele><time>2026-05-01T15:12:03Z</time></trkpt><trkpt lat="40.454239870022576" lon="16.77291529067157"><ele>20.0</ele><time>2026-05-01T15:12:04Z</time></trkpt><trkpt lat="40.45441108176887" lon="16.77277652412073"><ele>20.0</ele><time>2026-05-01T15:12:05Z</time></trkpt><trkpt lat="40.45459496672397" lon="16.77262597728732"><ele>20.666666666666668</ele><time>2026-05-01T15:12:06Z</time></trkpt><trkpt lat="40.45477954593422" lon="16.77246725056567"><ele>21.333333333333332</ele><time>2026-05-01T15:12:07Z</time></trkpt><trkpt lat="40.45496864690643" lon="16.772309963554562"><ele>22.0</ele><time>2026-05-01T15:12:08Z</time></trkpt><trkpt lat="40.455151027857625" lon="16.772128766198318"><ele>22.0</ele><time>2026-05-01T15:12:09Z</time></trkpt><trkpt lat="40.455334061636236" lon="16.771940136991926"><ele>22.0</ele><time>2026-05-01T15:12:10Z</time></trkpt><trkpt lat="40.455512977475664" lon="16.77174465271923"><ele>23.0</ele><time>2026-05-01T15:12:11Z</time></trkpt><trkpt lat="40.45568553444615" lon="16.771534783513577"><ele>24.0</ele><time>2026-05-01T15:12:12Z</time></trkpt><trkpt lat="40.45585935086113" lon="16.771334343431217"><ele>24.0</ele><time>2026-05-01T15:12:13Z</time></trkpt><trkpt lat="40.45601525641142" lon="16.771156160653387"><ele>24.0</ele><time>2026-05-01T15:12:14Z</time></trkpt><trkpt lat="40.456181656602055" lon="16.770965402004656"><ele>24.0</ele><time>2026-05-01T15:12:15Z</time></trkpt><trkpt lat="40.45635257561028" lon="16.77076836989251"><ele>23.666666666666668</ele><time>2026-05-01T15:12:16Z</time></trkpt><trkpt lat="40.45652376507529" lon="16.770578827082765"><ele>23.333333333333336</ele><time>2026-05-01T15:12:17Z</time></trkpt><trkpt lat="40.45669227620499" lon="16.770398193568663"><ele>23.0</ele><time>2026-05-01T15:12:18Z</time></trkpt><trkpt lat="40.45685961275186" lon="16.77020813748077"><ele>24.0</ele><time>2026-05-01T15:12:19Z</time></trkpt><trkpt lat="40.457029620783985" lon="16.77000469439619"><ele>25.0</ele><time>2026-05-01T15:12:20Z</time></trkpt><trkpt lat="40.45720039112238" lon="16.769811867947595"><ele>23.666666666666668</ele><time>2026-05-01T15:12:21Z</time></trkpt><trkpt lat="40.45736964101044" lon="16.76962707257724"><ele>22.333333333333336</ele><time>2026-05-01T15:12:22Z</time></trkpt><trkpt lat="40.45753304649791" lon="16.76944395037854"><ele>21.0</ele><time>2026-05-01T15:12:23Z</time></trkpt><trkpt lat="40.457692949250095" lon="16.769262368098836"><ele>20.666666666666668</ele><time>2026-05-01T15:12:24Z</time></trkpt><trkpt lat="40.4578502240331" lon="16.769083914300346"><ele>20.333333333333336</ele><time>2026-05-01T15:12:25Z</time></trkpt><trkpt lat="40.45800841239949" lon="16.768908673371453"><ele>20.0</ele><time>2026-05-01T15:12:26Z</time></trkpt><trkpt lat="40.458162022469665" lon="16.76873123776264"><ele>20.0</ele><time>2026-05-01T15:12:27Z</time></trkpt><trkpt lat="40.45831331063952" lon="16.768556647659942"><ele>20.0</ele><time>2026-05-01T15:12:28Z</time></trkpt><trkpt lat="40.458457404355386" lon="16.76839424022264"><ele>20.0</ele><time>2026-05-01T15:12:29Z</time></trkpt><trkpt lat="40.45860495441509" lon="16.768227038161854"><ele>20.0</ele><time>2026-05-01T15:12:30Z</time></trkpt><trkpt lat="40.45875398426379" lon="16.76804747668798"><ele>20.0</ele><time>2026-05-01T15:12:31Z</time></trkpt><trkpt lat="40.4589036110529" lon="16.767865770403024"><ele>20.0</ele><time>2026-05-01T15:12:32Z</time></trkpt><trkpt lat="40.459054362854644" lon="16.76767893595844"><ele>21.0</ele><time>2026-05-01T15:12:33Z</time></trkpt><trkpt lat="40.45918315058046" lon="16.767465251215892"><ele>22.0</ele><time>2026-05-01T15:12:34Z</time></trkpt><trkpt lat="40.45931299307925" lon="16.76724077202447"><ele>23.0</ele><time>2026-05-01T15:12:35Z</time></trkpt><trkpt lat="40.45944621620095" lon="16.767012971763737"><ele>22.333333333333336</ele><time>2026-05-01T15:12:36Z</time></trkpt><trkpt lat="40.45957519403583" lon="16.766785386322987"><ele>21.666666666666668</ele><time>2026-05-01T15:12:37Z</time></trkpt><trkpt lat="40.4596946554085" lon="16.766548906554803"><ele>21.0</ele><time>2026-05-01T15:12:38Z</time></trkpt><trkpt lat="40.45980674898836" lon="16.766302006165795"><ele>21.0</ele><time>2026-05-01T15:12:39Z</time></trkpt><trkpt lat="40.45991169387495" lon="16.766050087144702"><ele>21.0</ele><time>2026-05-01T15:12:40Z</time></trkpt><trkpt lat="40.46000773837333" lon="16.765800004870066"><ele>21.0</ele><time>2026-05-01T15:12:41Z</time></trkpt><trkpt lat="40.46009215575312" lon="16.76556161595118"><ele>21.666666666666668</ele><time>2026-05-01T15:12:42Z</time></trkpt><trkpt lat="40.46017714866296" lon="16.765330883073712"><ele>22.333333333333336</ele><time>2026-05-01T15:12:43Z</time></trkpt><trkpt lat="40.46026668365439" lon="16.765092950813646"><ele>23.0</ele><time>2026-05-01T15:12:44Z</time></trkpt><trkpt lat="40.46035034517201" lon="16.764857956204434"><ele>23.333333333333336</ele><time>2026-05-01T15:12:45Z</time></trkpt><trkpt lat="40.46043810043165" lon="16.764642725586683"><ele>23.666666666666668</ele><time>2026-05-01T15:12:46Z</time></trkpt><trkpt lat="40.46048170012845" lon="16.764437858910995"><ele>24.0</ele><time>2026-05-01T15:12:47Z</time></trkpt><trkpt lat="40.46054020908129" lon="16.764244570034013"><ele>24.0</ele><time>2026-05-01T15:12:48Z</time></trkpt><trkpt lat="40.460595906324876" lon="16.764059714380792"><ele>24.0</ele><time>2026-05-01T15:12:49Z</time></trkpt><trkpt lat="40.46064734213954" lon="16.763878002332625"><ele>24.0</ele><time>2026-05-01T15:12:50Z</time></trkpt><trkpt lat="40.46070138184744" lon="16.76370000697514"><ele>24.0</ele><time>2026-05-01T15:12:51Z</time></trkpt><trkpt lat="40.46075430795169" lon="16.763526991087794"><ele>24.0</ele><time>2026-05-01T15:12:52Z</time></trkpt><trkpt lat="40.46080174331743" lon="16.76336489569381"><ele>24.0</ele><time>2026-05-01T15:12:53Z</time></trkpt><trkpt lat="40.46083946134398" lon="16.76322181861446"><ele>24.0</ele><time>2026-05-01T15:12:54Z</time></trkpt><trkpt lat="40.46087723675302" lon="16.763089032345643"><ele>24.0</ele><time>2026-05-01T15:12:55Z</time></trkpt><trkpt lat="40.460919848552244" lon="16.76294645164405"><ele>24.0</ele><time>2026-05-01T15:12:56Z</time></trkpt><trkpt lat="40.46095797048855" lon="16.762820824265763"><ele>24.0</ele><time>2026-05-01T15:12:57Z</time></trkpt><trkpt lat="40.460984146690436" lon="16.76271321623222"><ele>24.0</ele><time>2026-05-01T15:12:58Z</time></trkpt><trkpt lat="40.46099142177429" lon="16.76262637102674"><ele>24.0</ele><time>2026-05-01T15:12:59Z</time></trkpt><trkpt lat="40.46097788349987" lon="16.762497262274273"><ele>24.0</ele><time>2026-05-01T15:13:01Z</time></trkpt><trkpt lat="40.460875185714904" lon="16.762435940640742"><ele>23.999999999999996</ele><time>2026-05-01T15:13:03Z</time></trkpt><trkpt lat="40.460796063931575" lon="16.7624627364889"><ele>24.0</ele><time>2026-05-01T15:13:05Z</time></trkpt><trkpt lat="40.46072698465302" lon="16.76250390985458"><ele>24.0</ele><time>2026-05-01T15:13:07Z</time></trkpt><trkpt lat="40.460665812577375" lon="16.76258837557643"><ele>24.0</ele><time>2026-05-01T15:13:10Z</time></trkpt><trkpt lat="40.46059939388493" lon="16.76261865244985"><ele>24.0</ele><time>2026-05-01T15:13:12Z</time></trkpt><trkpt lat="40.46058279476951" lon="16.76270287210815"><ele>23.999999999999996</ele><time>2026-05-01T15:13:14Z</time></trkpt><trkpt lat="40.46061274428655" lon="16.76277811976874"><ele>24.0</ele><time>2026-05-01T15:14:14Z</time></trkpt><trkpt lat="40.46061653789558" lon="16.762893594224693"><ele>24.0</ele><time>2026-05-01T15:14:17Z</time></trkpt><trkpt lat="40.46054118172594" lon="16.763014958198255"><ele>24.0</ele><time>2026-05-01T15:14:19Z</time></trkpt><trkpt lat="40.4605096514902" lon="16.76312509489585"><ele>24.0</ele><time>2026-05-01T15:14:20Z</time></trkpt><trkpt lat="40.46047853528654" lon="16.763233785152853"><ele>24.0</ele><time>2026-05-01T15:14:21Z</time></trkpt><trkpt lat="40.46045633545031" lon="16.763311330214453"><ele>24.0</ele><time>2026-05-01T15:14:22Z</time></trkpt><trkpt lat="40.46043146949465" lon="16.763398188166324"><ele>24.0</ele><time>2026-05-01T15:14:24Z</time></trkpt><trkpt lat="40.46062042650095" lon="16.763561828424976"><ele>24.0</ele><time>2026-05-01T15:14:27Z</time></trkpt><trkpt lat="40.46068277408726" lon="16.763593670894984"><ele>24.0</ele><time>2026-05-01T15:14:30Z</time></trkpt><trkpt lat="40.4607650269924" lon="16.763443925383623"><ele>24.0</ele><time>2026-05-01T15:14:49Z</time></trkpt><trkpt lat="40.46079083779493" lon="16.76332809632215"><ele>24.0</ele><time>2026-05-01T15:14:51Z</time></trkpt><trkpt lat="40.46085102733513" lon="16.763180940177325"><ele>24.0</ele><time>2026-05-01T15:14:52Z</time></trkpt><trkpt lat="40.46089918030619" lon="16.763031397838382"><ele>24.0</ele><time>2026-05-01T15:14:53Z</time></trkpt><trkpt lat="40.46094217322707" lon="16.76287357065584"><ele>24.0</ele><time>2026-05-01T15:14:54Z</time></trkpt><trkpt lat="40.46098415696293" lon="16.762707406012883"><ele>24.0</ele><time>2026-05-01T15:14:55Z</time></trkpt><trkpt lat="40.46104189581902" lon="16.762523994941"><ele>24.0</ele><time>2026-05-01T15:14:56Z</time></trkpt><trkpt lat="40.46109920337982" lon="16.762337059422187"><ele>24.333333333333336</ele><time>2026-05-01T15:14:57Z</time></trkpt><trkpt lat="40.46113272784038" lon="16.762168080181016"><ele>24.666666666666668</ele><time>2026-05-01T15:14:58Z</time></trkpt><trkpt lat="40.4612205890782" lon="16.761915629013853"><ele>25.0</ele><time>2026-05-01T15:14:59Z</time></trkpt><trkpt lat="40.46128487845552" lon="16.761694094858466"><ele>24.0</ele><time>2026-05-01T15:15:00Z</time></trkpt><trkpt lat="40.461350309162725" lon="16.761464206566593"><ele>23.0</ele><time>2026-05-01T15:15:01Z</time></trkpt><trkpt lat="40.46141487784068" lon="16.761241792567787"><ele>22.0</ele><time>2026-05-01T15:15:02Z</time></trkpt><trkpt lat="40.461473734492984" lon="16.76102850321251"><ele>21.666666666666664</ele><time>2026-05-01T15:15:03Z</time></trkpt><trkpt lat="40.461544841219734" lon="16.76082096466474"><ele>21.333333333333332</ele><time>2026-05-01T15:15:04Z</time></trkpt><trkpt lat="40.46160989310342" lon="16.76058846246868"><ele>21.0</ele><time>2026-05-01T15:15:05Z</time></trkpt><trkpt lat="40.46166826293551" lon="16.76037246515731"><ele>21.0</ele><time>2026-05-01T15:15:06Z</time></trkpt><trkpt lat="40.46172158326122" lon="16.760151898906404"><ele>21.0</ele><time>2026-05-01T15:15:07Z</time></trkpt><trkpt lat="40.46179119536073" lon="16.759951792910254"><ele>21.0</ele><time>2026-05-01T15:15:08Z</time></trkpt><trkpt lat="40.46186168124188" lon="16.759731205541975"><ele>21.0</ele><time>2026-05-01T15:15:09Z</time></trkpt><trkpt lat="40.461926730551575" lon="16.75951462512315"><ele>21.0</ele><time>2026-05-01T15:15:10Z</time></trkpt><trkpt lat="40.46199164963543" lon="16.7592815517349"><ele>21.0</ele><time>2026-05-01T15:15:11Z</time></trkpt><trkpt lat="40.46203436984036" lon="16.75907919854907"><ele>21.333333333333332</ele><time>2026-05-01T15:15:12Z</time></trkpt><trkpt lat="40.46209449764053" lon="16.75884611794117"><ele>21.666666666666664</ele><time>2026-05-01T15:15:13Z</time></trkpt><trkpt lat="40.462191512428234" lon="16.758597821203953"><ele>22.0</ele><time>2026-05-01T15:15:14Z</time></trkpt><trkpt lat="40.46225631644843" lon="16.758346960566094"><ele>22.0</ele><time>2026-05-01T15:15:15Z</time></trkpt><trkpt lat="40.4623191164541" lon="16.75811235443268"><ele>22.0</ele><time>2026-05-01T15:15:16Z</time></trkpt><trkpt lat="40.46238471051522" lon="16.757890565738396"><ele>22.0</ele><time>2026-05-01T15:15:17Z</time></trkpt><trkpt lat="40.462462041005345" lon="16.757653065511672"><ele>22.333333333333332</ele><time>2026-05-01T15:15:18Z</time></trkpt><trkpt lat="40.46252460326044" lon="16.7574403630735"><ele>22.666666666666668</ele><time>2026-05-01T15:15:19Z</time></trkpt><trkpt lat="40.46258441333612" lon="16.757219754947865"><ele>23.0</ele><time>2026-05-01T15:15:20Z</time></trkpt><trkpt lat="40.46265473419405" lon="16.756986786892718"><ele>23.333333333333336</ele><time>2026-05-01T15:15:21Z</time></trkpt><trkpt lat="40.46272496643129" lon="16.75674859921564"><ele>23.666666666666668</ele><time>2026-05-01T15:15:22Z</time></trkpt><trkpt lat="40.46279727543063" lon="16.75650260961029"><ele>24.0</ele><time>2026-05-01T15:15:23Z</time></trkpt><trkpt lat="40.46286866820316" lon="16.75625884241634"><ele>23.666666666666668</ele><time>2026-05-01T15:15:24Z</time></trkpt><trkpt lat="40.46294820685711" lon="16.756007349371853"><ele>23.333333333333336</ele><time>2026-05-01T15:15:25Z</time></trkpt><trkpt lat="40.46301639686303" lon="16.75577513891463"><ele>23.0</ele><time>2026-05-01T15:15:26Z</time></trkpt><trkpt lat="40.46308386609848" lon="16.755548072782563"><ele>23.0</ele><time>2026-05-01T15:15:27Z</time></trkpt><trkpt lat="40.46315023292275" lon="16.75532261665124"><ele>23.0</ele><time>2026-05-01T15:15:28Z</time></trkpt><trkpt lat="40.46321492638453" lon="16.75509147089622"><ele>23.0</ele><time>2026-05-01T15:15:29Z</time></trkpt><trkpt lat="40.463289696588575" lon="16.754854017142545"><ele>23.0</ele><time>2026-05-01T15:15:30Z</time></trkpt><trkpt lat="40.46335994823645" lon="16.75462302306397"><ele>23.0</ele><time>2026-05-01T15:15:31Z</time></trkpt><trkpt lat="40.46343068846434" lon="16.754389999348298"><ele>23.0</ele><time>2026-05-01T15:15:32Z</time></trkpt><trkpt lat="40.46349818160922" lon="16.754168738673727"><ele>23.0</ele><time>2026-05-01T15:15:33Z</time></trkpt><trkpt lat="40.46356632803709" lon="16.753945905432868"><ele>23.0</ele><time>2026-05-01T15:15:34Z</time></trkpt><trkpt lat="40.46362963051997" lon="16.7537265583601"><ele>23.0</ele><time>2026-05-01T15:15:35Z</time></trkpt><trkpt lat="40.463695527972774" lon="16.753504838270825"><ele>23.0</ele><time>2026-05-01T15:15:36Z</time></trkpt><trkpt lat="40.463757602665396" lon="16.753288720222894"><ele>23.0</ele><time>2026-05-01T15:15:37Z</time></trkpt><trkpt lat="40.46383052187553" lon="16.753053267991827"><ele>23.0</ele><time>2026-05-01T15:15:38Z</time></trkpt><trkpt lat="40.463900515365104" lon="16.75281998640242"><ele>22.666666666666668</ele><time>2026-05-01T15:15:39Z</time></trkpt><trkpt lat="40.463965373682534" lon="16.75260040206524"><ele>22.333333333333332</ele><time>2026-05-01T15:15:40Z</time></trkpt><trkpt lat="40.46404194102322" lon="16.75235998843878"><ele>22.0</ele><time>2026-05-01T15:15:41Z</time></trkpt><trkpt lat="40.46411424378156" lon="16.75213252294383"><ele>22.0</ele><time>2026-05-01T15:15:42Z</time></trkpt><trkpt lat="40.46417176885877" lon="16.751924550984917"><ele>22.0</ele><time>2026-05-01T15:15:43Z</time></trkpt><trkpt lat="40.46423940173474" lon="16.7516881279296"><ele>22.0</ele><time>2026-05-01T15:15:44Z</time></trkpt><trkpt lat="40.464317069036255" lon="16.75144616633507"><ele>22.333333333333332</ele><time>2026-05-01T15:15:45Z</time></trkpt><trkpt lat="40.464385279076645" lon="16.751215413985083"><ele>22.666666666666668</ele><time>2026-05-01T15:15:46Z</time></trkpt><trkpt lat="40.4644552142756" lon="16.750981826342475"><ele>23.0</ele><time>2026-05-01T15:15:47Z</time></trkpt><trkpt lat="40.46452571263801" lon="16.75075353850305"><ele>23.333333333333336</ele><time>2026-05-01T15:15:48Z</time></trkpt><trkpt lat="40.46459049973805" lon="16.75053252426762"><ele>23.666666666666668</ele><time>2026-05-01T15:15:49Z</time></trkpt><trkpt lat="40.46469916464373" lon="16.750292409400686"><ele>24.0</ele><time>2026-05-01T15:15:50Z</time></trkpt><trkpt lat="40.464737593597526" lon="16.75009485827433"><ele>24.0</ele><time>2026-05-01T15:15:51Z</time></trkpt><trkpt lat="40.46479909302731" lon="16.7498980677634"><ele>24.0</ele><time>2026-05-01T15:15:52Z</time></trkpt><trkpt lat="40.464864423438954" lon="16.74969847289377"><ele>24.0</ele><time>2026-05-01T15:15:53Z</time></trkpt><trkpt lat="40.46492298000794" lon="16.749479383648268"><ele>24.0</ele><time>2026-05-01T15:15:54Z</time></trkpt><trkpt lat="40.464983983004444" lon="16.749264071196357"><ele>24.0</ele><time>2026-05-01T15:15:55Z</time></trkpt><trkpt lat="40.46505187279035" lon="16.749038948435768"><ele>24.0</ele><time>2026-05-01T15:15:56Z</time></trkpt><trkpt lat="40.46513793250112" lon="16.748804843443466"><ele>24.0</ele><time>2026-05-01T15:15:57Z</time></trkpt><trkpt lat="40.46518951179039" lon="16.748575973663748"><ele>24.0</ele><time>2026-05-01T15:15:58Z</time></trkpt><trkpt lat="40.465260320637654" lon="16.748353277089265"><ele>24.0</ele><time>2026-05-01T15:15:59Z</time></trkpt><trkpt lat="40.46533486482667" lon="16.748104396822246"><ele>24.0</ele><time>2026-05-01T15:16:00Z</time></trkpt><trkpt lat="40.46539997236468" lon="16.747867188883575"><ele>24.0</ele><time>2026-05-01T15:16:01Z</time></trkpt><trkpt lat="40.46545977023336" lon="16.74764858637556"><ele>24.0</ele><time>2026-05-01T15:16:02Z</time></trkpt><trkpt lat="40.46553812122649" lon="16.74739560002939"><ele>24.0</ele><time>2026-05-01T15:16:03Z</time></trkpt><trkpt lat="40.46563138832404" lon="16.747134709511684"><ele>24.0</ele><time>2026-05-01T15:16:04Z</time></trkpt><trkpt lat="40.46570697274621" lon="16.74689854052497"><ele>24.0</ele><time>2026-05-01T15:16:05Z</time></trkpt><trkpt lat="40.46577890247342" lon="16.74667822310043"><ele>24.0</ele><time>2026-05-01T15:16:06Z</time></trkpt><trkpt lat="40.465844302416876" lon="16.7464551497725"><ele>24.0</ele><time>2026-05-01T15:16:07Z</time></trkpt><trkpt lat="40.46590891005214" lon="16.746231803823573"><ele>24.0</ele><time>2026-05-01T15:16:08Z</time></trkpt><trkpt lat="40.46598895019235" lon="16.746010714816286"><ele>24.0</ele><time>2026-05-01T15:16:09Z</time></trkpt><trkpt lat="40.466037946167" lon="16.74579900879747"><ele>24.0</ele><time>2026-05-01T15:16:10Z</time></trkpt><trkpt lat="40.4661538184351" lon="16.745551065659576"><ele>24.0</ele><time>2026-05-01T15:16:11Z</time></trkpt><trkpt lat="40.46622004515823" lon="16.745298811122236"><ele>24.333333333333336</ele><time>2026-05-01T15:16:12Z</time></trkpt><trkpt lat="40.46629774541627" lon="16.745060932382813"><ele>24.666666666666668</ele><time>2026-05-01T15:16:13Z</time></trkpt><trkpt lat="40.466371780052086" lon="16.744830394490815"><ele>25.0</ele><time>2026-05-01T15:16:14Z</time></trkpt><trkpt lat="40.466473236342416" lon="16.744637684870757"><ele>25.0</ele><time>2026-05-01T15:16:15Z</time></trkpt><trkpt lat="40.46655206089038" lon="16.744367763209127"><ele>25.0</ele><time>2026-05-01T15:16:16Z</time></trkpt><trkpt lat="40.46663231763759" lon="16.744130135893236"><ele>25.0</ele><time>2026-05-01T15:16:17Z</time></trkpt><trkpt lat="40.466720694716635" lon="16.7439090923393"><ele>25.0</ele><time>2026-05-01T15:16:18Z</time></trkpt><trkpt lat="40.466804485043774" lon="16.743683267856728"><ele>25.0</ele><time>2026-05-01T15:16:19Z</time></trkpt><trkpt lat="40.46688498302833" lon="16.743469297058702"><ele>25.0</ele><time>2026-05-01T15:16:20Z</time></trkpt><trkpt lat="40.46696127064152" lon="16.743247116829178"><ele>25.0</ele><time>2026-05-01T15:16:21Z</time></trkpt><trkpt lat="40.46704539838139" lon="16.743022781073044"><ele>25.0</ele><time>2026-05-01T15:16:22Z</time></trkpt><trkpt lat="40.467128381654945" lon="16.742802426326683"><ele>25.0</ele><time>2026-05-01T15:16:23Z</time></trkpt><trkpt lat="40.467215412661425" lon="16.74257624934949"><ele>25.0</ele><time>2026-05-01T15:16:24Z</time></trkpt><trkpt lat="40.46730053229502" lon="16.742344560079495"><ele>25.0</ele><time>2026-05-01T15:16:25Z</time></trkpt><trkpt lat="40.467392974936054" lon="16.74210388413576"><ele>25.0</ele><time>2026-05-01T15:16:26Z</time></trkpt><trkpt lat="40.46748406080912" lon="16.741876692420767"><ele>25.333333333333336</ele><time>2026-05-01T15:16:27Z</time></trkpt><trkpt lat="40.467564115772575" lon="16.741657328963367"><ele>25.666666666666664</ele><time>2026-05-01T15:16:28Z</time></trkpt><trkpt lat="40.467647356707694" lon="16.74144617429061"><ele>26.0</ele><time>2026-05-01T15:16:29Z</time></trkpt><trkpt lat="40.46770694483387" lon="16.741234604726362"><ele>26.0</ele><time>2026-05-01T15:16:30Z</time></trkpt><trkpt lat="40.46779283220328" lon="16.741007567535515"><ele>26.0</ele><time>2026-05-01T15:16:31Z</time></trkpt><trkpt lat="40.46787910077494" lon="16.74077405495473"><ele>26.0</ele><time>2026-05-01T15:16:32Z</time></trkpt><trkpt lat="40.46796442792837" lon="16.74054396037776"><ele>26.0</ele><time>2026-05-01T15:16:33Z</time></trkpt><trkpt lat="40.468053751068666" lon="16.740305303418726"><ele>26.0</ele><time>2026-05-01T15:16:34Z</time></trkpt><trkpt lat="40.46814427752644" lon="16.74006264115007"><ele>26.0</ele><time>2026-05-01T15:16:35Z</time></trkpt><trkpt lat="40.4682233250867" lon="16.739852475142836"><ele>26.0</ele><time>2026-05-01T15:16:36Z</time></trkpt><trkpt lat="40.46830300690992" lon="16.739639664185983"><ele>26.0</ele><time>2026-05-01T15:16:37Z</time></trkpt><trkpt lat="40.46838245906551" lon="16.739403916814805"><ele>26.0</ele><time>2026-05-01T15:16:38Z</time></trkpt><trkpt lat="40.46846681238589" lon="16.739198985476943"><ele>26.0</ele><time>2026-05-01T15:16:39Z</time></trkpt><trkpt lat="40.46854596415813" lon="16.738989172011234"><ele>26.0</ele><time>2026-05-01T15:16:40Z</time></trkpt><trkpt lat="40.46862822466822" lon="16.738776505922715"><ele>26.0</ele><time>2026-05-01T15:16:41Z</time></trkpt><trkpt lat="40.468710195694044" lon="16.73855536855169"><ele>25.666666666666664</ele><time>2026-05-01T15:16:42Z</time></trkpt><trkpt lat="40.468796447433775" lon="16.73832552056845"><ele>25.333333333333336</ele><time>2026-05-01T15:16:43Z</time></trkpt><trkpt lat="40.468881467171876" lon="16.73809922334154"><ele>25.0</ele><time>2026-05-01T15:16:44Z</time></trkpt><trkpt lat="40.46896336566805" lon="16.73787864549232"><ele>25.0</ele><time>2026-05-01T15:16:45Z</time></trkpt><trkpt lat="40.469041259035656" lon="16.73767212331342"><ele>25.0</ele><time>2026-05-01T15:16:46Z</time></trkpt><trkpt lat="40.46912355793912" lon="16.7374549939379"><ele>25.0</ele><time>2026-05-01T15:16:47Z</time></trkpt><trkpt lat="40.469208972108135" lon="16.73723106857557"><ele>25.0</ele><time>2026-05-01T15:16:48Z</time></trkpt><trkpt lat="40.46929371372799" lon="16.737010126335353"><ele>25.0</ele><time>2026-05-01T15:16:49Z</time></trkpt><trkpt lat="40.46938194319487" lon="16.736778455747565"><ele>25.0</ele><time>2026-05-01T15:16:50Z</time></trkpt><trkpt lat="40.469472692811465" lon="16.736539431062265"><ele>25.0</ele><time>2026-05-01T15:16:51Z</time></trkpt><trkpt lat="40.469563140870406" lon="16.736295765749414"><ele>25.0</ele><time>2026-05-01T15:16:52Z</time></trkpt><trkpt lat="40.46965167896539" lon="16.73606113961863"><ele>25.0</ele><time>2026-05-01T15:16:53Z</time></trkpt><trkpt lat="40.4697433036501" lon="16.735813238700754"><ele>25.0</ele><time>2026-05-01T15:16:54Z</time></trkpt><trkpt lat="40.46983746991736" lon="16.735571822851828"><ele>25.0</ele><time>2026-05-01T15:16:55Z</time></trkpt><trkpt lat="40.46993571899506" lon="16.73532328243928"><ele>25.0</ele><time>2026-05-01T15:16:56Z</time></trkpt><trkpt lat="40.4700372775811" lon="16.735076098606257"><ele>25.0</ele><time>2026-05-01T15:16:57Z</time></trkpt><trkpt lat="40.47014541270145" lon="16.73482615711871"><ele>25.0</ele><time>2026-05-01T15:16:58Z</time></trkpt><trkpt lat="40.470255807514484" lon="16.734588666570982"><ele>25.0</ele><time>2026-05-01T15:16:59Z</time></trkpt><trkpt lat="40.47036918731286" lon="16.73435318796763"><ele>25.666666666666668</ele><time>2026-05-01T15:17:00Z</time></trkpt><trkpt lat="40.47048913316517" lon="16.734112488742664"><ele>26.333333333333336</ele><time>2026-05-01T15:17:01Z</time></trkpt><trkpt lat="40.47061108805953" lon="16.73388311782277"><ele>27.0</ele><time>2026-05-01T15:17:02Z</time></trkpt><trkpt lat="40.47073172340554" lon="16.733659732033185"><ele>27.333333333333336</ele><time>2026-05-01T15:17:03Z</time></trkpt><trkpt lat="40.47085014397827" lon="16.733447964593086"><ele>27.666666666666668</ele><time>2026-05-01T15:17:04Z</time></trkpt><trkpt lat="40.47098082981482" lon="16.733228852167834"><ele>28.0</ele><time>2026-05-01T15:17:05Z</time></trkpt><trkpt lat="40.47110483241202" lon="16.73301799052072"><ele>28.0</ele><time>2026-05-01T15:17:06Z</time></trkpt><trkpt lat="40.4712328884373" lon="16.73279923818855"><ele>28.0</ele><time>2026-05-01T15:17:07Z</time></trkpt><trkpt lat="40.471367472022656" lon="16.73257488731698"><ele>28.0</ele><time>2026-05-01T15:17:08Z</time></trkpt><trkpt lat="40.471504654221924" lon="16.73234457453633"><ele>28.0</ele><time>2026-05-01T15:17:09Z</time></trkpt><trkpt lat="40.47163956443263" lon="16.73211598883256"><ele>28.0</ele><time>2026-05-01T15:17:09.999Z</time></trkpt><trkpt lat="40.47177953683798" lon="16.731878071135068"><ele>28.0</ele><time>2026-05-01T15:17:10.999Z</time></trkpt><trkpt lat="40.47191893830768" lon="16.731642326802977"><ele>28.0</ele><time>2026-05-01T15:17:11.999Z</time></trkpt><trkpt lat="40.47205806327641" lon="16.73140885693138"><ele>28.0</ele><time>2026-05-01T15:17:12.999Z</time></trkpt><trkpt lat="40.47219113018024" lon="16.73118112363079"><ele>28.0</ele><time>2026-05-01T15:17:13.999Z</time></trkpt><trkpt lat="40.47232970005337" lon="16.730947344764285"><ele>28.666666666666668</ele><time>2026-05-01T15:17:14.999Z</time></trkpt><trkpt lat="40.47246408355968" lon="16.73072128617029"><ele>29.333333333333336</ele><time>2026-05-01T15:17:15.999Z</time></trkpt><trkpt lat="40.47258068417022" lon="16.730487393227513"><ele>30.0</ele><time>2026-05-01T15:17:16.999Z</time></trkpt><trkpt lat="40.47271987757207" lon="16.730265941007655"><ele>29.666666666666664</ele><time>2026-05-01T15:17:17.999Z</time></trkpt><trkpt lat="40.47284492762789" lon="16.730038548547224"><ele>29.333333333333332</ele><time>2026-05-01T15:17:18.999Z</time></trkpt><trkpt lat="40.47298541895469" lon="16.729811685351738"><ele>29.0</ele><time>2026-05-01T15:17:19.999Z</time></trkpt><trkpt lat="40.473116712071935" lon="16.729586299609974"><ele>29.666666666666664</ele><time>2026-05-01T15:17:20.999Z</time></trkpt><trkpt lat="40.473255554825336" lon="16.72935748502048"><ele>30.333333333333336</ele><time>2026-05-01T15:17:21.999Z</time></trkpt><trkpt lat="40.47340774532726" lon="16.72915335606867"><ele>31.0</ele><time>2026-05-01T15:17:22.999Z</time></trkpt><trkpt lat="40.47353532854626" lon="16.72888996224228"><ele>31.0</ele><time>2026-05-01T15:17:23.999Z</time></trkpt><trkpt lat="40.47367103264916" lon="16.7286521595453"><ele>31.0</ele><time>2026-05-01T15:17:24.999Z</time></trkpt><trkpt lat="40.47379253410189" lon="16.728449144056423"><ele>31.0</ele><time>2026-05-01T15:17:25.999Z</time></trkpt><trkpt lat="40.47392853912692" lon="16.728221258367917"><ele>31.0</ele><time>2026-05-01T15:17:26.999Z</time></trkpt><trkpt lat="40.4740661166131" lon="16.727998747306877"><ele>31.0</ele><time>2026-05-01T15:17:27.999Z</time></trkpt><trkpt lat="40.474193338474656" lon="16.727779795234447"><ele>31.0</ele><time>2026-05-01T15:17:28.999Z</time></trkpt><trkpt lat="40.474319554935086" lon="16.72755890911342"><ele>30.0</ele><time>2026-05-01T15:17:29.999Z</time></trkpt><trkpt lat="40.474439947450726" lon="16.72735769641874"><ele>29.0</ele><time>2026-05-01T15:17:30.999Z</time></trkpt><trkpt lat="40.47456479425851" lon="16.727148009722864"><ele>28.0</ele><time>2026-05-01T15:17:31.999Z</time></trkpt><trkpt lat="40.47468892599841" lon="16.726939350182857"><ele>29.0</ele><time>2026-05-01T15:17:32.999Z</time></trkpt><trkpt lat="40.47481530197529" lon="16.726738960495"><ele>30.0</ele><time>2026-05-01T15:17:33.999Z</time></trkpt><trkpt lat="40.47492771478231" lon="16.72653709388611"><ele>31.0</ele><time>2026-05-01T15:17:34.999Z</time></trkpt><trkpt lat="40.47503990580578" lon="16.72634480724584"><ele>31.0</ele><time>2026-05-01T15:17:35.999Z</time></trkpt><trkpt lat="40.47512227148636" lon="16.72620355968326"><ele>31.0</ele><time>2026-05-01T15:17:36.999Z</time></trkpt><trkpt lat="40.47519263309797" lon="16.72605733280079"><ele>31.0</ele><time>2026-05-01T15:17:37.999Z</time></trkpt><trkpt lat="40.47527016615301" lon="16.7259437379922"><ele>31.0</ele><time>2026-05-01T15:17:38.999Z</time></trkpt><trkpt lat="40.47532857860812" lon="16.725849950289906"><ele>31.166666666666668</ele><time>2026-05-01T15:17:39.999Z</time></trkpt><trkpt lat="40.47538820034117" lon="16.725801202023458"><ele>31.333333333333336</ele><time>2026-05-01T15:17:40.999Z</time></trkpt><trkpt lat="40.47544188253153" lon="16.725751466545375"><ele>31.5</ele><time>2026-05-01T15:17:41.999Z</time></trkpt><trkpt lat="40.475492445790344" lon="16.725674207389744"><ele>31.666666666666664</ele><time>2026-05-01T15:17:42.999Z</time></trkpt><trkpt lat="40.4755761984445" lon="16.725640967995407"><ele>31.833333333333332</ele><time>2026-05-01T15:17:44.999Z</time></trkpt><trkpt lat="40.47565235184531" lon="16.72560020937425"><ele>32.0</ele><time>2026-05-01T15:17:47.999Z</time></trkpt><trkpt lat="40.475630947958244" lon="16.725755018699612"><ele>31.999999999999996</ele><time>2026-05-01T15:19:59.001Z</time></trkpt><trkpt lat="40.47562461052761" lon="16.725665219563282"><ele>32.0</ele><time>2026-05-01T15:20:03.001Z</time></trkpt><trkpt lat="40.47565080630682" lon="16.725587957424015"><ele>32.0</ele><time>2026-05-01T15:26:16Z</time></trkpt><trkpt lat="40.47571087049586" lon="16.72546586018836"><ele>32.0</ele><time>2026-05-01T15:26:19Z</time></trkpt><trkpt lat="40.475727476065046" lon="16.725346388129797"><ele>31.999999999999996</ele><time>2026-05-01T15:26:21Z</time></trkpt><trkpt lat="40.475731074276176" lon="16.725254446435688"><ele>32.0</ele><time>2026-05-01T15:26:23Z</time></trkpt><trkpt lat="40.47575403071103" lon="16.725122242815964"><ele>33.2</ele><time>2026-05-01T15:26:26Z</time></trkpt><trkpt lat="40.47580218542259" lon="16.725048776650414"><ele>34.400000000000006</ele><time>2026-05-01T15:26:27Z</time></trkpt><trkpt lat="40.47586720601371" lon="16.72495420880938"><ele>35.599999999999994</ele><time>2026-05-01T15:26:28Z</time></trkpt><trkpt lat="40.47593688820958" lon="16.724840485067862"><ele>36.8</ele><time>2026-05-01T15:26:29Z</time></trkpt><trkpt lat="40.47601347077759" lon="16.724693750853"><ele>38.0</ele><time>2026-05-01T15:26:30Z</time></trkpt><trkpt lat="40.47610334626335" lon="16.72456135861919"><ele>38.0</ele><time>2026-05-01T15:26:31Z</time></trkpt><trkpt lat="40.47620010776621" lon="16.724412480346366"><ele>38.0</ele><time>2026-05-01T15:26:32Z</time></trkpt><trkpt lat="40.47629773097091" lon="16.724247196586127"><ele>38.0</ele><time>2026-05-01T15:26:33Z</time></trkpt><trkpt lat="40.47641476373679" lon="16.72409947864201"><ele>35.666666666666664</ele><time>2026-05-01T15:26:34Z</time></trkpt><trkpt lat="40.47651588982185" lon="16.72392568736599"><ele>33.333333333333336</ele><time>2026-05-01T15:26:35Z</time></trkpt><trkpt lat="40.47663028876632" lon="16.72374879396348"><ele>31.0</ele><time>2026-05-01T15:26:36Z</time></trkpt><trkpt lat="40.476744143426615" lon="16.72355780098434"><ele>31.0</ele><time>2026-05-01T15:26:37Z</time></trkpt><trkpt lat="40.476875759970504" lon="16.72335797192245"><ele>31.0</ele><time>2026-05-01T15:26:38Z</time></trkpt><trkpt lat="40.47698566740754" lon="16.723162279966765"><ele>31.0</ele><time>2026-05-01T15:26:39Z</time></trkpt><trkpt lat="40.47710776336778" lon="16.722965675013036"><ele>31.0</ele><time>2026-05-01T15:26:40Z</time></trkpt><trkpt lat="40.47723966609988" lon="16.72275098807791"><ele>31.0</ele><time>2026-05-01T15:26:41Z</time></trkpt><trkpt lat="40.477373687851035" lon="16.722532058006177"><ele>31.0</ele><time>2026-05-01T15:26:42Z</time></trkpt><trkpt lat="40.477506945340274" lon="16.722315665979597"><ele>31.333333333333336</ele><time>2026-05-01T15:26:43Z</time></trkpt><trkpt lat="40.477645727444035" lon="16.722088517821916"><ele>31.666666666666664</ele><time>2026-05-01T15:26:44Z</time></trkpt><trkpt lat="40.477783735534125" lon="16.721867151214248"><ele>32.0</ele><time>2026-05-01T15:26:45Z</time></trkpt><trkpt lat="40.47792263088899" lon="16.721641894160147"><ele>32.0</ele><time>2026-05-01T15:26:46Z</time></trkpt><trkpt lat="40.47805824552423" lon="16.721415309032892"><ele>32.0</ele><time>2026-05-01T15:26:47Z</time></trkpt><trkpt lat="40.47818914043241" lon="16.72119527799873"><ele>32.0</ele><time>2026-05-01T15:26:48Z</time></trkpt><trkpt lat="40.4783264549433" lon="16.72097443793472"><ele>32.33333333333333</ele><time>2026-05-01T15:26:49Z</time></trkpt><trkpt lat="40.478462933396266" lon="16.720756862757877"><ele>32.666666666666664</ele><time>2026-05-01T15:26:50Z</time></trkpt><trkpt lat="40.478600860020485" lon="16.72053429946842"><ele>33.0</ele><time>2026-05-01T15:26:51Z</time></trkpt><trkpt lat="40.47873944284902" lon="16.720302022261297"><ele>33.333333333333336</ele><time>2026-05-01T15:26:52Z</time></trkpt><trkpt lat="40.47887928507208" lon="16.720074011634345"><ele>33.66666666666667</ele><time>2026-05-01T15:26:53Z</time></trkpt><trkpt lat="40.47900113409238" lon="16.71983944491604"><ele>34.0</ele><time>2026-05-01T15:26:54Z</time></trkpt><trkpt lat="40.47914450133955" lon="16.719606382637"><ele>35.0</ele><time>2026-05-01T15:26:55Z</time></trkpt><trkpt lat="40.47928667451853" lon="16.719373161089536"><ele>36.0</ele><time>2026-05-01T15:26:56Z</time></trkpt><trkpt lat="40.47942625275754" lon="16.71915349385121"><ele>37.0</ele><time>2026-05-01T15:26:57Z</time></trkpt><trkpt lat="40.47955716868218" lon="16.718949219346666"><ele>35.66666666666667</ele><time>2026-05-01T15:26:58Z</time></trkpt><trkpt lat="40.47969306798435" lon="16.71873189338613"><ele>34.333333333333336</ele><time>2026-05-01T15:26:59Z</time></trkpt><trkpt lat="40.47983559887219" lon="16.71852042112935"><ele>33.0</ele><time>2026-05-01T15:27:00Z</time></trkpt><trkpt lat="40.47997760482594" lon="16.71831588260647"><ele>33.0</ele><time>2026-05-01T15:27:01Z</time></trkpt><trkpt lat="40.48012688852319" lon="16.718116580431346"><ele>33.0</ele><time>2026-05-01T15:27:02Z</time></trkpt><trkpt lat="40.48028296968468" lon="16.717918972596006"><ele>33.0</ele><time>2026-05-01T15:27:03Z</time></trkpt><trkpt lat="40.4804425048685" lon="16.717733034382388"><ele>33.5</ele><time>2026-05-01T15:27:04Z</time></trkpt><trkpt lat="40.480611775954635" lon="16.71753438648161"><ele>34.0</ele><time>2026-05-01T15:27:05Z</time></trkpt><trkpt lat="40.480783420502185" lon="16.71733366697171"><ele>34.0</ele><time>2026-05-01T15:27:06Z</time></trkpt><trkpt lat="40.48096042052664" lon="16.717131162400346"><ele>34.0</ele><time>2026-05-01T15:27:07Z</time></trkpt><trkpt lat="40.481133806119274" lon="16.716938200070114"><ele>33.5</ele><time>2026-05-01T15:27:08Z</time></trkpt><trkpt lat="40.4813220236099" lon="16.71673489637773"><ele>33.0</ele><time>2026-05-01T15:27:09Z</time></trkpt><trkpt lat="40.48151000602113" lon="16.71653395530057"><ele>33.0</ele><time>2026-05-01T15:27:10Z</time></trkpt><trkpt lat="40.48168833520399" lon="16.716338302624248"><ele>33.0</ele><time>2026-05-01T15:27:11Z</time></trkpt><trkpt lat="40.48186682474282" lon="16.716143962579924"><ele>33.0</ele><time>2026-05-01T15:27:12Z</time></trkpt><trkpt lat="40.48204879838138" lon="16.71594635793437"><ele>33.0</ele><time>2026-05-01T15:27:13Z</time></trkpt><trkpt lat="40.482232553487755" lon="16.71574405056052"><ele>33.0</ele><time>2026-05-01T15:27:14Z</time></trkpt><trkpt lat="40.48241479131947" lon="16.715542673787276"><ele>33.0</ele><time>2026-05-01T15:27:15Z</time></trkpt><trkpt lat="40.48260273192422" lon="16.715333399342434"><ele>33.5</ele><time>2026-05-01T15:27:16Z</time></trkpt><trkpt lat="40.48279016360207" lon="16.715123382176873"><ele>34.0</ele><time>2026-05-01T15:27:17Z</time></trkpt><trkpt lat="40.48298040895085" lon="16.71491242324099"><ele>34.0</ele><time>2026-05-01T15:27:18Z</time></trkpt><trkpt lat="40.483172897208334" lon="16.71469851690523"><ele>34.0</ele><time>2026-05-01T15:27:19Z</time></trkpt><trkpt lat="40.48336212761699" lon="16.71449149042065"><ele>34.5</ele><time>2026-05-01T15:27:20Z</time></trkpt><trkpt lat="40.48354379090728" lon="16.714291211683697"><ele>35.0</ele><time>2026-05-01T15:27:21Z</time></trkpt><trkpt lat="40.483735232611316" lon="16.714090398777362"><ele>35.0</ele><time>2026-05-01T15:27:22Z</time></trkpt><trkpt lat="40.483922926642876" lon="16.713889455966967"><ele>35.0</ele><time>2026-05-01T15:27:23Z</time></trkpt><trkpt lat="40.48410526920898" lon="16.713687684400004"><ele>35.0</ele><time>2026-05-01T15:27:24Z</time></trkpt><trkpt lat="40.48428886005522" lon="16.713482649629995"><ele>35.0</ele><time>2026-05-01T15:27:25Z</time></trkpt><trkpt lat="40.48446892826465" lon="16.713277694427628"><ele>34.5</ele><time>2026-05-01T15:27:26Z</time></trkpt><trkpt lat="40.48464577602844" lon="16.713072665659112"><ele>34.0</ele><time>2026-05-01T15:27:27Z</time></trkpt><trkpt lat="40.484820879891906" lon="16.71285851542809"><ele>35.0</ele><time>2026-05-01T15:27:28Z</time></trkpt><trkpt lat="40.484986035148886" lon="16.712642519224552"><ele>36.0</ele><time>2026-05-01T15:27:29Z</time></trkpt><trkpt lat="40.48514566916761" lon="16.712408857982236"><ele>36.0</ele><time>2026-05-01T15:27:30Z</time></trkpt><trkpt lat="40.48530108509732" lon="16.712168108577927"><ele>36.0</ele><time>2026-05-01T15:27:31Z</time></trkpt><trkpt lat="40.48545201795849" lon="16.711931209699124"><ele>35.5</ele><time>2026-05-01T15:27:32Z</time></trkpt><trkpt lat="40.485604999966284" lon="16.711686881654234"><ele>35.0</ele><time>2026-05-01T15:27:33Z</time></trkpt><trkpt lat="40.48575025280263" lon="16.711430960474228"><ele>35.0</ele><time>2026-05-01T15:27:34Z</time></trkpt><trkpt lat="40.485886247808075" lon="16.711173301610533"><ele>35.0</ele><time>2026-05-01T15:27:35Z</time></trkpt><trkpt lat="40.4860147268932" lon="16.71091049587823"><ele>37.5</ele><time>2026-05-01T15:27:36Z</time></trkpt><trkpt lat="40.48613260215797" lon="16.710641900818352"><ele>40.0</ele><time>2026-05-01T15:27:37Z</time></trkpt><trkpt lat="40.48624986641808" lon="16.710373686462507"><ele>38.5</ele><time>2026-05-01T15:27:38Z</time></trkpt><trkpt lat="40.48636217435155" lon="16.710100024868833"><ele>37.0</ele><time>2026-05-01T15:27:39Z</time></trkpt><trkpt lat="40.48646930577819" lon="16.70982209654658"><ele>37.0</ele><time>2026-05-01T15:27:40Z</time></trkpt><trkpt lat="40.48657212092669" lon="16.709570404573917"><ele>37.0</ele><time>2026-05-01T15:27:41Z</time></trkpt><trkpt lat="40.48666616777156" lon="16.709253039704322"><ele>37.5</ele><time>2026-05-01T15:27:42Z</time></trkpt><trkpt lat="40.48674918853779" lon="16.70895863983219"><ele>38.0</ele><time>2026-05-01T15:27:43Z</time></trkpt><trkpt lat="40.4868260811313" lon="16.708666717171678"><ele>38.5</ele><time>2026-05-01T15:27:44Z</time></trkpt><trkpt lat="40.486893932023534" lon="16.70838212970877"><ele>39.0</ele><time>2026-05-01T15:27:45Z</time></trkpt><trkpt lat="40.48696209886966" lon="16.708089622574555"><ele>39.0</ele><time>2026-05-01T15:27:46Z</time></trkpt><trkpt lat="40.4870221334225" lon="16.707786600903223"><ele>39.0</ele><time>2026-05-01T15:27:47Z</time></trkpt><trkpt lat="40.48707759065981" lon="16.707477991447565"><ele>39.0</ele><time>2026-05-01T15:27:47.999Z</time></trkpt><trkpt lat="40.487127289038725" lon="16.707157543286023"><ele>39.0</ele><time>2026-05-01T15:27:48.999Z</time></trkpt><trkpt lat="40.487178595771994" lon="16.706833304799506"><ele>39.0</ele><time>2026-05-01T15:27:49.999Z</time></trkpt><trkpt lat="40.48722876290205" lon="16.70651257321267"><ele>39.0</ele><time>2026-05-01T15:27:50.999Z</time></trkpt><trkpt lat="40.48728486883198" lon="16.706181798114436"><ele>39.0</ele><time>2026-05-01T15:27:51.999Z</time></trkpt><trkpt lat="40.48734176334838" lon="16.705855437527774"><ele>39.0</ele><time>2026-05-01T15:27:52.999Z</time></trkpt><trkpt lat="40.48739874581039" lon="16.705524645580198"><ele>39.0</ele><time>2026-05-01T15:27:53.999Z</time></trkpt><trkpt lat="40.48745275950127" lon="16.70519618750426"><ele>39.0</ele><time>2026-05-01T15:27:54.999Z</time></trkpt><trkpt lat="40.48751082927638" lon="16.704863545334714"><ele>39.0</ele><time>2026-05-01T15:27:55.999Z</time></trkpt><trkpt lat="40.48756578907374" lon="16.704531125258427"><ele>39.0</ele><time>2026-05-01T15:27:56.999Z</time></trkpt><trkpt lat="40.487618256563216" lon="16.704195138213795"><ele>39.5</ele><time>2026-05-01T15:27:57.999Z</time></trkpt><trkpt lat="40.48767019586797" lon="16.70386687098769"><ele>40.0</ele><time>2026-05-01T15:27:58.999Z</time></trkpt><trkpt lat="40.48772455311033" lon="16.703536064162478"><ele>40.5</ele><time>2026-05-01T15:27:59.999Z</time></trkpt><trkpt lat="40.48777512075464" lon="16.70321225484414"><ele>41.0</ele><time>2026-05-01T15:28:00.999Z</time></trkpt><trkpt lat="40.4878270516087" lon="16.702886575011515"><ele>41.5</ele><time>2026-05-01T15:28:01.999Z</time></trkpt><trkpt lat="40.4878759903787" lon="16.70256619505142"><ele>42.0</ele><time>2026-05-01T15:28:02.999Z</time></trkpt><trkpt lat="40.48792901713308" lon="16.70224377412367"><ele>40.5</ele><time>2026-05-01T15:28:03.999Z</time></trkpt><trkpt lat="40.48797934687578" lon="16.701924711716156"><ele>39.0</ele><time>2026-05-01T15:28:04.999Z</time></trkpt><trkpt lat="40.48803134380908" lon="16.701616561152335"><ele>38.5</ele><time>2026-05-01T15:28:05.999Z</time></trkpt><trkpt lat="40.48808080987091" lon="16.701299248713028"><ele>38.0</ele><time>2026-05-01T15:28:06.999Z</time></trkpt><trkpt lat="40.4881308204998" lon="16.7009797615895"><ele>37.5</ele><time>2026-05-01T15:28:07.999Z</time></trkpt><trkpt lat="40.48817925121502" lon="16.70066418355788"><ele>37.0</ele><time>2026-05-01T15:28:08.999Z</time></trkpt><trkpt lat="40.48822740436361" lon="16.700348168402222"><ele>37.5</ele><time>2026-05-01T15:28:09.999Z</time></trkpt><trkpt lat="40.488282251097814" lon="16.700033527219706"><ele>38.0</ele><time>2026-05-01T15:28:10.999Z</time></trkpt><trkpt lat="40.48833994745916" lon="16.69970872685814"><ele>38.5</ele><time>2026-05-01T15:28:11.999Z</time></trkpt><trkpt lat="40.4883969363573" lon="16.699381699118927"><ele>39.0</ele><time>2026-05-01T15:28:12.999Z</time></trkpt><trkpt lat="40.48845103208748" lon="16.69905302395179"><ele>39.0</ele><time>2026-05-01T15:28:13.999Z</time></trkpt><trkpt lat="40.48850477692042" lon="16.698723386006993"><ele>39.0</ele><time>2026-05-01T15:28:14.999Z</time></trkpt><trkpt lat="40.488560077727236" lon="16.698394450644408"><ele>38.5</ele><time>2026-05-01T15:28:15.999Z</time></trkpt><trkpt lat="40.48861378849326" lon="16.69806924149858"><ele>38.0</ele><time>2026-05-01T15:28:16.999Z</time></trkpt><trkpt lat="40.488665359358656" lon="16.697752567465486"><ele>37.5</ele><time>2026-05-01T15:28:17.999Z</time></trkpt><trkpt lat="40.48871768396294" lon="16.697435508108388"><ele>37.0</ele><time>2026-05-01T15:28:18.999Z</time></trkpt><trkpt lat="40.48876791697012" lon="16.697123558666053"><ele>37.5</ele><time>2026-05-01T15:28:19.999Z</time></trkpt><trkpt lat="40.48882039583233" lon="16.69681162018438"><ele>38.0</ele><time>2026-05-01T15:28:21Z</time></trkpt><trkpt lat="40.48887111033438" lon="16.696493478187275"><ele>38.0</ele><time>2026-05-01T15:28:22Z</time></trkpt><trkpt lat="40.48892124274138" lon="16.696177320028795"><ele>38.0</ele><time>2026-05-01T15:28:23Z</time></trkpt><trkpt lat="40.488974331943474" lon="16.6958512813837"><ele>38.0</ele><time>2026-05-01T15:28:24Z</time></trkpt><trkpt lat="40.489028763754504" lon="16.69552917614372"><ele>38.0</ele><time>2026-05-01T15:28:25Z</time></trkpt><trkpt lat="40.489078328779556" lon="16.695206483049272"><ele>38.0</ele><time>2026-05-01T15:28:26Z</time></trkpt><trkpt lat="40.489132433123785" lon="16.694877621568654"><ele>38.0</ele><time>2026-05-01T15:28:27Z</time></trkpt><trkpt lat="40.48918193675065" lon="16.694546710400374"><ele>39.0</ele><time>2026-05-01T15:28:28Z</time></trkpt><trkpt lat="40.48923022355632" lon="16.694215770451194"><ele>40.0</ele><time>2026-05-01T15:28:29Z</time></trkpt><trkpt lat="40.48927618367027" lon="16.69388335524435"><ele>41.0</ele><time>2026-05-01T15:28:30Z</time></trkpt><trkpt lat="40.48931990861255" lon="16.69356185420314"><ele>42.0</ele><time>2026-05-01T15:28:31Z</time></trkpt><trkpt lat="40.489361809965935" lon="16.69324228613872"><ele>42.0</ele><time>2026-05-01T15:28:32Z</time></trkpt><trkpt lat="40.48940553735103" lon="16.692930979038966"><ele>42.0</ele><time>2026-05-01T15:28:33Z</time></trkpt><trkpt lat="40.48944138325615" lon="16.69261705543066"><ele>40.0</ele><time>2026-05-01T15:28:34Z</time></trkpt><trkpt lat="40.48947940222758" lon="16.69230231878827"><ele>38.0</ele><time>2026-05-01T15:28:35Z</time></trkpt><trkpt lat="40.489516209109155" lon="16.69200034869099"><ele>38.5</ele><time>2026-05-01T15:28:36Z</time></trkpt><trkpt lat="40.48955032309059" lon="16.69169707653089"><ele>39.0</ele><time>2026-05-01T15:28:37Z</time></trkpt><trkpt lat="40.48958532085482" lon="16.69139402762074"><ele>38.0</ele><time>2026-05-01T15:28:38Z</time></trkpt><trkpt lat="40.48961949365542" lon="16.69108850526025"><ele>37.0</ele><time>2026-05-01T15:28:39Z</time></trkpt><trkpt lat="40.489656648443344" lon="16.690785409094296"><ele>37.0</ele><time>2026-05-01T15:28:40Z</time></trkpt><trkpt lat="40.48969733537126" lon="16.690478754851195"><ele>37.0</ele><time>2026-05-01T15:28:41Z</time></trkpt><trkpt lat="40.48974881034943" lon="16.69015484820453"><ele>37.0</ele><time>2026-05-01T15:28:42Z</time></trkpt><trkpt lat="40.4897960095739" lon="16.689805493020728"><ele>37.0</ele><time>2026-05-01T15:28:43Z</time></trkpt><trkpt lat="40.48983295544417" lon="16.689456557810637"><ele>37.5</ele><time>2026-05-01T15:28:44Z</time></trkpt><trkpt lat="40.4898649415092" lon="16.68911475968153"><ele>38.0</ele><time>2026-05-01T15:28:45Z</time></trkpt><trkpt lat="40.48989462404112" lon="16.688777450775515"><ele>38.5</ele><time>2026-05-01T15:28:46Z</time></trkpt><trkpt lat="40.489929402834136" lon="16.688439467441306"><ele>39.0</ele><time>2026-05-01T15:28:47Z</time></trkpt><trkpt lat="40.489961029025665" lon="16.68809987198225"><ele>39.0</ele><time>2026-05-01T15:28:48Z</time></trkpt><trkpt lat="40.48999453051395" lon="16.68775792439828"><ele>39.0</ele><time>2026-05-01T15:28:49Z</time></trkpt><trkpt lat="40.49003327366965" lon="16.687401754692157"><ele>39.0</ele><time>2026-05-01T15:28:50Z</time></trkpt><trkpt lat="40.49006915982903" lon="16.687056920607603"><ele>39.0</ele><time>2026-05-01T15:28:51Z</time></trkpt><trkpt lat="40.49010321277797" lon="16.68670968375519"><ele>39.0</ele><time>2026-05-01T15:28:52Z</time></trkpt><trkpt lat="40.49013947277741" lon="16.686373240296415"><ele>39.0</ele><time>2026-05-01T15:28:53Z</time></trkpt><trkpt lat="40.490178378451525" lon="16.68604100967286"><ele>38.0</ele><time>2026-05-01T15:28:54Z</time></trkpt><trkpt lat="40.49021837844857" lon="16.685710559419153"><ele>37.0</ele><time>2026-05-01T15:28:55Z</time></trkpt><trkpt lat="40.49025486144523" lon="16.685377563869583"><ele>38.0</ele><time>2026-05-01T15:28:56Z</time></trkpt><trkpt lat="40.49029017947008" lon="16.685043610902838"><ele>39.0</ele><time>2026-05-01T15:28:57Z</time></trkpt><trkpt lat="40.49033069835081" lon="16.68471000665711"><ele>39.0</ele><time>2026-05-01T15:28:58Z</time></trkpt><trkpt lat="40.490369512046044" lon="16.684380786266743"><ele>39.0</ele><time>2026-05-01T15:28:59Z</time></trkpt><trkpt lat="40.49040399224623" lon="16.684056890869662"><ele>39.0</ele><time>2026-05-01T15:29:00Z</time></trkpt><trkpt lat="40.49043812608547" lon="16.68373524062447"><ele>39.0</ele><time>2026-05-01T15:29:01Z</time></trkpt><trkpt lat="40.49047376815866" lon="16.683411484293654"><ele>39.0</ele><time>2026-05-01T15:29:02Z</time></trkpt><trkpt lat="40.490510269111155" lon="16.68308765547568"><ele>39.0</ele><time>2026-05-01T15:29:03Z</time></trkpt><trkpt lat="40.49054383961056" lon="16.682758503305315"><ele>39.0</ele><time>2026-05-01T15:29:04Z</time></trkpt><trkpt lat="40.490584209305105" lon="16.682425636792374"><ele>39.0</ele><time>2026-05-01T15:29:05Z</time></trkpt><trkpt lat="40.49062357611246" lon="16.68210160286564"><ele>40.5</ele><time>2026-05-01T15:29:06Z</time></trkpt><trkpt lat="40.49067245872607" lon="16.68177572755466"><ele>42.0</ele><time>2026-05-01T15:29:07Z</time></trkpt><trkpt lat="40.49067580207174" lon="16.68149018183943"><ele>42.0</ele><time>2026-05-01T15:29:08Z</time></trkpt><trkpt lat="40.490713831893615" lon="16.68118700380224"><ele>42.0</ele><time>2026-05-01T15:29:09Z</time></trkpt><trkpt lat="40.49075685968301" lon="16.680884475011418"><ele>42.0</ele><time>2026-05-01T15:29:10Z</time></trkpt><trkpt lat="40.49079562400775" lon="16.6805646814057"><ele>42.0</ele><time>2026-05-01T15:29:11Z</time></trkpt><trkpt lat="40.49083150064541" lon="16.68023929338329"><ele>42.0</ele><time>2026-05-01T15:29:12Z</time></trkpt><trkpt lat="40.49087008534743" lon="16.67990762700575"><ele>42.0</ele><time>2026-05-01T15:29:13Z</time></trkpt><trkpt lat="40.49090113471852" lon="16.679577984073468"><ele>42.0</ele><time>2026-05-01T15:29:14Z</time></trkpt><trkpt lat="40.4909331899204" lon="16.679257876597077"><ele>42.0</ele><time>2026-05-01T15:29:15Z</time></trkpt><trkpt lat="40.490961178071586" lon="16.67896533250579"><ele>42.0</ele><time>2026-05-01T15:29:16Z</time></trkpt><trkpt lat="40.49099923046218" lon="16.678666166822364"><ele>42.0</ele><time>2026-05-01T15:29:17Z</time></trkpt><trkpt lat="40.491029966586034" lon="16.678384223517224"><ele>42.0</ele><time>2026-05-01T15:29:18Z</time></trkpt><trkpt lat="40.49106733513046" lon="16.678119331409697"><ele>42.333333333333336</ele><time>2026-05-01T15:29:19Z</time></trkpt><trkpt lat="40.49109249764633" lon="16.67785039807174"><ele>42.66666666666667</ele><time>2026-05-01T15:29:20Z</time></trkpt><trkpt lat="40.49112229110265" lon="16.67755600875043"><ele>43.0</ele><time>2026-05-01T15:29:21Z</time></trkpt><trkpt lat="40.491155376510925" lon="16.677254462077908"><ele>43.0</ele><time>2026-05-01T15:29:22Z</time></trkpt><trkpt lat="40.49118713663735" lon="16.676947893526044"><ele>43.0</ele><time>2026-05-01T15:29:23Z</time></trkpt><trkpt lat="40.49121675110838" lon="16.676649878774416"><ele>43.5</ele><time>2026-05-01T15:29:24Z</time></trkpt><trkpt lat="40.491249118976555" lon="16.676356352307604"><ele>44.0</ele><time>2026-05-01T15:29:25Z</time></trkpt><trkpt lat="40.49128326857446" lon="16.676064103333104"><ele>43.0</ele><time>2026-05-01T15:29:26Z</time></trkpt><trkpt lat="40.49132389576242" lon="16.675760504167833"><ele>42.0</ele><time>2026-05-01T15:29:27Z</time></trkpt><trkpt lat="40.49135672200771" lon="16.675472378316126"><ele>43.0</ele><time>2026-05-01T15:29:28Z</time></trkpt><trkpt lat="40.49139358375788" lon="16.67517456274128"><ele>44.0</ele><time>2026-05-01T15:29:29Z</time></trkpt><trkpt lat="40.491435866980076" lon="16.67486102113392"><ele>44.0</ele><time>2026-05-01T15:29:30Z</time></trkpt><trkpt lat="40.49148123348407" lon="16.67452422001846"><ele>44.0</ele><time>2026-05-01T15:29:31Z</time></trkpt><trkpt lat="40.49152383237423" lon="16.674183236136646"><ele>44.0</ele><time>2026-05-01T15:29:32Z</time></trkpt><trkpt lat="40.49155840223156" lon="16.673849975379103"><ele>44.0</ele><time>2026-05-01T15:29:33Z</time></trkpt><trkpt lat="40.49159637133175" lon="16.67351068723459"><ele>43.5</ele><time>2026-05-01T15:29:34Z</time></trkpt><trkpt lat="40.49162235944589" lon="16.67317142028291"><ele>43.0</ele><time>2026-05-01T15:29:35Z</time></trkpt><trkpt lat="40.491682390801884" lon="16.672819684134282"><ele>43.5</ele><time>2026-05-01T15:29:36Z</time></trkpt><trkpt lat="40.49173985595201" lon="16.672491099038577"><ele>44.0</ele><time>2026-05-01T15:29:37Z</time></trkpt><trkpt lat="40.4917583168819" lon="16.672145796932835"><ele>44.0</ele><time>2026-05-01T15:29:38Z</time></trkpt><trkpt lat="40.49180049233209" lon="16.671834151147085"><ele>44.0</ele><time>2026-05-01T15:29:39Z</time></trkpt><trkpt lat="40.491835944882574" lon="16.67150162489486"><ele>44.0</ele><time>2026-05-01T15:29:40Z</time></trkpt><trkpt lat="40.49188303953419" lon="16.671167178503957"><ele>44.0</ele><time>2026-05-01T15:29:41Z</time></trkpt><trkpt lat="40.49192355478049" lon="16.670838104460856"><ele>44.0</ele><time>2026-05-01T15:29:42Z</time></trkpt><trkpt lat="40.49196502743409" lon="16.670517950311623"><ele>44.0</ele><time>2026-05-01T15:29:43Z</time></trkpt><trkpt lat="40.492005039113444" lon="16.670201444524835"><ele>44.0</ele><time>2026-05-01T15:29:44Z</time></trkpt><trkpt lat="40.49204482213003" lon="16.669880362531618"><ele>44.0</ele><time>2026-05-01T15:29:45Z</time></trkpt><trkpt lat="40.49208354830531" lon="16.66955771456038"><ele>43.5</ele><time>2026-05-01T15:29:46Z</time></trkpt><trkpt lat="40.4921225293032" lon="16.669253107738328"><ele>43.0</ele><time>2026-05-01T15:29:47Z</time></trkpt><trkpt lat="40.49216662100416" lon="16.668945749664818"><ele>43.0</ele><time>2026-05-01T15:29:47.999Z</time></trkpt><trkpt lat="40.49220985042456" lon="16.66865304133585"><ele>43.0</ele><time>2026-05-01T15:29:48.999Z</time></trkpt><trkpt lat="40.492260357217155" lon="16.668371312338074"><ele>43.0</ele><time>2026-05-01T15:29:49.999Z</time></trkpt><trkpt lat="40.4923019123627" lon="16.668107615581448"><ele>43.0</ele><time>2026-05-01T15:29:50.999Z</time></trkpt><trkpt lat="40.4923508322705" lon="16.66783652476016"><ele>43.0</ele><time>2026-05-01T15:29:51.999Z</time></trkpt><trkpt lat="40.49241141144438" lon="16.66755389346307"><ele>43.0</ele><time>2026-05-01T15:29:52.999Z</time></trkpt><trkpt lat="40.49247969714045" lon="16.667286809061128"><ele>43.0</ele><time>2026-05-01T15:29:53.999Z</time></trkpt><trkpt lat="40.4925519980639" lon="16.667028986797316"><ele>43.0</ele><time>2026-05-01T15:29:54.999Z</time></trkpt><trkpt lat="40.49261870326414" lon="16.66676627519614"><ele>43.0</ele><time>2026-05-01T15:29:55.999Z</time></trkpt><trkpt lat="40.49269452164769" lon="16.6664983277323"><ele>43.333333333333336</ele><time>2026-05-01T15:29:56.999Z</time></trkpt><trkpt lat="40.49277789973656" lon="16.66623396934712"><ele>43.666666666666664</ele><time>2026-05-01T15:29:57.999Z</time></trkpt><trkpt lat="40.49285933494762" lon="16.665963498747566"><ele>44.0</ele><time>2026-05-01T15:29:58.999Z</time></trkpt><trkpt lat="40.49296469030918" lon="16.665655254333494"><ele>44.0</ele><time>2026-05-01T15:29:59.999Z</time></trkpt><trkpt lat="40.493081427644896" lon="16.665416300358444"><ele>44.0</ele><time>2026-05-01T15:30:00.999Z</time></trkpt><trkpt lat="40.49319135836836" lon="16.665147494483872"><ele>44.0</ele><time>2026-05-01T15:30:01.999Z</time></trkpt><trkpt lat="40.49330781251691" lon="16.664863153863784"><ele>44.33333333333333</ele><time>2026-05-01T15:30:02.999Z</time></trkpt><trkpt lat="40.49342113645277" lon="16.664620978008443"><ele>44.666666666666664</ele><time>2026-05-01T15:30:03.999Z</time></trkpt><trkpt lat="40.493537180070625" lon="16.66437861271826"><ele>45.0</ele><time>2026-05-01T15:30:04.999Z</time></trkpt><trkpt lat="40.4936537360098" lon="16.664140975346015"><ele>45.5</ele><time>2026-05-01T15:30:05.999Z</time></trkpt><trkpt lat="40.49377458761905" lon="16.66389605616347"><ele>46.0</ele><time>2026-05-01T15:30:06.999Z</time></trkpt><trkpt lat="40.49391101053226" lon="16.663640021169158"><ele>45.5</ele><time>2026-05-01T15:30:07.999Z</time></trkpt><trkpt lat="40.494069321923526" lon="16.66338691774577"><ele>45.0</ele><time>2026-05-01T15:30:08.999Z</time></trkpt><trkpt lat="40.494233389605384" lon="16.663141649487912"><ele>45.0</ele><time>2026-05-01T15:30:09.999Z</time></trkpt><trkpt lat="40.49438811700068" lon="16.662904045345993"><ele>45.0</ele><time>2026-05-01T15:30:10.999Z</time></trkpt><trkpt lat="40.49454982084222" lon="16.662687608438524"><ele>45.0</ele><time>2026-05-01T15:30:11.999Z</time></trkpt><trkpt lat="40.49472504610021" lon="16.662452347882397"><ele>45.0</ele><time>2026-05-01T15:30:12.999Z</time></trkpt><trkpt lat="40.49490174022667" lon="16.662214785906322"><ele>45.5</ele><time>2026-05-01T15:30:13.999Z</time></trkpt><trkpt lat="40.495114567279884" lon="16.661944490448917"><ele>46.0</ele><time>2026-05-01T15:30:14.999Z</time></trkpt><trkpt lat="40.495308285782166" lon="16.66175089062101"><ele>46.0</ele><time>2026-05-01T15:30:15.999Z</time></trkpt><trkpt lat="40.49551922606757" lon="16.66153064642455"><ele>46.0</ele><time>2026-05-01T15:30:16.999Z</time></trkpt><trkpt lat="40.49572061147195" lon="16.661332379608943"><ele>46.0</ele><time>2026-05-01T15:30:17.999Z</time></trkpt><trkpt lat="40.49593377059317" lon="16.661137623743187"><ele>46.0</ele><time>2026-05-01T15:30:18.999Z</time></trkpt><trkpt lat="40.496155438083726" lon="16.660936202572692"><ele>46.5</ele><time>2026-05-01T15:30:19.999Z</time></trkpt><trkpt lat="40.49638087877465" lon="16.660763964620966"><ele>47.0</ele><time>2026-05-01T15:30:20.999Z</time></trkpt><trkpt lat="40.496591427828626" lon="16.66058658633916"><ele>47.0</ele><time>2026-05-01T15:30:21.999Z</time></trkpt><trkpt lat="40.49681819994896" lon="16.66040727201579"><ele>47.0</ele><time>2026-05-01T15:30:22.999Z</time></trkpt><trkpt lat="40.497041231831396" lon="16.660247473946473"><ele>48.0</ele><time>2026-05-01T15:30:23.999Z</time></trkpt><trkpt lat="40.49726638820325" lon="16.660071984140792"><ele>49.0</ele><time>2026-05-01T15:30:24.999Z</time></trkpt><trkpt lat="40.49747759424373" lon="16.659876703128084"><ele>49.0</ele><time>2026-05-01T15:30:25.999Z</time></trkpt><trkpt lat="40.49770077527377" lon="16.65972895637507"><ele>49.0</ele><time>2026-05-01T15:30:27Z</time></trkpt><trkpt lat="40.49792283075453" lon="16.65956053506141"><ele>48.0</ele><time>2026-05-01T15:30:28Z</time></trkpt><trkpt lat="40.49814783524206" lon="16.65939047279059"><ele>47.0</ele><time>2026-05-01T15:30:29Z</time></trkpt><trkpt lat="40.49836743149503" lon="16.659193857752125"><ele>47.0</ele><time>2026-05-01T15:30:30Z</time></trkpt><trkpt lat="40.49859677033537" lon="16.65904968760963"><ele>47.0</ele><time>2026-05-01T15:30:31Z</time></trkpt><trkpt lat="40.498826023369716" lon="16.65888244540399"><ele>47.0</ele><time>2026-05-01T15:30:32Z</time></trkpt><trkpt lat="40.4990498593916" lon="16.658711823700628"><ele>47.0</ele><time>2026-05-01T15:30:33Z</time></trkpt><trkpt lat="40.49927243552992" lon="16.658539116318167"><ele>46.5</ele><time>2026-05-01T15:30:34Z</time></trkpt><trkpt lat="40.49949714501982" lon="16.6583607112269"><ele>46.0</ele><time>2026-05-01T15:30:35Z</time></trkpt><trkpt lat="40.49971171870083" lon="16.65817921000512"><ele>47.0</ele><time>2026-05-01T15:30:36Z</time></trkpt><trkpt lat="40.499916956027214" lon="16.657989670412825"><ele>48.0</ele><time>2026-05-01T15:30:37Z</time></trkpt><trkpt lat="40.500120295832765" lon="16.657786032627598"><ele>48.0</ele><time>2026-05-01T15:30:38Z</time></trkpt><trkpt lat="40.500316666742165" lon="16.657573422256792"><ele>48.0</ele><time>2026-05-01T15:30:39Z</time></trkpt><trkpt lat="40.50050994724201" lon="16.657357424696514"><ele>48.0</ele><time>2026-05-01T15:30:40Z</time></trkpt><trkpt lat="40.50069711046175" lon="16.657138478309744"><ele>48.0</ele><time>2026-05-01T15:30:41Z</time></trkpt><trkpt lat="40.500886484406564" lon="16.656909487857565"><ele>50.0</ele><time>2026-05-01T15:30:42Z</time></trkpt><trkpt lat="40.501063984017954" lon="16.656673763032412"><ele>52.0</ele><time>2026-05-01T15:30:43Z</time></trkpt><trkpt lat="40.501236422344" lon="16.65642383936708"><ele>50.0</ele><time>2026-05-01T15:30:44Z</time></trkpt><trkpt lat="40.5014011861007" lon="16.656172120830643"><ele>48.0</ele><time>2026-05-01T15:30:45Z</time></trkpt><trkpt lat="40.50156085619904" lon="16.655914061862813"><ele>48.0</ele><time>2026-05-01T15:30:46Z</time></trkpt><trkpt lat="40.501711882539034" lon="16.65565123088877"><ele>48.0</ele><time>2026-05-01T15:30:47Z</time></trkpt><trkpt lat="40.50186364729691" lon="16.65537640102178"><ele>48.0</ele><time>2026-05-01T15:30:48Z</time></trkpt><trkpt lat="40.50201703417367" lon="16.655088867428482"><ele>48.0</ele><time>2026-05-01T15:30:49Z</time></trkpt><trkpt lat="40.50216773730378" lon="16.654800004360045"><ele>48.0</ele><time>2026-05-01T15:30:50Z</time></trkpt><trkpt lat="40.50230491250136" lon="16.654510637336127"><ele>48.0</ele><time>2026-05-01T15:30:51Z</time></trkpt><trkpt lat="40.50244668747424" lon="16.654242899162362"><ele>49.0</ele><time>2026-05-01T15:30:52Z</time></trkpt><trkpt lat="40.50259339525907" lon="16.65392607239178"><ele>50.0</ele><time>2026-05-01T15:30:53Z</time></trkpt><trkpt lat="40.50273722810147" lon="16.653629260247044"><ele>50.0</ele><time>2026-05-01T15:30:54Z</time></trkpt><trkpt lat="40.50287555161205" lon="16.65334007258021"><ele>50.0</ele><time>2026-05-01T15:30:55Z</time></trkpt><trkpt lat="40.50301393407989" lon="16.653054436937943"><ele>50.0</ele><time>2026-05-01T15:30:56Z</time></trkpt><trkpt lat="40.50315341333264" lon="16.65276992439687"><ele>50.0</ele><time>2026-05-01T15:30:57Z</time></trkpt><trkpt lat="40.50329138485502" lon="16.652487200212004"><ele>50.0</ele><time>2026-05-01T15:30:58Z</time></trkpt><trkpt lat="40.5034323828956" lon="16.652206925946494"><ele>50.0</ele><time>2026-05-01T15:30:59Z</time></trkpt><trkpt lat="40.503571494062484" lon="16.65192591913503"><ele>50.5</ele><time>2026-05-01T15:31:00Z</time></trkpt><trkpt lat="40.50370757215527" lon="16.6516528298473"><ele>51.0</ele><time>2026-05-01T15:31:01Z</time></trkpt><trkpt lat="40.50384636379399" lon="16.651374144106477"><ele>50.0</ele><time>2026-05-01T15:31:02Z</time></trkpt><trkpt lat="40.50398238669956" lon="16.65109525579546"><ele>49.0</ele><time>2026-05-01T15:31:03Z</time></trkpt><trkpt lat="40.50411875897007" lon="16.65082877266943"><ele>49.0</ele><time>2026-05-01T15:31:04Z</time></trkpt><trkpt lat="40.50425395099324" lon="16.65055943643979"><ele>49.0</ele><time>2026-05-01T15:31:05Z</time></trkpt><trkpt lat="40.50439218644184" lon="16.65028529238835"><ele>48.5</ele><time>2026-05-01T15:31:06Z</time></trkpt><trkpt lat="40.50453259206503" lon="16.650005107821993"><ele>48.0</ele><time>2026-05-01T15:31:07Z</time></trkpt><trkpt lat="40.504685040144125" lon="16.64972716869942"><ele>48.0</ele><time>2026-05-01T15:31:08Z</time></trkpt><trkpt lat="40.50482609619546" lon="16.64946711584014"><ele>48.0</ele><time>2026-05-01T15:31:09Z</time></trkpt><trkpt lat="40.50497386637041" lon="16.649203384407727"><ele>48.0</ele><time>2026-05-01T15:31:10Z</time></trkpt><trkpt lat="40.50512031011901" lon="16.64893694430943"><ele>48.0</ele><time>2026-05-01T15:31:11Z</time></trkpt><trkpt lat="40.505266249130514" lon="16.648678569688425"><ele>48.0</ele><time>2026-05-01T15:31:12Z</time></trkpt><trkpt lat="40.50541768284376" lon="16.648423023280888"><ele>48.0</ele><time>2026-05-01T15:31:13Z</time></trkpt><trkpt lat="40.50557093448359" lon="16.648164577861785"><ele>48.0</ele><time>2026-05-01T15:31:14Z</time></trkpt><trkpt lat="40.50572724220684" lon="16.64790516972063"><ele>48.0</ele><time>2026-05-01T15:31:15Z</time></trkpt><trkpt lat="40.50588852386839" lon="16.647638251312344"><ele>48.5</ele><time>2026-05-01T15:31:16Z</time></trkpt><trkpt lat="40.50605692229436" lon="16.64737168665529"><ele>49.0</ele><time>2026-05-01T15:31:17Z</time></trkpt><trkpt lat="40.50623092425201" lon="16.647104687796123"><ele>50.0</ele><time>2026-05-01T15:31:18Z</time></trkpt><trkpt lat="40.506405744928095" lon="16.646834235542325"><ele>51.0</ele><time>2026-05-01T15:31:19Z</time></trkpt><trkpt lat="40.50658089221235" lon="16.646566058846684"><ele>51.0</ele><time>2026-05-01T15:31:20Z</time></trkpt><trkpt lat="40.506761614720105" lon="16.64630403547829"><ele>51.0</ele><time>2026-05-01T15:31:21Z</time></trkpt><trkpt lat="40.50693531246115" lon="16.64605566612861"><ele>51.5</ele><time>2026-05-01T15:31:22Z</time></trkpt><trkpt lat="40.507096119031054" lon="16.64582570066827"><ele>52.0</ele><time>2026-05-01T15:31:23Z</time></trkpt><trkpt lat="40.507257501193166" lon="16.64560773752374"><ele>52.0</ele><time>2026-05-01T15:31:24Z</time></trkpt><trkpt lat="40.507435932950756" lon="16.645384916838967"><ele>52.0</ele><time>2026-05-01T15:31:25Z</time></trkpt><trkpt lat="40.50764826908597" lon="16.645149260099497"><ele>52.5</ele><time>2026-05-01T15:31:26Z</time></trkpt><trkpt lat="40.5078229102446" lon="16.644896444707975"><ele>53.0</ele><time>2026-05-01T15:31:27Z</time></trkpt><trkpt lat="40.50800980377663" lon="16.644658241176842"><ele>53.0</ele><time>2026-05-01T15:31:28Z</time></trkpt><trkpt lat="40.508170318499346" lon="16.644423682422282"><ele>53.0</ele><time>2026-05-01T15:31:29Z</time></trkpt><trkpt lat="40.50835512262407" lon="16.64418799152882"><ele>53.0</ele><time>2026-05-01T15:31:30Z</time></trkpt><trkpt lat="40.508542316510514" lon="16.64395820897425"><ele>53.0</ele><time>2026-05-01T15:31:31Z</time></trkpt><trkpt lat="40.50872089003197" lon="16.643734322416226"><ele>52.5</ele><time>2026-05-01T15:31:32Z</time></trkpt><trkpt lat="40.50890912603795" lon="16.64351473916891"><ele>52.0</ele><time>2026-05-01T15:31:33Z</time></trkpt><trkpt lat="40.50910351968687" lon="16.64328878576292"><ele>52.0</ele><time>2026-05-01T15:31:34Z</time></trkpt><trkpt lat="40.50930325811424" lon="16.643068450333033"><ele>52.0</ele><time>2026-05-01T15:31:35Z</time></trkpt><trkpt lat="40.50950513941107" lon="16.642845297341417"><ele>52.5</ele><time>2026-05-01T15:31:36Z</time></trkpt><trkpt lat="40.50970811770813" lon="16.642620431641223"><ele>53.0</ele><time>2026-05-01T15:31:37Z</time></trkpt><trkpt lat="40.50990475192391" lon="16.64240538909821"><ele>53.0</ele><time>2026-05-01T15:31:38Z</time></trkpt><trkpt lat="40.5101059610866" lon="16.64219950959854"><ele>53.0</ele><time>2026-05-01T15:31:39Z</time></trkpt><trkpt lat="40.51030191238539" lon="16.641997845053016"><ele>51.5</ele><time>2026-05-01T15:31:40Z</time></trkpt><trkpt lat="40.51049882454675" lon="16.641795536833914"><ele>50.0</ele><time>2026-05-01T15:31:41Z</time></trkpt><trkpt lat="40.510699519463344" lon="16.641590956383396"><ele>50.0</ele><time>2026-05-01T15:31:42Z</time></trkpt><trkpt lat="40.510899322109786" lon="16.64138961485203"><ele>50.0</ele><time>2026-05-01T15:31:43Z</time></trkpt><trkpt lat="40.51109401031598" lon="16.641189915834953"><ele>48.5</ele><time>2026-05-01T15:31:44Z</time></trkpt><trkpt lat="40.5112983295733" lon="16.64098888275586"><ele>47.0</ele><time>2026-05-01T15:31:45Z</time></trkpt><trkpt lat="40.51150039207788" lon="16.64078967867127"><ele>47.0</ele><time>2026-05-01T15:31:46Z</time></trkpt><trkpt lat="40.511704416033844" lon="16.640594204439353"><ele>47.0</ele><time>2026-05-01T15:31:47Z</time></trkpt><trkpt lat="40.51190601873946" lon="16.640395781440855"><ele>48.0</ele><time>2026-05-01T15:31:48Z</time></trkpt><trkpt lat="40.51210434851932" lon="16.640197139350583"><ele>49.0</ele><time>2026-05-01T15:31:49Z</time></trkpt><trkpt lat="40.512307785195254" lon="16.639991603276986"><ele>49.0</ele><time>2026-05-01T15:31:50Z</time></trkpt><trkpt lat="40.512508158588204" lon="16.63979852119931"><ele>49.0</ele><time>2026-05-01T15:31:51Z</time></trkpt><trkpt lat="40.512703763479536" lon="16.639602982136285"><ele>49.0</ele><time>2026-05-01T15:31:52Z</time></trkpt><trkpt lat="40.512899164522466" lon="16.639412475707417"><ele>49.0</ele><time>2026-05-01T15:31:53Z</time></trkpt><trkpt lat="40.513087874706564" lon="16.639221917918636"><ele>49.0</ele><time>2026-05-01T15:31:54Z</time></trkpt><trkpt lat="40.513281798655754" lon="16.639025859088296"><ele>49.0</ele><time>2026-05-01T15:31:55Z</time></trkpt><trkpt lat="40.51348172091743" lon="16.638826814386732"><ele>49.0</ele><time>2026-05-01T15:31:56Z</time></trkpt><trkpt lat="40.51367787698561" lon="16.638655803037036"><ele>49.0</ele><time>2026-05-01T15:31:57Z</time></trkpt><trkpt lat="40.51386036232619" lon="16.638440053309196"><ele>48.666666666666664</ele><time>2026-05-01T15:31:57.999Z</time></trkpt><trkpt lat="40.51403696767197" lon="16.638271521976293"><ele>48.33333333333333</ele><time>2026-05-01T15:31:58.999Z</time></trkpt><trkpt lat="40.5142036232716" lon="16.638103424202246"><ele>48.0</ele><time>2026-05-01T15:31:59.999Z</time></trkpt><trkpt lat="40.51438237203466" lon="16.63792635339356"><ele>48.66666666666667</ele><time>2026-05-01T15:32:00.999Z</time></trkpt><trkpt lat="40.51455795329516" lon="16.637752693228645"><ele>49.333333333333336</ele><time>2026-05-01T15:32:01.999Z</time></trkpt><trkpt lat="40.514722523165865" lon="16.637584658753024"><ele>50.0</ele><time>2026-05-01T15:32:02.999Z</time></trkpt><trkpt lat="40.514884169308196" lon="16.63742573096905"><ele>50.333333333333336</ele><time>2026-05-01T15:32:03.999Z</time></trkpt><trkpt lat="40.51504106557042" lon="16.637268644526007"><ele>50.66666666666667</ele><time>2026-05-01T15:32:04.999Z</time></trkpt><trkpt lat="40.515178170804106" lon="16.6371333881747"><ele>51.0</ele><time>2026-05-01T15:32:05.999Z</time></trkpt><trkpt lat="40.51526779317475" lon="16.637040231144898"><ele>51.0</ele><time>2026-05-01T15:32:06.999Z</time></trkpt><trkpt lat="40.515330165905816" lon="16.636944784478732"><ele>51.0</ele><time>2026-05-01T15:32:07.999Z</time></trkpt><trkpt lat="40.51536988466885" lon="16.636829498846787"><ele>51.0</ele><time>2026-05-01T15:32:08.999Z</time></trkpt><trkpt lat="40.5153960096623" lon="16.636732803699363"><ele>51.0</ele><time>2026-05-01T15:32:09.999Z</time></trkpt><trkpt lat="40.515365599724646" lon="16.636648620287325"><ele>51.0</ele><time>2026-05-01T15:32:10.999Z</time></trkpt><trkpt lat="40.51543614336767" lon="16.6365821634774"><ele>51.0</ele><time>2026-05-01T15:32:17.999Z</time></trkpt><trkpt lat="40.51540209114299" lon="16.63665686978061"><ele>51.0</ele><time>2026-05-01T15:32:20.999Z</time></trkpt><trkpt lat="40.515334627110555" lon="16.636606963848912"><ele>51.0</ele><time>2026-05-01T15:32:23.999Z</time></trkpt><trkpt lat="40.5152670124526" lon="16.636667872418553"><ele>51.0</ele><time>2026-05-01T15:32:43Z</time></trkpt><trkpt lat="40.51525629539605" lon="16.636770567895145"><ele>51.0</ele><time>2026-05-01T15:32:46Z</time></trkpt><trkpt lat="40.51530763136016" lon="16.63683103284461"><ele>51.0</ele><time>2026-05-01T15:32:50Z</time></trkpt><trkpt lat="40.5154148651803" lon="16.636857616395876"><ele>51.0</ele><time>2026-05-01T15:33:06Z</time></trkpt><trkpt lat="40.51551539846104" lon="16.63681686496896"><ele>51.0</ele><time>2026-05-01T15:33:07Z</time></trkpt><trkpt lat="40.51560131274584" lon="16.636770275915925"><ele>51.0</ele><time>2026-05-01T15:33:08Z</time></trkpt><trkpt lat="40.51568525593684" lon="16.636687999197036"><ele>51.0</ele><time>2026-05-01T15:33:09Z</time></trkpt><trkpt lat="40.51577673564034" lon="16.636596697938526"><ele>51.0</ele><time>2026-05-01T15:33:10Z</time></trkpt><trkpt lat="40.51586871345715" lon="16.63650371664433"><ele>51.0</ele><time>2026-05-01T15:33:11Z</time></trkpt><trkpt lat="40.51597028525183" lon="16.636414829756614"><ele>51.0</ele><time>2026-05-01T15:33:12Z</time></trkpt><trkpt lat="40.51608309825045" lon="16.636328773503628"><ele>51.0</ele><time>2026-05-01T15:33:13Z</time></trkpt><trkpt lat="40.51618728356777" lon="16.63623319150712"><ele>51.0</ele><time>2026-05-01T15:33:14Z</time></trkpt><trkpt lat="40.5162975482024" lon="16.63614025327828"><ele>51.0</ele><time>2026-05-01T15:33:15Z</time></trkpt><trkpt lat="40.51640660154284" lon="16.636042328418288"><ele>51.5</ele><time>2026-05-01T15:33:16Z</time></trkpt><trkpt lat="40.51651335201195" lon="16.6359464392132"><ele>52.0</ele><time>2026-05-01T15:33:17Z</time></trkpt><trkpt lat="40.516620977947014" lon="16.63584907629981"><ele>52.5</ele><time>2026-05-01T15:33:18Z</time></trkpt><trkpt lat="40.516726004156155" lon="16.635746672205652"><ele>53.0</ele><time>2026-05-01T15:33:19Z</time></trkpt><trkpt lat="40.516827151273" lon="16.63566069972772"><ele>53.0</ele><time>2026-05-01T15:33:20Z</time></trkpt><trkpt lat="40.51691725213295" lon="16.635568737876895"><ele>53.0</ele><time>2026-05-01T15:33:21Z</time></trkpt><trkpt lat="40.51701923423969" lon="16.63546224078473"><ele>53.0</ele><time>2026-05-01T15:33:22Z</time></trkpt><trkpt lat="40.51714193374482" lon="16.63535748192955"><ele>53.0</ele><time>2026-05-01T15:33:23Z</time></trkpt><trkpt lat="40.517276237912974" lon="16.63527089830191"><ele>52.5</ele><time>2026-05-01T15:33:24Z</time></trkpt><trkpt lat="40.517402863988785" lon="16.635169170832057"><ele>52.0</ele><time>2026-05-01T15:33:25Z</time></trkpt><trkpt lat="40.51752990949085" lon="16.635065709307156"><ele>51.5</ele><time>2026-05-01T15:33:26Z</time></trkpt><trkpt lat="40.51765431908669" lon="16.634951736554306"><ele>51.0</ele><time>2026-05-01T15:33:27Z</time></trkpt><trkpt lat="40.51778215664838" lon="16.634842899860352"><ele>51.0</ele><time>2026-05-01T15:33:28Z</time></trkpt><trkpt lat="40.51790962311446" lon="16.634711554046714"><ele>51.0</ele><time>2026-05-01T15:33:29Z</time></trkpt><trkpt lat="40.51804106489747" lon="16.634598628662705"><ele>51.0</ele><time>2026-05-01T15:33:30Z</time></trkpt><trkpt lat="40.51818893950514" lon="16.63449063084843"><ele>51.0</ele><time>2026-05-01T15:33:31Z</time></trkpt><trkpt lat="40.51832525390196" lon="16.634374150417564"><ele>51.0</ele><time>2026-05-01T15:33:32Z</time></trkpt><trkpt lat="40.518463137484346" lon="16.63425388653406"><ele>51.0</ele><time>2026-05-01T15:33:33Z</time></trkpt><trkpt lat="40.51860434841816" lon="16.634130542805213"><ele>51.0</ele><time>2026-05-01T15:33:34Z</time></trkpt><trkpt lat="40.518728124083346" lon="16.63402211133215"><ele>51.0</ele><time>2026-05-01T15:33:35Z</time></trkpt><trkpt lat="40.51886024359439" lon="16.633904109905522"><ele>51.0</ele><time>2026-05-01T15:33:36Z</time></trkpt><trkpt lat="40.518979142420854" lon="16.633774434284728"><ele>51.0</ele><time>2026-05-01T15:33:37Z</time></trkpt><trkpt lat="40.51911149398516" lon="16.63366964575741"><ele>51.0</ele><time>2026-05-01T15:33:38Z</time></trkpt><trkpt lat="40.51923419977074" lon="16.633556732509494"><ele>51.0</ele><time>2026-05-01T15:33:39Z</time></trkpt><trkpt lat="40.51936789771669" lon="16.63344820984265"><ele>52.0</ele><time>2026-05-01T15:33:40Z</time></trkpt><trkpt lat="40.51949516590581" lon="16.6333374904722"><ele>53.0</ele><time>2026-05-01T15:33:41Z</time></trkpt><trkpt lat="40.51962172280011" lon="16.633226310661804"><ele>54.0</ele><time>2026-05-01T15:33:42Z</time></trkpt><trkpt lat="40.519749203635136" lon="16.633110306971773"><ele>54.0</ele><time>2026-05-01T15:33:43Z</time></trkpt><trkpt lat="40.51987558476035" lon="16.63300221042963"><ele>54.0</ele><time>2026-05-01T15:33:44Z</time></trkpt><trkpt lat="40.52000647369185" lon="16.632889614494054"><ele>54.0</ele><time>2026-05-01T15:33:45Z</time></trkpt><trkpt lat="40.52014638726475" lon="16.632776490391333"><ele>54.33333333333333</ele><time>2026-05-01T15:33:46Z</time></trkpt><trkpt lat="40.520287528089646" lon="16.63267007652962"><ele>54.666666666666664</ele><time>2026-05-01T15:33:47Z</time></trkpt><trkpt lat="40.520446518731156" lon="16.632538233785905"><ele>55.0</ele><time>2026-05-01T15:33:48Z</time></trkpt><trkpt lat="40.52060034425679" lon="16.632396256275385"><ele>54.666666666666664</ele><time>2026-05-01T15:33:49Z</time></trkpt><trkpt lat="40.52071878572828" lon="16.632193483412497"><ele>54.33333333333333</ele><time>2026-05-01T15:33:50Z</time></trkpt><trkpt lat="40.52087030251061" lon="16.63204084430639"><ele>54.0</ele><time>2026-05-01T15:33:50.999Z</time></trkpt><trkpt lat="40.521018564742086" lon="16.631891508944676"><ele>54.0</ele><time>2026-05-01T15:33:51.999Z</time></trkpt><trkpt lat="40.521178301471174" lon="16.631730216358072"><ele>54.0</ele><time>2026-05-01T15:33:52.999Z</time></trkpt><trkpt lat="40.52134787139894" lon="16.63155819796703"><ele>54.0</ele><time>2026-05-01T15:33:53.999Z</time></trkpt><trkpt lat="40.52152705793791" lon="16.631373768044377"><ele>54.0</ele><time>2026-05-01T15:33:54.999Z</time></trkpt><trkpt lat="40.52168642412053" lon="16.631212899574944"><ele>54.0</ele><time>2026-05-01T15:33:55.999Z</time></trkpt><trkpt lat="40.52185017704137" lon="16.63103995788657"><ele>54.0</ele><time>2026-05-01T15:33:56.999Z</time></trkpt><trkpt lat="40.522016129722715" lon="16.63086579258515"><ele>53.33333333333333</ele><time>2026-05-01T15:33:57.999Z</time></trkpt><trkpt lat="40.522179832846916" lon="16.63069357147937"><ele>52.666666666666664</ele><time>2026-05-01T15:33:58.999Z</time></trkpt><trkpt lat="40.52233913402221" lon="16.630522769259937"><ele>52.0</ele><time>2026-05-01T15:33:59.999Z</time></trkpt><trkpt lat="40.522505413445" lon="16.630343584033433"><ele>52.0</ele><time>2026-05-01T15:34:00.999Z</time></trkpt><trkpt lat="40.5226753724884" lon="16.630154416931"><ele>52.0</ele><time>2026-05-01T15:34:01.999Z</time></trkpt><trkpt lat="40.52284792231285" lon="16.629966744790714"><ele>52.0</ele><time>2026-05-01T15:34:02.999Z</time></trkpt><trkpt lat="40.52301688409023" lon="16.62978021328334"><ele>52.0</ele><time>2026-05-01T15:34:03.999Z</time></trkpt><trkpt lat="40.523164069537785" lon="16.62961136682472"><ele>52.0</ele><time>2026-05-01T15:34:04.999Z</time></trkpt><trkpt lat="40.52333241605285" lon="16.62942082600961"><ele>52.0</ele><time>2026-05-01T15:34:05.999Z</time></trkpt><trkpt lat="40.52349163803643" lon="16.629238520159753"><ele>52.0</ele><time>2026-05-01T15:34:06.999Z</time></trkpt><trkpt lat="40.523647281976956" lon="16.62906906094347"><ele>52.0</ele><time>2026-05-01T15:34:07.999Z</time></trkpt><trkpt lat="40.52379408793457" lon="16.628904099025917"><ele>52.0</ele><time>2026-05-01T15:34:08.999Z</time></trkpt><trkpt lat="40.52394962897921" lon="16.62872959190765"><ele>52.33333333333333</ele><time>2026-05-01T15:34:09.999Z</time></trkpt><trkpt lat="40.524110615479785" lon="16.62855532179776"><ele>52.66666666666667</ele><time>2026-05-01T15:34:10.999Z</time></trkpt><trkpt lat="40.524262963986224" lon="16.628395139089122"><ele>53.0</ele><time>2026-05-01T15:34:11.999Z</time></trkpt><trkpt lat="40.524415163071126" lon="16.628227350347395"><ele>53.0</ele><time>2026-05-01T15:34:12.999Z</time></trkpt><trkpt lat="40.524580283930355" lon="16.628041425595587"><ele>53.0</ele><time>2026-05-01T15:34:13.999Z</time></trkpt><trkpt lat="40.52473566930692" lon="16.62786474913978"><ele>53.0</ele><time>2026-05-01T15:34:14.999Z</time></trkpt><trkpt lat="40.52488818678086" lon="16.627686169892048"><ele>54.0</ele><time>2026-05-01T15:34:15.999Z</time></trkpt><trkpt lat="40.52516086439485" lon="16.627381621896316"><ele>55.0</ele><time>2026-05-01T15:34:17.999Z</time></trkpt><trkpt lat="40.52527523619298" lon="16.627240522529323"><ele>55.0</ele><time>2026-05-01T15:34:18.999Z</time></trkpt><trkpt lat="40.525392079240774" lon="16.62711032014143"><ele>55.0</ele><time>2026-05-01T15:34:19.999Z</time></trkpt><trkpt lat="40.5254974222172" lon="16.626995026166444"><ele>55.0</ele><time>2026-05-01T15:34:20.999Z</time></trkpt><trkpt lat="40.52561682746356" lon="16.626866194436708"><ele>55.0</ele><time>2026-05-01T15:34:21.999Z</time></trkpt><trkpt lat="40.525736159429414" lon="16.626733895017793"><ele>54.75</ele><time>2026-05-01T15:34:22.999Z</time></trkpt><trkpt lat="40.52583179701729" lon="16.62660468474274"><ele>54.5</ele><time>2026-05-01T15:34:23.999Z</time></trkpt><trkpt lat="40.5259242939078" lon="16.626516245137825"><ele>54.25</ele><time>2026-05-01T15:34:24.999Z</time></trkpt><trkpt lat="40.52603719714763" lon="16.626447017976332"><ele>54.0</ele><time>2026-05-01T15:34:25.999Z</time></trkpt><trkpt lat="40.52616740267195" lon="16.62641241501211"><ele>54.0</ele><time>2026-05-01T15:34:26.999Z</time></trkpt><trkpt lat="40.52629010642743" lon="16.626475274679382"><ele>54.0</ele><time>2026-05-01T15:34:27.999Z</time></trkpt><trkpt lat="40.52639834139443" lon="16.626578412146063"><ele>54.0</ele><time>2026-05-01T15:34:28.999Z</time></trkpt><trkpt lat="40.52648472380559" lon="16.626717753568375"><ele>54.0</ele><time>2026-05-01T15:34:29.999Z</time></trkpt><trkpt lat="40.52657424713035" lon="16.626861962607627"><ele>54.0</ele><time>2026-05-01T15:34:30.999Z</time></trkpt><trkpt lat="40.52664749766912" lon="16.627015602319013"><ele>54.0</ele><time>2026-05-01T15:34:31.999Z</time></trkpt><trkpt lat="40.52669948403361" lon="16.62714535565391"><ele>54.0</ele><time>2026-05-01T15:34:32.999Z</time></trkpt><trkpt lat="40.52676387522146" lon="16.62725443536247"><ele>54.0</ele><time>2026-05-01T15:34:33.999Z</time></trkpt><trkpt lat="40.52683727247767" lon="16.627382226218227"><ele>54.0</ele><time>2026-05-01T15:34:34.999Z</time></trkpt><trkpt lat="40.52690619807585" lon="16.62750197962578"><ele>54.0</ele><time>2026-05-01T15:34:35.999Z</time></trkpt><trkpt lat="40.52696334194991" lon="16.627607086726687"><ele>54.0</ele><time>2026-05-01T15:34:36.999Z</time></trkpt><trkpt lat="40.527022455789506" lon="16.627734814486093"><ele>54.0</ele><time>2026-05-01T15:34:37.999Z</time></trkpt><trkpt lat="40.52710584215143" lon="16.627881168838865"><ele>54.25</ele><time>2026-05-01T15:34:39Z</time></trkpt><trkpt lat="40.52721147645265" lon="16.62797860808877"><ele>54.5</ele><time>2026-05-01T15:34:40Z</time></trkpt><trkpt lat="40.52727782047046" lon="16.628168416378617"><ele>54.75</ele><time>2026-05-01T15:34:41Z</time></trkpt><trkpt lat="40.52737273615159" lon="16.628329827472623"><ele>55.0</ele><time>2026-05-01T15:34:42Z</time></trkpt><trkpt lat="40.52746447737748" lon="16.628505678433225"><ele>54.0</ele><time>2026-05-01T15:34:43Z</time></trkpt><trkpt lat="40.527554795180734" lon="16.62867791900412"><ele>53.0</ele><time>2026-05-01T15:34:44Z</time></trkpt><trkpt lat="40.5276294051654" lon="16.62887320875707"><ele>52.0</ele><time>2026-05-01T15:34:45Z</time></trkpt><trkpt lat="40.52771787200607" lon="16.629056901018963"><ele>52.0</ele><time>2026-05-01T15:34:46Z</time></trkpt><trkpt lat="40.52780270180159" lon="16.629233041428186"><ele>52.0</ele><time>2026-05-01T15:34:47Z</time></trkpt><trkpt lat="40.52788818628269" lon="16.62938419705922"><ele>52.0</ele><time>2026-05-01T15:34:48Z</time></trkpt><trkpt lat="40.52798305136264" lon="16.629576915008126"><ele>52.33333333333333</ele><time>2026-05-01T15:34:49Z</time></trkpt><trkpt lat="40.528068699617286" lon="16.629762901755285"><ele>52.66666666666667</ele><time>2026-05-01T15:34:50Z</time></trkpt><trkpt lat="40.5281476488323" lon="16.62994150961986"><ele>53.0</ele><time>2026-05-01T15:34:51Z</time></trkpt><trkpt lat="40.528233371213915" lon="16.630138082438894"><ele>53.0</ele><time>2026-05-01T15:34:52Z</time></trkpt><trkpt lat="40.5283127720584" lon="16.630274657907794"><ele>53.0</ele><time>2026-05-01T15:34:53Z</time></trkpt><trkpt lat="40.5284032229413" lon="16.63044605624017"><ele>53.0</ele><time>2026-05-01T15:34:54Z</time></trkpt><trkpt lat="40.52850004692916" lon="16.6306406102756"><ele>53.333333333333336</ele><time>2026-05-01T15:34:55Z</time></trkpt><trkpt lat="40.528590214571864" lon="16.630853518445612"><ele>53.66666666666667</ele><time>2026-05-01T15:34:56Z</time></trkpt><trkpt lat="40.52869039953932" lon="16.631056688412144"><ele>54.0</ele><time>2026-05-01T15:34:57Z</time></trkpt><trkpt lat="40.528774855353994" lon="16.63126007007162"><ele>54.0</ele><time>2026-05-01T15:34:58Z</time></trkpt><trkpt lat="40.52886387304477" lon="16.63145192352321"><ele>54.0</ele><time>2026-05-01T15:34:59Z</time></trkpt><trkpt lat="40.5289570020811" lon="16.631612552872856"><ele>54.0</ele><time>2026-05-01T15:35:00Z</time></trkpt><trkpt lat="40.52904383507314" lon="16.63179834427133"><ele>53.66666666666667</ele><time>2026-05-01T15:35:01Z</time></trkpt><trkpt lat="40.52913131220124" lon="16.631979090899307"><ele>53.333333333333336</ele><time>2026-05-01T15:35:02Z</time></trkpt><trkpt lat="40.52921919674079" lon="16.63216462768302"><ele>53.0</ele><time>2026-05-01T15:35:03Z</time></trkpt><trkpt lat="40.52930791219743" lon="16.632350751696706"><ele>53.0</ele><time>2026-05-01T15:35:04Z</time></trkpt><trkpt lat="40.529398934443286" lon="16.63253580810068"><ele>53.0</ele><time>2026-05-01T15:35:05Z</time></trkpt><trkpt lat="40.52948803048288" lon="16.632723152026184"><ele>53.0</ele><time>2026-05-01T15:35:06Z</time></trkpt><trkpt lat="40.52956943041731" lon="16.632891735329085"><ele>52.66666666666667</ele><time>2026-05-01T15:35:07Z</time></trkpt><trkpt lat="40.52965620504179" lon="16.63307555174253"><ele>52.33333333333333</ele><time>2026-05-01T15:35:08Z</time></trkpt><trkpt lat="40.5297510697257" lon="16.633269363121393"><ele>52.0</ele><time>2026-05-01T15:35:09Z</time></trkpt><trkpt lat="40.52983156175575" lon="16.633448819598506"><ele>52.0</ele><time>2026-05-01T15:35:10Z</time></trkpt><trkpt lat="40.52991821461253" lon="16.633619501900277"><ele>52.0</ele><time>2026-05-01T15:35:11Z</time></trkpt><trkpt lat="40.5300071231614" lon="16.633801614286494"><ele>52.0</ele><time>2026-05-01T15:35:12Z</time></trkpt><trkpt lat="40.53009848823601" lon="16.63398680603434"><ele>52.33333333333333</ele><time>2026-05-01T15:35:13Z</time></trkpt><trkpt lat="40.53018587857674" lon="16.63416535921783"><ele>52.66666666666667</ele><time>2026-05-01T15:35:14Z</time></trkpt><trkpt lat="40.53027257703748" lon="16.634351366756"><ele>53.0</ele><time>2026-05-01T15:35:15Z</time></trkpt><trkpt lat="40.53035983713957" lon="16.63451752870662"><ele>51.0</ele><time>2026-05-01T15:35:16Z</time></trkpt><trkpt lat="40.53044087387748" lon="16.634686424215356"><ele>49.0</ele><time>2026-05-01T15:35:17Z</time></trkpt><trkpt lat="40.53052369783443" lon="16.63487029410887"><ele>47.0</ele><time>2026-05-01T15:35:18Z</time></trkpt><trkpt lat="40.530608167000516" lon="16.63504577572368"><ele>47.0</ele><time>2026-05-01T15:35:19Z</time></trkpt><trkpt lat="40.53069521270985" lon="16.63522509146135"><ele>47.0</ele><time>2026-05-01T15:35:20Z</time></trkpt><trkpt lat="40.530783550425056" lon="16.63539782683862"><ele>47.0</ele><time>2026-05-01T15:35:21Z</time></trkpt><trkpt lat="40.5308684866024" lon="16.63556677667968"><ele>46.666666666666664</ele><time>2026-05-01T15:35:22Z</time></trkpt><trkpt lat="40.530946992140954" lon="16.635725388068728"><ele>46.333333333333336</ele><time>2026-05-01T15:35:23Z</time></trkpt><trkpt lat="40.53103166860552" lon="16.635882310068048"><ele>46.0</ele><time>2026-05-01T15:35:24Z</time></trkpt><trkpt lat="40.531129269051036" lon="16.6360492005053"><ele>47.0</ele><time>2026-05-01T15:35:25Z</time></trkpt><trkpt lat="40.531199687685394" lon="16.63624631116831"><ele>48.0</ele><time>2026-05-01T15:35:26Z</time></trkpt><trkpt lat="40.531263400178496" lon="16.63644428651625"><ele>49.0</ele><time>2026-05-01T15:35:27Z</time></trkpt><trkpt lat="40.53131753856785" lon="16.636621280650413"><ele>49.666666666666664</ele><time>2026-05-01T15:35:28Z</time></trkpt><trkpt lat="40.53142557478341" lon="16.636781642821717"><ele>50.33333333333333</ele><time>2026-05-01T15:35:29Z</time></trkpt><trkpt lat="40.53148875935518" lon="16.636983792353192"><ele>51.0</ele><time>2026-05-01T15:35:30Z</time></trkpt><trkpt lat="40.5315527164058" lon="16.637136586975977"><ele>51.33333333333333</ele><time>2026-05-01T15:35:31Z</time></trkpt><trkpt lat="40.53161123205921" lon="16.63732773878122"><ele>51.666666666666664</ele><time>2026-05-01T15:35:32Z</time></trkpt><trkpt lat="40.53167291969085" lon="16.637533517854582"><ele>52.0</ele><time>2026-05-01T15:35:33Z</time></trkpt><trkpt lat="40.53174193274519" lon="16.63774471804101"><ele>53.0</ele><time>2026-05-01T15:35:34Z</time></trkpt><trkpt lat="40.53180729635955" lon="16.63795211740421"><ele>54.0</ele><time>2026-05-01T15:35:35Z</time></trkpt><trkpt lat="40.53189859720916" lon="16.638143220934477"><ele>55.0</ele><time>2026-05-01T15:35:36Z</time></trkpt><trkpt lat="40.5319882076989" lon="16.63832761472091"><ele>55.0</ele><time>2026-05-01T15:35:37Z</time></trkpt><trkpt lat="40.53203313288269" lon="16.638603105560488"><ele>55.0</ele><time>2026-05-01T15:35:38Z</time></trkpt><trkpt lat="40.53208907422709" lon="16.638833637728187"><ele>55.0</ele><time>2026-05-01T15:35:39Z</time></trkpt><trkpt lat="40.53214756302829" lon="16.63903740408886"><ele>55.33333333333333</ele><time>2026-05-01T15:35:40Z</time></trkpt><trkpt lat="40.53221612861039" lon="16.639249056491067"><ele>55.66666666666667</ele><time>2026-05-01T15:35:41Z</time></trkpt><trkpt lat="40.53229036822527" lon="16.639463683950407"><ele>56.0</ele><time>2026-05-01T15:35:42Z</time></trkpt><trkpt lat="40.53234764035352" lon="16.639685767214058"><ele>56.0</ele><time>2026-05-01T15:35:43Z</time></trkpt><trkpt lat="40.532414821769834" lon="16.639900832003086"><ele>56.0</ele><time>2026-05-01T15:35:44Z</time></trkpt><trkpt lat="40.53250013248327" lon="16.640138608774112"><ele>56.0</ele><time>2026-05-01T15:35:45Z</time></trkpt><trkpt lat="40.53255670490423" lon="16.640336339937257"><ele>56.333333333333336</ele><time>2026-05-01T15:35:45.999Z</time></trkpt><trkpt lat="40.532621359021725" lon="16.640555848634023"><ele>56.66666666666667</ele><time>2026-05-01T15:35:46.999Z</time></trkpt><trkpt lat="40.53268668429854" lon="16.640772307776594"><ele>57.0</ele><time>2026-05-01T15:35:47.999Z</time></trkpt><trkpt lat="40.53275897417228" lon="16.640982128451807"><ele>57.66666666666667</ele><time>2026-05-01T15:35:48.999Z</time></trkpt><trkpt lat="40.53280856707405" lon="16.64116387943396"><ele>58.333333333333336</ele><time>2026-05-01T15:35:49.999Z</time></trkpt><trkpt lat="40.532851091285316" lon="16.641342190661337"><ele>59.0</ele><time>2026-05-01T15:35:50.999Z</time></trkpt><trkpt lat="40.53292525130486" lon="16.641532278773894"><ele>59.25</ele><time>2026-05-01T15:35:51.999Z</time></trkpt><trkpt lat="40.53298659816792" lon="16.641724486979157"><ele>59.5</ele><time>2026-05-01T15:35:52.999Z</time></trkpt><trkpt lat="40.53304142365543" lon="16.641908324706463"><ele>59.75</ele><time>2026-05-01T15:35:53.999Z</time></trkpt><trkpt lat="40.53309163986652" lon="16.642063946825626"><ele>60.0</ele><time>2026-05-01T15:35:54.999Z</time></trkpt><trkpt lat="40.53314389622396" lon="16.642210966934204"><ele>60.0</ele><time>2026-05-01T15:35:55.999Z</time></trkpt><trkpt lat="40.53317460725976" lon="16.642355231992642"><ele>60.0</ele><time>2026-05-01T15:35:56.999Z</time></trkpt><trkpt lat="40.53321121614382" lon="16.64250121871791"><ele>60.0</ele><time>2026-05-01T15:35:57.999Z</time></trkpt><trkpt lat="40.53326792250755" lon="16.64264758015162"><ele>60.0</ele><time>2026-05-01T15:35:58.999Z</time></trkpt><trkpt lat="40.53331593220431" lon="16.642804957197"><ele>60.66666666666667</ele><time>2026-05-01T15:35:59.999Z</time></trkpt><trkpt lat="40.53338614875572" lon="16.64297682435455"><ele>61.333333333333336</ele><time>2026-05-01T15:36:00.999Z</time></trkpt><trkpt lat="40.533444246871355" lon="16.64316032929754"><ele>62.0</ele><time>2026-05-01T15:36:01.999Z</time></trkpt><trkpt lat="40.53349951273883" lon="16.643349268524496"><ele>62.0</ele><time>2026-05-01T15:36:02.999Z</time></trkpt><trkpt lat="40.53355466685369" lon="16.643539521996505"><ele>62.0</ele><time>2026-05-01T15:36:03.999Z</time></trkpt><trkpt lat="40.53360709343049" lon="16.643731519532892"><ele>62.0</ele><time>2026-05-01T15:36:04.999Z</time></trkpt><trkpt lat="40.53366899744502" lon="16.64392974199856"><ele>62.25</ele><time>2026-05-01T15:36:05.999Z</time></trkpt><trkpt lat="40.5337240582151" lon="16.644106051775744"><ele>62.5</ele><time>2026-05-01T15:36:06.999Z</time></trkpt><trkpt lat="40.53377676658336" lon="16.644274828884793"><ele>62.75</ele><time>2026-05-01T15:36:07.999Z</time></trkpt><trkpt lat="40.53381895006992" lon="16.644408676155347"><ele>63.0</ele><time>2026-05-01T15:36:08.999Z</time></trkpt><trkpt lat="40.53387114277062" lon="16.64457250628489"><ele>63.25</ele><time>2026-05-01T15:36:09.999Z</time></trkpt><trkpt lat="40.53391794883859" lon="16.64471400129889"><ele>63.5</ele><time>2026-05-01T15:36:10.999Z</time></trkpt><trkpt lat="40.533982932869364" lon="16.64489361902462"><ele>63.75</ele><time>2026-05-01T15:36:11.999Z</time></trkpt><trkpt lat="40.53404903493821" lon="16.645014404854656"><ele>64.0</ele><time>2026-05-01T15:36:12.999Z</time></trkpt><trkpt lat="40.534137754157975" lon="16.645128604612857"><ele>64.0</ele><time>2026-05-01T15:36:13.999Z</time></trkpt><trkpt lat="40.53425141618958" lon="16.645218263933305"><ele>64.0</ele><time>2026-05-01T15:36:14.999Z</time></trkpt><trkpt lat="40.5343663327354" lon="16.645326299730655"><ele>64.0</ele><time>2026-05-01T15:36:15.999Z</time></trkpt><trkpt lat="40.5344712612025" lon="16.645421304658445"><ele>64.0</ele><time>2026-05-01T15:36:16.999Z</time></trkpt><trkpt lat="40.53456265459065" lon="16.645497679414166"><ele>65.25</ele><time>2026-05-01T15:36:17.999Z</time></trkpt><trkpt lat="40.534637007817004" lon="16.64557450157286"><ele>66.5</ele><time>2026-05-01T15:36:18.999Z</time></trkpt><trkpt lat="40.53473464645123" lon="16.6456540775091"><ele>67.75</ele><time>2026-05-01T15:36:19.999Z</time></trkpt><trkpt lat="40.53484137533044" lon="16.64573139518884"><ele>69.0</ele><time>2026-05-01T15:36:20.999Z</time></trkpt><trkpt lat="40.53495762521467" lon="16.645821084832185"><ele>69.0</ele><time>2026-05-01T15:36:21.999Z</time></trkpt><trkpt lat="40.53508037984644" lon="16.645913532505077"><ele>69.0</ele><time>2026-05-01T15:36:22.999Z</time></trkpt><trkpt lat="40.535205741286006" lon="16.646002222181615"><ele>69.0</ele><time>2026-05-01T15:36:23.999Z</time></trkpt><trkpt lat="40.535333961585415" lon="16.646083656478545"><ele>69.0</ele><time>2026-05-01T15:36:24.999Z</time></trkpt><trkpt lat="40.53546372913647" lon="16.646160509925263"><ele>71.25</ele><time>2026-05-01T15:36:25.999Z</time></trkpt><trkpt lat="40.53559176828895" lon="16.646241629551515"><ele>73.5</ele><time>2026-05-01T15:36:26.999Z</time></trkpt><trkpt lat="40.53572171454071" lon="16.646328105839476"><ele>75.75</ele><time>2026-05-01T15:36:27.999Z</time></trkpt><trkpt lat="40.5358497940001" lon="16.646408699943382"><ele>78.0</ele><time>2026-05-01T15:36:28.999Z</time></trkpt><trkpt lat="40.5359803791308" lon="16.646494797331382"><ele>78.0</ele><time>2026-05-01T15:36:29.999Z</time></trkpt><trkpt lat="40.5361266348997" lon="16.646580033582353"><ele>78.0</ele><time>2026-05-01T15:36:30.999Z</time></trkpt><trkpt lat="40.53627321247389" lon="16.646668224085946"><ele>78.0</ele><time>2026-05-01T15:36:31.999Z</time></trkpt><trkpt lat="40.536413824301775" lon="16.646761791181913"><ele>80.33333333333333</ele><time>2026-05-01T15:36:32.999Z</time></trkpt><trkpt lat="40.536553324163634" lon="16.64685349817941"><ele>82.66666666666666</ele><time>2026-05-01T15:36:33.999Z</time></trkpt><trkpt lat="40.53669419337422" lon="16.646941153544955"><ele>85.0</ele><time>2026-05-01T15:36:34.999Z</time></trkpt><trkpt lat="40.53682373081936" lon="16.647040306808034"><ele>85.0</ele><time>2026-05-01T15:36:35.999Z</time></trkpt><trkpt lat="40.53695273460826" lon="16.647151939906507"><ele>85.0</ele><time>2026-05-01T15:36:36.999Z</time></trkpt><trkpt lat="40.53708509579537" lon="16.647272789749945"><ele>85.0</ele><time>2026-05-01T15:36:37.999Z</time></trkpt><trkpt lat="40.537216194326405" lon="16.64739264907789"><ele>89.0</ele><time>2026-05-01T15:36:38.999Z</time></trkpt><trkpt lat="40.53734980734829" lon="16.647514717177177"><ele>93.0</ele><time>2026-05-01T15:36:39.999Z</time></trkpt><trkpt lat="40.5374850835347" lon="16.64762664091187"><ele>97.0</ele><time>2026-05-01T15:36:40.999Z</time></trkpt><trkpt lat="40.53761093429067" lon="16.647745385896634"><ele>94.0</ele><time>2026-05-01T15:36:41.999Z</time></trkpt><trkpt lat="40.53773726621842" lon="16.647862939643293"><ele>91.0</ele><time>2026-05-01T15:36:42.999Z</time></trkpt><trkpt lat="40.537863858208794" lon="16.647978855996755"><ele>88.0</ele><time>2026-05-01T15:36:43.999Z</time></trkpt><trkpt lat="40.5379870473551" lon="16.64809503742198"><ele>95.66666666666666</ele><time>2026-05-01T15:36:45Z</time></trkpt><trkpt lat="40.53810942796478" lon="16.64821531068373"><ele>103.33333333333333</ele><time>2026-05-01T15:36:46Z</time></trkpt><trkpt lat="40.53823845852821" lon="16.648320998266286"><ele>111.0</ele><time>2026-05-01T15:36:47Z</time></trkpt><trkpt lat="40.53836104552773" lon="16.64845186313696"><ele>111.0</ele><time>2026-05-01T15:36:48Z</time></trkpt><trkpt lat="40.53849111637284" lon="16.64856967882506"><ele>111.0</ele><time>2026-05-01T15:36:49Z</time></trkpt><trkpt lat="40.53862405823993" lon="16.648683028905694"><ele>111.0</ele><time>2026-05-01T15:36:50Z</time></trkpt><trkpt lat="40.53875719264821" lon="16.64879668719148"><ele>115.0</ele><time>2026-05-01T15:36:51Z</time></trkpt><trkpt lat="40.53888013185133" lon="16.648921830526884"><ele>119.0</ele><time>2026-05-01T15:36:52Z</time></trkpt><trkpt lat="40.539011852762805" lon="16.649013048824035"><ele>123.0</ele><time>2026-05-01T15:36:53Z</time></trkpt><trkpt lat="40.539153119088915" lon="16.649134359477877"><ele>123.0</ele><time>2026-05-01T15:36:54Z</time></trkpt><trkpt lat="40.539281597837316" lon="16.6492616388898"><ele>123.0</ele><time>2026-05-01T15:36:55Z</time></trkpt><trkpt lat="40.53942043134506" lon="16.649376082342293"><ele>123.0</ele><time>2026-05-01T15:36:56Z</time></trkpt><trkpt lat="40.53956130172445" lon="16.649478470885803"><ele>127.33333333333334</ele><time>2026-05-01T15:36:57Z</time></trkpt><trkpt lat="40.5396947155531" lon="16.649581570320024"><ele>131.66666666666669</ele><time>2026-05-01T15:36:58Z</time></trkpt><trkpt lat="40.539796883846215" lon="16.64973375921763"><ele>136.0</ele><time>2026-05-01T15:36:59Z</time></trkpt><trkpt lat="40.539930442010935" lon="16.649874141823442"><ele>136.0</ele><time>2026-05-01T15:37:00Z</time></trkpt><trkpt lat="40.5400678601593" lon="16.649985828922542"><ele>136.0</ele><time>2026-05-01T15:37:01Z</time></trkpt><trkpt lat="40.54019593945371" lon="16.650091029971176"><ele>136.0</ele><time>2026-05-01T15:37:02Z</time></trkpt><trkpt lat="40.54032884482332" lon="16.65020692275085"><ele>139.0</ele><time>2026-05-01T15:37:03Z</time></trkpt><trkpt lat="40.540455795246515" lon="16.650328352991817"><ele>142.0</ele><time>2026-05-01T15:37:04Z</time></trkpt><trkpt lat="40.540596908921515" lon="16.65044619526286"><ele>145.0</ele><time>2026-05-01T15:37:05Z</time></trkpt><trkpt lat="40.540750221938964" lon="16.650552677066553"><ele>145.0</ele><time>2026-05-01T15:37:06Z</time></trkpt><trkpt lat="40.54089125539939" lon="16.650663667128942"><ele>145.0</ele><time>2026-05-01T15:37:07Z</time></trkpt><trkpt lat="40.54103392282611" lon="16.650780419369074"><ele>145.0</ele><time>2026-05-01T15:37:08Z</time></trkpt><trkpt lat="40.54117137897263" lon="16.65090212936629"><ele>147.66666666666669</ele><time>2026-05-01T15:37:09Z</time></trkpt><trkpt lat="40.54130894587056" lon="16.651021504911107"><ele>150.33333333333334</ele><time>2026-05-01T15:37:10Z</time></trkpt><trkpt lat="40.54145407822015" lon="16.651143683644364"><ele>153.0</ele><time>2026-05-01T15:37:11Z</time></trkpt><trkpt lat="40.54159988886408" lon="16.65126213903411"><ele>153.0</ele><time>2026-05-01T15:37:12Z</time></trkpt><trkpt lat="40.541733366076635" lon="16.651380083919182"><ele>153.0</ele><time>2026-05-01T15:37:13Z</time></trkpt><trkpt lat="40.54186718391249" lon="16.65149172539182"><ele>153.0</ele><time>2026-05-01T15:37:14Z</time></trkpt><trkpt lat="40.54200378650067" lon="16.651608177656957"><ele>156.33333333333334</ele><time>2026-05-01T15:37:15Z</time></trkpt><trkpt lat="40.5421475015078" lon="16.65172733971527"><ele>159.66666666666669</ele><time>2026-05-01T15:37:16Z</time></trkpt><trkpt lat="40.54229478053202" lon="16.651841870028164"><ele>163.0</ele><time>2026-05-01T15:37:17Z</time></trkpt><trkpt lat="40.542450227605855" lon="16.651956143131866"><ele>164.0</ele><time>2026-05-01T15:37:18Z</time></trkpt><trkpt lat="40.54259636249356" lon="16.65205771035258"><ele>165.0</ele><time>2026-05-01T15:37:19Z</time></trkpt><trkpt lat="40.5427392925442" lon="16.652161913735565"><ele>166.0</ele><time>2026-05-01T15:37:20Z</time></trkpt><trkpt lat="40.54288430233907" lon="16.652252535099706"><ele>167.66666666666669</ele><time>2026-05-01T15:37:21Z</time></trkpt><trkpt lat="40.54302702946259" lon="16.652341674633806"><ele>169.33333333333334</ele><time>2026-05-01T15:37:22Z</time></trkpt><trkpt lat="40.54316107178072" lon="16.65241505022867"><ele>171.0</ele><time>2026-05-01T15:37:23Z</time></trkpt><trkpt lat="40.5433019530975" lon="16.65250685606451"><ele>171.0</ele><time>2026-05-01T15:37:24Z</time></trkpt><trkpt lat="40.54343402886673" lon="16.65258169566361"><ele>171.0</ele><time>2026-05-01T15:37:25Z</time></trkpt><trkpt lat="40.543556362259416" lon="16.652657005193326"><ele>171.0</ele><time>2026-05-01T15:37:26Z</time></trkpt><trkpt lat="40.54365659964354" lon="16.652705141559867"><ele>171.0</ele><time>2026-05-01T15:37:27Z</time></trkpt><trkpt lat="40.5437502312537" lon="16.65276359913617"><ele>173.60000000000002</ele><time>2026-05-01T15:37:28Z</time></trkpt><trkpt lat="40.5438283053752" lon="16.652824543536333"><ele>176.2</ele><time>2026-05-01T15:37:29Z</time></trkpt><trkpt lat="40.543891235209536" lon="16.652926888418317"><ele>178.8</ele><time>2026-05-01T15:37:30Z</time></trkpt><trkpt lat="40.54396607936059" lon="16.652967015845945"><ele>181.39999999999998</ele><time>2026-05-01T15:37:31Z</time></trkpt><trkpt lat="40.544065298684515" lon="16.65299545352782"><ele>184.0</ele><time>2026-05-01T15:37:32Z</time></trkpt><trkpt lat="40.54416281979671" lon="16.6529940009896"><ele>184.0</ele><time>2026-05-01T15:37:33Z</time></trkpt><trkpt lat="40.54426210933063" lon="16.65301218139114"><ele>184.0</ele><time>2026-05-01T15:37:34Z</time></trkpt><trkpt lat="40.544318946528406" lon="16.653089728175082"><ele>184.0</ele><time>2026-05-01T15:37:35Z</time></trkpt><trkpt lat="40.54443365973963" lon="16.65317642671549"><ele>184.0</ele><time>2026-05-01T15:37:36Z</time></trkpt><trkpt lat="40.544547663019564" lon="16.653257224291696"><ele>184.0</ele><time>2026-05-01T15:37:37Z</time></trkpt><trkpt lat="40.544667933546215" lon="16.653329259978513"><ele>186.0</ele><time>2026-05-01T15:37:38Z</time></trkpt><trkpt lat="40.54480126436183" lon="16.653421904820842"><ele>188.0</ele><time>2026-05-01T15:37:39Z</time></trkpt><trkpt lat="40.54491420731032" lon="16.653519414264505"><ele>190.0</ele><time>2026-05-01T15:37:40Z</time></trkpt><trkpt lat="40.54504735685754" lon="16.65359876580584"><ele>192.0</ele><time>2026-05-01T15:37:41Z</time></trkpt><trkpt lat="40.54519228732247" lon="16.653696955826433"><ele>193.0</ele><time>2026-05-01T15:37:42Z</time></trkpt><trkpt lat="40.54535255965138" lon="16.653816181858108"><ele>194.0</ele><time>2026-05-01T15:37:43Z</time></trkpt><trkpt lat="40.545487023950976" lon="16.653912113574464"><ele>195.0</ele><time>2026-05-01T15:37:44Z</time></trkpt><trkpt lat="40.54561427164476" lon="16.653994948387155"><ele>197.66666666666669</ele><time>2026-05-01T15:37:45Z</time></trkpt><trkpt lat="40.545755666082876" lon="16.654062291250128"><ele>200.33333333333334</ele><time>2026-05-01T15:37:46Z</time></trkpt><trkpt lat="40.545906769328774" lon="16.654120491097075"><ele>203.0</ele><time>2026-05-01T15:37:46.999Z</time></trkpt><trkpt lat="40.54606549867315" lon="16.654167078051145"><ele>205.0</ele><time>2026-05-01T15:37:47.999Z</time></trkpt><trkpt lat="40.54622540788819" lon="16.654212567046336"><ele>207.0</ele><time>2026-05-01T15:37:48.999Z</time></trkpt><trkpt lat="40.546387778060385" lon="16.65424727529805"><ele>209.0</ele><time>2026-05-01T15:37:49.999Z</time></trkpt><trkpt lat="40.54653339445022" lon="16.65427616466991"><ele>209.0</ele><time>2026-05-01T15:37:50.999Z</time></trkpt><trkpt lat="40.546661476466994" lon="16.654314280240243"><ele>209.0</ele><time>2026-05-01T15:37:51.999Z</time></trkpt><trkpt lat="40.54682245443579" lon="16.654354309007818"><ele>209.0</ele><time>2026-05-01T15:37:52.999Z</time></trkpt><trkpt lat="40.54698479995086" lon="16.654397254696914"><ele>212.0</ele><time>2026-05-01T15:37:53.999Z</time></trkpt><trkpt lat="40.54714716849112" lon="16.654439339485272"><ele>215.0</ele><time>2026-05-01T15:37:54.999Z</time></trkpt><trkpt lat="40.547310167932714" lon="16.65447894192183"><ele>218.0</ele><time>2026-05-01T15:37:55.999Z</time></trkpt><trkpt lat="40.547472113312644" lon="16.654529412801928"><ele>220.33333333333334</ele><time>2026-05-01T15:37:56.999Z</time></trkpt><trkpt lat="40.54764167294013" lon="16.654583017572556"><ele>222.66666666666669</ele><time>2026-05-01T15:37:57.999Z</time></trkpt><trkpt lat="40.54777911010789" lon="16.65468066640461"><ele>225.0</ele><time>2026-05-01T15:37:58.999Z</time></trkpt><trkpt lat="40.547932325563465" lon="16.654782150783547"><ele>228.66666666666669</ele><time>2026-05-01T15:37:59.999Z</time></trkpt><trkpt lat="40.548095957277035" lon="16.654932648777404"><ele>232.33333333333334</ele><time>2026-05-01T15:38:00.999Z</time></trkpt><trkpt lat="40.54824532176787" lon="16.655044136745847"><ele>236.0</ele><time>2026-05-01T15:38:01.999Z</time></trkpt><trkpt lat="40.54838461760503" lon="16.655172928284276"><ele>237.0</ele><time>2026-05-01T15:38:02.999Z</time></trkpt><trkpt lat="40.54849858263428" lon="16.655339963546616"><ele>238.0</ele><time>2026-05-01T15:38:03.999Z</time></trkpt><trkpt lat="40.54863156596878" lon="16.655480250500982"><ele>239.0</ele><time>2026-05-01T15:38:04.999Z</time></trkpt><trkpt lat="40.548759098217666" lon="16.655620413289796"><ele>243.66666666666669</ele><time>2026-05-01T15:38:05.999Z</time></trkpt><trkpt lat="40.54889392665668" lon="16.65575944100617"><ele>248.33333333333331</ele><time>2026-05-01T15:38:06.999Z</time></trkpt><trkpt lat="40.549029037572524" lon="16.65589813134084"><ele>253.0</ele><time>2026-05-01T15:38:07.999Z</time></trkpt><trkpt lat="40.54916599906851" lon="16.65604358859279"><ele>254.0</ele><time>2026-05-01T15:38:08.999Z</time></trkpt><trkpt lat="40.549298894488274" lon="16.656191138968854"><ele>255.0</ele><time>2026-05-01T15:38:09.999Z</time></trkpt><trkpt lat="40.54942951117897" lon="16.65633526634748"><ele>256.0</ele><time>2026-05-01T15:38:10.999Z</time></trkpt><trkpt lat="40.54954808879913" lon="16.65651761480415"><ele>257.0</ele><time>2026-05-01T15:38:11.999Z</time></trkpt><trkpt lat="40.549699900471225" lon="16.656623561322686"><ele>258.0</ele><time>2026-05-01T15:38:13.999Z</time></trkpt><trkpt lat="40.54979665711136" lon="16.65671097126842"><ele>259.0</ele><time>2026-05-01T15:38:14.999Z</time></trkpt><trkpt lat="40.54988186657967" lon="16.656822546998235"><ele>260.0</ele><time>2026-05-01T15:38:15.999Z</time></trkpt><trkpt lat="40.549976430100415" lon="16.656930570764303"><ele>260.0</ele><time>2026-05-01T15:38:16.999Z</time></trkpt><trkpt lat="40.550049301426164" lon="16.657055444451014"><ele>260.0</ele><time>2026-05-01T15:38:17.999Z</time></trkpt><trkpt lat="40.5501553734433" lon="16.657151489372737"><ele>260.0</ele><time>2026-05-01T15:38:18.999Z</time></trkpt><trkpt lat="40.55027231197371" lon="16.657288218464046"><ele>260.0</ele><time>2026-05-01T15:38:20.999Z</time></trkpt><trkpt lat="40.55031089572561" lon="16.65735810244898"><ele>260.4</ele><time>2026-05-01T15:38:21.999Z</time></trkpt><trkpt lat="40.55039597912102" lon="16.657515712276457"><ele>260.8</ele><time>2026-05-01T15:38:23.999Z</time></trkpt><trkpt lat="40.55042981505555" lon="16.657673439968768"><ele>261.2</ele><time>2026-05-01T15:38:24.999Z</time></trkpt><trkpt lat="40.55047079030022" lon="16.657765514860404"><ele>261.6</ele><time>2026-05-01T15:38:25.999Z</time></trkpt><trkpt lat="40.550516754578645" lon="16.657866334892052"><ele>262.0</ele><time>2026-05-01T15:38:26.999Z</time></trkpt><trkpt lat="40.55054761675381" lon="16.657952068389786"><ele>262.3333333333333</ele><time>2026-05-01T15:38:27.999Z</time></trkpt><trkpt lat="40.5505673477718" lon="16.658063618245833"><ele>262.66666666666663</ele><time>2026-05-01T15:38:29.999Z</time></trkpt><trkpt lat="40.550581960684475" lon="16.65817297071918"><ele>263.0</ele><time>2026-05-01T15:38:32.999Z</time></trkpt><trkpt lat="40.55062963282667" lon="16.658257056856883"><ele>263.3333333333333</ele><time>2026-05-01T15:38:35.999Z</time></trkpt><trkpt lat="40.55064018129703" lon="16.65834642670433"><ele>263.6666666666667</ele><time>2026-05-01T15:38:38.999Z</time></trkpt><trkpt lat="40.55055684914544" lon="16.658316963227545"><ele>264.0</ele><time>2026-05-01T15:38:41.999Z</time></trkpt><trkpt lat="40.550529036141384" lon="16.65822821146261"><ele>264.0</ele><time>2026-05-01T15:38:43.999Z</time></trkpt><trkpt lat="40.550586468594375" lon="16.658312250993834"><ele>264.0</ele><time>2026-05-01T15:39:42Z</time></trkpt><trkpt lat="40.55046317102872" lon="16.658304347353674"><ele>264.0</ele><time>2026-05-01T15:40:43.999Z</time></trkpt><trkpt lat="40.550535185341545" lon="16.6582857025551"><ele>264.0</ele><time>2026-05-01T15:40:48.999Z</time></trkpt><trkpt lat="40.55047574256627" lon="16.65822257643928"><ele>264.0</ele><time>2026-05-01T15:41:14Z</time></trkpt><trkpt lat="40.55043669730912" lon="16.658139770228757"><ele>264.0</ele><time>2026-05-01T15:44:36.999Z</time></trkpt><trkpt lat="40.550516489208974" lon="16.658062381173607"><ele>264.0</ele><time>2026-05-01T15:44:38.999Z</time></trkpt><trkpt lat="40.55059207260778" lon="16.65801572634284"><ele>264.0</ele><time>2026-05-01T15:44:40.999Z</time></trkpt><trkpt lat="40.550659740333856" lon="16.658242288790753"><ele>264.0</ele><time>2026-05-01T15:44:42.999Z</time></trkpt><trkpt lat="40.5507045668103" lon="16.658343569243936"><ele>264.0</ele><time>2026-05-01T15:44:43.999Z</time></trkpt><trkpt lat="40.55074916171646" lon="16.658469813119144"><ele>264.0</ele><time>2026-05-01T15:44:44.999Z</time></trkpt><trkpt lat="40.550803913422676" lon="16.6585944574297"><ele>264.0</ele><time>2026-05-01T15:44:45.999Z</time></trkpt><trkpt lat="40.55085977813793" lon="16.658720024453007"><ele>264.0</ele><time>2026-05-01T15:44:46.999Z</time></trkpt><trkpt lat="40.550907816724255" lon="16.65886619754123"><ele>264.0</ele><time>2026-05-01T15:44:47.999Z</time></trkpt><trkpt lat="40.55094898422564" lon="16.659003111486104"><ele>265.0</ele><time>2026-05-01T15:44:48.999Z</time></trkpt><trkpt lat="40.5509751252277" lon="16.6591886445189"><ele>266.0</ele><time>2026-05-01T15:44:49.999Z</time></trkpt><trkpt lat="40.55106528917373" lon="16.65938909656276"><ele>267.0</ele><time>2026-05-01T15:44:50.999Z</time></trkpt><trkpt lat="40.55115317453258" lon="16.659575200828726"><ele>269.6666666666667</ele><time>2026-05-01T15:44:51.999Z</time></trkpt><trkpt lat="40.55128584947466" lon="16.659750934543535"><ele>272.33333333333337</ele><time>2026-05-01T15:44:52.999Z</time></trkpt><trkpt lat="40.55142087403955" lon="16.659883576409637"><ele>275.0</ele><time>2026-05-01T15:44:53.999Z</time></trkpt><trkpt lat="40.551549035121944" lon="16.65998310666653"><ele>275.0</ele><time>2026-05-01T15:44:54.999Z</time></trkpt><trkpt lat="40.55172010864619" lon="16.660058257639832"><ele>275.0</ele><time>2026-05-01T15:44:55.999Z</time></trkpt><trkpt lat="40.5518746239314" lon="16.660145550889858"><ele>275.0</ele><time>2026-05-01T15:44:56.999Z</time></trkpt><trkpt lat="40.552029656084976" lon="16.66025695273603"><ele>275.6666666666667</ele><time>2026-05-01T15:44:57.999Z</time></trkpt><trkpt lat="40.55212529404397" lon="16.66034037038062"><ele>276.33333333333337</ele><time>2026-05-01T15:44:58.999Z</time></trkpt><trkpt lat="40.55216472550471" lon="16.660409756301455"><ele>277.0</ele><time>2026-05-01T15:44:59.999Z</time></trkpt><trkpt lat="40.552167046050016" lon="16.660502196374953"><ele>277.6666666666667</ele><time>2026-05-01T15:45:00.999Z</time></trkpt><trkpt lat="40.552135615516804" lon="16.660586707884303"><ele>278.3333333333333</ele><time>2026-05-01T15:45:01.999Z</time></trkpt><trkpt lat="40.55203200312344" lon="16.66066472109895"><ele>279.0</ele><time>2026-05-01T15:45:02.999Z</time></trkpt><trkpt lat="40.55193344970411" lon="16.66080344460505"><ele>279.0</ele><time>2026-05-01T15:45:03.999Z</time></trkpt><trkpt lat="40.55180001312162" lon="16.660987005849396"><ele>279.0</ele><time>2026-05-01T15:45:04.999Z</time></trkpt><trkpt lat="40.55171126705675" lon="16.66114792017218"><ele>279.0</ele><time>2026-05-01T15:45:05.999Z</time></trkpt><trkpt lat="40.55164080418844" lon="16.661260432840628"><ele>281.5</ele><time>2026-05-01T15:45:06.999Z</time></trkpt><trkpt lat="40.55161319617674" lon="16.661387040730684"><ele>284.0</ele><time>2026-05-01T15:45:07.999Z</time></trkpt><trkpt lat="40.55156706291444" lon="16.66154857908636"><ele>286.5</ele><time>2026-05-01T15:45:09Z</time></trkpt><trkpt lat="40.55153302357803" lon="16.66178285139952"><ele>289.0</ele><time>2026-05-01T15:45:10Z</time></trkpt><trkpt lat="40.55145935820145" lon="16.662029989723333"><ele>290.0</ele><time>2026-05-01T15:45:11Z</time></trkpt><trkpt lat="40.551420648954064" lon="16.66220477175569"><ele>291.0</ele><time>2026-05-01T15:45:12Z</time></trkpt><trkpt lat="40.551324769183" lon="16.662481597484952"><ele>292.0</ele><time>2026-05-01T15:45:13Z</time></trkpt><trkpt lat="40.55120112871588" lon="16.662815506570425"><ele>292.0</ele><time>2026-05-01T15:45:14Z</time></trkpt><trkpt lat="40.551100165358555" lon="16.663126688635106"><ele>292.0</ele><time>2026-05-01T15:45:15Z</time></trkpt><trkpt lat="40.55104663543307" lon="16.66338559976721"><ele>293.0</ele><time>2026-05-01T15:45:16Z</time></trkpt><trkpt lat="40.551002842862864" lon="16.66368607594111"><ele>294.0</ele><time>2026-05-01T15:45:17Z</time></trkpt><trkpt lat="40.550964801823774" lon="16.66380999366811"><ele>295.0</ele><time>2026-05-01T15:45:18Z</time></trkpt><trkpt lat="40.55094073403045" lon="16.6639469966493"><ele>296.0</ele><time>2026-05-01T15:45:19Z</time></trkpt><trkpt lat="40.55093232348371" lon="16.66413470540991"><ele>296.0</ele><time>2026-05-01T15:45:20Z</time></trkpt><trkpt lat="40.550914307377205" lon="16.66432948594041"><ele>296.0</ele><time>2026-05-01T15:45:21Z</time></trkpt><trkpt lat="40.55090945189531" lon="16.66454693489661"><ele>296.0</ele><time>2026-05-01T15:45:22Z</time></trkpt><trkpt lat="40.55092583859404" lon="16.664833033121283"><ele>298.0</ele><time>2026-05-01T15:45:23Z</time></trkpt><trkpt lat="40.55094377950872" lon="16.665139678028936"><ele>300.0</ele><time>2026-05-01T15:45:24Z</time></trkpt><trkpt lat="40.550961694443195" lon="16.665346555584158"><ele>302.0</ele><time>2026-05-01T15:45:25Z</time></trkpt><trkpt lat="40.550916352527345" lon="16.66542475173395"><ele>304.6</ele><time>2026-05-01T15:45:26Z</time></trkpt><trkpt lat="40.55090855562115" lon="16.66553036781018"><ele>307.2</ele><time>2026-05-01T15:45:27Z</time></trkpt><trkpt lat="40.550831661388116" lon="16.665572556841937"><ele>309.8</ele><time>2026-05-01T15:45:28Z</time></trkpt><trkpt lat="40.55070314484517" lon="16.66547572299773"><ele>312.4</ele><time>2026-05-01T15:45:29Z</time></trkpt><trkpt lat="40.5506141019618" lon="16.665504491129067"><ele>315.0</ele><time>2026-05-01T15:45:30Z</time></trkpt><trkpt lat="40.55050665667206" lon="16.66553166808403"><ele>315.0</ele><time>2026-05-01T15:45:31Z</time></trkpt><trkpt lat="40.55033275898477" lon="16.66557571016172"><ele>315.0</ele><time>2026-05-01T15:45:32Z</time></trkpt><trkpt lat="40.55018400376235" lon="16.665610910430978"><ele>315.0</ele><time>2026-05-01T15:45:33Z</time></trkpt><trkpt lat="40.54997673990071" lon="16.665645686645743"><ele>315.0</ele><time>2026-05-01T15:45:34Z</time></trkpt><trkpt lat="40.549817295343495" lon="16.66562535371282"><ele>315.0</ele><time>2026-05-01T15:45:35Z</time></trkpt><trkpt lat="40.549693728142344" lon="16.66556183464938"><ele>315.0</ele><time>2026-05-01T15:45:36Z</time></trkpt><trkpt lat="40.54958021692471" lon="16.665549035062472"><ele>315.0</ele><time>2026-05-01T15:45:37Z</time></trkpt><trkpt lat="40.54951702988497" lon="16.665544409215542"><ele>314.0</ele><time>2026-05-01T15:45:38Z</time></trkpt><trkpt lat="40.54945478459107" lon="16.665813766807524"><ele>313.0</ele><time>2026-05-01T15:45:40Z</time></trkpt><trkpt lat="40.549463772561644" lon="16.665934722027867"><ele>312.0</ele><time>2026-05-01T15:45:41Z</time></trkpt><trkpt lat="40.54946093178697" lon="16.666083767095376"><ele>311.0</ele><time>2026-05-01T15:45:42Z</time></trkpt><trkpt lat="40.549463667410926" lon="16.66620340110077"><ele>312.8</ele><time>2026-05-01T15:45:43Z</time></trkpt><trkpt lat="40.54947236828927" lon="16.666288754971703"><ele>314.6</ele><time>2026-05-01T15:45:44Z</time></trkpt><trkpt lat="40.54957414596215" lon="16.666348662704685"><ele>316.4</ele><time>2026-05-01T15:45:48Z</time></trkpt><trkpt lat="40.54968475363022" lon="16.66632514894439"><ele>318.2</ele><time>2026-05-01T15:45:50Z</time></trkpt><trkpt lat="40.54980096358839" lon="16.66628829349764"><ele>320.0</ele><time>2026-05-01T15:45:52Z</time></trkpt><trkpt lat="40.549952042978035" lon="16.666268440363986"><ele>322.6666666666667</ele><time>2026-05-01T15:45:53Z</time></trkpt><trkpt lat="40.55018497248292" lon="16.666273177976866"><ele>325.3333333333333</ele><time>2026-05-01T15:45:54Z</time></trkpt><trkpt lat="40.550344561446025" lon="16.666277766807625"><ele>328.0</ele><time>2026-05-01T15:45:55Z</time></trkpt><trkpt lat="40.55046257107437" lon="16.666247630013988"><ele>328.0</ele><time>2026-05-01T15:45:56Z</time></trkpt><trkpt lat="40.550547498747456" lon="16.66623530243262"><ele>328.0</ele><time>2026-05-01T15:45:57Z</time></trkpt><trkpt lat="40.55066244770639" lon="16.66624340613354"><ele>328.0</ele><time>2026-05-01T15:45:59Z</time></trkpt><trkpt lat="40.55076284641733" lon="16.666227959657665"><ele>328.0</ele><time>2026-05-01T15:46:01Z</time></trkpt><trkpt lat="40.55083645000007" lon="16.666236383850798"><ele>328.0</ele><time>2026-05-01T15:46:03Z</time></trkpt><trkpt lat="40.550960372652256" lon="16.666230230023608"><ele>328.0</ele><time>2026-05-01T15:46:05Z</time></trkpt><trkpt lat="40.551025470830766" lon="16.666227067953194"><ele>328.0</ele><time>2026-05-01T15:46:06Z</time></trkpt><trkpt lat="40.55111783581626" lon="16.66622174100792"><ele>328.0</ele><time>2026-05-01T15:46:07Z</time></trkpt><trkpt lat="40.551216810542876" lon="16.666213949984037"><ele>328.0</ele><time>2026-05-01T15:46:08Z</time></trkpt><trkpt lat="40.551320408267806" lon="16.666203780510916"><ele>328.0</ele><time>2026-05-01T15:46:09Z</time></trkpt><trkpt lat="40.55144394386481" lon="16.66619209667385"><ele>328.5</ele><time>2026-05-01T15:46:10Z</time></trkpt><trkpt lat="40.5515809905931" lon="16.6661790207209"><ele>329.0</ele><time>2026-05-01T15:46:11Z</time></trkpt><trkpt lat="40.5517361707318" lon="16.666145049648172"><ele>329.5</ele><time>2026-05-01T15:46:12Z</time></trkpt><trkpt lat="40.55186058323889" lon="16.66615033321828"><ele>330.0</ele><time>2026-05-01T15:46:13Z</time></trkpt><trkpt lat="40.551972571406154" lon="16.666134484725763"><ele>329.6</ele><time>2026-05-01T15:46:14Z</time></trkpt><trkpt lat="40.55205303808596" lon="16.66609806803368"><ele>329.2</ele><time>2026-05-01T15:46:15Z</time></trkpt><trkpt lat="40.5521694222048" lon="16.666108268882105"><ele>328.79999999999995</ele><time>2026-05-01T15:46:17Z</time></trkpt><trkpt lat="40.55223130200661" lon="16.66603223810793"><ele>328.4</ele><time>2026-05-01T15:46:19Z</time></trkpt><trkpt lat="40.55227259972555" lon="16.665969139626043"><ele>328.0</ele><time>2026-05-01T15:46:20Z</time></trkpt><trkpt lat="40.55226330796036" lon="16.665782607186745"><ele>328.0</ele><time>2026-05-01T15:46:20.999Z</time></trkpt><trkpt lat="40.55230106976315" lon="16.665542972840615"><ele>328.0</ele><time>2026-05-01T15:46:21.999Z</time></trkpt><trkpt lat="40.55235329718768" lon="16.665285932923258"><ele>328.0</ele><time>2026-05-01T15:46:22.999Z</time></trkpt><trkpt lat="40.55238963360822" lon="16.665021428063216"><ele>326.75</ele><time>2026-05-01T15:46:23.999Z</time></trkpt><trkpt lat="40.55244547753036" lon="16.66488852613736"><ele>325.5</ele><time>2026-05-01T15:46:24.999Z</time></trkpt><trkpt lat="40.552459687452355" lon="16.66474878207814"><ele>324.25</ele><time>2026-05-01T15:46:25.999Z</time></trkpt><trkpt lat="40.55247930719025" lon="16.664596250065557"><ele>323.0</ele><time>2026-05-01T15:46:26.999Z</time></trkpt><trkpt lat="40.552519900332" lon="16.66442263813609"><ele>321.6666666666667</ele><time>2026-05-01T15:46:27.999Z</time></trkpt><trkpt lat="40.55260907598996" lon="16.664234243809084"><ele>320.3333333333333</ele><time>2026-05-01T15:46:28.999Z</time></trkpt><trkpt lat="40.55269442296017" lon="16.664018710880057"><ele>319.0</ele><time>2026-05-01T15:46:29.999Z</time></trkpt><trkpt lat="40.55276087006686" lon="16.66384122021714"><ele>319.0</ele><time>2026-05-01T15:46:30.999Z</time></trkpt><trkpt lat="40.55281917246523" lon="16.663681933667032"><ele>319.0</ele><time>2026-05-01T15:46:31.999Z</time></trkpt><trkpt lat="40.552859941575" lon="16.663575715917666"><ele>319.0</ele><time>2026-05-01T15:46:32.999Z</time></trkpt><trkpt lat="40.5529154993329" lon="16.66343406470588"><ele>319.0</ele><time>2026-05-01T15:46:34.999Z</time></trkpt><trkpt lat="40.55297668376144" lon="16.6632826046641"><ele>319.0</ele><time>2026-05-01T15:46:36.999Z</time></trkpt><trkpt lat="40.55303110805016" lon="16.66315348124227"><ele>319.0</ele><time>2026-05-01T15:46:37.999Z</time></trkpt><trkpt lat="40.55308154705292" lon="16.66299099357779"><ele>319.0</ele><time>2026-05-01T15:46:38.999Z</time></trkpt><trkpt lat="40.55313795784019" lon="16.66286377517864"><ele>319.0</ele><time>2026-05-01T15:46:39.999Z</time></trkpt><trkpt lat="40.553164784397865" lon="16.662695748529412"><ele>317.0</ele><time>2026-05-01T15:46:40.999Z</time></trkpt><trkpt lat="40.553201158618215" lon="16.662536222358423"><ele>315.0</ele><time>2026-05-01T15:46:41.999Z</time></trkpt><trkpt lat="40.553235115826354" lon="16.662427413834607"><ele>313.0</ele><time>2026-05-01T15:46:42.999Z</time></trkpt><trkpt lat="40.55330061654218" lon="16.66236545313459"><ele>311.0</ele><time>2026-05-01T15:46:43.999Z</time></trkpt><trkpt lat="40.553384897980756" lon="16.662359567516525"><ele>309.0</ele><time>2026-05-01T15:46:44.999Z</time></trkpt><trkpt lat="40.55347119919142" lon="16.66241674292898"><ele>309.0</ele><time>2026-05-01T15:46:45.999Z</time></trkpt><trkpt lat="40.5535776445006" lon="16.66251311553484"><ele>309.0</ele><time>2026-05-01T15:46:46.999Z</time></trkpt><trkpt lat="40.55370372240426" lon="16.66259372930975"><ele>309.0</ele><time>2026-05-01T15:46:47.999Z</time></trkpt><trkpt lat="40.55384176574934" lon="16.662683286653195"><ele>309.0</ele><time>2026-05-01T15:46:48.999Z</time></trkpt><trkpt lat="40.55398346222169" lon="16.66277848806423"><ele>312.0</ele><time>2026-05-01T15:46:49.999Z</time></trkpt><trkpt lat="40.55410582404908" lon="16.66285833596506"><ele>315.0</ele><time>2026-05-01T15:46:50.999Z</time></trkpt><trkpt lat="40.55421910466307" lon="16.66292513557173"><ele>318.0</ele><time>2026-05-01T15:46:51.999Z</time></trkpt><trkpt lat="40.554324579127496" lon="16.662982888175677"><ele>321.0</ele><time>2026-05-01T15:46:52.999Z</time></trkpt><trkpt lat="40.554429176551395" lon="16.66302411451026"><ele>319.5</ele><time>2026-05-01T15:46:53.999Z</time></trkpt><trkpt lat="40.55454123071932" lon="16.663047483761325"><ele>318.0</ele><time>2026-05-01T15:46:54.999Z</time></trkpt><trkpt lat="40.55467015999699" lon="16.663051796420127"><ele>316.5</ele><time>2026-05-01T15:46:55.999Z</time></trkpt><trkpt lat="40.554809573826105" lon="16.663057263286642"><ele>315.0</ele><time>2026-05-01T15:46:56.999Z</time></trkpt><trkpt lat="40.55494319845756" lon="16.663038134933913"><ele>315.0</ele><time>2026-05-01T15:46:57.999Z</time></trkpt><trkpt lat="40.55505652867517" lon="16.6630130896228"><ele>315.0</ele><time>2026-05-01T15:46:58.999Z</time></trkpt><trkpt lat="40.5551617988574" lon="16.662957554358865"><ele>315.0</ele><time>2026-05-01T15:46:59.999Z</time></trkpt><trkpt lat="40.555269784999865" lon="16.662898277070717"><ele>315.0</ele><time>2026-05-01T15:47:00.999Z</time></trkpt><trkpt lat="40.555376518664914" lon="16.6628248927038"><ele>311.75</ele><time>2026-05-01T15:47:01.999Z</time></trkpt><trkpt lat="40.55548746519984" lon="16.662755401404908"><ele>308.5</ele><time>2026-05-01T15:47:02.999Z</time></trkpt><trkpt lat="40.555593961958735" lon="16.662697429844606"><ele>305.25</ele><time>2026-05-01T15:47:03.999Z</time></trkpt><trkpt lat="40.55571161706525" lon="16.662619074637753"><ele>302.0</ele><time>2026-05-01T15:47:04.999Z</time></trkpt><trkpt lat="40.55585010355898" lon="16.662534876183898"><ele>302.0</ele><time>2026-05-01T15:47:05.999Z</time></trkpt><trkpt lat="40.555990838109786" lon="16.66243858221508"><ele>302.0</ele><time>2026-05-01T15:47:06.999Z</time></trkpt><trkpt lat="40.55611534066374" lon="16.662343773843826"><ele>302.0</ele><time>2026-05-01T15:47:07.999Z</time></trkpt><trkpt lat="40.55624223960312" lon="16.662247532233163"><ele>302.0</ele><time>2026-05-01T15:47:08.999Z</time></trkpt><trkpt lat="40.55634485862884" lon="16.66210560958788"><ele>301.6666666666667</ele><time>2026-05-01T15:47:09.999Z</time></trkpt><trkpt lat="40.55643110587194" lon="16.661929427726104"><ele>301.3333333333333</ele><time>2026-05-01T15:47:10.999Z</time></trkpt><trkpt lat="40.55651544749765" lon="16.661705059848718"><ele>301.0</ele><time>2026-05-01T15:47:11.999Z</time></trkpt><trkpt lat="40.55660918252247" lon="16.661483180935416"><ele>301.0</ele><time>2026-05-01T15:47:12.999Z</time></trkpt><trkpt lat="40.55672507441427" lon="16.6613029908568"><ele>301.0</ele><time>2026-05-01T15:47:13.999Z</time></trkpt><trkpt lat="40.55687554952667" lon="16.661117701582096"><ele>301.0</ele><time>2026-05-01T15:47:15Z</time></trkpt><trkpt lat="40.55700476820624" lon="16.66094861839169"><ele>304.0</ele><time>2026-05-01T15:47:16Z</time></trkpt><trkpt lat="40.55711748301202" lon="16.6608200622668"><ele>307.0</ele><time>2026-05-01T15:47:17Z</time></trkpt><trkpt lat="40.557199863784575" lon="16.660694708277685"><ele>310.0</ele><time>2026-05-01T15:47:18Z</time></trkpt><trkpt lat="40.55724289798165" lon="16.66052089546144"><ele>313.0</ele><time>2026-05-01T15:47:19Z</time></trkpt><trkpt lat="40.557286590140656" lon="16.660417486040664"><ele>309.0</ele><time>2026-05-01T15:47:20Z</time></trkpt><trkpt lat="40.5573338476139" lon="16.660184781293538"><ele>305.0</ele><time>2026-05-01T15:47:21Z</time></trkpt><trkpt lat="40.557389576472474" lon="16.659946176879387"><ele>301.0</ele><time>2026-05-01T15:47:22Z</time></trkpt><trkpt lat="40.55744430428022" lon="16.659703969395775"><ele>301.0</ele><time>2026-05-01T15:47:23Z</time></trkpt><trkpt lat="40.55750792635683" lon="16.659480771902633"><ele>301.0</ele><time>2026-05-01T15:47:24Z</time></trkpt><trkpt lat="40.5575268635502" lon="16.659259239472185"><ele>301.0</ele><time>2026-05-01T15:47:25Z</time></trkpt><trkpt lat="40.5575367067146" lon="16.659064852786436"><ele>299.0</ele><time>2026-05-01T15:47:26Z</time></trkpt><trkpt lat="40.5575514867224" lon="16.658878255382685"><ele>297.0</ele><time>2026-05-01T15:47:27Z</time></trkpt><trkpt lat="40.55757906741429" lon="16.658752352147964"><ele>295.0</ele><time>2026-05-01T15:47:28Z</time></trkpt><trkpt lat="40.55763204989828" lon="16.658647562037604"><ele>293.0</ele><time>2026-05-01T15:47:29Z</time></trkpt><trkpt lat="40.55773299856913" lon="16.658626007801022"><ele>291.0</ele><time>2026-05-01T15:47:30Z</time></trkpt><trkpt lat="40.5578296081874" lon="16.65857125188783"><ele>290.0</ele><time>2026-05-01T15:47:31Z</time></trkpt><trkpt lat="40.557902410380606" lon="16.65852338414917"><ele>289.0</ele><time>2026-05-01T15:47:32Z</time></trkpt><trkpt lat="40.55800795258929" lon="16.658443862975776"><ele>288.0</ele><time>2026-05-01T15:47:33Z</time></trkpt><trkpt lat="40.55812147403485" lon="16.658337120046305"><ele>287.0</ele><time>2026-05-01T15:47:34Z</time></trkpt><trkpt lat="40.55827729683549" lon="16.658158311347563"><ele>287.0</ele><time>2026-05-01T15:47:35Z</time></trkpt><trkpt lat="40.55836326773941" lon="16.657974077952762"><ele>287.0</ele><time>2026-05-01T15:47:36Z</time></trkpt><trkpt lat="40.558396440201555" lon="16.657760355975697"><ele>287.0</ele><time>2026-05-01T15:47:37Z</time></trkpt><trkpt lat="40.558418054309676" lon="16.657499414962196"><ele>288.5</ele><time>2026-05-01T15:47:38Z</time></trkpt><trkpt lat="40.55840576006113" lon="16.657220423192033"><ele>290.0</ele><time>2026-05-01T15:47:39Z</time></trkpt><trkpt lat="40.55840695463753" lon="16.656901864798748"><ele>290.0</ele><time>2026-05-01T15:47:40Z</time></trkpt><trkpt lat="40.55838451311762" lon="16.65662767997365"><ele>290.0</ele><time>2026-05-01T15:47:41Z</time></trkpt><trkpt lat="40.558369204740096" lon="16.656442022393755"><ele>290.0</ele><time>2026-05-01T15:47:42Z</time></trkpt><trkpt lat="40.55833310693646" lon="16.656261764326974"><ele>290.0</ele><time>2026-05-01T15:47:43Z</time></trkpt><trkpt lat="40.55829376471635" lon="16.656178772527927"><ele>290.0</ele><time>2026-05-01T15:47:44Z</time></trkpt><trkpt lat="40.55830644106626" lon="16.65605083055648"><ele>290.0</ele><time>2026-05-01T15:47:46Z</time></trkpt><trkpt lat="40.55841215560471" lon="16.656056822976886"><ele>290.0</ele><time>2026-05-01T15:47:48Z</time></trkpt><trkpt lat="40.55843366713884" lon="16.65626238363573"><ele>290.0</ele><time>2026-05-01T15:47:50Z</time></trkpt><trkpt lat="40.55844646651653" lon="16.656389813394686"><ele>290.0</ele><time>2026-05-01T15:47:51Z</time></trkpt><trkpt lat="40.55847578527241" lon="16.656521297398605"><ele>290.0</ele><time>2026-05-01T15:47:52Z</time></trkpt><trkpt lat="40.558483940637345" lon="16.656762467970786"><ele>290.0</ele><time>2026-05-01T15:47:53Z</time></trkpt><trkpt lat="40.55851153110346" lon="16.65698716039414"><ele>290.6666666666667</ele><time>2026-05-01T15:47:54Z</time></trkpt><trkpt lat="40.55854891470466" lon="16.657249548910595"><ele>291.3333333333333</ele><time>2026-05-01T15:47:55Z</time></trkpt><trkpt lat="40.55859053508012" lon="16.657514875798075"><ele>292.0</ele><time>2026-05-01T15:47:56Z</time></trkpt><trkpt lat="40.55865369500155" lon="16.657799797827913"><ele>283.66666666666663</ele><time>2026-05-01T15:47:57Z</time></trkpt><trkpt lat="40.55873658233934" lon="16.658017154161875"><ele>275.3333333333333</ele><time>2026-05-01T15:47:58Z</time></trkpt><trkpt lat="40.55886525877079" lon="16.65826783538591"><ele>267.0</ele><time>2026-05-01T15:47:59Z</time></trkpt><trkpt lat="40.55901953638208" lon="16.658504828405572"><ele>268.6666666666667</ele><time>2026-05-01T15:48:00Z</time></trkpt><trkpt lat="40.55917984056944" lon="16.658708401657034"><ele>270.33333333333337</ele><time>2026-05-01T15:48:01Z</time></trkpt><trkpt lat="40.559356694633024" lon="16.658890371964205"><ele>272.0</ele><time>2026-05-01T15:48:02Z</time></trkpt><trkpt lat="40.559580238809986" lon="16.659100142919037"><ele>268.6666666666667</ele><time>2026-05-01T15:48:03Z</time></trkpt><trkpt lat="40.55974537938065" lon="16.659233748471156"><ele>265.3333333333333</ele><time>2026-05-01T15:48:04Z</time></trkpt><trkpt lat="40.55987101359234" lon="16.659413236737727"><ele>262.0</ele><time>2026-05-01T15:48:05Z</time></trkpt><trkpt lat="40.55999118085487" lon="16.65959573468873"><ele>262.0</ele><time>2026-05-01T15:48:06Z</time></trkpt><trkpt lat="40.560107683369154" lon="16.6597756713661"><ele>262.0</ele><time>2026-05-01T15:48:07Z</time></trkpt><trkpt lat="40.56015233653451" lon="16.65994003473373"><ele>262.0</ele><time>2026-05-01T15:48:08Z</time></trkpt><trkpt lat="40.56022011717038" lon="16.660120483161194"><ele>262.0</ele><time>2026-05-01T15:48:09Z</time></trkpt><trkpt lat="40.56029838231734" lon="16.66025048837227"><ele>262.0</ele><time>2026-05-01T15:48:10Z</time></trkpt><trkpt lat="40.560368580392065" lon="16.660330833712084"><ele>262.0</ele><time>2026-05-01T15:48:11Z</time></trkpt><trkpt lat="40.56052780499394" lon="16.660385315766842"><ele>262.0</ele><time>2026-05-01T15:48:12Z</time></trkpt><trkpt lat="40.56066651141993" lon="16.66043842905938"><ele>259.66666666666663</ele><time>2026-05-01T15:48:13Z</time></trkpt><trkpt lat="40.560819971364154" lon="16.660498859768506"><ele>257.3333333333333</ele><time>2026-05-01T15:48:14Z</time></trkpt><trkpt lat="40.56097773435454" lon="16.660582204275414"><ele>255.0</ele><time>2026-05-01T15:48:15Z</time></trkpt><trkpt lat="40.56112647496457" lon="16.660695711812476"><ele>253.66666666666669</ele><time>2026-05-01T15:48:16Z</time></trkpt><trkpt lat="40.561281117491774" lon="16.660848124745627"><ele>252.33333333333334</ele><time>2026-05-01T15:48:17Z</time></trkpt><trkpt lat="40.561448507144185" lon="16.66101393822738"><ele>251.0</ele><time>2026-05-01T15:48:18Z</time></trkpt><trkpt lat="40.56161851316264" lon="16.66112247864438"><ele>251.0</ele><time>2026-05-01T15:48:19Z</time></trkpt><trkpt lat="40.56179735698846" lon="16.661168257062013"><ele>251.0</ele><time>2026-05-01T15:48:20Z</time></trkpt><trkpt lat="40.56196657947815" lon="16.661165722677783"><ele>251.0</ele><time>2026-05-01T15:48:21Z</time></trkpt><trkpt lat="40.56213128225556" lon="16.66120574531104"><ele>243.33333333333334</ele><time>2026-05-01T15:48:22Z</time></trkpt><trkpt lat="40.562274818097436" lon="16.66128950315777"><ele>235.66666666666669</ele><time>2026-05-01T15:48:23Z</time></trkpt><trkpt lat="40.562413914653696" lon="16.66142544741435"><ele>228.0</ele><time>2026-05-01T15:48:24Z</time></trkpt><trkpt lat="40.5625460910782" lon="16.661610087053155"><ele>228.0</ele><time>2026-05-01T15:48:25Z</time></trkpt><trkpt lat="40.56264422800105" lon="16.661850158969596"><ele>228.0</ele><time>2026-05-01T15:48:26Z</time></trkpt><trkpt lat="40.56277903737878" lon="16.662127410720426"><ele>219.0</ele><time>2026-05-01T15:48:26.999Z</time></trkpt><trkpt lat="40.56293377356162" lon="16.662442199623378"><ele>210.0</ele><time>2026-05-01T15:48:27.999Z</time></trkpt><trkpt lat="40.56307823250758" lon="16.662736080897183"><ele>211.33333333333331</ele><time>2026-05-01T15:48:28.999Z</time></trkpt><trkpt lat="40.56320039163655" lon="16.662984596366346"><ele>212.66666666666666</ele><time>2026-05-01T15:48:29.999Z</time></trkpt><trkpt lat="40.56329255830684" lon="16.66319515753007"><ele>214.0</ele><time>2026-05-01T15:48:30.999Z</time></trkpt><trkpt lat="40.563355244817046" lon="16.663369593851375"><ele>214.0</ele><time>2026-05-01T15:48:31.999Z</time></trkpt><trkpt lat="40.56347049782914" lon="16.663481349026252"><ele>214.0</ele><time>2026-05-01T15:48:32.999Z</time></trkpt><trkpt lat="40.56362376040749" lon="16.663547254974375"><ele>214.0</ele><time>2026-05-01T15:48:33.999Z</time></trkpt><trkpt lat="40.563798549267645" lon="16.6635611685572"><ele>210.75</ele><time>2026-05-01T15:48:34.999Z</time></trkpt><trkpt lat="40.56391794953885" lon="16.663538049710656"><ele>207.5</ele><time>2026-05-01T15:48:35.999Z</time></trkpt><trkpt lat="40.56403967197993" lon="16.663451501660244"><ele>204.25</ele><time>2026-05-01T15:48:36.999Z</time></trkpt><trkpt lat="40.56413695268867" lon="16.663316747549704"><ele>201.0</ele><time>2026-05-01T15:48:37.999Z</time></trkpt><trkpt lat="40.564225613873184" lon="16.66313529523738"><ele>201.0</ele><time>2026-05-01T15:48:38.999Z</time></trkpt><trkpt lat="40.5643158630825" lon="16.662963853693306"><ele>201.0</ele><time>2026-05-01T15:48:39.999Z</time></trkpt><trkpt lat="40.56442227273017" lon="16.662861827468348"><ele>201.0</ele><time>2026-05-01T15:48:40.999Z</time></trkpt><trkpt lat="40.564567715770394" lon="16.662806229375718"><ele>201.0</ele><time>2026-05-01T15:48:41.999Z</time></trkpt><trkpt lat="40.56474390455467" lon="16.662836097632017"><ele>196.0</ele><time>2026-05-01T15:48:42.999Z</time></trkpt><trkpt lat="40.56492677212224" lon="16.66285181560055"><ele>191.0</ele><time>2026-05-01T15:48:43.999Z</time></trkpt><trkpt lat="40.56514667107378" lon="16.66287203295836"><ele>186.0</ele><time>2026-05-01T15:48:44.999Z</time></trkpt><trkpt lat="40.56537443263922" lon="16.662887903883853"><ele>185.33333333333334</ele><time>2026-05-01T15:48:45.999Z</time></trkpt><trkpt lat="40.56555723014807" lon="16.662875965446336"><ele>184.66666666666669</ele><time>2026-05-01T15:48:46.999Z</time></trkpt><trkpt lat="40.56571771503538" lon="16.662805415320044"><ele>184.0</ele><time>2026-05-01T15:48:47.999Z</time></trkpt><trkpt lat="40.565870572062224" lon="16.662697348929456"><ele>184.0</ele><time>2026-05-01T15:48:48.999Z</time></trkpt><trkpt lat="40.565991046987726" lon="16.662536212999097"><ele>184.0</ele><time>2026-05-01T15:48:49.999Z</time></trkpt><trkpt lat="40.56609973022308" lon="16.6623804958046"><ele>184.0</ele><time>2026-05-01T15:48:50.999Z</time></trkpt><trkpt lat="40.566179400694196" lon="16.662242071724354"><ele>180.33333333333334</ele><time>2026-05-01T15:48:51.999Z</time></trkpt><trkpt lat="40.56630271899089" lon="16.662183093223977"><ele>176.66666666666666</ele><time>2026-05-01T15:48:52.999Z</time></trkpt><trkpt lat="40.56647441086186" lon="16.662152440671075"><ele>173.0</ele><time>2026-05-01T15:48:53.999Z</time></trkpt><trkpt lat="40.56669164940288" lon="16.662134323678426"><ele>173.0</ele><time>2026-05-01T15:48:54.999Z</time></trkpt><trkpt lat="40.56688203876069" lon="16.662070695477865"><ele>173.0</ele><time>2026-05-01T15:48:55.999Z</time></trkpt><trkpt lat="40.56704996530167" lon="16.661985829162685"><ele>173.0</ele><time>2026-05-01T15:48:56.999Z</time></trkpt><trkpt lat="40.56715987768961" lon="16.661884628920095"><ele>172.25</ele><time>2026-05-01T15:48:57.999Z</time></trkpt><trkpt lat="40.567203122848674" lon="16.661769866427445"><ele>171.5</ele><time>2026-05-01T15:48:58.999Z</time></trkpt><trkpt lat="40.56724792267626" lon="16.66162303111036"><ele>170.75</ele><time>2026-05-01T15:48:59.999Z</time></trkpt><trkpt lat="40.56736265211666" lon="16.66145686371896"><ele>170.0</ele><time>2026-05-01T15:49:00.999Z</time></trkpt><trkpt lat="40.56743588691603" lon="16.661347672636992"><ele>170.0</ele><time>2026-05-01T15:49:01.999Z</time></trkpt><trkpt lat="40.56755420289455" lon="16.661378022313077"><ele>170.0</ele><time>2026-05-01T15:49:02.999Z</time></trkpt><trkpt lat="40.56766447872187" lon="16.661325587072387"><ele>170.0</ele><time>2026-05-01T15:49:03.999Z</time></trkpt><trkpt lat="40.56777566482202" lon="16.66129617678973"><ele>170.0</ele><time>2026-05-01T15:49:04.999Z</time></trkpt><trkpt lat="40.568135432748356" lon="16.66115968801269"><ele>169.33333333333331</ele><time>2026-05-01T15:49:05.999Z</time></trkpt><trkpt lat="40.568313072699574" lon="16.661079265535985"><ele>168.66666666666666</ele><time>2026-05-01T15:49:06.999Z</time></trkpt><trkpt lat="40.568438129086616" lon="16.660988010506735"><ele>168.0</ele><time>2026-05-01T15:49:07.999Z</time></trkpt><trkpt lat="40.568572175454136" lon="16.660905914945584"><ele>168.0</ele><time>2026-05-01T15:49:08.999Z</time></trkpt><trkpt lat="40.56861069607747" lon="16.660781207828588"><ele>168.0</ele><time>2026-05-01T15:49:09.999Z</time></trkpt><trkpt lat="40.56865836533947" lon="16.660565841098816"><ele>168.0</ele><time>2026-05-01T15:49:11.999Z</time></trkpt><trkpt lat="40.568562942924764" lon="16.660483984736153"><ele>168.0</ele><time>2026-05-01T15:49:12.999Z</time></trkpt><trkpt lat="40.56853953253499" lon="16.660359418069852"><ele>164.0</ele><time>2026-05-01T15:49:13.999Z</time></trkpt><trkpt lat="40.56847484061304" lon="16.66014884149152"><ele>160.0</ele><time>2026-05-01T15:49:14.999Z</time></trkpt><trkpt lat="40.56832968727253" lon="16.660041861486356"><ele>156.0</ele><time>2026-05-01T15:49:15.999Z</time></trkpt><trkpt lat="40.56816309189667" lon="16.65994827915357"><ele>156.0</ele><time>2026-05-01T15:49:16.999Z</time></trkpt><trkpt lat="40.5680634109688" lon="16.659885169031227"><ele>156.0</ele><time>2026-05-01T15:49:17.999Z</time></trkpt><trkpt lat="40.56815205237667" lon="16.659811680804104"><ele>156.0</ele><time>2026-05-01T15:49:19.999Z</time></trkpt><trkpt lat="40.56827191625647" lon="16.659827445919138"><ele>156.0</ele><time>2026-05-01T15:49:22Z</time></trkpt><trkpt lat="40.56842970243155" lon="16.6599276316751"><ele>156.0</ele><time>2026-05-01T15:49:24Z</time></trkpt><trkpt lat="40.56857805875319" lon="16.660006445041507"><ele>156.0</ele><time>2026-05-01T15:49:25Z</time></trkpt><trkpt lat="40.56868002879697" lon="16.660102231260307"><ele>156.0</ele><time>2026-05-01T15:49:26Z</time></trkpt><trkpt lat="40.568773106520624" lon="16.660270411857717"><ele>156.0</ele><time>2026-05-01T15:49:27Z</time></trkpt><trkpt lat="40.56888543130495" lon="16.660456897967983"><ele>155.0</ele><time>2026-05-01T15:49:28Z</time></trkpt><trkpt lat="40.56903836472657" lon="16.66054703143501"><ele>154.0</ele><time>2026-05-01T15:49:29Z</time></trkpt><trkpt lat="40.56921807357681" lon="16.660626353683842"><ele>153.0</ele><time>2026-05-01T15:49:30Z</time></trkpt><trkpt lat="40.56934861355292" lon="16.660696710294964"><ele>149.75</ele><time>2026-05-01T15:49:31Z</time></trkpt><trkpt lat="40.56954420539056" lon="16.66079723013998"><ele>146.5</ele><time>2026-05-01T15:49:32Z</time></trkpt><trkpt lat="40.56964277540164" lon="16.660878306648474"><ele>143.25</ele><time>2026-05-01T15:49:33Z</time></trkpt><trkpt lat="40.569718800867214" lon="16.66098063089759"><ele>140.0</ele><time>2026-05-01T15:49:34Z</time></trkpt><trkpt lat="40.56971770307152" lon="16.66113053839855"><ele>140.0</ele><time>2026-05-01T15:49:35Z</time></trkpt><trkpt lat="40.56970623459708" lon="16.661297959248117"><ele>140.0</ele><time>2026-05-01T15:49:36Z</time></trkpt><trkpt lat="40.569700311935975" lon="16.661472820189644"><ele>140.0</ele><time>2026-05-01T15:49:37Z</time></trkpt><trkpt lat="40.56966282253482" lon="16.661562825948852"><ele>140.0</ele><time>2026-05-01T15:49:38Z</time></trkpt><trkpt lat="40.569586233855055" lon="16.661607766167783"><ele>140.0</ele><time>2026-05-01T15:49:39Z</time></trkpt><trkpt lat="40.56948270130507" lon="16.661584283281705"><ele>142.25</ele><time>2026-05-01T15:49:40Z</time></trkpt><trkpt lat="40.569357914438" lon="16.66161899558928"><ele>144.5</ele><time>2026-05-01T15:49:41Z</time></trkpt><trkpt lat="40.56922406225033" lon="16.661688818702135"><ele>146.75</ele><time>2026-05-01T15:49:42Z</time></trkpt><trkpt lat="40.56913381958294" lon="16.661794050580998"><ele>149.0</ele><time>2026-05-01T15:49:43Z</time></trkpt><trkpt lat="40.56902443305793" lon="16.66192347793471"><ele>146.33333333333331</ele><time>2026-05-01T15:49:44Z</time></trkpt><trkpt lat="40.56895647514279" lon="16.662003312388244"><ele>143.66666666666666</ele><time>2026-05-01T15:49:45Z</time></trkpt><trkpt lat="40.568941395970995" lon="16.66209283654586"><ele>141.0</ele><time>2026-05-01T15:49:46Z</time></trkpt><trkpt lat="40.568935701030036" lon="16.66217735035169"><ele>138.33333333333334</ele><time>2026-05-01T15:49:48Z</time></trkpt><trkpt lat="40.569014017630984" lon="16.662208778454907"><ele>135.66666666666669</ele><time>2026-05-01T15:49:49Z</time></trkpt><trkpt lat="40.56913312994136" lon="16.662182165391417"><ele>133.0</ele><time>2026-05-01T15:49:50Z</time></trkpt><trkpt lat="40.569266901125815" lon="16.66204770368702"><ele>133.0</ele><time>2026-05-01T15:49:51Z</time></trkpt><trkpt lat="40.56939386279034" lon="16.66194881198489"><ele>133.0</ele><time>2026-05-01T15:49:52Z</time></trkpt><trkpt lat="40.5694815389536" lon="16.661916737118606"><ele>133.0</ele><time>2026-05-01T15:49:53Z</time></trkpt><trkpt lat="40.56957516619947" lon="16.661911365985883"><ele>133.0</ele><time>2026-05-01T15:49:54Z</time></trkpt><trkpt lat="40.569697651056586" lon="16.66203118918624"><ele>131.0</ele><time>2026-05-01T15:49:55Z</time></trkpt><trkpt lat="40.56987749246989" lon="16.662055491986493"><ele>129.0</ele><time>2026-05-01T15:49:56Z</time></trkpt><trkpt lat="40.5700866760855" lon="16.66207844906592"><ele>127.0</ele><time>2026-05-01T15:49:57Z</time></trkpt><trkpt lat="40.570252397628735" lon="16.662128029359078"><ele>126.19999999999999</ele><time>2026-05-01T15:49:58Z</time></trkpt><trkpt lat="40.57040546786145" lon="16.66216871017438"><ele>125.39999999999999</ele><time>2026-05-01T15:49:59Z</time></trkpt><trkpt lat="40.570519249172364" lon="16.66215668023895"><ele>124.60000000000001</ele><time>2026-05-01T15:50:00Z</time></trkpt><trkpt lat="40.57061202939566" lon="16.662126253697636"><ele>123.80000000000001</ele><time>2026-05-01T15:50:01Z</time></trkpt><trkpt lat="40.57067214958867" lon="16.66205852590799"><ele>123.0</ele><time>2026-05-01T15:50:02Z</time></trkpt><trkpt lat="40.57068310977001" lon="16.66194614645652"><ele>123.0</ele><time>2026-05-01T15:50:03Z</time></trkpt><trkpt lat="40.57064607269828" lon="16.661760754310166"><ele>123.0</ele><time>2026-05-01T15:50:04Z</time></trkpt><trkpt lat="40.570675974260595" lon="16.661601414767226"><ele>123.0</ele><time>2026-05-01T15:50:05Z</time></trkpt><trkpt lat="40.57071426398651" lon="16.661478060029186"><ele>123.0</ele><time>2026-05-01T15:50:06Z</time></trkpt><trkpt lat="40.57080033265986" lon="16.661401016748247"><ele>123.0</ele><time>2026-05-01T15:50:07Z</time></trkpt><trkpt lat="40.570853540207956" lon="16.661312248244613"><ele>123.00000000000001</ele><time>2026-05-01T15:50:08Z</time></trkpt><trkpt lat="40.57088746316328" lon="16.661192821717353"><ele>123.00000000000001</ele><time>2026-05-01T15:50:09Z</time></trkpt><trkpt lat="40.57085514421591" lon="16.661038706127428"><ele>123.0</ele><time>2026-05-01T15:50:10Z</time></trkpt><trkpt lat="40.57074010546406" lon="16.660942162146636"><ele>123.0</ele><time>2026-05-01T15:50:11Z</time></trkpt><trkpt lat="40.570663531011306" lon="16.660752416410055"><ele>123.25</ele><time>2026-05-01T15:50:12Z</time></trkpt><trkpt lat="40.57057236685402" lon="16.660572083177534"><ele>123.5</ele><time>2026-05-01T15:50:13Z</time></trkpt><trkpt lat="40.570472672270114" lon="16.66037689101308"><ele>123.75</ele><time>2026-05-01T15:50:14Z</time></trkpt><trkpt lat="40.570406718570126" lon="16.66027662118727"><ele>124.0</ele><time>2026-05-01T15:50:15Z</time></trkpt><trkpt lat="40.570341559942186" lon="16.660232786799256"><ele>124.0</ele><time>2026-05-01T15:50:16Z</time></trkpt><trkpt lat="40.57032178430318" lon="16.660095318806277"><ele>124.0</ele><time>2026-05-01T15:50:18Z</time></trkpt><trkpt lat="40.570432793327925" lon="16.66001450929262"><ele>124.0</ele><time>2026-05-01T15:50:20Z</time></trkpt><trkpt lat="40.57054028656337" lon="16.660151865529958"><ele>124.0</ele><time>2026-05-01T15:50:22Z</time></trkpt><trkpt lat="40.57064739083142" lon="16.660253937745082"><ele>122.66666666666667</ele><time>2026-05-01T15:50:23Z</time></trkpt><trkpt lat="40.57078005447146" lon="16.660380246857724"><ele>121.33333333333334</ele><time>2026-05-01T15:50:24Z</time></trkpt><trkpt lat="40.57097736258031" lon="16.660545332313582"><ele>120.0</ele><time>2026-05-01T15:50:25Z</time></trkpt><trkpt lat="40.57116584160656" lon="16.66073236943461"><ele>118.5</ele><time>2026-05-01T15:50:26Z</time></trkpt><trkpt lat="40.571378751846" lon="16.66098062406732"><ele>117.0</ele><time>2026-05-01T15:50:27Z</time></trkpt><trkpt lat="40.57160739467856" lon="16.66115790274879"><ele>113.5</ele><time>2026-05-01T15:50:28Z</time></trkpt><trkpt lat="40.5718213656131" lon="16.661346302656565"><ele>110.0</ele><time>2026-05-01T15:50:29Z</time></trkpt><trkpt lat="40.572020984352505" lon="16.66156583174615"><ele>111.0</ele><time>2026-05-01T15:50:30Z</time></trkpt><trkpt lat="40.57221279247791" lon="16.661732649476267"><ele>112.0</ele><time>2026-05-01T15:50:31Z</time></trkpt><trkpt lat="40.572422178992305" lon="16.66187616196683"><ele>109.5</ele><time>2026-05-01T15:50:32Z</time></trkpt><trkpt lat="40.572648055380206" lon="16.661997069825045"><ele>107.0</ele><time>2026-05-01T15:50:32.999Z</time></trkpt><trkpt lat="40.572905173024886" lon="16.662164374270937"><ele>107.0</ele><time>2026-05-01T15:50:33.999Z</time></trkpt><trkpt lat="40.57317625802984" lon="16.662324608474737"><ele>107.0</ele><time>2026-05-01T15:50:34.999Z</time></trkpt><trkpt lat="40.57343837152576" lon="16.662479539202085"><ele>107.5</ele><time>2026-05-01T15:50:35.999Z</time></trkpt><trkpt lat="40.57369393569246" lon="16.662617547165492"><ele>108.0</ele><time>2026-05-01T15:50:36.999Z</time></trkpt><trkpt lat="40.573917527506254" lon="16.662762761270823"><ele>105.5</ele><time>2026-05-01T15:50:37.999Z</time></trkpt><trkpt lat="40.57414963709446" lon="16.662900304381125"><ele>103.0</ele><time>2026-05-01T15:50:38.999Z</time></trkpt><trkpt lat="40.57435915511787" lon="16.663023575022088"><ele>103.0</ele><time>2026-05-01T15:50:39.999Z</time></trkpt><trkpt lat="40.57458588653734" lon="16.663136421768897"><ele>103.0</ele><time>2026-05-01T15:50:40.999Z</time></trkpt><trkpt lat="40.57484132459649" lon="16.663222205801624"><ele>103.0</ele><time>2026-05-01T15:50:41.999Z</time></trkpt><trkpt lat="40.57512651042417" lon="16.663300382678838"><ele>103.0</ele><time>2026-05-01T15:50:42.999Z</time></trkpt><trkpt lat="40.57542142979754" lon="16.66336587079083"><ele>101.5</ele><time>2026-05-01T15:50:43.999Z</time></trkpt><trkpt lat="40.57569344505864" lon="16.66343259489339"><ele>100.0</ele><time>2026-05-01T15:50:44.999Z</time></trkpt><trkpt lat="40.575965629039985" lon="16.663490701913776"><ele>99.5</ele><time>2026-05-01T15:50:45.999Z</time></trkpt><trkpt lat="40.576255011356324" lon="16.663530896681785"><ele>99.0</ele><time>2026-05-01T15:50:46.999Z</time></trkpt><trkpt lat="40.57656292408251" lon="16.663540516230107"><ele>99.0</ele><time>2026-05-01T15:50:47.999Z</time></trkpt><trkpt lat="40.576889236669714" lon="16.66357554101753"><ele>99.0</ele><time>2026-05-01T15:50:48.999Z</time></trkpt><trkpt lat="40.577207727396164" lon="16.663593425071458"><ele>95.5</ele><time>2026-05-01T15:50:49.999Z</time></trkpt><trkpt lat="40.577501375845145" lon="16.663630335000658"><ele>92.0</ele><time>2026-05-01T15:50:50.999Z</time></trkpt><trkpt lat="40.577798193438404" lon="16.663649196637344"><ele>90.0</ele><time>2026-05-01T15:50:51.999Z</time></trkpt><trkpt lat="40.57808883483217" lon="16.66364636848025"><ele>88.0</ele><time>2026-05-01T15:50:52.999Z</time></trkpt><trkpt lat="40.578348617547896" lon="16.66363741439519"><ele>88.0</ele><time>2026-05-01T15:50:53.999Z</time></trkpt><trkpt lat="40.57864262627552" lon="16.663629975174768"><ele>88.0</ele><time>2026-05-01T15:50:54.999Z</time></trkpt><trkpt lat="40.57887594397608" lon="16.66363478177825"><ele>89.66666666666666</ele><time>2026-05-01T15:50:55.999Z</time></trkpt><trkpt lat="40.57904643463459" lon="16.663683463666967"><ele>91.33333333333333</ele><time>2026-05-01T15:50:56.999Z</time></trkpt><trkpt lat="40.57922947352348" lon="16.663581192992158"><ele>93.0</ele><time>2026-05-01T15:50:57.999Z</time></trkpt><trkpt lat="40.57936257818983" lon="16.663869651289023"><ele>93.0</ele><time>2026-05-01T15:50:58.999Z</time></trkpt><trkpt lat="40.57947894461176" lon="16.66405936132828"><ele>93.0</ele><time>2026-05-01T15:50:59.999Z</time></trkpt><trkpt lat="40.579533366916635" lon="16.664260749919038"><ele>93.0</ele><time>2026-05-01T15:51:00.999Z</time></trkpt><trkpt lat="40.57962825694372" lon="16.66451484744251"><ele>94.66666666666666</ele><time>2026-05-01T15:51:01.999Z</time></trkpt><trkpt lat="40.57976026229292" lon="16.664722814693658"><ele>96.33333333333333</ele><time>2026-05-01T15:51:02.999Z</time></trkpt><trkpt lat="40.57993229244296" lon="16.664922340803113"><ele>98.0</ele><time>2026-05-01T15:51:03.999Z</time></trkpt><trkpt lat="40.58014556085543" lon="16.665081962687825"><ele>99.5</ele><time>2026-05-01T15:51:04.999Z</time></trkpt><trkpt lat="40.580378190898074" lon="16.665268981699796"><ele>101.0</ele><time>2026-05-01T15:51:05.999Z</time></trkpt><trkpt lat="40.58064284649517" lon="16.66541919163845"><ele>98.0</ele><time>2026-05-01T15:51:06.999Z</time></trkpt><trkpt lat="40.580911654998445" lon="16.665526273080474"><ele>95.0</ele><time>2026-05-01T15:51:07.999Z</time></trkpt><trkpt lat="40.58112870620411" lon="16.665629150544376"><ele>95.0</ele><time>2026-05-01T15:51:08.999Z</time></trkpt><trkpt lat="40.581320788788055" lon="16.665642733305532"><ele>95.0</ele><time>2026-05-01T15:51:09.999Z</time></trkpt><trkpt lat="40.58147054234037" lon="16.665657158898366"><ele>95.0</ele><time>2026-05-01T15:51:10.999Z</time></trkpt><trkpt lat="40.58160421458451" lon="16.665643675526002"><ele>95.0</ele><time>2026-05-01T15:51:11.999Z</time></trkpt><trkpt lat="40.58174736726985" lon="16.665580390905056"><ele>95.0</ele><time>2026-05-01T15:51:12.999Z</time></trkpt><trkpt lat="40.581888542430676" lon="16.665483264216252"><ele>95.0</ele><time>2026-05-01T15:51:13.999Z</time></trkpt><trkpt lat="40.58203798836742" lon="16.665370691051884"><ele>97.66666666666667</ele><time>2026-05-01T15:51:14.999Z</time></trkpt><trkpt lat="40.582198449470305" lon="16.66527664079514"><ele>100.33333333333334</ele><time>2026-05-01T15:51:15.999Z</time></trkpt><trkpt lat="40.58235857075806" lon="16.66517314085886"><ele>103.0</ele><time>2026-05-01T15:51:16.999Z</time></trkpt><trkpt lat="40.58252408557489" lon="16.665087990892253"><ele>103.0</ele><time>2026-05-01T15:51:17.999Z</time></trkpt><trkpt lat="40.582705445485374" lon="16.665015163605464"><ele>103.0</ele><time>2026-05-01T15:51:18.999Z</time></trkpt><trkpt lat="40.58290249870274" lon="16.66497012566073"><ele>103.0</ele><time>2026-05-01T15:51:19.999Z</time></trkpt><trkpt lat="40.58310024792596" lon="16.664943411240067"><ele>102.66666666666667</ele><time>2026-05-01T15:51:20.999Z</time></trkpt><trkpt lat="40.583311837065324" lon="16.66491443211838"><ele>102.33333333333334</ele><time>2026-05-01T15:51:21.999Z</time></trkpt><trkpt lat="40.583525509894805" lon="16.66488057391175"><ele>102.0</ele><time>2026-05-01T15:51:22.999Z</time></trkpt><trkpt lat="40.58371273436296" lon="16.664821685058268"><ele>102.66666666666666</ele><time>2026-05-01T15:51:23.999Z</time></trkpt><trkpt lat="40.583890448675234" lon="16.664801503591324"><ele>103.33333333333333</ele><time>2026-05-01T15:51:24.999Z</time></trkpt><trkpt lat="40.584082657657305" lon="16.66476065255905"><ele>104.0</ele><time>2026-05-01T15:51:25.999Z</time></trkpt><trkpt lat="40.58429807189636" lon="16.664713440762394"><ele>104.0</ele><time>2026-05-01T15:51:27Z</time></trkpt><trkpt lat="40.58446949214682" lon="16.66464463617031"><ele>104.0</ele><time>2026-05-01T15:51:28Z</time></trkpt><trkpt lat="40.58466271683161" lon="16.664545616745155"><ele>104.0</ele><time>2026-05-01T15:51:29Z</time></trkpt><trkpt lat="40.58485986036008" lon="16.66443806641987"><ele>107.5</ele><time>2026-05-01T15:51:30Z</time></trkpt><trkpt lat="40.58507548117662" lon="16.664328268099794"><ele>111.0</ele><time>2026-05-01T15:51:31Z</time></trkpt><trkpt lat="40.5853031866991" lon="16.664218254707635"><ele>110.5</ele><time>2026-05-01T15:51:32Z</time></trkpt><trkpt lat="40.585531972801235" lon="16.66408863146847"><ele>110.0</ele><time>2026-05-01T15:51:33Z</time></trkpt><trkpt lat="40.58577981402533" lon="16.663947709252703"><ele>110.0</ele><time>2026-05-01T15:51:34Z</time></trkpt><trkpt lat="40.58601773844167" lon="16.663807260283747"><ele>110.0</ele><time>2026-05-01T15:51:35Z</time></trkpt><trkpt lat="40.586255214428675" lon="16.66367877557182"><ele>111.0</ele><time>2026-05-01T15:51:36Z</time></trkpt><trkpt lat="40.58646357435407" lon="16.66352776780372"><ele>112.0</ele><time>2026-05-01T15:51:37Z</time></trkpt><trkpt lat="40.58667841724063" lon="16.663380780299136"><ele>112.0</ele><time>2026-05-01T15:51:38Z</time></trkpt><trkpt lat="40.58689743354936" lon="16.66324345715294"><ele>112.0</ele><time>2026-05-01T15:51:39Z</time></trkpt><trkpt lat="40.58711745693552" lon="16.66308346622069"><ele>113.0</ele><time>2026-05-01T15:51:40Z</time></trkpt><trkpt lat="40.58732505902976" lon="16.662969768644615"><ele>114.0</ele><time>2026-05-01T15:51:41Z</time></trkpt><trkpt lat="40.58751346126937" lon="16.66286076413538"><ele>115.0</ele><time>2026-05-01T15:51:42Z</time></trkpt><trkpt lat="40.58769412960066" lon="16.662746561774036"><ele>116.33333333333334</ele><time>2026-05-01T15:51:43Z</time></trkpt><trkpt lat="40.58788232108673" lon="16.662595621275557"><ele>117.66666666666666</ele><time>2026-05-01T15:51:44Z</time></trkpt><trkpt lat="40.588021800659135" lon="16.662381215048427"><ele>119.0</ele><time>2026-05-01T15:51:45Z</time></trkpt><trkpt lat="40.588146710865544" lon="16.662097907628127"><ele>122.5</ele><time>2026-05-01T15:51:46Z</time></trkpt><trkpt lat="40.588300654155205" lon="16.661822726091927"><ele>126.0</ele><time>2026-05-01T15:51:47Z</time></trkpt><trkpt lat="40.58847071374549" lon="16.661556354085395"><ele>126.0</ele><time>2026-05-01T15:51:48Z</time></trkpt><trkpt lat="40.58863394809008" lon="16.661274181387476"><ele>126.0</ele><time>2026-05-01T15:51:49Z</time></trkpt><trkpt lat="40.5887771874175" lon="16.660951663762635"><ele>125.5</ele><time>2026-05-01T15:51:50Z</time></trkpt><trkpt lat="40.5889039028639" lon="16.66063720116448"><ele>125.0</ele><time>2026-05-01T15:51:51Z</time></trkpt><trkpt lat="40.58901649483588" lon="16.66028870954279"><ele>126.5</ele><time>2026-05-01T15:51:52Z</time></trkpt><trkpt lat="40.58928908465162" lon="16.660216187290697"><ele>128.0</ele><time>2026-05-01T15:51:53Z</time></trkpt><trkpt lat="40.589443204813755" lon="16.65999257509066"><ele>127.0</ele><time>2026-05-01T15:51:54Z</time></trkpt><trkpt lat="40.58960783354505" lon="16.65974515444077"><ele>126.0</ele><time>2026-05-01T15:51:55Z</time></trkpt><trkpt lat="40.58979556068848" lon="16.659519410534113"><ele>127.5</ele><time>2026-05-01T15:51:56Z</time></trkpt><trkpt lat="40.590026821281135" lon="16.65930309101968"><ele>129.0</ele><time>2026-05-01T15:51:57Z</time></trkpt><trkpt lat="40.59023191286749" lon="16.65909658422376"><ele>129.0</ele><time>2026-05-01T15:51:58Z</time></trkpt><trkpt lat="40.59043774474535" lon="16.658862479279097"><ele>129.0</ele><time>2026-05-01T15:51:59Z</time></trkpt><trkpt lat="40.59063247987793" lon="16.658579573487145"><ele>129.5</ele><time>2026-05-01T15:52:00Z</time></trkpt><trkpt lat="40.590780575269385" lon="16.65829516538368"><ele>130.0</ele><time>2026-05-01T15:52:01Z</time></trkpt><trkpt lat="40.59093449315769" lon="16.658039280710653"><ele>130.0</ele><time>2026-05-01T15:52:02Z</time></trkpt><trkpt lat="40.591110641301306" lon="16.65789668797595"><ele>130.0</ele><time>2026-05-01T15:52:03Z</time></trkpt><trkpt lat="40.591339889380166" lon="16.6577328563319"><ele>132.5</ele><time>2026-05-01T15:52:04Z</time></trkpt><trkpt lat="40.591577307064384" lon="16.657572645448223"><ele>135.0</ele><time>2026-05-01T15:52:05Z</time></trkpt><trkpt lat="40.59175172063306" lon="16.65740373324176"><ele>135.0</ele><time>2026-05-01T15:52:06Z</time></trkpt><trkpt lat="40.5919525268323" lon="16.65724958115821"><ele>135.0</ele><time>2026-05-01T15:52:07Z</time></trkpt><trkpt lat="40.592124710124374" lon="16.657110279076228"><ele>135.0</ele><time>2026-05-01T15:52:08Z</time></trkpt><trkpt lat="40.59236953137691" lon="16.65694568698746"><ele>137.0</ele><time>2026-05-01T15:52:09Z</time></trkpt><trkpt lat="40.59257101605702" lon="16.65680928516113"><ele>139.0</ele><time>2026-05-01T15:52:10Z</time></trkpt><trkpt lat="40.59275971651295" lon="16.656691870376015"><ele>141.0</ele><time>2026-05-01T15:52:11Z</time></trkpt><trkpt lat="40.592959014728514" lon="16.65656285887026"><ele>141.5</ele><time>2026-05-01T15:52:12Z</time></trkpt><trkpt lat="40.5931566086226" lon="16.656420707200716"><ele>142.0</ele><time>2026-05-01T15:52:13Z</time></trkpt><trkpt lat="40.593348385433345" lon="16.656226193800922"><ele>141.5</ele><time>2026-05-01T15:52:14Z</time></trkpt><trkpt lat="40.59351597652326" lon="16.6559885771226"><ele>141.0</ele><time>2026-05-01T15:52:15Z</time></trkpt><trkpt lat="40.59366749697636" lon="16.655717098254996"><ele>141.0</ele><time>2026-05-01T15:52:16Z</time></trkpt><trkpt lat="40.59381820045635" lon="16.655454363762214"><ele>141.0</ele><time>2026-05-01T15:52:17Z</time></trkpt><trkpt lat="40.59396187259998" lon="16.655215993971304"><ele>141.0</ele><time>2026-05-01T15:52:18Z</time></trkpt><trkpt lat="40.5941000908423" lon="16.65499159560157"><ele>141.0</ele><time>2026-05-01T15:52:19Z</time></trkpt><trkpt lat="40.59423825262487" lon="16.654772305273703"><ele>141.0</ele><time>2026-05-01T15:52:20Z</time></trkpt><trkpt lat="40.59436960786889" lon="16.65456454696077"><ele>142.0</ele><time>2026-05-01T15:52:21Z</time></trkpt><trkpt lat="40.594504832318236" lon="16.654348824890526"><ele>143.0</ele><time>2026-05-01T15:52:22Z</time></trkpt><trkpt lat="40.594614690480945" lon="16.65414837067998"><ele>144.0</ele><time>2026-05-01T15:52:23Z</time></trkpt><trkpt lat="40.594690061229926" lon="16.653896262448587"><ele>144.33333333333334</ele><time>2026-05-01T15:52:24Z</time></trkpt><trkpt lat="40.594738954232604" lon="16.65360143838436"><ele>144.66666666666669</ele><time>2026-05-01T15:52:25Z</time></trkpt><trkpt lat="40.59478197499091" lon="16.653328646139922"><ele>145.0</ele><time>2026-05-01T15:52:26Z</time></trkpt><trkpt lat="40.594818783661516" lon="16.65308958360323"><ele>145.0</ele><time>2026-05-01T15:52:27Z</time></trkpt><trkpt lat="40.59486247941099" lon="16.652855443724302"><ele>145.0</ele><time>2026-05-01T15:52:28Z</time></trkpt><trkpt lat="40.59490995016802" lon="16.652616622342933"><ele>145.0</ele><time>2026-05-01T15:52:29Z</time></trkpt><trkpt lat="40.59495958710861" lon="16.652383776307673"><ele>145.33333333333334</ele><time>2026-05-01T15:52:30Z</time></trkpt><trkpt lat="40.595005530247626" lon="16.652172095445753"><ele>145.66666666666666</ele><time>2026-05-01T15:52:31Z</time></trkpt><trkpt lat="40.595040692642634" lon="16.651983109692285"><ele>146.0</ele><time>2026-05-01T15:52:32Z</time></trkpt><trkpt lat="40.595073456713735" lon="16.65176394357887"><ele>146.33333333333331</ele><time>2026-05-01T15:52:33Z</time></trkpt><trkpt lat="40.595120705527506" lon="16.651553104585574"><ele>146.66666666666666</ele><time>2026-05-01T15:52:34Z</time></trkpt><trkpt lat="40.59516478481926" lon="16.651339953824642"><ele>147.0</ele><time>2026-05-01T15:52:35Z</time></trkpt><trkpt lat="40.59520405182154" lon="16.651123486729873"><ele>147.66666666666666</ele><time>2026-05-01T15:52:36Z</time></trkpt><trkpt lat="40.595256226178144" lon="16.650872913798903"><ele>148.33333333333331</ele><time>2026-05-01T15:52:37Z</time></trkpt><trkpt lat="40.595300312203165" lon="16.650634352934407"><ele>149.0</ele><time>2026-05-01T15:52:37.999Z</time></trkpt><trkpt lat="40.59534678576714" lon="16.650395802460338"><ele>147.0</ele><time>2026-05-01T15:52:38.999Z</time></trkpt><trkpt lat="40.59539198775874" lon="16.650171456296434"><ele>145.0</ele><time>2026-05-01T15:52:39.999Z</time></trkpt><trkpt lat="40.59543001627896" lon="16.64997418029182"><ele>143.0</ele><time>2026-05-01T15:52:40.999Z</time></trkpt><trkpt lat="40.59547142709868" lon="16.649768848793702"><ele>143.0</ele><time>2026-05-01T15:52:41.999Z</time></trkpt><trkpt lat="40.59550382205217" lon="16.649575948804554"><ele>143.0</ele><time>2026-05-01T15:52:42.999Z</time></trkpt><trkpt lat="40.59554001034318" lon="16.649383805862545"><ele>143.0</ele><time>2026-05-01T15:52:43.999Z</time></trkpt><trkpt lat="40.59560028933861" lon="16.649187209461317"><ele>143.33333333333331</ele><time>2026-05-01T15:52:44.999Z</time></trkpt><trkpt lat="40.59567052946188" lon="16.648998795560512"><ele>143.66666666666666</ele><time>2026-05-01T15:52:45.999Z</time></trkpt><trkpt lat="40.59576802398968" lon="16.648826687090473"><ele>144.0</ele><time>2026-05-01T15:52:46.999Z</time></trkpt><trkpt lat="40.595881008663945" lon="16.648735930297867"><ele>144.0</ele><time>2026-05-01T15:52:47.999Z</time></trkpt><trkpt lat="40.59604707261054" lon="16.648630897831527"><ele>144.0</ele><time>2026-05-01T15:52:48.999Z</time></trkpt><trkpt lat="40.59628435910215" lon="16.648529878661474"><ele>144.0</ele><time>2026-05-01T15:52:49.999Z</time></trkpt><trkpt lat="40.59645356044687" lon="16.64845891252565"><ele>143.75</ele><time>2026-05-01T15:52:50.999Z</time></trkpt><trkpt lat="40.59659997283948" lon="16.648396980187268"><ele>143.5</ele><time>2026-05-01T15:52:51.999Z</time></trkpt><trkpt lat="40.596744440691566" lon="16.648335474793257"><ele>143.25</ele><time>2026-05-01T15:52:52.999Z</time></trkpt><trkpt lat="40.596877682906666" lon="16.648278748554304"><ele>143.0</ele><time>2026-05-01T15:52:53.999Z</time></trkpt><trkpt lat="40.597032801066845" lon="16.64819564587519"><ele>142.33333333333331</ele><time>2026-05-01T15:52:54.999Z</time></trkpt><trkpt lat="40.59720284493898" lon="16.64812278643118"><ele>141.66666666666666</ele><time>2026-05-01T15:52:55.999Z</time></trkpt><trkpt lat="40.597375735862535" lon="16.648050033530392"><ele>141.0</ele><time>2026-05-01T15:52:56.999Z</time></trkpt><trkpt lat="40.597534541478346" lon="16.64798809988605"><ele>141.0</ele><time>2026-05-01T15:52:57.999Z</time></trkpt><trkpt lat="40.59766807807747" lon="16.64792920120515"><ele>141.0</ele><time>2026-05-01T15:52:58.999Z</time></trkpt><trkpt lat="40.59780243828242" lon="16.647851201671138"><ele>141.0</ele><time>2026-05-01T15:52:59.999Z</time></trkpt><trkpt lat="40.59795409874998" lon="16.647722322278188"><ele>141.0</ele><time>2026-05-01T15:53:00.999Z</time></trkpt><trkpt lat="40.598124746521805" lon="16.64753255576159"><ele>141.0</ele><time>2026-05-01T15:53:01.999Z</time></trkpt><trkpt lat="40.59833360793822" lon="16.647280586285557"><ele>141.0</ele><time>2026-05-01T15:53:02.999Z</time></trkpt><trkpt lat="40.598557567570616" lon="16.647023589349335"><ele>141.0</ele><time>2026-05-01T15:53:03.999Z</time></trkpt><trkpt lat="40.5988128424493" lon="16.646773801424015"><ele>142.5</ele><time>2026-05-01T15:53:04.999Z</time></trkpt><trkpt lat="40.59906508629054" lon="16.646589085943884"><ele>144.0</ele><time>2026-05-01T15:53:05.999Z</time></trkpt><trkpt lat="40.599293875696944" lon="16.6464605180649"><ele>146.0</ele><time>2026-05-01T15:53:06.999Z</time></trkpt><trkpt lat="40.599546978229505" lon="16.646345225694265"><ele>148.0</ele><time>2026-05-01T15:53:07.999Z</time></trkpt><trkpt lat="40.599821545304536" lon="16.646232018154038"><ele>148.0</ele><time>2026-05-01T15:53:08.999Z</time></trkpt><trkpt lat="40.6000931898832" lon="16.64613117500867"><ele>148.0</ele><time>2026-05-01T15:53:09.999Z</time></trkpt><trkpt lat="40.600322066783136" lon="16.646022631054393"><ele>147.66666666666669</ele><time>2026-05-01T15:53:10.999Z</time></trkpt><trkpt lat="40.60054433434378" lon="16.645958357558587"><ele>147.33333333333334</ele><time>2026-05-01T15:53:11.999Z</time></trkpt><trkpt lat="40.60075565888441" lon="16.645876976454765"><ele>147.0</ele><time>2026-05-01T15:53:12.999Z</time></trkpt><trkpt lat="40.600971971680586" lon="16.64579367437564"><ele>147.0</ele><time>2026-05-01T15:53:13.999Z</time></trkpt><trkpt lat="40.601159945363065" lon="16.64570366066821"><ele>147.0</ele><time>2026-05-01T15:53:14.999Z</time></trkpt><trkpt lat="40.601355311172" lon="16.645627240784123"><ele>147.0</ele><time>2026-05-01T15:53:15.999Z</time></trkpt><trkpt lat="40.60152852753087" lon="16.64555960742894"><ele>146.66666666666666</ele><time>2026-05-01T15:53:16.999Z</time></trkpt><trkpt lat="40.60168135436408" lon="16.64548372609807"><ele>146.33333333333331</ele><time>2026-05-01T15:53:17.999Z</time></trkpt><trkpt lat="40.601799487936425" lon="16.645359015166484"><ele>146.0</ele><time>2026-05-01T15:53:18.999Z</time></trkpt><trkpt lat="40.601910940909235" lon="16.64518704695397"><ele>145.33333333333331</ele><time>2026-05-01T15:53:19.999Z</time></trkpt><trkpt lat="40.60201854893291" lon="16.644973550319612"><ele>144.66666666666666</ele><time>2026-05-01T15:53:20.999Z</time></trkpt><trkpt lat="40.60214075568484" lon="16.644759192907767"><ele>144.0</ele><time>2026-05-01T15:53:21.999Z</time></trkpt><trkpt lat="40.60227887803468" lon="16.64452631238569"><ele>143.0</ele><time>2026-05-01T15:53:22.999Z</time></trkpt><trkpt lat="40.60242741971352" lon="16.6442848033473"><ele>142.0</ele><time>2026-05-01T15:53:23.999Z</time></trkpt><trkpt lat="40.602580180491394" lon="16.64403413227991"><ele>142.0</ele><time>2026-05-01T15:53:24.999Z</time></trkpt><trkpt lat="40.6027240375225" lon="16.643791334868695"><ele>142.0</ele><time>2026-05-01T15:53:25.999Z</time></trkpt><trkpt lat="40.602867617156214" lon="16.643579000530178"><ele>140.5</ele><time>2026-05-01T15:53:26.999Z</time></trkpt><trkpt lat="40.60306390463298" lon="16.643353835273054"><ele>139.0</ele><time>2026-05-01T15:53:27.999Z</time></trkpt><trkpt lat="40.60325949252069" lon="16.643070260241835"><ele>139.0</ele><time>2026-05-01T15:53:28.999Z</time></trkpt><trkpt lat="40.60333751262754" lon="16.64296385086686"><ele>139.0</ele><time>2026-05-01T15:53:30.999Z</time></trkpt><trkpt lat="40.60344199488557" lon="16.642945260534372"><ele>139.0</ele><time>2026-05-01T15:53:31.999Z</time></trkpt><trkpt lat="40.60356829238817" lon="16.642963134377382"><ele>139.0</ele><time>2026-05-01T15:53:33Z</time></trkpt><trkpt lat="40.60373682987634" lon="16.642978319362427"><ele>139.25</ele><time>2026-05-01T15:53:34Z</time></trkpt><trkpt lat="40.60392050430633" lon="16.64299665846508"><ele>139.5</ele><time>2026-05-01T15:53:35Z</time></trkpt><trkpt lat="40.604043082164964" lon="16.643004314955135"><ele>139.75</ele><time>2026-05-01T15:53:36Z</time></trkpt><trkpt lat="40.60414580684962" lon="16.64299311662913"><ele>140.0</ele><time>2026-05-01T15:53:37Z</time></trkpt><trkpt lat="40.60426209371491" lon="16.64304137603872"><ele>140.0</ele><time>2026-05-01T15:53:38Z</time></trkpt><trkpt lat="40.60436271681559" lon="16.643054530267428"><ele>140.0</ele><time>2026-05-01T15:53:39Z</time></trkpt><trkpt lat="40.60441843516797" lon="16.64326432293842"><ele>140.0</ele><time>2026-05-01T15:53:40Z</time></trkpt><trkpt lat="40.60451819234037" lon="16.643430583084697"><ele>140.0</ele><time>2026-05-01T15:53:41Z</time></trkpt><trkpt lat="40.604505036308396" lon="16.64360056667174"><ele>141.33333333333331</ele><time>2026-05-01T15:53:42Z</time></trkpt><trkpt lat="40.60453857256869" lon="16.643813059118596"><ele>142.66666666666666</ele><time>2026-05-01T15:53:43Z</time></trkpt><trkpt lat="40.60457230478624" lon="16.64402679322504"><ele>144.0</ele><time>2026-05-01T15:53:44Z</time></trkpt><trkpt lat="40.60460841438758" lon="16.644255590892605"><ele>144.0</ele><time>2026-05-01T15:53:45Z</time></trkpt><trkpt lat="40.60463989247198" lon="16.644454320309173"><ele>144.0</ele><time>2026-05-01T15:53:46Z</time></trkpt><trkpt lat="40.60466897276721" lon="16.644637764933414"><ele>144.0</ele><time>2026-05-01T15:53:47Z</time></trkpt><trkpt lat="40.604700086455885" lon="16.644836241887813"><ele>145.33333333333334</ele><time>2026-05-01T15:53:48Z</time></trkpt><trkpt lat="40.60473298885831" lon="16.645049051127117"><ele>146.66666666666669</ele><time>2026-05-01T15:53:49Z</time></trkpt><trkpt lat="40.604786581035356" lon="16.645277316846077"><ele>148.0</ele><time>2026-05-01T15:53:50Z</time></trkpt><trkpt lat="40.60486664339364" lon="16.64548834295174"><ele>148.0</ele><time>2026-05-01T15:53:51Z</time></trkpt><trkpt lat="40.60493637515019" lon="16.645696052591877"><ele>148.0</ele><time>2026-05-01T15:53:52Z</time></trkpt><trkpt lat="40.604997113711065" lon="16.645881502416565"><ele>148.0</ele><time>2026-05-01T15:53:53Z</time></trkpt><trkpt lat="40.605060092959555" lon="16.646052487713284"><ele>147.5</ele><time>2026-05-01T15:53:54Z</time></trkpt><trkpt lat="40.60510651147419" lon="16.646211237677452"><ele>147.0</ele><time>2026-05-01T15:53:55Z</time></trkpt><trkpt lat="40.60515175463215" lon="16.64636339624745"><ele>146.5</ele><time>2026-05-01T15:53:56Z</time></trkpt><trkpt lat="40.60523872347807" lon="16.646545846771097"><ele>146.0</ele><time>2026-05-01T15:53:57Z</time></trkpt><trkpt lat="40.60534343358306" lon="16.646716551011306"><ele>146.66666666666666</ele><time>2026-05-01T15:53:58Z</time></trkpt><trkpt lat="40.60549282854048" lon="16.64686101240376"><ele>147.33333333333334</ele><time>2026-05-01T15:53:59Z</time></trkpt><trkpt lat="40.605654762046626" lon="16.646926827080318"><ele>148.0</ele><time>2026-05-01T15:54:00Z</time></trkpt><trkpt lat="40.60584140720865" lon="16.647000451557556"><ele>148.0</ele><time>2026-05-01T15:54:01Z</time></trkpt><trkpt lat="40.6060317954054" lon="16.647065163027065"><ele>148.0</ele><time>2026-05-01T15:54:02Z</time></trkpt><trkpt lat="40.606190946415424" lon="16.647107618277893"><ele>148.0</ele><time>2026-05-01T15:54:03Z</time></trkpt><trkpt lat="40.60635779585161" lon="16.647178919789376"><ele>149.0</ele><time>2026-05-01T15:54:04Z</time></trkpt><trkpt lat="40.606530937435544" lon="16.64726349389484"><ele>150.0</ele><time>2026-05-01T15:54:05Z</time></trkpt><trkpt lat="40.60669860755864" lon="16.647339918759588"><ele>151.0</ele><time>2026-05-01T15:54:06Z</time></trkpt><trkpt lat="40.60682429019399" lon="16.647300844663672"><ele>151.0</ele><time>2026-05-01T15:54:07Z</time></trkpt><trkpt lat="40.60693943430053" lon="16.64720687243637"><ele>151.0</ele><time>2026-05-01T15:54:08Z</time></trkpt><trkpt lat="40.60711101188819" lon="16.647060514789207"><ele>151.0</ele><time>2026-05-01T15:54:09Z</time></trkpt><trkpt lat="40.60733023276733" lon="16.646848670131273"><ele>151.0</ele><time>2026-05-01T15:54:10Z</time></trkpt><trkpt lat="40.60754045610899" lon="16.646679636510786"><ele>151.0</ele><time>2026-05-01T15:54:11Z</time></trkpt><trkpt lat="40.607730107426484" lon="16.646511082915904"><ele>152.5</ele><time>2026-05-01T15:54:12Z</time></trkpt><trkpt lat="40.60758563291814" lon="16.64612122194128"><ele>154.0</ele><time>2026-05-01T15:54:13Z</time></trkpt><trkpt lat="40.60775112024879" lon="16.645967125593902"><ele>151.0</ele><time>2026-05-01T15:54:14Z</time></trkpt><trkpt lat="40.60797228080091" lon="16.64582714414419"><ele>148.0</ele><time>2026-05-01T15:54:15Z</time></trkpt><trkpt lat="40.60817419480615" lon="16.645694032541698"><ele>148.0</ele><time>2026-05-01T15:54:16Z</time></trkpt><trkpt lat="40.6083454044073" lon="16.645568222572425"><ele>148.0</ele><time>2026-05-01T15:54:17Z</time></trkpt><trkpt lat="40.608508625852394" lon="16.6454461467613"><ele>148.0</ele><time>2026-05-01T15:54:18Z</time></trkpt><trkpt lat="40.60866270550438" lon="16.645338994420126"><ele>149.0</ele><time>2026-05-01T15:54:19Z</time></trkpt><trkpt lat="40.60884732512869" lon="16.6452562275294"><ele>150.0</ele><time>2026-05-01T15:54:20Z</time></trkpt><trkpt lat="40.60906764175216" lon="16.64517637659732"><ele>151.0</ele><time>2026-05-01T15:54:21Z</time></trkpt><trkpt lat="40.60930020974732" lon="16.645267246183632"><ele>149.0</ele><time>2026-05-01T15:54:22Z</time></trkpt><trkpt lat="40.609534513274966" lon="16.645366205866093"><ele>147.0</ele><time>2026-05-01T15:54:23Z</time></trkpt><trkpt lat="40.6097373847573" lon="16.645427851332755"><ele>147.0</ele><time>2026-05-01T15:54:24Z</time></trkpt><trkpt lat="40.60991569589943" lon="16.645473380630172"><ele>147.0</ele><time>2026-05-01T15:54:25Z</time></trkpt><trkpt lat="40.61008163036631" lon="16.645517809886304"><ele>147.0</ele><time>2026-05-01T15:54:26Z</time></trkpt><trkpt lat="40.610241472992804" lon="16.645561148437427"><ele>146.66666666666666</ele><time>2026-05-01T15:54:27Z</time></trkpt><trkpt lat="40.61040851481102" lon="16.645560572190256"><ele>146.33333333333331</ele><time>2026-05-01T15:54:28Z</time></trkpt><trkpt lat="40.610591605369315" lon="16.64548553905482"><ele>146.0</ele><time>2026-05-01T15:54:29Z</time></trkpt><trkpt lat="40.610769593551936" lon="16.645356676406763"><ele>147.66666666666666</ele><time>2026-05-01T15:54:30Z</time></trkpt><trkpt lat="40.61091819434225" lon="16.645230297940884"><ele>149.33333333333334</ele><time>2026-05-01T15:54:31Z</time></trkpt><trkpt lat="40.61107628696561" lon="16.64518350595713"><ele>151.0</ele><time>2026-05-01T15:54:32Z</time></trkpt><trkpt lat="40.61127180459284" lon="16.645187606173895"><ele>151.66666666666669</ele><time>2026-05-01T15:54:33Z</time></trkpt><trkpt lat="40.61142696626882" lon="16.64525750127119"><ele>152.33333333333334</ele><time>2026-05-01T15:54:34Z</time></trkpt><trkpt lat="40.6116743008909" lon="16.6450997947906"><ele>153.0</ele><time>2026-05-01T15:54:35Z</time></trkpt><trkpt lat="40.611850749945276" lon="16.645248112572066"><ele>152.33333333333334</ele><time>2026-05-01T15:54:36Z</time></trkpt><trkpt lat="40.61199490550583" lon="16.645365951975666"><ele>151.66666666666669</ele><time>2026-05-01T15:54:37Z</time></trkpt><trkpt lat="40.61222973359214" lon="16.645459268416896"><ele>151.0</ele><time>2026-05-01T15:54:38Z</time></trkpt><trkpt lat="40.61235662087855" lon="16.64549343289495"><ele>151.0</ele><time>2026-05-01T15:54:38.999Z</time></trkpt><trkpt lat="40.6125395229859" lon="16.645483117997095"><ele>151.0</ele><time>2026-05-01T15:54:39.999Z</time></trkpt><trkpt lat="40.61266306067848" lon="16.645461432516974"><ele>151.0</ele><time>2026-05-01T15:54:40.999Z</time></trkpt><trkpt lat="40.61278826736655" lon="16.64541243604514"><ele>151.0</ele><time>2026-05-01T15:54:41.999Z</time></trkpt><trkpt lat="40.61289363566714" lon="16.645279270685396"><ele>151.66666666666669</ele><time>2026-05-01T15:54:42.999Z</time></trkpt><trkpt lat="40.6130121949601" lon="16.645113056425608"><ele>152.33333333333334</ele><time>2026-05-01T15:54:43.999Z</time></trkpt><trkpt lat="40.61310156957159" lon="16.644808260948913"><ele>153.0</ele><time>2026-05-01T15:54:44.999Z</time></trkpt><trkpt lat="40.613174267809775" lon="16.644624588361356"><ele>153.0</ele><time>2026-05-01T15:54:45.999Z</time></trkpt><trkpt lat="40.6131229329956" lon="16.644457493246556"><ele>153.0</ele><time>2026-05-01T15:54:46.999Z</time></trkpt><trkpt lat="40.61308951828648" lon="16.644186957143095"><ele>153.0</ele><time>2026-05-01T15:54:47.999Z</time></trkpt><trkpt lat="40.61308337854405" lon="16.643981777106738"><ele>153.0</ele><time>2026-05-01T15:54:48.999Z</time></trkpt><trkpt lat="40.61311829438192" lon="16.64375682979316"><ele>153.0</ele><time>2026-05-01T15:54:49.999Z</time></trkpt><trkpt lat="40.61319370010005" lon="16.643626890589797"><ele>153.0</ele><time>2026-05-01T15:54:50.999Z</time></trkpt><trkpt lat="40.61332901121327" lon="16.64338098800124"><ele>154.0</ele><time>2026-05-01T15:54:51.999Z</time></trkpt><trkpt lat="40.6134794856798" lon="16.643193115209417"><ele>155.0</ele><time>2026-05-01T15:54:52.999Z</time></trkpt><trkpt lat="40.613776880285705" lon="16.64294407383583"><ele>154.0</ele><time>2026-05-01T15:54:53.999Z</time></trkpt><trkpt lat="40.61386489879399" lon="16.642701923509176"><ele>153.0</ele><time>2026-05-01T15:54:54.999Z</time></trkpt><trkpt lat="40.61392581189016" lon="16.642453796122183"><ele>152.0</ele><time>2026-05-01T15:54:55.999Z</time></trkpt><trkpt lat="40.61394092187138" lon="16.642200188811138"><ele>152.0</ele><time>2026-05-01T15:54:56.999Z</time></trkpt><trkpt lat="40.613961721318375" lon="16.64199889494755"><ele>152.0</ele><time>2026-05-01T15:54:57.999Z</time></trkpt><trkpt lat="40.61404486132377" lon="16.641943506686484"><ele>152.0</ele><time>2026-05-01T15:54:58.999Z</time></trkpt><trkpt lat="40.61415994028467" lon="16.64188097908802"><ele>152.0</ele><time>2026-05-01T15:54:59.999Z</time></trkpt><trkpt lat="40.614328617455506" lon="16.641847076724726"><ele>152.0</ele><time>2026-05-01T15:55:00.999Z</time></trkpt><trkpt lat="40.61451412560841" lon="16.641796438943235"><ele>152.0</ele><time>2026-05-01T15:55:01.999Z</time></trkpt><trkpt lat="40.61467000766437" lon="16.64179751079703"><ele>152.0</ele><time>2026-05-01T15:55:02.999Z</time></trkpt><trkpt lat="40.614808180506685" lon="16.641863025664076"><ele>152.33333333333331</ele><time>2026-05-01T15:55:03.999Z</time></trkpt><trkpt lat="40.614973719862306" lon="16.641972553146985"><ele>152.66666666666666</ele><time>2026-05-01T15:55:04.999Z</time></trkpt><trkpt lat="40.61515580628691" lon="16.642033887279347"><ele>153.0</ele><time>2026-05-01T15:55:05.999Z</time></trkpt><trkpt lat="40.61531772339947" lon="16.641990530826117"><ele>153.66666666666666</ele><time>2026-05-01T15:55:06.999Z</time></trkpt><trkpt lat="40.61544969956567" lon="16.641947398648362"><ele>154.33333333333331</ele><time>2026-05-01T15:55:07.999Z</time></trkpt><trkpt lat="40.6156359198191" lon="16.64185219033964"><ele>155.0</ele><time>2026-05-01T15:55:08.999Z</time></trkpt><trkpt lat="40.6158348545864" lon="16.641787541534683"><ele>155.0</ele><time>2026-05-01T15:55:09.999Z</time></trkpt><trkpt lat="40.61608595693" lon="16.641762091766005"><ele>155.0</ele><time>2026-05-01T15:55:10.999Z</time></trkpt><trkpt lat="40.61632260280189" lon="16.641704926159342"><ele>156.5</ele><time>2026-05-01T15:55:11.999Z</time></trkpt><trkpt lat="40.61638131270085" lon="16.64126641995036"><ele>158.0</ele><time>2026-05-01T15:55:12.999Z</time></trkpt><trkpt lat="40.616510476048106" lon="16.64107571848322"><ele>158.0</ele><time>2026-05-01T15:55:13.999Z</time></trkpt><trkpt lat="40.61669575650382" lon="16.64095332935951"><ele>158.0</ele><time>2026-05-01T15:55:14.999Z</time></trkpt><trkpt lat="40.616930220569806" lon="16.64085793513027"><ele>159.0</ele><time>2026-05-01T15:55:15.999Z</time></trkpt><trkpt lat="40.617162681420616" lon="16.64077166868507"><ele>160.0</ele><time>2026-05-01T15:55:16.999Z</time></trkpt><trkpt lat="40.61735673910767" lon="16.640691730898247"><ele>161.0</ele><time>2026-05-01T15:55:17.999Z</time></trkpt><trkpt lat="40.61754458675665" lon="16.64057482136851"><ele>161.0</ele><time>2026-05-01T15:55:18.999Z</time></trkpt><trkpt lat="40.617702759312785" lon="16.640374150273377"><ele>161.0</ele><time>2026-05-01T15:55:19.999Z</time></trkpt><trkpt lat="40.61782521168006" lon="16.64014301222698"><ele>161.0</ele><time>2026-05-01T15:55:20.999Z</time></trkpt><trkpt lat="40.617965441617514" lon="16.63988518741658"><ele>162.33333333333331</ele><time>2026-05-01T15:55:21.999Z</time></trkpt><trkpt lat="40.61810516594833" lon="16.639665218772464"><ele>163.66666666666666</ele><time>2026-05-01T15:55:22.999Z</time></trkpt><trkpt lat="40.618270631552555" lon="16.6395912877593"><ele>165.0</ele><time>2026-05-01T15:55:23.999Z</time></trkpt><trkpt lat="40.618471465065305" lon="16.639483825568032"><ele>165.5</ele><time>2026-05-01T15:55:24.999Z</time></trkpt><trkpt lat="40.61867765618792" lon="16.639321475552048"><ele>166.0</ele><time>2026-05-01T15:55:25.999Z</time></trkpt><trkpt lat="40.618882004377774" lon="16.639102794471803"><ele>166.0</ele><time>2026-05-01T15:55:26.999Z</time></trkpt><trkpt lat="40.619062793541545" lon="16.63882537249365"><ele>166.0</ele><time>2026-05-01T15:55:27.999Z</time></trkpt><trkpt lat="40.61924909839715" lon="16.63853740186845"><ele>164.0</ele><time>2026-05-01T15:55:28.999Z</time></trkpt><trkpt lat="40.61941700364942" lon="16.638231159432994"><ele>162.0</ele><time>2026-05-01T15:55:29.999Z</time></trkpt><trkpt lat="40.61956423033807" lon="16.637896850363013"><ele>164.0</ele><time>2026-05-01T15:55:30.999Z</time></trkpt><trkpt lat="40.619691791527146" lon="16.63759337956547"><ele>166.0</ele><time>2026-05-01T15:55:31.999Z</time></trkpt><trkpt lat="40.619833799338544" lon="16.637406845634434"><ele>166.0</ele><time>2026-05-01T15:55:32.999Z</time></trkpt><trkpt lat="40.62000142827253" lon="16.637290920730937"><ele>166.0</ele><time>2026-05-01T15:55:33.999Z</time></trkpt><trkpt lat="40.62011913792265" lon="16.637248638180072"><ele>166.0</ele><time>2026-05-01T15:55:34.999Z</time></trkpt><trkpt lat="40.62031407344063" lon="16.63716911825872"><ele>167.0</ele><time>2026-05-01T15:55:35.999Z</time></trkpt><trkpt lat="40.62050639517557" lon="16.637040849830182"><ele>168.0</ele><time>2026-05-01T15:55:36.999Z</time></trkpt><trkpt lat="40.62068729202568" lon="16.636867117640968"><ele>169.0</ele><time>2026-05-01T15:55:37.999Z</time></trkpt><trkpt lat="40.62084753876727" lon="16.63665956396894"><ele>169.0</ele><time>2026-05-01T15:55:39Z</time></trkpt><trkpt lat="40.6210166779621" lon="16.636539370052994"><ele>169.0</ele><time>2026-05-01T15:55:40Z</time></trkpt><trkpt lat="40.62119512194142" lon="16.63647638454743"><ele>169.0</ele><time>2026-05-01T15:55:41Z</time></trkpt><trkpt lat="40.62139066586341" lon="16.636430142523697"><ele>171.33333333333334</ele><time>2026-05-01T15:55:42Z</time></trkpt><trkpt lat="40.621608790706844" lon="16.63636568594064"><ele>173.66666666666666</ele><time>2026-05-01T15:55:43Z</time></trkpt><trkpt lat="40.62182069572955" lon="16.636272264291456"><ele>176.0</ele><time>2026-05-01T15:55:44Z</time></trkpt><trkpt lat="40.62200689659105" lon="16.6361703288036"><ele>176.5</ele><time>2026-05-01T15:55:45Z</time></trkpt><trkpt lat="40.62215602787721" lon="16.635987711912115"><ele>177.0</ele><time>2026-05-01T15:55:46Z</time></trkpt><trkpt lat="40.62223120040738" lon="16.635815874711923"><ele>177.5</ele><time>2026-05-01T15:55:47Z</time></trkpt><trkpt lat="40.62226489416085" lon="16.635704487639874"><ele>178.0</ele><time>2026-05-01T15:55:48Z</time></trkpt><trkpt lat="40.62231925066379" lon="16.635554210429472"><ele>176.5</ele><time>2026-05-01T15:55:49Z</time></trkpt><trkpt lat="40.622262428032364" lon="16.63525265086662"><ele>175.0</ele><time>2026-05-01T15:55:50Z</time></trkpt><trkpt lat="40.62229775838789" lon="16.63495996309081"><ele>175.0</ele><time>2026-05-01T15:55:51Z</time></trkpt><trkpt lat="40.62228622335555" lon="16.63464818516237"><ele>175.0</ele><time>2026-05-01T15:55:52Z</time></trkpt><trkpt lat="40.62227215455058" lon="16.63437262902654"><ele>175.0</ele><time>2026-05-01T15:55:53Z</time></trkpt><trkpt lat="40.62224851856128" lon="16.634089516796806"><ele>175.5</ele><time>2026-05-01T15:55:54Z</time></trkpt><trkpt lat="40.62223414434839" lon="16.63386516889001"><ele>176.0</ele><time>2026-05-01T15:55:55Z</time></trkpt><trkpt lat="40.622203976570724" lon="16.633680628192568"><ele>176.5</ele><time>2026-05-01T15:55:56Z</time></trkpt><trkpt lat="40.62222829561159" lon="16.6335293056667"><ele>177.0</ele><time>2026-05-01T15:55:57Z</time></trkpt><trkpt lat="40.62229060868328" lon="16.633377162480215"><ele>178.66666666666666</ele><time>2026-05-01T15:55:58Z</time></trkpt><trkpt lat="40.62241909548075" lon="16.633279398085264"><ele>180.33333333333331</ele><time>2026-05-01T15:55:59Z</time></trkpt><trkpt lat="40.62256625598578" lon="16.633197333619552"><ele>182.0</ele><time>2026-05-01T15:56:00Z</time></trkpt><trkpt lat="40.62272921283758" lon="16.63308280396539"><ele>182.33333333333331</ele><time>2026-05-01T15:56:01Z</time></trkpt><trkpt lat="40.622901305566735" lon="16.632939416209293"><ele>182.66666666666666</ele><time>2026-05-01T15:56:02Z</time></trkpt><trkpt lat="40.62308620256903" lon="16.632793004328995"><ele>183.0</ele><time>2026-05-01T15:56:03Z</time></trkpt><trkpt lat="40.62324348350937" lon="16.63267054792272"><ele>184.66666666666666</ele><time>2026-05-01T15:56:04Z</time></trkpt><trkpt lat="40.62340346109425" lon="16.632543407130377"><ele>186.33333333333331</ele><time>2026-05-01T15:56:05Z</time></trkpt><trkpt lat="40.62359009417006" lon="16.632403579918495"><ele>188.0</ele><time>2026-05-01T15:56:06Z</time></trkpt><trkpt lat="40.62378883816921" lon="16.632289039134015"><ele>189.5</ele><time>2026-05-01T15:56:07Z</time></trkpt><trkpt lat="40.62406729229396" lon="16.63241282008411"><ele>191.0</ele><time>2026-05-01T15:56:08Z</time></trkpt><trkpt lat="40.62429203914835" lon="16.632338100025866"><ele>194.0</ele><time>2026-05-01T15:56:09Z</time></trkpt><trkpt lat="40.624500447844774" lon="16.632202789787495"><ele>197.0</ele><time>2026-05-01T15:56:10Z</time></trkpt><trkpt lat="40.62471397758355" lon="16.632078603843727"><ele>198.0</ele><time>2026-05-01T15:56:11Z</time></trkpt><trkpt lat="40.62492306699294" lon="16.63190418167883"><ele>199.0</ele><time>2026-05-01T15:56:12Z</time></trkpt><trkpt lat="40.625107893193544" lon="16.631725490030842"><ele>199.0</ele><time>2026-05-01T15:56:13Z</time></trkpt><trkpt lat="40.625247794792315" lon="16.631487752959334"><ele>199.0</ele><time>2026-05-01T15:56:14Z</time></trkpt><trkpt lat="40.62537380928355" lon="16.6312009978095"><ele>198.5</ele><time>2026-05-01T15:56:15Z</time></trkpt><trkpt lat="40.62552289412536" lon="16.63090496174473"><ele>198.0</ele><time>2026-05-01T15:56:16Z</time></trkpt><trkpt lat="40.62565989454109" lon="16.630611466445938"><ele>198.0</ele><time>2026-05-01T15:56:17Z</time></trkpt><trkpt lat="40.62579553069255" lon="16.630359266414622"><ele>198.0</ele><time>2026-05-01T15:56:18Z</time></trkpt><trkpt lat="40.62590268742221" lon="16.630145067150032"><ele>198.0</ele><time>2026-05-01T15:56:19Z</time></trkpt><trkpt lat="40.62599321174146" lon="16.629964201673477"><ele>198.66666666666669</ele><time>2026-05-01T15:56:20Z</time></trkpt><trkpt lat="40.626114129446975" lon="16.62972041007248"><ele>199.33333333333334</ele><time>2026-05-01T15:56:21Z</time></trkpt><trkpt lat="40.62624293838598" lon="16.629495965952525"><ele>200.0</ele><time>2026-05-01T15:56:22Z</time></trkpt><trkpt lat="40.62634773316509" lon="16.629274994800216"><ele>203.66666666666669</ele><time>2026-05-01T15:56:23Z</time></trkpt><trkpt lat="40.62645594719078" lon="16.62904721310647"><ele>207.33333333333331</ele><time>2026-05-01T15:56:24Z</time></trkpt><trkpt lat="40.626562110086674" lon="16.628860938379937"><ele>211.0</ele><time>2026-05-01T15:56:25Z</time></trkpt><trkpt lat="40.62666545714988" lon="16.628644354640834"><ele>209.66666666666666</ele><time>2026-05-01T15:56:26Z</time></trkpt><trkpt lat="40.62677083604801" lon="16.628499713865168"><ele>208.33333333333331</ele><time>2026-05-01T15:56:27Z</time></trkpt><trkpt lat="40.626939894198934" lon="16.62833678303159"><ele>207.0</ele><time>2026-05-01T15:56:28Z</time></trkpt><trkpt lat="40.62712795772909" lon="16.628262669652635"><ele>210.33333333333331</ele><time>2026-05-01T15:56:29Z</time></trkpt><trkpt lat="40.62733801885313" lon="16.628213722108967"><ele>213.66666666666666</ele><time>2026-05-01T15:56:30Z</time></trkpt><trkpt lat="40.627503504584" lon="16.628104949137303"><ele>217.0</ele><time>2026-05-01T15:56:31Z</time></trkpt><trkpt lat="40.627670164517546" lon="16.62797803104841"><ele>219.0</ele><time>2026-05-01T15:56:32Z</time></trkpt><trkpt lat="40.62782563093184" lon="16.627813167984637"><ele>221.0</ele><time>2026-05-01T15:56:33Z</time></trkpt><trkpt lat="40.62797754974671" lon="16.62766380732571"><ele>223.0</ele><time>2026-05-01T15:56:34Z</time></trkpt><trkpt lat="40.62813128373697" lon="16.627486559613377"><ele>223.0</ele><time>2026-05-01T15:56:35Z</time></trkpt><trkpt lat="40.62826931518549" lon="16.627352715189247"><ele>223.0</ele><time>2026-05-01T15:56:36Z</time></trkpt><trkpt lat="40.628399449651404" lon="16.627233541917622"><ele>223.0</ele><time>2026-05-01T15:56:37Z</time></trkpt><trkpt lat="40.62853395751602" lon="16.62710174834189"><ele>226.0</ele><time>2026-05-01T15:56:38Z</time></trkpt><trkpt lat="40.62866201226459" lon="16.626967222511315"><ele>229.0</ele><time>2026-05-01T15:56:39Z</time></trkpt><trkpt lat="40.628797112091796" lon="16.626824561603375"><ele>232.0</ele><time>2026-05-01T15:56:40Z</time></trkpt><trkpt lat="40.62892474821207" lon="16.626695515775978"><ele>232.0</ele><time>2026-05-01T15:56:41Z</time></trkpt><trkpt lat="40.629037424852534" lon="16.626582292650884"><ele>232.0</ele><time>2026-05-01T15:56:42Z</time></trkpt><trkpt lat="40.629146075976955" lon="16.62648077004032"><ele>232.0</ele><time>2026-05-01T15:56:43Z</time></trkpt><trkpt lat="40.62925651324729" lon="16.626358540007217"><ele>232.0</ele><time>2026-05-01T15:56:44Z</time></trkpt><trkpt lat="40.629386772470816" lon="16.626237074705262"><ele>233.0</ele><time>2026-05-01T15:56:45Z</time></trkpt><trkpt lat="40.629517701745144" lon="16.626101554263553"><ele>234.0</ele><time>2026-05-01T15:56:46Z</time></trkpt><trkpt lat="40.62965258398586" lon="16.625952125033137"><ele>235.0</ele><time>2026-05-01T15:56:46.999Z</time></trkpt><trkpt lat="40.62977822141258" lon="16.625815665549048"><ele>235.0</ele><time>2026-05-01T15:56:47.999Z</time></trkpt><trkpt lat="40.629904360104184" lon="16.625668569108146"><ele>235.0</ele><time>2026-05-01T15:56:48.999Z</time></trkpt><trkpt lat="40.63006842167967" lon="16.625648644553348"><ele>235.0</ele><time>2026-05-01T15:56:49.999Z</time></trkpt><trkpt lat="40.63025367895921" lon="16.625654371411258"><ele>236.66666666666666</ele><time>2026-05-01T15:56:50.999Z</time></trkpt><trkpt lat="40.63043408960197" lon="16.625716461747608"><ele>238.33333333333331</ele><time>2026-05-01T15:56:51.999Z</time></trkpt><trkpt lat="40.6306179381856" lon="16.625877015920874"><ele>240.0</ele><time>2026-05-01T15:56:52.999Z</time></trkpt><trkpt lat="40.630801086296536" lon="16.626087444041772"><ele>241.33333333333331</ele><time>2026-05-01T15:56:53.999Z</time></trkpt><trkpt lat="40.63095761487796" lon="16.62631040400035"><ele>242.66666666666666</ele><time>2026-05-01T15:56:54.999Z</time></trkpt><trkpt lat="40.63107263348195" lon="16.626422111655216"><ele>244.0</ele><time>2026-05-01T15:56:55.999Z</time></trkpt><trkpt lat="40.631164241138" lon="16.626460876516404"><ele>244.75</ele><time>2026-05-01T15:56:56.999Z</time></trkpt><trkpt lat="40.63122149713937" lon="16.62659028639758"><ele>245.5</ele><time>2026-05-01T15:56:57.999Z</time></trkpt><trkpt lat="40.631339547437186" lon="16.62642410836848"><ele>246.25</ele><time>2026-05-01T15:56:58.999Z</time></trkpt><trkpt lat="40.63142805352705" lon="16.62625529829849"><ele>247.0</ele><time>2026-05-01T15:56:59.999Z</time></trkpt><trkpt lat="40.63150572501034" lon="16.626048154063625"><ele>247.0</ele><time>2026-05-01T15:57:00.999Z</time></trkpt><trkpt lat="40.63161726479715" lon="16.625776580650985"><ele>247.0</ele><time>2026-05-01T15:57:01.999Z</time></trkpt><trkpt lat="40.63174714433368" lon="16.625459430350677"><ele>245.33333333333331</ele><time>2026-05-01T15:57:02.999Z</time></trkpt><trkpt lat="40.631860561555655" lon="16.62520339101386"><ele>243.66666666666669</ele><time>2026-05-01T15:57:03.999Z</time></trkpt><trkpt lat="40.63199444326545" lon="16.625024279030747"><ele>242.0</ele><time>2026-05-01T15:57:04.999Z</time></trkpt><trkpt lat="40.63217284868127" lon="16.624906850655716"><ele>246.0</ele><time>2026-05-01T15:57:05.999Z</time></trkpt><trkpt lat="40.63235428119347" lon="16.6248476783758"><ele>250.0</ele><time>2026-05-01T15:57:06.999Z</time></trkpt><trkpt lat="40.632558736433666" lon="16.62484586600077"><ele>254.0</ele><time>2026-05-01T15:57:07.999Z</time></trkpt><trkpt lat="40.63276702826535" lon="16.624890008071727"><ele>256.6666666666667</ele><time>2026-05-01T15:57:08.999Z</time></trkpt><trkpt lat="40.632978222531385" lon="16.62496714431583"><ele>259.3333333333333</ele><time>2026-05-01T15:57:09.999Z</time></trkpt><trkpt lat="40.63312693281799" lon="16.62502530662691"><ele>262.0</ele><time>2026-05-01T15:57:10.999Z</time></trkpt><trkpt lat="40.63326274356088" lon="16.62501096103111"><ele>262.0</ele><time>2026-05-01T15:57:11.999Z</time></trkpt><trkpt lat="40.63338234833523" lon="16.624933002736803"><ele>262.0</ele><time>2026-05-01T15:57:12.999Z</time></trkpt><trkpt lat="40.63345221648085" lon="16.62484976402255"><ele>262.0</ele><time>2026-05-01T15:57:13.999Z</time></trkpt><trkpt lat="40.633550434607336" lon="16.624388683831572"><ele>267.0</ele><time>2026-05-01T15:57:14.999Z</time></trkpt><trkpt lat="40.63368942517891" lon="16.62407151965115"><ele>272.0</ele><time>2026-05-01T15:57:15.999Z</time></trkpt><trkpt lat="40.633820817832245" lon="16.623694513276035"><ele>270.5</ele><time>2026-05-01T15:57:16.999Z</time></trkpt><trkpt lat="40.63394632362934" lon="16.623371729575517"><ele>269.0</ele><time>2026-05-01T15:57:17.999Z</time></trkpt><trkpt lat="40.63407670964557" lon="16.623149523896984"><ele>269.0</ele><time>2026-05-01T15:57:18.999Z</time></trkpt><trkpt lat="40.63422275725165" lon="16.623030469855117"><ele>269.0</ele><time>2026-05-01T15:57:19.999Z</time></trkpt><trkpt lat="40.63440553263258" lon="16.62274484026064"><ele>269.5</ele><time>2026-05-01T15:57:20.999Z</time></trkpt><trkpt lat="40.634684176738396" lon="16.62266122980464"><ele>270.0</ele><time>2026-05-01T15:57:21.999Z</time></trkpt><trkpt lat="40.634968852287656" lon="16.62250917367271"><ele>274.0</ele><time>2026-05-01T15:57:22.999Z</time></trkpt><trkpt lat="40.635310394274526" lon="16.622414645647822"><ele>278.0</ele><time>2026-05-01T15:57:23.999Z</time></trkpt><trkpt lat="40.63551430774404" lon="16.622244258994037"><ele>278.0</ele><time>2026-05-01T15:57:24.999Z</time></trkpt><trkpt lat="40.635666807352784" lon="16.62220701671408"><ele>278.0</ele><time>2026-05-01T15:57:25.999Z</time></trkpt><trkpt lat="40.63580628156736" lon="16.622231037030343"><ele>278.0</ele><time>2026-05-01T15:57:26.999Z</time></trkpt><trkpt lat="40.63590388789656" lon="16.622308956790135"><ele>278.0</ele><time>2026-05-01T15:57:27.999Z</time></trkpt><trkpt lat="40.63597196517116" lon="16.622366033757135"><ele>278.0</ele><time>2026-05-01T15:57:28.999Z</time></trkpt><trkpt lat="40.63600920046603" lon="16.622503666020346"><ele>278.0</ele><time>2026-05-01T15:57:29.999Z</time></trkpt><trkpt lat="40.63605779426415" lon="16.622661671850803"><ele>278.0</ele><time>2026-05-01T15:57:30.999Z</time></trkpt><trkpt lat="40.636128486644196" lon="16.62296796806937"><ele>279.25</ele><time>2026-05-01T15:57:31.999Z</time></trkpt><trkpt lat="40.636223152850114" lon="16.623197454726"><ele>280.5</ele><time>2026-05-01T15:57:32.999Z</time></trkpt><trkpt lat="40.63629116479364" lon="16.62329586626563"><ele>281.75</ele><time>2026-05-01T15:57:33.999Z</time></trkpt><trkpt lat="40.636394363753254" lon="16.62337346863762"><ele>283.0</ele><time>2026-05-01T15:57:34.999Z</time></trkpt><trkpt lat="40.63655742442703" lon="16.62333063822866"><ele>283.0</ele><time>2026-05-01T15:57:35.999Z</time></trkpt><trkpt lat="40.63670988176291" lon="16.623252264765178"><ele>283.0</ele><time>2026-05-01T15:57:36.999Z</time></trkpt><trkpt lat="40.636931181939914" lon="16.623144385833815"><ele>283.0</ele><time>2026-05-01T15:57:37.999Z</time></trkpt><trkpt lat="40.63717813966852" lon="16.622976429872054"><ele>283.5</ele><time>2026-05-01T15:57:38.999Z</time></trkpt><trkpt lat="40.63741215762794" lon="16.622872513537565"><ele>284.0</ele><time>2026-05-01T15:57:39.999Z</time></trkpt><trkpt lat="40.637685433639334" lon="16.622802825232966"><ele>287.5</ele><time>2026-05-01T15:57:40.999Z</time></trkpt><trkpt lat="40.63798173070742" lon="16.622724533686906"><ele>291.0</ele><time>2026-05-01T15:57:41.999Z</time></trkpt><trkpt lat="40.63828575572673" lon="16.62263588943612"><ele>291.0</ele><time>2026-05-01T15:57:42.999Z</time></trkpt><trkpt lat="40.63854696492792" lon="16.622573679823297"><ele>291.0</ele><time>2026-05-01T15:57:43.999Z</time></trkpt><trkpt lat="40.638759429675225" lon="16.622524219313906"><ele>294.0</ele><time>2026-05-01T15:57:45Z</time></trkpt><trkpt lat="40.638928013949254" lon="16.622481517279443"><ele>297.0</ele><time>2026-05-01T15:57:46Z</time></trkpt><trkpt lat="40.63907104349808" lon="16.622386576905807"><ele>300.0</ele><time>2026-05-01T15:57:47Z</time></trkpt><trkpt lat="40.63920634399511" lon="16.622282870520998"><ele>300.0</ele><time>2026-05-01T15:57:48Z</time></trkpt><trkpt lat="40.63931354963071" lon="16.62218595040606"><ele>300.0</ele><time>2026-05-01T15:57:49Z</time></trkpt><trkpt lat="40.639409707637824" lon="16.622118816938855"><ele>300.0</ele><time>2026-05-01T15:57:50Z</time></trkpt><trkpt lat="40.63950258754809" lon="16.62205708031589"><ele>300.0</ele><time>2026-05-01T15:57:51Z</time></trkpt><trkpt lat="40.639604831160355" lon="16.622044498081085"><ele>300.0</ele><time>2026-05-01T15:57:52Z</time></trkpt><trkpt lat="40.63972583071204" lon="16.622015892312422"><ele>301.0</ele><time>2026-05-01T15:57:53Z</time></trkpt><trkpt lat="40.639818721326776" lon="16.62198470022233"><ele>302.0</ele><time>2026-05-01T15:57:54Z</time></trkpt><trkpt lat="40.63998041031272" lon="16.622032596711406"><ele>303.0</ele><time>2026-05-01T15:57:55Z</time></trkpt><trkpt lat="40.64014811429893" lon="16.622030269140524"><ele>304.0</ele><time>2026-05-01T15:57:56Z</time></trkpt><trkpt lat="40.64037286896145" lon="16.622098182743805"><ele>307.5</ele><time>2026-05-01T15:57:57Z</time></trkpt><trkpt lat="40.64062939966952" lon="16.622117891229195"><ele>311.0</ele><time>2026-05-01T15:57:58Z</time></trkpt><trkpt lat="40.64082221592888" lon="16.622124551617304"><ele>311.0</ele><time>2026-05-01T15:57:59Z</time></trkpt><trkpt lat="40.64097312933457" lon="16.622148635559068"><ele>311.0</ele><time>2026-05-01T15:58:00Z</time></trkpt><trkpt lat="40.64109152151653" lon="16.622153887184265"><ele>311.0</ele><time>2026-05-01T15:58:01Z</time></trkpt><trkpt lat="40.64117584325035" lon="16.622156360052333"><ele>311.0</ele><time>2026-05-01T15:58:02Z</time></trkpt><trkpt lat="40.64124893267839" lon="16.622141102976325"><ele>311.0</ele><time>2026-05-01T15:58:03Z</time></trkpt><trkpt lat="40.64135147401203" lon="16.62207406938643"><ele>311.2</ele><time>2026-05-01T15:58:05Z</time></trkpt><trkpt lat="40.64141553829768" lon="16.62208033745107"><ele>311.40000000000003</ele><time>2026-05-01T15:58:09Z</time></trkpt><trkpt lat="40.64148784831629" lon="16.622048352991477"><ele>311.6</ele><time>2026-05-01T15:58:13Z</time></trkpt><trkpt lat="40.64153997602253" lon="16.62199838520266"><ele>311.8</ele><time>2026-05-01T15:58:52.999Z</time></trkpt><trkpt lat="40.64168371464956" lon="16.621929909890962"><ele>312.0</ele><time>2026-05-01T15:58:54.999Z</time></trkpt><trkpt lat="40.6417899422335" lon="16.621877944536095"><ele>312.0</ele><time>2026-05-01T15:58:55.999Z</time></trkpt><trkpt lat="40.64193514899508" lon="16.621816940771787"><ele>312.0</ele><time>2026-05-01T15:58:56.999Z</time></trkpt><trkpt lat="40.64209046992787" lon="16.621762009377754"><ele>312.0</ele><time>2026-05-01T15:58:57.999Z</time></trkpt><trkpt lat="40.64226195426541" lon="16.621706281610933"><ele>314.0</ele><time>2026-05-01T15:58:58.999Z</time></trkpt><trkpt lat="40.64244184226126" lon="16.621631820610936"><ele>316.0</ele><time>2026-05-01T15:58:59.999Z</time></trkpt><trkpt lat="40.64261135211988" lon="16.621548542168785"><ele>318.0</ele><time>2026-05-01T15:59:00.999Z</time></trkpt><trkpt lat="40.64275592235787" lon="16.621498835323663"><ele>319.75</ele><time>2026-05-01T15:59:01.999Z</time></trkpt><trkpt lat="40.64290298035291" lon="16.62143985456173"><ele>321.5</ele><time>2026-05-01T15:59:02.999Z</time></trkpt><trkpt lat="40.64304622567636" lon="16.621434013132056"><ele>323.25</ele><time>2026-05-01T15:59:03.999Z</time></trkpt><trkpt lat="40.643163513569576" lon="16.62146662504342"><ele>325.0</ele><time>2026-05-01T15:59:04.999Z</time></trkpt><trkpt lat="40.64329479434382" lon="16.62149602155465"><ele>325.0</ele><time>2026-05-01T15:59:05.999Z</time></trkpt><trkpt lat="40.64342234830941" lon="16.621526682200646"><ele>325.0</ele><time>2026-05-01T15:59:06.999Z</time></trkpt><trkpt lat="40.64355839371846" lon="16.62150484949122"><ele>325.0</ele><time>2026-05-01T15:59:07.999Z</time></trkpt><trkpt lat="40.64370458276679" lon="16.62144946292593"><ele>325.0</ele><time>2026-05-01T15:59:08.999Z</time></trkpt><trkpt lat="40.64384444766251" lon="16.621366209945613"><ele>326.5</ele><time>2026-05-01T15:59:09.999Z</time></trkpt><trkpt lat="40.643983844762644" lon="16.621321869631277"><ele>328.0</ele><time>2026-05-01T15:59:10.999Z</time></trkpt><trkpt lat="40.64411183652788" lon="16.62125356021112"><ele>329.5</ele><time>2026-05-01T15:59:11.999Z</time></trkpt><trkpt lat="40.644247736123354" lon="16.62120509147769"><ele>331.0</ele><time>2026-05-01T15:59:12.999Z</time></trkpt><trkpt lat="40.64437755864954" lon="16.621148155878316"><ele>333.0</ele><time>2026-05-01T15:59:13.999Z</time></trkpt><trkpt lat="40.64451297825531" lon="16.62111717464248"><ele>335.0</ele><time>2026-05-01T15:59:14.999Z</time></trkpt><trkpt lat="40.64464777111189" lon="16.621061778458277"><ele>337.0</ele><time>2026-05-01T15:59:15.999Z</time></trkpt><trkpt lat="40.64479179829274" lon="16.621002129687387"><ele>339.0</ele><time>2026-05-01T15:59:16.999Z</time></trkpt><trkpt lat="40.644934769685456" lon="16.620939472951424"><ele>339.0</ele><time>2026-05-01T15:59:17.999Z</time></trkpt><trkpt lat="40.645069546094355" lon="16.620880063602"><ele>339.0</ele><time>2026-05-01T15:59:18.999Z</time></trkpt><trkpt lat="40.64519271099773" lon="16.620830412719844"><ele>339.0</ele><time>2026-05-01T15:59:19.999Z</time></trkpt><trkpt lat="40.64529206207047" lon="16.620799420436455"><ele>339.0</ele><time>2026-05-01T15:59:20.999Z</time></trkpt><trkpt lat="40.6453827978475" lon="16.62076162985409"><ele>340.6</ele><time>2026-05-01T15:59:21.999Z</time></trkpt><trkpt lat="40.64546921087219" lon="16.62073483320256"><ele>342.2</ele><time>2026-05-01T15:59:22.999Z</time></trkpt><trkpt lat="40.64552996399467" lon="16.620711440575036"><ele>343.8</ele><time>2026-05-01T15:59:23.999Z</time></trkpt><trkpt lat="40.64559158293028" lon="16.620731941585586"><ele>345.40000000000003</ele><time>2026-05-01T15:59:27.999Z</time></trkpt><trkpt lat="40.64556298942132" lon="16.62088856042775"><ele>347.0</ele><time>2026-05-01T15:59:36.999Z</time></trkpt><trkpt lat="40.64555854271606" lon="16.621037372954106"><ele>347.6666666666667</ele><time>2026-05-01T15:59:37.999Z</time></trkpt><trkpt lat="40.645557195441405" lon="16.62120331789605"><ele>348.3333333333333</ele><time>2026-05-01T15:59:38.999Z</time></trkpt><trkpt lat="40.645548381568375" lon="16.621417190079303"><ele>349.0</ele><time>2026-05-01T15:59:39.999Z</time></trkpt><trkpt lat="40.645538723765505" lon="16.621638454250842"><ele>349.0</ele><time>2026-05-01T15:59:40.999Z</time></trkpt><trkpt lat="40.64553116151946" lon="16.62181170816978"><ele>349.0</ele><time>2026-05-01T15:59:41.999Z</time></trkpt><trkpt lat="40.645523825790065" lon="16.621979772831814"><ele>349.0</ele><time>2026-05-01T15:59:42.999Z</time></trkpt><trkpt lat="40.64551551192072" lon="16.62218037547566"><ele>349.0</ele><time>2026-05-01T15:59:43.999Z</time></trkpt><trkpt lat="40.64550633314841" lon="16.62239893704776"><ele>349.25</ele><time>2026-05-01T15:59:44.999Z</time></trkpt><trkpt lat="40.64549798033792" lon="16.622590544164648"><ele>349.5</ele><time>2026-05-01T15:59:45.999Z</time></trkpt><trkpt lat="40.64549005165369" lon="16.622772422386443"><ele>349.75</ele><time>2026-05-01T15:59:46.999Z</time></trkpt><trkpt lat="40.64548127573369" lon="16.62294595671287"><ele>350.0</ele><time>2026-05-01T15:59:47.999Z</time></trkpt><trkpt lat="40.645472533503344" lon="16.623113671744115"><ele>350.5</ele><time>2026-05-01T15:59:48.999Z</time></trkpt><trkpt lat="40.645483214975656" lon="16.623213095586806"><ele>351.0</ele><time>2026-05-01T15:59:49.999Z</time></trkpt><trkpt lat="40.64546502470366" lon="16.623378815067017"><ele>351.5</ele><time>2026-05-01T15:59:52Z</time></trkpt><trkpt lat="40.64546765293354" lon="16.623462758214306"><ele>352.0</ele><time>2026-05-01T15:59:56Z</time></trkpt><trkpt lat="40.64567236309247" lon="16.6234638080956"><ele>352.0</ele><time>2026-05-01T16:00:04Z</time></trkpt><trkpt lat="40.64578908816742" lon="16.623395021414247"><ele>352.0</ele><time>2026-05-01T16:00:05Z</time></trkpt><trkpt lat="40.64587471356436" lon="16.623385973243938"><ele>352.0</ele><time>2026-05-01T16:00:06Z</time></trkpt><trkpt lat="40.64596189457919" lon="16.623347368830032"><ele>352.0</ele><time>2026-05-01T16:00:07Z</time></trkpt><trkpt lat="40.646076494258566" lon="16.62330802552097"><ele>352.0</ele><time>2026-05-01T16:00:08Z</time></trkpt><trkpt lat="40.646201673613554" lon="16.62325536557261"><ele>353.5</ele><time>2026-05-01T16:00:09Z</time></trkpt><trkpt lat="40.64633283406044" lon="16.623227681035775"><ele>355.0</ele><time>2026-05-01T16:00:10Z</time></trkpt><trkpt lat="40.64644429214616" lon="16.623188742206267"><ele>356.5</ele><time>2026-05-01T16:00:11Z</time></trkpt><trkpt lat="40.64654335924165" lon="16.623134324948563"><ele>358.0</ele><time>2026-05-01T16:00:12Z</time></trkpt><trkpt lat="40.64663418275054" lon="16.62310073307195"><ele>358.0</ele><time>2026-05-01T16:00:13Z</time></trkpt><trkpt lat="40.64672843932054" lon="16.62306780360307"><ele>358.0</ele><time>2026-05-01T16:00:14Z</time></trkpt><trkpt lat="40.646821832805955" lon="16.62298743845897"><ele>358.0</ele><time>2026-05-01T16:00:15Z</time></trkpt><trkpt lat="40.64688300835703" lon="16.622965379044054"><ele>358.0</ele><time>2026-05-01T16:00:16Z</time></trkpt><trkpt lat="40.64690879886932" lon="16.622761097751155"><ele>358.0</ele><time>2026-05-01T16:00:17Z</time></trkpt><trkpt lat="40.64697813574544" lon="16.62263122555625"><ele>359.75</ele><time>2026-05-01T16:00:18Z</time></trkpt><trkpt lat="40.64705185514164" lon="16.622457545856648"><ele>361.5</ele><time>2026-05-01T16:00:19Z</time></trkpt><trkpt lat="40.64711685328778" lon="16.622304066030612"><ele>363.25</ele><time>2026-05-01T16:00:20Z</time></trkpt><trkpt lat="40.64719058522731" lon="16.622131521764274"><ele>365.0</ele><time>2026-05-01T16:00:21Z</time></trkpt><trkpt lat="40.647269958525364" lon="16.621979866426067"><ele>365.0</ele><time>2026-05-01T16:00:22Z</time></trkpt><trkpt lat="40.647338497158636" lon="16.621830320542657"><ele>365.0</ele><time>2026-05-01T16:00:23Z</time></trkpt><trkpt lat="40.64741737877978" lon="16.62166090104967"><ele>365.0</ele><time>2026-05-01T16:00:24Z</time></trkpt><trkpt lat="40.647498462814355" lon="16.62148645309173"><ele>365.0</ele><time>2026-05-01T16:00:25Z</time></trkpt><trkpt lat="40.647568182571874" lon="16.621341842661394"><ele>365.0</ele><time>2026-05-01T16:00:26Z</time></trkpt><trkpt lat="40.6476391623953" lon="16.621180110050325"><ele>365.0</ele><time>2026-05-01T16:00:27Z</time></trkpt><trkpt lat="40.647716078302" lon="16.62100699815924"><ele>365.0</ele><time>2026-05-01T16:00:28Z</time></trkpt><trkpt lat="40.64779079197324" lon="16.62084704878301"><ele>365.0</ele><time>2026-05-01T16:00:29Z</time></trkpt><trkpt lat="40.64786727437946" lon="16.620702951977417"><ele>367.6</ele><time>2026-05-01T16:00:30Z</time></trkpt><trkpt lat="40.647941667710434" lon="16.620546454925645"><ele>370.2</ele><time>2026-05-01T16:00:31Z</time></trkpt><trkpt lat="40.647996423308186" lon="16.620434946072752"><ele>372.79999999999995</ele><time>2026-05-01T16:00:32Z</time></trkpt><trkpt lat="40.64804858286677" lon="16.62032714439696"><ele>375.4</ele><time>2026-05-01T16:00:33Z</time></trkpt><trkpt lat="40.648086259248316" lon="16.62022830013355"><ele>378.0</ele><time>2026-05-01T16:00:34Z</time></trkpt><trkpt lat="40.64813783692215" lon="16.620152787500366"><ele>378.0</ele><time>2026-05-01T16:00:35Z</time></trkpt><trkpt lat="40.64819747077194" lon="16.62006016273955"><ele>378.0</ele><time>2026-05-01T16:00:36Z</time></trkpt><trkpt lat="40.64823630559774" lon="16.619974129007602"><ele>378.0</ele><time>2026-05-01T16:00:37Z</time></trkpt><trkpt lat="40.6484191482042" lon="16.62000227011488"><ele>378.0</ele><time>2026-05-01T16:00:38Z</time></trkpt><trkpt lat="40.64853029654098" lon="16.619991721037213"><ele>378.0</ele><time>2026-05-01T16:00:39Z</time></trkpt><trkpt lat="40.64862478878353" lon="16.619998720720243"><ele>378.0</ele><time>2026-05-01T16:00:40Z</time></trkpt><trkpt lat="40.64872768617207" lon="16.6199738269231"><ele>378.0</ele><time>2026-05-01T16:00:41Z</time></trkpt><trkpt lat="40.64884501297874" lon="16.619974118572188"><ele>378.0</ele><time>2026-05-01T16:00:42Z</time></trkpt><trkpt lat="40.64898819798969" lon="16.6199516533328"><ele>379.3333333333333</ele><time>2026-05-01T16:00:43Z</time></trkpt><trkpt lat="40.649138577260786" lon="16.61992425596985"><ele>380.66666666666663</ele><time>2026-05-01T16:00:44Z</time></trkpt><trkpt lat="40.64929157269236" lon="16.619908449940056"><ele>382.0</ele><time>2026-05-01T16:00:45Z</time></trkpt><trkpt lat="40.649445021753806" lon="16.619910301915795"><ele>381.75</ele><time>2026-05-01T16:00:46Z</time></trkpt><trkpt lat="40.64956997403243" lon="16.619930412824132"><ele>381.5</ele><time>2026-05-01T16:00:47Z</time></trkpt><trkpt lat="40.6496966615194" lon="16.619925035483924"><ele>381.25</ele><time>2026-05-01T16:00:48Z</time></trkpt><trkpt lat="40.64981663972466" lon="16.61994286016423"><ele>381.0</ele><time>2026-05-01T16:00:49Z</time></trkpt><trkpt lat="40.649912141893765" lon="16.61997109517287"><ele>381.0</ele><time>2026-05-01T16:00:50Z</time></trkpt><trkpt lat="40.65001324659017" lon="16.619989802668872"><ele>381.0</ele><time>2026-05-01T16:00:51Z</time></trkpt><trkpt lat="40.650096142561424" lon="16.620011940951898"><ele>381.0</ele><time>2026-05-01T16:00:52Z</time></trkpt><trkpt lat="40.65019077006083" lon="16.62006664721409"><ele>381.0</ele><time>2026-05-01T16:00:54Z</time></trkpt><trkpt lat="40.65026284086108" lon="16.6200857051093"><ele>381.0</ele><time>2026-05-01T16:00:55Z</time></trkpt><trkpt lat="40.650344341828514" lon="16.62009234957188"><ele>381.0</ele><time>2026-05-01T16:00:56Z</time></trkpt><trkpt lat="40.65043871713742" lon="16.620049268684397"><ele>380.5</ele><time>2026-05-01T16:00:56.999Z</time></trkpt><trkpt lat="40.65053396958705" lon="16.619960021318327"><ele>380.0</ele><time>2026-05-01T16:00:57.999Z</time></trkpt><trkpt lat="40.65064400158153" lon="16.61982976824392"><ele>379.5</ele><time>2026-05-01T16:00:58.999Z</time></trkpt><trkpt lat="40.65073387754873" lon="16.619703713124544"><ele>379.0</ele><time>2026-05-01T16:00:59.999Z</time></trkpt><trkpt lat="40.65082850980698" lon="16.61959673993582"><ele>379.0</ele><time>2026-05-01T16:01:00.999Z</time></trkpt><trkpt lat="40.65096438573639" lon="16.619502040717155"><ele>379.0</ele><time>2026-05-01T16:01:01.999Z</time></trkpt><trkpt lat="40.65109581894234" lon="16.619402491899816"><ele>379.0</ele><time>2026-05-01T16:01:02.999Z</time></trkpt><trkpt lat="40.6512046401785" lon="16.61932036752053"><ele>379.0</ele><time>2026-05-01T16:01:03.999Z</time></trkpt><trkpt lat="40.65132129628667" lon="16.619283366564215"><ele>379.4</ele><time>2026-05-01T16:01:04.999Z</time></trkpt><trkpt lat="40.65143099970891" lon="16.619203448836465"><ele>379.79999999999995</ele><time>2026-05-01T16:01:05.999Z</time></trkpt><trkpt lat="40.6514977003379" lon="16.619155370874775"><ele>380.20000000000005</ele><time>2026-05-01T16:01:06.999Z</time></trkpt><trkpt lat="40.651573111319735" lon="16.61910219094908"><ele>380.6</ele><time>2026-05-01T16:01:07.999Z</time></trkpt><trkpt lat="40.651659065638555" lon="16.619041575250694"><ele>381.0</ele><time>2026-05-01T16:01:08.999Z</time></trkpt><trkpt lat="40.651776896474615" lon="16.61896435251042"><ele>381.0</ele><time>2026-05-01T16:01:09.999Z</time></trkpt><trkpt lat="40.65190203730008" lon="16.618888475908246"><ele>381.0</ele><time>2026-05-01T16:01:10.999Z</time></trkpt><trkpt lat="40.65202384026611" lon="16.618816305820786"><ele>381.0</ele><time>2026-05-01T16:01:11.999Z</time></trkpt><trkpt lat="40.652180036858695" lon="16.61872738356578"><ele>381.0</ele><time>2026-05-01T16:01:12.999Z</time></trkpt><trkpt lat="40.65235814723595" lon="16.618626045559118"><ele>383.33333333333337</ele><time>2026-05-01T16:01:13.999Z</time></trkpt><trkpt lat="40.65253928356719" lon="16.618523271455327"><ele>385.6666666666667</ele><time>2026-05-01T16:01:14.999Z</time></trkpt><trkpt lat="40.65270201284666" lon="16.618431592858"><ele>388.0</ele><time>2026-05-01T16:01:15.999Z</time></trkpt><trkpt lat="40.65283006825411" lon="16.618360219758372"><ele>389.0</ele><time>2026-05-01T16:01:16.999Z</time></trkpt><trkpt lat="40.652965660172825" lon="16.618261919570514"><ele>390.0</ele><time>2026-05-01T16:01:17.999Z</time></trkpt><trkpt lat="40.6530905516469" lon="16.61821954860618"><ele>391.0</ele><time>2026-05-01T16:01:18.999Z</time></trkpt><trkpt lat="40.653206169876135" lon="16.618162808982316"><ele>392.0</ele><time>2026-05-01T16:01:19.999Z</time></trkpt><trkpt lat="40.65331906586561" lon="16.618111862858786"><ele>392.0</ele><time>2026-05-01T16:01:20.999Z</time></trkpt><trkpt lat="40.6534504798649" lon="16.618057539999345"><ele>392.0</ele><time>2026-05-01T16:01:21.999Z</time></trkpt><trkpt lat="40.653585177493646" lon="16.61799746757473"><ele>392.0</ele><time>2026-05-01T16:01:22.999Z</time></trkpt><trkpt lat="40.6537152669046" lon="16.617970211072425"><ele>392.0</ele><time>2026-05-01T16:01:23.999Z</time></trkpt><trkpt lat="40.65382940516424" lon="16.617928796242385"><ele>392.0</ele><time>2026-05-01T16:01:24.999Z</time></trkpt><trkpt lat="40.65393233338832" lon="16.61788618603929"><ele>392.0</ele><time>2026-05-01T16:01:25.999Z</time></trkpt><trkpt lat="40.65403317401479" lon="16.617841105808697"><ele>392.0</ele><time>2026-05-01T16:01:26.999Z</time></trkpt><trkpt lat="40.65414775011981" lon="16.61780240587905"><ele>392.0</ele><time>2026-05-01T16:01:27.999Z</time></trkpt><trkpt lat="40.65424715120003" lon="16.617742106807547"><ele>392.0</ele><time>2026-05-01T16:01:28.999Z</time></trkpt><trkpt lat="40.6543453899476" lon="16.617660790936966"><ele>392.75</ele><time>2026-05-01T16:01:29.999Z</time></trkpt><trkpt lat="40.65444217821498" lon="16.61757528445967"><ele>393.5</ele><time>2026-05-01T16:01:30.999Z</time></trkpt><trkpt lat="40.65457685323197" lon="16.617481134783347"><ele>394.25</ele><time>2026-05-01T16:01:31.999Z</time></trkpt><trkpt lat="40.654695497338686" lon="16.61739631120583"><ele>395.0</ele><time>2026-05-01T16:01:32.999Z</time></trkpt><trkpt lat="40.65480497958079" lon="16.617309198773437"><ele>395.5</ele><time>2026-05-01T16:01:33.999Z</time></trkpt><trkpt lat="40.654897335644094" lon="16.61724452102415"><ele>396.0</ele><time>2026-05-01T16:01:34.999Z</time></trkpt><trkpt lat="40.65499236095493" lon="16.617170748974427"><ele>396.5</ele><time>2026-05-01T16:01:35.999Z</time></trkpt><trkpt lat="40.6550956687743" lon="16.617091456313815"><ele>397.0</ele><time>2026-05-01T16:01:36.999Z</time></trkpt><trkpt lat="40.65520932146928" lon="16.617009195944323"><ele>397.0</ele><time>2026-05-01T16:01:37.999Z</time></trkpt><trkpt lat="40.65533281647859" lon="16.61692671438334"><ele>397.0</ele><time>2026-05-01T16:01:38.999Z</time></trkpt><trkpt lat="40.655452000867776" lon="16.616850833993503"><ele>397.0</ele><time>2026-05-01T16:01:39.999Z</time></trkpt><trkpt lat="40.655556637589044" lon="16.616776347553134"><ele>397.0</ele><time>2026-05-01T16:01:40.999Z</time></trkpt><trkpt lat="40.65565300127968" lon="16.616688167975553"><ele>397.00000000000006</ele><time>2026-05-01T16:01:41.999Z</time></trkpt><trkpt lat="40.655736060767524" lon="16.616631145081374"><ele>397.0</ele><time>2026-05-01T16:01:42.999Z</time></trkpt><trkpt lat="40.65579938322072" lon="16.6166095162725"><ele>397.0</ele><time>2026-05-01T16:01:43.999Z</time></trkpt><trkpt lat="40.6558864428351" lon="16.616544774941495"><ele>397.0</ele><time>2026-05-01T16:01:45.999Z</time></trkpt><trkpt lat="40.65592817171456" lon="16.616480430515605"><ele>397.00000000000006</ele><time>2026-05-01T16:01:46.999Z</time></trkpt><trkpt lat="40.65598737779556" lon="16.61643383533151"><ele>397.0</ele><time>2026-05-01T16:01:47.999Z</time></trkpt><trkpt lat="40.656061532970824" lon="16.61638110026253"><ele>396.6666666666667</ele><time>2026-05-01T16:01:48.999Z</time></trkpt><trkpt lat="40.65613761096422" lon="16.616337479432044"><ele>396.33333333333337</ele><time>2026-05-01T16:01:49.999Z</time></trkpt><trkpt lat="40.65622180305997" lon="16.616264046099136"><ele>396.0</ele><time>2026-05-01T16:01:50.999Z</time></trkpt><trkpt lat="40.65630548528328" lon="16.616213740888284"><ele>395.66666666666663</ele><time>2026-05-01T16:01:51.999Z</time></trkpt><trkpt lat="40.65637625005525" lon="16.616173866751062"><ele>395.3333333333333</ele><time>2026-05-01T16:01:52.999Z</time></trkpt><trkpt lat="40.656442636923394" lon="16.616138952789413"><ele>395.0</ele><time>2026-05-01T16:01:53.999Z</time></trkpt><trkpt lat="40.656534850336385" lon="16.61609470026537"><ele>398.25</ele><time>2026-05-01T16:01:54.999Z</time></trkpt><trkpt lat="40.656636669305435" lon="16.616036466446243"><ele>401.5</ele><time>2026-05-01T16:01:55.999Z</time></trkpt><trkpt lat="40.65674285578737" lon="16.61596001823539"><ele>404.75</ele><time>2026-05-01T16:01:57Z</time></trkpt><trkpt lat="40.656881842184234" lon="16.615886226514377"><ele>408.0</ele><time>2026-05-01T16:01:58Z</time></trkpt><trkpt lat="40.65699012505431" lon="16.615775247655066"><ele>408.0</ele><time>2026-05-01T16:01:59Z</time></trkpt><trkpt lat="40.6570980363014" lon="16.615737369871155"><ele>408.0</ele><time>2026-05-01T16:02:00Z</time></trkpt><trkpt lat="40.65721224969551" lon="16.61569921629183"><ele>408.0</ele><time>2026-05-01T16:02:01Z</time></trkpt><trkpt lat="40.657339620087235" lon="16.61566668348893"><ele>408.0</ele><time>2026-05-01T16:02:02Z</time></trkpt><trkpt lat="40.65746956767211" lon="16.615668611664024"><ele>408.0</ele><time>2026-05-01T16:02:03Z</time></trkpt><trkpt lat="40.65758567716637" lon="16.615675310922903"><ele>408.0</ele><time>2026-05-01T16:02:04Z</time></trkpt><trkpt lat="40.65768757537804" lon="16.615669966993476"><ele>408.0</ele><time>2026-05-01T16:02:05Z</time></trkpt><trkpt lat="40.65780188330905" lon="16.61564777871391"><ele>408.0</ele><time>2026-05-01T16:02:06Z</time></trkpt><trkpt lat="40.657924562743254" lon="16.61565269678726"><ele>408.4</ele><time>2026-05-01T16:02:07Z</time></trkpt><trkpt lat="40.65803885836852" lon="16.615603129498176"><ele>408.79999999999995</ele><time>2026-05-01T16:02:08Z</time></trkpt><trkpt lat="40.65815202445695" lon="16.61553479865464"><ele>409.2</ele><time>2026-05-01T16:02:09Z</time></trkpt><trkpt lat="40.658242221607544" lon="16.615458445018408"><ele>409.6</ele><time>2026-05-01T16:02:10Z</time></trkpt><trkpt lat="40.658327168980094" lon="16.615405985848817"><ele>410.0</ele><time>2026-05-01T16:02:11Z</time></trkpt><trkpt lat="40.658407949314714" lon="16.615355938601112"><ele>410.8</ele><time>2026-05-01T16:02:12Z</time></trkpt><trkpt lat="40.658496937482575" lon="16.61531149217274"><ele>411.6</ele><time>2026-05-01T16:02:13Z</time></trkpt><trkpt lat="40.658587539836994" lon="16.61525447052936"><ele>412.4</ele><time>2026-05-01T16:02:14Z</time></trkpt><trkpt lat="40.65866390762136" lon="16.615193421009934"><ele>413.2</ele><time>2026-05-01T16:02:15Z</time></trkpt><trkpt lat="40.65872809668215" lon="16.615129800101332"><ele>414.0</ele><time>2026-05-01T16:02:16Z</time></trkpt><trkpt lat="40.65880712177324" lon="16.61506537839948"><ele>414.0</ele><time>2026-05-01T16:02:17Z</time></trkpt><trkpt lat="40.658861068525944" lon="16.6149988073869"><ele>414.0</ele><time>2026-05-01T16:02:18Z</time></trkpt><trkpt lat="40.65892361443483" lon="16.614930623456424"><ele>414.0</ele><time>2026-05-01T16:02:19Z</time></trkpt><trkpt lat="40.65899771717229" lon="16.614842453321202"><ele>414.0</ele><time>2026-05-01T16:02:20Z</time></trkpt><trkpt lat="40.65905485949666" lon="16.614761070607237"><ele>414.0</ele><time>2026-05-01T16:02:21Z</time></trkpt><trkpt lat="40.659094477010505" lon="16.614690792257328"><ele>414.0</ele><time>2026-05-01T16:02:22Z</time></trkpt><trkpt lat="40.65914010547336" lon="16.614626553550224"><ele>414.0</ele><time>2026-05-01T16:02:23Z</time></trkpt><trkpt lat="40.65918375039236" lon="16.614550620876816"><ele>414.0</ele><time>2026-05-01T16:02:24Z</time></trkpt><trkpt lat="40.65929250500653" lon="16.614418294297597"><ele>414.0</ele><time>2026-05-01T16:02:26Z</time></trkpt><trkpt lat="40.65936785433987" lon="16.614313552171854"><ele>414.0</ele><time>2026-05-01T16:02:27Z</time></trkpt><trkpt lat="40.65943903529465" lon="16.614203188329125"><ele>414.0</ele><time>2026-05-01T16:02:28Z</time></trkpt><trkpt lat="40.659502263141945" lon="16.614123513436684"><ele>412.0</ele><time>2026-05-01T16:02:29Z</time></trkpt><trkpt lat="40.65955086930845" lon="16.61404233901011"><ele>410.0</ele><time>2026-05-01T16:02:30Z</time></trkpt><trkpt lat="40.659595343979575" lon="16.61395966036074"><ele>408.0</ele><time>2026-05-01T16:02:31Z</time></trkpt><trkpt lat="40.65964140273589" lon="16.613859562391347"><ele>406.0</ele><time>2026-05-01T16:02:32Z</time></trkpt><trkpt lat="40.65969017577549" lon="16.613755131572027"><ele>404.0</ele><time>2026-05-01T16:02:33Z</time></trkpt><trkpt lat="40.65974079285416" lon="16.61366124954121"><ele>402.0</ele><time>2026-05-01T16:02:34Z</time></trkpt><trkpt lat="40.65977629267184" lon="16.613581458336213"><ele>402.0</ele><time>2026-05-01T16:02:35Z</time></trkpt><trkpt lat="40.65982803247718" lon="16.613477744054343"><ele>402.0</ele><time>2026-05-01T16:02:37Z</time></trkpt><trkpt lat="40.659881477106644" lon="16.613394787699185"><ele>402.0</ele><time>2026-05-01T16:02:40Z</time></trkpt><trkpt lat="40.65994547104567" lon="16.61324652413179"><ele>402.0</ele><time>2026-05-01T16:02:42Z</time></trkpt><trkpt lat="40.65998972548953" lon="16.61317325782195"><ele>402.0</ele><time>2026-05-01T16:02:43Z</time></trkpt><trkpt lat="40.660046538979906" lon="16.61306749401156"><ele>402.0</ele><time>2026-05-01T16:02:44Z</time></trkpt><trkpt lat="40.660114074958265" lon="16.61292794496633"><ele>402.0</ele><time>2026-05-01T16:02:45Z</time></trkpt><trkpt lat="40.660179509800265" lon="16.61280295255886"><ele>402.0</ele><time>2026-05-01T16:02:46Z</time></trkpt><trkpt lat="40.66022692737286" lon="16.612699696541803"><ele>402.0</ele><time>2026-05-01T16:02:47Z</time></trkpt><trkpt lat="40.66026417464901" lon="16.612605549924965"><ele>402.0</ele><time>2026-05-01T16:02:48Z</time></trkpt><trkpt lat="40.66033567874183" lon="16.612453498170733"><ele>400.6</ele><time>2026-05-01T16:02:50Z</time></trkpt><trkpt lat="40.66038806810838" lon="16.612333194219552"><ele>399.20000000000005</ele><time>2026-05-01T16:02:51Z</time></trkpt><trkpt lat="40.66042349259812" lon="16.612229057780624"><ele>397.8</ele><time>2026-05-01T16:02:52Z</time></trkpt><trkpt lat="40.660470177289966" lon="16.612120680560515"><ele>396.4</ele><time>2026-05-01T16:02:53Z</time></trkpt><trkpt lat="40.660529386254794" lon="16.61199742080802"><ele>395.0</ele><time>2026-05-01T16:02:54Z</time></trkpt><trkpt lat="40.66057548449485" lon="16.611883951689766"><ele>394.99999999999994</ele><time>2026-05-01T16:02:55Z</time></trkpt><trkpt lat="40.660624737682404" lon="16.61178888467351"><ele>395.0</ele><time>2026-05-01T16:02:56Z</time></trkpt><trkpt lat="40.660666670257356" lon="16.611696597366702"><ele>395.0</ele><time>2026-05-01T16:02:57Z</time></trkpt><trkpt lat="40.660710819089005" lon="16.611600874917062"><ele>395.0</ele><time>2026-05-01T16:02:58Z</time></trkpt><trkpt lat="40.66075945649554" lon="16.611495418686335"><ele>394.99999999999994</ele><time>2026-05-01T16:02:59Z</time></trkpt><trkpt lat="40.660810654103734" lon="16.61138872472969"><ele>395.0</ele><time>2026-05-01T16:03:00Z</time></trkpt><trkpt lat="40.66085243479656" lon="16.611300822422265"><ele>394.99999999999994</ele><time>2026-05-01T16:03:01Z</time></trkpt><trkpt lat="40.66088590767108" lon="16.611210726232258"><ele>395.0</ele><time>2026-05-01T16:03:02Z</time></trkpt><trkpt lat="40.66096376245904" lon="16.611092267757527"><ele>395.0</ele><time>2026-05-01T16:03:04Z</time></trkpt><trkpt lat="40.66099892251963" lon="16.611022128732696"><ele>395.0</ele><time>2026-05-01T16:03:05Z</time></trkpt><trkpt lat="40.66103463463612" lon="16.610949382421808"><ele>394.99999999999994</ele><time>2026-05-01T16:03:06Z</time></trkpt><trkpt lat="40.66108120448683" lon="16.610883361423163"><ele>395.0</ele><time>2026-05-01T16:03:06.999Z</time></trkpt><trkpt lat="40.66112797858152" lon="16.610825577003677"><ele>394.0</ele><time>2026-05-01T16:03:07.999Z</time></trkpt><trkpt lat="40.66117042805613" lon="16.61068980544473"><ele>393.0</ele><time>2026-05-01T16:03:09.999Z</time></trkpt><trkpt lat="40.661254881381865" lon="16.610516284665632"><ele>392.0</ele><time>2026-05-01T16:03:11.999Z</time></trkpt><trkpt lat="40.661303191054124" lon="16.610447679891163"><ele>391.0</ele><time>2026-05-01T16:03:12.999Z</time></trkpt><trkpt lat="40.66138755036609" lon="16.610354873841082"><ele>390.0</ele><time>2026-05-01T16:03:14.999Z</time></trkpt><trkpt lat="40.66147240094455" lon="16.610260207562394"><ele>390.0</ele><time>2026-05-01T16:03:16.999Z</time></trkpt><trkpt lat="40.661533832361" lon="16.610187661950807"><ele>390.0</ele><time>2026-05-01T16:03:18.999Z</time></trkpt><trkpt lat="40.66159889434182" lon="16.610107875791194"><ele>390.0</ele><time>2026-05-01T16:03:20.999Z</time></trkpt><trkpt lat="40.661675471360105" lon="16.61002041518858"><ele>390.0</ele><time>2026-05-01T16:03:22.999Z</time></trkpt><trkpt lat="40.66173017954933" lon="16.609967663671792"><ele>390.0</ele><time>2026-05-01T16:03:23.999Z</time></trkpt><trkpt lat="40.66180871618496" lon="16.609873299713662"><ele>390.0</ele><time>2026-05-01T16:03:25.999Z</time></trkpt><trkpt lat="40.66185641945218" lon="16.609808373891063"><ele>390.0</ele><time>2026-05-01T16:03:26.999Z</time></trkpt><trkpt lat="40.66192043421722" lon="16.609739012626445"><ele>390.0</ele><time>2026-05-01T16:03:27.999Z</time></trkpt><trkpt lat="40.661980387117985" lon="16.609674426870328"><ele>390.0</ele><time>2026-05-01T16:03:28.999Z</time></trkpt><trkpt lat="40.662032410790005" lon="16.609618394025876"><ele>390.0</ele><time>2026-05-01T16:03:29.999Z</time></trkpt><trkpt lat="40.66212237607667" lon="16.609503721050167"><ele>390.0</ele><time>2026-05-01T16:03:31.999Z</time></trkpt><trkpt lat="40.66222844123741" lon="16.60938531901412"><ele>390.1666666666667</ele><time>2026-05-01T16:03:33.999Z</time></trkpt><trkpt lat="40.66229782629231" lon="16.60932432397868"><ele>390.33333333333337</ele><time>2026-05-01T16:03:34.999Z</time></trkpt><trkpt lat="40.66235221671214" lon="16.609259642704888"><ele>390.5</ele><time>2026-05-01T16:03:35.999Z</time></trkpt><trkpt lat="40.66240523128087" lon="16.609188500361014"><ele>390.6666666666667</ele><time>2026-05-01T16:03:36.999Z</time></trkpt><trkpt lat="40.6624808348611" lon="16.609094053904958"><ele>390.83333333333337</ele><time>2026-05-01T16:03:38.999Z</time></trkpt><trkpt lat="40.66255913722023" lon="16.608991935444244"><ele>391.0</ele><time>2026-05-01T16:03:40.999Z</time></trkpt><trkpt lat="40.662653570958234" lon="16.608911216124483"><ele>391.00000000000006</ele><time>2026-05-01T16:03:42.999Z</time></trkpt><trkpt lat="40.662710256395265" lon="16.608862696886266"><ele>391.0</ele><time>2026-05-01T16:03:43.999Z</time></trkpt><trkpt lat="40.6627738684694" lon="16.608808794104565"><ele>391.0</ele><time>2026-05-01T16:03:44.999Z</time></trkpt><trkpt lat="40.66285114044431" lon="16.60874807026278"><ele>391.0</ele><time>2026-05-01T16:03:45.999Z</time></trkpt><trkpt lat="40.662916930471056" lon="16.60868028417222"><ele>391.00000000000006</ele><time>2026-05-01T16:03:46.999Z</time></trkpt><trkpt lat="40.662986735584" lon="16.60865014637147"><ele>391.0</ele><time>2026-05-01T16:03:47.999Z</time></trkpt><trkpt lat="40.66306232639026" lon="16.608593669331725"><ele>391.4285714285714</ele><time>2026-05-01T16:03:48.999Z</time></trkpt><trkpt lat="40.66312235604191" lon="16.608536351957877"><ele>391.85714285714283</ele><time>2026-05-01T16:03:49.999Z</time></trkpt><trkpt lat="40.66318769711981" lon="16.608499763620642"><ele>392.2857142857143</ele><time>2026-05-01T16:03:50.999Z</time></trkpt><trkpt lat="40.66325289628694" lon="16.608464835185696"><ele>392.71428571428567</ele><time>2026-05-01T16:03:51.999Z</time></trkpt><trkpt lat="40.66331874010724" lon="16.608442066795057"><ele>393.14285714285717</ele><time>2026-05-01T16:03:52.999Z</time></trkpt><trkpt lat="40.663380039712486" lon="16.608386175299223"><ele>393.57142857142856</ele><time>2026-05-01T16:03:53.999Z</time></trkpt><trkpt lat="40.66342837572864" lon="16.608314351387122"><ele>394.0</ele><time>2026-05-01T16:03:54.999Z</time></trkpt><trkpt lat="40.66348189683617" lon="16.608263878242578"><ele>394.0</ele><time>2026-05-01T16:03:55.999Z</time></trkpt><trkpt lat="40.66359621524361" lon="16.608191358141447"><ele>394.0</ele><time>2026-05-01T16:03:57.999Z</time></trkpt><trkpt lat="40.66368851718118" lon="16.608122491300087"><ele>394.0</ele><time>2026-05-01T16:03:59.999Z</time></trkpt><trkpt lat="40.6637638635787" lon="16.608069152322603"><ele>394.0</ele><time>2026-05-01T16:04:00.999Z</time></trkpt><trkpt lat="40.66383964594849" lon="16.60801550650494"><ele>394.0</ele><time>2026-05-01T16:04:01.999Z</time></trkpt><trkpt lat="40.66393697305484" lon="16.60795469015807"><ele>394.33333333333337</ele><time>2026-05-01T16:04:04Z</time></trkpt><trkpt lat="40.66399989435278" lon="16.607929919235197"><ele>394.6666666666667</ele><time>2026-05-01T16:04:07Z</time></trkpt><trkpt lat="40.66405947636366" lon="16.607900154677424"><ele>395.0</ele><time>2026-05-01T16:04:12Z</time></trkpt><trkpt lat="40.664128803036625" lon="16.6078655226684"><ele>395.33333333333337</ele><time>2026-05-01T16:04:14Z</time></trkpt><trkpt lat="40.66422539423386" lon="16.60781706196764"><ele>395.6666666666667</ele><time>2026-05-01T16:04:16Z</time></trkpt><trkpt lat="40.66428425659799" lon="16.607787565613677"><ele>396.0</ele><time>2026-05-01T16:04:17Z</time></trkpt><trkpt lat="40.664390785518364" lon="16.6077341831578"><ele>396.6</ele><time>2026-05-01T16:04:19Z</time></trkpt><trkpt lat="40.664485990132285" lon="16.607673370115496"><ele>397.20000000000005</ele><time>2026-05-01T16:04:21Z</time></trkpt><trkpt lat="40.66458350714309" lon="16.60762342351383"><ele>397.79999999999995</ele><time>2026-05-01T16:04:23Z</time></trkpt><trkpt lat="40.66467857180637" lon="16.607592436552686"><ele>398.4</ele><time>2026-05-01T16:04:25Z</time></trkpt><trkpt lat="40.66477193023054" lon="16.607553410847252"><ele>399.0</ele><time>2026-05-01T16:04:27Z</time></trkpt><trkpt lat="40.66484654316247" lon="16.607497619647777"><ele>399.0</ele><time>2026-05-01T16:04:29Z</time></trkpt><trkpt lat="40.66490429097578" lon="16.60745564862222"><ele>399.0</ele><time>2026-05-01T16:04:30Z</time></trkpt><trkpt lat="40.66498661976013" lon="16.607325170949444"><ele>399.0</ele><time>2026-05-01T16:04:32Z</time></trkpt><trkpt lat="40.66501954957654" lon="16.60724262679585"><ele>399.0</ele><time>2026-05-01T16:04:33Z</time></trkpt><trkpt lat="40.6650601689115" lon="16.607168854041955"><ele>399.0</ele><time>2026-05-01T16:04:34Z</time></trkpt><trkpt lat="40.665081038495295" lon="16.607062530717847"><ele>399.0</ele><time>2026-05-01T16:04:35Z</time></trkpt><trkpt lat="40.665108228171825" lon="16.60698627514233"><ele>399.3333333333333</ele><time>2026-05-01T16:04:36Z</time></trkpt><trkpt lat="40.66513734580851" lon="16.606901414973112"><ele>399.66666666666663</ele><time>2026-05-01T16:04:37Z</time></trkpt><trkpt lat="40.665167317644666" lon="16.60681438207202"><ele>400.0</ele><time>2026-05-01T16:04:38Z</time></trkpt><trkpt lat="40.665192908349574" lon="16.606727297304257"><ele>400.3333333333333</ele><time>2026-05-01T16:04:39Z</time></trkpt><trkpt lat="40.66522311571955" lon="16.606640147550728"><ele>400.66666666666663</ele><time>2026-05-01T16:04:40Z</time></trkpt><trkpt lat="40.665267235003604" lon="16.60651089156167"><ele>401.0</ele><time>2026-05-01T16:04:42Z</time></trkpt><trkpt lat="40.66532740288415" lon="16.60635968349299"><ele>400.66666666666663</ele><time>2026-05-01T16:04:44Z</time></trkpt><trkpt lat="40.66536867352295" lon="16.60625837633081"><ele>400.3333333333333</ele><time>2026-05-01T16:04:46Z</time></trkpt><trkpt lat="40.66540194186872" lon="16.60616484197963"><ele>400.0</ele><time>2026-05-01T16:04:48Z</time></trkpt><trkpt lat="40.665427639382756" lon="16.606062718901335"><ele>399.66666666666663</ele><time>2026-05-01T16:04:50Z</time></trkpt><trkpt lat="40.66545860817543" lon="16.605979582448086"><ele>399.3333333333333</ele><time>2026-05-01T16:04:52Z</time></trkpt><trkpt lat="40.66549759036501" lon="16.605896760067605"><ele>399.0</ele><time>2026-05-01T16:04:54Z</time></trkpt><trkpt lat="40.665530347751854" lon="16.6057969324035"><ele>399.0</ele><time>2026-05-01T16:04:57Z</time></trkpt><trkpt lat="40.66559911622444" lon="16.60571442677847"><ele>399.0</ele><time>2026-05-01T16:05:00Z</time></trkpt><trkpt lat="40.66564003355964" lon="16.605646220380983"><ele>399.0</ele><time>2026-05-01T16:05:02Z</time></trkpt><trkpt lat="40.665683480993245" lon="16.60558403381799"><ele>399.0</ele><time>2026-05-01T16:05:12.999Z</time></trkpt><trkpt lat="40.66572647896645" lon="16.605511587733297"><ele>399.0</ele><time>2026-05-01T16:05:16.999Z</time></trkpt><trkpt lat="40.66576856189051" lon="16.605440683392487"><ele>399.0</ele><time>2026-05-01T16:05:26.999Z</time></trkpt><trkpt lat="40.665814859770876" lon="16.60536289085608"><ele>399.0</ele><time>2026-05-01T16:05:41.999Z</time></trkpt><trkpt lat="40.66585985818944" lon="16.605287721368533"><ele>399.0</ele><time>2026-05-01T16:05:45.999Z</time></trkpt><trkpt lat="40.66591908759135" lon="16.605187273468168"><ele>399.0</ele><time>2026-05-01T16:05:48.999Z</time></trkpt><trkpt lat="40.66594854079779" lon="16.605109735414253"><ele>399.0</ele><time>2026-05-01T16:05:50.999Z</time></trkpt><trkpt lat="40.666001965580925" lon="16.605018444294878"><ele>399.0</ele><time>2026-05-01T16:05:53.999Z</time></trkpt><trkpt lat="40.6660485381291" lon="16.604961626232022"><ele>399.0</ele><time>2026-05-01T16:05:55.999Z</time></trkpt><trkpt lat="40.66609586712744" lon="16.604886891607965"><ele>399.0</ele><time>2026-05-01T16:06:03.999Z</time></trkpt><trkpt lat="40.666157497674064" lon="16.604806196666534"><ele>398.6666666666667</ele><time>2026-05-01T16:06:06.999Z</time></trkpt><trkpt lat="40.6661871833915" lon="16.604723656808797"><ele>398.33333333333337</ele><time>2026-05-01T16:06:12Z</time></trkpt><trkpt lat="40.66626515877601" lon="16.604697112463146"><ele>398.0</ele><time>2026-05-01T16:07:45.999Z</time></trkpt><trkpt lat="40.66624857489139" lon="16.604599428138805"><ele>397.6666666666667</ele><time>2026-05-01T16:08:03.999Z</time></trkpt><trkpt lat="40.66630887366801" lon="16.604549830017973"><ele>397.33333333333337</ele><time>2026-05-01T16:08:08.999Z</time></trkpt><trkpt lat="40.66636861602522" lon="16.604497558567804"><ele>397.0</ele><time>2026-05-01T16:08:17Z</time></trkpt><trkpt lat="40.66637582638342" lon="16.60432808817318"><ele>397.0</ele><time>2026-05-01T16:08:20Z</time></trkpt><trkpt lat="40.6664316077325" lon="16.604287716454138"><ele>397.0</ele><time>2026-05-01T16:08:23Z</time></trkpt><trkpt lat="40.666452182080924" lon="16.6041968798643"><ele>397.0</ele><time>2026-05-01T16:08:28Z</time></trkpt><trkpt lat="40.666466005513" lon="16.604107265403936"><ele>397.0</ele><time>2026-05-01T16:08:33Z</time></trkpt><trkpt lat="40.66646789093836" lon="16.604002033229758"><ele>397.0</ele><time>2026-05-01T16:08:37Z</time></trkpt><trkpt lat="40.66649453001347" lon="16.603895444363364"><ele>397.0</ele><time>2026-05-01T16:08:44Z</time></trkpt><trkpt lat="40.66649345107632" lon="16.603796489532026"><ele>397.0</ele><time>2026-05-01T16:08:50Z</time></trkpt><trkpt lat="40.66643883482292" lon="16.603722321887957"><ele>397.0</ele><time>2026-05-01T16:08:54Z</time></trkpt><trkpt lat="40.66644278988238" lon="16.6036380832859"><ele>403.0</ele><time>2026-05-01T16:09:00Z</time></trkpt><trkpt lat="40.66643068898505" lon="16.60354745522395"><ele>403.0</ele><time>2026-05-01T16:09:21.999Z</time></trkpt><trkpt lat="40.666489132853215" lon="16.60350998570275"><ele>403.0</ele><time>2026-05-01T16:09:43.999Z</time></trkpt></trkseg><trkseg><trkpt lat="40.66940480318355" lon="16.57352081695465"><ele>288.0</ele><time>2026-05-01T19:08:54Z</time></trkpt><trkpt lat="40.66941864431518" lon="16.5736379459533"><ele>288.0</ele><time>2026-05-01T19:08:56Z</time></trkpt><trkpt lat="40.66940916452304" lon="16.57375520484881"><ele>288.0</ele><time>2026-05-01T19:08:58Z</time></trkpt><trkpt lat="40.66930033539919" lon="16.573769395038955"><ele>288.0</ele><time>2026-05-01T19:08:59Z</time></trkpt><trkpt lat="40.66921773032519" lon="16.573784970569935"><ele>288.0</ele><time>2026-05-01T19:09:00Z</time></trkpt><trkpt lat="40.66910379158655" lon="16.57380716635899"><ele>288.0</ele><time>2026-05-01T19:09:01Z</time></trkpt><trkpt lat="40.66900720823282" lon="16.573846981555796"><ele>288.0</ele><time>2026-05-01T19:09:02Z</time></trkpt><trkpt lat="40.66891443648363" lon="16.573684275436854"><ele>288.0</ele><time>2026-05-01T19:09:03Z</time></trkpt><trkpt lat="40.66882522945475" lon="16.573661985170045"><ele>288.0</ele><time>2026-05-01T19:09:04Z</time></trkpt><trkpt lat="40.66874554033229" lon="16.573672693264697"><ele>288.0</ele><time>2026-05-01T19:09:05Z</time></trkpt><trkpt lat="40.668686494172476" lon="16.573705558923287"><ele>288.6666666666667</ele><time>2026-05-01T19:09:06Z</time></trkpt><trkpt lat="40.66864442141733" lon="16.573779407635122"><ele>289.3333333333333</ele><time>2026-05-01T19:09:07Z</time></trkpt><trkpt lat="40.66862010738072" lon="16.57387682077931"><ele>290.0</ele><time>2026-05-01T19:09:08Z</time></trkpt><trkpt lat="40.66862825360376" lon="16.57398242016519"><ele>290.66666666666663</ele><time>2026-05-01T19:09:09Z</time></trkpt><trkpt lat="40.66865402113817" lon="16.57408380738207"><ele>291.3333333333333</ele><time>2026-05-01T19:09:10Z</time></trkpt><trkpt lat="40.66872428347736" lon="16.574174483686182"><ele>292.0</ele><time>2026-05-01T19:09:11Z</time></trkpt><trkpt lat="40.66881515065546" lon="16.574276218770052"><ele>292.0</ele><time>2026-05-01T19:09:12Z</time></trkpt><trkpt lat="40.66891641215043" lon="16.574424848455866"><ele>292.0</ele><time>2026-05-01T19:09:13Z</time></trkpt><trkpt lat="40.66900131247861" lon="16.57466088980718"><ele>292.0</ele><time>2026-05-01T19:09:14Z</time></trkpt><trkpt lat="40.66908784751974" lon="16.57488056666229"><ele>293.3333333333333</ele><time>2026-05-01T19:09:15Z</time></trkpt><trkpt lat="40.66917501457818" lon="16.57510710610424"><ele>294.6666666666667</ele><time>2026-05-01T19:09:16Z</time></trkpt><trkpt lat="40.66925438815374" lon="16.575331109685084"><ele>296.0</ele><time>2026-05-01T19:09:17Z</time></trkpt><trkpt lat="40.66932152733534" lon="16.57555600356776"><ele>297.33333333333337</ele><time>2026-05-01T19:09:18Z</time></trkpt><trkpt lat="40.66937594087476" lon="16.57575719082406"><ele>298.6666666666667</ele><time>2026-05-01T19:09:19Z</time></trkpt><trkpt lat="40.66941883764981" lon="16.5759400865049"><ele>300.0</ele><time>2026-05-01T19:09:20Z</time></trkpt><trkpt lat="40.66947471999831" lon="16.576125450509938"><ele>300.5</ele><time>2026-05-01T19:09:21Z</time></trkpt><trkpt lat="40.669514093276085" lon="16.576320345983543"><ele>301.0</ele><time>2026-05-01T19:09:22Z</time></trkpt><trkpt lat="40.669541763357806" lon="16.57649284371498"><ele>301.5</ele><time>2026-05-01T19:09:23Z</time></trkpt><trkpt lat="40.66957774072673" lon="16.576681625100832"><ele>302.0</ele><time>2026-05-01T19:09:24Z</time></trkpt><trkpt lat="40.66957319288481" lon="16.57690387902394"><ele>303.0</ele><time>2026-05-01T19:09:25Z</time></trkpt><trkpt lat="40.6696017165369" lon="16.577092471222322"><ele>304.0</ele><time>2026-05-01T19:09:26Z</time></trkpt><trkpt lat="40.669626515288776" lon="16.577248012628733"><ele>305.0</ele><time>2026-05-01T19:09:27Z</time></trkpt><trkpt lat="40.6696470828471" lon="16.57738794708602"><ele>306.0</ele><time>2026-05-01T19:09:28Z</time></trkpt><trkpt lat="40.66966737317393" lon="16.577532716999194"><ele>306.0</ele><time>2026-05-01T19:09:29Z</time></trkpt><trkpt lat="40.669687158585674" lon="16.577685529400366"><ele>306.0</ele><time>2026-05-01T19:09:30Z</time></trkpt><trkpt lat="40.66970339992948" lon="16.577833356157086"><ele>306.0</ele><time>2026-05-01T19:09:31Z</time></trkpt><trkpt lat="40.67686000563974" lon="16.581754055056827"><ele>329.0</ele><time>2026-05-01T19:10:31.999Z</time></trkpt><trkpt lat="40.676980408083146" lon="16.581997063921097"><ele>352.0</ele><time>2026-05-01T19:10:32.999Z</time></trkpt><trkpt lat="40.6771461955028" lon="16.58223422337169"><ele>352.0</ele><time>2026-05-01T19:10:33.999Z</time></trkpt><trkpt lat="40.67726578818949" lon="16.582463604524406"><ele>352.0</ele><time>2026-05-01T19:10:34.999Z</time></trkpt><trkpt lat="40.677405216984624" lon="16.582694865339903"><ele>352.0</ele><time>2026-05-01T19:10:35.999Z</time></trkpt><trkpt lat="40.67753361878063" lon="16.582936794268758"><ele>354.5</ele><time>2026-05-01T19:10:36.999Z</time></trkpt><trkpt lat="40.67768884340541" lon="16.58318968279923"><ele>357.0</ele><time>2026-05-01T19:10:37.999Z</time></trkpt><trkpt lat="40.67783390112368" lon="16.58343748956452"><ele>358.5</ele><time>2026-05-01T19:10:38.999Z</time></trkpt><trkpt lat="40.677977258960844" lon="16.58368674764883"><ele>360.0</ele><time>2026-05-01T19:10:39.999Z</time></trkpt><trkpt lat="40.678124623542324" lon="16.583930241196715"><ele>360.0</ele><time>2026-05-01T19:10:40.999Z</time></trkpt><trkpt lat="40.67828071325003" lon="16.58416711775336"><ele>360.0</ele><time>2026-05-01T19:10:41.999Z</time></trkpt><trkpt lat="40.678441568121734" lon="16.58439442402376"><ele>360.6666666666667</ele><time>2026-05-01T19:10:42.999Z</time></trkpt><trkpt lat="40.67860115655417" lon="16.584609929463717"><ele>361.33333333333337</ele><time>2026-05-01T19:10:43.999Z</time></trkpt><trkpt lat="40.678757117018776" lon="16.58481457911229"><ele>362.0</ele><time>2026-05-01T19:10:44.999Z</time></trkpt><trkpt lat="40.67892113809481" lon="16.58502380959955"><ele>362.0</ele><time>2026-05-01T19:10:46Z</time></trkpt><trkpt lat="40.67908689824694" lon="16.58523688994233"><ele>362.0</ele><time>2026-05-01T19:10:47Z</time></trkpt><trkpt lat="40.679266935443" lon="16.585472018294357"><ele>364.5</ele><time>2026-05-01T19:10:48Z</time></trkpt><trkpt lat="40.67944275109549" lon="16.585718593403907"><ele>367.0</ele><time>2026-05-01T19:10:49Z</time></trkpt><trkpt lat="40.67962163976849" lon="16.58596489763539"><ele>367.0</ele><time>2026-05-01T19:10:50Z</time></trkpt><trkpt lat="40.67979118620293" lon="16.586189515606115"><ele>367.0</ele><time>2026-05-01T19:10:51Z</time></trkpt><trkpt lat="40.67996812471407" lon="16.586427213960803"><ele>367.0</ele><time>2026-05-01T19:10:52Z</time></trkpt><trkpt lat="40.68012425800216" lon="16.586622118308895"><ele>367.0</ele><time>2026-05-01T19:10:53Z</time></trkpt><trkpt lat="40.68027735723832" lon="16.586838102542206"><ele>367.0</ele><time>2026-05-01T19:10:54Z</time></trkpt><trkpt lat="40.68042331778813" lon="16.587061141390386"><ele>367.66666666666663</ele><time>2026-05-01T19:10:55Z</time></trkpt><trkpt lat="40.68055907598671" lon="16.587277024905486"><ele>368.3333333333333</ele><time>2026-05-01T19:10:56Z</time></trkpt><trkpt lat="40.68070816988491" lon="16.587509661632033"><ele>369.0</ele><time>2026-05-01T19:10:57Z</time></trkpt><trkpt lat="40.6808568714214" lon="16.587762665750862"><ele>368.0</ele><time>2026-05-01T19:10:58Z</time></trkpt><trkpt lat="40.68102110652975" lon="16.5880199613408"><ele>367.0</ele><time>2026-05-01T19:10:59Z</time></trkpt><trkpt lat="40.68116058651775" lon="16.588263616651275"><ele>367.0</ele><time>2026-05-01T19:11:00Z</time></trkpt><trkpt lat="40.68129747660616" lon="16.58850291974183"><ele>367.0</ele><time>2026-05-01T19:11:01Z</time></trkpt><trkpt lat="40.68142423728129" lon="16.58870461540593"><ele>367.0</ele><time>2026-05-01T19:11:02Z</time></trkpt><trkpt lat="40.68155086657794" lon="16.58890118703118"><ele>365.0</ele><time>2026-05-01T19:11:03Z</time></trkpt><trkpt lat="40.68166875022101" lon="16.589068742701386"><ele>363.0</ele><time>2026-05-01T19:11:04Z</time></trkpt><trkpt lat="40.681795588367656" lon="16.589214559754495"><ele>361.0</ele><time>2026-05-01T19:11:05Z</time></trkpt><trkpt lat="40.68191454188384" lon="16.589333345331315"><ele>361.25</ele><time>2026-05-01T19:11:06Z</time></trkpt><trkpt lat="40.68201962538203" lon="16.58943579207802"><ele>361.5</ele><time>2026-05-01T19:11:07Z</time></trkpt><trkpt lat="40.68212549825659" lon="16.589520960374536"><ele>361.75</ele><time>2026-05-01T19:11:08Z</time></trkpt><trkpt lat="40.6822343573198" lon="16.589607182366898"><ele>362.0</ele><time>2026-05-01T19:11:09Z</time></trkpt><trkpt lat="40.68236060195454" lon="16.589695885300223"><ele>361.0</ele><time>2026-05-01T19:11:10Z</time></trkpt><trkpt lat="40.68247466583568" lon="16.589771669204758"><ele>360.0</ele><time>2026-05-01T19:11:11Z</time></trkpt><trkpt lat="40.68258576960349" lon="16.589835613483753"><ele>359.0</ele><time>2026-05-01T19:11:12Z</time></trkpt><trkpt lat="40.682696118595395" lon="16.589893617046187"><ele>358.0</ele><time>2026-05-01T19:11:13Z</time></trkpt><trkpt lat="40.68282933005994" lon="16.589959690069616"><ele>357.66666666666663</ele><time>2026-05-01T19:11:14Z</time></trkpt><trkpt lat="40.68296417356955" lon="16.590011151984655"><ele>357.3333333333333</ele><time>2026-05-01T19:11:15Z</time></trkpt><trkpt lat="40.683114157394016" lon="16.590057480777524"><ele>357.0</ele><time>2026-05-01T19:11:16Z</time></trkpt><trkpt lat="40.68328283849343" lon="16.590084072900535"><ele>357.0</ele><time>2026-05-01T19:11:17Z</time></trkpt><trkpt lat="40.68344535881583" lon="16.590106178477942"><ele>357.0</ele><time>2026-05-01T19:11:18Z</time></trkpt><trkpt lat="40.68359361974427" lon="16.590121094293696"><ele>357.0</ele><time>2026-05-01T19:11:19Z</time></trkpt><trkpt lat="40.683740423327386" lon="16.59014073594392"><ele>357.0</ele><time>2026-05-01T19:11:20Z</time></trkpt><trkpt lat="40.683880554477895" lon="16.590162752794903"><ele>357.0</ele><time>2026-05-01T19:11:21Z</time></trkpt><trkpt lat="40.684040052466024" lon="16.59017557681828"><ele>357.0</ele><time>2026-05-01T19:11:22Z</time></trkpt><trkpt lat="40.68419796016457" lon="16.590189587742096"><ele>357.0</ele><time>2026-05-01T19:11:23Z</time></trkpt><trkpt lat="40.68436272213575" lon="16.590199659480163"><ele>357.0</ele><time>2026-05-01T19:11:24Z</time></trkpt><trkpt lat="40.684526431107486" lon="16.590191108422733"><ele>357.0</ele><time>2026-05-01T19:11:25Z</time></trkpt><trkpt lat="40.684691473492755" lon="16.590192633332"><ele>356.6666666666667</ele><time>2026-05-01T19:11:26Z</time></trkpt><trkpt lat="40.68485286733619" lon="16.590189434575418"><ele>356.33333333333337</ele><time>2026-05-01T19:11:27Z</time></trkpt><trkpt lat="40.6850228257758" lon="16.590186292025404"><ele>356.0</ele><time>2026-05-01T19:11:28Z</time></trkpt><trkpt lat="40.68519366840708" lon="16.59018794187328"><ele>354.0</ele><time>2026-05-01T19:11:29Z</time></trkpt><trkpt lat="40.6853691457999" lon="16.590185683160087"><ele>352.0</ele><time>2026-05-01T19:11:30Z</time></trkpt><trkpt lat="40.685552544529564" lon="16.590171998838283"><ele>350.0</ele><time>2026-05-01T19:11:31Z</time></trkpt><trkpt lat="40.6996174291108" lon="16.588189698334677"><ele>346.0</ele><time>2026-05-01T19:12:31.999Z</time></trkpt><trkpt lat="40.69993927205089" lon="16.587948107261035"><ele>342.0</ele><time>2026-05-01T19:12:32.999Z</time></trkpt><trkpt lat="40.700262573158035" lon="16.587696856208225"><ele>342.0</ele><time>2026-05-01T19:12:33.999Z</time></trkpt><trkpt lat="40.70058274807494" lon="16.587451118067538"><ele>342.0</ele><time>2026-05-01T19:12:34.999Z</time></trkpt><trkpt lat="40.70089694003915" lon="16.587208688787445"><ele>344.5</ele><time>2026-05-01T19:12:35.999Z</time></trkpt><trkpt lat="40.701212625601656" lon="16.58695895246093"><ele>347.0</ele><time>2026-05-01T19:12:36.999Z</time></trkpt><trkpt lat="40.70153167319023" lon="16.58670966140675"><ele>347.0</ele><time>2026-05-01T19:12:37.999Z</time></trkpt><trkpt lat="40.701842476683126" lon="16.586470635439678"><ele>347.0</ele><time>2026-05-01T19:12:38.999Z</time></trkpt><trkpt lat="40.702173421728304" lon="16.58622676453122"><ele>349.5</ele><time>2026-05-01T19:12:39.999Z</time></trkpt><trkpt lat="40.702489690808335" lon="16.58597520562704"><ele>352.0</ele><time>2026-05-01T19:12:40.999Z</time></trkpt><trkpt lat="40.70281762948818" lon="16.5857259511503"><ele>353.5</ele><time>2026-05-01T19:12:41.999Z</time></trkpt><trkpt lat="40.7031493960055" lon="16.585481782817475"><ele>355.0</ele><time>2026-05-01T19:12:42.999Z</time></trkpt><trkpt lat="40.70346788677409" lon="16.585231325008202"><ele>355.0</ele><time>2026-05-01T19:12:43.999Z</time></trkpt><trkpt lat="40.703767934429166" lon="16.584980744171315"><ele>355.0</ele><time>2026-05-01T19:12:44.999Z</time></trkpt><trkpt lat="40.704107767291845" lon="16.58472875200942"><ele>352.5</ele><time>2026-05-01T19:12:45.999Z</time></trkpt><trkpt lat="40.70445172246645" lon="16.584455584473538"><ele>350.0</ele><time>2026-05-01T19:12:46.999Z</time></trkpt><trkpt lat="40.704764538228275" lon="16.584242024318307"><ele>350.0</ele><time>2026-05-01T19:12:47.999Z</time></trkpt><trkpt lat="40.70508566123469" lon="16.58399880646626"><ele>350.0</ele><time>2026-05-01T19:12:48.999Z</time></trkpt><trkpt lat="40.705397619600184" lon="16.583764168140355"><ele>346.5</ele><time>2026-05-01T19:12:49.999Z</time></trkpt><trkpt lat="40.70573512721666" lon="16.583525419740038"><ele>343.0</ele><time>2026-05-01T19:12:50.999Z</time></trkpt><trkpt lat="40.70606044914779" lon="16.58328704749093"><ele>343.0</ele><time>2026-05-01T19:12:52Z</time></trkpt><trkpt lat="40.706385930815415" lon="16.583046046164007"><ele>343.0</ele><time>2026-05-01T19:12:53Z</time></trkpt><trkpt lat="40.706711969147825" lon="16.582810128641235"><ele>340.0</ele><time>2026-05-01T19:12:54Z</time></trkpt><trkpt lat="40.707038327564" lon="16.582576546840972"><ele>337.0</ele><time>2026-05-01T19:12:55Z</time></trkpt><trkpt lat="40.707360802500176" lon="16.582342124976858"><ele>337.0</ele><time>2026-05-01T19:12:56Z</time></trkpt><trkpt lat="40.707688336470504" lon="16.582108381012453"><ele>337.0</ele><time>2026-05-01T19:12:57Z</time></trkpt><trkpt lat="40.708015894435896" lon="16.581875169772278"><ele>334.5</ele><time>2026-05-01T19:12:58Z</time></trkpt><trkpt lat="40.708348818695974" lon="16.581647053903815"><ele>332.0</ele><time>2026-05-01T19:12:59Z</time></trkpt><trkpt lat="40.70869166227632" lon="16.581439711547485"><ele>330.5</ele><time>2026-05-01T19:13:00Z</time></trkpt><trkpt lat="40.70903045494632" lon="16.581245436088793"><ele>329.0</ele><time>2026-05-01T19:13:01Z</time></trkpt><trkpt lat="40.709387353762146" lon="16.581084496717587"><ele>328.0</ele><time>2026-05-01T19:13:02Z</time></trkpt><trkpt lat="40.7097438600607" lon="16.580939302722918"><ele>327.0</ele><time>2026-05-01T19:13:03Z</time></trkpt><trkpt lat="40.71010769072416" lon="16.580804180085394"><ele>326.5</ele><time>2026-05-01T19:13:04Z</time></trkpt><trkpt lat="40.71046629822033" lon="16.58067206568334"><ele>326.0</ele><time>2026-05-01T19:13:05Z</time></trkpt><trkpt lat="40.71082635001391" lon="16.580530820472653"><ele>326.5</ele><time>2026-05-01T19:13:06Z</time></trkpt><trkpt lat="40.711186709822464" lon="16.5803927003871"><ele>327.0</ele><time>2026-05-01T19:13:07Z</time></trkpt><trkpt lat="40.71154714857442" lon="16.580251475735814"><ele>327.0</ele><time>2026-05-01T19:13:08Z</time></trkpt><trkpt lat="40.711906530032465" lon="16.580108454096706"><ele>327.0</ele><time>2026-05-01T19:13:09Z</time></trkpt><trkpt lat="40.71226917563528" lon="16.579964228773967"><ele>325.5</ele><time>2026-05-01T19:13:10Z</time></trkpt><trkpt lat="40.712630640369596" lon="16.579815469890477"><ele>324.0</ele><time>2026-05-01T19:13:11Z</time></trkpt><trkpt lat="40.712992495675515" lon="16.57966996274064"><ele>322.5</ele><time>2026-05-01T19:13:12Z</time></trkpt><trkpt lat="40.71334970971807" lon="16.57952056534049"><ele>321.0</ele><time>2026-05-01T19:13:13Z</time></trkpt><trkpt lat="40.71370773754778" lon="16.579369296425753"><ele>321.0</ele><time>2026-05-01T19:13:14Z</time></trkpt><trkpt lat="40.71406491890765" lon="16.579216113540493"><ele>321.0</ele><time>2026-05-01T19:13:15Z</time></trkpt><trkpt lat="40.71442712774622" lon="16.579073968420126"><ele>321.0</ele><time>2026-05-01T19:13:16Z</time></trkpt><trkpt lat="40.714786262954526" lon="16.57893977918921"><ele>321.0</ele><time>2026-05-01T19:13:17Z</time></trkpt><trkpt lat="40.71513710623395" lon="16.578807138981446"><ele>321.0</ele><time>2026-05-01T19:13:18Z</time></trkpt><trkpt lat="40.71546033424779" lon="16.57867539973091"><ele>321.0</ele><time>2026-05-01T19:13:19Z</time></trkpt><trkpt lat="40.71574529061631" lon="16.57855205881285"><ele>321.0</ele><time>2026-05-01T19:13:20Z</time></trkpt><trkpt lat="40.715963359927386" lon="16.578422626183187"><ele>321.0</ele><time>2026-05-01T19:13:21Z</time></trkpt><trkpt lat="40.716271328360335" lon="16.57835890033475"><ele>322.0</ele><time>2026-05-01T19:13:22Z</time></trkpt><trkpt lat="40.71652276311932" lon="16.578259198443387"><ele>323.0</ele><time>2026-05-01T19:13:23Z</time></trkpt><trkpt lat="40.71679763169386" lon="16.578158856769186"><ele>326.0</ele><time>2026-05-01T19:13:24Z</time></trkpt><trkpt lat="40.71708882888342" lon="16.578044557024132"><ele>329.0</ele><time>2026-05-01T19:13:25Z</time></trkpt><trkpt lat="40.71739240249018" lon="16.57794360844854"><ele>328.0</ele><time>2026-05-01T19:13:26Z</time></trkpt><trkpt lat="40.717701356653826" lon="16.577826908614615"><ele>327.0</ele><time>2026-05-01T19:13:27Z</time></trkpt><trkpt lat="40.718024767657" lon="16.57773761064707"><ele>327.0</ele><time>2026-05-01T19:13:28Z</time></trkpt><trkpt lat="40.71834244816692" lon="16.57759399473242"><ele>327.0</ele><time>2026-05-01T19:13:29Z</time></trkpt><trkpt lat="40.718664810243666" lon="16.57746724716695"><ele>328.5</ele><time>2026-05-01T19:13:30Z</time></trkpt><trkpt lat="40.71899426475626" lon="16.577333517536992"><ele>330.0</ele><time>2026-05-01T19:13:31Z</time></trkpt><trkpt lat="40.739118963691816" lon="16.56920118958882"><ele>337.0</ele><time>2026-05-01T19:14:31.999Z</time></trkpt><trkpt lat="40.739445765602234" lon="16.569122672704268"><ele>344.0</ele><time>2026-05-01T19:14:32.999Z</time></trkpt><trkpt lat="40.73975705558844" lon="16.56903272351365"><ele>344.0</ele><time>2026-05-01T19:14:33.999Z</time></trkpt><trkpt lat="40.740051941704834" lon="16.568935483228987"><ele>344.0</ele><time>2026-05-01T19:14:34.999Z</time></trkpt><trkpt lat="40.74037684878102" lon="16.56887043540018"><ele>344.5</ele><time>2026-05-01T19:14:35.999Z</time></trkpt><trkpt lat="40.740693920051996" lon="16.568800215978477"><ele>345.0</ele><time>2026-05-01T19:14:36.999Z</time></trkpt><trkpt lat="40.74100672698365" lon="16.568736694481338"><ele>345.0</ele><time>2026-05-01T19:14:37.999Z</time></trkpt><trkpt lat="40.741293642155064" lon="16.568670456977042"><ele>345.0</ele><time>2026-05-01T19:14:38.999Z</time></trkpt><trkpt lat="40.74158259443838" lon="16.56856228346426"><ele>347.0</ele><time>2026-05-01T19:14:39.999Z</time></trkpt><trkpt lat="40.741887292479994" lon="16.568492772014316"><ele>349.0</ele><time>2026-05-01T19:14:40.999Z</time></trkpt><trkpt lat="40.74217997520784" lon="16.5684859199556"><ele>349.0</ele><time>2026-05-01T19:14:41.999Z</time></trkpt><trkpt lat="40.74247529573199" lon="16.568421611493914"><ele>349.0</ele><time>2026-05-01T19:14:42.999Z</time></trkpt><trkpt lat="40.74277267915406" lon="16.568344683954667"><ele>352.5</ele><time>2026-05-01T19:14:43.999Z</time></trkpt><trkpt lat="40.743073107247746" lon="16.568250509433234"><ele>356.0</ele><time>2026-05-01T19:14:44.999Z</time></trkpt><trkpt lat="40.743374817343444" lon="16.56813672858467"><ele>358.5</ele><time>2026-05-01T19:14:45.999Z</time></trkpt><trkpt lat="40.74369652801152" lon="16.56802913129721"><ele>361.0</ele><time>2026-05-01T19:14:46.999Z</time></trkpt><trkpt lat="40.743995313710265" lon="16.56791738390961"><ele>360.0</ele><time>2026-05-01T19:14:47.999Z</time></trkpt><trkpt lat="40.74430198002424" lon="16.567782382942564"><ele>359.0</ele><time>2026-05-01T19:14:48.999Z</time></trkpt><trkpt lat="40.744618791608815" lon="16.567627562775307"><ele>359.0</ele><time>2026-05-01T19:14:49.999Z</time></trkpt><trkpt lat="40.74493610721406" lon="16.567466038692636"><ele>359.0</ele><time>2026-05-01T19:14:50.999Z</time></trkpt><trkpt lat="40.74523970786673" lon="16.567294033982336"><ele>360.0</ele><time>2026-05-01T19:14:51.999Z</time></trkpt><trkpt lat="40.74553549362526" lon="16.567104710200102"><ele>361.0</ele><time>2026-05-01T19:14:52.999Z</time></trkpt><trkpt lat="40.74583906058123" lon="16.566906072322265"><ele>365.0</ele><time>2026-05-01T19:14:53.999Z</time></trkpt><trkpt lat="40.746143790487544" lon="16.56671190040453"><ele>369.0</ele><time>2026-05-01T19:14:54.999Z</time></trkpt><trkpt lat="40.746453151935874" lon="16.56652575550233"><ele>369.0</ele><time>2026-05-01T19:14:55.999Z</time></trkpt><trkpt lat="40.74676191588266" lon="16.566334795251"><ele>369.0</ele><time>2026-05-01T19:14:56.999Z</time></trkpt><trkpt lat="40.7470789818832" lon="16.5661396611401"><ele>371.0</ele><time>2026-05-01T19:14:58Z</time></trkpt><trkpt lat="40.74740136094176" lon="16.565940527024576"><ele>373.0</ele><time>2026-05-01T19:14:59Z</time></trkpt><trkpt lat="40.747720436693506" lon="16.565749283021546"><ele>372.0</ele><time>2026-05-01T19:15:00Z</time></trkpt><trkpt lat="40.74805479184088" lon="16.565561771117544"><ele>371.0</ele><time>2026-05-01T19:15:01Z</time></trkpt><trkpt lat="40.748377715775256" lon="16.56534698343397"><ele>374.5</ele><time>2026-05-01T19:15:02Z</time></trkpt><trkpt lat="40.748701479779946" lon="16.565145180018945"><ele>378.0</ele><time>2026-05-01T19:15:03Z</time></trkpt><trkpt lat="40.749018850639125" lon="16.56494507236316"><ele>378.0</ele><time>2026-05-01T19:15:04Z</time></trkpt><trkpt lat="40.74933422805378" lon="16.564746250878425"><ele>378.0</ele><time>2026-05-01T19:15:05Z</time></trkpt><trkpt lat="40.74964827072532" lon="16.56455383579134"><ele>381.0</ele><time>2026-05-01T19:15:06Z</time></trkpt><trkpt lat="40.74995416880319" lon="16.56436666265959"><ele>384.0</ele><time>2026-05-01T19:15:07Z</time></trkpt><trkpt lat="40.75026880850357" lon="16.564192683726638"><ele>387.5</ele><time>2026-05-01T19:15:08Z</time></trkpt><trkpt lat="40.750594642580694" lon="16.56403312378194"><ele>391.0</ele><time>2026-05-01T19:15:09Z</time></trkpt><trkpt lat="40.750917615633774" lon="16.56389133023172"><ele>394.5</ele><time>2026-05-01T19:15:10Z</time></trkpt><trkpt lat="40.751282400564364" lon="16.563758243867877"><ele>398.0</ele><time>2026-05-01T19:15:11Z</time></trkpt><trkpt lat="40.751642055232054" lon="16.563715451709502"><ele>398.5</ele><time>2026-05-01T19:15:12Z</time></trkpt><trkpt lat="40.75200311908453" lon="16.563680977712547"><ele>399.0</ele><time>2026-05-01T19:15:13Z</time></trkpt><trkpt lat="40.752364534479845" lon="16.56368913025576"><ele>399.0</ele><time>2026-05-01T19:15:14Z</time></trkpt><trkpt lat="40.7527256127679" lon="16.56373827362235"><ele>399.0</ele><time>2026-05-01T19:15:15Z</time></trkpt><trkpt lat="40.75308333763891" lon="16.563802245284712"><ele>399.0</ele><time>2026-05-01T19:15:16Z</time></trkpt><trkpt lat="40.75342429340807" lon="16.563904437320836"><ele>399.0</ele><time>2026-05-01T19:15:17Z</time></trkpt><trkpt lat="40.75379223777466" lon="16.5639955256453"><ele>399.5</ele><time>2026-05-01T19:15:18Z</time></trkpt><trkpt lat="40.75414769611646" lon="16.564081067903686"><ele>400.0</ele><time>2026-05-01T19:15:19Z</time></trkpt><trkpt lat="40.754492736485446" lon="16.564205182471035"><ele>400.0</ele><time>2026-05-01T19:15:20Z</time></trkpt><trkpt lat="40.7548345739418" lon="16.564328320064917"><ele>400.0</ele><time>2026-05-01T19:15:21Z</time></trkpt><trkpt lat="40.75518035788477" lon="16.56444405074413"><ele>399.5</ele><time>2026-05-01T19:15:22Z</time></trkpt><trkpt lat="40.75552270012729" lon="16.56453969243071"><ele>399.0</ele><time>2026-05-01T19:15:23Z</time></trkpt><trkpt lat="40.755890184772475" lon="16.564651608326585"><ele>399.0</ele><time>2026-05-01T19:15:24Z</time></trkpt><trkpt lat="40.75625910376683" lon="16.564768107790226"><ele>399.0</ele><time>2026-05-01T19:15:25Z</time></trkpt><trkpt lat="40.75662188492787" lon="16.56487952938764"><ele>399.5</ele><time>2026-05-01T19:15:26Z</time></trkpt><trkpt lat="40.75698582008439" lon="16.564977819670474"><ele>400.0</ele><time>2026-05-01T19:15:27Z</time></trkpt><trkpt lat="40.75734500696918" lon="16.565059993443818"><ele>400.0</ele><time>2026-05-01T19:15:28Z</time></trkpt><trkpt lat="40.75768217920796" lon="16.565092515926413"><ele>400.0</ele><time>2026-05-01T19:15:29Z</time></trkpt><trkpt lat="40.7580601781092" lon="16.565120116062616"><ele>399.5</ele><time>2026-05-01T19:15:30Z</time></trkpt><trkpt lat="40.75842031663219" lon="16.56510605037596"><ele>399.0</ele><time>2026-05-01T19:15:31Z</time></trkpt><trkpt lat="40.7829919436203" lon="16.55644900476932"><ele>399.0</ele><time>2026-05-01T19:16:31.999Z</time></trkpt><trkpt lat="40.783416024530695" lon="16.556299519954248"><ele>399.0</ele><time>2026-05-01T19:16:32.999Z</time></trkpt><trkpt lat="40.78383109028788" lon="16.556143190382496"><ele>400.5</ele><time>2026-05-01T19:16:33.999Z</time></trkpt><trkpt lat="40.784244655994186" lon="16.555985034116226"><ele>402.0</ele><time>2026-05-01T19:16:34.999Z</time></trkpt><trkpt lat="40.784655794816324" lon="16.55583872882432"><ele>402.0</ele><time>2026-05-01T19:16:35.999Z</time></trkpt><trkpt lat="40.785076945925276" lon="16.555716000738432"><ele>402.0</ele><time>2026-05-01T19:16:36.999Z</time></trkpt><trkpt lat="40.785501162924376" lon="16.555585265173523"><ele>402.0</ele><time>2026-05-01T19:16:37.999Z</time></trkpt><trkpt lat="40.785927680341445" lon="16.5554578263759"><ele>402.0</ele><time>2026-05-01T19:16:38.999Z</time></trkpt><trkpt lat="40.786347506469276" lon="16.55534996442977"><ele>402.0</ele><time>2026-05-01T19:16:39.999Z</time></trkpt><trkpt lat="40.78676522392521" lon="16.55523798806513"><ele>402.0</ele><time>2026-05-01T19:16:40.999Z</time></trkpt><trkpt lat="40.7871877725898" lon="16.555134870387487"><ele>401.5</ele><time>2026-05-01T19:16:41.999Z</time></trkpt><trkpt lat="40.78760996569229" lon="16.554998274646948"><ele>401.0</ele><time>2026-05-01T19:16:42.999Z</time></trkpt><trkpt lat="40.78803146711102" lon="16.554904087776002"><ele>402.5</ele><time>2026-05-01T19:16:43.999Z</time></trkpt><trkpt lat="40.78845001126092" lon="16.554843490747885"><ele>404.0</ele><time>2026-05-01T19:16:44.999Z</time></trkpt><trkpt lat="40.7888803632254" lon="16.554732736305183"><ele>404.5</ele><time>2026-05-01T19:16:45.999Z</time></trkpt><trkpt lat="40.789302593879" lon="16.5546327119491"><ele>405.0</ele><time>2026-05-01T19:16:46.999Z</time></trkpt><trkpt lat="40.78972051353599" lon="16.55452323901862"><ele>404.5</ele><time>2026-05-01T19:16:47.999Z</time></trkpt><trkpt lat="40.790136029400855" lon="16.554402500991777"><ele>404.0</ele><time>2026-05-01T19:16:48.999Z</time></trkpt><trkpt lat="40.790570018593066" lon="16.55432044466794"><ele>404.0</ele><time>2026-05-01T19:16:49.999Z</time></trkpt><trkpt lat="40.79099700783825" lon="16.554225254821436"><ele>404.0</ele><time>2026-05-01T19:16:50.999Z</time></trkpt><trkpt lat="40.791415539619756" lon="16.5541366131296"><ele>403.0</ele><time>2026-05-01T19:16:51.999Z</time></trkpt><trkpt lat="40.79183478239487" lon="16.55404104237816"><ele>402.0</ele><time>2026-05-01T19:16:52.999Z</time></trkpt><trkpt lat="40.792216584251136" lon="16.553928927662806"><ele>402.0</ele><time>2026-05-01T19:16:53.999Z</time></trkpt><trkpt lat="40.79258565626958" lon="16.553870817446573"><ele>402.0</ele><time>2026-05-01T19:16:54.999Z</time></trkpt><trkpt lat="40.79295760046767" lon="16.55377446160663"><ele>400.0</ele><time>2026-05-01T19:16:55.999Z</time></trkpt><trkpt lat="40.79332806754553" lon="16.553704749443593"><ele>398.0</ele><time>2026-05-01T19:16:56.999Z</time></trkpt><trkpt lat="40.79368767580838" lon="16.55363539700563"><ele>396.5</ele><time>2026-05-01T19:16:57.999Z</time></trkpt><trkpt lat="40.79406492003161" lon="16.55359545163587"><ele>395.0</ele><time>2026-05-01T19:16:58.999Z</time></trkpt><trkpt lat="40.79443388927859" lon="16.553545843098593"><ele>394.0</ele><time>2026-05-01T19:16:59.999Z</time></trkpt><trkpt lat="40.79482026996283" lon="16.553516532271175"><ele>393.0</ele><time>2026-05-01T19:17:00.999Z</time></trkpt><trkpt lat="40.7952186398242" lon="16.553520615122203"><ele>391.5</ele><time>2026-05-01T19:17:01.999Z</time></trkpt><trkpt lat="40.79561461624225" lon="16.5535351288492"><ele>390.0</ele><time>2026-05-01T19:17:02.999Z</time></trkpt><trkpt lat="40.79601833113525" lon="16.553565783140968"><ele>387.5</ele><time>2026-05-01T19:17:04Z</time></trkpt><trkpt lat="40.79642639980955" lon="16.553612288171593"><ele>385.0</ele><time>2026-05-01T19:17:05Z</time></trkpt><trkpt lat="40.79680374675503" lon="16.553688656474566"><ele>385.0</ele><time>2026-05-01T19:17:06Z</time></trkpt><trkpt lat="40.79722469024889" lon="16.55378354577308"><ele>385.0</ele><time>2026-05-01T19:17:07Z</time></trkpt><trkpt lat="40.797632451690916" lon="16.553867921370895"><ele>386.0</ele><time>2026-05-01T19:17:08Z</time></trkpt><trkpt lat="40.79804180785552" lon="16.553953156334774"><ele>387.0</ele><time>2026-05-01T19:17:09Z</time></trkpt><trkpt lat="40.798459360653894" lon="16.5540202090354"><ele>388.0</ele><time>2026-05-01T19:17:10Z</time></trkpt><trkpt lat="40.798854062543924" lon="16.554093243441294"><ele>389.0</ele><time>2026-05-01T19:17:11Z</time></trkpt><trkpt lat="40.79925414614969" lon="16.55417350373783"><ele>389.0</ele><time>2026-05-01T19:17:12Z</time></trkpt><trkpt lat="40.79966071664233" lon="16.554245930351197"><ele>389.0</ele><time>2026-05-01T19:17:13Z</time></trkpt><trkpt lat="40.80006270435179" lon="16.554319877153688"><ele>389.0</ele><time>2026-05-01T19:17:14Z</time></trkpt><trkpt lat="40.80046826166594" lon="16.554394728612497"><ele>389.0</ele><time>2026-05-01T19:17:15Z</time></trkpt><trkpt lat="40.80087669530357" lon="16.55446962849224"><ele>390.5</ele><time>2026-05-01T19:17:16Z</time></trkpt><trkpt lat="40.80128689293884" lon="16.554549269275256"><ele>392.0</ele><time>2026-05-01T19:17:17Z</time></trkpt><trkpt lat="40.80169921519269" lon="16.55463165581997"><ele>391.5</ele><time>2026-05-01T19:17:18Z</time></trkpt><trkpt lat="40.80211292570069" lon="16.554717074222584"><ele>391.0</ele><time>2026-05-01T19:17:19Z</time></trkpt><trkpt lat="40.80251685090037" lon="16.55480126072967"><ele>391.0</ele><time>2026-05-01T19:17:20Z</time></trkpt><trkpt lat="40.80291319549879" lon="16.554881571478614"><ele>391.0</ele><time>2026-05-01T19:17:21Z</time></trkpt><trkpt lat="40.803318053028065" lon="16.554969123646742"><ele>392.0</ele><time>2026-05-01T19:17:22Z</time></trkpt><trkpt lat="40.8037170275393" lon="16.555048009384606"><ele>393.0</ele><time>2026-05-01T19:17:23Z</time></trkpt><trkpt lat="40.80411423159229" lon="16.555120225004696"><ele>393.5</ele><time>2026-05-01T19:17:24Z</time></trkpt><trkpt lat="40.80450929916224" lon="16.555191104437217"><ele>394.0</ele><time>2026-05-01T19:17:25Z</time></trkpt><trkpt lat="40.804921781792686" lon="16.55526499460367"><ele>396.0</ele><time>2026-05-01T19:17:26Z</time></trkpt><trkpt lat="40.805316478057726" lon="16.55534035171697"><ele>398.0</ele><time>2026-05-01T19:17:27Z</time></trkpt><trkpt lat="40.80569967425655" lon="16.555449112163807"><ele>399.5</ele><time>2026-05-01T19:17:28Z</time></trkpt><trkpt lat="40.806135838441286" lon="16.555496299033887"><ele>401.0</ele><time>2026-05-01T19:17:29Z</time></trkpt><trkpt lat="40.80654086938712" lon="16.55556344765832"><ele>402.0</ele><time>2026-05-01T19:17:30Z</time></trkpt><trkpt lat="40.806943535439174" lon="16.55563421507348"><ele>403.0</ele><time>2026-05-01T19:17:31Z</time></trkpt><trkpt lat="40.82478765861602" lon="16.570708996347594"><ele>404.5</ele><time>2026-05-01T19:18:31.999Z</time></trkpt><trkpt lat="40.82516361370507" lon="16.570767564186053"><ele>406.0</ele><time>2026-05-01T19:18:32.999Z</time></trkpt><trkpt lat="40.825547933001914" lon="16.570837244622773"><ele>406.0</ele><time>2026-05-01T19:18:33.999Z</time></trkpt><trkpt lat="40.825931422999204" lon="16.570911538064674"><ele>406.0</ele><time>2026-05-01T19:18:34.999Z</time></trkpt><trkpt lat="40.82631601219732" lon="16.570983145105544"><ele>405.0</ele><time>2026-05-01T19:18:35.999Z</time></trkpt><trkpt lat="40.826696788104115" lon="16.57105451432852"><ele>404.0</ele><time>2026-05-01T19:18:36.999Z</time></trkpt><trkpt lat="40.82709211392068" lon="16.57110526182423"><ele>404.0</ele><time>2026-05-01T19:18:37.999Z</time></trkpt><trkpt lat="40.827468875355834" lon="16.571178989429693"><ele>404.0</ele><time>2026-05-01T19:18:38.999Z</time></trkpt><trkpt lat="40.827856803759936" lon="16.57124948748254"><ele>402.5</ele><time>2026-05-01T19:18:39.999Z</time></trkpt><trkpt lat="40.8282511165097" lon="16.57132119463579"><ele>401.0</ele><time>2026-05-01T19:18:40.999Z</time></trkpt><trkpt lat="40.828643261844704" lon="16.57139715023461"><ele>401.0</ele><time>2026-05-01T19:18:41.999Z</time></trkpt><trkpt lat="40.82902166759359" lon="16.571468734157058"><ele>401.0</ele><time>2026-05-01T19:18:42.999Z</time></trkpt><trkpt lat="40.829402890185115" lon="16.571538944475414"><ele>400.5</ele><time>2026-05-01T19:18:43.999Z</time></trkpt><trkpt lat="40.82979698171108" lon="16.571606788282693"><ele>400.0</ele><time>2026-05-01T19:18:44.999Z</time></trkpt><trkpt lat="40.83019470956035" lon="16.571674098258846"><ele>400.0</ele><time>2026-05-01T19:18:45.999Z</time></trkpt><trkpt lat="40.83058995096617" lon="16.57173844298883"><ele>400.0</ele><time>2026-05-01T19:18:46.999Z</time></trkpt><trkpt lat="40.83100234385657" lon="16.571803537905186"><ele>400.0</ele><time>2026-05-01T19:18:47.999Z</time></trkpt><trkpt lat="40.831420185041125" lon="16.571869457866025"><ele>400.0</ele><time>2026-05-01T19:18:48.999Z</time></trkpt><trkpt lat="40.8318635344064" lon="16.571950792298093"><ele>402.0</ele><time>2026-05-01T19:18:49.999Z</time></trkpt><trkpt lat="40.83228404496942" lon="16.572017409500333"><ele>404.0</ele><time>2026-05-01T19:18:50.999Z</time></trkpt><trkpt lat="40.832732526421005" lon="16.572097000113658"><ele>407.0</ele><time>2026-05-01T19:18:51.999Z</time></trkpt><trkpt lat="40.83318436997665" lon="16.572183014533216"><ele>408.0</ele><time>2026-05-01T19:18:52.999Z</time></trkpt><trkpt lat="40.83360385052529" lon="16.572259379687353"><ele>409.0</ele><time>2026-05-01T19:18:53.999Z</time></trkpt><trkpt lat="40.834015385127884" lon="16.572332993955314"><ele>411.0</ele><time>2026-05-01T19:18:54.999Z</time></trkpt><trkpt lat="40.834429446842485" lon="16.572407245924857"><ele>413.0</ele><time>2026-05-01T19:18:55.999Z</time></trkpt><trkpt lat="40.8348396930673" lon="16.5724752237703"><ele>415.5</ele><time>2026-05-01T19:18:56.999Z</time></trkpt><trkpt lat="40.83524955286397" lon="16.572544588114464"><ele>418.0</ele><time>2026-05-01T19:18:57.999Z</time></trkpt><trkpt lat="40.835657513734" lon="16.572630526221513"><ele>419.5</ele><time>2026-05-01T19:18:58.999Z</time></trkpt><trkpt lat="40.83607631856085" lon="16.57270333074559"><ele>421.0</ele><time>2026-05-01T19:18:59.999Z</time></trkpt><trkpt lat="40.83649421638505" lon="16.572787623858197"><ele>420.5</ele><time>2026-05-01T19:19:00.999Z</time></trkpt><trkpt lat="40.836934008403404" lon="16.572859418197886"><ele>420.0</ele><time>2026-05-01T19:19:01.999Z</time></trkpt><trkpt lat="40.8373358395809" lon="16.572917998304874"><ele>421.0</ele><time>2026-05-01T19:19:02.999Z</time></trkpt><trkpt lat="40.83775966361915" lon="16.572992219510954"><ele>422.0</ele><time>2026-05-01T19:19:03.999Z</time></trkpt><trkpt lat="40.8381795949436" lon="16.573065244060313"><ele>420.5</ele><time>2026-05-01T19:19:04.999Z</time></trkpt><trkpt lat="40.838588642359134" lon="16.573143425049626"><ele>419.0</ele><time>2026-05-01T19:19:05.999Z</time></trkpt><trkpt lat="40.83898622628544" lon="16.57321821017698"><ele>419.0</ele><time>2026-05-01T19:19:06.999Z</time></trkpt><trkpt lat="40.839380570784684" lon="16.5732899873303"><ele>419.0</ele><time>2026-05-01T19:19:07.999Z</time></trkpt><trkpt lat="40.83977037748156" lon="16.573358757487092"><ele>418.0</ele><time>2026-05-01T19:19:08.999Z</time></trkpt><trkpt lat="40.84016046345373" lon="16.57342654816145"><ele>417.0</ele><time>2026-05-01T19:19:10Z</time></trkpt><trkpt lat="40.840547984121585" lon="16.573490777670987"><ele>417.0</ele><time>2026-05-01T19:19:11Z</time></trkpt><trkpt lat="40.84093084059474" lon="16.573560152459077"><ele>417.0</ele><time>2026-05-01T19:19:12Z</time></trkpt><trkpt lat="40.841304406891894" lon="16.573631912175365"><ele>412.0</ele><time>2026-05-01T19:19:13Z</time></trkpt><trkpt lat="40.84166812452646" lon="16.573699869737606"><ele>407.0</ele><time>2026-05-01T19:19:14Z</time></trkpt><trkpt lat="40.84204179828746" lon="16.57376831728921"><ele>407.0</ele><time>2026-05-01T19:19:15Z</time></trkpt><trkpt lat="40.84240657956783" lon="16.573836546882504"><ele>407.0</ele><time>2026-05-01T19:19:16Z</time></trkpt><trkpt lat="40.842747470692494" lon="16.573897803921813"><ele>408.0</ele><time>2026-05-01T19:19:17Z</time></trkpt><trkpt lat="40.84308476447455" lon="16.573967707193447"><ele>409.0</ele><time>2026-05-01T19:19:18Z</time></trkpt><trkpt lat="40.84343775519138" lon="16.574043097535174"><ele>406.0</ele><time>2026-05-01T19:19:19Z</time></trkpt><trkpt lat="40.84375071927478" lon="16.574187666010175"><ele>403.0</ele><time>2026-05-01T19:19:20Z</time></trkpt><trkpt lat="40.8441010459221" lon="16.574301240866532"><ele>402.0</ele><time>2026-05-01T19:19:21Z</time></trkpt><trkpt lat="40.84443581112539" lon="16.574468118253204"><ele>401.0</ele><time>2026-05-01T19:19:22Z</time></trkpt><trkpt lat="40.84478377765235" lon="16.57464752382655"><ele>399.5</ele><time>2026-05-01T19:19:23Z</time></trkpt><trkpt lat="40.84513117862062" lon="16.574832265952317"><ele>398.0</ele><time>2026-05-01T19:19:24Z</time></trkpt><trkpt lat="40.8454658390179" lon="16.575035064987517"><ele>398.0</ele><time>2026-05-01T19:19:25Z</time></trkpt><trkpt lat="40.8457739212235" lon="16.57524919840001"><ele>398.0</ele><time>2026-05-01T19:19:26Z</time></trkpt><trkpt lat="40.846073830601576" lon="16.575472924033882"><ele>397.5</ele><time>2026-05-01T19:19:27Z</time></trkpt><trkpt lat="40.84638540590822" lon="16.575762669440355"><ele>397.0</ele><time>2026-05-01T19:19:28Z</time></trkpt><trkpt lat="40.846685362180885" lon="16.57606408991436"><ele>398.0</ele><time>2026-05-01T19:19:29Z</time></trkpt><trkpt lat="40.84698227898027" lon="16.57638696215003"><ele>399.0</ele><time>2026-05-01T19:19:30Z</time></trkpt><trkpt lat="40.847283657423525" lon="16.576726908864497"><ele>438.0</ele><time>2026-05-01T19:19:31Z</time></trkpt><trkpt lat="40.862454365942405" lon="16.596703342627787"><ele>439.5</ele><time>2026-05-01T19:20:31.999Z</time></trkpt><trkpt lat="40.86268887840467" lon="16.597020081433346"><ele>441.0</ele><time>2026-05-01T19:20:32.999Z</time></trkpt><trkpt lat="40.86293836184719" lon="16.597318472082033"><ele>441.0</ele><time>2026-05-01T19:20:33.999Z</time></trkpt><trkpt lat="40.86318296724607" lon="16.597641304181323"><ele>441.0</ele><time>2026-05-01T19:20:34.999Z</time></trkpt><trkpt lat="40.86340726230047" lon="16.597964221497445"><ele>441.5</ele><time>2026-05-01T19:20:35.999Z</time></trkpt><trkpt lat="40.86366950616207" lon="16.598262515371427"><ele>442.0</ele><time>2026-05-01T19:20:36.999Z</time></trkpt><trkpt lat="40.86389598046827" lon="16.598596985659466"><ele>441.5</ele><time>2026-05-01T19:20:37.999Z</time></trkpt><trkpt lat="40.8641376930826" lon="16.598913093426503"><ele>441.0</ele><time>2026-05-01T19:20:38.999Z</time></trkpt><trkpt lat="40.86438870639562" lon="16.599235627186435"><ele>443.0</ele><time>2026-05-01T19:20:39.999Z</time></trkpt><trkpt lat="40.86463574591663" lon="16.59956885936543"><ele>445.0</ele><time>2026-05-01T19:20:40.999Z</time></trkpt><trkpt lat="40.86488486767728" lon="16.599893788343834"><ele>448.0</ele><time>2026-05-01T19:20:41.999Z</time></trkpt><trkpt lat="40.86513930574023" lon="16.60023452692091"><ele>451.0</ele><time>2026-05-01T19:20:42.999Z</time></trkpt><trkpt lat="40.865395604352365" lon="16.600568282035933"><ele>451.0</ele><time>2026-05-01T19:20:43.999Z</time></trkpt><trkpt lat="40.86565169149056" lon="16.600907710807633"><ele>451.0</ele><time>2026-05-01T19:20:44.999Z</time></trkpt><trkpt lat="40.86589691541518" lon="16.601255655358674"><ele>451.0</ele><time>2026-05-01T19:20:45.999Z</time></trkpt><trkpt lat="40.86618500636012" lon="16.601613264391922"><ele>451.0</ele><time>2026-05-01T19:20:46.999Z</time></trkpt><trkpt lat="40.86646221304083" lon="16.60196348295329"><ele>450.5</ele><time>2026-05-01T19:20:47.999Z</time></trkpt><trkpt lat="40.866742246646" lon="16.602321130116003"><ele>450.0</ele><time>2026-05-01T19:20:48.999Z</time></trkpt><trkpt lat="40.8670166946051" lon="16.60267815318722"><ele>454.0</ele><time>2026-05-01T19:20:49.999Z</time></trkpt><trkpt lat="40.86728868017344" lon="16.603034862961902"><ele>458.0</ele><time>2026-05-01T19:20:50.999Z</time></trkpt><trkpt lat="40.867561976753166" lon="16.60338986960449"><ele>460.5</ele><time>2026-05-01T19:20:51.999Z</time></trkpt><trkpt lat="40.867838322233965" lon="16.603733740438887"><ele>463.0</ele><time>2026-05-01T19:20:52.999Z</time></trkpt><trkpt lat="40.86810645506822" lon="16.604082817597856"><ele>463.0</ele><time>2026-05-01T19:20:53.999Z</time></trkpt><trkpt lat="40.86836670469193" lon="16.60443880933346"><ele>463.0</ele><time>2026-05-01T19:20:54.999Z</time></trkpt><trkpt lat="40.86864275999374" lon="16.604797259591905"><ele>462.5</ele><time>2026-05-01T19:20:55.999Z</time></trkpt><trkpt lat="40.86891766790862" lon="16.605140709723333"><ele>462.0</ele><time>2026-05-01T19:20:56.999Z</time></trkpt><trkpt lat="40.869184518764534" lon="16.605475864826065"><ele>461.0</ele><time>2026-05-01T19:20:57.999Z</time></trkpt><trkpt lat="40.86943623764749" lon="16.60581270698844"><ele>460.0</ele><time>2026-05-01T19:20:58.999Z</time></trkpt><trkpt lat="40.869680543572436" lon="16.606136796099978"><ele>459.5</ele><time>2026-05-01T19:20:59.999Z</time></trkpt><trkpt lat="40.86992536863235" lon="16.606450389406394"><ele>459.0</ele><time>2026-05-01T19:21:00.999Z</time></trkpt><trkpt lat="40.87016064974286" lon="16.6067731396312"><ele>461.0</ele><time>2026-05-01T19:21:01.999Z</time></trkpt><trkpt lat="40.87038891316031" lon="16.607099766313507"><ele>463.0</ele><time>2026-05-01T19:21:02.999Z</time></trkpt><trkpt lat="40.87062205525943" lon="16.607420693326617"><ele>463.0</ele><time>2026-05-01T19:21:03.999Z</time></trkpt><trkpt lat="40.870854185230556" lon="16.60773144040708"><ele>463.0</ele><time>2026-05-01T19:21:04.999Z</time></trkpt><trkpt lat="40.87109151789182" lon="16.60804270795862"><ele>464.5</ele><time>2026-05-01T19:21:05.999Z</time></trkpt><trkpt lat="40.8713100172736" lon="16.608364494263487"><ele>466.0</ele><time>2026-05-01T19:21:06.999Z</time></trkpt><trkpt lat="40.87156388280285" lon="16.608657687399806"><ele>469.0</ele><time>2026-05-01T19:21:07.999Z</time></trkpt><trkpt lat="40.871805576723084" lon="16.60896089559221"><ele>472.0</ele><time>2026-05-01T19:21:08.999Z</time></trkpt><trkpt lat="40.87204516907608" lon="16.60926242580754"><ele>473.5</ele><time>2026-05-01T19:21:09.999Z</time></trkpt><trkpt lat="40.87228906310369" lon="16.609558417256288"><ele>475.0</ele><time>2026-05-01T19:21:10.999Z</time></trkpt><trkpt lat="40.87253289428081" lon="16.609845674885392"><ele>475.5</ele><time>2026-05-01T19:21:11.999Z</time></trkpt><trkpt lat="40.87278159808589" lon="16.61012751195073"><ele>476.0</ele><time>2026-05-01T19:21:12.999Z</time></trkpt><trkpt lat="40.873038344263364" lon="16.61040714112435"><ele>477.0</ele><time>2026-05-01T19:21:13.999Z</time></trkpt><trkpt lat="40.87330669182308" lon="16.610687336430466"><ele>478.0</ele><time>2026-05-01T19:21:14.999Z</time></trkpt><trkpt lat="40.87358006713873" lon="16.61096889783181"><ele>478.0</ele><time>2026-05-01T19:21:16Z</time></trkpt><trkpt lat="40.87386191759713" lon="16.611219240577707"><ele>478.0</ele><time>2026-05-01T19:21:17Z</time></trkpt><trkpt lat="40.87414274281283" lon="16.611474864178923"><ele>479.0</ele><time>2026-05-01T19:21:18Z</time></trkpt><trkpt lat="40.87441487823711" lon="16.611719306043195"><ele>480.0</ele><time>2026-05-01T19:21:19Z</time></trkpt><trkpt lat="40.87467947717369" lon="16.61195539304881"><ele>477.0</ele><time>2026-05-01T19:21:20Z</time></trkpt><trkpt lat="40.87495617291157" lon="16.612186602247295"><ele>474.0</ele><time>2026-05-01T19:21:21Z</time></trkpt><trkpt lat="40.875230834774435" lon="16.612404363365066"><ele>472.5</ele><time>2026-05-01T19:21:22Z</time></trkpt><trkpt lat="40.87552041905822" lon="16.612599826284665"><ele>471.0</ele><time>2026-05-01T19:21:23Z</time></trkpt><trkpt lat="40.87587176365055" lon="16.612745137893622"><ele>466.5</ele><time>2026-05-01T19:21:24Z</time></trkpt><trkpt lat="40.876083992215456" lon="16.61302556160325"><ele>462.0</ele><time>2026-05-01T19:21:25Z</time></trkpt><trkpt lat="40.876382995379274" lon="16.61323186564183"><ele>462.0</ele><time>2026-05-01T19:21:26Z</time></trkpt><trkpt lat="40.876687678179074" lon="16.613437885615546"><ele>462.0</ele><time>2026-05-01T19:21:27Z</time></trkpt><trkpt lat="40.876995889212274" lon="16.613634206812588"><ele>461.5</ele><time>2026-05-01T19:21:28Z</time></trkpt><trkpt lat="40.877310777489654" lon="16.61382329235099"><ele>461.0</ele><time>2026-05-01T19:21:29Z</time></trkpt><trkpt lat="40.877627710887964" lon="16.614007562903954"><ele>461.0</ele><time>2026-05-01T19:21:30Z</time></trkpt><trkpt lat="40.87794481135183" lon="16.614190676229217"><ele>461.0</ele><time>2026-05-01T19:21:31Z</time></trkpt><trkpt lat="40.897490420343146" lon="16.62522593476288"><ele>468.0</ele><time>2026-05-01T19:22:31.999Z</time></trkpt><trkpt lat="40.897788531922" lon="16.625319516701865"><ele>475.0</ele><time>2026-05-01T19:22:32.999Z</time></trkpt><trkpt lat="40.89807518932854" lon="16.625395242633335"><ele>475.0</ele><time>2026-05-01T19:22:33.999Z</time></trkpt><trkpt lat="40.898386464731715" lon="16.625461171469073"><ele>475.0</ele><time>2026-05-01T19:22:34.999Z</time></trkpt><trkpt lat="40.8986910841803" lon="16.625535028577403"><ele>475.5</ele><time>2026-05-01T19:22:35.999Z</time></trkpt><trkpt lat="40.89899226283344" lon="16.625602948023204"><ele>476.0</ele><time>2026-05-01T19:22:36.999Z</time></trkpt><trkpt lat="40.89929416481226" lon="16.625671044408858"><ele>476.5</ele><time>2026-05-01T19:22:37.999Z</time></trkpt><trkpt lat="40.89959728075808" lon="16.625737461009674"><ele>477.0</ele><time>2026-05-01T19:22:38.999Z</time></trkpt><trkpt lat="40.8998986780061" lon="16.625798041269036"><ele>475.5</ele><time>2026-05-01T19:22:39.999Z</time></trkpt><trkpt lat="40.90018821817369" lon="16.62584203046616"><ele>474.0</ele><time>2026-05-01T19:22:40.999Z</time></trkpt><trkpt lat="40.90050867805676" lon="16.62589829252409"><ele>474.0</ele><time>2026-05-01T19:22:41.999Z</time></trkpt><trkpt lat="40.90081509121457" lon="16.6259833014036"><ele>474.0</ele><time>2026-05-01T19:22:42.999Z</time></trkpt><trkpt lat="40.9011267039391" lon="16.62604696443133"><ele>475.0</ele><time>2026-05-01T19:22:43.999Z</time></trkpt><trkpt lat="40.90144684547772" lon="16.62611502109463"><ele>476.0</ele><time>2026-05-01T19:22:44.999Z</time></trkpt><trkpt lat="40.90176199566402" lon="16.62617790822365"><ele>476.0</ele><time>2026-05-01T19:22:45.999Z</time></trkpt><trkpt lat="40.90207471961096" lon="16.626245557410584"><ele>476.0</ele><time>2026-05-01T19:22:46.999Z</time></trkpt><trkpt lat="40.90239152917181" lon="16.62630948352403"><ele>475.5</ele><time>2026-05-01T19:22:47.999Z</time></trkpt><trkpt lat="40.902708997002115" lon="16.62637402435042"><ele>475.0</ele><time>2026-05-01T19:22:48.999Z</time></trkpt><trkpt lat="40.90302365098623" lon="16.6264461059486"><ele>475.0</ele><time>2026-05-01T19:22:49.999Z</time></trkpt><trkpt lat="40.90334400040015" lon="16.626511755153214"><ele>475.0</ele><time>2026-05-01T19:22:50.999Z</time></trkpt><trkpt lat="40.90365315771217" lon="16.626599225202387"><ele>473.5</ele><time>2026-05-01T19:22:51.999Z</time></trkpt><trkpt lat="40.90395188807604" lon="16.626767163384475"><ele>472.0</ele><time>2026-05-01T19:22:52.999Z</time></trkpt><trkpt lat="40.90424797510181" lon="16.626942271647124"><ele>472.0</ele><time>2026-05-01T19:22:53.999Z</time></trkpt><trkpt lat="40.90462630377677" lon="16.6267926463344"><ele>472.0</ele><time>2026-05-01T19:22:54.999Z</time></trkpt><trkpt lat="40.904950413581844" lon="16.626867990905975"><ele>469.5</ele><time>2026-05-01T19:22:55.999Z</time></trkpt><trkpt lat="40.90527445315356" lon="16.626939697918097"><ele>467.0</ele><time>2026-05-01T19:22:56.999Z</time></trkpt><trkpt lat="40.90560012743912" lon="16.62701620654962"><ele>465.0</ele><time>2026-05-01T19:22:57.999Z</time></trkpt><trkpt lat="40.90592710761221" lon="16.627088760706265"><ele>463.0</ele><time>2026-05-01T19:22:58.999Z</time></trkpt><trkpt lat="40.906250847044724" lon="16.627162808056763"><ele>463.0</ele><time>2026-05-01T19:22:59.999Z</time></trkpt><trkpt lat="40.90657160713363" lon="16.627235542399546"><ele>463.0</ele><time>2026-05-01T19:23:00.999Z</time></trkpt><trkpt lat="40.906888793946436" lon="16.62730362917721"><ele>463.0</ele><time>2026-05-01T19:23:01.999Z</time></trkpt><trkpt lat="40.907205065629455" lon="16.62737329338153"><ele>463.0</ele><time>2026-05-01T19:23:02.999Z</time></trkpt><trkpt lat="40.90752093637049" lon="16.627441719774513"><ele>463.0</ele><time>2026-05-01T19:23:03.999Z</time></trkpt><trkpt lat="40.907836168763154" lon="16.627509484325174"><ele>463.0</ele><time>2026-05-01T19:23:04.999Z</time></trkpt><trkpt lat="40.90816115575758" lon="16.627574681302253"><ele>462.5</ele><time>2026-05-01T19:23:05.999Z</time></trkpt><trkpt lat="40.90848551103206" lon="16.627647362946806"><ele>462.0</ele><time>2026-05-01T19:23:06.999Z</time></trkpt><trkpt lat="40.90881244688779" lon="16.627708361449713"><ele>462.0</ele><time>2026-05-01T19:23:07.999Z</time></trkpt><trkpt lat="40.90914395263215" lon="16.627781166617172"><ele>462.0</ele><time>2026-05-01T19:23:08.999Z</time></trkpt><trkpt lat="40.909479214302216" lon="16.627858764862513"><ele>461.5</ele><time>2026-05-01T19:23:09.999Z</time></trkpt><trkpt lat="40.909816450067844" lon="16.627937248667973"><ele>461.0</ele><time>2026-05-01T19:23:10.999Z</time></trkpt><trkpt lat="40.91015754961262" lon="16.628009351933244"><ele>459.5</ele><time>2026-05-01T19:23:11.999Z</time></trkpt><trkpt lat="40.91050012204478" lon="16.628083456576547"><ele>458.0</ele><time>2026-05-01T19:23:12.999Z</time></trkpt><trkpt lat="40.91084721879185" lon="16.628195164906575"><ele>456.0</ele><time>2026-05-01T19:23:13.999Z</time></trkpt><trkpt lat="40.911178541160176" lon="16.628251030014113"><ele>454.0</ele><time>2026-05-01T19:23:14.999Z</time></trkpt><trkpt lat="40.911520219634255" lon="16.628320718529697"><ele>451.5</ele><time>2026-05-01T19:23:15.999Z</time></trkpt><trkpt lat="40.91186303408677" lon="16.628385370864923"><ele>449.0</ele><time>2026-05-01T19:23:16.999Z</time></trkpt><trkpt lat="40.91220928782652" lon="16.628457161703338"><ele>449.0</ele><time>2026-05-01T19:23:17.999Z</time></trkpt><trkpt lat="40.912552910082624" lon="16.628532897551448"><ele>449.0</ele><time>2026-05-01T19:23:18.999Z</time></trkpt><trkpt lat="40.9128979574707" lon="16.628611244635316"><ele>448.0</ele><time>2026-05-01T19:23:19.999Z</time></trkpt><trkpt lat="40.913243781735765" lon="16.628689449078003"><ele>447.0</ele><time>2026-05-01T19:23:20.999Z</time></trkpt><trkpt lat="40.9135874085642" lon="16.628763894001036"><ele>446.5</ele><time>2026-05-01T19:23:22Z</time></trkpt><trkpt lat="40.91394439945433" lon="16.628825291585994"><ele>446.0</ele><time>2026-05-01T19:23:23Z</time></trkpt><trkpt lat="40.91428892234674" lon="16.628905617017946"><ele>448.0</ele><time>2026-05-01T19:23:24Z</time></trkpt><trkpt lat="40.91463375161863" lon="16.628981354998952"><ele>450.0</ele><time>2026-05-01T19:23:25Z</time></trkpt><trkpt lat="40.9149735854224" lon="16.629055817907478"><ele>450.5</ele><time>2026-05-01T19:23:26Z</time></trkpt><trkpt lat="40.91530928048843" lon="16.629135892539875"><ele>451.0</ele><time>2026-05-01T19:23:27Z</time></trkpt><trkpt lat="40.9156375203946" lon="16.629214037543882"><ele>450.0</ele><time>2026-05-01T19:23:28Z</time></trkpt><trkpt lat="40.91596075848015" lon="16.629295514860612"><ele>449.0</ele><time>2026-05-01T19:23:29Z</time></trkpt><trkpt lat="40.91626365063702" lon="16.629393630869863"><ele>448.5</ele><time>2026-05-01T19:23:30Z</time></trkpt><trkpt lat="40.91657018236784" lon="16.629480989851118"><ele>448.0</ele><time>2026-05-01T19:23:31Z</time></trkpt><trkpt lat="40.93410807422547" lon="16.636666684167665"><ele>409.5</ele><time>2026-05-01T19:24:31.999Z</time></trkpt><trkpt lat="40.93436884813237" lon="16.636774487020585"><ele>371.0</ele><time>2026-05-01T19:24:32.999Z</time></trkpt><trkpt lat="40.93464130851994" lon="16.63689031203263"><ele>371.0</ele><time>2026-05-01T19:24:33.999Z</time></trkpt><trkpt lat="40.93492807134926" lon="16.63700824071711"><ele>371.0</ele><time>2026-05-01T19:24:34.999Z</time></trkpt><trkpt lat="40.93521653115477" lon="16.6371347876541"><ele>371.0</ele><time>2026-05-01T19:24:35.999Z</time></trkpt><trkpt lat="40.935499124515665" lon="16.63726322360268"><ele>371.0</ele><time>2026-05-01T19:24:36.999Z</time></trkpt><trkpt lat="40.93580379520804" lon="16.637395471307215"><ele>370.0</ele><time>2026-05-01T19:24:37.999Z</time></trkpt><trkpt lat="40.93610618160419" lon="16.637535652886193"><ele>369.0</ele><time>2026-05-01T19:24:38.999Z</time></trkpt><trkpt lat="40.936413228980285" lon="16.63766998520845"><ele>367.5</ele><time>2026-05-01T19:24:39.999Z</time></trkpt><trkpt lat="40.936725924862564" lon="16.63777003355815"><ele>366.0</ele><time>2026-05-01T19:24:40.999Z</time></trkpt><trkpt lat="40.937065982525525" lon="16.63787007374659"><ele>366.0</ele><time>2026-05-01T19:24:41.999Z</time></trkpt><trkpt lat="40.93731022657037" lon="16.63809218076408"><ele>366.0</ele><time>2026-05-01T19:24:42.999Z</time></trkpt><trkpt lat="40.93757981678782" lon="16.638295255021166"><ele>366.0</ele><time>2026-05-01T19:24:43.999Z</time></trkpt><trkpt lat="40.937905765256374" lon="16.63836236153585"><ele>366.0</ele><time>2026-05-01T19:24:44.999Z</time></trkpt><trkpt lat="40.93819891789864" lon="16.638506459174934"><ele>366.0</ele><time>2026-05-01T19:24:45.999Z</time></trkpt><trkpt lat="40.93849759982758" lon="16.638653223608575"><ele>366.0</ele><time>2026-05-01T19:24:46.999Z</time></trkpt><trkpt lat="40.93880158854748" lon="16.638796535622916"><ele>366.0</ele><time>2026-05-01T19:24:47.999Z</time></trkpt><trkpt lat="40.939110089682224" lon="16.63893554992154"><ele>366.0</ele><time>2026-05-01T19:24:48.999Z</time></trkpt><trkpt lat="40.93942704718643" lon="16.639071536405705"><ele>365.5</ele><time>2026-05-01T19:24:49.999Z</time></trkpt><trkpt lat="40.9397387018076" lon="16.63920841255254"><ele>365.0</ele><time>2026-05-01T19:24:50.999Z</time></trkpt><trkpt lat="40.94005004825183" lon="16.639346663392946"><ele>364.0</ele><time>2026-05-01T19:24:51.999Z</time></trkpt><trkpt lat="40.94036832888968" lon="16.639484558452512"><ele>363.0</ele><time>2026-05-01T19:24:52.999Z</time></trkpt><trkpt lat="40.94068936224337" lon="16.639625550478844"><ele>363.0</ele><time>2026-05-01T19:24:53.999Z</time></trkpt><trkpt lat="40.94100851351783" lon="16.639755429248613"><ele>363.0</ele><time>2026-05-01T19:24:54.999Z</time></trkpt><trkpt lat="40.941337492293336" lon="16.639879076444057"><ele>363.0</ele><time>2026-05-01T19:24:55.999Z</time></trkpt><trkpt lat="40.94166701600252" lon="16.640002692431555"><ele>363.0</ele><time>2026-05-01T19:24:56.999Z</time></trkpt><trkpt lat="40.94200068930327" lon="16.64012689662526"><ele>363.5</ele><time>2026-05-01T19:24:57.999Z</time></trkpt><trkpt lat="40.94233529549061" lon="16.640250355114688"><ele>364.0</ele><time>2026-05-01T19:24:58.999Z</time></trkpt><trkpt lat="40.942671760245986" lon="16.64037583050508"><ele>363.0</ele><time>2026-05-01T19:24:59.999Z</time></trkpt><trkpt lat="40.94300625433609" lon="16.640502009605388"><ele>362.0</ele><time>2026-05-01T19:25:00.999Z</time></trkpt><trkpt lat="40.94333486850434" lon="16.640622984217178"><ele>361.5</ele><time>2026-05-01T19:25:01.999Z</time></trkpt><trkpt lat="40.94366596341651" lon="16.640752450016095"><ele>361.0</ele><time>2026-05-01T19:25:02.999Z</time></trkpt><trkpt lat="40.94400049658344" lon="16.64088755256268"><ele>361.0</ele><time>2026-05-01T19:25:03.999Z</time></trkpt><trkpt lat="40.94432725001735" lon="16.64101389151772"><ele>361.0</ele><time>2026-05-01T19:25:04.999Z</time></trkpt><trkpt lat="40.94465381849308" lon="16.641139869412164"><ele>360.5</ele><time>2026-05-01T19:25:05.999Z</time></trkpt><trkpt lat="40.944980907380206" lon="16.641262762460883"><ele>360.0</ele><time>2026-05-01T19:25:06.999Z</time></trkpt><trkpt lat="40.94528568523617" lon="16.64137791892029"><ele>360.0</ele><time>2026-05-01T19:25:07.999Z</time></trkpt><trkpt lat="40.94559843086619" lon="16.641502391942083"><ele>360.0</ele><time>2026-05-01T19:25:08.999Z</time></trkpt><trkpt lat="40.94592327878" lon="16.641632426463786"><ele>359.5</ele><time>2026-05-01T19:25:09.999Z</time></trkpt><trkpt lat="40.94623926864695" lon="16.641759337907345"><ele>359.0</ele><time>2026-05-01T19:25:10.999Z</time></trkpt><trkpt lat="40.946554581590554" lon="16.64188340827075"><ele>358.5</ele><time>2026-05-01T19:25:11.999Z</time></trkpt><trkpt lat="40.9468731421303" lon="16.64201262769723"><ele>358.0</ele><time>2026-05-01T19:25:12.999Z</time></trkpt><trkpt lat="40.94719521851458" lon="16.642151389637775"><ele>358.0</ele><time>2026-05-01T19:25:13.999Z</time></trkpt><trkpt lat="40.94751920106205" lon="16.64228639989409"><ele>358.0</ele><time>2026-05-01T19:25:14.999Z</time></trkpt><trkpt lat="40.94784301855865" lon="16.642419901810758"><ele>358.0</ele><time>2026-05-01T19:25:15.999Z</time></trkpt><trkpt lat="40.948168060139714" lon="16.642554209667672"><ele>358.0</ele><time>2026-05-01T19:25:16.999Z</time></trkpt><trkpt lat="40.94848130264111" lon="16.64267886795056"><ele>357.5</ele><time>2026-05-01T19:25:17.999Z</time></trkpt><trkpt lat="40.94878771194954" lon="16.642797477454703"><ele>357.0</ele><time>2026-05-01T19:25:18.999Z</time></trkpt><trkpt lat="40.94909476327881" lon="16.642929996488014"><ele>356.0</ele><time>2026-05-01T19:25:19.999Z</time></trkpt><trkpt lat="40.949407619068474" lon="16.64304684996742"><ele>355.0</ele><time>2026-05-01T19:25:20.999Z</time></trkpt><trkpt lat="40.949724525775984" lon="16.643168971700362"><ele>355.0</ele><time>2026-05-01T19:25:21.999Z</time></trkpt><trkpt lat="40.950035681698" lon="16.643298523149436"><ele>355.0</ele><time>2026-05-01T19:25:22.999Z</time></trkpt><trkpt lat="40.950348858890706" lon="16.643433479982097"><ele>354.5</ele><time>2026-05-01T19:25:23.999Z</time></trkpt><trkpt lat="40.95066454431869" lon="16.643573281545404"><ele>354.0</ele><time>2026-05-01T19:25:24.999Z</time></trkpt><trkpt lat="40.950983831767104" lon="16.64371386850542"><ele>353.0</ele><time>2026-05-01T19:25:25.999Z</time></trkpt><trkpt lat="40.95130803954248" lon="16.643854801291887"><ele>352.0</ele><time>2026-05-01T19:25:26.999Z</time></trkpt><trkpt lat="40.95163774173854" lon="16.643990766837312"><ele>352.0</ele><time>2026-05-01T19:25:28Z</time></trkpt><trkpt lat="40.95197051276094" lon="16.64412745811349"><ele>352.0</ele><time>2026-05-01T19:25:29Z</time></trkpt><trkpt lat="40.95231037821435" lon="16.644267404957606"><ele>352.0</ele><time>2026-05-01T19:25:30Z</time></trkpt><trkpt lat="40.95265518556095" lon="16.644409212262968"><ele>352.0</ele><time>2026-05-01T19:25:31Z</time></trkpt><trkpt lat="40.972194877798444" lon="16.65277216538077"><ele>339.0</ele><time>2026-05-01T19:26:32Z</time></trkpt><trkpt lat="40.972509374854894" lon="16.652910847810475"><ele>326.0</ele><time>2026-05-01T19:26:33Z</time></trkpt><trkpt lat="40.972822350636896" lon="16.653041519918506"><ele>324.0</ele><time>2026-05-01T19:26:34Z</time></trkpt><trkpt lat="40.97313622067227" lon="16.65318430445214"><ele>322.0</ele><time>2026-05-01T19:26:35Z</time></trkpt><trkpt lat="40.97345566505373" lon="16.653320064080766"><ele>320.0</ele><time>2026-05-01T19:26:35.999Z</time></trkpt><trkpt lat="40.973774474152314" lon="16.653460210532035"><ele>318.0</ele><time>2026-05-01T19:26:36.999Z</time></trkpt><trkpt lat="40.97408850255043" lon="16.6535970040245"><ele>317.5</ele><time>2026-05-01T19:26:37.999Z</time></trkpt><trkpt lat="40.97440273058708" lon="16.653729939314402"><ele>317.0</ele><time>2026-05-01T19:26:38.999Z</time></trkpt><trkpt lat="40.97471847344365" lon="16.65386489938935"><ele>316.0</ele><time>2026-05-01T19:26:39.999Z</time></trkpt><trkpt lat="40.97503214580482" lon="16.653998440525534"><ele>315.0</ele><time>2026-05-01T19:26:40.999Z</time></trkpt><trkpt lat="40.97533340611431" lon="16.654133093313202"><ele>315.0</ele><time>2026-05-01T19:26:41.999Z</time></trkpt><trkpt lat="40.975672740552724" lon="16.65429893352526"><ele>315.0</ele><time>2026-05-01T19:26:42.999Z</time></trkpt><trkpt lat="40.97595976537592" lon="16.65437752602337"><ele>314.5</ele><time>2026-05-01T19:26:43.999Z</time></trkpt><trkpt lat="40.9762589914777" lon="16.65447970886973"><ele>314.0</ele><time>2026-05-01T19:26:44.999Z</time></trkpt><trkpt lat="40.97655159459389" lon="16.654590847852578"><ele>311.5</ele><time>2026-05-01T19:26:45.999Z</time></trkpt><trkpt lat="40.976860862085765" lon="16.654694922752096"><ele>309.0</ele><time>2026-05-01T19:26:46.999Z</time></trkpt><trkpt lat="40.97715380782976" lon="16.65480630440745"><ele>309.0</ele><time>2026-05-01T19:26:47.999Z</time></trkpt><trkpt lat="40.9774778148807" lon="16.65492083510337"><ele>309.0</ele><time>2026-05-01T19:26:48.999Z</time></trkpt><trkpt lat="40.97779542603554" lon="16.655039765565302"><ele>309.0</ele><time>2026-05-01T19:26:49.999Z</time></trkpt><trkpt lat="40.97810342082111" lon="16.655157618860493"><ele>309.0</ele><time>2026-05-01T19:26:50.999Z</time></trkpt><trkpt lat="40.97842188034428" lon="16.6552675751455"><ele>309.5</ele><time>2026-05-01T19:26:51.999Z</time></trkpt><trkpt lat="40.97874145255024" lon="16.655379368884557"><ele>310.0</ele><time>2026-05-01T19:26:52.999Z</time></trkpt><trkpt lat="40.979057495263994" lon="16.655490370046746"><ele>308.5</ele><time>2026-05-01T19:26:53.999Z</time></trkpt><trkpt lat="40.97937130831631" lon="16.655604732677"><ele>307.0</ele><time>2026-05-01T19:26:54.999Z</time></trkpt><trkpt lat="40.97970698125607" lon="16.655736924160493"><ele>307.0</ele><time>2026-05-01T19:26:55.999Z</time></trkpt><trkpt lat="40.98001517234247" lon="16.655847123804215"><ele>307.0</ele><time>2026-05-01T19:26:56.999Z</time></trkpt><trkpt lat="40.98032452515358" lon="16.65595924393489"><ele>305.5</ele><time>2026-05-01T19:26:57.999Z</time></trkpt><trkpt lat="40.98063512497237" lon="16.656072419259466"><ele>304.0</ele><time>2026-05-01T19:26:58.999Z</time></trkpt><trkpt lat="40.9809435093296" lon="16.656182899411135"><ele>303.5</ele><time>2026-05-01T19:26:59.999Z</time></trkpt><trkpt lat="40.981247576212496" lon="16.65628807028157"><ele>303.0</ele><time>2026-05-01T19:27:00.999Z</time></trkpt><trkpt lat="40.981583118735664" lon="16.656398984416242"><ele>302.0</ele><time>2026-05-01T19:27:01.999Z</time></trkpt><trkpt lat="40.98187548950483" lon="16.656504446568594"><ele>301.0</ele><time>2026-05-01T19:27:02.999Z</time></trkpt><trkpt lat="40.982180751110754" lon="16.6566104897483"><ele>301.0</ele><time>2026-05-01T19:27:03.999Z</time></trkpt><trkpt lat="40.98248245684442" lon="16.656719169085985"><ele>301.0</ele><time>2026-05-01T19:27:04.999Z</time></trkpt><trkpt lat="40.982807342160484" lon="16.656826084084457"><ele>300.0</ele><time>2026-05-01T19:27:05.999Z</time></trkpt><trkpt lat="40.98310348272688" lon="16.65694312288662"><ele>299.0</ele><time>2026-05-01T19:27:06.999Z</time></trkpt><trkpt lat="40.98340848743072" lon="16.657057258900224"><ele>298.0</ele><time>2026-05-01T19:27:07.999Z</time></trkpt><trkpt lat="40.983713865017585" lon="16.65717017200491"><ele>297.0</ele><time>2026-05-01T19:27:08.999Z</time></trkpt><trkpt lat="40.984017726218234" lon="16.657279747901693"><ele>295.0</ele><time>2026-05-01T19:27:09.999Z</time></trkpt><trkpt lat="40.984324302783385" lon="16.65739278971946"><ele>293.0</ele><time>2026-05-01T19:27:10.999Z</time></trkpt><trkpt lat="40.984623537809874" lon="16.65749859969806"><ele>293.0</ele><time>2026-05-01T19:27:11.999Z</time></trkpt><trkpt lat="40.984933153686846" lon="16.657616009644574"><ele>293.0</ele><time>2026-05-01T19:27:12.999Z</time></trkpt><trkpt lat="40.98523424191495" lon="16.65772509991609"><ele>293.5</ele><time>2026-05-01T19:27:13.999Z</time></trkpt><trkpt lat="40.985526786638054" lon="16.657827736256728"><ele>294.0</ele><time>2026-05-01T19:27:14.999Z</time></trkpt><trkpt lat="40.985832866161125" lon="16.657936960050097"><ele>292.0</ele><time>2026-05-01T19:27:15.999Z</time></trkpt><trkpt lat="40.986137694757126" lon="16.658044091271297"><ele>290.0</ele><time>2026-05-01T19:27:16.999Z</time></trkpt><trkpt lat="40.986444659646644" lon="16.658152851453284"><ele>288.5</ele><time>2026-05-01T19:27:17.999Z</time></trkpt><trkpt lat="40.986744496774556" lon="16.658255782982963"><ele>287.0</ele><time>2026-05-01T19:27:18.999Z</time></trkpt><trkpt lat="40.987055457380855" lon="16.658355307135622"><ele>287.0</ele><time>2026-05-01T19:27:19.999Z</time></trkpt><trkpt lat="40.98737336731858" lon="16.658453741955835"><ele>287.0</ele><time>2026-05-01T19:27:20.999Z</time></trkpt><trkpt lat="40.98770013684519" lon="16.658566945852314"><ele>287.0</ele><time>2026-05-01T19:27:21.999Z</time></trkpt><trkpt lat="40.988026731293346" lon="16.658688206512203"><ele>287.0</ele><time>2026-05-01T19:27:22.999Z</time></trkpt><trkpt lat="40.98835472974192" lon="16.65880803758876"><ele>285.5</ele><time>2026-05-01T19:27:23.999Z</time></trkpt><trkpt lat="40.988689016359416" lon="16.65892910719962"><ele>284.0</ele><time>2026-05-01T19:27:24.999Z</time></trkpt><trkpt lat="40.98902013693642" lon="16.65904944304509"><ele>280.5</ele><time>2026-05-01T19:27:25.999Z</time></trkpt><trkpt lat="40.98935623475574" lon="16.659172454668887"><ele>277.0</ele><time>2026-05-01T19:27:26.999Z</time></trkpt><trkpt lat="40.98969186504158" lon="16.659300598769324"><ele>276.5</ele><time>2026-05-01T19:27:27.999Z</time></trkpt><trkpt lat="40.99002884613794" lon="16.65941863176047"><ele>276.0</ele><time>2026-05-01T19:27:28.999Z</time></trkpt><trkpt lat="40.99035748477359" lon="16.65953619908716"><ele>276.0</ele><time>2026-05-01T19:27:29.999Z</time></trkpt><trkpt lat="40.99068952546949" lon="16.659659371649433"><ele>276.0</ele><time>2026-05-01T19:27:30.999Z</time></trkpt><trkpt lat="41.008744564583246" lon="16.674932083765068"><ele>245.0</ele><time>2026-05-01T19:28:32Z</time></trkpt><trkpt lat="41.00904802637236" lon="16.67521901272071"><ele>214.0</ele><time>2026-05-01T19:28:33Z</time></trkpt><trkpt lat="41.009350544794934" lon="16.675507761945205"><ele>212.5</ele><time>2026-05-01T19:28:34Z</time></trkpt><trkpt lat="41.009656780874465" lon="16.67579667653953"><ele>211.0</ele><time>2026-05-01T19:28:35Z</time></trkpt><trkpt lat="41.00997083052756" lon="16.67609646953747"><ele>209.5</ele><time>2026-05-01T19:28:36Z</time></trkpt><trkpt lat="41.010291292640936" lon="16.676400326622407"><ele>208.0</ele><time>2026-05-01T19:28:37Z</time></trkpt><trkpt lat="41.01060380435431" lon="16.67669844715941"><ele>206.0</ele><time>2026-05-01T19:28:38Z</time></trkpt><trkpt lat="41.010887330028716" lon="16.67700370750051"><ele>204.0</ele><time>2026-05-01T19:28:39Z</time></trkpt><trkpt lat="41.01120443367708" lon="16.677272664064173"><ele>204.0</ele><time>2026-05-01T19:28:40Z</time></trkpt><trkpt lat="41.01149860010778" lon="16.677555181221784"><ele>204.0</ele><time>2026-05-01T19:28:41Z</time></trkpt><trkpt lat="41.011796354392196" lon="16.677839849537214"><ele>204.5</ele><time>2026-05-01T19:28:42Z</time></trkpt><trkpt lat="41.01210051231772" lon="16.678125576084206"><ele>205.0</ele><time>2026-05-01T19:28:43Z</time></trkpt><trkpt lat="41.01240548864885" lon="16.678411391995642"><ele>204.5</ele><time>2026-05-01T19:28:44Z</time></trkpt><trkpt lat="41.01271169216157" lon="16.67869731126612"><ele>204.0</ele><time>2026-05-01T19:28:45Z</time></trkpt><trkpt lat="41.013017039012574" lon="16.67897385593356"><ele>204.0</ele><time>2026-05-01T19:28:46Z</time></trkpt><trkpt lat="41.01331528636151" lon="16.679256973577772"><ele>204.0</ele><time>2026-05-01T19:28:47Z</time></trkpt><trkpt lat="41.01360926636283" lon="16.679532952261148"><ele>203.0</ele><time>2026-05-01T19:28:48Z</time></trkpt><trkpt lat="41.013905429335615" lon="16.67981418663682"><ele>202.0</ele><time>2026-05-01T19:28:49Z</time></trkpt><trkpt lat="41.0142070306274" lon="16.68009352237219"><ele>200.5</ele><time>2026-05-01T19:28:50Z</time></trkpt><trkpt lat="41.01450630161633" lon="16.6803592887327"><ele>199.0</ele><time>2026-05-01T19:28:51Z</time></trkpt><trkpt lat="41.01481791931359" lon="16.680622461936164"><ele>197.5</ele><time>2026-05-01T19:28:52Z</time></trkpt><trkpt lat="41.01513198332796" lon="16.680873566946396"><ele>196.0</ele><time>2026-05-01T19:28:53Z</time></trkpt><trkpt lat="41.01545570820991" lon="16.68111547024897"><ele>195.5</ele><time>2026-05-01T19:28:54Z</time></trkpt><trkpt lat="41.015794810639065" lon="16.681350730712683"><ele>195.0</ele><time>2026-05-01T19:28:54.999Z</time></trkpt><trkpt lat="41.016136866098726" lon="16.681585292137253"><ele>195.0</ele><time>2026-05-01T19:28:55.999Z</time></trkpt><trkpt lat="41.016476421130584" lon="16.68181547328103"><ele>195.0</ele><time>2026-05-01T19:28:56.999Z</time></trkpt><trkpt lat="41.01682127610502" lon="16.68203494020731"><ele>195.0</ele><time>2026-05-01T19:28:57.999Z</time></trkpt><trkpt lat="41.01717934982028" lon="16.6822501604986"><ele>195.0</ele><time>2026-05-01T19:28:58.999Z</time></trkpt><trkpt lat="41.01753568049417" lon="16.68246379295895"><ele>195.0</ele><time>2026-05-01T19:28:59.999Z</time></trkpt><trkpt lat="41.01786271574552" lon="16.68264308807991"><ele>195.0</ele><time>2026-05-01T19:29:00.999Z</time></trkpt><trkpt lat="41.01816643331917" lon="16.682803963897417"><ele>193.5</ele><time>2026-05-01T19:29:01.999Z</time></trkpt><trkpt lat="41.018462713181215" lon="16.682953900188167"><ele>192.0</ele><time>2026-05-01T19:29:02.999Z</time></trkpt><trkpt lat="41.01877075670964" lon="16.683100978401786"><ele>192.0</ele><time>2026-05-01T19:29:03.999Z</time></trkpt><trkpt lat="41.019090107960686" lon="16.683241459199557"><ele>192.0</ele><time>2026-05-01T19:29:04.999Z</time></trkpt><trkpt lat="41.01942557973861" lon="16.68337805532412"><ele>192.0</ele><time>2026-05-01T19:29:05.999Z</time></trkpt><trkpt lat="41.019760976571305" lon="16.68351861863556"><ele>192.0</ele><time>2026-05-01T19:29:06.999Z</time></trkpt><trkpt lat="41.02010307113729" lon="16.6836597357902"><ele>192.0</ele><time>2026-05-01T19:29:07.999Z</time></trkpt><trkpt lat="41.020453044318224" lon="16.683803279141873"><ele>192.0</ele><time>2026-05-01T19:29:08.999Z</time></trkpt><trkpt lat="41.020817097044315" lon="16.683965789162944"><ele>192.5</ele><time>2026-05-01T19:29:09.999Z</time></trkpt><trkpt lat="41.02118151155886" lon="16.684135615730952"><ele>193.0</ele><time>2026-05-01T19:29:10.999Z</time></trkpt><trkpt lat="41.021556184032036" lon="16.684287296959443"><ele>191.5</ele><time>2026-05-01T19:29:11.999Z</time></trkpt><trkpt lat="41.02193252295044" lon="16.684432195133617"><ele>190.0</ele><time>2026-05-01T19:29:12.999Z</time></trkpt><trkpt lat="41.02232115565336" lon="16.684585549163497"><ele>189.5</ele><time>2026-05-01T19:29:13.999Z</time></trkpt><trkpt lat="41.0227180338281" lon="16.68474114131633"><ele>189.0</ele><time>2026-05-01T19:29:14.999Z</time></trkpt><trkpt lat="41.02312267899447" lon="16.684897737989765"><ele>189.0</ele><time>2026-05-01T19:29:15.999Z</time></trkpt><trkpt lat="41.023533376806405" lon="16.68506299360384"><ele>189.0</ele><time>2026-05-01T19:29:16.999Z</time></trkpt><trkpt lat="41.02394461628438" lon="16.685235765701385"><ele>188.0</ele><time>2026-05-01T19:29:17.999Z</time></trkpt><trkpt lat="41.02435068800953" lon="16.68540716615505"><ele>187.0</ele><time>2026-05-01T19:29:18.999Z</time></trkpt><trkpt lat="41.024760437209245" lon="16.685572102365683"><ele>186.5</ele><time>2026-05-01T19:29:19.999Z</time></trkpt><trkpt lat="41.025175113823366" lon="16.685742225445036"><ele>186.0</ele><time>2026-05-01T19:29:20.999Z</time></trkpt><trkpt lat="41.02559292975543" lon="16.685909866049354"><ele>186.0</ele><time>2026-05-01T19:29:21.999Z</time></trkpt><trkpt lat="41.02599879640658" lon="16.686075134691738"><ele>186.0</ele><time>2026-05-01T19:29:22.999Z</time></trkpt><trkpt lat="41.02640244500376" lon="16.686251688651335"><ele>185.5</ele><time>2026-05-01T19:29:23.999Z</time></trkpt><trkpt lat="41.026813310510335" lon="16.686417081911515"><ele>185.0</ele><time>2026-05-01T19:29:24.999Z</time></trkpt><trkpt lat="41.02722565637438" lon="16.68658124247005"><ele>185.5</ele><time>2026-05-01T19:29:25.999Z</time></trkpt><trkpt lat="41.027634188858805" lon="16.686752591651935"><ele>186.0</ele><time>2026-05-01T19:29:26.999Z</time></trkpt><trkpt lat="41.0280530613084" lon="16.686931394144434"><ele>185.5</ele><time>2026-05-01T19:29:27.999Z</time></trkpt><trkpt lat="41.028472977504485" lon="16.687110495301702"><ele>185.0</ele><time>2026-05-01T19:29:28.999Z</time></trkpt><trkpt lat="41.02888999338286" lon="16.687290185186725"><ele>185.5</ele><time>2026-05-01T19:29:29.999Z</time></trkpt><trkpt lat="41.02930460599379" lon="16.68747087844661"><ele>186.0</ele><time>2026-05-01T19:29:30.999Z</time></trkpt><trkpt lat="41.04617053632705" lon="16.706848635529152"><ele>169.5</ele><time>2026-05-01T19:30:32Z</time></trkpt><trkpt lat="41.046311863793214" lon="16.707288082062405"><ele>153.0</ele><time>2026-05-01T19:30:33Z</time></trkpt><trkpt lat="41.046475324432784" lon="16.70769495300614"><ele>153.0</ele><time>2026-05-01T19:30:34Z</time></trkpt><trkpt lat="41.04659739682226" lon="16.708172051097183"><ele>153.0</ele><time>2026-05-01T19:30:35Z</time></trkpt><trkpt lat="41.046752961509156" lon="16.708621972790887"><ele>152.0</ele><time>2026-05-01T19:30:36Z</time></trkpt><trkpt lat="41.04689649129678" lon="16.709114190155987"><ele>151.0</ele><time>2026-05-01T19:30:37Z</time></trkpt><trkpt lat="41.04706125987737" lon="16.709597770531953"><ele>151.0</ele><time>2026-05-01T19:30:38Z</time></trkpt><trkpt lat="41.04721358031405" lon="16.710099940600514"><ele>151.0</ele><time>2026-05-01T19:30:39Z</time></trkpt><trkpt lat="41.04737519756275" lon="16.710588360063127"><ele>150.0</ele><time>2026-05-01T19:30:40Z</time></trkpt><trkpt lat="41.047547134412675" lon="16.711096007205548"><ele>149.0</ele><time>2026-05-01T19:30:41Z</time></trkpt><trkpt lat="41.047711348964384" lon="16.711588426065237"><ele>149.0</ele><time>2026-05-01T19:30:42Z</time></trkpt><trkpt lat="41.04787554588095" lon="16.71208889030966"><ele>149.0</ele><time>2026-05-01T19:30:43.022Z</time></trkpt><trkpt lat="41.04803794787368" lon="16.71258034897237"><ele>149.0</ele><time>2026-05-01T19:30:44.022Z</time></trkpt><trkpt lat="41.048194761981016" lon="16.713058258257046"><ele>149.0</ele><time>2026-05-01T19:30:45.022Z</time></trkpt><trkpt lat="41.04838009905366" lon="16.713514138203532"><ele>145.0</ele><time>2026-05-01T19:30:46.018Z</time></trkpt><trkpt lat="41.04973145298757" lon="16.71608925798602"><ele>144.5</ele><time>2026-05-01T19:30:53Z</time></trkpt><trkpt lat="41.04997013249835" lon="16.716519869384918"><ele>144.0</ele><time>2026-05-01T19:30:54Z</time></trkpt><trkpt lat="41.0502023582185" lon="16.71694556892323"><ele>143.5</ele><time>2026-05-01T19:30:55Z</time></trkpt><trkpt lat="41.050440477914826" lon="16.71735687468113"><ele>143.0</ele><time>2026-05-01T19:30:56Z</time></trkpt><trkpt lat="41.05076000606774" lon="16.717784774481633"><ele>140.0</ele><time>2026-05-01T19:30:57Z</time></trkpt><trkpt lat="41.05108114937725" lon="16.7182682015592"><ele>139.5</ele><time>2026-05-01T19:30:58Z</time></trkpt><trkpt lat="41.051395037672606" lon="16.71865017966914"><ele>139.0</ele><time>2026-05-01T19:30:59Z</time></trkpt><trkpt lat="41.051697176202296" lon="16.719049740328856"><ele>137.5</ele><time>2026-05-01T19:31:00Z</time></trkpt><trkpt lat="41.05200696939512" lon="16.719432121698947"><ele>136.0</ele><time>2026-05-01T19:31:01Z</time></trkpt><trkpt lat="41.05232456878634" lon="16.719803438805343"><ele>136.0</ele><time>2026-05-01T19:31:02Z</time></trkpt><trkpt lat="41.05264931759271" lon="16.72019241143437"><ele>136.0</ele><time>2026-05-01T19:31:03Z</time></trkpt><trkpt lat="41.052982528467666" lon="16.72053053511715"><ele>134.5</ele><time>2026-05-01T19:31:04Z</time></trkpt><trkpt lat="41.05333467878921" lon="16.720884221461937"><ele>133.0</ele><time>2026-05-01T19:31:05Z</time></trkpt><trkpt lat="41.05369472360205" lon="16.72122999478912"><ele>133.0</ele><time>2026-05-01T19:31:05.999Z</time></trkpt><trkpt lat="41.05405640742699" lon="16.721572802915535"><ele>133.0</ele><time>2026-05-01T19:31:06.999Z</time></trkpt><trkpt lat="41.054436509253954" lon="16.721901580428387"><ele>130.0</ele><time>2026-05-01T19:31:07.999Z</time></trkpt><trkpt lat="41.05482212463929" lon="16.72220862933416"><ele>128.0</ele><time>2026-05-01T19:31:08.999Z</time></trkpt><trkpt lat="41.05522176327933" lon="16.722509762183478"><ele>126.0</ele><time>2026-05-01T19:31:09.999Z</time></trkpt><trkpt lat="41.05562249878856" lon="16.722796396058968"><ele>126.0</ele><time>2026-05-01T19:31:10.999Z</time></trkpt><trkpt lat="41.05603878616788" lon="16.723056486070906"><ele>126.0</ele><time>2026-05-01T19:31:11.999Z</time></trkpt><trkpt lat="41.056440586948476" lon="16.723300106818243"><ele>126.0</ele><time>2026-05-01T19:31:12.999Z</time></trkpt><trkpt lat="41.05684928299955" lon="16.723566670522196"><ele>124.0</ele><time>2026-05-01T19:31:13.999Z</time></trkpt><trkpt lat="41.05727529135783" lon="16.723803545480713"><ele>123.0</ele><time>2026-05-01T19:31:14.999Z</time></trkpt><trkpt lat="41.05771538398918" lon="16.72403392731257"><ele>123.0</ele><time>2026-05-01T19:31:15.999Z</time></trkpt><trkpt lat="41.058143761046786" lon="16.7242208393907"><ele>123.0</ele><time>2026-05-01T19:31:16.999Z</time></trkpt><trkpt lat="41.058578517046385" lon="16.724410597624928"><ele>123.0</ele><time>2026-05-01T19:31:17.999Z</time></trkpt><trkpt lat="41.059018540355616" lon="16.7245876444777"><ele>122.0</ele><time>2026-05-01T19:31:18.999Z</time></trkpt><trkpt lat="41.059470970659966" lon="16.724751335690172"><ele>122.0</ele><time>2026-05-01T19:31:19.999Z</time></trkpt><trkpt lat="41.0599220729075" lon="16.724904766343503"><ele>120.0</ele><time>2026-05-01T19:31:20.999Z</time></trkpt><trkpt lat="41.06037570639893" lon="16.725048926470706"><ele>119.0</ele><time>2026-05-01T19:31:21.999Z</time></trkpt><trkpt lat="41.060831075242305" lon="16.72520237734653"><ele>118.0</ele><time>2026-05-01T19:31:22.999Z</time></trkpt><trkpt lat="41.06130194868779" lon="16.7253565270316"><ele>118.5</ele><time>2026-05-01T19:31:23.999Z</time></trkpt><trkpt lat="41.06171207654099" lon="16.725509601659788"><ele>119.0</ele><time>2026-05-01T19:31:24.999Z</time></trkpt><trkpt lat="41.06213663846615" lon="16.725671460267115"><ele>118.0</ele><time>2026-05-01T19:31:25.999Z</time></trkpt><trkpt lat="41.062563892217774" lon="16.72585699467683"><ele>118.0</ele><time>2026-05-01T19:31:26.999Z</time></trkpt><trkpt lat="41.062977364306604" lon="16.72605004093891"><ele>118.0</ele><time>2026-05-01T19:31:27.999Z</time></trkpt><trkpt lat="41.06337564518643" lon="16.726248402711768"><ele>117.0</ele><time>2026-05-01T19:31:28.999Z</time></trkpt><trkpt lat="41.063743163835916" lon="16.726452219385997"><ele>116.0</ele><time>2026-05-01T19:31:29.999Z</time></trkpt><trkpt lat="41.06408975779953" lon="16.726659089549127"><ele>92.0</ele><time>2026-05-01T19:31:30.999Z</time></trkpt><trkpt lat="41.07695534145818" lon="16.75777218483366"><ele>92.0</ele><time>2026-05-01T19:32:32Z</time></trkpt><trkpt lat="41.077158357391596" lon="16.758152836186113"><ele>92.0</ele><time>2026-05-01T19:32:33Z</time></trkpt><trkpt lat="41.07735374978283" lon="16.758526289278944"><ele>91.5</ele><time>2026-05-01T19:32:34Z</time></trkpt><trkpt lat="41.07755152776815" lon="16.758887293082743"><ele>91.0</ele><time>2026-05-01T19:32:35Z</time></trkpt><trkpt lat="41.07774357166347" lon="16.75926919808948"><ele>92.0</ele><time>2026-05-01T19:32:36Z</time></trkpt><trkpt lat="41.07794868308029" lon="16.759695719381554"><ele>93.0</ele><time>2026-05-01T19:32:37Z</time></trkpt><trkpt lat="41.078187055417125" lon="16.76012604061564"><ele>91.5</ele><time>2026-05-01T19:32:38Z</time></trkpt><trkpt lat="41.07844791730675" lon="16.76056958480957"><ele>90.0</ele><time>2026-05-01T19:32:39Z</time></trkpt><trkpt lat="41.07870382434945" lon="16.761038851387607"><ele>89.0</ele><time>2026-05-01T19:32:40Z</time></trkpt><trkpt lat="41.0789606387401" lon="16.7615424366224"><ele>88.0</ele><time>2026-05-01T19:32:41Z</time></trkpt><trkpt lat="41.07923012108789" lon="16.762058331885164"><ele>88.0</ele><time>2026-05-01T19:32:42Z</time></trkpt><trkpt lat="41.079514144639816" lon="16.762580945908688"><ele>88.0</ele><time>2026-05-01T19:32:43Z</time></trkpt><trkpt lat="41.07979863407521" lon="16.76311184017924"><ele>87.0</ele><time>2026-05-01T19:32:44Z</time></trkpt><trkpt lat="41.08007910334925" lon="16.763647785087606"><ele>87.0</ele><time>2026-05-01T19:32:45Z</time></trkpt><trkpt lat="41.080358626524735" lon="16.764171824179517"><ele>88.0</ele><time>2026-05-01T19:32:46Z</time></trkpt><trkpt lat="41.080634685796895" lon="16.764680623606072"><ele>86.0</ele><time>2026-05-01T19:32:47Z</time></trkpt><trkpt lat="41.08090099718628" lon="16.765168720149404"><ele>85.5</ele><time>2026-05-01T19:32:48Z</time></trkpt><trkpt lat="41.081137675127735" lon="16.76562406319909"><ele>85.0</ele><time>2026-05-01T19:32:49Z</time></trkpt><trkpt lat="41.08137710970615" lon="16.766076445799563"><ele>85.0</ele><time>2026-05-01T19:32:50Z</time></trkpt><trkpt lat="41.08162638080927" lon="16.766547603804366"><ele>85.0</ele><time>2026-05-01T19:32:51Z</time></trkpt><trkpt lat="41.08187953592873" lon="16.767026267368415"><ele>84.0</ele><time>2026-05-01T19:32:52Z</time></trkpt><trkpt lat="41.082141983729564" lon="16.767513644908743"><ele>83.5</ele><time>2026-05-01T19:32:53Z</time></trkpt><trkpt lat="41.08240031823588" lon="16.768000768903526"><ele>83.0</ele><time>2026-05-01T19:32:54Z</time></trkpt><trkpt lat="41.08266271298738" lon="16.768496668879052"><ele>83.0</ele><time>2026-05-01T19:32:55Z</time></trkpt><trkpt lat="41.082929242354346" lon="16.769002308748625"><ele>82.0</ele><time>2026-05-01T19:32:56Z</time></trkpt><trkpt lat="41.083197337038456" lon="16.769522484337422"><ele>82.0</ele><time>2026-05-01T19:32:57Z</time></trkpt><trkpt lat="41.08344191999802" lon="16.769977824751848"><ele>82.0</ele><time>2026-05-01T19:32:58Z</time></trkpt><trkpt lat="41.083677081567295" lon="16.770422817794433"><ele>82.0</ele><time>2026-05-01T19:32:59Z</time></trkpt><trkpt lat="41.083905931642946" lon="16.770858450805264"><ele>82.0</ele><time>2026-05-01T19:33:00Z</time></trkpt><trkpt lat="41.08411835615357" lon="16.77126282031532"><ele>82.0</ele><time>2026-05-01T19:33:01Z</time></trkpt><trkpt lat="41.08430299204768" lon="16.771626814840324"><ele>82.0</ele><time>2026-05-01T19:33:02Z</time></trkpt><trkpt lat="41.08446006840571" lon="16.771956045676664"><ele>82.0</ele><time>2026-05-01T19:33:03Z</time></trkpt><trkpt lat="41.08456606192534" lon="16.772232266609606"><ele>82.0</ele><time>2026-05-01T19:33:04Z</time></trkpt><trkpt lat="41.0847152271436" lon="16.772467545294674"><ele>82.0</ele><time>2026-05-01T19:33:05Z</time></trkpt><trkpt lat="41.08484912136655" lon="16.772691397290735"><ele>82.0</ele><time>2026-05-01T19:33:06Z</time></trkpt><trkpt lat="41.08496388382387" lon="16.772910664885465"><ele>82.0</ele><time>2026-05-01T19:33:07Z</time></trkpt><trkpt lat="41.08508928712056" lon="16.773151964166292"><ele>82.0</ele><time>2026-05-01T19:33:08Z</time></trkpt><trkpt lat="41.08522512750635" lon="16.773413369731436"><ele>82.0</ele><time>2026-05-01T19:33:09Z</time></trkpt><trkpt lat="41.0853676816871" lon="16.773674844326035"><ele>81.33333333333333</ele><time>2026-05-01T19:33:10Z</time></trkpt><trkpt lat="41.08548669708848" lon="16.77391985632508"><ele>80.66666666666667</ele><time>2026-05-01T19:33:11Z</time></trkpt><trkpt lat="41.08561174142126" lon="16.774155361283665"><ele>80.0</ele><time>2026-05-01T19:33:12Z</time></trkpt><trkpt lat="41.08572631658781" lon="16.77437472386736"><ele>79.0</ele><time>2026-05-01T19:33:13Z</time></trkpt><trkpt lat="41.0858458525437" lon="16.774594250225196"><ele>78.0</ele><time>2026-05-01T19:33:14Z</time></trkpt><trkpt lat="41.08598687638484" lon="16.7747553728007"><ele>77.0</ele><time>2026-05-01T19:33:15Z</time></trkpt><trkpt lat="41.08611882940191" lon="16.77491009013449"><ele>77.0</ele><time>2026-05-01T19:33:16Z</time></trkpt><trkpt lat="41.08625911171841" lon="16.775076273704958"><ele>77.0</ele><time>2026-05-01T19:33:17Z</time></trkpt><trkpt lat="41.08641979273742" lon="16.775233530387226"><ele>77.0</ele><time>2026-05-01T19:33:18Z</time></trkpt><trkpt lat="41.08658344208068" lon="16.77538128821434"><ele>77.0</ele><time>2026-05-01T19:33:19Z</time></trkpt><trkpt lat="41.08672740584154" lon="16.77556038193442"><ele>77.0</ele><time>2026-05-01T19:33:20Z</time></trkpt><trkpt lat="41.086847096208" lon="16.775806074257037"><ele>77.0</ele><time>2026-05-01T19:33:21Z</time></trkpt><trkpt lat="41.08695013648422" lon="16.77610658564932"><ele>77.5</ele><time>2026-05-01T19:33:22Z</time></trkpt><trkpt lat="41.08704466993801" lon="16.77644232974141"><ele>78.0</ele><time>2026-05-01T19:33:23Z</time></trkpt><trkpt lat="41.08715174857211" lon="16.776750052939754"><ele>78.0</ele><time>2026-05-01T19:33:24Z</time></trkpt><trkpt lat="41.08727538010588" lon="16.777048931556326"><ele>78.0</ele><time>2026-05-01T19:33:25Z</time></trkpt><trkpt lat="41.08744087226037" lon="16.77740262046027"><ele>78.0</ele><time>2026-05-01T19:33:26Z</time></trkpt><trkpt lat="41.08766620660348" lon="16.777751070652563"><ele>78.0</ele><time>2026-05-01T19:33:27Z</time></trkpt><trkpt lat="41.08784157614426" lon="16.778141600499264"><ele>78.0</ele><time>2026-05-01T19:33:27.999Z</time></trkpt><trkpt lat="41.08801824287978" lon="16.778509168178974"><ele>78.0</ele><time>2026-05-01T19:33:28.999Z</time></trkpt><trkpt lat="41.08819168363606" lon="16.778932633788678"><ele>75.0</ele><time>2026-05-01T19:33:29.999Z</time></trkpt><trkpt lat="41.08847445130922" lon="16.779470454030296"><ele>47.0</ele><time>2026-05-01T19:33:30.999Z</time></trkpt><trkpt lat="41.101036925100345" lon="16.80192468866703"><ele>47.0</ele><time>2026-05-01T19:34:32Z</time></trkpt><trkpt lat="41.101179722866256" lon="16.802422014524925"><ele>47.0</ele><time>2026-05-01T19:34:33Z</time></trkpt><trkpt lat="41.10132265187863" lon="16.802945648284627"><ele>46.5</ele><time>2026-05-01T19:34:34Z</time></trkpt><trkpt lat="41.10145635363193" lon="16.80345140482396"><ele>46.0</ele><time>2026-05-01T19:34:35Z</time></trkpt><trkpt lat="41.101571516257245" lon="16.803929190410678"><ele>44.5</ele><time>2026-05-01T19:34:36Z</time></trkpt><trkpt lat="41.10168684745943" lon="16.804401513320677"><ele>43.0</ele><time>2026-05-01T19:34:37Z</time></trkpt><trkpt lat="41.10180902999612" lon="16.804899864483843"><ele>44.5</ele><time>2026-05-01T19:34:38Z</time></trkpt><trkpt lat="41.10193314765205" lon="16.805417075888784"><ele>46.0</ele><time>2026-05-01T19:34:39Z</time></trkpt><trkpt lat="41.102047174148495" lon="16.80595541571315"><ele>46.5</ele><time>2026-05-01T19:34:40Z</time></trkpt><trkpt lat="41.10216423885413" lon="16.80648638369343"><ele>47.0</ele><time>2026-05-01T19:34:41Z</time></trkpt><trkpt lat="41.10230663432325" lon="16.807022406577385"><ele>45.5</ele><time>2026-05-01T19:34:42Z</time></trkpt><trkpt lat="41.102429759870994" lon="16.807566979681994"><ele>44.0</ele><time>2026-05-01T19:34:43Z</time></trkpt><trkpt lat="41.10254980344427" lon="16.808120756708014"><ele>42.5</ele><time>2026-05-01T19:34:44Z</time></trkpt><trkpt lat="41.1026608214314" lon="16.808686979205063"><ele>41.0</ele><time>2026-05-01T19:34:45Z</time></trkpt><trkpt lat="41.10278442609412" lon="16.809197190002322"><ele>40.0</ele><time>2026-05-01T19:34:46Z</time></trkpt><trkpt lat="41.10289794116815" lon="16.809672224511342"><ele>39.0</ele><time>2026-05-01T19:34:47Z</time></trkpt><trkpt lat="41.103009763247115" lon="16.81015677499622"><ele>39.0</ele><time>2026-05-01T19:34:48Z</time></trkpt><trkpt lat="41.10312236048601" lon="16.810651467717417"><ele>39.0</ele><time>2026-05-01T19:34:49Z</time></trkpt><trkpt lat="41.10323474489603" lon="16.811151271429946"><ele>38.5</ele><time>2026-05-01T19:34:50Z</time></trkpt><trkpt lat="41.10335258336851" lon="16.81167718209955"><ele>38.0</ele><time>2026-05-01T19:34:51Z</time></trkpt><trkpt lat="41.103461475275715" lon="16.812179988950014"><ele>37.5</ele><time>2026-05-01T19:34:52Z</time></trkpt><trkpt lat="41.103560793195705" lon="16.812649121675033"><ele>37.0</ele><time>2026-05-01T19:34:53Z</time></trkpt><trkpt lat="41.10364647913125" lon="16.813056982914336"><ele>37.0</ele><time>2026-05-01T19:34:54Z</time></trkpt><trkpt lat="41.10373413149536" lon="16.813463678000236"><ele>37.0</ele><time>2026-05-01T19:34:55Z</time></trkpt><trkpt lat="41.103819475671195" lon="16.813845160425615"><ele>35.5</ele><time>2026-05-01T19:34:56Z</time></trkpt><trkpt lat="41.103894873749454" lon="16.814203375959654"><ele>34.0</ele><time>2026-05-01T19:34:57Z</time></trkpt><trkpt lat="41.103961365061444" lon="16.81451078554917"><ele>33.66666666666667</ele><time>2026-05-01T19:34:58Z</time></trkpt><trkpt lat="41.104017416206595" lon="16.81477476455985"><ele>33.333333333333336</ele><time>2026-05-01T19:34:59Z</time></trkpt><trkpt lat="41.10406162623832" lon="16.814992541786967"><ele>33.0</ele><time>2026-05-01T19:35:00Z</time></trkpt><trkpt lat="41.10410097765322" lon="16.81519355843477"><ele>32.75</ele><time>2026-05-01T19:35:01Z</time></trkpt><trkpt lat="41.10413992783611" lon="16.815357816838965"><ele>32.5</ele><time>2026-05-01T19:35:02Z</time></trkpt><trkpt lat="41.10416996193142" lon="16.81547695112077"><ele>32.25</ele><time>2026-05-01T19:35:03Z</time></trkpt><trkpt lat="41.10418656204901" lon="16.8155959891495"><ele>32.0</ele><time>2026-05-01T19:35:05Z</time></trkpt><trkpt lat="41.10051154471674" lon="16.82276006554627"><ele>31.5</ele><time>2026-05-01T19:46:32Z</time></trkpt><trkpt lat="41.100256120103964" lon="16.82298468286591"><ele>31.0</ele><time>2026-05-01T19:46:33Z</time></trkpt><trkpt lat="41.10002459138534" lon="16.823213840150775"><ele>31.5</ele><time>2026-05-01T19:46:34Z</time></trkpt><trkpt lat="41.09979514496778" lon="16.82345008492702"><ele>32.0</ele><time>2026-05-01T19:46:35Z</time></trkpt><trkpt lat="41.099570544918095" lon="16.823694611476164"><ele>32.0</ele><time>2026-05-01T19:46:36Z</time></trkpt><trkpt lat="41.099348625454354" lon="16.823951041287085"><ele>32.0</ele><time>2026-05-01T19:46:37Z</time></trkpt><trkpt lat="41.099139053911934" lon="16.824222627268185"><ele>30.0</ele><time>2026-05-01T19:46:38Z</time></trkpt><trkpt lat="41.098927950899146" lon="16.82450679635773"><ele>28.0</ele><time>2026-05-01T19:46:39Z</time></trkpt><trkpt lat="41.09872067552959" lon="16.824787192056206"><ele>28.0</ele><time>2026-05-01T19:46:40Z</time></trkpt><trkpt lat="41.09850831439772" lon="16.825063323320816"><ele>28.0</ele><time>2026-05-01T19:46:41Z</time></trkpt><trkpt lat="41.09831406895978" lon="16.825329881081824"><ele>28.5</ele><time>2026-05-01T19:46:42Z</time></trkpt><trkpt lat="41.09811554757124" lon="16.825612939089115"><ele>29.0</ele><time>2026-05-01T19:46:43Z</time></trkpt><trkpt lat="41.09792456740513" lon="16.825898673312004"><ele>31.0</ele><time>2026-05-01T19:46:44Z</time></trkpt><trkpt lat="41.097757048959444" lon="16.826193669182107"><ele>33.0</ele><time>2026-05-01T19:46:45Z</time></trkpt><trkpt lat="41.09758635513294" lon="16.82649247266043"><ele>33.0</ele><time>2026-05-01T19:46:46Z</time></trkpt><trkpt lat="41.097428246584464" lon="16.826785149339255"><ele>33.0</ele><time>2026-05-01T19:46:47Z</time></trkpt><trkpt lat="41.097276041873876" lon="16.82707514984669"><ele>34.5</ele><time>2026-05-01T19:46:48Z</time></trkpt><trkpt lat="41.097134516479656" lon="16.827356002906708"><ele>36.0</ele><time>2026-05-01T19:46:49Z</time></trkpt><trkpt lat="41.096969254193446" lon="16.82763018883693"><ele>35.5</ele><time>2026-05-01T19:46:50Z</time></trkpt><trkpt lat="41.09684804798973" lon="16.827946751678045"><ele>35.0</ele><time>2026-05-01T19:46:51Z</time></trkpt><trkpt lat="41.09672134214642" lon="16.828245559335514"><ele>35.0</ele><time>2026-05-01T19:46:52Z</time></trkpt><trkpt lat="41.09659424117309" lon="16.82855615773433"><ele>35.0</ele><time>2026-05-01T19:46:53Z</time></trkpt><trkpt lat="41.096472654081786" lon="16.828902783505182"><ele>36.5</ele><time>2026-05-01T19:46:54Z</time></trkpt><trkpt lat="41.09635969971448" lon="16.82930952073379"><ele>38.0</ele><time>2026-05-01T19:46:55Z</time></trkpt><trkpt lat="41.09622449018836" lon="16.829653639716028"><ele>38.0</ele><time>2026-05-01T19:46:56Z</time></trkpt><trkpt lat="41.09610088555257" lon="16.830038047745344"><ele>38.0</ele><time>2026-05-01T19:46:57Z</time></trkpt><trkpt lat="41.095991320580744" lon="16.83041581731758"><ele>37.5</ele><time>2026-05-01T19:46:58Z</time></trkpt><trkpt lat="41.09588615655497" lon="16.83082756337907"><ele>37.0</ele><time>2026-05-01T19:46:59Z</time></trkpt><trkpt lat="41.09579835583371" lon="16.83125150771682"><ele>37.5</ele><time>2026-05-01T19:47:00Z</time></trkpt><trkpt lat="41.0956981838976" lon="16.831688650759293"><ele>38.0</ele><time>2026-05-01T19:47:01Z</time></trkpt><trkpt lat="41.09552456031443" lon="16.832032377968353"><ele>38.0</ele><time>2026-05-01T19:47:02Z</time></trkpt><trkpt lat="41.09543698733534" lon="16.832423364833076"><ele>38.0</ele><time>2026-05-01T19:47:03Z</time></trkpt><trkpt lat="41.095300191666695" lon="16.832814429477306"><ele>36.5</ele><time>2026-05-01T19:47:04Z</time></trkpt><trkpt lat="41.095200482966305" lon="16.833216421765574"><ele>35.0</ele><time>2026-05-01T19:47:05Z</time></trkpt><trkpt lat="41.09509618835936" lon="16.833601052799043"><ele>35.5</ele><time>2026-05-01T19:47:06Z</time></trkpt><trkpt lat="41.09499595024074" lon="16.833993232417637"><ele>36.0</ele><time>2026-05-01T19:47:07Z</time></trkpt><trkpt lat="41.0948948322956" lon="16.83439889384638"><ele>36.0</ele><time>2026-05-01T19:47:08Z</time></trkpt><trkpt lat="41.0947929651242" lon="16.83481762480853"><ele>36.0</ele><time>2026-05-01T19:47:09Z</time></trkpt><trkpt lat="41.09469437381702" lon="16.83524254710005"><ele>36.5</ele><time>2026-05-01T19:47:10Z</time></trkpt><trkpt lat="41.09459781607336" lon="16.835658516268946"><ele>37.0</ele><time>2026-05-01T19:47:11Z</time></trkpt><trkpt lat="41.09450227723607" lon="16.8360679882315"><ele>37.0</ele><time>2026-05-01T19:47:12Z</time></trkpt><trkpt lat="41.094405517018984" lon="16.83647689016261"><ele>37.0</ele><time>2026-05-01T19:47:13Z</time></trkpt><trkpt lat="41.094325119991474" lon="16.836822541336545"><ele>36.5</ele><time>2026-05-01T19:47:14Z</time></trkpt><trkpt lat="41.09423120329829" lon="16.837195387188707"><ele>36.0</ele><time>2026-05-01T19:47:15Z</time></trkpt><trkpt lat="41.09414245501165" lon="16.83757008352047"><ele>36.5</ele><time>2026-05-01T19:47:16Z</time></trkpt><trkpt lat="41.094050208776565" lon="16.837943039970476"><ele>37.0</ele><time>2026-05-01T19:47:17Z</time></trkpt><trkpt lat="41.09395637496677" lon="16.838315128775022"><ele>37.0</ele><time>2026-05-01T19:47:18Z</time></trkpt><trkpt lat="41.093876765133366" lon="16.838702635055707"><ele>37.0</ele><time>2026-05-01T19:47:19Z</time></trkpt><trkpt lat="41.09376760413855" lon="16.839084631996094"><ele>38.0</ele><time>2026-05-01T19:47:20Z</time></trkpt><trkpt lat="41.09367209427381" lon="16.83946567089639"><ele>39.0</ele><time>2026-05-01T19:47:21Z</time></trkpt><trkpt lat="41.09357302012939" lon="16.83984961693564"><ele>38.5</ele><time>2026-05-01T19:47:22Z</time></trkpt><trkpt lat="41.09347330035549" lon="16.84024262327677"><ele>38.0</ele><time>2026-05-01T19:47:23Z</time></trkpt><trkpt lat="41.0933800489816" lon="16.840637091017353"><ele>37.5</ele><time>2026-05-01T19:47:24Z</time></trkpt><trkpt lat="41.093276075718805" lon="16.841003492127246"><ele>37.0</ele><time>2026-05-01T19:47:25Z</time></trkpt><trkpt lat="41.09317961170922" lon="16.841398024711264"><ele>37.0</ele><time>2026-05-01T19:47:26Z</time></trkpt><trkpt lat="41.09307387689235" lon="16.841798125357922"><ele>37.0</ele><time>2026-05-01T19:47:27Z</time></trkpt><trkpt lat="41.09298374176313" lon="16.842192473198526"><ele>37.5</ele><time>2026-05-01T19:47:28Z</time></trkpt><trkpt lat="41.09288441084595" lon="16.842599361480005"><ele>38.0</ele><time>2026-05-01T19:47:29Z</time></trkpt><trkpt lat="41.09278577684035" lon="16.843009339657545"><ele>38.0</ele><time>2026-05-01T19:47:30Z</time></trkpt><trkpt lat="41.092688490334304" lon="16.843421664883163"><ele>38.0</ele><time>2026-05-01T19:47:31Z</time></trkpt><trkpt lat="41.08965864228635" lon="16.86951585822879"><ele>38.5</ele><time>2026-05-01T19:48:31.999Z</time></trkpt><trkpt lat="41.08964401192847" lon="16.869941969704293"><ele>39.0</ele><time>2026-05-01T19:48:32.999Z</time></trkpt><trkpt lat="41.0896292653809" lon="16.870379292615997"><ele>39.0</ele><time>2026-05-01T19:48:33.999Z</time></trkpt><trkpt lat="41.089607500900705" lon="16.870816095504956"><ele>39.0</ele><time>2026-05-01T19:48:34.999Z</time></trkpt><trkpt lat="41.08959815706915" lon="16.871234184935833"><ele>38.5</ele><time>2026-05-01T19:48:35.999Z</time></trkpt><trkpt lat="41.08958400502969" lon="16.871635779710857"><ele>38.0</ele><time>2026-05-01T19:48:37Z</time></trkpt><trkpt lat="41.08956905487678" lon="16.87203892290057"><ele>38.0</ele><time>2026-05-01T19:48:38Z</time></trkpt><trkpt lat="41.08956006538255" lon="16.8724521042484"><ele>38.0</ele><time>2026-05-01T19:48:39Z</time></trkpt><trkpt lat="41.08955077251695" lon="16.872863645523193"><ele>37.0</ele><time>2026-05-01T19:48:40Z</time></trkpt><trkpt lat="41.08953932798209" lon="16.873282688082192"><ele>36.0</ele><time>2026-05-01T19:48:41Z</time></trkpt><trkpt lat="41.08952763873227" lon="16.873703447835013"><ele>36.0</ele><time>2026-05-01T19:48:42Z</time></trkpt><trkpt lat="41.08951214581347" lon="16.87413680376244"><ele>36.0</ele><time>2026-05-01T19:48:43Z</time></trkpt><trkpt lat="41.08949895807745" lon="16.874574995692033"><ele>36.0</ele><time>2026-05-01T19:48:44Z</time></trkpt><trkpt lat="41.08948600767745" lon="16.87501230623418"><ele>36.0</ele><time>2026-05-01T19:48:45Z</time></trkpt><trkpt lat="41.08947487574176" lon="16.875453392034103"><ele>35.5</ele><time>2026-05-01T19:48:46Z</time></trkpt><trkpt lat="41.08945910483624" lon="16.875895657578344"><ele>35.0</ele><time>2026-05-01T19:48:47Z</time></trkpt><trkpt lat="41.08944507962473" lon="16.876335067876543"><ele>32.5</ele><time>2026-05-01T19:48:48Z</time></trkpt><trkpt lat="41.08942684534555" lon="16.876786711271606"><ele>30.0</ele><time>2026-05-01T19:48:49Z</time></trkpt><trkpt lat="41.08942153676042" lon="16.877242992073963"><ele>30.5</ele><time>2026-05-01T19:48:50Z</time></trkpt><trkpt lat="41.089420168983104" lon="16.8776947220971"><ele>31.0</ele><time>2026-05-01T19:48:51Z</time></trkpt><trkpt lat="41.089412086202465" lon="16.878136733087665"><ele>32.5</ele><time>2026-05-01T19:48:52Z</time></trkpt><trkpt lat="41.089403748618516" lon="16.8785827287516"><ele>34.0</ele><time>2026-05-01T19:48:53Z</time></trkpt><trkpt lat="41.08939362142868" lon="16.879032676662675"><ele>35.0</ele><time>2026-05-01T19:48:54Z</time></trkpt><trkpt lat="41.08938622384674" lon="16.87946849544086"><ele>36.0</ele><time>2026-05-01T19:48:55Z</time></trkpt><trkpt lat="41.08937863174381" lon="16.879903792286704"><ele>36.0</ele><time>2026-05-01T19:48:56Z</time></trkpt><trkpt lat="41.089356339332" lon="16.88034386188463"><ele>36.0</ele><time>2026-05-01T19:48:57Z</time></trkpt><trkpt lat="41.08934968559972" lon="16.8807950453184"><ele>36.0</ele><time>2026-05-01T19:48:58Z</time></trkpt><trkpt lat="41.08932857047928" lon="16.881247699177496"><ele>36.0</ele><time>2026-05-01T19:48:59Z</time></trkpt><trkpt lat="41.08931474473223" lon="16.881702310506185"><ele>36.5</ele><time>2026-05-01T19:49:00Z</time></trkpt><trkpt lat="41.089302672280276" lon="16.882153057519304"><ele>37.0</ele><time>2026-05-01T19:49:01Z</time></trkpt><trkpt lat="41.08929299972867" lon="16.882590964689943"><ele>37.5</ele><time>2026-05-01T19:49:02Z</time></trkpt><trkpt lat="41.08928894408568" lon="16.8830290177091"><ele>38.0</ele><time>2026-05-01T19:49:03Z</time></trkpt><trkpt lat="41.0892823616868" lon="16.88346940003678"><ele>37.5</ele><time>2026-05-01T19:49:04Z</time></trkpt><trkpt lat="41.08927238697853" lon="16.883902120651566"><ele>37.0</ele><time>2026-05-01T19:49:05Z</time></trkpt><trkpt lat="41.08925286497332" lon="16.88433238962435"><ele>37.0</ele><time>2026-05-01T19:49:06Z</time></trkpt><trkpt lat="41.08924407621875" lon="16.88477677544443"><ele>37.0</ele><time>2026-05-01T19:49:07Z</time></trkpt><trkpt lat="41.08922732918045" lon="16.885218374014425"><ele>37.5</ele><time>2026-05-01T19:49:08Z</time></trkpt><trkpt lat="41.08921557306174" lon="16.885664683894184"><ele>38.0</ele><time>2026-05-01T19:49:09Z</time></trkpt><trkpt lat="41.08920532729148" lon="16.886107202576557"><ele>38.0</ele><time>2026-05-01T19:49:10Z</time></trkpt><trkpt lat="41.08919402513104" lon="16.886558122553772"><ele>38.0</ele><time>2026-05-01T19:49:11Z</time></trkpt><trkpt lat="41.08918258704347" lon="16.88700882502132"><ele>37.5</ele><time>2026-05-01T19:49:12Z</time></trkpt><trkpt lat="41.089169885536705" lon="16.887442436773963"><ele>37.0</ele><time>2026-05-01T19:49:13Z</time></trkpt><trkpt lat="41.08916477841566" lon="16.887873318807102"><ele>37.0</ele><time>2026-05-01T19:49:14Z</time></trkpt><trkpt lat="41.08916969544304" lon="16.888303766336172"><ele>37.0</ele><time>2026-05-01T19:49:15Z</time></trkpt><trkpt lat="41.08920151583153" lon="16.888741923954285"><ele>37.0</ele><time>2026-05-01T19:49:16Z</time></trkpt><trkpt lat="41.089254053494045" lon="16.889171309157742"><ele>37.0</ele><time>2026-05-01T19:49:17Z</time></trkpt><trkpt lat="41.08931568107225" lon="16.889591974435227"><ele>37.0</ele><time>2026-05-01T19:49:18Z</time></trkpt><trkpt lat="41.089399752971566" lon="16.890002259480877"><ele>37.0</ele><time>2026-05-01T19:49:19Z</time></trkpt><trkpt lat="41.089498946538" lon="16.89041575777658"><ele>36.5</ele><time>2026-05-01T19:49:20Z</time></trkpt><trkpt lat="41.08960890401264" lon="16.89082917946201"><ele>36.0</ele><time>2026-05-01T19:49:21Z</time></trkpt><trkpt lat="41.08973969394512" lon="16.89123156240963"><ele>36.0</ele><time>2026-05-01T19:49:22Z</time></trkpt><trkpt lat="41.089889273451156" lon="16.8916253858455"><ele>36.0</ele><time>2026-05-01T19:49:23Z</time></trkpt><trkpt lat="41.09004519940226" lon="16.892067245307924"><ele>34.5</ele><time>2026-05-01T19:49:24Z</time></trkpt><trkpt lat="41.090224495403184" lon="16.89240541042046"><ele>33.0</ele><time>2026-05-01T19:49:25Z</time></trkpt><trkpt lat="41.09043220904256" lon="16.892766955807712"><ele>32.5</ele><time>2026-05-01T19:49:26Z</time></trkpt><trkpt lat="41.090638339520076" lon="16.893113256910944"><ele>32.0</ele><time>2026-05-01T19:49:27Z</time></trkpt><trkpt lat="41.09085616899654" lon="16.893440818470875"><ele>33.0</ele><time>2026-05-01T19:49:28Z</time></trkpt><trkpt lat="41.09109493403943" lon="16.8937612152381"><ele>34.0</ele><time>2026-05-01T19:49:29Z</time></trkpt><trkpt lat="41.09134810805484" lon="16.894072196880856"><ele>33.0</ele><time>2026-05-01T19:49:30Z</time></trkpt><trkpt lat="41.091616993186925" lon="16.894363364123"><ele>32.0</ele><time>2026-05-01T19:49:31Z</time></trkpt><trkpt lat="41.10112408442471" lon="16.920402902946293"><ele>29.0</ele><time>2026-05-01T19:50:31.999Z</time></trkpt><trkpt lat="41.10122769320441" lon="16.920934216565755"><ele>26.0</ele><time>2026-05-01T19:50:32.999Z</time></trkpt><trkpt lat="41.10133234057682" lon="16.921472153055092"><ele>26.0</ele><time>2026-05-01T19:50:33.999Z</time></trkpt><trkpt lat="41.101435270198635" lon="16.922009038428634"><ele>26.0</ele><time>2026-05-01T19:50:34.999Z</time></trkpt><trkpt lat="41.10153594846461" lon="16.922532586544477"><ele>25.0</ele><time>2026-05-01T19:50:35.999Z</time></trkpt><trkpt lat="41.10161147267654" lon="16.923040069531922"><ele>24.0</ele><time>2026-05-01T19:50:36.999Z</time></trkpt><trkpt lat="41.101657742445596" lon="16.92353175650925"><ele>24.0</ele><time>2026-05-01T19:50:37.999Z</time></trkpt><trkpt lat="41.10168328724807" lon="16.924013817431977"><ele>24.0</ele><time>2026-05-01T19:50:38.999Z</time></trkpt><trkpt lat="41.101698400902336" lon="16.92449462746981"><ele>24.5</ele><time>2026-05-01T19:50:39.999Z</time></trkpt><trkpt lat="41.101701807371256" lon="16.92496902722208"><ele>25.0</ele><time>2026-05-01T19:50:40.999Z</time></trkpt><trkpt lat="41.101687757557855" lon="16.9254297795672"><ele>25.0</ele><time>2026-05-01T19:50:41.999Z</time></trkpt><trkpt lat="41.10166025421796" lon="16.925893284888932"><ele>25.0</ele><time>2026-05-01T19:50:43Z</time></trkpt><trkpt lat="41.101614328239236" lon="16.92634234727683"><ele>25.5</ele><time>2026-05-01T19:50:44Z</time></trkpt><trkpt lat="41.101558603488435" lon="16.926786086012587"><ele>26.0</ele><time>2026-05-01T19:50:45Z</time></trkpt><trkpt lat="41.10150728910565" lon="16.927245089315033"><ele>26.0</ele><time>2026-05-01T19:50:46Z</time></trkpt><trkpt lat="41.10143351595255" lon="16.927689506883745"><ele>26.0</ele><time>2026-05-01T19:50:47Z</time></trkpt><trkpt lat="41.10133972304482" lon="16.928116151889682"><ele>25.5</ele><time>2026-05-01T19:50:48Z</time></trkpt><trkpt lat="41.10123717406918" lon="16.928528668465585"><ele>25.0</ele><time>2026-05-01T19:50:49Z</time></trkpt><trkpt lat="41.101136914033006" lon="16.928935060473112"><ele>24.5</ele><time>2026-05-01T19:50:50Z</time></trkpt><trkpt lat="41.10102069958006" lon="16.92933687214734"><ele>24.0</ele><time>2026-05-01T19:50:51Z</time></trkpt><trkpt lat="41.10090711139391" lon="16.92972237722942"><ele>23.0</ele><time>2026-05-01T19:50:52Z</time></trkpt><trkpt lat="41.10076204325165" lon="16.930090158089058"><ele>22.0</ele><time>2026-05-01T19:50:53Z</time></trkpt><trkpt lat="41.100598891369096" lon="16.930484037129233"><ele>21.5</ele><time>2026-05-01T19:50:54Z</time></trkpt><trkpt lat="41.1004266517791" lon="16.930908647029753"><ele>21.0</ele><time>2026-05-01T19:50:55Z</time></trkpt><trkpt lat="41.10024900648166" lon="16.931355486492492"><ele>20.5</ele><time>2026-05-01T19:50:56Z</time></trkpt><trkpt lat="41.10006052053175" lon="16.931825181653632"><ele>20.0</ele><time>2026-05-01T19:50:57Z</time></trkpt><trkpt lat="41.099873124445274" lon="16.932317764639546"><ele>19.5</ele><time>2026-05-01T19:50:58Z</time></trkpt><trkpt lat="41.09970332989739" lon="16.932780884969777"><ele>19.0</ele><time>2026-05-01T19:50:59Z</time></trkpt><trkpt lat="41.09954093674044" lon="16.933214730605652"><ele>19.0</ele><time>2026-05-01T19:51:00Z</time></trkpt><trkpt lat="41.09937306562038" lon="16.933639886393305"><ele>19.0</ele><time>2026-05-01T19:51:01Z</time></trkpt><trkpt lat="41.09921531101232" lon="16.934048272987013"><ele>17.5</ele><time>2026-05-01T19:51:02Z</time></trkpt><trkpt lat="41.09906609332919" lon="16.93444300413533"><ele>16.0</ele><time>2026-05-01T19:51:03Z</time></trkpt><trkpt lat="41.09891432048453" lon="16.93483443211299"><ele>16.0</ele><time>2026-05-01T19:51:04Z</time></trkpt><trkpt lat="41.09875962493273" lon="16.935220465250723"><ele>16.0</ele><time>2026-05-01T19:51:05Z</time></trkpt><trkpt lat="41.09860828638105" lon="16.935613592636766"><ele>15.5</ele><time>2026-05-01T19:51:06Z</time></trkpt><trkpt lat="41.098461168804484" lon="16.936011945095874"><ele>15.0</ele><time>2026-05-01T19:51:07Z</time></trkpt><trkpt lat="41.09830764419274" lon="16.936417123826843"><ele>15.0</ele><time>2026-05-01T19:51:08Z</time></trkpt><trkpt lat="41.09815266638646" lon="16.936837529558524"><ele>15.0</ele><time>2026-05-01T19:51:09Z</time></trkpt><trkpt lat="41.097986670761955" lon="16.93728339310936"><ele>15.0</ele><time>2026-05-01T19:51:10Z</time></trkpt><trkpt lat="41.097813985696675" lon="16.937734913837637"><ele>15.0</ele><time>2026-05-01T19:51:11Z</time></trkpt><trkpt lat="41.097637205363" lon="16.93818773271627"><ele>15.0</ele><time>2026-05-01T19:51:12Z</time></trkpt><trkpt lat="41.09746788552715" lon="16.938631522660984"><ele>15.0</ele><time>2026-05-01T19:51:13Z</time></trkpt><trkpt lat="41.09729544908513" lon="16.939077274011318"><ele>14.5</ele><time>2026-05-01T19:51:14Z</time></trkpt><trkpt lat="41.09712001576031" lon="16.93953535185104"><ele>14.0</ele><time>2026-05-01T19:51:15Z</time></trkpt><trkpt lat="41.09694267163768" lon="16.93999911614878"><ele>14.0</ele><time>2026-05-01T19:51:16Z</time></trkpt><trkpt lat="41.09676571076792" lon="16.940460678669"><ele>14.0</ele><time>2026-05-01T19:51:17Z</time></trkpt><trkpt lat="41.096587639747305" lon="16.940924255867294"><ele>14.0</ele><time>2026-05-01T19:51:18Z</time></trkpt><trkpt lat="41.0964030363548" lon="16.94140232567717"><ele>14.0</ele><time>2026-05-01T19:51:19Z</time></trkpt><trkpt lat="41.09621205363388" lon="16.941880816745215"><ele>14.0</ele><time>2026-05-01T19:51:20Z</time></trkpt><trkpt lat="41.09604608690279" lon="16.942341232942283"><ele>14.0</ele><time>2026-05-01T19:51:21Z</time></trkpt><trkpt lat="41.09586904593474" lon="16.942797350285538"><ele>14.0</ele><time>2026-05-01T19:51:22Z</time></trkpt><trkpt lat="41.09570336166817" lon="16.94324648776494"><ele>14.0</ele><time>2026-05-01T19:51:23Z</time></trkpt><trkpt lat="41.09552200617278" lon="16.94369947227346"><ele>13.5</ele><time>2026-05-01T19:51:24Z</time></trkpt><trkpt lat="41.09535963938981" lon="16.94412290311241"><ele>13.0</ele><time>2026-05-01T19:51:25Z</time></trkpt><trkpt lat="41.095204459689654" lon="16.944522014794625"><ele>13.0</ele><time>2026-05-01T19:51:26Z</time></trkpt><trkpt lat="41.095048091909945" lon="16.94492936871112"><ele>13.0</ele><time>2026-05-01T19:51:27Z</time></trkpt><trkpt lat="41.09489053255336" lon="16.945331683673672"><ele>12.5</ele><time>2026-05-01T19:51:28Z</time></trkpt><trkpt lat="41.09475098855078" lon="16.94572819156854"><ele>12.0</ele><time>2026-05-01T19:51:29Z</time></trkpt><trkpt lat="41.09460876163971" lon="16.946117037840462"><ele>12.0</ele><time>2026-05-01T19:51:30Z</time></trkpt><trkpt lat="41.09446563445048" lon="16.94649286908713"><ele>12.0</ele><time>2026-05-01T19:51:31Z</time></trkpt><trkpt lat="41.089962593729794" lon="16.974095255051267"><ele>12.5</ele><time>2026-05-01T19:52:31.999Z</time></trkpt><trkpt lat="41.0898871731752" lon="16.97446392648627"><ele>13.0</ele><time>2026-05-01T19:52:32.999Z</time></trkpt><trkpt lat="41.08981537269464" lon="16.974822319199664"><ele>13.0</ele><time>2026-05-01T19:52:33.999Z</time></trkpt><trkpt lat="41.089748690883646" lon="16.97517387126804"><ele>13.0</ele><time>2026-05-01T19:52:34.999Z</time></trkpt><trkpt lat="41.089680497092985" lon="16.97549980092736"><ele>13.0</ele><time>2026-05-01T19:52:35.999Z</time></trkpt><trkpt lat="41.0896177527942" lon="16.975815467208374"><ele>13.0</ele><time>2026-05-01T19:52:36.999Z</time></trkpt><trkpt lat="41.0895495490138" lon="16.976118976498174"><ele>13.0</ele><time>2026-05-01T19:52:37.999Z</time></trkpt><trkpt lat="41.08948488788074" lon="16.976428415933583"><ele>13.0</ele><time>2026-05-01T19:52:38.999Z</time></trkpt><trkpt lat="41.08942319144155" lon="16.97674949383083"><ele>13.0</ele><time>2026-05-01T19:52:39.999Z</time></trkpt><trkpt lat="41.089359655673405" lon="16.977075481934936"><ele>13.0</ele><time>2026-05-01T19:52:40.999Z</time></trkpt><trkpt lat="41.0892985898943" lon="16.977410283063655"><ele>13.0</ele><time>2026-05-01T19:52:41.999Z</time></trkpt><trkpt lat="41.0892315439375" lon="16.977732945307373"><ele>13.0</ele><time>2026-05-01T19:52:42.999Z</time></trkpt><trkpt lat="41.08916828106903" lon="16.978052692409808"><ele>13.5</ele><time>2026-05-01T19:52:43.999Z</time></trkpt><trkpt lat="41.08910320034367" lon="16.978352240895614"><ele>14.0</ele><time>2026-05-01T19:52:44.999Z</time></trkpt><trkpt lat="41.089040630066584" lon="16.97864688267882"><ele>14.0</ele><time>2026-05-01T19:52:45.999Z</time></trkpt><trkpt lat="41.08897285911311" lon="16.97896732281537"><ele>14.0</ele><time>2026-05-01T19:52:46.999Z</time></trkpt><trkpt lat="41.08890132325043" lon="16.979306793322596"><ele>15.5</ele><time>2026-05-01T19:52:47.999Z</time></trkpt><trkpt lat="41.08882870221312" lon="16.979650729776353"><ele>17.0</ele><time>2026-05-01T19:52:49Z</time></trkpt><trkpt lat="41.08875723449975" lon="16.979995205886354"><ele>16.5</ele><time>2026-05-01T19:52:50Z</time></trkpt><trkpt lat="41.08869250121803" lon="16.980348366963966"><ele>16.0</ele><time>2026-05-01T19:52:51Z</time></trkpt><trkpt lat="41.088618252115815" lon="16.98068846340018"><ele>15.0</ele><time>2026-05-01T19:52:52Z</time></trkpt><trkpt lat="41.08853921436732" lon="16.981054241071014"><ele>14.0</ele><time>2026-05-01T19:52:53Z</time></trkpt><trkpt lat="41.08846174359761" lon="16.98143382977251"><ele>14.5</ele><time>2026-05-01T19:52:54Z</time></trkpt><trkpt lat="41.088387950374326" lon="16.981825935769358"><ele>15.0</ele><time>2026-05-01T19:52:55Z</time></trkpt><trkpt lat="41.08831287295055" lon="16.982220775684542"><ele>15.5</ele><time>2026-05-01T19:52:56Z</time></trkpt><trkpt lat="41.0882341130133" lon="16.98261748738947"><ele>16.0</ele><time>2026-05-01T19:52:57Z</time></trkpt><trkpt lat="41.088144704014354" lon="16.983033549057577"><ele>16.0</ele><time>2026-05-01T19:52:58Z</time></trkpt><trkpt lat="41.0880619420587" lon="16.983443430791475"><ele>16.0</ele><time>2026-05-01T19:52:59Z</time></trkpt><trkpt lat="41.08797974248765" lon="16.983850533985336"><ele>15.5</ele><time>2026-05-01T19:53:00Z</time></trkpt><trkpt lat="41.08789521233489" lon="16.98426092869626"><ele>15.0</ele><time>2026-05-01T19:53:01Z</time></trkpt><trkpt lat="41.08778816299283" lon="16.98467820931842"><ele>14.5</ele><time>2026-05-01T19:53:02Z</time></trkpt><trkpt lat="41.08764941125219" lon="16.985145082796823"><ele>14.0</ele><time>2026-05-01T19:53:03Z</time></trkpt><trkpt lat="41.08764121459475" lon="16.985514338655058"><ele>14.5</ele><time>2026-05-01T19:53:04Z</time></trkpt><trkpt lat="41.08755871470635" lon="16.985924004782106"><ele>15.0</ele><time>2026-05-01T19:53:05Z</time></trkpt><trkpt lat="41.08747038431719" lon="16.986331608427705"><ele>15.5</ele><time>2026-05-01T19:53:06Z</time></trkpt><trkpt lat="41.08737855323328" lon="16.986766826763184"><ele>16.0</ele><time>2026-05-01T19:53:07Z</time></trkpt><trkpt lat="41.08728818093699" lon="16.987192822906913"><ele>15.5</ele><time>2026-05-01T19:53:08Z</time></trkpt><trkpt lat="41.087132983009816" lon="16.98768406350917"><ele>15.0</ele><time>2026-05-01T19:53:09Z</time></trkpt><trkpt lat="41.08700295391935" lon="16.98812899266244"><ele>15.0</ele><time>2026-05-01T19:53:10Z</time></trkpt><trkpt lat="41.08684680103441" lon="16.988542421483057"><ele>15.0</ele><time>2026-05-01T19:53:11Z</time></trkpt><trkpt lat="41.08667672816361" lon="16.988944721835505"><ele>15.0</ele><time>2026-05-01T19:53:12Z</time></trkpt><trkpt lat="41.08648763882699" lon="16.98933802526752"><ele>15.0</ele><time>2026-05-01T19:53:13Z</time></trkpt><trkpt lat="41.08627263526187" lon="16.989759507466133"><ele>14.5</ele><time>2026-05-01T19:53:14Z</time></trkpt><trkpt lat="41.0860641305859" lon="16.990136059899633"><ele>14.0</ele><time>2026-05-01T19:53:15Z</time></trkpt><trkpt lat="41.085848990334604" lon="16.99051016695732"><ele>15.0</ele><time>2026-05-01T19:53:16Z</time></trkpt><trkpt lat="41.08566984012773" lon="16.990896491348305"><ele>16.0</ele><time>2026-05-01T19:53:17Z</time></trkpt><trkpt lat="41.08547662631331" lon="16.99127486785139"><ele>16.0</ele><time>2026-05-01T19:53:18Z</time></trkpt><trkpt lat="41.08519636429523" lon="16.9916858163867"><ele>16.0</ele><time>2026-05-01T19:53:19Z</time></trkpt><trkpt lat="41.08500157482624" lon="16.992112938924382"><ele>17.0</ele><time>2026-05-01T19:53:20Z</time></trkpt><trkpt lat="41.08479888720313" lon="16.99254617019761"><ele>18.0</ele><time>2026-05-01T19:53:21Z</time></trkpt><trkpt lat="41.08459914802966" lon="16.992963907033594"><ele>17.5</ele><time>2026-05-01T19:53:22Z</time></trkpt><trkpt lat="41.08443814911622" lon="16.99341152548527"><ele>17.0</ele><time>2026-05-01T19:53:23Z</time></trkpt><trkpt lat="41.08424811408472" lon="16.993831381914514"><ele>17.0</ele><time>2026-05-01T19:53:24Z</time></trkpt><trkpt lat="41.08419221460883" lon="16.994302976366924"><ele>17.0</ele><time>2026-05-01T19:53:25Z</time></trkpt><trkpt lat="41.08403474965579" lon="16.994745713859135"><ele>17.5</ele><time>2026-05-01T19:53:26Z</time></trkpt><trkpt lat="41.08393078938227" lon="16.995221393524997"><ele>18.0</ele><time>2026-05-01T19:53:27Z</time></trkpt><trkpt lat="41.083891036730144" lon="16.995717988189597"><ele>18.0</ele><time>2026-05-01T19:53:28Z</time></trkpt><trkpt lat="41.083828170172836" lon="16.996178219037393"><ele>18.0</ele><time>2026-05-01T19:53:29Z</time></trkpt><trkpt lat="41.08369895715845" lon="16.997003494582547"><ele>9.0</ele><time>2026-05-01T19:53:31Z</time></trkpt><trkpt lat="41.08132473637717" lon="17.02351465441046"><ele>9.0</ele><time>2026-05-01T19:54:31.999Z</time></trkpt><trkpt lat="41.081250497432954" lon="17.024009989639517"><ele>9.0</ele><time>2026-05-01T19:54:32.999Z</time></trkpt><trkpt lat="41.08116049770886" lon="17.024494966860352"><ele>8.0</ele><time>2026-05-01T19:54:33.999Z</time></trkpt><trkpt lat="41.08109415662682" lon="17.024998470825718"><ele>7.0</ele><time>2026-05-01T19:54:34.999Z</time></trkpt><trkpt lat="41.081038968172855" lon="17.025445757943924"><ele>7.5</ele><time>2026-05-01T19:54:35.999Z</time></trkpt><trkpt lat="41.08097121469672" lon="17.025917372814565"><ele>8.0</ele><time>2026-05-01T19:54:36.999Z</time></trkpt><trkpt lat="41.08090218229145" lon="17.026394438480818"><ele>7.5</ele><time>2026-05-01T19:54:37.999Z</time></trkpt><trkpt lat="41.08082870968886" lon="17.02688365916383"><ele>7.0</ele><time>2026-05-01T19:54:38.999Z</time></trkpt><trkpt lat="41.080752427503526" lon="17.027379972807022"><ele>7.0</ele><time>2026-05-01T19:54:39.999Z</time></trkpt><trkpt lat="41.08067463296134" lon="17.027885610902015"><ele>7.0</ele><time>2026-05-01T19:54:40.999Z</time></trkpt><trkpt lat="41.08060036303258" lon="17.028410549178883"><ele>7.0</ele><time>2026-05-01T19:54:41.999Z</time></trkpt><trkpt lat="41.08052253962895" lon="17.028931440791595"><ele>7.0</ele><time>2026-05-01T19:54:42.999Z</time></trkpt><trkpt lat="41.08044019053024" lon="17.0294513550362"><ele>6.0</ele><time>2026-05-01T19:54:43.999Z</time></trkpt><trkpt lat="41.080356196847085" lon="17.02996561434568"><ele>5.0</ele><time>2026-05-01T19:54:44.999Z</time></trkpt><trkpt lat="41.080272406237874" lon="17.030476398281028"><ele>4.5</ele><time>2026-05-01T19:54:45.999Z</time></trkpt><trkpt lat="41.08020600546252" lon="17.03099462299551"><ele>4.0</ele><time>2026-05-01T19:54:46.999Z</time></trkpt><trkpt lat="41.080096327245165" lon="17.03153260584177"><ele>3.5</ele><time>2026-05-01T19:54:47.999Z</time></trkpt><trkpt lat="41.08001117992458" lon="17.032050269911256"><ele>3.0</ele><time>2026-05-01T19:54:48.999Z</time></trkpt><trkpt lat="41.079929104657765" lon="17.032575921496736"><ele>3.5</ele><time>2026-05-01T19:54:49.999Z</time></trkpt><trkpt lat="41.07984118560981" lon="17.033113575311003"><ele>4.0</ele><time>2026-05-01T19:54:50.999Z</time></trkpt><trkpt lat="41.079758033700216" lon="17.03365279539818"><ele>4.0</ele><time>2026-05-01T19:54:51.999Z</time></trkpt><trkpt lat="41.07968302639552" lon="17.034186748479847"><ele>4.0</ele><time>2026-05-01T19:54:52.999Z</time></trkpt><trkpt lat="41.07961428943438" lon="17.03472469073439"><ele>3.0</ele><time>2026-05-01T19:54:53.999Z</time></trkpt><trkpt lat="41.07953724550505" lon="17.035261407636668"><ele>2.0</ele><time>2026-05-01T19:54:55Z</time></trkpt><trkpt lat="41.07945659504594" lon="17.0357849145112"><ele>2.0</ele><time>2026-05-01T19:54:56Z</time></trkpt><trkpt lat="41.07936903903073" lon="17.03630630075812"><ele>2.0</ele><time>2026-05-01T19:54:57Z</time></trkpt><trkpt lat="41.07928206184134" lon="17.03683366384461"><ele>2.0</ele><time>2026-05-01T19:54:58Z</time></trkpt><trkpt lat="41.07919708595729" lon="17.03736453384331"><ele>2.0</ele><time>2026-05-01T19:54:59Z</time></trkpt><trkpt lat="41.079111961313295" lon="17.03790059738673"><ele>3.0</ele><time>2026-05-01T19:55:00Z</time></trkpt><trkpt lat="41.07902755471895" lon="17.038433810598356"><ele>4.0</ele><time>2026-05-01T19:55:01Z</time></trkpt><trkpt lat="41.07894767453555" lon="17.038967838395624"><ele>3.5</ele><time>2026-05-01T19:55:02Z</time></trkpt><trkpt lat="41.078873064889976" lon="17.039523135714543"><ele>3.0</ele><time>2026-05-01T19:55:03Z</time></trkpt><trkpt lat="41.07879177850116" lon="17.040076964541267"><ele>2.0</ele><time>2026-05-01T19:55:04Z</time></trkpt><trkpt lat="41.078704642900405" lon="17.040628424639205"><ele>1.0</ele><time>2026-05-01T19:55:05Z</time></trkpt><trkpt lat="41.07861722167509" lon="17.041170019243925"><ele>1.0</ele><time>2026-05-01T19:55:06Z</time></trkpt><trkpt lat="41.07853065552403" lon="17.04171405174263"><ele>1.0</ele><time>2026-05-01T19:55:07Z</time></trkpt><trkpt lat="41.07844231192925" lon="17.042259428754996"><ele>1.5</ele><time>2026-05-01T19:55:08Z</time></trkpt><trkpt lat="41.0783571849876" lon="17.042805686583648"><ele>2.0</ele><time>2026-05-01T19:55:09Z</time></trkpt><trkpt lat="41.07826920947822" lon="17.043347577106914"><ele>2.5</ele><time>2026-05-01T19:55:10Z</time></trkpt><trkpt lat="41.07818189302597" lon="17.043885302263515"><ele>3.0</ele><time>2026-05-01T19:55:11Z</time></trkpt><trkpt lat="41.078099073966904" lon="17.044398614930138"><ele>3.0</ele><time>2026-05-01T19:55:12Z</time></trkpt><trkpt lat="41.07801512380609" lon="17.044907537520675"><ele>3.0</ele><time>2026-05-01T19:55:13Z</time></trkpt><trkpt lat="41.07793266774384" lon="17.045413524005895"><ele>3.0</ele><time>2026-05-01T19:55:14Z</time></trkpt><trkpt lat="41.077856665310776" lon="17.0459077270521"><ele>3.0</ele><time>2026-05-01T19:55:15Z</time></trkpt><trkpt lat="41.07778458962643" lon="17.04638654520802"><ele>2.5</ele><time>2026-05-01T19:55:16Z</time></trkpt><trkpt lat="41.077712722893885" lon="17.04686321118629"><ele>2.0</ele><time>2026-05-01T19:55:17Z</time></trkpt><trkpt lat="41.0776346805638" lon="17.04733640950091"><ele>2.5</ele><time>2026-05-01T19:55:18Z</time></trkpt><trkpt lat="41.077550883353446" lon="17.047798247559506"><ele>3.0</ele><time>2026-05-01T19:55:19Z</time></trkpt><trkpt lat="41.07744780522378" lon="17.04825306621544"><ele>3.0</ele><time>2026-05-01T19:55:20Z</time></trkpt><trkpt lat="41.077324409301916" lon="17.048714575144377"><ele>3.0</ele><time>2026-05-01T19:55:21Z</time></trkpt><trkpt lat="41.07718850181469" lon="17.049168265896398"><ele>3.0</ele><time>2026-05-01T19:55:22Z</time></trkpt><trkpt lat="41.07703161248413" lon="17.04962695651424"><ele>3.0</ele><time>2026-05-01T19:55:23Z</time></trkpt><trkpt lat="41.07686299906546" lon="17.050069522966815"><ele>3.0</ele><time>2026-05-01T19:55:24Z</time></trkpt><trkpt lat="41.07668188537048" lon="17.050512850601347"><ele>3.0</ele><time>2026-05-01T19:55:25Z</time></trkpt><trkpt lat="41.0764949918846" lon="17.050949046446757"><ele>3.0</ele><time>2026-05-01T19:55:26Z</time></trkpt><trkpt lat="41.07630431201858" lon="17.05138457662741"><ele>3.0</ele><time>2026-05-01T19:55:27Z</time></trkpt><trkpt lat="41.076114751063656" lon="17.051805660234287"><ele>2.5</ele><time>2026-05-01T19:55:28Z</time></trkpt><trkpt lat="41.075937803178796" lon="17.052273367174827"><ele>2.0</ele><time>2026-05-01T19:55:29Z</time></trkpt><trkpt lat="41.075760500783346" lon="17.05272659202718"><ele>2.0</ele><time>2026-05-01T19:55:30Z</time></trkpt><trkpt lat="41.075585107310985" lon="17.053180876000145"><ele>2.0</ele><time>2026-05-01T19:55:31Z</time></trkpt><trkpt lat="41.05864791635739" lon="17.06870218005269"><ele>13.0</ele><time>2026-05-01T19:56:31.999Z</time></trkpt><trkpt lat="41.058276276480065" lon="17.068778445838486"><ele>24.0</ele><time>2026-05-01T19:56:32.999Z</time></trkpt><trkpt lat="41.05792762695956" lon="17.06885755053834"><ele>24.0</ele><time>2026-05-01T19:56:33.999Z</time></trkpt><trkpt lat="41.05757215053107" lon="17.068937225769346"><ele>24.0</ele><time>2026-05-01T19:56:34.999Z</time></trkpt><trkpt lat="41.0572217266761" lon="17.069025509535763"><ele>25.0</ele><time>2026-05-01T19:56:35.999Z</time></trkpt><trkpt lat="41.05687086937456" lon="17.06909525794792"><ele>26.0</ele><time>2026-05-01T19:56:36.999Z</time></trkpt><trkpt lat="41.05651964108958" lon="17.069171005833745"><ele>27.0</ele><time>2026-05-01T19:56:37.999Z</time></trkpt><trkpt lat="41.05616263786146" lon="17.069250957104984"><ele>28.0</ele><time>2026-05-01T19:56:38.999Z</time></trkpt><trkpt lat="41.055804677479976" lon="17.069331390396425"><ele>29.0</ele><time>2026-05-01T19:56:39.999Z</time></trkpt><trkpt lat="41.05544536593761" lon="17.06942180751059"><ele>30.0</ele><time>2026-05-01T19:56:40.999Z</time></trkpt><trkpt lat="41.05508803450658" lon="17.06952910533434"><ele>30.5</ele><time>2026-05-01T19:56:41.999Z</time></trkpt><trkpt lat="41.05473425481268" lon="17.069672339216176"><ele>31.0</ele><time>2026-05-01T19:56:42.999Z</time></trkpt><trkpt lat="41.0543855522643" lon="17.069866898613963"><ele>32.0</ele><time>2026-05-01T19:56:43.999Z</time></trkpt><trkpt lat="41.054000906017514" lon="17.070059820323024"><ele>33.0</ele><time>2026-05-01T19:56:44.999Z</time></trkpt><trkpt lat="41.053630528227195" lon="17.07030225047046"><ele>33.0</ele><time>2026-05-01T19:56:45.999Z</time></trkpt><trkpt lat="41.05332472404175" lon="17.070560709941933"><ele>33.0</ele><time>2026-05-01T19:56:46.999Z</time></trkpt><trkpt lat="41.05301574857887" lon="17.07085809436843"><ele>34.0</ele><time>2026-05-01T19:56:47.999Z</time></trkpt><trkpt lat="41.05272723329406" lon="17.07117292086272"><ele>35.0</ele><time>2026-05-01T19:56:48.999Z</time></trkpt><trkpt lat="41.05242790602765" lon="17.071519799830007"><ele>35.5</ele><time>2026-05-01T19:56:49.999Z</time></trkpt><trkpt lat="41.05216569558152" lon="17.071890645105615"><ele>36.0</ele><time>2026-05-01T19:56:50.999Z</time></trkpt><trkpt lat="41.05189716087717" lon="17.072225889548303"><ele>35.5</ele><time>2026-05-01T19:56:51.999Z</time></trkpt><trkpt lat="41.0516890340374" lon="17.072592756449428"><ele>35.0</ele><time>2026-05-01T19:56:52.999Z</time></trkpt><trkpt lat="41.05146371271957" lon="17.072924424605205"><ele>35.5</ele><time>2026-05-01T19:56:53.999Z</time></trkpt><trkpt lat="41.05123886242427" lon="17.073271219236748"><ele>36.0</ele><time>2026-05-01T19:56:54.999Z</time></trkpt><trkpt lat="41.05099312805331" lon="17.073619233735972"><ele>36.5</ele><time>2026-05-01T19:56:55.999Z</time></trkpt><trkpt lat="41.05075835588974" lon="17.073963583266583"><ele>37.0</ele><time>2026-05-01T19:56:56.999Z</time></trkpt><trkpt lat="41.05052663154535" lon="17.07429398818807"><ele>36.0</ele><time>2026-05-01T19:56:57.999Z</time></trkpt><trkpt lat="41.050303825525575" lon="17.074613862586517"><ele>35.0</ele><time>2026-05-01T19:56:58.999Z</time></trkpt><trkpt lat="41.05008505328224" lon="17.074910291537265"><ele>35.0</ele><time>2026-05-01T19:56:59.999Z</time></trkpt><trkpt lat="41.049839150082796" lon="17.07522982947496"><ele>35.0</ele><time>2026-05-01T19:57:01Z</time></trkpt><trkpt lat="41.049683182236926" lon="17.075539750311655"><ele>36.0</ele><time>2026-05-01T19:57:02Z</time></trkpt><trkpt lat="41.049488834138465" lon="17.07586869732843"><ele>37.0</ele><time>2026-05-01T19:57:03Z</time></trkpt><trkpt lat="41.04931374723707" lon="17.076241355247642"><ele>37.0</ele><time>2026-05-01T19:57:04Z</time></trkpt><trkpt lat="41.049136281934615" lon="17.0766454894709"><ele>37.0</ele><time>2026-05-01T19:57:05Z</time></trkpt><trkpt lat="41.048959514544" lon="17.077026869255665"><ele>37.0</ele><time>2026-05-01T19:57:06Z</time></trkpt><trkpt lat="41.04879560662252" lon="17.07742987946124"><ele>37.0</ele><time>2026-05-01T19:57:07Z</time></trkpt><trkpt lat="41.048646613717025" lon="17.077847469073863"><ele>35.5</ele><time>2026-05-01T19:57:08Z</time></trkpt><trkpt lat="41.048524661818654" lon="17.07826171776851"><ele>34.0</ele><time>2026-05-01T19:57:09Z</time></trkpt><trkpt lat="41.04841671231786" lon="17.078703787538068"><ele>33.5</ele><time>2026-05-01T19:57:10Z</time></trkpt><trkpt lat="41.04833093764655" lon="17.079154070799518"><ele>33.0</ele><time>2026-05-01T19:57:11Z</time></trkpt><trkpt lat="41.04825910868156" lon="17.079598109905653"><ele>32.5</ele><time>2026-05-01T19:57:12Z</time></trkpt><trkpt lat="41.048207508450545" lon="17.080052034005814"><ele>32.0</ele><time>2026-05-01T19:57:13Z</time></trkpt><trkpt lat="41.04817004310756" lon="17.080515911513167"><ele>32.0</ele><time>2026-05-01T19:57:14Z</time></trkpt><trkpt lat="41.048152946863745" lon="17.08097001280102"><ele>32.0</ele><time>2026-05-01T19:57:15Z</time></trkpt><trkpt lat="41.048151298292986" lon="17.081408077573975"><ele>31.5</ele><time>2026-05-01T19:57:16Z</time></trkpt><trkpt lat="41.048169454899494" lon="17.081859875371027"><ele>31.0</ele><time>2026-05-01T19:57:17Z</time></trkpt><trkpt lat="41.04820042632686" lon="17.082313240738774"><ele>30.0</ele><time>2026-05-01T19:57:18Z</time></trkpt><trkpt lat="41.04823406985554" lon="17.082754684124126"><ele>29.0</ele><time>2026-05-01T19:57:19Z</time></trkpt><trkpt lat="41.04828950044119" lon="17.083193282800543"><ele>28.0</ele><time>2026-05-01T19:57:20Z</time></trkpt><trkpt lat="41.04836664718876" lon="17.083627301918863"><ele>27.0</ele><time>2026-05-01T19:57:21Z</time></trkpt><trkpt lat="41.04846423068337" lon="17.084055829618922"><ele>26.5</ele><time>2026-05-01T19:57:22Z</time></trkpt><trkpt lat="41.048552031325464" lon="17.08447968585095"><ele>26.0</ele><time>2026-05-01T19:57:23Z</time></trkpt><trkpt lat="41.048640266107476" lon="17.084899475530246"><ele>25.5</ele><time>2026-05-01T19:57:24Z</time></trkpt><trkpt lat="41.0487259332016" lon="17.08532558424875"><ele>25.0</ele><time>2026-05-01T19:57:25Z</time></trkpt><trkpt lat="41.04881288107979" lon="17.085752449763124"><ele>25.0</ele><time>2026-05-01T19:57:26Z</time></trkpt><trkpt lat="41.04889772208514" lon="17.086176881264848"><ele>25.0</ele><time>2026-05-01T19:57:27Z</time></trkpt><trkpt lat="41.04898049237762" lon="17.086598721174372"><ele>25.0</ele><time>2026-05-01T19:57:28Z</time></trkpt><trkpt lat="41.04904847520112" lon="17.08701503110678"><ele>25.0</ele><time>2026-05-01T19:57:29Z</time></trkpt><trkpt lat="41.04913745356494" lon="17.08744972558009"><ele>25.0</ele><time>2026-05-01T19:57:30Z</time></trkpt><trkpt lat="41.04921880146492" lon="17.0878946858569"><ele>25.0</ele><time>2026-05-01T19:57:31Z</time></trkpt><trkpt lat="41.038784640384335" lon="17.120960506642852"><ele>23.5</ele><time>2026-05-01T19:58:31.999Z</time></trkpt><trkpt lat="41.03862146349068" lon="17.121330952617928"><ele>22.0</ele><time>2026-05-01T19:58:32.999Z</time></trkpt><trkpt lat="41.038444763739406" lon="17.12170652515955"><ele>21.5</ele><time>2026-05-01T19:58:33.999Z</time></trkpt><trkpt lat="41.03826408183509" lon="17.122095025019096"><ele>21.0</ele><time>2026-05-01T19:58:34.999Z</time></trkpt><trkpt lat="41.038082265696346" lon="17.122491299723215"><ele>20.5</ele><time>2026-05-01T19:58:35.999Z</time></trkpt><trkpt lat="41.03790151145698" lon="17.12289309914815"><ele>20.0</ele><time>2026-05-01T19:58:36.999Z</time></trkpt><trkpt lat="41.03771750661904" lon="17.123300066971723"><ele>20.0</ele><time>2026-05-01T19:58:37.999Z</time></trkpt><trkpt lat="41.03753339047802" lon="17.123713290402794"><ele>20.0</ele><time>2026-05-01T19:58:38.999Z</time></trkpt><trkpt lat="41.037346418594325" lon="17.124130043487934"><ele>20.0</ele><time>2026-05-01T19:58:39.999Z</time></trkpt><trkpt lat="41.03715311703263" lon="17.12453847308545"><ele>20.0</ele><time>2026-05-01T19:58:40.999Z</time></trkpt><trkpt lat="41.036954781105464" lon="17.12493960996143"><ele>20.5</ele><time>2026-05-01T19:58:41.999Z</time></trkpt><trkpt lat="41.03676269047843" lon="17.125347339648155"><ele>21.0</ele><time>2026-05-01T19:58:42.999Z</time></trkpt><trkpt lat="41.03657664438367" lon="17.12576559870779"><ele>21.0</ele><time>2026-05-01T19:58:43.999Z</time></trkpt><trkpt lat="41.03639250844837" lon="17.126177647715156"><ele>21.0</ele><time>2026-05-01T19:58:44.999Z</time></trkpt><trkpt lat="41.036216105804435" lon="17.126564608735222"><ele>21.0</ele><time>2026-05-01T19:58:45.999Z</time></trkpt><trkpt lat="41.03601963931485" lon="17.126958317238728"><ele>21.0</ele><time>2026-05-01T19:58:46.999Z</time></trkpt><trkpt lat="41.03582598352058" lon="17.12738400991711"><ele>21.0</ele><time>2026-05-01T19:58:47.999Z</time></trkpt><trkpt lat="41.035645070762016" lon="17.12780192954039"><ele>21.0</ele><time>2026-05-01T19:58:48.999Z</time></trkpt><trkpt lat="41.03546679888532" lon="17.12821935441073"><ele>21.5</ele><time>2026-05-01T19:58:49.999Z</time></trkpt><trkpt lat="41.035284315916286" lon="17.128627244410293"><ele>22.0</ele><time>2026-05-01T19:58:50.999Z</time></trkpt><trkpt lat="41.03510647152124" lon="17.12902572200901"><ele>22.5</ele><time>2026-05-01T19:58:51.999Z</time></trkpt><trkpt lat="41.034943610186794" lon="17.12942642864802"><ele>23.0</ele><time>2026-05-01T19:58:52.999Z</time></trkpt><trkpt lat="41.034732573520834" lon="17.129869592474837"><ele>22.5</ele><time>2026-05-01T19:58:53.999Z</time></trkpt><trkpt lat="41.03452851616226" lon="17.130318467804553"><ele>22.0</ele><time>2026-05-01T19:58:54.999Z</time></trkpt><trkpt lat="41.03432486815615" lon="17.13077247029252"><ele>22.0</ele><time>2026-05-01T19:58:55.999Z</time></trkpt><trkpt lat="41.03413553254974" lon="17.1312208649128"><ele>22.0</ele><time>2026-05-01T19:58:56.999Z</time></trkpt><trkpt lat="41.03397042907563" lon="17.13165558503687"><ele>23.0</ele><time>2026-05-01T19:58:57.999Z</time></trkpt><trkpt lat="41.033845583975584" lon="17.132066939994907"><ele>24.0</ele><time>2026-05-01T19:58:58.999Z</time></trkpt><trkpt lat="41.03372294628694" lon="17.132477199717247"><ele>24.0</ele><time>2026-05-01T19:58:59.999Z</time></trkpt><trkpt lat="41.033619183023546" lon="17.13289808863892"><ele>24.0</ele><time>2026-05-01T19:59:00.999Z</time></trkpt><trkpt lat="41.03352566081342" lon="17.133319193495097"><ele>24.0</ele><time>2026-05-01T19:59:01.999Z</time></trkpt><trkpt lat="41.03344991852973" lon="17.1337322743314"><ele>24.0</ele><time>2026-05-01T19:59:02.999Z</time></trkpt><trkpt lat="41.033413532584895" lon="17.1341742278126"><ele>23.5</ele><time>2026-05-01T19:59:03.999Z</time></trkpt><trkpt lat="41.03334280986785" lon="17.134633273447648"><ele>23.0</ele><time>2026-05-01T19:59:04.999Z</time></trkpt><trkpt lat="41.033225591069254" lon="17.13494886213532"><ele>22.0</ele><time>2026-05-01T19:59:05.999Z</time></trkpt><trkpt lat="41.03321517188842" lon="17.13532296778977"><ele>21.0</ele><time>2026-05-01T19:59:07Z</time></trkpt><trkpt lat="41.03318454509637" lon="17.135731068562496"><ele>21.0</ele><time>2026-05-01T19:59:08Z</time></trkpt><trkpt lat="41.0331631238188" lon="17.13614836501514"><ele>21.0</ele><time>2026-05-01T19:59:09Z</time></trkpt><trkpt lat="41.03314014930748" lon="17.13655928088666"><ele>21.0</ele><time>2026-05-01T19:59:10Z</time></trkpt><trkpt lat="41.03311444666914" lon="17.13693089465623"><ele>21.0</ele><time>2026-05-01T19:59:11Z</time></trkpt><trkpt lat="41.03308650039527" lon="17.137320740544464"><ele>20.5</ele><time>2026-05-01T19:59:12Z</time></trkpt><trkpt lat="41.03305961749766" lon="17.137714457753162"><ele>20.0</ele><time>2026-05-01T19:59:13Z</time></trkpt><trkpt lat="41.033033348670635" lon="17.13810488542833"><ele>21.0</ele><time>2026-05-01T19:59:14Z</time></trkpt><trkpt lat="41.033006006185545" lon="17.138499301858147"><ele>22.0</ele><time>2026-05-01T19:59:15Z</time></trkpt><trkpt lat="41.03297466703557" lon="17.138890534031923"><ele>21.5</ele><time>2026-05-01T19:59:16Z</time></trkpt><trkpt lat="41.03294997414132" lon="17.139274120843545"><ele>21.0</ele><time>2026-05-01T19:59:17Z</time></trkpt><trkpt lat="41.032921721283586" lon="17.139638098414263"><ele>20.5</ele><time>2026-05-01T19:59:18Z</time></trkpt><trkpt lat="41.03289687074112" lon="17.14002143654798"><ele>20.0</ele><time>2026-05-01T19:59:19Z</time></trkpt><trkpt lat="41.032874658218866" lon="17.140411486607032"><ele>20.0</ele><time>2026-05-01T19:59:20Z</time></trkpt><trkpt lat="41.03284793130461" lon="17.140803618739078"><ele>20.0</ele><time>2026-05-01T19:59:21Z</time></trkpt><trkpt lat="41.032818639303876" lon="17.141196381347065"><ele>19.5</ele><time>2026-05-01T19:59:22Z</time></trkpt><trkpt lat="41.03279162938244" lon="17.14157142797644"><ele>19.0</ele><time>2026-05-01T19:59:23Z</time></trkpt><trkpt lat="41.03276328360235" lon="17.141946459488217"><ele>19.0</ele><time>2026-05-01T19:59:24Z</time></trkpt><trkpt lat="41.03273149598958" lon="17.142321155273393"><ele>19.0</ele><time>2026-05-01T19:59:25Z</time></trkpt><trkpt lat="41.03269580278932" lon="17.142683612476866"><ele>18.0</ele><time>2026-05-01T19:59:26Z</time></trkpt><trkpt lat="41.03266222629399" lon="17.143033805079916"><ele>17.0</ele><time>2026-05-01T19:59:27Z</time></trkpt><trkpt lat="41.032616144081686" lon="17.143412773946917"><ele>16.5</ele><time>2026-05-01T19:59:28Z</time></trkpt><trkpt lat="41.032533629350105" lon="17.143804475139408"><ele>16.0</ele><time>2026-05-01T19:59:29Z</time></trkpt><trkpt lat="41.032438580213736" lon="17.144190122539232"><ele>16.0</ele><time>2026-05-01T19:59:30Z</time></trkpt><trkpt lat="41.03233634454177" lon="17.144566604308977"><ele>16.0</ele><time>2026-05-01T19:59:31Z</time></trkpt><trkpt lat="41.024541004032486" lon="17.170009850184034"><ele>16.0</ele><time>2026-05-01T20:00:31.999Z</time></trkpt><trkpt lat="41.024321846716596" lon="17.1704097103298"><ele>16.0</ele><time>2026-05-01T20:00:32.999Z</time></trkpt><trkpt lat="41.024105038066374" lon="17.17081116920006"><ele>16.0</ele><time>2026-05-01T20:00:33.999Z</time></trkpt><trkpt lat="41.02389307727759" lon="17.171206661121158"><ele>16.0</ele><time>2026-05-01T20:00:34.999Z</time></trkpt><trkpt lat="41.023685813993595" lon="17.17160255854495"><ele>16.0</ele><time>2026-05-01T20:00:35.999Z</time></trkpt><trkpt lat="41.02347307837984" lon="17.172003006915645"><ele>16.0</ele><time>2026-05-01T20:00:36.999Z</time></trkpt><trkpt lat="41.023257012567036" lon="17.172398664280294"><ele>15.0</ele><time>2026-05-01T20:00:37.999Z</time></trkpt><trkpt lat="41.023043966829064" lon="17.17278923021159"><ele>14.0</ele><time>2026-05-01T20:00:38.999Z</time></trkpt><trkpt lat="41.02283543079179" lon="17.17317302660956"><ele>14.0</ele><time>2026-05-01T20:00:39.999Z</time></trkpt><trkpt lat="41.02263209960902" lon="17.173552879181074"><ele>14.0</ele><time>2026-05-01T20:00:40.999Z</time></trkpt><trkpt lat="41.0224282529212" lon="17.17393651308027"><ele>13.0</ele><time>2026-05-01T20:00:41.999Z</time></trkpt><trkpt lat="41.022229245948296" lon="17.174314863239555"><ele>12.0</ele><time>2026-05-01T20:00:42.999Z</time></trkpt><trkpt lat="41.02203063196134" lon="17.174693849937885"><ele>11.5</ele><time>2026-05-01T20:00:43.999Z</time></trkpt><trkpt lat="41.021826433475695" lon="17.175065246593007"><ele>11.0</ele><time>2026-05-01T20:00:44.999Z</time></trkpt><trkpt lat="41.02162650971696" lon="17.175444943959054"><ele>10.0</ele><time>2026-05-01T20:00:45.999Z</time></trkpt><trkpt lat="41.021423205118026" lon="17.175829344633847"><ele>9.0</ele><time>2026-05-01T20:00:46.999Z</time></trkpt><trkpt lat="41.02121998492924" lon="17.17620329137348"><ele>8.5</ele><time>2026-05-01T20:00:47.999Z</time></trkpt><trkpt lat="41.021023697608605" lon="17.176575438690918"><ele>8.0</ele><time>2026-05-01T20:00:48.999Z</time></trkpt><trkpt lat="41.02082502725418" lon="17.176943030905278"><ele>8.5</ele><time>2026-05-01T20:00:49.999Z</time></trkpt><trkpt lat="41.02062337222382" lon="17.177311008286893"><ele>9.0</ele><time>2026-05-01T20:00:50.999Z</time></trkpt><trkpt lat="41.02042862530212" lon="17.177688108030303"><ele>9.0</ele><time>2026-05-01T20:00:51.999Z</time></trkpt><trkpt lat="41.020224569367166" lon="17.178023363881355"><ele>9.0</ele><time>2026-05-01T20:00:52.999Z</time></trkpt><trkpt lat="41.01998732725453" lon="17.178372008154874"><ele>9.5</ele><time>2026-05-01T20:00:53.999Z</time></trkpt><trkpt lat="41.0197507610132" lon="17.178711929643473"><ele>10.0</ele><time>2026-05-01T20:00:54.999Z</time></trkpt><trkpt lat="41.019517182805814" lon="17.179030674394788"><ele>10.0</ele><time>2026-05-01T20:00:55.999Z</time></trkpt><trkpt lat="41.019277963288474" lon="17.17934757211342"><ele>10.0</ele><time>2026-05-01T20:00:56.999Z</time></trkpt><trkpt lat="41.019031439505746" lon="17.179665601411244"><ele>9.5</ele><time>2026-05-01T20:00:57.999Z</time></trkpt><trkpt lat="41.01878067861673" lon="17.179977327621902"><ele>9.0</ele><time>2026-05-01T20:00:58.999Z</time></trkpt><trkpt lat="41.01851804151999" lon="17.1802776676762"><ele>9.0</ele><time>2026-05-01T20:00:59.999Z</time></trkpt><trkpt lat="41.0182526899339" lon="17.18056982121676"><ele>9.0</ele><time>2026-05-01T20:01:00.999Z</time></trkpt><trkpt lat="41.01799146233206" lon="17.180850294016487"><ele>9.0</ele><time>2026-05-01T20:01:01.999Z</time></trkpt><trkpt lat="41.017719329454344" lon="17.181123419498356"><ele>9.0</ele><time>2026-05-01T20:01:02.999Z</time></trkpt><trkpt lat="41.01743738721944" lon="17.181399826532314"><ele>8.5</ele><time>2026-05-01T20:01:03.999Z</time></trkpt><trkpt lat="41.01716169904861" lon="17.181672427666378"><ele>8.0</ele><time>2026-05-01T20:01:04.999Z</time></trkpt><trkpt lat="41.01689114701777" lon="17.181941157543825"><ele>8.0</ele><time>2026-05-01T20:01:05.999Z</time></trkpt><trkpt lat="41.01661578293076" lon="17.182223023329332"><ele>8.0</ele><time>2026-05-01T20:01:06.999Z</time></trkpt><trkpt lat="41.01631591187479" lon="17.18252666601642"><ele>8.5</ele><time>2026-05-01T20:01:07.999Z</time></trkpt><trkpt lat="41.01601644682393" lon="17.18283044123284"><ele>9.0</ele><time>2026-05-01T20:01:08.999Z</time></trkpt><trkpt lat="41.01572077946661" lon="17.183133524183532"><ele>9.5</ele><time>2026-05-01T20:01:09.999Z</time></trkpt><trkpt lat="41.015421496692525" lon="17.183443326371794"><ele>10.0</ele><time>2026-05-01T20:01:10.999Z</time></trkpt><trkpt lat="41.01510985804657" lon="17.183760492285767"><ele>9.0</ele><time>2026-05-01T20:01:11.999Z</time></trkpt><trkpt lat="41.01477726715672" lon="17.184094824336245"><ele>8.0</ele><time>2026-05-01T20:01:13Z</time></trkpt><trkpt lat="41.01443687611606" lon="17.184443141739234"><ele>8.0</ele><time>2026-05-01T20:01:14Z</time></trkpt><trkpt lat="41.01409020990444" lon="17.18479843466573"><ele>8.0</ele><time>2026-05-01T20:01:15Z</time></trkpt><trkpt lat="41.01372593769275" lon="17.185168652674736"><ele>9.0</ele><time>2026-05-01T20:01:16Z</time></trkpt><trkpt lat="41.01334851846255" lon="17.185542511049547"><ele>10.0</ele><time>2026-05-01T20:01:17Z</time></trkpt><trkpt lat="41.012969460828835" lon="17.185909323642736"><ele>10.0</ele><time>2026-05-01T20:01:18Z</time></trkpt><trkpt lat="41.01259176555496" lon="17.186281827841896"><ele>10.0</ele><time>2026-05-01T20:01:19Z</time></trkpt><trkpt lat="41.012194938760906" lon="17.186664583725385"><ele>10.0</ele><time>2026-05-01T20:01:20Z</time></trkpt><trkpt lat="41.01179958579597" lon="17.187047881776838"><ele>12.0</ele><time>2026-05-01T20:01:21Z</time></trkpt><trkpt lat="41.011429686470365" lon="17.18742030681197"><ele>12.0</ele><time>2026-05-01T20:01:22Z</time></trkpt><trkpt lat="41.01105824973307" lon="17.18778947037342"><ele>12.0</ele><time>2026-05-01T20:01:23Z</time></trkpt><trkpt lat="41.01068616383207" lon="17.188177423517743"><ele>12.0</ele><time>2026-05-01T20:01:24Z</time></trkpt><trkpt lat="41.01033056538762" lon="17.188532327295473"><ele>12.0</ele><time>2026-05-01T20:01:25Z</time></trkpt><trkpt lat="41.00998022464579" lon="17.188877930222233"><ele>11.5</ele><time>2026-05-01T20:01:26Z</time></trkpt><trkpt lat="41.009635434678394" lon="17.18922384920415"><ele>11.0</ele><time>2026-05-01T20:01:27Z</time></trkpt><trkpt lat="41.00930461415999" lon="17.18955020336151"><ele>11.5</ele><time>2026-05-01T20:01:28Z</time></trkpt><trkpt lat="41.00898667556816" lon="17.189872147002763"><ele>12.0</ele><time>2026-05-01T20:01:29Z</time></trkpt><trkpt lat="41.00867262481018" lon="17.190162523495385"><ele>12.0</ele><time>2026-05-01T20:01:30Z</time></trkpt><trkpt lat="41.00836865259578" lon="17.190511488834957"><ele>12.0</ele><time>2026-05-01T20:01:31Z</time></trkpt><trkpt lat="40.990801955729204" lon="17.207705978932314"><ele>30.5</ele><time>2026-05-01T20:02:31.999Z</time></trkpt><trkpt lat="40.99049550956735" lon="17.20792762097472"><ele>49.0</ele><time>2026-05-01T20:02:32.999Z</time></trkpt><trkpt lat="40.99023665724572" lon="17.208165607300973"><ele>49.0</ele><time>2026-05-01T20:02:33.999Z</time></trkpt><trkpt lat="40.989984036184" lon="17.20843814949719"><ele>49.0</ele><time>2026-05-01T20:02:34.999Z</time></trkpt><trkpt lat="40.9897414060757" lon="17.208712609319857"><ele>49.0</ele><time>2026-05-01T20:02:35.999Z</time></trkpt><trkpt lat="40.98949217552094" lon="17.2089732170277"><ele>49.0</ele><time>2026-05-01T20:02:36.999Z</time></trkpt><trkpt lat="40.98922842963589" lon="17.209197194948242"><ele>50.0</ele><time>2026-05-01T20:02:37.999Z</time></trkpt><trkpt lat="40.98909674438892" lon="17.209511795742635"><ele>51.0</ele><time>2026-05-01T20:02:38.999Z</time></trkpt><trkpt lat="40.98894135714222" lon="17.20976719961724"><ele>49.5</ele><time>2026-05-01T20:02:39.999Z</time></trkpt><trkpt lat="40.98879891984878" lon="17.21000840074542"><ele>48.0</ele><time>2026-05-01T20:02:40.999Z</time></trkpt><trkpt lat="40.98866604155008" lon="17.210245129988927"><ele>48.0</ele><time>2026-05-01T20:02:41.999Z</time></trkpt><trkpt lat="40.98855470297014" lon="17.210485071323642"><ele>48.0</ele><time>2026-05-01T20:02:42.999Z</time></trkpt><trkpt lat="40.988434286875574" lon="17.210734135451016"><ele>48.0</ele><time>2026-05-01T20:02:43.999Z</time></trkpt><trkpt lat="40.98828431408457" lon="17.210985728492503"><ele>48.0</ele><time>2026-05-01T20:02:44.999Z</time></trkpt><trkpt lat="40.9881787310529" lon="17.2112903626737"><ele>48.0</ele><time>2026-05-01T20:02:45.999Z</time></trkpt><trkpt lat="40.98804477684204" lon="17.211608521159665"><ele>48.0</ele><time>2026-05-01T20:02:46.999Z</time></trkpt><trkpt lat="40.98794333397214" lon="17.211924764316283"><ele>48.0</ele><time>2026-05-01T20:02:47.999Z</time></trkpt><trkpt lat="40.98784181872746" lon="17.212249465745973"><ele>46.5</ele><time>2026-05-01T20:02:48.999Z</time></trkpt><trkpt lat="40.987744966974034" lon="17.21259483522302"><ele>45.0</ele><time>2026-05-01T20:02:49.999Z</time></trkpt><trkpt lat="40.987647953627516" lon="17.212976433897907"><ele>45.5</ele><time>2026-05-01T20:02:50.999Z</time></trkpt><trkpt lat="40.987555967732405" lon="17.213397029575994"><ele>46.0</ele><time>2026-05-01T20:02:51.999Z</time></trkpt><trkpt lat="40.987471095024276" lon="17.213860722322867"><ele>47.0</ele><time>2026-05-01T20:02:52.999Z</time></trkpt><trkpt lat="40.987403610078836" lon="17.214351673306357"><ele>48.0</ele><time>2026-05-01T20:02:53.999Z</time></trkpt><trkpt lat="40.987348906664046" lon="17.214870817155692"><ele>48.0</ele><time>2026-05-01T20:02:54.999Z</time></trkpt><trkpt lat="40.987307036499104" lon="17.21540031821089"><ele>48.0</ele><time>2026-05-01T20:02:55.999Z</time></trkpt><trkpt lat="40.98729530657752" lon="17.215966653452117"><ele>47.0</ele><time>2026-05-01T20:02:56.999Z</time></trkpt><trkpt lat="40.9873077497273" lon="17.216547861287935"><ele>46.0</ele><time>2026-05-01T20:02:57.999Z</time></trkpt><trkpt lat="40.987348731694716" lon="17.21713714447086"><ele>49.0</ele><time>2026-05-01T20:02:58.999Z</time></trkpt><trkpt lat="40.98740852182403" lon="17.217763332759347"><ele>49.0</ele><time>2026-05-01T20:02:59.999Z</time></trkpt><trkpt lat="40.98745735131064" lon="17.21839959533621"><ele>47.0</ele><time>2026-05-01T20:03:00.999Z</time></trkpt><trkpt lat="40.98748280464985" lon="17.219056218975407"><ele>47.0</ele><time>2026-05-01T20:03:01.999Z</time></trkpt><trkpt lat="40.98750883226347" lon="17.219717385157363"><ele>43.0</ele><time>2026-05-01T20:03:02.999Z</time></trkpt><trkpt lat="40.987530455478115" lon="17.220356896096774"><ele>41.0</ele><time>2026-05-01T20:03:03.999Z</time></trkpt><trkpt lat="40.98755393632276" lon="17.22101572139669"><ele>39.0</ele><time>2026-05-01T20:03:04.999Z</time></trkpt><trkpt lat="40.98756422897721" lon="17.221674898168963"><ele>36.0</ele><time>2026-05-01T20:03:05.999Z</time></trkpt><trkpt lat="40.98757104392577" lon="17.22232481237804"><ele>36.0</ele><time>2026-05-01T20:03:06.999Z</time></trkpt><trkpt lat="40.987617109076616" lon="17.22287919766214"><ele>36.0</ele><time>2026-05-01T20:03:07.999Z</time></trkpt><trkpt lat="40.98764469462575" lon="17.223475136216795"><ele>36.0</ele><time>2026-05-01T20:03:08.999Z</time></trkpt><trkpt lat="40.98767360188878" lon="17.224003400175086"><ele>36.0</ele><time>2026-05-01T20:03:09.999Z</time></trkpt><trkpt lat="40.98770333228845" lon="17.224570006637475"><ele>35.5</ele><time>2026-05-01T20:03:10.999Z</time></trkpt><trkpt lat="40.98772089680908" lon="17.225077315556064"><ele>35.0</ele><time>2026-05-01T20:03:11.999Z</time></trkpt><trkpt lat="40.98775217741309" lon="17.22564250891991"><ele>34.0</ele><time>2026-05-01T20:03:12.999Z</time></trkpt><trkpt lat="40.98781161103382" lon="17.226227305328752"><ele>33.0</ele><time>2026-05-01T20:03:13.999Z</time></trkpt><trkpt lat="40.987870922821386" lon="17.226823406202715"><ele>31.0</ele><time>2026-05-01T20:03:14.999Z</time></trkpt><trkpt lat="40.987914685160625" lon="17.22742756436963"><ele>31.0</ele><time>2026-05-01T20:03:15.999Z</time></trkpt><trkpt lat="40.98794640555173" lon="17.228032853707198"><ele>30.5</ele><time>2026-05-01T20:03:16.999Z</time></trkpt><trkpt lat="40.98796243875597" lon="17.228612002702352"><ele>30.0</ele><time>2026-05-01T20:03:17.999Z</time></trkpt><trkpt lat="40.987975957734605" lon="17.229156045988166"><ele>29.5</ele><time>2026-05-01T20:03:19Z</time></trkpt><trkpt lat="40.9879956127577" lon="17.229683615615723"><ele>29.0</ele><time>2026-05-01T20:03:20Z</time></trkpt><trkpt lat="40.98799788185199" lon="17.230234892956297"><ele>28.0</ele><time>2026-05-01T20:03:21Z</time></trkpt><trkpt lat="40.98796120132158" lon="17.230791931894338"><ele>27.0</ele><time>2026-05-01T20:03:22Z</time></trkpt><trkpt lat="40.98790255389503" lon="17.231370959169702"><ele>24.0</ele><time>2026-05-01T20:03:23Z</time></trkpt><trkpt lat="40.98780041286153" lon="17.231959063947663"><ele>25.0</ele><time>2026-05-01T20:03:24Z</time></trkpt><trkpt lat="40.98769443546146" lon="17.232543946304272"><ele>25.0</ele><time>2026-05-01T20:03:25Z</time></trkpt><trkpt lat="40.98753655787466" lon="17.23312645287016"><ele>27.0</ele><time>2026-05-01T20:03:26Z</time></trkpt><trkpt lat="40.987357778333084" lon="17.2337052920747"><ele>25.0</ele><time>2026-05-01T20:03:27Z</time></trkpt><trkpt lat="40.987146717205185" lon="17.234270837120647"><ele>23.0</ele><time>2026-05-01T20:03:28Z</time></trkpt><trkpt lat="40.986934744655" lon="17.23482052588765"><ele>23.0</ele><time>2026-05-01T20:03:29Z</time></trkpt><trkpt lat="40.98669049434041" lon="17.235269366158345"><ele>23.0</ele><time>2026-05-01T20:03:30Z</time></trkpt><trkpt lat="40.98640956096331" lon="17.235787711230486"><ele>33.0</ele><time>2026-05-01T20:03:31Z</time></trkpt><trkpt lat="40.9687515652753" lon="17.262020231309773"><ele>32.0</ele><time>2026-05-01T20:04:31.999Z</time></trkpt><trkpt lat="40.96835584711928" lon="17.262040081619194"><ele>31.0</ele><time>2026-05-01T20:04:32.999Z</time></trkpt><trkpt lat="40.96795439659077" lon="17.262022733151746"><ele>31.0</ele><time>2026-05-01T20:04:33.999Z</time></trkpt><trkpt lat="40.967551666567275" lon="17.26197663568387"><ele>31.0</ele><time>2026-05-01T20:04:34.999Z</time></trkpt><trkpt lat="40.967147661269514" lon="17.261902967366176"><ele>32.5</ele><time>2026-05-01T20:04:35.999Z</time></trkpt><trkpt lat="40.966747178518325" lon="17.26180158433814"><ele>34.0</ele><time>2026-05-01T20:04:36.999Z</time></trkpt><trkpt lat="40.96633102110058" lon="17.261709159882553"><ele>34.0</ele><time>2026-05-01T20:04:37.999Z</time></trkpt><trkpt lat="40.96591528119032" lon="17.26162623395713"><ele>34.0</ele><time>2026-05-01T20:04:38.999Z</time></trkpt><trkpt lat="40.96549276630901" lon="17.2615462153575"><ele>34.5</ele><time>2026-05-01T20:04:39.999Z</time></trkpt><trkpt lat="40.96508413798547" lon="17.261461034183917"><ele>35.0</ele><time>2026-05-01T20:04:40.999Z</time></trkpt><trkpt lat="40.964668687225746" lon="17.26137823765043"><ele>35.5</ele><time>2026-05-01T20:04:41.999Z</time></trkpt><trkpt lat="40.96426296704892" lon="17.26128236329273"><ele>36.0</ele><time>2026-05-01T20:04:42.999Z</time></trkpt><trkpt lat="40.96384848326278" lon="17.261181518970083"><ele>36.0</ele><time>2026-05-01T20:04:43.999Z</time></trkpt><trkpt lat="40.96341355916702" lon="17.261072324002743"><ele>36.0</ele><time>2026-05-01T20:04:44.999Z</time></trkpt><trkpt lat="40.96298988756133" lon="17.260960473506582"><ele>36.0</ele><time>2026-05-01T20:04:45.999Z</time></trkpt><trkpt lat="40.96254975916427" lon="17.260858778581753"><ele>36.0</ele><time>2026-05-01T20:04:46.999Z</time></trkpt><trkpt lat="40.962093268155456" lon="17.260761615304517"><ele>37.0</ele><time>2026-05-01T20:04:47.999Z</time></trkpt><trkpt lat="40.961637900553825" lon="17.260661250654927"><ele>38.0</ele><time>2026-05-01T20:04:48.999Z</time></trkpt><trkpt lat="40.96117726524034" lon="17.260555948727404"><ele>38.0</ele><time>2026-05-01T20:04:49.999Z</time></trkpt><trkpt lat="40.960732911908046" lon="17.2604586957213"><ele>38.0</ele><time>2026-05-01T20:04:50.999Z</time></trkpt><trkpt lat="40.960286920704256" lon="17.260360095199815"><ele>38.0</ele><time>2026-05-01T20:04:51.999Z</time></trkpt><trkpt lat="40.95984835318639" lon="17.26025246215774"><ele>38.0</ele><time>2026-05-01T20:04:52.999Z</time></trkpt><trkpt lat="40.95940686568467" lon="17.260136842320485"><ele>43.0</ele><time>2026-05-01T20:04:53.999Z</time></trkpt><trkpt lat="40.95893890321035" lon="17.260027359964795"><ele>43.0</ele><time>2026-05-01T20:04:54.999Z</time></trkpt><trkpt lat="40.958469967308304" lon="17.25993852531329"><ele>43.0</ele><time>2026-05-01T20:04:55.999Z</time></trkpt><trkpt lat="40.95798985095269" lon="17.259886378888357"><ele>42.0</ele><time>2026-05-01T20:04:56.999Z</time></trkpt><trkpt lat="40.95749751729004" lon="17.25984834570507"><ele>42.0</ele><time>2026-05-01T20:04:57.999Z</time></trkpt><trkpt lat="40.95700541029184" lon="17.259838427880755"><ele>46.0</ele><time>2026-05-01T20:04:58.999Z</time></trkpt><trkpt lat="40.95652321720777" lon="17.25986247982566"><ele>46.0</ele><time>2026-05-01T20:04:59.999Z</time></trkpt><trkpt lat="40.956075868334516" lon="17.259933820728133"><ele>48.0</ele><time>2026-05-01T20:05:00.999Z</time></trkpt><trkpt lat="40.9556464160701" lon="17.260026751757376"><ele>50.0</ele><time>2026-05-01T20:05:01.999Z</time></trkpt><trkpt lat="40.95523950335083" lon="17.260133133523716"><ele>49.0</ele><time>2026-05-01T20:05:02.999Z</time></trkpt><trkpt lat="40.95482626870008" lon="17.260279595662027"><ele>48.0</ele><time>2026-05-01T20:05:03.999Z</time></trkpt><trkpt lat="40.95442351558118" lon="17.260445223178092"><ele>49.0</ele><time>2026-05-01T20:05:04.999Z</time></trkpt><trkpt lat="40.95401428020247" lon="17.26064502486853"><ele>50.0</ele><time>2026-05-01T20:05:05.999Z</time></trkpt><trkpt lat="40.95361037166994" lon="17.260868411855085"><ele>50.0</ele><time>2026-05-01T20:05:06.999Z</time></trkpt><trkpt lat="40.95322246576358" lon="17.261116971598433"><ele>50.0</ele><time>2026-05-01T20:05:07.999Z</time></trkpt><trkpt lat="40.95285767231236" lon="17.26138465600164"><ele>51.0</ele><time>2026-05-01T20:05:08.999Z</time></trkpt><trkpt lat="40.95250638088513" lon="17.261678188693917"><ele>52.0</ele><time>2026-05-01T20:05:09.999Z</time></trkpt><trkpt lat="40.95214179944779" lon="17.262000456368124"><ele>52.5</ele><time>2026-05-01T20:05:10.999Z</time></trkpt><trkpt lat="40.95179708577407" lon="17.26234266561457"><ele>53.0</ele><time>2026-05-01T20:05:11.999Z</time></trkpt><trkpt lat="40.95147614954511" lon="17.262713702543337"><ele>54.0</ele><time>2026-05-01T20:05:12.999Z</time></trkpt><trkpt lat="40.95116185516226" lon="17.263110959509"><ele>55.0</ele><time>2026-05-01T20:05:13.999Z</time></trkpt><trkpt lat="40.95085859160328" lon="17.263525808906888"><ele>55.5</ele><time>2026-05-01T20:05:14.999Z</time></trkpt><trkpt lat="40.95056299174417" lon="17.26396246303607"><ele>56.0</ele><time>2026-05-01T20:05:15.999Z</time></trkpt><trkpt lat="40.95028654336072" lon="17.264425270438693"><ele>56.5</ele><time>2026-05-01T20:05:16.999Z</time></trkpt><trkpt lat="40.95002786474838" lon="17.264896703764812"><ele>57.0</ele><time>2026-05-01T20:05:17.999Z</time></trkpt><trkpt lat="40.94977213636919" lon="17.265398515515656"><ele>56.0</ele><time>2026-05-01T20:05:18.999Z</time></trkpt><trkpt lat="40.949510930967236" lon="17.265918182952646"><ele>56.0</ele><time>2026-05-01T20:05:19.999Z</time></trkpt><trkpt lat="40.94922937929471" lon="17.2664380921901"><ele>56.0</ele><time>2026-05-01T20:05:20.999Z</time></trkpt><trkpt lat="40.94896340538953" lon="17.266955399078313"><ele>54.0</ele><time>2026-05-01T20:05:21.999Z</time></trkpt><trkpt lat="40.94868466930185" lon="17.267474066946683"><ele>54.0</ele><time>2026-05-01T20:05:22.999Z</time></trkpt><trkpt lat="40.948411738473006" lon="17.267968742921614"><ele>55.0</ele><time>2026-05-01T20:05:23.999Z</time></trkpt><trkpt lat="40.94814141537135" lon="17.268497160751224"><ele>55.0</ele><time>2026-05-01T20:05:25Z</time></trkpt><trkpt lat="40.94787499234194" lon="17.269012353677116"><ele>55.0</ele><time>2026-05-01T20:05:26Z</time></trkpt><trkpt lat="40.94760379508814" lon="17.26954230070844"><ele>57.0</ele><time>2026-05-01T20:05:27Z</time></trkpt><trkpt lat="40.94732160938061" lon="17.270078557769935"><ele>55.0</ele><time>2026-05-01T20:05:28Z</time></trkpt><trkpt lat="40.94702910614454" lon="17.27063296196302"><ele>55.0</ele><time>2026-05-01T20:05:29Z</time></trkpt><trkpt lat="40.946727777125076" lon="17.271177810180937"><ele>56.0</ele><time>2026-05-01T20:05:30Z</time></trkpt><trkpt lat="40.94642726054096" lon="17.271743575282176"><ele>45.0</ele><time>2026-05-01T20:05:31Z</time></trkpt><trkpt lat="40.94242522325909" lon="17.28362841749343"><ele>45.0</ele><time>2026-05-01T20:06:31.999Z</time></trkpt><trkpt lat="40.942510916982464" lon="17.283701019723527"><ele>45.0</ele><time>2026-05-01T20:06:32.999Z</time></trkpt><trkpt lat="40.942583056932094" lon="17.28381611418009"><ele>45.0</ele><time>2026-05-01T20:06:33.999Z</time></trkpt><trkpt lat="40.94267272693849" lon="17.283921993590656"><ele>45.0</ele><time>2026-05-01T20:06:34.999Z</time></trkpt><trkpt lat="40.942749597126046" lon="17.284010216142796"><ele>45.0</ele><time>2026-05-01T20:06:35.999Z</time></trkpt><trkpt lat="40.942836787264696" lon="17.28408506540552"><ele>44.0</ele><time>2026-05-01T20:06:36.999Z</time></trkpt><trkpt lat="40.94292130908951" lon="17.284173351218925"><ele>43.0</ele><time>2026-05-01T20:06:37.999Z</time></trkpt><trkpt lat="40.943018195661935" lon="17.284295073434773"><ele>42.0</ele><time>2026-05-01T20:06:38.999Z</time></trkpt><trkpt lat="40.94308848663658" lon="17.28443270017515"><ele>41.0</ele><time>2026-05-01T20:06:39.999Z</time></trkpt><trkpt lat="40.94319763616056" lon="17.28454805661002"><ele>41.0</ele><time>2026-05-01T20:06:40.999Z</time></trkpt><trkpt lat="40.94329901123718" lon="17.28461829904595"><ele>41.0</ele><time>2026-05-01T20:06:41.999Z</time></trkpt><trkpt lat="40.94345592797836" lon="17.284783694823613"><ele>41.0</ele><time>2026-05-01T20:06:42.999Z</time></trkpt><trkpt lat="40.943571915560135" lon="17.2849699461288"><ele>41.0</ele><time>2026-05-01T20:06:43.999Z</time></trkpt><trkpt lat="40.943720947650135" lon="17.285129358147262"><ele>41.0</ele><time>2026-05-01T20:06:44.999Z</time></trkpt><trkpt lat="40.943875161124225" lon="17.285311764921474"><ele>41.0</ele><time>2026-05-01T20:06:45.999Z</time></trkpt><trkpt lat="40.94403622386544" lon="17.285491355283934"><ele>41.0</ele><time>2026-05-01T20:06:46.999Z</time></trkpt><trkpt lat="40.94419233349501" lon="17.28568248241336"><ele>41.0</ele><time>2026-05-01T20:06:47.999Z</time></trkpt><trkpt lat="40.94432888763467" lon="17.28583447568062"><ele>41.0</ele><time>2026-05-01T20:06:48.999Z</time></trkpt><trkpt lat="40.9444288979505" lon="17.286006878673376"><ele>41.33333333333333</ele><time>2026-05-01T20:06:49.999Z</time></trkpt><trkpt lat="40.94456674772548" lon="17.286116966035884"><ele>41.666666666666664</ele><time>2026-05-01T20:06:50.999Z</time></trkpt><trkpt lat="40.94467380903166" lon="17.28625049899388"><ele>42.0</ele><time>2026-05-01T20:06:51.999Z</time></trkpt><trkpt lat="40.944785687023526" lon="17.286380722869243"><ele>41.75</ele><time>2026-05-01T20:06:52.999Z</time></trkpt><trkpt lat="40.944890829766486" lon="17.286500704032907"><ele>41.5</ele><time>2026-05-01T20:06:53.999Z</time></trkpt><trkpt lat="40.94499261583802" lon="17.286613397513847"><ele>41.25</ele><time>2026-05-01T20:06:54.999Z</time></trkpt><trkpt lat="40.94507803476207" lon="17.286723509284673"><ele>41.0</ele><time>2026-05-01T20:06:55.999Z</time></trkpt><trkpt lat="40.94516106349663" lon="17.286833243027218"><ele>41.0</ele><time>2026-05-01T20:06:56.999Z</time></trkpt><trkpt lat="40.945268837901125" lon="17.28695949474315"><ele>41.0</ele><time>2026-05-01T20:06:57.999Z</time></trkpt><trkpt lat="40.945365612352134" lon="17.28707390448438"><ele>41.0</ele><time>2026-05-01T20:06:58.999Z</time></trkpt><trkpt lat="40.94544914875109" lon="17.287172572485133"><ele>41.0</ele><time>2026-05-01T20:06:59.999Z</time></trkpt><trkpt lat="40.94552788421469" lon="17.287265609199185"><ele>41.0</ele><time>2026-05-01T20:07:00.999Z</time></trkpt><trkpt lat="40.945601747638236" lon="17.287352878518863"><ele>41.0</ele><time>2026-05-01T20:07:01.999Z</time></trkpt><trkpt lat="40.94567203191035" lon="17.28743591908476"><ele>41.0</ele><time>2026-05-01T20:07:02.999Z</time></trkpt><trkpt lat="40.94574957879344" lon="17.28752754039552"><ele>41.0</ele><time>2026-05-01T20:07:03.999Z</time></trkpt><trkpt lat="40.94584215474172" lon="17.28763843761586"><ele>41.0</ele><time>2026-05-01T20:07:04.999Z</time></trkpt><trkpt lat="40.94595716720713" lon="17.287748742466256"><ele>41.0</ele><time>2026-05-01T20:07:05.999Z</time></trkpt><trkpt lat="40.94607834877648" lon="17.2878917974226"><ele>41.0</ele><time>2026-05-01T20:07:06.999Z</time></trkpt><trkpt lat="40.946185352967596" lon="17.28801843844101"><ele>41.0</ele><time>2026-05-01T20:07:07.999Z</time></trkpt><trkpt lat="40.946286234960425" lon="17.28815309408956"><ele>41.0</ele><time>2026-05-01T20:07:08.999Z</time></trkpt><trkpt lat="40.94638181154475" lon="17.288250659087186"><ele>41.0</ele><time>2026-05-01T20:07:09.999Z</time></trkpt><trkpt lat="40.94647023943437" lon="17.288348326066654"><ele>41.0</ele><time>2026-05-01T20:07:10.999Z</time></trkpt><trkpt lat="40.94656911977838" lon="17.28848446150362"><ele>41.0</ele><time>2026-05-01T20:07:11.999Z</time></trkpt><trkpt lat="40.94668246980825" lon="17.28859159325241"><ele>41.0</ele><time>2026-05-01T20:07:12.999Z</time></trkpt><trkpt lat="40.94677326921966" lon="17.288701577736077"><ele>41.0</ele><time>2026-05-01T20:07:13.999Z</time></trkpt><trkpt lat="40.94687176348329" lon="17.288817007303557"><ele>41.0</ele><time>2026-05-01T20:07:14.999Z</time></trkpt><trkpt lat="40.94697306822971" lon="17.28894928014248"><ele>41.0</ele><time>2026-05-01T20:07:15.999Z</time></trkpt><trkpt lat="40.94708074721634" lon="17.289077569212953"><ele>41.0</ele><time>2026-05-01T20:07:16.999Z</time></trkpt><trkpt lat="40.9471853439097" lon="17.289192805656104"><ele>40.5</ele><time>2026-05-01T20:07:17.999Z</time></trkpt><trkpt lat="40.94727616656647" lon="17.289288349395758"><ele>40.0</ele><time>2026-05-01T20:07:18.999Z</time></trkpt><trkpt lat="40.947363240160165" lon="17.289416549617155"><ele>39.5</ele><time>2026-05-01T20:07:19.999Z</time></trkpt><trkpt lat="40.94746586950633" lon="17.28953865563413"><ele>39.0</ele><time>2026-05-01T20:07:20.999Z</time></trkpt><trkpt lat="40.94758748071135" lon="17.289679472836518"><ele>37.75</ele><time>2026-05-01T20:07:21.999Z</time></trkpt><trkpt lat="40.947701105245976" lon="17.289813807374717"><ele>36.5</ele><time>2026-05-01T20:07:22.999Z</time></trkpt><trkpt lat="40.947798711836214" lon="17.28993290206435"><ele>35.25</ele><time>2026-05-01T20:07:23.999Z</time></trkpt><trkpt lat="40.947886496581916" lon="17.29004001262939"><ele>34.0</ele><time>2026-05-01T20:07:24.999Z</time></trkpt><trkpt lat="40.94796732916499" lon="17.290138640521516"><ele>34.0</ele><time>2026-05-01T20:07:25.999Z</time></trkpt><trkpt lat="40.94803947235931" lon="17.29022666604437"><ele>34.0</ele><time>2026-05-01T20:07:26.999Z</time></trkpt><trkpt lat="40.948107991762356" lon="17.290282826976078"><ele>34.0</ele><time>2026-05-01T20:07:27.999Z</time></trkpt><trkpt lat="40.948154627919784" lon="17.29035271152464"><ele>34.0</ele><time>2026-05-01T20:07:28.999Z</time></trkpt><trkpt lat="40.94821324240465" lon="17.290459254482805"><ele>34.0</ele><time>2026-05-01T20:07:31Z</time></trkpt><trkpt lat="40.949674433968475" lon="17.294815273286385"><ele>32.6</ele><time>2026-05-01T20:08:32Z</time></trkpt><trkpt lat="40.94967102933157" lon="17.29491811713648"><ele>31.2</ele><time>2026-05-01T20:08:32.999Z</time></trkpt><trkpt lat="40.94966129090208" lon="17.29502409177269"><ele>29.800000000000004</ele><time>2026-05-01T20:08:33.999Z</time></trkpt><trkpt lat="40.94965590639536" lon="17.29514361269562"><ele>28.400000000000002</ele><time>2026-05-01T20:08:34.999Z</time></trkpt><trkpt lat="40.949671190240515" lon="17.29530633420232"><ele>27.0</ele><time>2026-05-01T20:08:35.999Z</time></trkpt><trkpt lat="40.94967447469315" lon="17.295476060939073"><ele>26.0</ele><time>2026-05-01T20:08:37.999Z</time></trkpt><trkpt lat="40.949690726308646" lon="17.295589555568508"><ele>25.0</ele><time>2026-05-01T20:08:38.999Z</time></trkpt><trkpt lat="40.94968179106511" lon="17.295704824468867"><ele>24.0</ele><time>2026-05-01T20:08:39.999Z</time></trkpt><trkpt lat="40.949718655375484" lon="17.29582409610704"><ele>23.0</ele><time>2026-05-01T20:08:40.999Z</time></trkpt><trkpt lat="40.9497416411681" lon="17.295907038171233"><ele>22.0</ele><time>2026-05-01T20:08:41.999Z</time></trkpt><trkpt lat="40.94978915440051" lon="17.296035356909996"><ele>21.0</ele><time>2026-05-01T20:08:43.999Z</time></trkpt><trkpt lat="40.94985517599969" lon="17.296194834165274"><ele>21.666666666666668</ele><time>2026-05-01T20:08:45.999Z</time></trkpt><trkpt lat="40.950083517108986" lon="17.296168366622318"><ele>22.333333333333336</ele><time>2026-05-01T20:08:46.999Z</time></trkpt><trkpt lat="40.95024758426383" lon="17.296241993584978"><ele>23.0</ele><time>2026-05-01T20:08:47.999Z</time></trkpt><trkpt lat="40.95036889485846" lon="17.296341461112885"><ele>22.833333333333336</ele><time>2026-05-01T20:08:48.999Z</time></trkpt><trkpt lat="40.95046258832114" lon="17.296468038582333"><ele>22.666666666666668</ele><time>2026-05-01T20:08:49.999Z</time></trkpt><trkpt lat="40.9505354622195" lon="17.296522527161756"><ele>22.5</ele><time>2026-05-01T20:08:50.999Z</time></trkpt><trkpt lat="40.95058648269265" lon="17.296589390860415"><ele>22.333333333333332</ele><time>2026-05-01T20:08:51.999Z</time></trkpt><trkpt lat="40.950635660263835" lon="17.296641894006527"><ele>22.166666666666664</ele><time>2026-05-01T20:08:52.999Z</time></trkpt><trkpt lat="40.95071008792901" lon="17.296715089617337"><ele>22.0</ele><time>2026-05-01T20:08:54.999Z</time></trkpt><trkpt lat="40.95067165027598" lon="17.296879734072935"><ele>22.0</ele><time>2026-05-01T20:08:55.999Z</time></trkpt><trkpt lat="40.95070594434947" lon="17.296996206281737"><ele>22.0</ele><time>2026-05-01T20:08:56.999Z</time></trkpt><trkpt lat="40.95076031490253" lon="17.297127228477002"><ele>22.0</ele><time>2026-05-01T20:08:57.999Z</time></trkpt><trkpt lat="40.95079654498628" lon="17.297251485771437"><ele>22.0</ele><time>2026-05-01T20:08:58.999Z</time></trkpt><trkpt lat="40.9508118418215" lon="17.297361319191594"><ele>22.0</ele><time>2026-05-01T20:08:59.999Z</time></trkpt><trkpt lat="40.95083855305137" lon="17.297457170242957"><ele>22.166666666666664</ele><time>2026-05-01T20:09:00.999Z</time></trkpt><trkpt lat="40.95085940679222" lon="17.29753787974685"><ele>22.333333333333332</ele><time>2026-05-01T20:09:01.999Z</time></trkpt><trkpt lat="40.95089505119966" lon="17.297662963436583"><ele>22.5</ele><time>2026-05-01T20:09:03.999Z</time></trkpt><trkpt lat="40.95091932850947" lon="17.29775506711031"><ele>22.666666666666668</ele><time>2026-05-01T20:09:05.999Z</time></trkpt><trkpt lat="40.95094701994369" lon="17.297855958875598"><ele>22.833333333333336</ele><time>2026-05-01T20:09:08.999Z</time></trkpt><trkpt lat="40.950981361542745" lon="17.29798107999494"><ele>23.0</ele><time>2026-05-01T20:09:10.999Z</time></trkpt><trkpt lat="40.9510107335145" lon="17.2980880946757"><ele>22.166666666666668</ele><time>2026-05-01T20:09:12.999Z</time></trkpt><trkpt lat="40.95106666053021" lon="17.298236648260904"><ele>21.333333333333336</ele><time>2026-05-01T20:09:14.999Z</time></trkpt><trkpt lat="40.95108017864595" lon="17.29833900136768"><ele>20.5</ele><time>2026-05-01T20:09:15.999Z</time></trkpt><trkpt lat="40.951107590612885" lon="17.298437360741094"><ele>19.666666666666668</ele><time>2026-05-01T20:09:16.999Z</time></trkpt><trkpt lat="40.951136581199805" lon="17.298541384515907"><ele>18.833333333333332</ele><time>2026-05-01T20:09:17.999Z</time></trkpt><trkpt lat="40.95116475789229" lon="17.298642487883797"><ele>18.0</ele><time>2026-05-01T20:09:18.999Z</time></trkpt><trkpt lat="40.95119427350666" lon="17.298748001196046"><ele>18.0</ele><time>2026-05-01T20:09:19.999Z</time></trkpt><trkpt lat="40.951224290024626" lon="17.29885687364414"><ele>18.0</ele><time>2026-05-01T20:09:20.999Z</time></trkpt><trkpt lat="40.95123081768222" lon="17.298964284117673"><ele>18.0</ele><time>2026-05-01T20:09:21.999Z</time></trkpt><trkpt lat="40.951277348934035" lon="17.2990259920104"><ele>18.0</ele><time>2026-05-01T20:09:22.999Z</time></trkpt><trkpt lat="40.95131531274178" lon="17.299124268003553"><ele>18.0</ele><time>2026-05-01T20:09:25.999Z</time></trkpt><trkpt lat="40.95133392553233" lon="17.299247074674344"><ele>18.0</ele><time>2026-05-01T20:09:27.999Z</time></trkpt><trkpt lat="40.95136339186162" lon="17.29935012606151"><ele>15.0</ele><time>2026-05-01T20:09:29.999Z</time></trkpt><trkpt lat="40.95277924427006" lon="17.2994150610198"><ele>15.0</ele><time>2026-05-01T20:10:32Z</time></trkpt><trkpt lat="40.95301188869257" lon="17.299339837056397"><ele>15.0</ele><time>2026-05-01T20:10:33Z</time></trkpt><trkpt lat="40.95270839032273" lon="17.29923107121835"><ele>15.0</ele><time>2026-05-01T20:10:35Z</time></trkpt><trkpt lat="40.95266205852183" lon="17.299146634638785"><ele>15.0</ele><time>2026-05-01T20:10:36.999Z</time></trkpt><trkpt lat="40.952624909332954" lon="17.299073887632815"><ele>15.0</ele><time>2026-05-01T20:10:37.999Z</time></trkpt><trkpt lat="40.952640059604725" lon="17.298990391807603"><ele>15.0</ele><time>2026-05-01T20:10:38.999Z</time></trkpt><trkpt lat="40.95259940153944" lon="17.298899268484117"><ele>15.0</ele><time>2026-05-01T20:10:40.999Z</time></trkpt><trkpt lat="40.95257329095359" lon="17.298783858122253"><ele>15.0</ele><time>2026-05-01T20:10:42.999Z</time></trkpt><trkpt lat="40.95254924850503" lon="17.29864954704354"><ele>15.0</ele><time>2026-05-01T20:10:44.999Z</time></trkpt><trkpt lat="40.95250820135123" lon="17.298556658920667"><ele>15.0</ele><time>2026-05-01T20:10:46.999Z</time></trkpt><trkpt lat="40.95275811939969" lon="17.298476994107546"><ele>15.0</ele><time>2026-05-01T20:10:48.999Z</time></trkpt><trkpt lat="40.95288903825702" lon="17.29841445413705"><ele>15.0</ele><time>2026-05-01T20:10:49.999Z</time></trkpt><trkpt lat="40.9529825739342" lon="17.298369772577857"><ele>15.0</ele><time>2026-05-01T20:10:50.999Z</time></trkpt><trkpt lat="40.953084940538105" lon="17.298320434715677"><ele>15.0</ele><time>2026-05-01T20:10:51.999Z</time></trkpt><trkpt lat="40.95316633438228" lon="17.29828133829884"><ele>15.0</ele><time>2026-05-01T20:10:52.999Z</time></trkpt><trkpt lat="40.95331957004317" lon="17.298207733776373"><ele>15.0</ele><time>2026-05-01T20:10:54.999Z</time></trkpt><trkpt lat="40.95342024479568" lon="17.2982110591701"><ele>15.0</ele><time>2026-05-01T20:10:55.999Z</time></trkpt><trkpt lat="40.953559648973446" lon="17.298126471772523"><ele>15.0</ele><time>2026-05-01T20:10:56.999Z</time></trkpt><trkpt lat="40.953704064195755" lon="17.29800904039081"><ele>15.0</ele><time>2026-05-01T20:10:57.999Z</time></trkpt><trkpt lat="40.953823548442784" lon="17.29794850042523"><ele>15.0</ele><time>2026-05-01T20:10:58.999Z</time></trkpt><trkpt lat="40.95392317015847" lon="17.29791607911116"><ele>15.0</ele><time>2026-05-01T20:10:59.999Z</time></trkpt><trkpt lat="40.954009105566485" lon="17.297876911936417"><ele>15.0</ele><time>2026-05-01T20:11:00.999Z</time></trkpt><trkpt lat="40.95408176123725" lon="17.297843430362494"><ele>15.0</ele><time>2026-05-01T20:11:01.999Z</time></trkpt><trkpt lat="40.95418075897764" lon="17.297797849283032"><ele>15.0</ele><time>2026-05-01T20:11:02.999Z</time></trkpt><trkpt lat="40.95430712099657" lon="17.297739668975783"><ele>14.6</ele><time>2026-05-01T20:11:03.999Z</time></trkpt><trkpt lat="40.95442331366844" lon="17.29768540348524"><ele>14.2</ele><time>2026-05-01T20:11:04.999Z</time></trkpt><trkpt lat="40.954534254346065" lon="17.297633069008644"><ele>13.8</ele><time>2026-05-01T20:11:05.999Z</time></trkpt><trkpt lat="40.95463187294163" lon="17.297587019030324"><ele>13.4</ele><time>2026-05-01T20:11:06.999Z</time></trkpt><trkpt lat="40.95472643748777" lon="17.29754240972758"><ele>13.0</ele><time>2026-05-01T20:11:07.999Z</time></trkpt><trkpt lat="40.95486946486166" lon="17.297475279387328"><ele>13.0</ele><time>2026-05-01T20:11:08.999Z</time></trkpt><trkpt lat="40.95503135272124" lon="17.297399047436308"><ele>13.0</ele><time>2026-05-01T20:11:09.999Z</time></trkpt><trkpt lat="40.955222059944305" lon="17.297305901699357"><ele>13.0</ele><time>2026-05-01T20:11:10.999Z</time></trkpt><trkpt lat="40.9553588596018" lon="17.29723957786238"><ele>13.2</ele><time>2026-05-01T20:11:11.999Z</time></trkpt><trkpt lat="40.955455538344644" lon="17.297192705641592"><ele>13.4</ele><time>2026-05-01T20:11:12.999Z</time></trkpt><trkpt lat="40.95553479015264" lon="17.297155238007385"><ele>13.599999999999998</ele><time>2026-05-01T20:11:13.999Z</time></trkpt><trkpt lat="40.955621597124285" lon="17.29711466230518"><ele>13.799999999999999</ele><time>2026-05-01T20:11:14.999Z</time></trkpt><trkpt lat="40.95574173542184" lon="17.29705850683205"><ele>14.0</ele><time>2026-05-01T20:11:15.999Z</time></trkpt><trkpt lat="40.95587318681347" lon="17.296997063067757"><ele>13.0</ele><time>2026-05-01T20:11:16.999Z</time></trkpt><trkpt lat="40.95598429352025" lon="17.29694883866673"><ele>11.999999999999998</ele><time>2026-05-01T20:11:17.999Z</time></trkpt><trkpt lat="40.956068084114264" lon="17.296910914665318"><ele>11.0</ele><time>2026-05-01T20:11:18.999Z</time></trkpt><trkpt lat="40.95614915339675" lon="17.296871580670793"><ele>10.0</ele><time>2026-05-01T20:11:19.999Z</time></trkpt><trkpt lat="40.95622340322258" lon="17.296849101413414"><ele>9.0</ele><time>2026-05-01T20:11:20.999Z</time></trkpt><trkpt lat="40.956308261720224" lon="17.296723887602663"><ele>9.0</ele><time>2026-05-01T20:11:22.999Z</time></trkpt><trkpt lat="40.95635892302311" lon="17.29663476408229"><ele>9.0</ele><time>2026-05-01T20:11:23.999Z</time></trkpt><trkpt lat="40.956445734132124" lon="17.29651821899699"><ele>9.0</ele><time>2026-05-01T20:11:24.999Z</time></trkpt><trkpt lat="40.95653081243054" lon="17.296372841145526"><ele>9.0</ele><time>2026-05-01T20:11:25.999Z</time></trkpt><trkpt lat="40.956606445425415" lon="17.296245243104682"><ele>9.2</ele><time>2026-05-01T20:11:26.999Z</time></trkpt><trkpt lat="40.95667443821264" lon="17.29612927157954"><ele>9.4</ele><time>2026-05-01T20:11:27.999Z</time></trkpt><trkpt lat="40.956754621253914" lon="17.296042134508195"><ele>9.6</ele><time>2026-05-01T20:11:28.999Z</time></trkpt><trkpt lat="40.956806267876864" lon="17.295932975429324"><ele>9.8</ele><time>2026-05-01T20:11:29.999Z</time></trkpt><trkpt lat="40.9568638295238" lon="17.295858848217772"><ele>10.0</ele><time>2026-05-01T20:11:30.999Z</time></trkpt><trkpt lat="40.955882430983024" lon="17.29018840806796"><ele>12.0</ele><time>2026-05-01T20:12:32Z</time></trkpt><trkpt lat="40.95595894021188" lon="17.290013590676924"><ele>14.0</ele><time>2026-05-01T20:12:33Z</time></trkpt><trkpt lat="40.956048907911324" lon="17.289867083582177"><ele>16.0</ele><time>2026-05-01T20:12:34Z</time></trkpt><trkpt lat="40.956108410342615" lon="17.28975147570388"><ele>18.0</ele><time>2026-05-01T20:12:36Z</time></trkpt><trkpt lat="40.95616533328965" lon="17.28965519370166"><ele>18.0</ele><time>2026-05-01T20:12:37Z</time></trkpt><trkpt lat="40.95622394410278" lon="17.28954613267852"><ele>18.0</ele><time>2026-05-01T20:12:38Z</time></trkpt><trkpt lat="40.95627870737232" lon="17.289476936811393"><ele>18.0</ele><time>2026-05-01T20:12:39Z</time></trkpt><trkpt lat="40.95631412665724" lon="17.289403811212686"><ele>18.0</ele><time>2026-05-01T20:12:41Z</time></trkpt><trkpt lat="40.95638798615911" lon="17.289555512476984"><ele>18.0</ele><time>2026-05-01T20:12:42Z</time></trkpt><trkpt lat="40.95645358706721" lon="17.289615901051288"><ele>18.0</ele><time>2026-05-01T20:12:43Z</time></trkpt><trkpt lat="40.95652557515174" lon="17.28966919265473"><ele>18.0</ele><time>2026-05-01T20:12:45.999Z</time></trkpt><trkpt lat="40.95658231093562" lon="17.289516632457744"><ele>18.0</ele><time>2026-05-01T20:12:46.999Z</time></trkpt><trkpt lat="40.95664047550547" lon="17.289385149671283"><ele>18.0</ele><time>2026-05-01T20:12:47.999Z</time></trkpt><trkpt lat="40.956710960008365" lon="17.28928403231681"><ele>18.0</ele><time>2026-05-01T20:12:48.999Z</time></trkpt><trkpt lat="40.95673882552149" lon="17.28920865050972"><ele>16.5</ele><time>2026-05-01T20:12:49.999Z</time></trkpt><trkpt lat="40.95693259268498" lon="17.288978887374427"><ele>15.0</ele><time>2026-05-01T20:12:52.999Z</time></trkpt><trkpt lat="40.95676003140781" lon="17.289190232483758"><ele>15.0</ele><time>2026-05-01T20:12:56.999Z</time></trkpt><trkpt lat="40.95672546365003" lon="17.289260819909682"><ele>15.0</ele><time>2026-05-01T20:12:59.999Z</time></trkpt><trkpt lat="40.95664138855864" lon="17.28938342964839"><ele>18.0</ele><time>2026-05-01T20:13:16.999Z</time></trkpt><trkpt lat="40.95668346444607" lon="17.289304196946574"><ele>18.0</ele><time>2026-05-01T20:13:17.999Z</time></trkpt></trkseg></trk></gpx>